<?xml version='1.0' encoding='UTF-8'?><gpx version="1.1" creator="JPX - https://github.com/jenetics/jpx" xmlns="http://www.topografix.com/GPX/1/1"><trk><trkseg><trkpt lat="45.71852876012354" lon="9.770986505137715"><ele>333.0</ele><time>2026-03-27T13:37:22Z</time></trkpt><trkpt lat="45.71843996586316" lon="9.770915507282396"><ele>333.0</ele><time>2026-03-27T13:37:24Z</time></trkpt><trkpt lat="45.71837881788666" lon="9.7708705677748"><ele>333.0</ele><time>2026-03-27T13:37:25Z</time></trkpt><trkpt lat="45.718313917806626" lon="9.770829469511435"><ele>333.0</ele><time>2026-03-27T13:37:26Z</time></trkpt><trkpt lat="45.71825519486011" lon="9.770791308796495"><ele>333.0</ele><time>2026-03-27T13:37:27Z</time></trkpt><trkpt lat="45.71819444307031" lon="9.770749813325386"><ele>333.0</ele><time>2026-03-27T13:37:28Z</time></trkpt><trkpt lat="45.71813542839342" lon="9.770699681004883"><ele>333.0</ele><time>2026-03-27T13:37:29Z</time></trkpt><trkpt lat="45.718026727338646" lon="9.770615606551793"><ele>333.0</ele><time>2026-03-27T13:37:31Z</time></trkpt><trkpt lat="45.717928725011134" lon="9.770566791037517"><ele>333.0</ele><time>2026-03-27T13:37:33Z</time></trkpt><trkpt lat="45.71785401576299" lon="9.770596637058597"><ele>333.0</ele><time>2026-03-27T13:37:35Z</time></trkpt><trkpt lat="45.717788082349955" lon="9.770576522517034"><ele>333.0</ele><time>2026-03-27T13:37:37Z</time></trkpt><trkpt lat="45.717714629191846" lon="9.770496752910008"><ele>333.0</ele><time>2026-03-27T13:37:39Z</time></trkpt><trkpt lat="45.717602367238065" lon="9.77036863010789"><ele>331.59999999999997</ele><time>2026-03-27T13:37:41Z</time></trkpt><trkpt lat="45.71754182837602" lon="9.770308818040053"><ele>330.2</ele><time>2026-03-27T13:37:42Z</time></trkpt><trkpt lat="45.71747059505267" lon="9.770235742319997"><ele>328.8</ele><time>2026-03-27T13:37:44Z</time></trkpt><trkpt lat="45.717510676588454" lon="9.770138885977099"><ele>327.4</ele><time>2026-03-27T13:37:46Z</time></trkpt><trkpt lat="45.717587213648784" lon="9.770039155733885"><ele>326.0</ele><time>2026-03-27T13:37:48Z</time></trkpt><trkpt lat="45.717667757809195" lon="9.769917402402225"><ele>326.33333333333337</ele><time>2026-03-27T13:37:50Z</time></trkpt><trkpt lat="45.717712593855246" lon="9.769851551779416"><ele>326.6666666666667</ele><time>2026-03-27T13:37:51Z</time></trkpt><trkpt lat="45.71775591684697" lon="9.769784739008138"><ele>327.0</ele><time>2026-03-27T13:37:52Z</time></trkpt><trkpt lat="45.71783928681491" lon="9.769653641157532"><ele>327.3333333333333</ele><time>2026-03-27T13:37:54Z</time></trkpt><trkpt lat="45.71788343020711" lon="9.769584025405692"><ele>327.66666666666663</ele><time>2026-03-27T13:37:55Z</time></trkpt><trkpt lat="45.717968872987505" lon="9.769448658120101"><ele>328.0</ele><time>2026-03-27T13:37:57Z</time></trkpt><trkpt lat="45.71801163767447" lon="9.769377707638586"><ele>327.0</ele><time>2026-03-27T13:37:58Z</time></trkpt><trkpt lat="45.71805484626422" lon="9.7693084249144"><ele>326.0</ele><time>2026-03-27T13:37:59Z</time></trkpt><trkpt lat="45.71814151134198" lon="9.769176996616693"><ele>325.0</ele><time>2026-03-27T13:38:01Z</time></trkpt><trkpt lat="45.71823256096133" lon="9.769054762545986"><ele>324.0</ele><time>2026-03-27T13:38:03Z</time></trkpt><trkpt lat="45.71828122149532" lon="9.768994976016437"><ele>323.0</ele><time>2026-03-27T13:38:04Z</time></trkpt><trkpt lat="45.71833341823812" lon="9.768934489967808"><ele>322.0</ele><time>2026-03-27T13:38:05Z</time></trkpt><trkpt lat="45.7183852199238" lon="9.7688744894832"><ele>322.0</ele><time>2026-03-27T13:38:06Z</time></trkpt><trkpt lat="45.71843901921828" lon="9.768821776456848"><ele>322.0</ele><time>2026-03-27T13:38:07Z</time></trkpt><trkpt lat="45.71849729767886" lon="9.76876791628905"><ele>322.0</ele><time>2026-03-27T13:38:08Z</time></trkpt><trkpt lat="45.71855473888619" lon="9.768715180154953"><ele>322.0</ele><time>2026-03-27T13:38:09Z</time></trkpt><trkpt lat="45.718609606394345" lon="9.768661844658942"><ele>322.0</ele><time>2026-03-27T13:38:10Z</time></trkpt><trkpt lat="45.71866654959063" lon="9.768608054550619"><ele>322.0</ele><time>2026-03-27T13:38:11Z</time></trkpt><trkpt lat="45.718723516755325" lon="9.76855208061231"><ele>322.0</ele><time>2026-03-27T13:38:12Z</time></trkpt><trkpt lat="45.718776219630186" lon="9.768499018472152"><ele>322.14285714285717</ele><time>2026-03-27T13:38:13Z</time></trkpt><trkpt lat="45.71883414265532" lon="9.768447018897843"><ele>322.2857142857143</ele><time>2026-03-27T13:38:14Z</time></trkpt><trkpt lat="45.71889180409696" lon="9.768395015472205"><ele>322.42857142857144</ele><time>2026-03-27T13:38:15Z</time></trkpt><trkpt lat="45.71894608267664" lon="9.768341781785358"><ele>322.57142857142856</ele><time>2026-03-27T13:38:16Z</time></trkpt><trkpt lat="45.718998764571985" lon="9.768284330594772"><ele>322.7142857142857</ele><time>2026-03-27T13:38:17Z</time></trkpt><trkpt lat="45.71905298188515" lon="9.768231612093944"><ele>322.8571428571429</ele><time>2026-03-27T13:38:18Z</time></trkpt><trkpt lat="45.71910527957629" lon="9.76817609404065"><ele>323.0</ele><time>2026-03-27T13:38:19Z</time></trkpt><trkpt lat="45.719158310775086" lon="9.768121231936657"><ele>323.00000000000006</ele><time>2026-03-27T13:38:20Z</time></trkpt><trkpt lat="45.719212178612985" lon="9.768065670141558"><ele>323.0</ele><time>2026-03-27T13:38:21Z</time></trkpt><trkpt lat="45.71926663497824" lon="9.768018201329914"><ele>323.0</ele><time>2026-03-27T13:38:22Z</time></trkpt><trkpt lat="45.71932343001896" lon="9.767967412783227"><ele>323.0</ele><time>2026-03-27T13:38:23Z</time></trkpt><trkpt lat="45.7193771951569" lon="9.767913682404712"><ele>323.0</ele><time>2026-03-27T13:38:24Z</time></trkpt><trkpt lat="45.719430220888285" lon="9.767861762259185"><ele>323.00000000000006</ele><time>2026-03-27T13:38:25Z</time></trkpt><trkpt lat="45.719485254440954" lon="9.767804024228525"><ele>323.0</ele><time>2026-03-27T13:38:26Z</time></trkpt><trkpt lat="45.71954221597741" lon="9.767747981929103"><ele>323.42857142857144</ele><time>2026-03-27T13:38:27Z</time></trkpt><trkpt lat="45.71959805314245" lon="9.767693922954802"><ele>323.8571428571429</ele><time>2026-03-27T13:38:28Z</time></trkpt><trkpt lat="45.71965402242168" lon="9.767634021537388"><ele>324.28571428571433</ele><time>2026-03-27T13:38:29Z</time></trkpt><trkpt lat="45.71971369609029" lon="9.76758058543574"><ele>324.7142857142857</ele><time>2026-03-27T13:38:30Z</time></trkpt><trkpt lat="45.71976833244359" lon="9.767522906321123"><ele>325.1428571428571</ele><time>2026-03-27T13:38:31Z</time></trkpt><trkpt lat="45.719825624576586" lon="9.767467289646609"><ele>325.5714285714286</ele><time>2026-03-27T13:38:32Z</time></trkpt><trkpt lat="45.71988044989973" lon="9.76741312229497"><ele>326.0</ele><time>2026-03-27T13:38:33Z</time></trkpt><trkpt lat="45.71993508517704" lon="9.76735811550603"><ele>326.0</ele><time>2026-03-27T13:38:34Z</time></trkpt><trkpt lat="45.719990203338575" lon="9.767302325555537"><ele>326.0</ele><time>2026-03-27T13:38:35Z</time></trkpt><trkpt lat="45.720041760389485" lon="9.767246374163946"><ele>326.0</ele><time>2026-03-27T13:38:36Z</time></trkpt><trkpt lat="45.72009244530532" lon="9.767186505014333"><ele>326.0</ele><time>2026-03-27T13:38:37Z</time></trkpt><trkpt lat="45.72014602280083" lon="9.767134656740561"><ele>326.0</ele><time>2026-03-27T13:38:38Z</time></trkpt><trkpt lat="45.7201988383938" lon="9.767079225362178"><ele>326.0</ele><time>2026-03-27T13:38:39Z</time></trkpt><trkpt lat="45.72025003609624" lon="9.767023264000839"><ele>326.0</ele><time>2026-03-27T13:38:40Z</time></trkpt><trkpt lat="45.72030360387028" lon="9.766971059368043"><ele>325.42857142857144</ele><time>2026-03-27T13:38:41Z</time></trkpt><trkpt lat="45.72035899478505" lon="9.766924116757655"><ele>324.85714285714283</ele><time>2026-03-27T13:38:42Z</time></trkpt><trkpt lat="45.72041632093379" lon="9.766874138637158"><ele>324.2857142857143</ele><time>2026-03-27T13:38:43Z</time></trkpt><trkpt lat="45.72047159686198" lon="9.766821877581929"><ele>323.7142857142857</ele><time>2026-03-27T13:38:44Z</time></trkpt><trkpt lat="45.72052776020166" lon="9.766772276518116"><ele>323.1428571428571</ele><time>2026-03-27T13:38:45Z</time></trkpt><trkpt lat="45.72058288858436" lon="9.766723890735635"><ele>322.57142857142856</ele><time>2026-03-27T13:38:46Z</time></trkpt><trkpt lat="45.720630767183884" lon="9.766664076927311"><ele>322.0</ele><time>2026-03-27T13:38:47Z</time></trkpt><trkpt lat="45.72067812469787" lon="9.766602405015854"><ele>322.0</ele><time>2026-03-27T13:38:48Z</time></trkpt><trkpt lat="45.72076538884158" lon="9.76647720885419"><ele>322.0</ele><time>2026-03-27T13:38:50Z</time></trkpt><trkpt lat="45.72081190062094" lon="9.766414765987916"><ele>322.0</ele><time>2026-03-27T13:38:51Z</time></trkpt><trkpt lat="45.720859145900995" lon="9.766349565449941"><ele>322.0</ele><time>2026-03-27T13:38:52Z</time></trkpt><trkpt lat="45.720904723721645" lon="9.766283630201581"><ele>322.0</ele><time>2026-03-27T13:38:53Z</time></trkpt><trkpt lat="45.72095257289131" lon="9.76622230557098"><ele>322.0</ele><time>2026-03-27T13:38:54Z</time></trkpt><trkpt lat="45.72099545739643" lon="9.766155972882594"><ele>322.0</ele><time>2026-03-27T13:38:55Z</time></trkpt><trkpt lat="45.721094492161534" lon="9.766046436700694"><ele>321.25</ele><time>2026-03-27T13:38:57Z</time></trkpt><trkpt lat="45.721189581742365" lon="9.7659381831867"><ele>320.5</ele><time>2026-03-27T13:38:59Z</time></trkpt><trkpt lat="45.72128669311464" lon="9.76583223686918"><ele>319.75</ele><time>2026-03-27T13:39:01Z</time></trkpt><trkpt lat="45.72137353656425" lon="9.765726197034988"><ele>319.0</ele><time>2026-03-27T13:39:03Z</time></trkpt><trkpt lat="45.721470855980876" lon="9.765623992785196"><ele>319.0</ele><time>2026-03-27T13:39:05Z</time></trkpt><trkpt lat="45.72157246675151" lon="9.765519602603167"><ele>319.0</ele><time>2026-03-27T13:39:07Z</time></trkpt><trkpt lat="45.72162591232931" lon="9.765466792013338"><ele>319.0</ele><time>2026-03-27T13:39:08Z</time></trkpt><trkpt lat="45.721678976065704" lon="9.765410747086559"><ele>319.0</ele><time>2026-03-27T13:39:09Z</time></trkpt><trkpt lat="45.72178218058096" lon="9.765303523410504"><ele>319.0</ele><time>2026-03-27T13:39:11Z</time></trkpt><trkpt lat="45.72183567004653" lon="9.765251320152215"><ele>319.0</ele><time>2026-03-27T13:39:12Z</time></trkpt><trkpt lat="45.72188924123185" lon="9.765202757907549"><ele>319.0</ele><time>2026-03-27T13:39:13Z</time></trkpt><trkpt lat="45.72199356492002" lon="9.765102022425141"><ele>319.0</ele><time>2026-03-27T13:39:15Z</time></trkpt><trkpt lat="45.72204707463793" lon="9.765049046287567"><ele>319.0</ele><time>2026-03-27T13:39:16Z</time></trkpt><trkpt lat="45.722100993408574" lon="9.764997698675378"><ele>319.0</ele><time>2026-03-27T13:39:17Z</time></trkpt><trkpt lat="45.722159881494896" lon="9.764951231662856"><ele>319.0</ele><time>2026-03-27T13:39:18Z</time></trkpt><trkpt lat="45.72221408575627" lon="9.764894135335153"><ele>319.0</ele><time>2026-03-27T13:39:19Z</time></trkpt><trkpt lat="45.722266538112606" lon="9.76483669832882"><ele>319.0</ele><time>2026-03-27T13:39:20Z</time></trkpt><trkpt lat="45.72232174854232" lon="9.764783797331418"><ele>319.0</ele><time>2026-03-27T13:39:21Z</time></trkpt><trkpt lat="45.72238020975186" lon="9.764728046960252"><ele>319.0</ele><time>2026-03-27T13:39:22Z</time></trkpt><trkpt lat="45.72243567535989" lon="9.764673680846931"><ele>319.0</ele><time>2026-03-27T13:39:23Z</time></trkpt><trkpt lat="45.722492782200426" lon="9.764619804188346"><ele>319.0</ele><time>2026-03-27T13:39:24Z</time></trkpt><trkpt lat="45.72255039835008" lon="9.764563504206192"><ele>319.0</ele><time>2026-03-27T13:39:25Z</time></trkpt><trkpt lat="45.72260550271933" lon="9.764504631371357"><ele>319.0</ele><time>2026-03-27T13:39:26Z</time></trkpt><trkpt lat="45.72266001180745" lon="9.76444986681924"><ele>319.0</ele><time>2026-03-27T13:39:27Z</time></trkpt><trkpt lat="45.72271634338576" lon="9.764397470683576"><ele>319.0</ele><time>2026-03-27T13:39:28Z</time></trkpt><trkpt lat="45.72277361339836" lon="9.764347883417921"><ele>319.0</ele><time>2026-03-27T13:39:29Z</time></trkpt><trkpt lat="45.72282874024788" lon="9.764295254429742"><ele>319.0</ele><time>2026-03-27T13:39:30Z</time></trkpt><trkpt lat="45.72288115664162" lon="9.764236279330062"><ele>319.0</ele><time>2026-03-27T13:39:31Z</time></trkpt><trkpt lat="45.722933203635044" lon="9.764180513225979"><ele>319.0</ele><time>2026-03-27T13:39:32Z</time></trkpt><trkpt lat="45.72298379732167" lon="9.76412280183554"><ele>319.0</ele><time>2026-03-27T13:39:33Z</time></trkpt><trkpt lat="45.72303635288379" lon="9.76406894902941"><ele>317.75</ele><time>2026-03-27T13:39:34Z</time></trkpt><trkpt lat="45.723128355342766" lon="9.763953432025264"><ele>316.5</ele><time>2026-03-27T13:39:36Z</time></trkpt><trkpt lat="45.72321349383022" lon="9.763837933155799"><ele>315.25</ele><time>2026-03-27T13:39:38Z</time></trkpt><trkpt lat="45.723296990689725" lon="9.763730874732369"><ele>314.0</ele><time>2026-03-27T13:39:40Z</time></trkpt><trkpt lat="45.72336792001033" lon="9.763622263943917"><ele>314.1666666666667</ele><time>2026-03-27T13:39:42Z</time></trkpt><trkpt lat="45.72346075935644" lon="9.763509956657053"><ele>314.33333333333337</ele><time>2026-03-27T13:39:44Z</time></trkpt><trkpt lat="45.72350812119216" lon="9.76344892907681"><ele>314.5</ele><time>2026-03-27T13:39:45Z</time></trkpt><trkpt lat="45.72359114655263" lon="9.76331369228064"><ele>314.6666666666667</ele><time>2026-03-27T13:39:47Z</time></trkpt><trkpt lat="45.72364051737469" lon="9.763248815508359"><ele>314.8333333333333</ele><time>2026-03-27T13:39:48Z</time></trkpt><trkpt lat="45.72369005840609" lon="9.763192930154357"><ele>315.0</ele><time>2026-03-27T13:39:49Z</time></trkpt><trkpt lat="45.723743586303584" lon="9.763141787982242"><ele>315.2857142857143</ele><time>2026-03-27T13:39:50Z</time></trkpt><trkpt lat="45.72379674640251" lon="9.763088196494454"><ele>315.57142857142856</ele><time>2026-03-27T13:39:51Z</time></trkpt><trkpt lat="45.72384860444817" lon="9.76303304882261"><ele>315.8571428571429</ele><time>2026-03-27T13:39:52Z</time></trkpt><trkpt lat="45.72390077538936" lon="9.762978890091816"><ele>316.1428571428571</ele><time>2026-03-27T13:39:53Z</time></trkpt><trkpt lat="45.723952562993944" lon="9.76292606560136"><ele>316.42857142857144</ele><time>2026-03-27T13:39:54Z</time></trkpt><trkpt lat="45.72400297999587" lon="9.762870111271084"><ele>316.7142857142857</ele><time>2026-03-27T13:39:55Z</time></trkpt><trkpt lat="45.72409992942779" lon="9.762756146041239"><ele>317.0</ele><time>2026-03-27T13:39:57Z</time></trkpt><trkpt lat="45.72414942817601" lon="9.762700072903346"><ele>316.57142857142856</ele><time>2026-03-27T13:39:58Z</time></trkpt><trkpt lat="45.72423654826523" lon="9.762567387862946"><ele>316.1428571428571</ele><time>2026-03-27T13:40:00Z</time></trkpt><trkpt lat="45.72427875018148" lon="9.76249405784423"><ele>315.71428571428567</ele><time>2026-03-27T13:40:01Z</time></trkpt><trkpt lat="45.724317518719396" lon="9.762422139331488"><ele>315.2857142857143</ele><time>2026-03-27T13:40:02Z</time></trkpt><trkpt lat="45.72435590598026" lon="9.76234859628367"><ele>314.85714285714283</ele><time>2026-03-27T13:40:03Z</time></trkpt><trkpt lat="45.72439267669742" lon="9.762275038200276"><ele>314.4285714285714</ele><time>2026-03-27T13:40:04Z</time></trkpt><trkpt lat="45.72442668341808" lon="9.762197373505932"><ele>314.0</ele><time>2026-03-27T13:40:05Z</time></trkpt><trkpt lat="45.72445855817962" lon="9.762117288565271"><ele>314.1428571428571</ele><time>2026-03-27T13:40:06Z</time></trkpt><trkpt lat="45.72449022809757" lon="9.76203663292564"><ele>314.2857142857143</ele><time>2026-03-27T13:40:07Z</time></trkpt><trkpt lat="45.72452083860252" lon="9.761953963799328"><ele>314.42857142857144</ele><time>2026-03-27T13:40:08Z</time></trkpt><trkpt lat="45.72455334926895" lon="9.761872677044916"><ele>314.57142857142856</ele><time>2026-03-27T13:40:09Z</time></trkpt><trkpt lat="45.724585589700425" lon="9.761790492983769"><ele>314.7142857142857</ele><time>2026-03-27T13:40:10Z</time></trkpt><trkpt lat="45.72462192372884" lon="9.761712073162235"><ele>314.85714285714283</ele><time>2026-03-27T13:40:11Z</time></trkpt><trkpt lat="45.72469317110312" lon="9.761569246638773"><ele>315.0</ele><time>2026-03-27T13:40:13Z</time></trkpt><trkpt lat="45.724777912563034" lon="9.761451169668963"><ele>315.0</ele><time>2026-03-27T13:40:15Z</time></trkpt><trkpt lat="45.72487648469592" lon="9.761340253389479"><ele>315.0</ele><time>2026-03-27T13:40:17Z</time></trkpt><trkpt lat="45.724929848782054" lon="9.761288821542497"><ele>315.0</ele><time>2026-03-27T13:40:18Z</time></trkpt><trkpt lat="45.72504403544113" lon="9.76120338716091"><ele>315.0</ele><time>2026-03-27T13:40:20Z</time></trkpt><trkpt lat="45.72516037565907" lon="9.761137416335785"><ele>315.0</ele><time>2026-03-27T13:40:22Z</time></trkpt><trkpt lat="45.72527491110883" lon="9.76105955938972"><ele>313.75</ele><time>2026-03-27T13:40:24Z</time></trkpt><trkpt lat="45.725387988154495" lon="9.760999892606947"><ele>312.5</ele><time>2026-03-27T13:40:26Z</time></trkpt><trkpt lat="45.72550117403803" lon="9.760946653398124"><ele>311.25</ele><time>2026-03-27T13:40:28Z</time></trkpt><trkpt lat="45.72561311292506" lon="9.760903684393218"><ele>310.0</ele><time>2026-03-27T13:40:30Z</time></trkpt><trkpt lat="45.72572778475876" lon="9.760858515464234"><ele>310.0</ele><time>2026-03-27T13:40:32Z</time></trkpt><trkpt lat="45.72579297199488" lon="9.760834606195422"><ele>310.0</ele><time>2026-03-27T13:40:33Z</time></trkpt><trkpt lat="45.72590230248958" lon="9.760784680933241"><ele>310.0</ele><time>2026-03-27T13:40:35Z</time></trkpt><trkpt lat="45.7259724626699" lon="9.760765625837353"><ele>310.0</ele><time>2026-03-27T13:40:36Z</time></trkpt><trkpt lat="45.72608214930734" lon="9.760708225725866"><ele>310.0</ele><time>2026-03-27T13:40:38Z</time></trkpt><trkpt lat="45.72619868656537" lon="9.760661871210253"><ele>310.6</ele><time>2026-03-27T13:40:40Z</time></trkpt><trkpt lat="45.72630495055312" lon="9.760625569032042"><ele>311.2</ele><time>2026-03-27T13:40:42Z</time></trkpt><trkpt lat="45.72642029026603" lon="9.760574152411962"><ele>311.8</ele><time>2026-03-27T13:40:44Z</time></trkpt><trkpt lat="45.726518724473465" lon="9.760535332827502"><ele>312.4</ele><time>2026-03-27T13:40:46Z</time></trkpt><trkpt lat="45.72662717353376" lon="9.760488906304078"><ele>313.0</ele><time>2026-03-27T13:40:48Z</time></trkpt><trkpt lat="45.72672756983538" lon="9.760447850711113"><ele>313.0</ele><time>2026-03-27T13:40:50Z</time></trkpt><trkpt lat="45.72679251828665" lon="9.760427214212191"><ele>313.0</ele><time>2026-03-27T13:40:51Z</time></trkpt><trkpt lat="45.726860641645295" lon="9.760409759302341"><ele>313.0</ele><time>2026-03-27T13:40:52Z</time></trkpt><trkpt lat="45.72692452855841" lon="9.760392170828558"><ele>313.0</ele><time>2026-03-27T13:40:53Z</time></trkpt><trkpt lat="45.726990430004356" lon="9.760374783180163"><ele>313.0</ele><time>2026-03-27T13:40:54Z</time></trkpt><trkpt lat="45.72705463906652" lon="9.76035617053974"><ele>313.0</ele><time>2026-03-27T13:40:55Z</time></trkpt><trkpt lat="45.727121653625346" lon="9.76034067768663"><ele>313.0</ele><time>2026-03-27T13:40:56Z</time></trkpt><trkpt lat="45.727191615241544" lon="9.760323956911844"><ele>312.5</ele><time>2026-03-27T13:40:57Z</time></trkpt><trkpt lat="45.7273090883083" lon="9.760281077348486"><ele>312.0</ele><time>2026-03-27T13:40:59Z</time></trkpt><trkpt lat="45.7273725705726" lon="9.76025933421649"><ele>311.5</ele><time>2026-03-27T13:41:00Z</time></trkpt><trkpt lat="45.727433072116106" lon="9.760232463523133"><ele>311.0</ele><time>2026-03-27T13:41:01Z</time></trkpt><trkpt lat="45.72749502443919" lon="9.760202005518549"><ele>310.5</ele><time>2026-03-27T13:41:02Z</time></trkpt><trkpt lat="45.72755942372362" lon="9.760170610127398"><ele>310.0</ele><time>2026-03-27T13:41:03Z</time></trkpt><trkpt lat="45.727621573745544" lon="9.760137788898385"><ele>310.0</ele><time>2026-03-27T13:41:04Z</time></trkpt><trkpt lat="45.72768608483967" lon="9.76010491231519"><ele>310.0</ele><time>2026-03-27T13:41:05Z</time></trkpt><trkpt lat="45.727749623359415" lon="9.760071234034273"><ele>310.0</ele><time>2026-03-27T13:41:06Z</time></trkpt><trkpt lat="45.727813527008045" lon="9.760040462220447"><ele>310.0</ele><time>2026-03-27T13:41:07Z</time></trkpt><trkpt lat="45.72787651829024" lon="9.760009060553298"><ele>310.0</ele><time>2026-03-27T13:41:08Z</time></trkpt><trkpt lat="45.72793685236537" lon="9.75997555145318"><ele>310.0</ele><time>2026-03-27T13:41:09Z</time></trkpt><trkpt lat="45.727996661336256" lon="9.759941770230006"><ele>310.0</ele><time>2026-03-27T13:41:10Z</time></trkpt><trkpt lat="45.728056912659284" lon="9.759910900640905"><ele>310.0</ele><time>2026-03-27T13:41:11Z</time></trkpt><trkpt lat="45.728116904108255" lon="9.759879086256099"><ele>310.0</ele><time>2026-03-27T13:41:12Z</time></trkpt><trkpt lat="45.72823212540409" lon="9.759823021839255"><ele>310.0</ele><time>2026-03-27T13:41:14Z</time></trkpt><trkpt lat="45.7283418623786" lon="9.759762040338376"><ele>310.0</ele><time>2026-03-27T13:41:16Z</time></trkpt><trkpt lat="45.72844975113693" lon="9.759706793860461"><ele>310.0</ele><time>2026-03-27T13:41:18Z</time></trkpt><trkpt lat="45.728566164925255" lon="9.759650539623982"><ele>310.8</ele><time>2026-03-27T13:41:20Z</time></trkpt><trkpt lat="45.72867837199589" lon="9.759576678146486"><ele>311.6</ele><time>2026-03-27T13:41:22Z</time></trkpt><trkpt lat="45.72874148064668" lon="9.759545107933187"><ele>312.4</ele><time>2026-03-27T13:41:23Z</time></trkpt><trkpt lat="45.72885851906825" lon="9.75948697942549"><ele>313.2</ele><time>2026-03-27T13:41:25Z</time></trkpt><trkpt lat="45.72898025155303" lon="9.759433038244623"><ele>314.0</ele><time>2026-03-27T13:41:27Z</time></trkpt><trkpt lat="45.72904217760907" lon="9.759416198859855"><ele>314.0</ele><time>2026-03-27T13:41:28Z</time></trkpt><trkpt lat="45.72910620863751" lon="9.759396627376999"><ele>314.0</ele><time>2026-03-27T13:41:29Z</time></trkpt><trkpt lat="45.729171808546646" lon="9.759384096382204"><ele>314.0</ele><time>2026-03-27T13:41:30Z</time></trkpt><trkpt lat="45.72923770278958" lon="9.759372831628562"><ele>314.0</ele><time>2026-03-27T13:41:31Z</time></trkpt><trkpt lat="45.72930446806574" lon="9.75936491629362"><ele>314.0</ele><time>2026-03-27T13:41:32Z</time></trkpt><trkpt lat="45.72942298006755" lon="9.759350562299113"><ele>314.0</ele><time>2026-03-27T13:41:34Z</time></trkpt><trkpt lat="45.72954929431563" lon="9.759355649824741"><ele>312.6666666666667</ele><time>2026-03-27T13:41:36Z</time></trkpt><trkpt lat="45.729614678366005" lon="9.75935804380022"><ele>311.33333333333337</ele><time>2026-03-27T13:41:37Z</time></trkpt><trkpt lat="45.72968260236476" lon="9.759347967446425"><ele>310.0</ele><time>2026-03-27T13:41:38Z</time></trkpt><trkpt lat="45.729748427241304" lon="9.759338861909352"><ele>308.6666666666667</ele><time>2026-03-27T13:41:39Z</time></trkpt><trkpt lat="45.72987614368524" lon="9.759338918845335"><ele>307.3333333333333</ele><time>2026-03-27T13:41:41Z</time></trkpt><trkpt lat="45.72994313297178" lon="9.759333044783641"><ele>306.0</ele><time>2026-03-27T13:41:42Z</time></trkpt><trkpt lat="45.730006710168624" lon="9.759322554691407"><ele>306.0</ele><time>2026-03-27T13:41:43Z</time></trkpt><trkpt lat="45.730128114563605" lon="9.759307252065051"><ele>306.0</ele><time>2026-03-27T13:41:45Z</time></trkpt><trkpt lat="45.73019433967744" lon="9.75929776104873"><ele>306.0</ele><time>2026-03-27T13:41:46Z</time></trkpt><trkpt lat="45.73032134548858" lon="9.75927832313244"><ele>306.0</ele><time>2026-03-27T13:41:48Z</time></trkpt><trkpt lat="45.73038683319862" lon="9.75927172457451"><ele>306.0</ele><time>2026-03-27T13:41:49Z</time></trkpt><trkpt lat="45.730450512848314" lon="9.759262068487418"><ele>306.0</ele><time>2026-03-27T13:41:50Z</time></trkpt><trkpt lat="45.73051645328701" lon="9.759245171853111"><ele>306.0</ele><time>2026-03-27T13:41:51Z</time></trkpt><trkpt lat="45.73058470874267" lon="9.759227393080671"><ele>306.0</ele><time>2026-03-27T13:41:52Z</time></trkpt><trkpt lat="45.730651602468164" lon="9.759208919588122"><ele>306.0</ele><time>2026-03-27T13:41:53Z</time></trkpt><trkpt lat="45.730719198755615" lon="9.759178053086247"><ele>306.0</ele><time>2026-03-27T13:41:54Z</time></trkpt><trkpt lat="45.73077912097804" lon="9.759122182900835"><ele>306.0</ele><time>2026-03-27T13:41:55Z</time></trkpt><trkpt lat="45.7308409814959" lon="9.759081968147951"><ele>306.0</ele><time>2026-03-27T13:41:56Z</time></trkpt><trkpt lat="45.73090461143957" lon="9.75903664115157"><ele>306.0</ele><time>2026-03-27T13:41:57Z</time></trkpt><trkpt lat="45.730969200501356" lon="9.758983964165353"><ele>306.0</ele><time>2026-03-27T13:41:58Z</time></trkpt><trkpt lat="45.731033599289454" lon="9.758932592315617"><ele>306.0</ele><time>2026-03-27T13:41:59Z</time></trkpt><trkpt lat="45.73110724140514" lon="9.75889040773744"><ele>306.0</ele><time>2026-03-27T13:42:00Z</time></trkpt><trkpt lat="45.731184279017036" lon="9.758852707722967"><ele>306.0</ele><time>2026-03-27T13:42:01Z</time></trkpt><trkpt lat="45.731265088918825" lon="9.758830143147224"><ele>306.0</ele><time>2026-03-27T13:42:02Z</time></trkpt><trkpt lat="45.731336503385265" lon="9.758827366524775"><ele>306.0</ele><time>2026-03-27T13:42:03Z</time></trkpt><trkpt lat="45.73143765843014" lon="9.758800077337867"><ele>306.0</ele><time>2026-03-27T13:42:05Z</time></trkpt><trkpt lat="45.731525070881226" lon="9.75872399041765"><ele>306.0</ele><time>2026-03-27T13:42:07Z</time></trkpt><trkpt lat="45.73151316199594" lon="9.758603537831155"><ele>306.0</ele><time>2026-03-27T13:42:09Z</time></trkpt><trkpt lat="45.73142610432003" lon="9.758501179131786"><ele>306.0</ele><time>2026-03-27T13:42:11Z</time></trkpt><trkpt lat="45.73139594536001" lon="9.758382042797226"><ele>306.0</ele><time>2026-03-27T13:42:13Z</time></trkpt><trkpt lat="45.731482695463974" lon="9.75829738020758"><ele>306.0</ele><time>2026-03-27T13:42:15Z</time></trkpt><trkpt lat="45.731577621465306" lon="9.758237322190594"><ele>306.0</ele><time>2026-03-27T13:42:17Z</time></trkpt><trkpt lat="45.73165830300848" lon="9.758151348641162"><ele>306.0</ele><time>2026-03-27T13:42:19Z</time></trkpt><trkpt lat="45.731735073655734" lon="9.758102367942252"><ele>306.0</ele><time>2026-03-27T13:42:23Z</time></trkpt><trkpt lat="45.731865339639846" lon="9.75803631946331"><ele>306.0</ele><time>2026-03-27T13:42:25Z</time></trkpt><trkpt lat="45.73192179908552" lon="9.757985348122878"><ele>306.0</ele><time>2026-03-27T13:42:26Z</time></trkpt><trkpt lat="45.73198583648752" lon="9.757924635773664"><ele>306.0</ele><time>2026-03-27T13:42:27Z</time></trkpt><trkpt lat="45.7320402683705" lon="9.757868355566787"><ele>306.0</ele><time>2026-03-27T13:42:28Z</time></trkpt><trkpt lat="45.73209903083612" lon="9.757803612664912"><ele>306.0</ele><time>2026-03-27T13:42:29Z</time></trkpt><trkpt lat="45.732155696200365" lon="9.757749504980909"><ele>306.0</ele><time>2026-03-27T13:42:30Z</time></trkpt><trkpt lat="45.732218990582425" lon="9.757713047523673"><ele>306.0</ele><time>2026-03-27T13:42:31Z</time></trkpt><trkpt lat="45.73228766367765" lon="9.757685289679683"><ele>306.0</ele><time>2026-03-27T13:42:32Z</time></trkpt><trkpt lat="45.732349562875" lon="9.757654462726645"><ele>306.0</ele><time>2026-03-27T13:42:33Z</time></trkpt><trkpt lat="45.7324114577238" lon="9.757616980920714"><ele>306.0</ele><time>2026-03-27T13:42:34Z</time></trkpt><trkpt lat="45.73249004193372" lon="9.75758667058771"><ele>306.0</ele><time>2026-03-27T13:42:35Z</time></trkpt><trkpt lat="45.73256538078087" lon="9.757575187228055"><ele>306.0</ele><time>2026-03-27T13:42:36Z</time></trkpt><trkpt lat="45.73263970834491" lon="9.757532216789498"><ele>306.0</ele><time>2026-03-27T13:42:37Z</time></trkpt><trkpt lat="45.73272162772795" lon="9.757504273788593"><ele>306.0</ele><time>2026-03-27T13:42:38Z</time></trkpt><trkpt lat="45.732801510419925" lon="9.75747463084658"><ele>305.3333333333333</ele><time>2026-03-27T13:42:39Z</time></trkpt><trkpt lat="45.732886586016804" lon="9.7574473014616"><ele>304.6666666666667</ele><time>2026-03-27T13:42:40Z</time></trkpt><trkpt lat="45.73297178279281" lon="9.757419014727446"><ele>304.0</ele><time>2026-03-27T13:42:41Z</time></trkpt><trkpt lat="45.73305851206172" lon="9.757393385351742"><ele>303.33333333333337</ele><time>2026-03-27T13:42:42Z</time></trkpt><trkpt lat="45.73314586981301" lon="9.757358804382921"><ele>302.6666666666667</ele><time>2026-03-27T13:42:43Z</time></trkpt><trkpt lat="45.73322828351618" lon="9.757301376150592"><ele>302.0</ele><time>2026-03-27T13:42:44Z</time></trkpt><trkpt lat="45.73329270624725" lon="9.757224417993875"><ele>302.0</ele><time>2026-03-27T13:42:45Z</time></trkpt><trkpt lat="45.73339600555535" lon="9.757051081532303"><ele>302.0</ele><time>2026-03-27T13:42:47Z</time></trkpt><trkpt lat="45.73344864659083" lon="9.756979808603933"><ele>302.0</ele><time>2026-03-27T13:42:48Z</time></trkpt><trkpt lat="45.73350879697402" lon="9.756941485480866"><ele>302.0</ele><time>2026-03-27T13:42:49Z</time></trkpt><trkpt lat="45.73357681549475" lon="9.756921346176469"><ele>302.0</ele><time>2026-03-27T13:42:50Z</time></trkpt><trkpt lat="45.73369044176485" lon="9.756855801908642"><ele>302.0</ele><time>2026-03-27T13:42:52Z</time></trkpt><trkpt lat="45.73380774405436" lon="9.756787364074325"><ele>302.0</ele><time>2026-03-27T13:42:54Z</time></trkpt><trkpt lat="45.73392667833336" lon="9.756722898052086"><ele>302.0</ele><time>2026-03-27T13:42:56Z</time></trkpt><trkpt lat="45.73398702961585" lon="9.75669511478279"><ele>302.0</ele><time>2026-03-27T13:42:57Z</time></trkpt><trkpt lat="45.73410886252942" lon="9.756647335685976"><ele>302.0</ele><time>2026-03-27T13:42:59Z</time></trkpt><trkpt lat="45.734171470462236" lon="9.756619703683956"><ele>302.00000000000006</ele><time>2026-03-27T13:43:00Z</time></trkpt><trkpt lat="45.734274441051944" lon="9.75652753212806"><ele>302.0</ele><time>2026-03-27T13:43:02Z</time></trkpt><trkpt lat="45.73431057748011" lon="9.756446673540507"><ele>302.0</ele><time>2026-03-27T13:43:03Z</time></trkpt><trkpt lat="45.73432069793416" lon="9.756354637035678"><ele>302.0</ele><time>2026-03-27T13:43:04Z</time></trkpt><trkpt lat="45.734320880658544" lon="9.756263600050879"><ele>302.0</ele><time>2026-03-27T13:43:05Z</time></trkpt><trkpt lat="45.73432965940464" lon="9.756170302929029"><ele>302.00000000000006</ele><time>2026-03-27T13:43:06Z</time></trkpt><trkpt lat="45.73436257294034" lon="9.756088157413235"><ele>302.0</ele><time>2026-03-27T13:43:07Z</time></trkpt><trkpt lat="45.734467402107185" lon="9.755991972621528"><ele>301.00000000000006</ele><time>2026-03-27T13:43:09Z</time></trkpt><trkpt lat="45.73453325445172" lon="9.755970911213854"><ele>300.0</ele><time>2026-03-27T13:43:10Z</time></trkpt><trkpt lat="45.73459648325503" lon="9.755953336709934"><ele>299.0</ele><time>2026-03-27T13:43:11Z</time></trkpt><trkpt lat="45.73465767324158" lon="9.755931843882612"><ele>298.0</ele><time>2026-03-27T13:43:12Z</time></trkpt><trkpt lat="45.734722269222594" lon="9.755905426414667"><ele>297.0</ele><time>2026-03-27T13:43:13Z</time></trkpt><trkpt lat="45.734782376593586" lon="9.755878611797737"><ele>296.00000000000006</ele><time>2026-03-27T13:43:14Z</time></trkpt><trkpt lat="45.73484783383634" lon="9.755859022030423"><ele>295.0</ele><time>2026-03-27T13:43:15Z</time></trkpt><trkpt lat="45.73497291009865" lon="9.755823980845507"><ele>295.0</ele><time>2026-03-27T13:43:17Z</time></trkpt><trkpt lat="45.73509334284837" lon="9.755767889371695"><ele>295.0</ele><time>2026-03-27T13:43:19Z</time></trkpt><trkpt lat="45.7351463036839" lon="9.755709671102256"><ele>295.0</ele><time>2026-03-27T13:43:20Z</time></trkpt><trkpt lat="45.73519087304463" lon="9.755641626996013"><ele>295.0</ele><time>2026-03-27T13:43:21Z</time></trkpt><trkpt lat="45.735238325594445" lon="9.755580212609699"><ele>295.0</ele><time>2026-03-27T13:43:22Z</time></trkpt><trkpt lat="45.73529264546291" lon="9.755534515615878"><ele>295.0</ele><time>2026-03-27T13:43:23Z</time></trkpt><trkpt lat="45.735353863878075" lon="9.755505180193472"><ele>294.2</ele><time>2026-03-27T13:43:24Z</time></trkpt><trkpt lat="45.73547046633233" lon="9.755531423014778"><ele>293.4</ele><time>2026-03-27T13:43:26Z</time></trkpt><trkpt lat="45.73559310149412" lon="9.755511195005514"><ele>292.6</ele><time>2026-03-27T13:43:28Z</time></trkpt><trkpt lat="45.735631154330136" lon="9.75541409011353"><ele>291.8</ele><time>2026-03-27T13:43:29Z</time></trkpt><trkpt lat="45.73563302760294" lon="9.75530140791075"><ele>291.0</ele><time>2026-03-27T13:43:30Z</time></trkpt><trkpt lat="45.735620499882955" lon="9.755198852686098"><ele>290.6666666666667</ele><time>2026-03-27T13:43:31Z</time></trkpt><trkpt lat="45.735611674721646" lon="9.755080812848885"><ele>290.3333333333333</ele><time>2026-03-27T13:43:32Z</time></trkpt><trkpt lat="45.73557332430967" lon="9.754990174975678"><ele>290.0</ele><time>2026-03-27T13:43:33Z</time></trkpt><trkpt lat="45.73553604777823" lon="9.754898983099814"><ele>289.66666666666663</ele><time>2026-03-27T13:43:34Z</time></trkpt><trkpt lat="45.73550744011864" lon="9.754803867039701"><ele>289.3333333333333</ele><time>2026-03-27T13:43:35Z</time></trkpt><trkpt lat="45.73547874138783" lon="9.754707119290492"><ele>289.0</ele><time>2026-03-27T13:43:36Z</time></trkpt><trkpt lat="45.735448286557975" lon="9.754605703780436"><ele>289.0</ele><time>2026-03-27T13:43:37Z</time></trkpt><trkpt lat="45.73542329936838" lon="9.754504520531517"><ele>289.0</ele><time>2026-03-27T13:43:38Z</time></trkpt><trkpt lat="45.73539785029248" lon="9.754403338980394"><ele>289.0</ele><time>2026-03-27T13:43:39Z</time></trkpt><trkpt lat="45.735370991003784" lon="9.754301179063479"><ele>289.0</ele><time>2026-03-27T13:43:40Z</time></trkpt><trkpt lat="45.73534126685016" lon="9.754204110921947"><ele>289.0</ele><time>2026-03-27T13:43:41Z</time></trkpt><trkpt lat="45.73530903353899" lon="9.754110022583346"><ele>289.0</ele><time>2026-03-27T13:43:42Z</time></trkpt><trkpt lat="45.73528091044498" lon="9.754019988340291"><ele>289.0</ele><time>2026-03-27T13:43:43Z</time></trkpt><trkpt lat="45.73525527238239" lon="9.753926044317259"><ele>288.7142857142857</ele><time>2026-03-27T13:43:44Z</time></trkpt><trkpt lat="45.73523005514801" lon="9.753835103883956"><ele>288.42857142857144</ele><time>2026-03-27T13:43:45Z</time></trkpt><trkpt lat="45.7352071101266" lon="9.753743679729816"><ele>288.1428571428571</ele><time>2026-03-27T13:43:46Z</time></trkpt><trkpt lat="45.73518256082413" lon="9.75365432249412"><ele>287.8571428571429</ele><time>2026-03-27T13:43:47Z</time></trkpt><trkpt lat="45.735155543083025" lon="9.75356749795135"><ele>287.57142857142856</ele><time>2026-03-27T13:43:48Z</time></trkpt><trkpt lat="45.735126756307785" lon="9.753484249052498"><ele>287.2857142857143</ele><time>2026-03-27T13:43:49Z</time></trkpt><trkpt lat="45.73509282457967" lon="9.753406085921517"><ele>287.0</ele><time>2026-03-27T13:43:50Z</time></trkpt><trkpt lat="45.73502614838198" lon="9.753253562240596"><ele>287.42857142857144</ele><time>2026-03-27T13:43:52Z</time></trkpt><trkpt lat="45.73499603447504" lon="9.7531727344236"><ele>287.8571428571429</ele><time>2026-03-27T13:43:53Z</time></trkpt><trkpt lat="45.73496835246973" lon="9.75308971142153"><ele>288.2857142857143</ele><time>2026-03-27T13:43:54Z</time></trkpt><trkpt lat="45.73494244249033" lon="9.752999782320739"><ele>288.7142857142857</ele><time>2026-03-27T13:43:55Z</time></trkpt><trkpt lat="45.73492750567614" lon="9.752906428943506"><ele>289.14285714285717</ele><time>2026-03-27T13:43:56Z</time></trkpt><trkpt lat="45.73492201769591" lon="9.752809499308386"><ele>289.57142857142856</ele><time>2026-03-27T13:43:57Z</time></trkpt><trkpt lat="45.73491383619207" lon="9.752715060866484"><ele>290.0</ele><time>2026-03-27T13:43:58Z</time></trkpt><trkpt lat="45.734897410092" lon="9.752620177539209"><ele>290.0</ele><time>2026-03-27T13:43:59Z</time></trkpt><trkpt lat="45.73487756206532" lon="9.752528369074323"><ele>290.0</ele><time>2026-03-27T13:44:00Z</time></trkpt><trkpt lat="45.734862034983756" lon="9.752426178868536"><ele>290.0</ele><time>2026-03-27T13:44:01Z</time></trkpt><trkpt lat="45.73484295985396" lon="9.752330565854779"><ele>290.0</ele><time>2026-03-27T13:44:02Z</time></trkpt><trkpt lat="45.73482459324983" lon="9.752227922439404"><ele>290.0</ele><time>2026-03-27T13:44:03Z</time></trkpt><trkpt lat="45.73480127643404" lon="9.752127572771762"><ele>290.0</ele><time>2026-03-27T13:44:04Z</time></trkpt><trkpt lat="45.734776754298096" lon="9.752019011545196"><ele>290.0</ele><time>2026-03-27T13:44:05Z</time></trkpt><trkpt lat="45.73474169729011" lon="9.751929430466912"><ele>289.83333333333337</ele><time>2026-03-27T13:44:06Z</time></trkpt><trkpt lat="45.73471138885405" lon="9.75182058539101"><ele>289.6666666666667</ele><time>2026-03-27T13:44:07Z</time></trkpt><trkpt lat="45.73467466300804" lon="9.751717682389907"><ele>289.5</ele><time>2026-03-27T13:44:08Z</time></trkpt><trkpt lat="45.73463734441692" lon="9.75161333879385"><ele>289.3333333333333</ele><time>2026-03-27T13:44:09Z</time></trkpt><trkpt lat="45.73459656936159" lon="9.751508272522992"><ele>289.16666666666663</ele><time>2026-03-27T13:44:10Z</time></trkpt><trkpt lat="45.73454175096437" lon="9.751402889571073"><ele>289.0</ele><time>2026-03-27T13:44:11Z</time></trkpt><trkpt lat="45.73448213525066" lon="9.751307611143856"><ele>289.0</ele><time>2026-03-27T13:44:12Z</time></trkpt><trkpt lat="45.73445647695213" lon="9.751209960097343"><ele>289.0</ele><time>2026-03-27T13:44:13Z</time></trkpt><trkpt lat="45.73442698029433" lon="9.751123491316738"><ele>289.0</ele><time>2026-03-27T13:44:14Z</time></trkpt><trkpt lat="45.7343938569108" lon="9.75104480622817"><ele>289.0</ele><time>2026-03-27T13:44:15Z</time></trkpt><trkpt lat="45.73433059972719" lon="9.750898977754249"><ele>289.0</ele><time>2026-03-27T13:44:17Z</time></trkpt><trkpt lat="45.734259204763866" lon="9.750749779715235"><ele>289.5</ele><time>2026-03-27T13:44:19Z</time></trkpt><trkpt lat="45.734200354549024" lon="9.750597537537539"><ele>290.0</ele><time>2026-03-27T13:44:21Z</time></trkpt><trkpt lat="45.734142074085945" lon="9.750439936446302"><ele>290.5</ele><time>2026-03-27T13:44:23Z</time></trkpt><trkpt lat="45.73411694245513" lon="9.75035424989065"><ele>291.0</ele><time>2026-03-27T13:44:24Z</time></trkpt><trkpt lat="45.734091475529866" lon="9.750268322271552"><ele>291.5</ele><time>2026-03-27T13:44:25Z</time></trkpt><trkpt lat="45.73406449197532" lon="9.750184936603091"><ele>292.0</ele><time>2026-03-27T13:44:26Z</time></trkpt><trkpt lat="45.7340150228684" lon="9.750017772907709"><ele>292.0</ele><time>2026-03-27T13:44:28Z</time></trkpt><trkpt lat="45.733984457973584" lon="9.749933265551746"><ele>292.0</ele><time>2026-03-27T13:44:29Z</time></trkpt><trkpt lat="45.73396043641697" lon="9.749845870872296"><ele>292.0</ele><time>2026-03-27T13:44:30Z</time></trkpt><trkpt lat="45.733905741699964" lon="9.749677580155153"><ele>292.0</ele><time>2026-03-27T13:44:32Z</time></trkpt><trkpt lat="45.73387798786491" lon="9.74959504441456"><ele>292.0</ele><time>2026-03-27T13:44:33Z</time></trkpt><trkpt lat="45.73385023393167" lon="9.74951283126274"><ele>292.0</ele><time>2026-03-27T13:44:34Z</time></trkpt><trkpt lat="45.73382012584289" lon="9.74943163246512"><ele>291.4</ele><time>2026-03-27T13:44:35Z</time></trkpt><trkpt lat="45.73378636904829" lon="9.74934806459152"><ele>290.79999999999995</ele><time>2026-03-27T13:44:36Z</time></trkpt><trkpt lat="45.73375647024282" lon="9.749264690359716"><ele>290.2</ele><time>2026-03-27T13:44:37Z</time></trkpt><trkpt lat="45.73370462173003" lon="9.749097631901627"><ele>289.59999999999997</ele><time>2026-03-27T13:44:39Z</time></trkpt><trkpt lat="45.73365718154063" lon="9.748928730903632"><ele>289.0</ele><time>2026-03-27T13:44:41Z</time></trkpt><trkpt lat="45.733620233159705" lon="9.748854816751582"><ele>289.0</ele><time>2026-03-27T13:44:42Z</time></trkpt><trkpt lat="45.733573809667234" lon="9.748785280403077"><ele>289.0</ele><time>2026-03-27T13:44:43Z</time></trkpt><trkpt lat="45.73352269216681" lon="9.748727470062244"><ele>289.0</ele><time>2026-03-27T13:44:44Z</time></trkpt><trkpt lat="45.73347245612789" lon="9.748671841005622"><ele>289.0</ele><time>2026-03-27T13:44:45Z</time></trkpt><trkpt lat="45.7334219279179" lon="9.748608594661835"><ele>289.0</ele><time>2026-03-27T13:44:46Z</time></trkpt><trkpt lat="45.733376720667565" lon="9.748535966205777"><ele>289.0</ele><time>2026-03-27T13:44:47Z</time></trkpt><trkpt lat="45.73334309899064" lon="9.748452800190927"><ele>289.0</ele><time>2026-03-27T13:44:48Z</time></trkpt><trkpt lat="45.73331465259994" lon="9.748369073646014"><ele>289.5</ele><time>2026-03-27T13:44:49Z</time></trkpt><trkpt lat="45.73329974430839" lon="9.748276775996622"><ele>290.0</ele><time>2026-03-27T13:44:50Z</time></trkpt><trkpt lat="45.73329012204768" lon="9.748183467195279"><ele>290.5</ele><time>2026-03-27T13:44:51Z</time></trkpt><trkpt lat="45.73327825208719" lon="9.748090082464175"><ele>291.0</ele><time>2026-03-27T13:44:52Z</time></trkpt><trkpt lat="45.733257023722224" lon="9.747998596826639"><ele>291.5</ele><time>2026-03-27T13:44:53Z</time></trkpt><trkpt lat="45.73322507398152" lon="9.747913826054146"><ele>292.0</ele><time>2026-03-27T13:44:54Z</time></trkpt><trkpt lat="45.733147762664586" lon="9.747767935966486"><ele>291.57142857142856</ele><time>2026-03-27T13:44:56Z</time></trkpt><trkpt lat="45.733105831510024" lon="9.747694953374154"><ele>291.14285714285717</ele><time>2026-03-27T13:44:57Z</time></trkpt><trkpt lat="45.733059565506935" lon="9.74762814979364"><ele>290.7142857142857</ele><time>2026-03-27T13:44:58Z</time></trkpt><trkpt lat="45.7330122176993" lon="9.747563352310602"><ele>290.2857142857143</ele><time>2026-03-27T13:44:59Z</time></trkpt><trkpt lat="45.73295957965733" lon="9.74750520906781"><ele>289.85714285714283</ele><time>2026-03-27T13:45:00Z</time></trkpt><trkpt lat="45.732903852215976" lon="9.747457756858779"><ele>289.42857142857144</ele><time>2026-03-27T13:45:01Z</time></trkpt><trkpt lat="45.73283593809672" lon="9.747322586835791"><ele>289.0</ele><time>2026-03-27T13:45:03Z</time></trkpt><trkpt lat="45.73282518999068" lon="9.747136892283203"><ele>289.0</ele><time>2026-03-27T13:45:05Z</time></trkpt><trkpt lat="45.73282573960087" lon="9.747039875300608"><ele>289.0</ele><time>2026-03-27T13:45:06Z</time></trkpt><trkpt lat="45.732821797708255" lon="9.746943647099352"><ele>289.0</ele><time>2026-03-27T13:45:07Z</time></trkpt><trkpt lat="45.73281339063705" lon="9.746849778282375"><ele>289.0</ele><time>2026-03-27T13:45:08Z</time></trkpt><trkpt lat="45.73281197324149" lon="9.746758989630997"><ele>289.0</ele><time>2026-03-27T13:45:09Z</time></trkpt><trkpt lat="45.732807481851005" lon="9.74666640015755"><ele>289.0</ele><time>2026-03-27T13:45:10Z</time></trkpt><trkpt lat="45.73280608113061" lon="9.746572628797193"><ele>289.0</ele><time>2026-03-27T13:45:11Z</time></trkpt><trkpt lat="45.73280414543745" lon="9.746477637090418"><ele>288.57142857142856</ele><time>2026-03-27T13:45:12Z</time></trkpt><trkpt lat="45.73279975193194" lon="9.746385103945912"><ele>288.1428571428571</ele><time>2026-03-27T13:45:13Z</time></trkpt><trkpt lat="45.732789470599066" lon="9.746291735958808"><ele>287.71428571428567</ele><time>2026-03-27T13:45:14Z</time></trkpt><trkpt lat="45.73277495351124" lon="9.746202395654835"><ele>287.2857142857143</ele><time>2026-03-27T13:45:15Z</time></trkpt><trkpt lat="45.732755330779284" lon="9.746103722299903"><ele>286.85714285714283</ele><time>2026-03-27T13:45:16Z</time></trkpt><trkpt lat="45.732730670204" lon="9.746009561912272"><ele>286.4285714285714</ele><time>2026-03-27T13:45:17Z</time></trkpt><trkpt lat="45.732709485347655" lon="9.745911282725718"><ele>286.0</ele><time>2026-03-27T13:45:18Z</time></trkpt><trkpt lat="45.732688996240114" lon="9.74581682709117"><ele>287.0</ele><time>2026-03-27T13:45:19Z</time></trkpt><trkpt lat="45.73266430151834" lon="9.745722039067298"><ele>288.0</ele><time>2026-03-27T13:45:20Z</time></trkpt><trkpt lat="45.73264699452161" lon="9.745628354895521"><ele>289.0</ele><time>2026-03-27T13:45:21Z</time></trkpt><trkpt lat="45.732625562511984" lon="9.745538746851786"><ele>290.0</ele><time>2026-03-27T13:45:22Z</time></trkpt><trkpt lat="45.7326053640199" lon="9.745447961709864"><ele>291.0</ele><time>2026-03-27T13:45:23Z</time></trkpt><trkpt lat="45.7325602498286" lon="9.745274721179277"><ele>292.0</ele><time>2026-03-27T13:45:25Z</time></trkpt><trkpt lat="45.732542015593395" lon="9.745185901211629"><ele>292.0</ele><time>2026-03-27T13:45:26Z</time></trkpt><trkpt lat="45.73251974831271" lon="9.74509813615162"><ele>292.0</ele><time>2026-03-27T13:45:27Z</time></trkpt><trkpt lat="45.73249761446174" lon="9.745011540850577"><ele>292.0</ele><time>2026-03-27T13:45:28Z</time></trkpt><trkpt lat="45.732472557835564" lon="9.744924389556232"><ele>292.0</ele><time>2026-03-27T13:45:29Z</time></trkpt><trkpt lat="45.732417594093995" lon="9.744761214965175"><ele>292.0</ele><time>2026-03-27T13:45:31Z</time></trkpt><trkpt lat="45.73240037052944" lon="9.744671116177141"><ele>292.0</ele><time>2026-03-27T13:45:32Z</time></trkpt><trkpt lat="45.73238164959229" lon="9.744582190996509"><ele>292.0</ele><time>2026-03-27T13:45:33Z</time></trkpt><trkpt lat="45.7323651456658" lon="9.744491632698637"><ele>292.0</ele><time>2026-03-27T13:45:34Z</time></trkpt><trkpt lat="45.73234788725779" lon="9.744403982505794"><ele>292.0</ele><time>2026-03-27T13:45:35Z</time></trkpt><trkpt lat="45.73232939170849" lon="9.744314855679043"><ele>292.0</ele><time>2026-03-27T13:45:36Z</time></trkpt><trkpt lat="45.73231098340715" lon="9.744228544137304"><ele>292.0</ele><time>2026-03-27T13:45:37Z</time></trkpt><trkpt lat="45.73229266106644" lon="9.744137664361183"><ele>292.0</ele><time>2026-03-27T13:45:38Z</time></trkpt><trkpt lat="45.73227551701565" lon="9.744050167961861"><ele>292.0</ele><time>2026-03-27T13:45:39Z</time></trkpt><trkpt lat="45.73225852330655" lon="9.74396049738348"><ele>291.2857142857143</ele><time>2026-03-27T13:45:40Z</time></trkpt><trkpt lat="45.73224152792315" lon="9.74387278501271"><ele>290.57142857142856</ele><time>2026-03-27T13:45:41Z</time></trkpt><trkpt lat="45.73222284880547" lon="9.743784636245065"><ele>289.8571428571429</ele><time>2026-03-27T13:45:42Z</time></trkpt><trkpt lat="45.73220387310748" lon="9.743695477473576"><ele>289.1428571428571</ele><time>2026-03-27T13:45:43Z</time></trkpt><trkpt lat="45.73218450584769" lon="9.743607807822546"><ele>288.42857142857144</ele><time>2026-03-27T13:45:44Z</time></trkpt><trkpt lat="45.73216599773711" lon="9.743517369021566"><ele>287.7142857142857</ele><time>2026-03-27T13:45:45Z</time></trkpt><trkpt lat="45.7321486664542" lon="9.743430084784485"><ele>287.0</ele><time>2026-03-27T13:45:46Z</time></trkpt><trkpt lat="45.73212900591792" lon="9.743339409768161"><ele>286.7142857142857</ele><time>2026-03-27T13:45:47Z</time></trkpt><trkpt lat="45.732088504961645" lon="9.743166353312526"><ele>286.42857142857144</ele><time>2026-03-27T13:45:49Z</time></trkpt><trkpt lat="45.73206521882882" lon="9.74308138486133"><ele>286.1428571428571</ele><time>2026-03-27T13:45:50Z</time></trkpt><trkpt lat="45.732040412090015" lon="9.742996311546392"><ele>285.8571428571429</ele><time>2026-03-27T13:45:51Z</time></trkpt><trkpt lat="45.73201544682057" lon="9.742912783832574"><ele>285.57142857142856</ele><time>2026-03-27T13:45:52Z</time></trkpt><trkpt lat="45.73198926443101" lon="9.742830128723247"><ele>285.2857142857143</ele><time>2026-03-27T13:45:53Z</time></trkpt><trkpt lat="45.73196648074205" lon="9.742743620888348"><ele>285.0</ele><time>2026-03-27T13:45:54Z</time></trkpt><trkpt lat="45.73193668620883" lon="9.742661497897334"><ele>284.85714285714283</ele><time>2026-03-27T13:45:55Z</time></trkpt><trkpt lat="45.731908997536365" lon="9.742577593604256"><ele>284.7142857142857</ele><time>2026-03-27T13:45:56Z</time></trkpt><trkpt lat="45.731878929944" lon="9.742496804878922"><ele>284.57142857142856</ele><time>2026-03-27T13:45:57Z</time></trkpt><trkpt lat="45.73184200662054" lon="9.742423254839673"><ele>284.42857142857144</ele><time>2026-03-27T13:45:58Z</time></trkpt><trkpt lat="45.73179885524857" lon="9.742357127771367"><ele>284.2857142857143</ele><time>2026-03-27T13:45:59Z</time></trkpt><trkpt lat="45.73175138601408" lon="9.742296742182955"><ele>284.1428571428571</ele><time>2026-03-27T13:46:00Z</time></trkpt><trkpt lat="45.73170516535811" lon="9.742234893849696"><ele>284.0</ele><time>2026-03-27T13:46:01Z</time></trkpt><trkpt lat="45.73161639744962" lon="9.742105967827934"><ele>284.8</ele><time>2026-03-27T13:46:03Z</time></trkpt><trkpt lat="45.73153014758968" lon="9.741977016113461"><ele>285.59999999999997</ele><time>2026-03-27T13:46:05Z</time></trkpt><trkpt lat="45.73148601534435" lon="9.741909436306397"><ele>286.4</ele><time>2026-03-27T13:46:06Z</time></trkpt><trkpt lat="45.73139654771533" lon="9.741781380149071"><ele>287.2</ele><time>2026-03-27T13:46:08Z</time></trkpt><trkpt lat="45.73130807476989" lon="9.741651777719778"><ele>288.0</ele><time>2026-03-27T13:46:10Z</time></trkpt><trkpt lat="45.73126084983504" lon="9.741589723956256"><ele>288.0</ele><time>2026-03-27T13:46:11Z</time></trkpt><trkpt lat="45.73121154359565" lon="9.74153264011662"><ele>288.0</ele><time>2026-03-27T13:46:12Z</time></trkpt><trkpt lat="45.73110591150435" lon="9.74143086255708"><ele>288.0</ele><time>2026-03-27T13:46:14Z</time></trkpt><trkpt lat="45.731047361774884" lon="9.741395734812937"><ele>288.0</ele><time>2026-03-27T13:46:15Z</time></trkpt><trkpt lat="45.73098800590928" lon="9.741360546123447"><ele>288.0</ele><time>2026-03-27T13:46:16Z</time></trkpt><trkpt lat="45.730927511972006" lon="9.741330344287256"><ele>288.0</ele><time>2026-03-27T13:46:17Z</time></trkpt><trkpt lat="45.73086131617332" lon="9.741307623532727"><ele>289.5714285714286</ele><time>2026-03-27T13:46:18Z</time></trkpt><trkpt lat="45.73079695372406" lon="9.741282566861594"><ele>291.14285714285717</ele><time>2026-03-27T13:46:19Z</time></trkpt><trkpt lat="45.73073231374342" lon="9.741262824601609"><ele>292.7142857142857</ele><time>2026-03-27T13:46:20Z</time></trkpt><trkpt lat="45.73066594217904" lon="9.741232576088551"><ele>294.28571428571433</ele><time>2026-03-27T13:46:21Z</time></trkpt><trkpt lat="45.73060606612373" lon="9.741200473970645"><ele>295.8571428571429</ele><time>2026-03-27T13:46:22Z</time></trkpt><trkpt lat="45.73054463354766" lon="9.741160801116301"><ele>297.42857142857144</ele><time>2026-03-27T13:46:23Z</time></trkpt><trkpt lat="45.73048640983614" lon="9.741114209501353"><ele>299.0</ele><time>2026-03-27T13:46:24Z</time></trkpt><trkpt lat="45.73043128087485" lon="9.741065357824247"><ele>297.42857142857144</ele><time>2026-03-27T13:46:25Z</time></trkpt><trkpt lat="45.73037861216081" lon="9.741012878602884"><ele>295.8571428571429</ele><time>2026-03-27T13:46:26Z</time></trkpt><trkpt lat="45.73033063540098" lon="9.740950132573907"><ele>294.28571428571433</ele><time>2026-03-27T13:46:27Z</time></trkpt><trkpt lat="45.73028611596739" lon="9.74088306807574"><ele>292.7142857142857</ele><time>2026-03-27T13:46:28Z</time></trkpt><trkpt lat="45.73024032023713" lon="9.74081734092637"><ele>291.14285714285717</ele><time>2026-03-27T13:46:29Z</time></trkpt><trkpt lat="45.73019345156846" lon="9.740748133912708"><ele>289.5714285714286</ele><time>2026-03-27T13:46:30Z</time></trkpt><trkpt lat="45.7301513111104" lon="9.74067293843324"><ele>288.0</ele><time>2026-03-27T13:46:31Z</time></trkpt><trkpt lat="45.73010390678514" lon="9.740602674444405"><ele>288.00000000000006</ele><time>2026-03-27T13:46:32Z</time></trkpt><trkpt lat="45.73005749964597" lon="9.74053451633507"><ele>288.0</ele><time>2026-03-27T13:46:33Z</time></trkpt><trkpt lat="45.73000867215754" lon="9.740464415159847"><ele>288.0</ele><time>2026-03-27T13:46:34Z</time></trkpt><trkpt lat="45.7299634597663" lon="9.740390632818666"><ele>288.0</ele><time>2026-03-27T13:46:35Z</time></trkpt><trkpt lat="45.72991180187088" lon="9.740324060753885"><ele>288.0</ele><time>2026-03-27T13:46:36Z</time></trkpt><trkpt lat="45.729855722243904" lon="9.7402671875701"><ele>288.00000000000006</ele><time>2026-03-27T13:46:37Z</time></trkpt><trkpt lat="45.72979442298197" lon="9.740220841699903"><ele>288.0</ele><time>2026-03-27T13:46:38Z</time></trkpt><trkpt lat="45.729730523898176" lon="9.740179730210036"><ele>287.28571428571433</ele><time>2026-03-27T13:46:39Z</time></trkpt><trkpt lat="45.729672182845015" lon="9.740139158772347"><ele>286.57142857142856</ele><time>2026-03-27T13:46:40Z</time></trkpt><trkpt lat="45.72960815322598" lon="9.740101175356475"><ele>285.8571428571429</ele><time>2026-03-27T13:46:41Z</time></trkpt><trkpt lat="45.729543215820854" lon="9.740071606154284"><ele>285.14285714285717</ele><time>2026-03-27T13:46:42Z</time></trkpt><trkpt lat="45.72947827356876" lon="9.740046480142462"><ele>284.42857142857144</ele><time>2026-03-27T13:46:43Z</time></trkpt><trkpt lat="45.72940966858662" lon="9.740028732083985"><ele>283.7142857142857</ele><time>2026-03-27T13:46:44Z</time></trkpt><trkpt lat="45.72933993915891" lon="9.740018018574547"><ele>283.0</ele><time>2026-03-27T13:46:45Z</time></trkpt><trkpt lat="45.729269166053925" lon="9.740015293361724"><ele>283.0</ele><time>2026-03-27T13:46:46Z</time></trkpt><trkpt lat="45.729199244860126" lon="9.74001989130894"><ele>283.0</ele><time>2026-03-27T13:46:47Z</time></trkpt><trkpt lat="45.7291287254597" lon="9.740025477435477"><ele>283.0</ele><time>2026-03-27T13:46:48Z</time></trkpt><trkpt lat="45.72905949636421" lon="9.740034765316677"><ele>283.0</ele><time>2026-03-27T13:46:49Z</time></trkpt><trkpt lat="45.728991059842265" lon="9.740050901799611"><ele>283.0</ele><time>2026-03-27T13:46:50Z</time></trkpt><trkpt lat="45.72892187675924" lon="9.740066965113042"><ele>283.0</ele><time>2026-03-27T13:46:51Z</time></trkpt><trkpt lat="45.72885193138654" lon="9.740084903409528"><ele>283.0</ele><time>2026-03-27T13:46:52Z</time></trkpt><trkpt lat="45.728784752038955" lon="9.740099256511304"><ele>283.0</ele><time>2026-03-27T13:46:53Z</time></trkpt><trkpt lat="45.72871683758137" lon="9.740115727812048"><ele>283.0</ele><time>2026-03-27T13:46:54Z</time></trkpt><trkpt lat="45.728648052121116" lon="9.740132263716744"><ele>283.0</ele><time>2026-03-27T13:46:55Z</time></trkpt><trkpt lat="45.72858267421905" lon="9.740146320903172"><ele>283.0</ele><time>2026-03-27T13:46:56Z</time></trkpt><trkpt lat="45.72851498032426" lon="9.740153132544643"><ele>283.0</ele><time>2026-03-27T13:46:57Z</time></trkpt><trkpt lat="45.72844749063473" lon="9.740160137323523"><ele>283.0</ele><time>2026-03-27T13:46:58Z</time></trkpt><trkpt lat="45.72831984666311" lon="9.740168967055878"><ele>282.8571428571429</ele><time>2026-03-27T13:47:00Z</time></trkpt><trkpt lat="45.7282567787147" lon="9.740170778330949"><ele>282.7142857142857</ele><time>2026-03-27T13:47:01Z</time></trkpt><trkpt lat="45.728190251133995" lon="9.740167651963757"><ele>282.57142857142856</ele><time>2026-03-27T13:47:02Z</time></trkpt><trkpt lat="45.7281257578429" lon="9.740169878217618"><ele>282.42857142857144</ele><time>2026-03-27T13:47:03Z</time></trkpt><trkpt lat="45.7280581081451" lon="9.740171485909977"><ele>282.2857142857143</ele><time>2026-03-27T13:47:04Z</time></trkpt><trkpt lat="45.72799475367449" lon="9.740163227872028"><ele>282.14285714285717</ele><time>2026-03-27T13:47:05Z</time></trkpt><trkpt lat="45.72792923692351" lon="9.740154796288076"><ele>282.0</ele><time>2026-03-27T13:47:06Z</time></trkpt><trkpt lat="45.72786311955124" lon="9.740152281487585"><ele>282.0</ele><time>2026-03-27T13:47:07Z</time></trkpt><trkpt lat="45.727797727027585" lon="9.740153800053111"><ele>282.0</ele><time>2026-03-27T13:47:08Z</time></trkpt><trkpt lat="45.72773325921836" lon="9.740147314138047"><ele>282.0</ele><time>2026-03-27T13:47:09Z</time></trkpt><trkpt lat="45.727670423319616" lon="9.740136957368199"><ele>282.0</ele><time>2026-03-27T13:47:10Z</time></trkpt><trkpt lat="45.72760608052852" lon="9.740127645354343"><ele>282.0</ele><time>2026-03-27T13:47:11Z</time></trkpt><trkpt lat="45.727543448848095" lon="9.740118135667513"><ele>282.0</ele><time>2026-03-27T13:47:12Z</time></trkpt><trkpt lat="45.727476792833905" lon="9.74010637552354"><ele>282.0</ele><time>2026-03-27T13:47:13Z</time></trkpt><trkpt lat="45.727350385352054" lon="9.74007756491296"><ele>282.0</ele><time>2026-03-27T13:47:15Z</time></trkpt><trkpt lat="45.72728916686798" lon="9.740055222607852"><ele>282.0</ele><time>2026-03-27T13:47:16Z</time></trkpt><trkpt lat="45.727227321113595" lon="9.74002987000581"><ele>282.0</ele><time>2026-03-27T13:47:17Z</time></trkpt><trkpt lat="45.72716718759157" lon="9.73999901783627"><ele>282.0</ele><time>2026-03-27T13:47:18Z</time></trkpt><trkpt lat="45.727045807715236" lon="9.739941395678771"><ele>282.0</ele><time>2026-03-27T13:47:20Z</time></trkpt><trkpt lat="45.7269875487447" lon="9.739906717665251"><ele>282.0</ele><time>2026-03-27T13:47:21Z</time></trkpt><trkpt lat="45.72692622678377" lon="9.739881352998077"><ele>282.0</ele><time>2026-03-27T13:47:22Z</time></trkpt><trkpt lat="45.72686543780601" lon="9.73984736626829"><ele>282.0</ele><time>2026-03-27T13:47:23Z</time></trkpt><trkpt lat="45.72680499630287" lon="9.739815445490452"><ele>282.0</ele><time>2026-03-27T13:47:24Z</time></trkpt><trkpt lat="45.726744028975986" lon="9.739784751656353"><ele>282.0</ele><time>2026-03-27T13:47:25Z</time></trkpt><trkpt lat="45.726684190861334" lon="9.739754988817607"><ele>282.0</ele><time>2026-03-27T13:47:26Z</time></trkpt><trkpt lat="45.72662320316798" lon="9.739722198636622"><ele>282.0</ele><time>2026-03-27T13:47:27Z</time></trkpt><trkpt lat="45.72656272317128" lon="9.73969011023652"><ele>282.0</ele><time>2026-03-27T13:47:28Z</time></trkpt><trkpt lat="45.7265015812013" lon="9.739657775608906"><ele>282.0</ele><time>2026-03-27T13:47:29Z</time></trkpt><trkpt lat="45.72644072387253" lon="9.739624021836562"><ele>282.0</ele><time>2026-03-27T13:47:30Z</time></trkpt><trkpt lat="45.72638085906215" lon="9.739588449109208"><ele>282.0</ele><time>2026-03-27T13:47:31Z</time></trkpt><trkpt lat="45.72632241510258" lon="9.739551051505135"><ele>282.0</ele><time>2026-03-27T13:47:32Z</time></trkpt><trkpt lat="45.726263366847" lon="9.73950936006895"><ele>282.0</ele><time>2026-03-27T13:47:33Z</time></trkpt><trkpt lat="45.726208004554856" lon="9.739465689559673"><ele>282.0</ele><time>2026-03-27T13:47:34Z</time></trkpt><trkpt lat="45.72615028742841" lon="9.739420684108472"><ele>282.0</ele><time>2026-03-27T13:47:35Z</time></trkpt><trkpt lat="45.726096932195986" lon="9.739369442252098"><ele>282.0</ele><time>2026-03-27T13:47:36Z</time></trkpt><trkpt lat="45.72604377327773" lon="9.739316649570245"><ele>282.2</ele><time>2026-03-27T13:47:37Z</time></trkpt><trkpt lat="45.72599111527524" lon="9.739261906300598"><ele>282.4</ele><time>2026-03-27T13:47:38Z</time></trkpt><trkpt lat="45.72593648710641" lon="9.73920973959418"><ele>282.6</ele><time>2026-03-27T13:47:39Z</time></trkpt><trkpt lat="45.72583312814047" lon="9.739100981668223"><ele>282.8</ele><time>2026-03-27T13:47:41Z</time></trkpt><trkpt lat="45.72573758912737" lon="9.738983837857093"><ele>283.0</ele><time>2026-03-27T13:47:43Z</time></trkpt><trkpt lat="45.72564476361143" lon="9.738862386182657"><ele>283.0</ele><time>2026-03-27T13:47:45Z</time></trkpt><trkpt lat="45.72560089390907" lon="9.738791658017469"><ele>283.0</ele><time>2026-03-27T13:47:46Z</time></trkpt><trkpt lat="45.72550302556375" lon="9.738680983866832"><ele>283.0</ele><time>2026-03-27T13:47:48Z</time></trkpt><trkpt lat="45.725446565655595" lon="9.738634676011456"><ele>283.0</ele><time>2026-03-27T13:47:49Z</time></trkpt><trkpt lat="45.725387467750664" lon="9.738592152534595"><ele>283.0</ele><time>2026-03-27T13:47:50Z</time></trkpt><trkpt lat="45.725325172799415" lon="9.73855870608808"><ele>283.0</ele><time>2026-03-27T13:47:51Z</time></trkpt><trkpt lat="45.725265109028115" lon="9.738530097506285"><ele>282.6</ele><time>2026-03-27T13:47:52Z</time></trkpt><trkpt lat="45.725202299124774" lon="9.738505913854937"><ele>282.20000000000005</ele><time>2026-03-27T13:47:53Z</time></trkpt><trkpt lat="45.725080415896905" lon="9.738448272687709"><ele>281.8</ele><time>2026-03-27T13:47:55Z</time></trkpt><trkpt lat="45.72502093331912" lon="9.738416727323285"><ele>281.40000000000003</ele><time>2026-03-27T13:47:56Z</time></trkpt><trkpt lat="45.72495740833908" lon="9.738389071849502"><ele>281.0</ele><time>2026-03-27T13:47:57Z</time></trkpt><trkpt lat="45.72483501149055" lon="9.738331342252042"><ele>281.0</ele><time>2026-03-27T13:47:59Z</time></trkpt><trkpt lat="45.724776293750516" lon="9.738297376378148"><ele>281.0</ele><time>2026-03-27T13:48:00Z</time></trkpt><trkpt lat="45.724665273930135" lon="9.738210345960464"><ele>281.0</ele><time>2026-03-27T13:48:02Z</time></trkpt><trkpt lat="45.72461529682815" lon="9.738151985161949"><ele>281.0</ele><time>2026-03-27T13:48:03Z</time></trkpt><trkpt lat="45.724515224908856" lon="9.738036481388193"><ele>281.0</ele><time>2026-03-27T13:48:05Z</time></trkpt><trkpt lat="45.724415290229864" lon="9.73792302161929"><ele>281.00000000000006</ele><time>2026-03-27T13:48:07Z</time></trkpt><trkpt lat="45.72436516251276" lon="9.737863909797484"><ele>281.0</ele><time>2026-03-27T13:48:08Z</time></trkpt><trkpt lat="45.724315477460074" lon="9.737805407526936"><ele>281.0</ele><time>2026-03-27T13:48:09Z</time></trkpt><trkpt lat="45.724267227922546" lon="9.737741643275301"><ele>281.0</ele><time>2026-03-27T13:48:10Z</time></trkpt><trkpt lat="45.72422374891147" lon="9.737674730211946"><ele>281.0</ele><time>2026-03-27T13:48:11Z</time></trkpt><trkpt lat="45.72418242788558" lon="9.737603843039285"><ele>281.00000000000006</ele><time>2026-03-27T13:48:12Z</time></trkpt><trkpt lat="45.72414289833393" lon="9.737528541815564"><ele>281.0</ele><time>2026-03-27T13:48:13Z</time></trkpt><trkpt lat="45.72410677021195" lon="9.737450374512402"><ele>281.00000000000006</ele><time>2026-03-27T13:48:14Z</time></trkpt><trkpt lat="45.72407157708118" lon="9.737369329978863"><ele>281.0</ele><time>2026-03-27T13:48:15Z</time></trkpt><trkpt lat="45.72403662793312" lon="9.737288086488094"><ele>281.0</ele><time>2026-03-27T13:48:16Z</time></trkpt><trkpt lat="45.72400822355871" lon="9.73720617829606"><ele>281.0</ele><time>2026-03-27T13:48:17Z</time></trkpt><trkpt lat="45.72397800219091" lon="9.73712275277976"><ele>281.0</ele><time>2026-03-27T13:48:18Z</time></trkpt><trkpt lat="45.7239461760267" lon="9.737036252367895"><ele>281.00000000000006</ele><time>2026-03-27T13:48:19Z</time></trkpt><trkpt lat="45.72391763966213" lon="9.736951534141415"><ele>281.0</ele><time>2026-03-27T13:48:20Z</time></trkpt><trkpt lat="45.7238870669532" lon="9.73686961220387"><ele>280.5714285714286</ele><time>2026-03-27T13:48:21Z</time></trkpt><trkpt lat="45.723855704987514" lon="9.736785625556763"><ele>280.14285714285717</ele><time>2026-03-27T13:48:22Z</time></trkpt><trkpt lat="45.723824047272615" lon="9.736704186722763"><ele>279.7142857142857</ele><time>2026-03-27T13:48:23Z</time></trkpt><trkpt lat="45.72379207613893" lon="9.736622303959072"><ele>279.28571428571433</ele><time>2026-03-27T13:48:24Z</time></trkpt><trkpt lat="45.72376260407497" lon="9.736537204752278"><ele>278.8571428571429</ele><time>2026-03-27T13:48:25Z</time></trkpt><trkpt lat="45.72373280605745" lon="9.736457571487168"><ele>278.42857142857144</ele><time>2026-03-27T13:48:26Z</time></trkpt><trkpt lat="45.72370063156315" lon="9.736377823017566"><ele>278.0</ele><time>2026-03-27T13:48:27Z</time></trkpt><trkpt lat="45.72366923470018" lon="9.736295162777205"><ele>278.0</ele><time>2026-03-27T13:48:28Z</time></trkpt><trkpt lat="45.723640088901846" lon="9.736211697431331"><ele>278.0</ele><time>2026-03-27T13:48:29Z</time></trkpt><trkpt lat="45.72360394380616" lon="9.736132727099703"><ele>278.0</ele><time>2026-03-27T13:48:30Z</time></trkpt><trkpt lat="45.723558016543045" lon="9.73606288100639"><ele>278.0</ele><time>2026-03-27T13:48:31Z</time></trkpt><trkpt lat="45.723468502208895" lon="9.735938948529165"><ele>278.0</ele><time>2026-03-27T13:48:33Z</time></trkpt><trkpt lat="45.723426543779134" lon="9.735863485280456"><ele>278.0</ele><time>2026-03-27T13:48:34Z</time></trkpt><trkpt lat="45.7233818983511" lon="9.735794545626497"><ele>278.0</ele><time>2026-03-27T13:48:35Z</time></trkpt><trkpt lat="45.723337067694004" lon="9.735730887427197"><ele>278.0</ele><time>2026-03-27T13:48:36Z</time></trkpt><trkpt lat="45.72329105282674" lon="9.7356609713277"><ele>278.0</ele><time>2026-03-27T13:48:37Z</time></trkpt><trkpt lat="45.72320444580743" lon="9.735527490695123"><ele>278.0</ele><time>2026-03-27T13:48:39Z</time></trkpt><trkpt lat="45.72311700749413" lon="9.73540297513826"><ele>278.0</ele><time>2026-03-27T13:48:41Z</time></trkpt><trkpt lat="45.72306202929143" lon="9.735273458307226"><ele>277.75</ele><time>2026-03-27T13:48:43Z</time></trkpt><trkpt lat="45.722980013803195" lon="9.735097522879348"><ele>277.5</ele><time>2026-03-27T13:48:45Z</time></trkpt><trkpt lat="45.722896897684166" lon="9.734971794188125"><ele>277.25</ele><time>2026-03-27T13:48:47Z</time></trkpt><trkpt lat="45.72278158660885" lon="9.734872184473305"><ele>277.0</ele><time>2026-03-27T13:48:49Z</time></trkpt><trkpt lat="45.722695411206026" lon="9.734743999560216"><ele>277.4</ele><time>2026-03-27T13:48:51Z</time></trkpt><trkpt lat="45.72265403961676" lon="9.734670239472374"><ele>277.79999999999995</ele><time>2026-03-27T13:48:52Z</time></trkpt><trkpt lat="45.722574211247775" lon="9.73453508863066"><ele>278.2</ele><time>2026-03-27T13:48:54Z</time></trkpt><trkpt lat="45.72251021620755" lon="9.73437856135453"><ele>278.59999999999997</ele><time>2026-03-27T13:48:56Z</time></trkpt><trkpt lat="45.7224794647985" lon="9.734298780715227"><ele>279.0</ele><time>2026-03-27T13:48:57Z</time></trkpt><trkpt lat="45.72240860358262" lon="9.734148358626522"><ele>279.0</ele><time>2026-03-27T13:48:59Z</time></trkpt><trkpt lat="45.72237586843643" lon="9.734065735311686"><ele>279.0</ele><time>2026-03-27T13:49:00Z</time></trkpt><trkpt lat="45.72234353447613" lon="9.733985201761126"><ele>279.0</ele><time>2026-03-27T13:49:01Z</time></trkpt><trkpt lat="45.722283038148824" lon="9.73382657550151"><ele>279.0</ele><time>2026-03-27T13:49:03Z</time></trkpt><trkpt lat="45.72224845990689" lon="9.733747588696417"><ele>279.0</ele><time>2026-03-27T13:49:04Z</time></trkpt><trkpt lat="45.722213597321876" lon="9.733669759736262"><ele>279.0</ele><time>2026-03-27T13:49:05Z</time></trkpt><trkpt lat="45.722184916683695" lon="9.733583730584778"><ele>278.5</ele><time>2026-03-27T13:49:06Z</time></trkpt><trkpt lat="45.722154992821096" lon="9.733499432233883"><ele>278.0</ele><time>2026-03-27T13:49:07Z</time></trkpt><trkpt lat="45.72213024260797" lon="9.733410177996278"><ele>277.5</ele><time>2026-03-27T13:49:08Z</time></trkpt><trkpt lat="45.72210960063031" lon="9.733322082894984"><ele>277.0</ele><time>2026-03-27T13:49:09Z</time></trkpt><trkpt lat="45.72207557223004" lon="9.733150191509552"><ele>276.5</ele><time>2026-03-27T13:49:11Z</time></trkpt><trkpt lat="45.72206039874716" lon="9.733057695541822"><ele>276.0</ele><time>2026-03-27T13:49:12Z</time></trkpt><trkpt lat="45.72203897697082" lon="9.732959314772998"><ele>276.0</ele><time>2026-03-27T13:49:13Z</time></trkpt><trkpt lat="45.7220028617822" lon="9.732885363076239"><ele>276.0</ele><time>2026-03-27T13:49:14Z</time></trkpt><trkpt lat="45.7219624374948" lon="9.732809256198127"><ele>276.0</ele><time>2026-03-27T13:49:15Z</time></trkpt><trkpt lat="45.72190976587006" lon="9.732757123020939"><ele>276.0</ele><time>2026-03-27T13:49:16Z</time></trkpt><trkpt lat="45.72185420013638" lon="9.73271079670418"><ele>276.0</ele><time>2026-03-27T13:49:17Z</time></trkpt><trkpt lat="45.721785188081384" lon="9.732673290280037"><ele>276.0</ele><time>2026-03-27T13:49:18Z</time></trkpt><trkpt lat="45.72172094482244" lon="9.73262972148667"><ele>276.0</ele><time>2026-03-27T13:49:19Z</time></trkpt><trkpt lat="45.721671499991494" lon="9.73255401108486"><ele>276.14285714285717</ele><time>2026-03-27T13:49:20Z</time></trkpt><trkpt lat="45.7216250762916" lon="9.73247851142231"><ele>276.28571428571433</ele><time>2026-03-27T13:49:21Z</time></trkpt><trkpt lat="45.72156648956237" lon="9.73242017304099"><ele>276.42857142857144</ele><time>2026-03-27T13:49:22Z</time></trkpt><trkpt lat="45.7215123806838" lon="9.732350219592284"><ele>276.57142857142856</ele><time>2026-03-27T13:49:23Z</time></trkpt><trkpt lat="45.72147959848404" lon="9.732261909614541"><ele>276.71428571428567</ele><time>2026-03-27T13:49:24Z</time></trkpt><trkpt lat="45.72144567937199" lon="9.732175086898591"><ele>276.85714285714283</ele><time>2026-03-27T13:49:25Z</time></trkpt><trkpt lat="45.721423095554705" lon="9.732079790064283"><ele>277.0</ele><time>2026-03-27T13:49:26Z</time></trkpt><trkpt lat="45.72141400034706" lon="9.73198496767793"><ele>276.57142857142856</ele><time>2026-03-27T13:49:27Z</time></trkpt><trkpt lat="45.72141840031138" lon="9.731886882994175"><ele>276.1428571428571</ele><time>2026-03-27T13:49:28Z</time></trkpt><trkpt lat="45.72142436939091" lon="9.73179331610686"><ele>275.7142857142857</ele><time>2026-03-27T13:49:29Z</time></trkpt><trkpt lat="45.721419232965445" lon="9.731699714897303"><ele>275.2857142857143</ele><time>2026-03-27T13:49:30Z</time></trkpt><trkpt lat="45.72142252269" lon="9.731604393173546"><ele>274.8571428571429</ele><time>2026-03-27T13:49:31Z</time></trkpt><trkpt lat="45.7214275442155" lon="9.731508950447841"><ele>274.42857142857144</ele><time>2026-03-27T13:49:32Z</time></trkpt><trkpt lat="45.721436173555134" lon="9.73141300476406"><ele>274.0</ele><time>2026-03-27T13:49:33Z</time></trkpt><trkpt lat="45.72144457981499" lon="9.731314536531936"><ele>274.00000000000006</ele><time>2026-03-27T13:49:34Z</time></trkpt><trkpt lat="45.72145237802351" lon="9.731213168506265"><ele>274.0</ele><time>2026-03-27T13:49:35Z</time></trkpt><trkpt lat="45.72146014953661" lon="9.731112968556507"><ele>274.0</ele><time>2026-03-27T13:49:36Z</time></trkpt><trkpt lat="45.72146829543795" lon="9.73100615024824"><ele>274.0</ele><time>2026-03-27T13:49:37Z</time></trkpt><trkpt lat="45.72147674902281" lon="9.730899441789886"><ele>274.0</ele><time>2026-03-27T13:49:38Z</time></trkpt><trkpt lat="45.721477965045274" lon="9.730794749961962"><ele>274.00000000000006</ele><time>2026-03-27T13:49:39Z</time></trkpt><trkpt lat="45.721481795175194" lon="9.730684171200979"><ele>274.0</ele><time>2026-03-27T13:49:40Z</time></trkpt><trkpt lat="45.7214909371458" lon="9.730573969773143"><ele>273.3333333333333</ele><time>2026-03-27T13:49:41Z</time></trkpt><trkpt lat="45.721500799428505" lon="9.730462340235063"><ele>272.66666666666663</ele><time>2026-03-27T13:49:42Z</time></trkpt><trkpt lat="45.7215157696071" lon="9.730351553157677"><ele>272.0</ele><time>2026-03-27T13:49:43Z</time></trkpt><trkpt lat="45.721546659720495" lon="9.730249308915525"><ele>271.3333333333333</ele><time>2026-03-27T13:49:44Z</time></trkpt><trkpt lat="45.721592413580076" lon="9.730148344024913"><ele>270.6666666666667</ele><time>2026-03-27T13:49:45Z</time></trkpt><trkpt lat="45.72164696241796" lon="9.730067905425335"><ele>270.0</ele><time>2026-03-27T13:49:46Z</time></trkpt><trkpt lat="45.721713032610104" lon="9.729994991494832"><ele>270.0</ele><time>2026-03-27T13:49:47Z</time></trkpt><trkpt lat="45.721774952591005" lon="9.729929168020629"><ele>270.0</ele><time>2026-03-27T13:49:48Z</time></trkpt><trkpt lat="45.72183534696078" lon="9.729860615587206"><ele>270.0</ele><time>2026-03-27T13:49:49Z</time></trkpt><trkpt lat="45.721898015077336" lon="9.72979401446647"><ele>270.0</ele><time>2026-03-27T13:49:50Z</time></trkpt><trkpt lat="45.72196158273873" lon="9.729732410334886"><ele>270.0</ele><time>2026-03-27T13:49:51Z</time></trkpt><trkpt lat="45.72202434110087" lon="9.729675752942155"><ele>270.0</ele><time>2026-03-27T13:49:52Z</time></trkpt><trkpt lat="45.72208402884386" lon="9.729623453360903"><ele>270.0</ele><time>2026-03-27T13:49:53Z</time></trkpt><trkpt lat="45.72214399870871" lon="9.729573317828793"><ele>270.0</ele><time>2026-03-27T13:49:54Z</time></trkpt><trkpt lat="45.72220395937338" lon="9.729529846592957"><ele>270.0</ele><time>2026-03-27T13:49:55Z</time></trkpt><trkpt lat="45.72226024504368" lon="9.729485649863543"><ele>270.0</ele><time>2026-03-27T13:49:56Z</time></trkpt><trkpt lat="45.722310154699976" lon="9.7294306760328"><ele>270.0</ele><time>2026-03-27T13:49:57Z</time></trkpt><trkpt lat="45.72235598915288" lon="9.729265716821766"><ele>270.0</ele><time>2026-03-27T13:49:59Z</time></trkpt><trkpt lat="45.72233091621305" lon="9.72917826346734"><ele>270.0</ele><time>2026-03-27T13:50:00Z</time></trkpt><trkpt lat="45.722264172446096" lon="9.72912125727857"><ele>270.0</ele><time>2026-03-27T13:50:01Z</time></trkpt><trkpt lat="45.72218933653147" lon="9.729115618090727"><ele>270.0</ele><time>2026-03-27T13:50:02Z</time></trkpt><trkpt lat="45.72212111224178" lon="9.729107885421516"><ele>270.0</ele><time>2026-03-27T13:50:03Z</time></trkpt><trkpt lat="45.722061013469485" lon="9.729076549383372"><ele>270.0</ele><time>2026-03-27T13:50:04Z</time></trkpt><trkpt lat="45.72200292260404" lon="9.729032243854258"><ele>270.0</ele><time>2026-03-27T13:50:05Z</time></trkpt><trkpt lat="45.72194632155928" lon="9.72898249322222"><ele>270.0</ele><time>2026-03-27T13:50:06Z</time></trkpt><trkpt lat="45.721891378043935" lon="9.72892967794515"><ele>269.8333333333333</ele><time>2026-03-27T13:50:07Z</time></trkpt><trkpt lat="45.721834580553654" lon="9.728883463102642"><ele>269.6666666666667</ele><time>2026-03-27T13:50:08Z</time></trkpt><trkpt lat="45.72177799098198" lon="9.728838534961401"><ele>269.5</ele><time>2026-03-27T13:50:09Z</time></trkpt><trkpt lat="45.7217204867899" lon="9.728789903398015"><ele>269.33333333333337</ele><time>2026-03-27T13:50:10Z</time></trkpt><trkpt lat="45.721663361945936" lon="9.728740229063643"><ele>269.1666666666667</ele><time>2026-03-27T13:50:11Z</time></trkpt><trkpt lat="45.721554963356844" lon="9.728640661465693"><ele>269.0</ele><time>2026-03-27T13:50:13Z</time></trkpt><trkpt lat="45.721498447570454" lon="9.728599757242009"><ele>269.0</ele><time>2026-03-27T13:50:14Z</time></trkpt><trkpt lat="45.72144150859701" lon="9.728549234295691"><ele>269.0</ele><time>2026-03-27T13:50:15Z</time></trkpt><trkpt lat="45.72138217199866" lon="9.728501342755088"><ele>269.0</ele><time>2026-03-27T13:50:16Z</time></trkpt><trkpt lat="45.72132462527748" lon="9.728459489767102"><ele>269.0</ele><time>2026-03-27T13:50:17Z</time></trkpt><trkpt lat="45.72120850954518" lon="9.728383497375019"><ele>269.0</ele><time>2026-03-27T13:50:19Z</time></trkpt><trkpt lat="45.721148184835435" lon="9.7283514786905"><ele>269.0</ele><time>2026-03-27T13:50:20Z</time></trkpt><trkpt lat="45.72108866024805" lon="9.728318067236637"><ele>269.0</ele><time>2026-03-27T13:50:21Z</time></trkpt><trkpt lat="45.721027180352436" lon="9.728288234668998"><ele>269.0</ele><time>2026-03-27T13:50:22Z</time></trkpt><trkpt lat="45.720901621048014" lon="9.728245786366047"><ele>269.0</ele><time>2026-03-27T13:50:24Z</time></trkpt><trkpt lat="45.72077520889878" lon="9.72821812999626"><ele>269.0</ele><time>2026-03-27T13:50:26Z</time></trkpt><trkpt lat="45.720647215866556" lon="9.728193926133057"><ele>269.0</ele><time>2026-03-27T13:50:28Z</time></trkpt><trkpt lat="45.72052157046406" lon="9.728177196534244"><ele>269.0</ele><time>2026-03-27T13:50:30Z</time></trkpt><trkpt lat="45.72045836266774" lon="9.728162340495063"><ele>269.0</ele><time>2026-03-27T13:50:31Z</time></trkpt><trkpt lat="45.72032864164409" lon="9.728136440034108"><ele>269.0</ele><time>2026-03-27T13:50:33Z</time></trkpt><trkpt lat="45.720202334878934" lon="9.728115279845957"><ele>269.0</ele><time>2026-03-27T13:50:35Z</time></trkpt><trkpt lat="45.72013718219209" lon="9.728105617565042"><ele>268.8571428571429</ele><time>2026-03-27T13:50:36Z</time></trkpt><trkpt lat="45.720073594211044" lon="9.728095189365662"><ele>268.7142857142857</ele><time>2026-03-27T13:50:37Z</time></trkpt><trkpt lat="45.720010856632555" lon="9.728086026163712"><ele>268.57142857142856</ele><time>2026-03-27T13:50:38Z</time></trkpt><trkpt lat="45.71994748167421" lon="9.728074775296186"><ele>268.42857142857144</ele><time>2026-03-27T13:50:39Z</time></trkpt><trkpt lat="45.719880253068375" lon="9.72806798452124"><ele>268.2857142857143</ele><time>2026-03-27T13:50:40Z</time></trkpt><trkpt lat="45.71975639469185" lon="9.728054178382191"><ele>268.14285714285717</ele><time>2026-03-27T13:50:42Z</time></trkpt><trkpt lat="45.71969208642947" lon="9.728053693058623"><ele>268.0</ele><time>2026-03-27T13:50:43Z</time></trkpt><trkpt lat="45.71962724494454" lon="9.728052298612157"><ele>268.0</ele><time>2026-03-27T13:50:44Z</time></trkpt><trkpt lat="45.71949781191639" lon="9.728067698056806"><ele>268.0</ele><time>2026-03-27T13:50:46Z</time></trkpt><trkpt lat="45.719371893919394" lon="9.728083589460791"><ele>268.0</ele><time>2026-03-27T13:50:48Z</time></trkpt><trkpt lat="45.719307172707495" lon="9.728094290323074"><ele>268.0</ele><time>2026-03-27T13:50:49Z</time></trkpt><trkpt lat="45.71924357431613" lon="9.728110119190198"><ele>268.0</ele><time>2026-03-27T13:50:50Z</time></trkpt><trkpt lat="45.71918083436011" lon="9.728120213859562"><ele>268.0</ele><time>2026-03-27T13:50:51Z</time></trkpt><trkpt lat="45.71911671266472" lon="9.728133664859856"><ele>268.16666666666663</ele><time>2026-03-27T13:50:52Z</time></trkpt><trkpt lat="45.7190527139979" lon="9.728143317636462"><ele>268.3333333333333</ele><time>2026-03-27T13:50:53Z</time></trkpt><trkpt lat="45.71898919200305" lon="9.728162240522982"><ele>268.5</ele><time>2026-03-27T13:50:54Z</time></trkpt><trkpt lat="45.71892425852798" lon="9.72817419211665"><ele>268.6666666666667</ele><time>2026-03-27T13:50:55Z</time></trkpt><trkpt lat="45.71886081986701" lon="9.72819203337959"><ele>268.83333333333337</ele><time>2026-03-27T13:50:56Z</time></trkpt><trkpt lat="45.718798148349386" lon="9.728206962500705"><ele>269.0</ele><time>2026-03-27T13:50:57Z</time></trkpt><trkpt lat="45.71867101065012" lon="9.728238210951643"><ele>269.0</ele><time>2026-03-27T13:50:59Z</time></trkpt><trkpt lat="45.71860738457051" lon="9.72825165255548"><ele>269.0</ele><time>2026-03-27T13:51:00Z</time></trkpt><trkpt lat="45.718543044822205" lon="9.728267732601951"><ele>269.0</ele><time>2026-03-27T13:51:01Z</time></trkpt><trkpt lat="45.718479864396336" lon="9.728280098796068"><ele>269.0</ele><time>2026-03-27T13:51:02Z</time></trkpt><trkpt lat="45.71841587574341" lon="9.728294759577807"><ele>269.0</ele><time>2026-03-27T13:51:03Z</time></trkpt><trkpt lat="45.71834890203571" lon="9.728306590160031"><ele>269.0</ele><time>2026-03-27T13:51:04Z</time></trkpt><trkpt lat="45.71822137628811" lon="9.728333213070297"><ele>269.0</ele><time>2026-03-27T13:51:06Z</time></trkpt><trkpt lat="45.71815808642234" lon="9.728343394417005"><ele>269.0</ele><time>2026-03-27T13:51:07Z</time></trkpt><trkpt lat="45.71809326799908" lon="9.728350674800835"><ele>269.0</ele><time>2026-03-27T13:51:08Z</time></trkpt><trkpt lat="45.71802667827263" lon="9.728353776656595"><ele>269.0</ele><time>2026-03-27T13:51:09Z</time></trkpt><trkpt lat="45.71796265193871" lon="9.728354395007907"><ele>269.0</ele><time>2026-03-27T13:51:10Z</time></trkpt><trkpt lat="45.717897528103755" lon="9.728355685991659"><ele>269.0</ele><time>2026-03-27T13:51:11Z</time></trkpt><trkpt lat="45.7178335035748" lon="9.728350525712273"><ele>269.0</ele><time>2026-03-27T13:51:12Z</time></trkpt><trkpt lat="45.71776966877539" lon="9.728341197182225"><ele>269.0</ele><time>2026-03-27T13:51:13Z</time></trkpt><trkpt lat="45.71770480136011" lon="9.728331735156331"><ele>269.0</ele><time>2026-03-27T13:51:14Z</time></trkpt><trkpt lat="45.71764089554445" lon="9.728322711234448"><ele>269.0</ele><time>2026-03-27T13:51:15Z</time></trkpt><trkpt lat="45.71757624259171" lon="9.728313030113116"><ele>269.0</ele><time>2026-03-27T13:51:16Z</time></trkpt><trkpt lat="45.71751346685979" lon="9.728302763629985"><ele>269.0</ele><time>2026-03-27T13:51:17Z</time></trkpt><trkpt lat="45.717450716117845" lon="9.728292970948232"><ele>269.0</ele><time>2026-03-27T13:51:18Z</time></trkpt><trkpt lat="45.71738485357696" lon="9.728280810874859"><ele>269.0</ele><time>2026-03-27T13:51:19Z</time></trkpt><trkpt lat="45.71732193006837" lon="9.728271458370518"><ele>269.0</ele><time>2026-03-27T13:51:20Z</time></trkpt><trkpt lat="45.71719670544078" lon="9.72824873429831"><ele>269.0</ele><time>2026-03-27T13:51:22Z</time></trkpt><trkpt lat="45.717072306946186" lon="9.728233520933907"><ele>269.0</ele><time>2026-03-27T13:51:24Z</time></trkpt><trkpt lat="45.7170097088558" lon="9.728221786580246"><ele>269.0</ele><time>2026-03-27T13:51:25Z</time></trkpt><trkpt lat="45.71694172450363" lon="9.72820645334949"><ele>269.0</ele><time>2026-03-27T13:51:26Z</time></trkpt><trkpt lat="45.716878306177435" lon="9.728200424342116"><ele>269.0</ele><time>2026-03-27T13:51:27Z</time></trkpt><trkpt lat="45.71681076212765" lon="9.728194548604574"><ele>269.2857142857143</ele><time>2026-03-27T13:51:28Z</time></trkpt><trkpt lat="45.716747324538886" lon="9.728182882804658"><ele>269.5714285714286</ele><time>2026-03-27T13:51:29Z</time></trkpt><trkpt lat="45.716681844212324" lon="9.728179952227997"><ele>269.8571428571429</ele><time>2026-03-27T13:51:30Z</time></trkpt><trkpt lat="45.716614305156135" lon="9.728177794173561"><ele>270.14285714285717</ele><time>2026-03-27T13:51:31Z</time></trkpt><trkpt lat="45.71654943242179" lon="9.72816873975643"><ele>270.42857142857144</ele><time>2026-03-27T13:51:32Z</time></trkpt><trkpt lat="45.71648342853725" lon="9.72816186543435"><ele>270.7142857142857</ele><time>2026-03-27T13:51:33Z</time></trkpt><trkpt lat="45.71641673517158" lon="9.72815609395752"><ele>271.0</ele><time>2026-03-27T13:51:34Z</time></trkpt><trkpt lat="45.71635170707812" lon="9.728153308443941"><ele>271.0</ele><time>2026-03-27T13:51:35Z</time></trkpt><trkpt lat="45.716287256320925" lon="9.728148882043552"><ele>271.0</ele><time>2026-03-27T13:51:36Z</time></trkpt><trkpt lat="45.71622091733457" lon="9.728145267562292"><ele>271.0</ele><time>2026-03-27T13:51:37Z</time></trkpt><trkpt lat="45.71615349094862" lon="9.728138265461364"><ele>271.0</ele><time>2026-03-27T13:51:38Z</time></trkpt><trkpt lat="45.7160892925939" lon="9.728135044530838"><ele>271.0</ele><time>2026-03-27T13:51:39Z</time></trkpt><trkpt lat="45.71602265399965" lon="9.728131770019923"><ele>271.0</ele><time>2026-03-27T13:51:40Z</time></trkpt><trkpt lat="45.715954740190625" lon="9.72812601878789"><ele>271.0</ele><time>2026-03-27T13:51:41Z</time></trkpt><trkpt lat="45.71589041214264" lon="9.728123669783354"><ele>270.7142857142857</ele><time>2026-03-27T13:51:42Z</time></trkpt><trkpt lat="45.71582554482826" lon="9.728113744124505"><ele>270.42857142857144</ele><time>2026-03-27T13:51:43Z</time></trkpt><trkpt lat="45.715758372810534" lon="9.728104475675108"><ele>270.14285714285717</ele><time>2026-03-27T13:51:44Z</time></trkpt><trkpt lat="45.715694912264155" lon="9.728093092191164"><ele>269.8571428571429</ele><time>2026-03-27T13:51:45Z</time></trkpt><trkpt lat="45.71562863727665" lon="9.728080108305024"><ele>269.5714285714286</ele><time>2026-03-27T13:51:46Z</time></trkpt><trkpt lat="45.71556420567706" lon="9.72806748155086"><ele>269.2857142857143</ele><time>2026-03-27T13:51:47Z</time></trkpt><trkpt lat="45.71550063627695" lon="9.728050360565534"><ele>269.0</ele><time>2026-03-27T13:51:48Z</time></trkpt><trkpt lat="45.71543392477988" lon="9.728036959582983"><ele>269.0</ele><time>2026-03-27T13:51:49Z</time></trkpt><trkpt lat="45.715371239965" lon="9.72801757606401"><ele>269.0</ele><time>2026-03-27T13:51:50Z</time></trkpt><trkpt lat="45.71530629677978" lon="9.728004559759245"><ele>269.0</ele><time>2026-03-27T13:51:51Z</time></trkpt><trkpt lat="45.715243487164" lon="9.727986285778247"><ele>269.0</ele><time>2026-03-27T13:51:52Z</time></trkpt><trkpt lat="45.715181205665395" lon="9.727968931132924"><ele>269.0</ele><time>2026-03-27T13:51:53Z</time></trkpt><trkpt lat="45.71511471646414" lon="9.72795431858865"><ele>269.0</ele><time>2026-03-27T13:51:54Z</time></trkpt><trkpt lat="45.71505241583636" lon="9.727934706244083"><ele>269.0</ele><time>2026-03-27T13:51:55Z</time></trkpt><trkpt lat="45.71499041499219" lon="9.727916102994635"><ele>268.6666666666667</ele><time>2026-03-27T13:51:56Z</time></trkpt><trkpt lat="45.71492723741718" lon="9.727894785686837"><ele>268.33333333333337</ele><time>2026-03-27T13:51:57Z</time></trkpt><trkpt lat="45.71486348563424" lon="9.72787518389642"><ele>268.0</ele><time>2026-03-27T13:51:58Z</time></trkpt><trkpt lat="45.714737386156436" lon="9.72783867184252"><ele>267.6666666666667</ele><time>2026-03-27T13:52:00Z</time></trkpt><trkpt lat="45.71467674139136" lon="9.727811470479311"><ele>267.3333333333333</ele><time>2026-03-27T13:52:01Z</time></trkpt><trkpt lat="45.71461573239428" lon="9.727789116578432"><ele>267.0</ele><time>2026-03-27T13:52:02Z</time></trkpt><trkpt lat="45.71455033050559" lon="9.727765436306607"><ele>266.6666666666667</ele><time>2026-03-27T13:52:03Z</time></trkpt><trkpt lat="45.71443193247742" lon="9.7277083307868"><ele>266.3333333333333</ele><time>2026-03-27T13:52:05Z</time></trkpt><trkpt lat="45.71436893353551" lon="9.727688141679607"><ele>266.0</ele><time>2026-03-27T13:52:06Z</time></trkpt><trkpt lat="45.714309033046185" lon="9.727656181641906"><ele>265.66666666666663</ele><time>2026-03-27T13:52:07Z</time></trkpt><trkpt lat="45.71418485455234" lon="9.727614861846105"><ele>265.3333333333333</ele><time>2026-03-27T13:52:09Z</time></trkpt><trkpt lat="45.71411959238897" lon="9.727601718713894"><ele>265.0</ele><time>2026-03-27T13:52:10Z</time></trkpt><trkpt lat="45.71399172120515" lon="9.727586976035855"><ele>265.57142857142856</ele><time>2026-03-27T13:52:12Z</time></trkpt><trkpt lat="45.71392764916625" lon="9.727582934502141"><ele>266.1428571428571</ele><time>2026-03-27T13:52:13Z</time></trkpt><trkpt lat="45.71386430825464" lon="9.727577932142141"><ele>266.7142857142857</ele><time>2026-03-27T13:52:14Z</time></trkpt><trkpt lat="45.713799877915555" lon="9.727574023381221"><ele>267.2857142857143</ele><time>2026-03-27T13:52:15Z</time></trkpt><trkpt lat="45.71373615306956" lon="9.727574238820443"><ele>267.8571428571429</ele><time>2026-03-27T13:52:16Z</time></trkpt><trkpt lat="45.71367033087244" lon="9.727569315414021"><ele>268.42857142857144</ele><time>2026-03-27T13:52:17Z</time></trkpt><trkpt lat="45.71360561376804" lon="9.727566320070968"><ele>269.0</ele><time>2026-03-27T13:52:18Z</time></trkpt><trkpt lat="45.71354071962649" lon="9.72756356520175"><ele>269.0</ele><time>2026-03-27T13:52:19Z</time></trkpt><trkpt lat="45.713475835307044" lon="9.727560190799725"><ele>269.0</ele><time>2026-03-27T13:52:20Z</time></trkpt><trkpt lat="45.71341019185028" lon="9.727559473068295"><ele>269.0</ele><time>2026-03-27T13:52:21Z</time></trkpt><trkpt lat="45.713344824498435" lon="9.72756184750508"><ele>269.0</ele><time>2026-03-27T13:52:22Z</time></trkpt><trkpt lat="45.71328175405671" lon="9.727567032469302"><ele>269.0</ele><time>2026-03-27T13:52:23Z</time></trkpt><trkpt lat="45.71321719266539" lon="9.727579177259772"><ele>269.0</ele><time>2026-03-27T13:52:24Z</time></trkpt><trkpt lat="45.71315225429585" lon="9.727593027090572"><ele>269.0</ele><time>2026-03-27T13:52:25Z</time></trkpt><trkpt lat="45.71308718016837" lon="9.727598318168585"><ele>269.0</ele><time>2026-03-27T13:52:26Z</time></trkpt><trkpt lat="45.713023071379794" lon="9.727599114392547"><ele>269.0</ele><time>2026-03-27T13:52:27Z</time></trkpt><trkpt lat="45.71295965543979" lon="9.727584631611569"><ele>269.0</ele><time>2026-03-27T13:52:28Z</time></trkpt><trkpt lat="45.71289637720753" lon="9.727574871293914"><ele>269.0</ele><time>2026-03-27T13:52:29Z</time></trkpt><trkpt lat="45.71283053308489" lon="9.72757933434639"><ele>269.0</ele><time>2026-03-27T13:52:30Z</time></trkpt><trkpt lat="45.71276508223857" lon="9.727608730555936"><ele>269.0</ele><time>2026-03-27T13:52:31Z</time></trkpt><trkpt lat="45.712702734141565" lon="9.727634622693014"><ele>269.0</ele><time>2026-03-27T13:52:32Z</time></trkpt><trkpt lat="45.71257350244558" lon="9.727641152575304"><ele>268.8571428571429</ele><time>2026-03-27T13:52:34Z</time></trkpt><trkpt lat="45.7125092896456" lon="9.727631187586974"><ele>268.7142857142857</ele><time>2026-03-27T13:52:35Z</time></trkpt><trkpt lat="45.71244369217952" lon="9.72761777733926"><ele>268.57142857142856</ele><time>2026-03-27T13:52:36Z</time></trkpt><trkpt lat="45.712377771366356" lon="9.727610131613629"><ele>268.42857142857144</ele><time>2026-03-27T13:52:37Z</time></trkpt><trkpt lat="45.712312571502785" lon="9.727602128360667"><ele>268.2857142857143</ele><time>2026-03-27T13:52:38Z</time></trkpt><trkpt lat="45.71224842293783" lon="9.727596666735629"><ele>268.14285714285717</ele><time>2026-03-27T13:52:39Z</time></trkpt><trkpt lat="45.71218378241472" lon="9.727585731376326"><ele>268.0</ele><time>2026-03-27T13:52:40Z</time></trkpt><trkpt lat="45.712117179087144" lon="9.72757761402688"><ele>268.0</ele><time>2026-03-27T13:52:41Z</time></trkpt><trkpt lat="45.71205389713015" lon="9.727566528704441"><ele>268.0</ele><time>2026-03-27T13:52:42Z</time></trkpt><trkpt lat="45.711989998507825" lon="9.727561142220592"><ele>268.0</ele><time>2026-03-27T13:52:43Z</time></trkpt><trkpt lat="45.71192416440541" lon="9.727552003948201"><ele>268.0</ele><time>2026-03-27T13:52:44Z</time></trkpt><trkpt lat="45.711859486062444" lon="9.727542485905593"><ele>268.0</ele><time>2026-03-27T13:52:45Z</time></trkpt><trkpt lat="45.71179400545671" lon="9.727532771980021"><ele>268.0</ele><time>2026-03-27T13:52:46Z</time></trkpt><trkpt lat="45.71172879652764" lon="9.727523443161884"><ele>268.0</ele><time>2026-03-27T13:52:47Z</time></trkpt><trkpt lat="45.71166255962678" lon="9.72751613356292"><ele>267.7142857142857</ele><time>2026-03-27T13:52:48Z</time></trkpt><trkpt lat="45.71159824248017" lon="9.727507168672526"><ele>267.42857142857144</ele><time>2026-03-27T13:52:49Z</time></trkpt><trkpt lat="45.711530692740496" lon="9.727497386120529"><ele>267.1428571428571</ele><time>2026-03-27T13:52:50Z</time></trkpt><trkpt lat="45.71146614676064" lon="9.727483126783193"><ele>266.8571428571429</ele><time>2026-03-27T13:52:51Z</time></trkpt><trkpt lat="45.71140178617573" lon="9.727476902758307"><ele>266.57142857142856</ele><time>2026-03-27T13:52:52Z</time></trkpt><trkpt lat="45.71133461685047" lon="9.727466275565375"><ele>266.2857142857143</ele><time>2026-03-27T13:52:53Z</time></trkpt><trkpt lat="45.711270220398056" lon="9.727456385138467"><ele>266.0</ele><time>2026-03-27T13:52:54Z</time></trkpt><trkpt lat="45.7112045357615" lon="9.727447619526375"><ele>266.0</ele><time>2026-03-27T13:52:55Z</time></trkpt><trkpt lat="45.711138608239736" lon="9.727437788955559"><ele>266.0</ele><time>2026-03-27T13:52:56Z</time></trkpt><trkpt lat="45.711072786921584" lon="9.727427076533655"><ele>266.0</ele><time>2026-03-27T13:52:57Z</time></trkpt><trkpt lat="45.71100561626293" lon="9.72741678778587"><ele>266.0</ele><time>2026-03-27T13:52:58Z</time></trkpt><trkpt lat="45.71093899998005" lon="9.727406693869133"><ele>266.0</ele><time>2026-03-27T13:52:59Z</time></trkpt><trkpt lat="45.7108738536113" lon="9.727404785553501"><ele>266.0</ele><time>2026-03-27T13:53:00Z</time></trkpt><trkpt lat="45.7108087926378" lon="9.72739223626407"><ele>266.0</ele><time>2026-03-27T13:53:01Z</time></trkpt><trkpt lat="45.71074297616015" lon="9.727376618653865"><ele>265.57142857142856</ele><time>2026-03-27T13:53:02Z</time></trkpt><trkpt lat="45.710677211462496" lon="9.727367398844647"><ele>265.1428571428571</ele><time>2026-03-27T13:53:03Z</time></trkpt><trkpt lat="45.710610295540945" lon="9.727361143316454"><ele>264.7142857142857</ele><time>2026-03-27T13:53:04Z</time></trkpt><trkpt lat="45.710545466063905" lon="9.727350328433518"><ele>264.2857142857143</ele><time>2026-03-27T13:53:05Z</time></trkpt><trkpt lat="45.71048076928145" lon="9.727339565296763"><ele>263.85714285714283</ele><time>2026-03-27T13:53:06Z</time></trkpt><trkpt lat="45.71041562839913" lon="9.72732969902685"><ele>263.42857142857144</ele><time>2026-03-27T13:53:07Z</time></trkpt><trkpt lat="45.710350686701595" lon="9.727319175680726"><ele>263.0</ele><time>2026-03-27T13:53:08Z</time></trkpt><trkpt lat="45.71028667706547" lon="9.727308933078492"><ele>263.57142857142856</ele><time>2026-03-27T13:53:09Z</time></trkpt><trkpt lat="45.71022104935708" lon="9.727302606373785"><ele>264.1428571428571</ele><time>2026-03-27T13:53:10Z</time></trkpt><trkpt lat="45.710157372394285" lon="9.727292536385479"><ele>264.7142857142857</ele><time>2026-03-27T13:53:11Z</time></trkpt><trkpt lat="45.71009328220953" lon="9.727283001915792"><ele>265.2857142857143</ele><time>2026-03-27T13:53:12Z</time></trkpt><trkpt lat="45.710029769518876" lon="9.727274725169504"><ele>265.8571428571429</ele><time>2026-03-27T13:53:13Z</time></trkpt><trkpt lat="45.709964942395" lon="9.727266150424576"><ele>266.42857142857144</ele><time>2026-03-27T13:53:14Z</time></trkpt><trkpt lat="45.70989956393099" lon="9.727258792535139"><ele>267.0</ele><time>2026-03-27T13:53:15Z</time></trkpt><trkpt lat="45.70983583962574" lon="9.727247360829184"><ele>267.00000000000006</ele><time>2026-03-27T13:53:16Z</time></trkpt><trkpt lat="45.709770745114355" lon="9.727237898681464"><ele>267.0</ele><time>2026-03-27T13:53:17Z</time></trkpt><trkpt lat="45.70970646477404" lon="9.727228206744972"><ele>267.0</ele><time>2026-03-27T13:53:18Z</time></trkpt><trkpt lat="45.70964168508097" lon="9.727217036155931"><ele>267.0</ele><time>2026-03-27T13:53:19Z</time></trkpt><trkpt lat="45.70957618415821" lon="9.727205282039609"><ele>267.0</ele><time>2026-03-27T13:53:20Z</time></trkpt><trkpt lat="45.70951105863485" lon="9.727196194326275"><ele>267.00000000000006</ele><time>2026-03-27T13:53:21Z</time></trkpt><trkpt lat="45.70944531244922" lon="9.727187535643063"><ele>267.0</ele><time>2026-03-27T13:53:22Z</time></trkpt><trkpt lat="45.70937890328024" lon="9.727178616589063"><ele>267.14285714285717</ele><time>2026-03-27T13:53:23Z</time></trkpt><trkpt lat="45.70931275263108" lon="9.727171089253025"><ele>267.2857142857143</ele><time>2026-03-27T13:53:24Z</time></trkpt><trkpt lat="45.70924210597542" lon="9.727161891940481"><ele>267.42857142857144</ele><time>2026-03-27T13:53:25Z</time></trkpt><trkpt lat="45.709176856222236" lon="9.72714977211495"><ele>267.57142857142856</ele><time>2026-03-27T13:53:26Z</time></trkpt><trkpt lat="45.70911049564954" lon="9.72714281531719"><ele>267.7142857142857</ele><time>2026-03-27T13:53:27Z</time></trkpt><trkpt lat="45.70904420856042" lon="9.727138760513615"><ele>267.8571428571429</ele><time>2026-03-27T13:53:28Z</time></trkpt><trkpt lat="45.7089781852612" lon="9.727133280158066"><ele>268.0</ele><time>2026-03-27T13:53:29Z</time></trkpt><trkpt lat="45.70891418108864" lon="9.72712646950942"><ele>268.0</ele><time>2026-03-27T13:53:30Z</time></trkpt><trkpt lat="45.708847437797104" lon="9.727119916542163"><ele>268.0</ele><time>2026-03-27T13:53:31Z</time></trkpt><trkpt lat="45.70878199292727" lon="9.727114743833978"><ele>268.0</ele><time>2026-03-27T13:53:32Z</time></trkpt><trkpt lat="45.708718223446546" lon="9.727107205198529"><ele>268.0</ele><time>2026-03-27T13:53:33Z</time></trkpt><trkpt lat="45.708653062028496" lon="9.727102577368997"><ele>268.0</ele><time>2026-03-27T13:53:34Z</time></trkpt><trkpt lat="45.70858166980484" lon="9.727092768176547"><ele>268.0</ele><time>2026-03-27T13:53:35Z</time></trkpt><trkpt lat="45.70851770245625" lon="9.727089011852925"><ele>268.0</ele><time>2026-03-27T13:53:36Z</time></trkpt><trkpt lat="45.70845236249697" lon="9.72708082116495"><ele>267.7142857142857</ele><time>2026-03-27T13:53:37Z</time></trkpt><trkpt lat="45.70838748544494" lon="9.727076359089674"><ele>267.42857142857144</ele><time>2026-03-27T13:53:38Z</time></trkpt><trkpt lat="45.70832223799453" lon="9.727071502130626"><ele>267.1428571428571</ele><time>2026-03-27T13:53:39Z</time></trkpt><trkpt lat="45.70825766944509" lon="9.727065179095643"><ele>266.8571428571429</ele><time>2026-03-27T13:53:40Z</time></trkpt><trkpt lat="45.70819155595853" lon="9.727059714564804"><ele>266.57142857142856</ele><time>2026-03-27T13:53:41Z</time></trkpt><trkpt lat="45.708126698897196" lon="9.727046174379081"><ele>266.2857142857143</ele><time>2026-03-27T13:53:42Z</time></trkpt><trkpt lat="45.708062313488455" lon="9.727041686293607"><ele>266.0</ele><time>2026-03-27T13:53:43Z</time></trkpt><trkpt lat="45.7079969863103" lon="9.727034464577361"><ele>266.0</ele><time>2026-03-27T13:53:44Z</time></trkpt><trkpt lat="45.70793167535192" lon="9.72702716003521"><ele>266.0</ele><time>2026-03-27T13:53:45Z</time></trkpt><trkpt lat="45.70786783772517" lon="9.727017608664072"><ele>266.0</ele><time>2026-03-27T13:53:46Z</time></trkpt><trkpt lat="45.707802337100986" lon="9.727012782316661"><ele>266.0</ele><time>2026-03-27T13:53:47Z</time></trkpt><trkpt lat="45.707737985571214" lon="9.727012789577804"><ele>266.0</ele><time>2026-03-27T13:53:48Z</time></trkpt><trkpt lat="45.70767301396542" lon="9.727012430723429"><ele>266.0</ele><time>2026-03-27T13:53:49Z</time></trkpt><trkpt lat="45.70760766478823" lon="9.727010807190466"><ele>266.0</ele><time>2026-03-27T13:53:50Z</time></trkpt><trkpt lat="45.7075411657921" lon="9.72698685982192"><ele>266.0</ele><time>2026-03-27T13:53:51Z</time></trkpt><trkpt lat="45.707489139680504" lon="9.726914044511082"><ele>266.0</ele><time>2026-03-27T13:53:52Z</time></trkpt><trkpt lat="45.70747039156988" lon="9.726812554472112"><ele>266.0</ele><time>2026-03-27T13:53:53Z</time></trkpt><trkpt lat="45.707481208060244" lon="9.726707199244409"><ele>266.0</ele><time>2026-03-27T13:53:54Z</time></trkpt><trkpt lat="45.707502414046736" lon="9.726613705160744"><ele>266.0</ele><time>2026-03-27T13:53:55Z</time></trkpt><trkpt lat="45.70751109793691" lon="9.726519453971296"><ele>266.0</ele><time>2026-03-27T13:53:56Z</time></trkpt><trkpt lat="45.70751912605731" lon="9.72642791514344"><ele>266.0</ele><time>2026-03-27T13:53:57Z</time></trkpt><trkpt lat="45.70752456148281" lon="9.726332041800855"><ele>266.0</ele><time>2026-03-27T13:53:58Z</time></trkpt><trkpt lat="45.70752477376999" lon="9.726238233276224"><ele>266.0</ele><time>2026-03-27T13:53:59Z</time></trkpt><trkpt lat="45.70752459126012" lon="9.726141329803577"><ele>266.0</ele><time>2026-03-27T13:54:00Z</time></trkpt><trkpt lat="45.70752807722798" lon="9.726047572239576"><ele>266.0</ele><time>2026-03-27T13:54:01Z</time></trkpt><trkpt lat="45.70752471325885" lon="9.725953863076112"><ele>266.0</ele><time>2026-03-27T13:54:02Z</time></trkpt><trkpt lat="45.707513757946785" lon="9.725862265930983"><ele>266.0</ele><time>2026-03-27T13:54:03Z</time></trkpt><trkpt lat="45.70749075509923" lon="9.725778239189594"><ele>266.0</ele><time>2026-03-27T13:54:04Z</time></trkpt><trkpt lat="45.70745442607782" lon="9.72570385075336"><ele>266.0</ele><time>2026-03-27T13:54:05Z</time></trkpt><trkpt lat="45.70740615762459" lon="9.725637787396037"><ele>266.0</ele><time>2026-03-27T13:54:06Z</time></trkpt><trkpt lat="45.70735416901985" lon="9.72558400358186"><ele>266.0</ele><time>2026-03-27T13:54:07Z</time></trkpt><trkpt lat="45.70729042815857" lon="9.725552366048541"><ele>266.0</ele><time>2026-03-27T13:54:08Z</time></trkpt><trkpt lat="45.707223175931105" lon="9.72553632765886"><ele>266.0</ele><time>2026-03-27T13:54:09Z</time></trkpt><trkpt lat="45.707158625747965" lon="9.725516763002322"><ele>266.0</ele><time>2026-03-27T13:54:10Z</time></trkpt><trkpt lat="45.70703598863896" lon="9.725461403087431"><ele>266.0</ele><time>2026-03-27T13:54:12Z</time></trkpt><trkpt lat="45.706975362857634" lon="9.725429256813598"><ele>266.0</ele><time>2026-03-27T13:54:13Z</time></trkpt><trkpt lat="45.70691094993618" lon="9.725401191898928"><ele>266.0</ele><time>2026-03-27T13:54:14Z</time></trkpt><trkpt lat="45.70678634985333" lon="9.725347006261744"><ele>266.0</ele><time>2026-03-27T13:54:16Z</time></trkpt><trkpt lat="45.70666786014851" lon="9.725290220656111"><ele>266.0</ele><time>2026-03-27T13:54:18Z</time></trkpt><trkpt lat="45.706559849517255" lon="9.725230203611693"><ele>265.57142857142856</ele><time>2026-03-27T13:54:20Z</time></trkpt><trkpt lat="45.70650316784148" lon="9.725189741607085"><ele>265.1428571428571</ele><time>2026-03-27T13:54:21Z</time></trkpt><trkpt lat="45.706442536083415" lon="9.725162890626146"><ele>264.7142857142857</ele><time>2026-03-27T13:54:22Z</time></trkpt><trkpt lat="45.706382218874616" lon="9.725132601101267"><ele>264.2857142857143</ele><time>2026-03-27T13:54:23Z</time></trkpt><trkpt lat="45.70631980961157" lon="9.725115898939674"><ele>263.85714285714283</ele><time>2026-03-27T13:54:24Z</time></trkpt><trkpt lat="45.7062547693028" lon="9.725107837833274"><ele>263.42857142857144</ele><time>2026-03-27T13:54:25Z</time></trkpt><trkpt lat="45.7061906109308" lon="9.725099311324827"><ele>263.0</ele><time>2026-03-27T13:54:26Z</time></trkpt><trkpt lat="45.706121574392085" lon="9.72509229955865"><ele>263.6</ele><time>2026-03-27T13:54:27Z</time></trkpt><trkpt lat="45.706003515408156" lon="9.725084417201717"><ele>264.20000000000005</ele><time>2026-03-27T13:54:29Z</time></trkpt><trkpt lat="45.70589069160236" lon="9.725064410535927"><ele>264.8</ele><time>2026-03-27T13:54:31Z</time></trkpt><trkpt lat="45.70582734998593" lon="9.72505462183192"><ele>265.40000000000003</ele><time>2026-03-27T13:54:32Z</time></trkpt><trkpt lat="45.7057357288289" lon="9.724949353193907"><ele>266.0</ele><time>2026-03-27T13:54:34Z</time></trkpt><trkpt lat="45.70571940472206" lon="9.724855374083015"><ele>266.0</ele><time>2026-03-27T13:54:35Z</time></trkpt><trkpt lat="45.70571460163315" lon="9.724754153575613"><ele>266.0</ele><time>2026-03-27T13:54:36Z</time></trkpt><trkpt lat="45.70572353230655" lon="9.72465519073279"><ele>266.0</ele><time>2026-03-27T13:54:37Z</time></trkpt><trkpt lat="45.70572565551132" lon="9.724557939364212"><ele>266.0</ele><time>2026-03-27T13:54:38Z</time></trkpt><trkpt lat="45.70572059419337" lon="9.724461254213542"><ele>266.0</ele><time>2026-03-27T13:54:39Z</time></trkpt><trkpt lat="45.705710472288175" lon="9.724361376617884"><ele>266.0</ele><time>2026-03-27T13:54:40Z</time></trkpt><trkpt lat="45.70570567212555" lon="9.724264963453592"><ele>266.0</ele><time>2026-03-27T13:54:41Z</time></trkpt><trkpt lat="45.705702317050026" lon="9.724169108223265"><ele>265.83333333333337</ele><time>2026-03-27T13:54:42Z</time></trkpt><trkpt lat="45.70570054180481" lon="9.724070899699953"><ele>265.6666666666667</ele><time>2026-03-27T13:54:43Z</time></trkpt><trkpt lat="45.7056980240975" lon="9.723974132347998"><ele>265.5</ele><time>2026-03-27T13:54:44Z</time></trkpt><trkpt lat="45.70569432136241" lon="9.723879072839532"><ele>265.3333333333333</ele><time>2026-03-27T13:54:45Z</time></trkpt><trkpt lat="45.705690135739815" lon="9.723697842057385"><ele>265.16666666666663</ele><time>2026-03-27T13:54:47Z</time></trkpt><trkpt lat="45.70568297991772" lon="9.723528529640976"><ele>265.0</ele><time>2026-03-27T13:54:49Z</time></trkpt><trkpt lat="45.70567854453111" lon="9.7234363998177"><ele>265.0</ele><time>2026-03-27T13:54:50Z</time></trkpt><trkpt lat="45.705674960099465" lon="9.723256715247151"><ele>265.0</ele><time>2026-03-27T13:54:52Z</time></trkpt><trkpt lat="45.70567540690089" lon="9.723158186100738"><ele>265.0</ele><time>2026-03-27T13:54:53Z</time></trkpt><trkpt lat="45.70567288561274" lon="9.723058503262944"><ele>265.0</ele><time>2026-03-27T13:54:54Z</time></trkpt><trkpt lat="45.70566666906429" lon="9.72295818366573"><ele>265.0</ele><time>2026-03-27T13:54:55Z</time></trkpt><trkpt lat="45.705667238662386" lon="9.722862263349851"><ele>265.0</ele><time>2026-03-27T13:54:56Z</time></trkpt><trkpt lat="45.70566126082384" lon="9.722758706395338"><ele>264.57142857142856</ele><time>2026-03-27T13:54:57Z</time></trkpt><trkpt lat="45.70566521280976" lon="9.722662131939092"><ele>264.1428571428571</ele><time>2026-03-27T13:54:58Z</time></trkpt><trkpt lat="45.70565770794914" lon="9.722565692645086"><ele>263.7142857142857</ele><time>2026-03-27T13:54:59Z</time></trkpt><trkpt lat="45.705653552140134" lon="9.722466804535223"><ele>263.2857142857143</ele><time>2026-03-27T13:55:00Z</time></trkpt><trkpt lat="45.70565056409158" lon="9.722372628698292"><ele>262.8571428571429</ele><time>2026-03-27T13:55:01Z</time></trkpt><trkpt lat="45.70564805551726" lon="9.722281520198429"><ele>262.42857142857144</ele><time>2026-03-27T13:55:02Z</time></trkpt><trkpt lat="45.70563948905224" lon="9.722183721716886"><ele>262.0</ele><time>2026-03-27T13:55:03Z</time></trkpt><trkpt lat="45.70562135326823" lon="9.722009578151443"><ele>262.0</ele><time>2026-03-27T13:55:05Z</time></trkpt><trkpt lat="45.70560961528023" lon="9.721919277261405"><ele>262.0</ele><time>2026-03-27T13:55:06Z</time></trkpt><trkpt lat="45.705592324486815" lon="9.721742036810198"><ele>262.0</ele><time>2026-03-27T13:55:08Z</time></trkpt><trkpt lat="45.70555772722257" lon="9.721571751509936"><ele>262.0</ele><time>2026-03-27T13:55:10Z</time></trkpt><trkpt lat="45.70546297446621" lon="9.721457041123598"><ele>262.0</ele><time>2026-03-27T13:55:12Z</time></trkpt><trkpt lat="45.70534538927192" lon="9.7213951558484"><ele>262.3333333333333</ele><time>2026-03-27T13:55:14Z</time></trkpt><trkpt lat="45.70528406769542" lon="9.721363071852274"><ele>262.66666666666663</ele><time>2026-03-27T13:55:15Z</time></trkpt><trkpt lat="45.7052247409951" lon="9.721325611755384"><ele>263.0</ele><time>2026-03-27T13:55:16Z</time></trkpt><trkpt lat="45.70510590687261" lon="9.721258838689954"><ele>263.3333333333333</ele><time>2026-03-27T13:55:18Z</time></trkpt><trkpt lat="45.7050448423247" lon="9.721223659116642"><ele>263.6666666666667</ele><time>2026-03-27T13:55:19Z</time></trkpt><trkpt lat="45.70498550846973" lon="9.721188497017554"><ele>264.0</ele><time>2026-03-27T13:55:20Z</time></trkpt><trkpt lat="45.704868488397246" lon="9.721115634485416"><ele>264.1428571428571</ele><time>2026-03-27T13:55:22Z</time></trkpt><trkpt lat="45.70481074494764" lon="9.721078992176967"><ele>264.2857142857143</ele><time>2026-03-27T13:55:23Z</time></trkpt><trkpt lat="45.70469732491506" lon="9.721002333584778"><ele>264.42857142857144</ele><time>2026-03-27T13:55:25Z</time></trkpt><trkpt lat="45.70463889283613" lon="9.720964019182267"><ele>264.57142857142856</ele><time>2026-03-27T13:55:26Z</time></trkpt><trkpt lat="45.704585865997586" lon="9.720910999071636"><ele>264.7142857142857</ele><time>2026-03-27T13:55:27Z</time></trkpt><trkpt lat="45.704542864751744" lon="9.720844607489436"><ele>264.85714285714283</ele><time>2026-03-27T13:55:28Z</time></trkpt><trkpt lat="45.70451295306652" lon="9.72076054681709"><ele>265.0</ele><time>2026-03-27T13:55:29Z</time></trkpt><trkpt lat="45.70449207563626" lon="9.720674232892005"><ele>265.6</ele><time>2026-03-27T13:55:30Z</time></trkpt><trkpt lat="45.7044628795381" lon="9.72050407474577"><ele>266.2</ele><time>2026-03-27T13:55:32Z</time></trkpt><trkpt lat="45.704432829719316" lon="9.720332924393352"><ele>266.8</ele><time>2026-03-27T13:55:34Z</time></trkpt><trkpt lat="45.70441237156129" lon="9.72024671459874"><ele>267.4</ele><time>2026-03-27T13:55:35Z</time></trkpt><trkpt lat="45.70437477955998" lon="9.720083042173437"><ele>268.0</ele><time>2026-03-27T13:55:37Z</time></trkpt><trkpt lat="45.704341255818235" lon="9.719911702221431"><ele>268.6</ele><time>2026-03-27T13:55:39Z</time></trkpt><trkpt lat="45.704308393101066" lon="9.719740407694731"><ele>269.20000000000005</ele><time>2026-03-27T13:55:41Z</time></trkpt><trkpt lat="45.704272099486396" lon="9.719570508783844"><ele>269.8</ele><time>2026-03-27T13:55:43Z</time></trkpt><trkpt lat="45.704254392168885" lon="9.719481962166729"><ele>270.40000000000003</ele><time>2026-03-27T13:55:44Z</time></trkpt><trkpt lat="45.70423598163736" lon="9.719393724867672"><ele>271.0</ele><time>2026-03-27T13:55:45Z</time></trkpt><trkpt lat="45.704204684179224" lon="9.719224947427238"><ele>271.1428571428571</ele><time>2026-03-27T13:55:47Z</time></trkpt><trkpt lat="45.70417471137039" lon="9.719057858192576"><ele>271.2857142857143</ele><time>2026-03-27T13:55:49Z</time></trkpt><trkpt lat="45.70415457078706" lon="9.718970304687105"><ele>271.42857142857144</ele><time>2026-03-27T13:55:50Z</time></trkpt><trkpt lat="45.70413379891052" lon="9.718877412460385"><ele>271.57142857142856</ele><time>2026-03-27T13:55:51Z</time></trkpt><trkpt lat="45.7041192620678" lon="9.718788782816867"><ele>271.7142857142857</ele><time>2026-03-27T13:55:52Z</time></trkpt><trkpt lat="45.70410086861469" lon="9.718696632617938"><ele>271.85714285714283</ele><time>2026-03-27T13:55:53Z</time></trkpt><trkpt lat="45.704082780403944" lon="9.718609393703106"><ele>272.0</ele><time>2026-03-27T13:55:54Z</time></trkpt><trkpt lat="45.70406461896695" lon="9.71851848649606"><ele>272.0</ele><time>2026-03-27T13:55:55Z</time></trkpt><trkpt lat="45.704054181753555" lon="9.718424217209895"><ele>272.0</ele><time>2026-03-27T13:55:56Z</time></trkpt><trkpt lat="45.704056728596676" lon="9.718330638501072"><ele>272.0</ele><time>2026-03-27T13:55:57Z</time></trkpt><trkpt lat="45.7040582472338" lon="9.718238632622038"><ele>272.0</ele><time>2026-03-27T13:55:58Z</time></trkpt><trkpt lat="45.704061895143916" lon="9.71805484142685"><ele>272.0</ele><time>2026-03-27T13:56:00Z</time></trkpt><trkpt lat="45.70406394115073" lon="9.717964256329056"><ele>272.0</ele><time>2026-03-27T13:56:01Z</time></trkpt><trkpt lat="45.70406266569176" lon="9.717867963730873"><ele>272.0</ele><time>2026-03-27T13:56:02Z</time></trkpt><trkpt lat="45.704065527214354" lon="9.717684974282522"><ele>272.0</ele><time>2026-03-27T13:56:04Z</time></trkpt><trkpt lat="45.704067305923076" lon="9.717592778525681"><ele>272.0</ele><time>2026-03-27T13:56:05Z</time></trkpt><trkpt lat="45.70406760279782" lon="9.717500404611615"><ele>272.0</ele><time>2026-03-27T13:56:06Z</time></trkpt><trkpt lat="45.70407426161588" lon="9.717317453767233"><ele>272.0</ele><time>2026-03-27T13:56:08Z</time></trkpt><trkpt lat="45.70407874258815" lon="9.717223803617468"><ele>272.0</ele><time>2026-03-27T13:56:09Z</time></trkpt><trkpt lat="45.70410498688243" lon="9.717043509696605"><ele>272.0</ele><time>2026-03-27T13:56:11Z</time></trkpt><trkpt lat="45.70413041191103" lon="9.716959411042835"><ele>272.0</ele><time>2026-03-27T13:56:12Z</time></trkpt><trkpt lat="45.704159442329775" lon="9.71687451497516"><ele>272.0</ele><time>2026-03-27T13:56:13Z</time></trkpt><trkpt lat="45.70419067502569" lon="9.716795737511656"><ele>272.0</ele><time>2026-03-27T13:56:14Z</time></trkpt><trkpt lat="45.704220252357494" lon="9.716711524345435"><ele>272.0</ele><time>2026-03-27T13:56:15Z</time></trkpt><trkpt lat="45.70425112712003" lon="9.71662965330887"><ele>271.99999999999994</ele><time>2026-03-27T13:56:16Z</time></trkpt><trkpt lat="45.70428038076711" lon="9.716544737028627"><ele>272.0</ele><time>2026-03-27T13:56:17Z</time></trkpt><trkpt lat="45.704307223437176" lon="9.716460933240963"><ele>272.0</ele><time>2026-03-27T13:56:18Z</time></trkpt><trkpt lat="45.70433445059886" lon="9.716374510959294"><ele>272.0</ele><time>2026-03-27T13:56:19Z</time></trkpt><trkpt lat="45.704368502957465" lon="9.716297389524762"><ele>272.0</ele><time>2026-03-27T13:56:20Z</time></trkpt><trkpt lat="45.70439881273126" lon="9.716215541453035"><ele>271.99999999999994</ele><time>2026-03-27T13:56:21Z</time></trkpt><trkpt lat="45.70443264484024" lon="9.716130948246192"><ele>272.0</ele><time>2026-03-27T13:56:22Z</time></trkpt><trkpt lat="45.704492738818935" lon="9.715970495956627"><ele>272.0</ele><time>2026-03-27T13:56:24Z</time></trkpt><trkpt lat="45.70452144660286" lon="9.715887895276104"><ele>272.0</ele><time>2026-03-27T13:56:25Z</time></trkpt><trkpt lat="45.70455091755813" lon="9.715806950536077"><ele>272.0</ele><time>2026-03-27T13:56:26Z</time></trkpt><trkpt lat="45.70458082059204" lon="9.715726504494159"><ele>272.0</ele><time>2026-03-27T13:56:27Z</time></trkpt><trkpt lat="45.70461033298761" lon="9.715646454024473"><ele>272.0</ele><time>2026-03-27T13:56:28Z</time></trkpt><trkpt lat="45.70464059547386" lon="9.715566747952723"><ele>272.0</ele><time>2026-03-27T13:56:29Z</time></trkpt><trkpt lat="45.70467250098336" lon="9.715488889450215"><ele>272.0</ele><time>2026-03-27T13:56:30Z</time></trkpt><trkpt lat="45.704701432396085" lon="9.71540719352886"><ele>272.0</ele><time>2026-03-27T13:56:31Z</time></trkpt><trkpt lat="45.704749137163745" lon="9.71524296611793"><ele>272.1428571428571</ele><time>2026-03-27T13:56:33Z</time></trkpt><trkpt lat="45.704766007316614" lon="9.715154901595412"><ele>272.2857142857143</ele><time>2026-03-27T13:56:34Z</time></trkpt><trkpt lat="45.70477849215938" lon="9.715065204162048"><ele>272.42857142857144</ele><time>2026-03-27T13:56:35Z</time></trkpt><trkpt lat="45.70479655777041" lon="9.714976728222931"><ele>272.57142857142856</ele><time>2026-03-27T13:56:36Z</time></trkpt><trkpt lat="45.704826909990864" lon="9.714802927112624"><ele>272.7142857142857</ele><time>2026-03-27T13:56:38Z</time></trkpt><trkpt lat="45.704857553676874" lon="9.71472391139382"><ele>272.85714285714283</ele><time>2026-03-27T13:56:39Z</time></trkpt><trkpt lat="45.704898866201674" lon="9.714653546044254"><ele>273.0</ele><time>2026-03-27T13:56:40Z</time></trkpt><trkpt lat="45.70494425427432" lon="9.714590406081566"><ele>273.0</ele><time>2026-03-27T13:56:41Z</time></trkpt><trkpt lat="45.704987028749876" lon="9.714519121506614"><ele>273.0</ele><time>2026-03-27T13:56:42Z</time></trkpt><trkpt lat="45.705013516901765" lon="9.714436090491409"><ele>273.0</ele><time>2026-03-27T13:56:43Z</time></trkpt><trkpt lat="45.705016624520574" lon="9.714341588375277"><ele>273.0</ele><time>2026-03-27T13:56:44Z</time></trkpt><trkpt lat="45.70499595304349" lon="9.714249094429608"><ele>273.0</ele><time>2026-03-27T13:56:45Z</time></trkpt><trkpt lat="45.70495115379972" lon="9.714172600537395"><ele>273.0</ele><time>2026-03-27T13:56:46Z</time></trkpt><trkpt lat="45.7048933378777" lon="9.714122277551242"><ele>273.0</ele><time>2026-03-27T13:56:47Z</time></trkpt><trkpt lat="45.7048301352368" lon="9.714095314502622"><ele>272.85714285714283</ele><time>2026-03-27T13:56:48Z</time></trkpt><trkpt lat="45.704770294360365" lon="9.714063613493256"><ele>272.7142857142857</ele><time>2026-03-27T13:56:49Z</time></trkpt><trkpt lat="45.704714303032034" lon="9.714020485098352"><ele>272.57142857142856</ele><time>2026-03-27T13:56:50Z</time></trkpt><trkpt lat="45.70466377415029" lon="9.713960280480588"><ele>272.42857142857144</ele><time>2026-03-27T13:56:51Z</time></trkpt><trkpt lat="45.70462161828726" lon="9.713887107079563"><ele>272.2857142857143</ele><time>2026-03-27T13:56:52Z</time></trkpt><trkpt lat="45.70458415579177" lon="9.713806791747922"><ele>272.1428571428571</ele><time>2026-03-27T13:56:53Z</time></trkpt><trkpt lat="45.70456082350313" lon="9.713716937339424"><ele>272.0</ele><time>2026-03-27T13:56:54Z</time></trkpt><trkpt lat="45.704550958659986" lon="9.713623904326042"><ele>271.71428571428567</ele><time>2026-03-27T13:56:55Z</time></trkpt><trkpt lat="45.704537522915395" lon="9.713533552054052"><ele>271.42857142857144</ele><time>2026-03-27T13:56:56Z</time></trkpt><trkpt lat="45.70451717688601" lon="9.713447056523492"><ele>271.1428571428571</ele><time>2026-03-27T13:56:57Z</time></trkpt><trkpt lat="45.70449434962022" lon="9.713360278314953"><ele>270.85714285714283</ele><time>2026-03-27T13:56:58Z</time></trkpt><trkpt lat="45.704473665345425" lon="9.713273808790484"><ele>270.57142857142856</ele><time>2026-03-27T13:56:59Z</time></trkpt><trkpt lat="45.704453041473585" lon="9.71318801010457"><ele>270.2857142857143</ele><time>2026-03-27T13:57:00Z</time></trkpt><trkpt lat="45.70443292188572" lon="9.713097669364409"><ele>270.0</ele><time>2026-03-27T13:57:01Z</time></trkpt><trkpt lat="45.70441395948797" lon="9.713008907091368"><ele>270.1428571428571</ele><time>2026-03-27T13:57:02Z</time></trkpt><trkpt lat="45.704394257288435" lon="9.712919702853082"><ele>270.2857142857143</ele><time>2026-03-27T13:57:03Z</time></trkpt><trkpt lat="45.70437573299266" lon="9.712829323123144"><ele>270.42857142857144</ele><time>2026-03-27T13:57:04Z</time></trkpt><trkpt lat="45.70435684269459" lon="9.712740007353865"><ele>270.57142857142856</ele><time>2026-03-27T13:57:05Z</time></trkpt><trkpt lat="45.70433684246645" lon="9.712650552458282"><ele>270.7142857142857</ele><time>2026-03-27T13:57:06Z</time></trkpt><trkpt lat="45.70431829433707" lon="9.71255878889399"><ele>270.85714285714283</ele><time>2026-03-27T13:57:07Z</time></trkpt><trkpt lat="45.70430163812079" lon="9.712468791099086"><ele>271.0</ele><time>2026-03-27T13:57:08Z</time></trkpt><trkpt lat="45.7042834024397" lon="9.712379394695033"><ele>271.0</ele><time>2026-03-27T13:57:09Z</time></trkpt><trkpt lat="45.704266010621346" lon="9.712290462276293"><ele>271.0</ele><time>2026-03-27T13:57:10Z</time></trkpt><trkpt lat="45.70424624524125" lon="9.712200380420587"><ele>271.0</ele><time>2026-03-27T13:57:11Z</time></trkpt><trkpt lat="45.70422666188445" lon="9.712112661541093"><ele>271.0</ele><time>2026-03-27T13:57:12Z</time></trkpt><trkpt lat="45.704205663890264" lon="9.712023934426684"><ele>271.0</ele><time>2026-03-27T13:57:13Z</time></trkpt><trkpt lat="45.70418016629785" lon="9.711938074987275"><ele>271.0</ele><time>2026-03-27T13:57:14Z</time></trkpt><trkpt lat="45.7041536192767" lon="9.711850966293945"><ele>271.0</ele><time>2026-03-27T13:57:15Z</time></trkpt><trkpt lat="45.70413040339104" lon="9.711764172892105"><ele>270.85714285714283</ele><time>2026-03-27T13:57:16Z</time></trkpt><trkpt lat="45.70410285499777" lon="9.711680329712408"><ele>270.7142857142857</ele><time>2026-03-27T13:57:17Z</time></trkpt><trkpt lat="45.70407596135967" lon="9.71159687593157"><ele>270.57142857142856</ele><time>2026-03-27T13:57:18Z</time></trkpt><trkpt lat="45.70405002645552" lon="9.711512501138566"><ele>270.42857142857144</ele><time>2026-03-27T13:57:19Z</time></trkpt><trkpt lat="45.70402259414406" lon="9.711426077498297"><ele>270.2857142857143</ele><time>2026-03-27T13:57:20Z</time></trkpt><trkpt lat="45.703996164247975" lon="9.711339903069842"><ele>270.1428571428571</ele><time>2026-03-27T13:57:21Z</time></trkpt><trkpt lat="45.70396892598781" lon="9.711256333570505"><ele>270.0</ele><time>2026-03-27T13:57:22Z</time></trkpt><trkpt lat="45.70395095722739" lon="9.711169413569415"><ele>269.8333333333333</ele><time>2026-03-27T13:57:23Z</time></trkpt><trkpt lat="45.703913656427346" lon="9.710995877906871"><ele>269.6666666666667</ele><time>2026-03-27T13:57:25Z</time></trkpt><trkpt lat="45.7039213634106" lon="9.710905036357024"><ele>269.5</ele><time>2026-03-27T13:57:26Z</time></trkpt><trkpt lat="45.70393065951516" lon="9.71081335663584"><ele>269.33333333333337</ele><time>2026-03-27T13:57:27Z</time></trkpt><trkpt lat="45.70393138419355" lon="9.710718337371288"><ele>269.1666666666667</ele><time>2026-03-27T13:57:28Z</time></trkpt><trkpt lat="45.703904586148084" lon="9.710633312839049"><ele>269.0</ele><time>2026-03-27T13:57:29Z</time></trkpt><trkpt lat="45.70385304449014" lon="9.710570561522381"><ele>269.0</ele><time>2026-03-27T13:57:30Z</time></trkpt><trkpt lat="45.70378996095154" lon="9.710525475670527"><ele>269.0</ele><time>2026-03-27T13:57:31Z</time></trkpt><trkpt lat="45.70373674681702" lon="9.710469258541316"><ele>269.0</ele><time>2026-03-27T13:57:32Z</time></trkpt><trkpt lat="45.70370983666832" lon="9.710384574637017"><ele>269.0</ele><time>2026-03-27T13:57:33Z</time></trkpt><trkpt lat="45.703702797603306" lon="9.71028872039849"><ele>269.0</ele><time>2026-03-27T13:57:34Z</time></trkpt><trkpt lat="45.70370284496612" lon="9.710191096522557"><ele>269.0</ele><time>2026-03-27T13:57:35Z</time></trkpt><trkpt lat="45.70369926898471" lon="9.710098611437505"><ele>269.0</ele><time>2026-03-27T13:57:36Z</time></trkpt><trkpt lat="45.703693674028486" lon="9.710003353799827"><ele>268.8571428571429</ele><time>2026-03-27T13:57:37Z</time></trkpt><trkpt lat="45.703685571141136" lon="9.709909884033257"><ele>268.7142857142857</ele><time>2026-03-27T13:57:38Z</time></trkpt><trkpt lat="45.70367755013871" lon="9.709817674201862"><ele>268.57142857142856</ele><time>2026-03-27T13:57:39Z</time></trkpt><trkpt lat="45.703669204119095" lon="9.709723491705441"><ele>268.42857142857144</ele><time>2026-03-27T13:57:40Z</time></trkpt><trkpt lat="45.7036687656474" lon="9.709629512873567"><ele>268.2857142857143</ele><time>2026-03-27T13:57:41Z</time></trkpt><trkpt lat="45.7036698793899" lon="9.709536199895085"><ele>268.14285714285717</ele><time>2026-03-27T13:57:42Z</time></trkpt><trkpt lat="45.70366890338562" lon="9.70944281689041"><ele>268.0</ele><time>2026-03-27T13:57:43Z</time></trkpt><trkpt lat="45.703674170443534" lon="9.709348739851256"><ele>268.0</ele><time>2026-03-27T13:57:44Z</time></trkpt><trkpt lat="45.70367505289545" lon="9.709256015365687"><ele>268.0</ele><time>2026-03-27T13:57:45Z</time></trkpt><trkpt lat="45.70367582877309" lon="9.709162259012368"><ele>268.0</ele><time>2026-03-27T13:57:46Z</time></trkpt><trkpt lat="45.70367825500011" lon="9.709070930623248"><ele>268.0</ele><time>2026-03-27T13:57:47Z</time></trkpt><trkpt lat="45.70368028538699" lon="9.708978807789316"><ele>268.0</ele><time>2026-03-27T13:57:48Z</time></trkpt><trkpt lat="45.703683197103366" lon="9.708885785453042"><ele>268.0</ele><time>2026-03-27T13:57:49Z</time></trkpt><trkpt lat="45.703683050804585" lon="9.70879271113044"><ele>268.0</ele><time>2026-03-27T13:57:50Z</time></trkpt><trkpt lat="45.70368448300854" lon="9.708698575304306"><ele>268.0</ele><time>2026-03-27T13:57:51Z</time></trkpt><trkpt lat="45.70368847882619" lon="9.70860488515458"><ele>268.0</ele><time>2026-03-27T13:57:52Z</time></trkpt><trkpt lat="45.70369226101561" lon="9.708513816328352"><ele>268.0</ele><time>2026-03-27T13:57:53Z</time></trkpt><trkpt lat="45.70369578270701" lon="9.708419851777037"><ele>268.0</ele><time>2026-03-27T13:57:54Z</time></trkpt><trkpt lat="45.70369880560302" lon="9.708326164712464"><ele>268.0</ele><time>2026-03-27T13:57:55Z</time></trkpt><trkpt lat="45.70370072054834" lon="9.70823211243567"><ele>268.0</ele><time>2026-03-27T13:57:56Z</time></trkpt><trkpt lat="45.703702598152894" lon="9.708137117157715"><ele>268.0</ele><time>2026-03-27T13:57:57Z</time></trkpt><trkpt lat="45.703703540912656" lon="9.708044857984747"><ele>268.2</ele><time>2026-03-27T13:57:58Z</time></trkpt><trkpt lat="45.70370801707464" lon="9.70786133813089"><ele>268.4</ele><time>2026-03-27T13:58:00Z</time></trkpt><trkpt lat="45.70371344680018" lon="9.70776666709414"><ele>268.59999999999997</ele><time>2026-03-27T13:58:01Z</time></trkpt><trkpt lat="45.703716746044456" lon="9.707674681947504"><ele>268.8</ele><time>2026-03-27T13:58:02Z</time></trkpt><trkpt lat="45.703721189722444" lon="9.707579707332746"><ele>269.0</ele><time>2026-03-27T13:58:03Z</time></trkpt><trkpt lat="45.70372773387815" lon="9.707395967221494"><ele>269.0</ele><time>2026-03-27T13:58:05Z</time></trkpt><trkpt lat="45.70373206222058" lon="9.707304367244504"><ele>269.0</ele><time>2026-03-27T13:58:06Z</time></trkpt><trkpt lat="45.70373413249462" lon="9.707210627813422"><ele>269.0</ele><time>2026-03-27T13:58:07Z</time></trkpt><trkpt lat="45.703736865254996" lon="9.70711917599273"><ele>269.0</ele><time>2026-03-27T13:58:08Z</time></trkpt><trkpt lat="45.703740967833944" lon="9.707025114630829"><ele>269.0</ele><time>2026-03-27T13:58:09Z</time></trkpt><trkpt lat="45.703744551932346" lon="9.706933165008996"><ele>269.0</ele><time>2026-03-27T13:58:10Z</time></trkpt><trkpt lat="45.703747830217246" lon="9.706839476114359"><ele>269.0</ele><time>2026-03-27T13:58:11Z</time></trkpt><trkpt lat="45.70374979251399" lon="9.706748129898896"><ele>268.83333333333337</ele><time>2026-03-27T13:58:12Z</time></trkpt><trkpt lat="45.70375318158252" lon="9.706654887567773"><ele>268.6666666666667</ele><time>2026-03-27T13:58:13Z</time></trkpt><trkpt lat="45.70375585288557" lon="9.706562097208236"><ele>268.5</ele><time>2026-03-27T13:58:14Z</time></trkpt><trkpt lat="45.703758651468" lon="9.706465645242329"><ele>268.3333333333333</ele><time>2026-03-27T13:58:15Z</time></trkpt><trkpt lat="45.70376164616394" lon="9.70628765416226"><ele>268.16666666666663</ele><time>2026-03-27T13:58:17Z</time></trkpt><trkpt lat="45.70376540305538" lon="9.706195099116776"><ele>268.0</ele><time>2026-03-27T13:58:18Z</time></trkpt><trkpt lat="45.70376869807702" lon="9.706014815964783"><ele>268.0</ele><time>2026-03-27T13:58:20Z</time></trkpt><trkpt lat="45.70376584244191" lon="9.70591804689915"><ele>268.0</ele><time>2026-03-27T13:58:21Z</time></trkpt><trkpt lat="45.70376970708138" lon="9.705733788973836"><ele>268.0</ele><time>2026-03-27T13:58:23Z</time></trkpt><trkpt lat="45.70376873856422" lon="9.705643330868153"><ele>268.0</ele><time>2026-03-27T13:58:24Z</time></trkpt><trkpt lat="45.70376853654365" lon="9.705550008386673"><ele>268.0</ele><time>2026-03-27T13:58:25Z</time></trkpt><trkpt lat="45.70375103182833" lon="9.705373477333927"><ele>268.0</ele><time>2026-03-27T13:58:27Z</time></trkpt><trkpt lat="45.70375392264019" lon="9.70527578012488"><ele>268.16666666666663</ele><time>2026-03-27T13:58:28Z</time></trkpt><trkpt lat="45.703750172281275" lon="9.705094386870606"><ele>268.3333333333333</ele><time>2026-03-27T13:58:30Z</time></trkpt><trkpt lat="45.70374816989478" lon="9.704998877666558"><ele>268.5</ele><time>2026-03-27T13:58:31Z</time></trkpt><trkpt lat="45.70374540557135" lon="9.70490693560134"><ele>268.6666666666667</ele><time>2026-03-27T13:58:32Z</time></trkpt><trkpt lat="45.70374028143751" lon="9.704810948078638"><ele>268.83333333333337</ele><time>2026-03-27T13:58:33Z</time></trkpt><trkpt lat="45.70373273214572" lon="9.704714903051887"><ele>269.0</ele><time>2026-03-27T13:58:34Z</time></trkpt><trkpt lat="45.70372840035002" lon="9.704530200718352"><ele>269.0</ele><time>2026-03-27T13:58:36Z</time></trkpt><trkpt lat="45.70372180144134" lon="9.704433938246394"><ele>269.0</ele><time>2026-03-27T13:58:37Z</time></trkpt><trkpt lat="45.7037157321123" lon="9.704249950369448"><ele>269.0</ele><time>2026-03-27T13:58:39Z</time></trkpt><trkpt lat="45.70371143739458" lon="9.70415914471536"><ele>269.0</ele><time>2026-03-27T13:58:40Z</time></trkpt><trkpt lat="45.70370552543426" lon="9.70406588120051"><ele>269.0</ele><time>2026-03-27T13:58:41Z</time></trkpt><trkpt lat="45.70370065619242" lon="9.703970579747715"><ele>269.0</ele><time>2026-03-27T13:58:42Z</time></trkpt><trkpt lat="45.70369796649595" lon="9.703878089813129"><ele>268.8571428571429</ele><time>2026-03-27T13:58:43Z</time></trkpt><trkpt lat="45.703693270379596" lon="9.70378338839725"><ele>268.7142857142857</ele><time>2026-03-27T13:58:44Z</time></trkpt><trkpt lat="45.70369066714601" lon="9.703689557364825"><ele>268.57142857142856</ele><time>2026-03-27T13:58:45Z</time></trkpt><trkpt lat="45.703684658081485" lon="9.703595129432573"><ele>268.42857142857144</ele><time>2026-03-27T13:58:46Z</time></trkpt><trkpt lat="45.70368116231935" lon="9.703504916108852"><ele>268.2857142857143</ele><time>2026-03-27T13:58:47Z</time></trkpt><trkpt lat="45.703672687606044" lon="9.703409846911756"><ele>268.14285714285717</ele><time>2026-03-27T13:58:48Z</time></trkpt><trkpt lat="45.70367044993637" lon="9.703317445487412"><ele>268.0</ele><time>2026-03-27T13:58:49Z</time></trkpt><trkpt lat="45.70366009351753" lon="9.703225074105834"><ele>268.0</ele><time>2026-03-27T13:58:50Z</time></trkpt><trkpt lat="45.703652234519325" lon="9.703134166417213"><ele>268.0</ele><time>2026-03-27T13:58:51Z</time></trkpt><trkpt lat="45.70364249910292" lon="9.703042623464585"><ele>268.0</ele><time>2026-03-27T13:58:52Z</time></trkpt><trkpt lat="45.703641662462424" lon="9.70294773951965"><ele>268.0</ele><time>2026-03-27T13:58:53Z</time></trkpt><trkpt lat="45.70362252138935" lon="9.702859253911729"><ele>268.0</ele><time>2026-03-27T13:58:54Z</time></trkpt><trkpt lat="45.70361575379172" lon="9.7027677775704"><ele>268.0</ele><time>2026-03-27T13:58:55Z</time></trkpt><trkpt lat="45.703604284958786" lon="9.7026756535319"><ele>268.0</ele><time>2026-03-27T13:58:56Z</time></trkpt><trkpt lat="45.70358773476302" lon="9.702586579713417"><ele>267.2857142857143</ele><time>2026-03-27T13:58:57Z</time></trkpt><trkpt lat="45.70357474421786" lon="9.702496064491816"><ele>266.57142857142856</ele><time>2026-03-27T13:58:58Z</time></trkpt><trkpt lat="45.703559322902564" lon="9.70240571812262"><ele>265.85714285714283</ele><time>2026-03-27T13:58:59Z</time></trkpt><trkpt lat="45.70354419968415" lon="9.702315479585028"><ele>265.1428571428571</ele><time>2026-03-27T13:59:00Z</time></trkpt><trkpt lat="45.703529822967994" lon="9.702223446957783"><ele>264.4285714285714</ele><time>2026-03-27T13:59:01Z</time></trkpt><trkpt lat="45.70351707489272" lon="9.70213137282953"><ele>263.7142857142857</ele><time>2026-03-27T13:59:02Z</time></trkpt><trkpt lat="45.70350377318538" lon="9.702039822223641"><ele>263.0</ele><time>2026-03-27T13:59:03Z</time></trkpt><trkpt lat="45.70349088693791" lon="9.701948362563916"><ele>263.2857142857143</ele><time>2026-03-27T13:59:04Z</time></trkpt><trkpt lat="45.70347710567932" lon="9.70185713378841"><ele>263.57142857142856</ele><time>2026-03-27T13:59:05Z</time></trkpt><trkpt lat="45.70346242182104" lon="9.70176449848308"><ele>263.85714285714283</ele><time>2026-03-27T13:59:06Z</time></trkpt><trkpt lat="45.70345125337235" lon="9.701673030388402"><ele>264.1428571428571</ele><time>2026-03-27T13:59:07Z</time></trkpt><trkpt lat="45.7034361863569" lon="9.701580388137419"><ele>264.42857142857144</ele><time>2026-03-27T13:59:08Z</time></trkpt><trkpt lat="45.703421441090455" lon="9.701490085567679"><ele>264.71428571428567</ele><time>2026-03-27T13:59:09Z</time></trkpt><trkpt lat="45.70340767437804" lon="9.701398430588531"><ele>265.0</ele><time>2026-03-27T13:59:10Z</time></trkpt><trkpt lat="45.70339236949764" lon="9.701310979306605"><ele>265.0</ele><time>2026-03-27T13:59:11Z</time></trkpt><trkpt lat="45.70337545215204" lon="9.70121561585158"><ele>265.0</ele><time>2026-03-27T13:59:12Z</time></trkpt><trkpt lat="45.70335287407431" lon="9.70103680912781"><ele>265.0</ele><time>2026-03-27T13:59:14Z</time></trkpt><trkpt lat="45.70333520343794" lon="9.700947795097685"><ele>265.0</ele><time>2026-03-27T13:59:15Z</time></trkpt><trkpt lat="45.7033242949264" lon="9.700856170081277"><ele>265.0</ele><time>2026-03-27T13:59:16Z</time></trkpt><trkpt lat="45.70331258536838" lon="9.70076274915492"><ele>265.0</ele><time>2026-03-27T13:59:17Z</time></trkpt><trkpt lat="45.70328355291453" lon="9.70058162784942"><ele>265.3333333333333</ele><time>2026-03-27T13:59:19Z</time></trkpt><trkpt lat="45.703271314186246" lon="9.700486300879295"><ele>265.66666666666663</ele><time>2026-03-27T13:59:20Z</time></trkpt><trkpt lat="45.703256298906155" lon="9.700398719363557"><ele>266.0</ele><time>2026-03-27T13:59:21Z</time></trkpt><trkpt lat="45.703243716387405" lon="9.700308400223793"><ele>266.3333333333333</ele><time>2026-03-27T13:59:22Z</time></trkpt><trkpt lat="45.703218688698925" lon="9.700126964180514"><ele>266.6666666666667</ele><time>2026-03-27T13:59:24Z</time></trkpt><trkpt lat="45.70320799967402" lon="9.700037507749467"><ele>267.0</ele><time>2026-03-27T13:59:25Z</time></trkpt><trkpt lat="45.70319581734577" lon="9.69994765855139"><ele>267.0</ele><time>2026-03-27T13:59:26Z</time></trkpt><trkpt lat="45.70316718332203" lon="9.699767358641987"><ele>267.0</ele><time>2026-03-27T13:59:28Z</time></trkpt><trkpt lat="45.70314331841389" lon="9.699591332647174"><ele>267.0</ele><time>2026-03-27T13:59:30Z</time></trkpt><trkpt lat="45.70312693642325" lon="9.69949158898931"><ele>267.0</ele><time>2026-03-27T13:59:31Z</time></trkpt><trkpt lat="45.703093634792" lon="9.699318198555199"><ele>266.8571428571429</ele><time>2026-03-27T13:59:33Z</time></trkpt><trkpt lat="45.703076135539575" lon="9.699225646228598"><ele>266.7142857142857</ele><time>2026-03-27T13:59:34Z</time></trkpt><trkpt lat="45.70305916112147" lon="9.699137147604178"><ele>266.57142857142856</ele><time>2026-03-27T13:59:35Z</time></trkpt><trkpt lat="45.70304114883107" lon="9.699047659421252"><ele>266.42857142857144</ele><time>2026-03-27T13:59:36Z</time></trkpt><trkpt lat="45.7030260868693" lon="9.698956501500426"><ele>266.2857142857143</ele><time>2026-03-27T13:59:37Z</time></trkpt><trkpt lat="45.70301509963674" lon="9.698865088867139"><ele>266.14285714285717</ele><time>2026-03-27T13:59:38Z</time></trkpt><trkpt lat="45.70301145707878" lon="9.698774440183415"><ele>266.0</ele><time>2026-03-27T13:59:39Z</time></trkpt><trkpt lat="45.703007794214415" lon="9.698680497105338"><ele>266.0</ele><time>2026-03-27T13:59:40Z</time></trkpt><trkpt lat="45.7030049557862" lon="9.69858808594712"><ele>266.0</ele><time>2026-03-27T13:59:41Z</time></trkpt><trkpt lat="45.702979243528794" lon="9.69840475331493"><ele>266.0</ele><time>2026-03-27T13:59:43Z</time></trkpt><trkpt lat="45.702954123940636" lon="9.698223699680339"><ele>266.0</ele><time>2026-03-27T13:59:45Z</time></trkpt><trkpt lat="45.70293201450422" lon="9.698041553331437"><ele>265.85714285714283</ele><time>2026-03-27T13:59:47Z</time></trkpt><trkpt lat="45.70292181614084" lon="9.69795177786051"><ele>265.7142857142857</ele><time>2026-03-27T13:59:48Z</time></trkpt><trkpt lat="45.702908859159095" lon="9.697857838281339"><ele>265.57142857142856</ele><time>2026-03-27T13:59:49Z</time></trkpt><trkpt lat="45.7028960694054" lon="9.697767153467133"><ele>265.42857142857144</ele><time>2026-03-27T13:59:50Z</time></trkpt><trkpt lat="45.70288691232168" lon="9.697674210142472"><ele>265.2857142857143</ele><time>2026-03-27T13:59:51Z</time></trkpt><trkpt lat="45.70288032009967" lon="9.697581854311082"><ele>265.1428571428571</ele><time>2026-03-27T13:59:52Z</time></trkpt><trkpt lat="45.70287767770268" lon="9.697487961211156"><ele>265.0</ele><time>2026-03-27T13:59:53Z</time></trkpt><trkpt lat="45.702874110329525" lon="9.697390349008394"><ele>264.99999999999994</ele><time>2026-03-27T13:59:54Z</time></trkpt><trkpt lat="45.70288273758759" lon="9.697297638615952"><ele>265.0</ele><time>2026-03-27T13:59:55Z</time></trkpt><trkpt lat="45.70289390513411" lon="9.697204132621561"><ele>265.0</ele><time>2026-03-27T13:59:56Z</time></trkpt><trkpt lat="45.70291164473907" lon="9.697112316451403"><ele>265.0</ele><time>2026-03-27T13:59:57Z</time></trkpt><trkpt lat="45.70293455636896" lon="9.697023273829794"><ele>265.0</ele><time>2026-03-27T13:59:58Z</time></trkpt><trkpt lat="45.70296077891343" lon="9.696940468283314"><ele>264.99999999999994</ele><time>2026-03-27T13:59:59Z</time></trkpt><trkpt lat="45.70298996519545" lon="9.696858837610927"><ele>265.0</ele><time>2026-03-27T14:00:00Z</time></trkpt><trkpt lat="45.703020727335414" lon="9.696779412778309"><ele>265.0</ele><time>2026-03-27T14:00:01Z</time></trkpt><trkpt lat="45.70305638135002" lon="9.69670253714005"><ele>265.0</ele><time>2026-03-27T14:00:02Z</time></trkpt><trkpt lat="45.703090999782354" lon="9.696626846800461"><ele>265.0</ele><time>2026-03-27T14:00:03Z</time></trkpt><trkpt lat="45.70312129569763" lon="9.696543756245092"><ele>265.0</ele><time>2026-03-27T14:00:04Z</time></trkpt><trkpt lat="45.70319211744909" lon="9.69638623329124"><ele>265.0</ele><time>2026-03-27T14:00:06Z</time></trkpt><trkpt lat="45.703225362793916" lon="9.696309562272852"><ele>265.0</ele><time>2026-03-27T14:00:07Z</time></trkpt><trkpt lat="45.70326083952657" lon="9.696228141447575"><ele>264.99999999999994</ele><time>2026-03-27T14:00:08Z</time></trkpt><trkpt lat="45.70329491681872" lon="9.696146859612151"><ele>265.0</ele><time>2026-03-27T14:00:09Z</time></trkpt><trkpt lat="45.70332695119178" lon="9.696068709430945"><ele>265.0</ele><time>2026-03-27T14:00:10Z</time></trkpt><trkpt lat="45.70336162918342" lon="9.695989233437327"><ele>265.0</ele><time>2026-03-27T14:00:11Z</time></trkpt><trkpt lat="45.70340632669001" lon="9.695919869072624"><ele>265.0</ele><time>2026-03-27T14:00:12Z</time></trkpt><trkpt lat="45.70346289491396" lon="9.695874010962852"><ele>264.99999999999994</ele><time>2026-03-27T14:00:13Z</time></trkpt><trkpt lat="45.70352451140498" lon="9.695839906601476"><ele>265.0</ele><time>2026-03-27T14:00:14Z</time></trkpt><trkpt lat="45.70359057144079" lon="9.695843838850248"><ele>265.16666666666663</ele><time>2026-03-27T14:00:15Z</time></trkpt><trkpt lat="45.70365645775521" lon="9.695847323003578"><ele>265.3333333333333</ele><time>2026-03-27T14:00:16Z</time></trkpt><trkpt lat="45.70372065730829" lon="9.695851365984579"><ele>265.5</ele><time>2026-03-27T14:00:17Z</time></trkpt><trkpt lat="45.70378570342963" lon="9.695852381420831"><ele>265.6666666666667</ele><time>2026-03-27T14:00:18Z</time></trkpt><trkpt lat="45.70390847978075" lon="9.695848845684978"><ele>265.83333333333337</ele><time>2026-03-27T14:00:20Z</time></trkpt><trkpt lat="45.70402559200948" lon="9.695832926719357"><ele>266.0</ele><time>2026-03-27T14:00:22Z</time></trkpt><trkpt lat="45.7041239813048" lon="9.695725708279317"><ele>266.0</ele><time>2026-03-27T14:00:24Z</time></trkpt><trkpt lat="45.70416142021219" lon="9.695649102442967"><ele>266.0</ele><time>2026-03-27T14:00:25Z</time></trkpt><trkpt lat="45.70419105955931" lon="9.695517190460517"><ele>266.0</ele><time>2026-03-27T14:00:27Z</time></trkpt><trkpt lat="45.704258098551406" lon="9.695404785335278"><ele>266.0</ele><time>2026-03-27T14:00:29Z</time></trkpt><trkpt lat="45.704320334225535" lon="9.695381547775472"><ele>266.0</ele><time>2026-03-27T14:00:30Z</time></trkpt><trkpt lat="45.70443362238313" lon="9.695357444768483"><ele>266.0</ele><time>2026-03-27T14:00:32Z</time></trkpt><trkpt lat="45.704501742700224" lon="9.695355453016456"><ele>266.0</ele><time>2026-03-27T14:00:33Z</time></trkpt><trkpt lat="45.70457063084103" lon="9.695353814454377"><ele>266.0</ele><time>2026-03-27T14:00:34Z</time></trkpt><trkpt lat="45.70463500855225" lon="9.695337108577792"><ele>266.0</ele><time>2026-03-27T14:00:35Z</time></trkpt><trkpt lat="45.7046958795217" lon="9.695295975130371"><ele>266.0</ele><time>2026-03-27T14:00:36Z</time></trkpt><trkpt lat="45.704749621148714" lon="9.69524715762598"><ele>266.0</ele><time>2026-03-27T14:00:37Z</time></trkpt><trkpt lat="45.70479867799517" lon="9.695189158647716"><ele>266.0</ele><time>2026-03-27T14:00:38Z</time></trkpt><trkpt lat="45.7048429165628" lon="9.695117980096368"><ele>266.0</ele><time>2026-03-27T14:00:39Z</time></trkpt><trkpt lat="45.70491302505454" lon="9.694990590226421"><ele>266.2857142857143</ele><time>2026-03-27T14:00:41Z</time></trkpt><trkpt lat="45.70493718161628" lon="9.694905841355057"><ele>266.57142857142856</ele><time>2026-03-27T14:00:42Z</time></trkpt><trkpt lat="45.704956432616434" lon="9.694808429740348"><ele>266.8571428571429</ele><time>2026-03-27T14:00:43Z</time></trkpt><trkpt lat="45.70498610217113" lon="9.694722947417551"><ele>267.1428571428571</ele><time>2026-03-27T14:00:44Z</time></trkpt><trkpt lat="45.70503682421621" lon="9.694662037014801"><ele>267.42857142857144</ele><time>2026-03-27T14:00:45Z</time></trkpt><trkpt lat="45.705103994056984" lon="9.694627456863222"><ele>267.7142857142857</ele><time>2026-03-27T14:00:46Z</time></trkpt><trkpt lat="45.705170571627285" lon="9.69460490264891"><ele>268.0</ele><time>2026-03-27T14:00:47Z</time></trkpt><trkpt lat="45.70523269250283" lon="9.694578112775911"><ele>267.66666666666663</ele><time>2026-03-27T14:00:48Z</time></trkpt><trkpt lat="45.7052949904464" lon="9.694552573048488"><ele>267.3333333333333</ele><time>2026-03-27T14:00:49Z</time></trkpt><trkpt lat="45.70535643681206" lon="9.69452821720042"><ele>267.0</ele><time>2026-03-27T14:00:50Z</time></trkpt><trkpt lat="45.70542268360923" lon="9.694503334435785"><ele>266.6666666666667</ele><time>2026-03-27T14:00:51Z</time></trkpt><trkpt lat="45.705542458009575" lon="9.694438854275848"><ele>266.33333333333337</ele><time>2026-03-27T14:00:53Z</time></trkpt><trkpt lat="45.70560426687011" lon="9.694410528220986"><ele>266.0</ele><time>2026-03-27T14:00:54Z</time></trkpt><trkpt lat="45.7056664671234" lon="9.694383236315275"><ele>266.0</ele><time>2026-03-27T14:00:55Z</time></trkpt><trkpt lat="45.70572735063448" lon="9.694352327492808"><ele>266.0</ele><time>2026-03-27T14:00:56Z</time></trkpt><trkpt lat="45.70578803026923" lon="9.694319913998962"><ele>266.0</ele><time>2026-03-27T14:00:57Z</time></trkpt><trkpt lat="45.70584995857746" lon="9.694276597364551"><ele>266.0</ele><time>2026-03-27T14:00:58Z</time></trkpt><trkpt lat="45.705910457157316" lon="9.69423377509984"><ele>266.0</ele><time>2026-03-27T14:00:59Z</time></trkpt><trkpt lat="45.705974916301706" lon="9.694190949321253"><ele>266.0</ele><time>2026-03-27T14:01:00Z</time></trkpt><trkpt lat="45.70603843136049" lon="9.694154095531367"><ele>266.0</ele><time>2026-03-27T14:01:01Z</time></trkpt><trkpt lat="45.70610127259312" lon="9.694118231269565"><ele>266.40000000000003</ele><time>2026-03-27T14:01:02Z</time></trkpt><trkpt lat="45.706164096265056" lon="9.69408821327265"><ele>266.8</ele><time>2026-03-27T14:01:03Z</time></trkpt><trkpt lat="45.70622768102556" lon="9.694054549365305"><ele>267.20000000000005</ele><time>2026-03-27T14:01:04Z</time></trkpt><trkpt lat="45.70634166132917" lon="9.69397604018426"><ele>267.6</ele><time>2026-03-27T14:01:06Z</time></trkpt><trkpt lat="45.706452471017045" lon="9.693899578965128"><ele>268.0</ele><time>2026-03-27T14:01:08Z</time></trkpt><trkpt lat="45.706560962737925" lon="9.693832249457135"><ele>268.0</ele><time>2026-03-27T14:01:10Z</time></trkpt><trkpt lat="45.70662514618667" lon="9.693701129653395"><ele>268.0</ele><time>2026-03-27T14:01:12Z</time></trkpt><trkpt lat="45.70673683991987" lon="9.693604801354459"><ele>268.0</ele><time>2026-03-27T14:01:14Z</time></trkpt><trkpt lat="45.70680180761472" lon="9.693557789053802"><ele>268.0</ele><time>2026-03-27T14:01:15Z</time></trkpt><trkpt lat="45.70690301946422" lon="9.693445112559392"><ele>268.0</ele><time>2026-03-27T14:01:17Z</time></trkpt><trkpt lat="45.706954837971104" lon="9.693392667261044"><ele>267.66666666666663</ele><time>2026-03-27T14:01:18Z</time></trkpt><trkpt lat="45.70700584753093" lon="9.693332158140079"><ele>267.3333333333333</ele><time>2026-03-27T14:01:19Z</time></trkpt><trkpt lat="45.70709436888658" lon="9.693207539855603"><ele>267.0</ele><time>2026-03-27T14:01:21Z</time></trkpt><trkpt lat="45.7071379384428" lon="9.693139778896612"><ele>266.6666666666667</ele><time>2026-03-27T14:01:22Z</time></trkpt><trkpt lat="45.70722299847493" lon="9.693006239446754"><ele>266.33333333333337</ele><time>2026-03-27T14:01:24Z</time></trkpt><trkpt lat="45.707269023604425" lon="9.692944265960593"><ele>266.0</ele><time>2026-03-27T14:01:25Z</time></trkpt><trkpt lat="45.70731250763655" lon="9.692877308000172"><ele>266.0</ele><time>2026-03-27T14:01:26Z</time></trkpt><trkpt lat="45.707358594398755" lon="9.692811027219195"><ele>266.0</ele><time>2026-03-27T14:01:27Z</time></trkpt><trkpt lat="45.707401932200355" lon="9.692741951141594"><ele>266.0</ele><time>2026-03-27T14:01:28Z</time></trkpt><trkpt lat="45.707445062531654" lon="9.692672506761431"><ele>266.0</ele><time>2026-03-27T14:01:29Z</time></trkpt><trkpt lat="45.707532065570774" lon="9.692540104395508"><ele>266.0</ele><time>2026-03-27T14:01:31Z</time></trkpt><trkpt lat="45.70757846244468" lon="9.692476040418047"><ele>266.0</ele><time>2026-03-27T14:01:32Z</time></trkpt><trkpt lat="45.70761827999156" lon="9.692399671976831"><ele>265.6666666666667</ele><time>2026-03-27T14:01:33Z</time></trkpt><trkpt lat="45.7076610432747" lon="9.692332841057702"><ele>265.33333333333337</ele><time>2026-03-27T14:01:34Z</time></trkpt><trkpt lat="45.707746735671094" lon="9.69219802618878"><ele>265.0</ele><time>2026-03-27T14:01:36Z</time></trkpt><trkpt lat="45.70783260863893" lon="9.69206430130565"><ele>264.6666666666667</ele><time>2026-03-27T14:01:38Z</time></trkpt><trkpt lat="45.70787662969872" lon="9.69199711233026"><ele>264.3333333333333</ele><time>2026-03-27T14:01:39Z</time></trkpt><trkpt lat="45.70791834894051" lon="9.691926790562345"><ele>264.0</ele><time>2026-03-27T14:01:40Z</time></trkpt><trkpt lat="45.7079619802233" lon="9.691856662065364"><ele>264.7142857142857</ele><time>2026-03-27T14:01:41Z</time></trkpt><trkpt lat="45.708003884587605" lon="9.691788075749768"><ele>265.42857142857144</ele><time>2026-03-27T14:01:42Z</time></trkpt><trkpt lat="45.70804667058148" lon="9.691716384750137"><ele>266.14285714285717</ele><time>2026-03-27T14:01:43Z</time></trkpt><trkpt lat="45.70809227745839" lon="9.69164993595371"><ele>266.8571428571429</ele><time>2026-03-27T14:01:44Z</time></trkpt><trkpt lat="45.70813638430049" lon="9.69157910982173"><ele>267.5714285714286</ele><time>2026-03-27T14:01:45Z</time></trkpt><trkpt lat="45.70818077705384" lon="9.691507411808345"><ele>268.2857142857143</ele><time>2026-03-27T14:01:46Z</time></trkpt><trkpt lat="45.708224849679674" lon="9.691434728072457"><ele>269.0</ele><time>2026-03-27T14:01:47Z</time></trkpt><trkpt lat="45.70827095952876" lon="9.691362925491012"><ele>269.0</ele><time>2026-03-27T14:01:48Z</time></trkpt><trkpt lat="45.708316459273775" lon="9.691291296253407"><ele>269.0</ele><time>2026-03-27T14:01:49Z</time></trkpt><trkpt lat="45.708364413324375" lon="9.6912119137256"><ele>269.0</ele><time>2026-03-27T14:01:50Z</time></trkpt><trkpt lat="45.70840937656853" lon="9.691138791950666"><ele>269.0</ele><time>2026-03-27T14:01:51Z</time></trkpt><trkpt lat="45.70846048741844" lon="9.691062263334434"><ele>269.0</ele><time>2026-03-27T14:01:52Z</time></trkpt><trkpt lat="45.70851018172654" lon="9.690987699581251"><ele>269.0</ele><time>2026-03-27T14:01:53Z</time></trkpt><trkpt lat="45.70856430623415" lon="9.69090310858085"><ele>269.0</ele><time>2026-03-27T14:01:54Z</time></trkpt><trkpt lat="45.70861703994776" lon="9.69082321119875"><ele>269.0</ele><time>2026-03-27T14:01:55Z</time></trkpt><trkpt lat="45.708671943221304" lon="9.690738372091324"><ele>269.0</ele><time>2026-03-27T14:01:56Z</time></trkpt><trkpt lat="45.70872820051408" lon="9.690647497865212"><ele>269.0</ele><time>2026-03-27T14:01:57Z</time></trkpt><trkpt lat="45.708782242609644" lon="9.690560342677244"><ele>269.0</ele><time>2026-03-27T14:01:58Z</time></trkpt><trkpt lat="45.70883776143826" lon="9.690473049117044"><ele>269.0</ele><time>2026-03-27T14:01:59Z</time></trkpt><trkpt lat="45.70889363419808" lon="9.690384832488924"><ele>269.0</ele><time>2026-03-27T14:02:00Z</time></trkpt><trkpt lat="45.708950280137806" lon="9.690303039520794"><ele>269.2857142857143</ele><time>2026-03-27T14:02:01Z</time></trkpt><trkpt lat="45.70900549547679" lon="9.690223052499451"><ele>269.5714285714286</ele><time>2026-03-27T14:02:02Z</time></trkpt><trkpt lat="45.709063101414976" lon="9.69014991475876"><ele>269.8571428571429</ele><time>2026-03-27T14:02:03Z</time></trkpt><trkpt lat="45.70911856702921" lon="9.690078959063936"><ele>270.14285714285717</ele><time>2026-03-27T14:02:04Z</time></trkpt><trkpt lat="45.70917487598536" lon="9.690011742693246"><ele>270.42857142857144</ele><time>2026-03-27T14:02:05Z</time></trkpt><trkpt lat="45.7092319365461" lon="9.689951031852003"><ele>270.7142857142857</ele><time>2026-03-27T14:02:06Z</time></trkpt><trkpt lat="45.70928526643" lon="9.68988856132766"><ele>271.0</ele><time>2026-03-27T14:02:07Z</time></trkpt><trkpt lat="45.709341417418855" lon="9.68983517201662"><ele>271.0</ele><time>2026-03-27T14:02:08Z</time></trkpt><trkpt lat="45.7093965222502" lon="9.689784637343987"><ele>271.0</ele><time>2026-03-27T14:02:09Z</time></trkpt><trkpt lat="45.709452425854025" lon="9.689739867684821"><ele>271.0</ele><time>2026-03-27T14:02:10Z</time></trkpt><trkpt lat="45.709507841859505" lon="9.689691183192666"><ele>271.0</ele><time>2026-03-27T14:02:11Z</time></trkpt><trkpt lat="45.70961824550787" lon="9.689600746217687"><ele>271.0</ele><time>2026-03-27T14:02:13Z</time></trkpt><trkpt lat="45.709673124919505" lon="9.689550750585635"><ele>271.0</ele><time>2026-03-27T14:02:14Z</time></trkpt><trkpt lat="45.709729162196275" lon="9.6894990636007"><ele>270.66666666666663</ele><time>2026-03-27T14:02:15Z</time></trkpt><trkpt lat="45.70983816899881" lon="9.68940483540746"><ele>270.3333333333333</ele><time>2026-03-27T14:02:17Z</time></trkpt><trkpt lat="45.70989215389479" lon="9.689353756113036"><ele>270.0</ele><time>2026-03-27T14:02:18Z</time></trkpt><trkpt lat="45.70994839935617" lon="9.689306787365274"><ele>269.6666666666667</ele><time>2026-03-27T14:02:19Z</time></trkpt><trkpt lat="45.71000451814877" lon="9.68926210402781"><ele>269.33333333333337</ele><time>2026-03-27T14:02:20Z</time></trkpt><trkpt lat="45.710061687548446" lon="9.689214887475405"><ele>269.0</ele><time>2026-03-27T14:02:21Z</time></trkpt><trkpt lat="45.71011632624136" lon="9.689167167713784"><ele>269.0</ele><time>2026-03-27T14:02:22Z</time></trkpt><trkpt lat="45.71017336108134" lon="9.689119550071412"><ele>269.0</ele><time>2026-03-27T14:02:23Z</time></trkpt><trkpt lat="45.71022864227216" lon="9.689071381592676"><ele>269.0</ele><time>2026-03-27T14:02:24Z</time></trkpt><trkpt lat="45.710337020448065" lon="9.688974550924408"><ele>269.0</ele><time>2026-03-27T14:02:26Z</time></trkpt><trkpt lat="45.71039059464924" lon="9.688925278072912"><ele>269.0</ele><time>2026-03-27T14:02:27Z</time></trkpt><trkpt lat="45.71044548888771" lon="9.688877499301915"><ele>269.0</ele><time>2026-03-27T14:02:28Z</time></trkpt><trkpt lat="45.710499181936264" lon="9.688829772831994"><ele>269.33333333333337</ele><time>2026-03-27T14:02:29Z</time></trkpt><trkpt lat="45.710555538587" lon="9.688778218240545"><ele>269.6666666666667</ele><time>2026-03-27T14:02:30Z</time></trkpt><trkpt lat="45.710662654829434" lon="9.688682692009042"><ele>270.0</ele><time>2026-03-27T14:02:32Z</time></trkpt><trkpt lat="45.710718248905074" lon="9.688637584568841"><ele>270.3333333333333</ele><time>2026-03-27T14:02:33Z</time></trkpt><trkpt lat="45.71077451144501" lon="9.688592705157914"><ele>270.66666666666663</ele><time>2026-03-27T14:02:34Z</time></trkpt><trkpt lat="45.71082935329509" lon="9.688547615354913"><ele>271.0</ele><time>2026-03-27T14:02:35Z</time></trkpt><trkpt lat="45.7108855857166" lon="9.688498678387617"><ele>271.0</ele><time>2026-03-27T14:02:36Z</time></trkpt><trkpt lat="45.710993861066" lon="9.688406829386489"><ele>271.0</ele><time>2026-03-27T14:02:38Z</time></trkpt><trkpt lat="45.71104611569102" lon="9.688350584064397"><ele>271.0</ele><time>2026-03-27T14:02:39Z</time></trkpt><trkpt lat="45.711148877334374" lon="9.688243159474542"><ele>271.0</ele><time>2026-03-27T14:02:41Z</time></trkpt><trkpt lat="45.711251731468366" lon="9.68813071512627"><ele>271.0</ele><time>2026-03-27T14:02:43Z</time></trkpt><trkpt lat="45.71134875450327" lon="9.688014875296691"><ele>271.1428571428571</ele><time>2026-03-27T14:02:45Z</time></trkpt><trkpt lat="45.711446004480194" lon="9.687899713991847"><ele>271.2857142857143</ele><time>2026-03-27T14:02:47Z</time></trkpt><trkpt lat="45.711493615545045" lon="9.687839268976797"><ele>271.42857142857144</ele><time>2026-03-27T14:02:48Z</time></trkpt><trkpt lat="45.71153630019611" lon="9.687770958327746"><ele>271.57142857142856</ele><time>2026-03-27T14:02:49Z</time></trkpt><trkpt lat="45.71158434900619" lon="9.687712430220815"><ele>271.7142857142857</ele><time>2026-03-27T14:02:50Z</time></trkpt><trkpt lat="45.71162763202341" lon="9.687645636982836"><ele>271.85714285714283</ele><time>2026-03-27T14:02:51Z</time></trkpt><trkpt lat="45.71166917595902" lon="9.68757711312813"><ele>272.0</ele><time>2026-03-27T14:02:52Z</time></trkpt><trkpt lat="45.71171303482564" lon="9.687511113540968"><ele>272.0</ele><time>2026-03-27T14:02:53Z</time></trkpt><trkpt lat="45.71179454069565" lon="9.687369787941398"><ele>272.0</ele><time>2026-03-27T14:02:55Z</time></trkpt><trkpt lat="45.711833592185116" lon="9.687297348413772"><ele>272.0</ele><time>2026-03-27T14:02:56Z</time></trkpt><trkpt lat="45.71187377216186" lon="9.687227252704911"><ele>272.0</ele><time>2026-03-27T14:02:57Z</time></trkpt><trkpt lat="45.7119137141403" lon="9.687153014355108"><ele>272.0</ele><time>2026-03-27T14:02:58Z</time></trkpt><trkpt lat="45.71194972573882" lon="9.687079049559195"><ele>272.0</ele><time>2026-03-27T14:02:59Z</time></trkpt><trkpt lat="45.712022675387516" lon="9.686929788137629"><ele>272.57142857142856</ele><time>2026-03-27T14:03:01Z</time></trkpt><trkpt lat="45.71205942787942" lon="9.686855093940242"><ele>273.1428571428571</ele><time>2026-03-27T14:03:02Z</time></trkpt><trkpt lat="45.71209379141592" lon="9.686778579481658"><ele>273.7142857142857</ele><time>2026-03-27T14:03:03Z</time></trkpt><trkpt lat="45.712129889388635" lon="9.686700240438181"><ele>274.2857142857143</ele><time>2026-03-27T14:03:04Z</time></trkpt><trkpt lat="45.712162663652435" lon="9.686619859313902"><ele>274.8571428571429</ele><time>2026-03-27T14:03:05Z</time></trkpt><trkpt lat="45.712194534391465" lon="9.68654173764012"><ele>275.42857142857144</ele><time>2026-03-27T14:03:06Z</time></trkpt><trkpt lat="45.71222755462778" lon="9.686459912100508"><ele>276.0</ele><time>2026-03-27T14:03:07Z</time></trkpt><trkpt lat="45.712260130687184" lon="9.686379864052364"><ele>276.0</ele><time>2026-03-27T14:03:08Z</time></trkpt><trkpt lat="45.71229386887282" lon="9.686298851615202"><ele>276.0</ele><time>2026-03-27T14:03:09Z</time></trkpt><trkpt lat="45.71232916938064" lon="9.686215672298939"><ele>276.0</ele><time>2026-03-27T14:03:10Z</time></trkpt><trkpt lat="45.71239501517263" lon="9.686056353483936"><ele>276.0</ele><time>2026-03-27T14:03:12Z</time></trkpt><trkpt lat="45.712425337520415" lon="9.68597187689673"><ele>276.0</ele><time>2026-03-27T14:03:13Z</time></trkpt><trkpt lat="45.71245919046854" lon="9.685893325049209"><ele>276.0</ele><time>2026-03-27T14:03:14Z</time></trkpt><trkpt lat="45.71249346318918" lon="9.685808061223655"><ele>276.0</ele><time>2026-03-27T14:03:15Z</time></trkpt><trkpt lat="45.712526102235344" lon="9.685728595572755"><ele>276.0</ele><time>2026-03-27T14:03:16Z</time></trkpt><trkpt lat="45.712559181869906" lon="9.685645286631088"><ele>276.0</ele><time>2026-03-27T14:03:17Z</time></trkpt><trkpt lat="45.71259253628443" lon="9.685563311508778"><ele>276.0</ele><time>2026-03-27T14:03:18Z</time></trkpt><trkpt lat="45.71264702024292" lon="9.685419570885673"><ele>276.0</ele><time>2026-03-27T14:03:20Z</time></trkpt><trkpt lat="45.712684310450186" lon="9.685326598386142"><ele>276.0</ele><time>2026-03-27T14:03:21Z</time></trkpt><trkpt lat="45.71271684013844" lon="9.685243756829536"><ele>276.8</ele><time>2026-03-27T14:03:22Z</time></trkpt><trkpt lat="45.712750634015556" lon="9.685165101771778"><ele>277.6</ele><time>2026-03-27T14:03:23Z</time></trkpt><trkpt lat="45.712811765117294" lon="9.685001851322687"><ele>278.4</ele><time>2026-03-27T14:03:25Z</time></trkpt><trkpt lat="45.71288353169214" lon="9.684847062794926"><ele>279.2</ele><time>2026-03-27T14:03:27Z</time></trkpt><trkpt lat="45.712917038701534" lon="9.68476838748597"><ele>280.0</ele><time>2026-03-27T14:03:28Z</time></trkpt><trkpt lat="45.712990948219904" lon="9.684635230516033"><ele>280.0</ele><time>2026-03-27T14:03:30Z</time></trkpt><trkpt lat="45.71301721890282" lon="9.68453749211099"><ele>280.0</ele><time>2026-03-27T14:03:31Z</time></trkpt><trkpt lat="45.71304697078314" lon="9.684451506589738"><ele>280.0</ele><time>2026-03-27T14:03:32Z</time></trkpt><trkpt lat="45.71311374466059" lon="9.68429190286603"><ele>280.0</ele><time>2026-03-27T14:03:34Z</time></trkpt><trkpt lat="45.71314670157839" lon="9.684213501199059"><ele>280.0</ele><time>2026-03-27T14:03:35Z</time></trkpt><trkpt lat="45.713213730566665" lon="9.684054382294002"><ele>279.2857142857143</ele><time>2026-03-27T14:03:37Z</time></trkpt><trkpt lat="45.71324566305921" lon="9.68397279525376"><ele>278.57142857142856</ele><time>2026-03-27T14:03:38Z</time></trkpt><trkpt lat="45.71327978618502" lon="9.683893929741595"><ele>277.8571428571429</ele><time>2026-03-27T14:03:39Z</time></trkpt><trkpt lat="45.71331068151362" lon="9.683815055026736"><ele>277.1428571428571</ele><time>2026-03-27T14:03:40Z</time></trkpt><trkpt lat="45.71334533404378" lon="9.683734859625442"><ele>276.42857142857144</ele><time>2026-03-27T14:03:41Z</time></trkpt><trkpt lat="45.71337668991328" lon="9.683652637843231"><ele>275.7142857142857</ele><time>2026-03-27T14:03:42Z</time></trkpt><trkpt lat="45.71340971923177" lon="9.683569447629077"><ele>275.0</ele><time>2026-03-27T14:03:43Z</time></trkpt><trkpt lat="45.71347362787986" lon="9.683412592507043"><ele>275.33333333333337</ele><time>2026-03-27T14:03:45Z</time></trkpt><trkpt lat="45.71350888530568" lon="9.683334904671447"><ele>275.6666666666667</ele><time>2026-03-27T14:03:46Z</time></trkpt><trkpt lat="45.71354255243121" lon="9.683251247642808"><ele>276.0</ele><time>2026-03-27T14:03:47Z</time></trkpt><trkpt lat="45.713578876543565" lon="9.683176440276792"><ele>276.3333333333333</ele><time>2026-03-27T14:03:48Z</time></trkpt><trkpt lat="45.71363445101437" lon="9.683009271076378"><ele>276.66666666666663</ele><time>2026-03-27T14:03:50Z</time></trkpt><trkpt lat="45.71366063643687" lon="9.682925576731542"><ele>277.0</ele><time>2026-03-27T14:03:51Z</time></trkpt><trkpt lat="45.71368208566055" lon="9.682836708899655"><ele>276.3333333333333</ele><time>2026-03-27T14:03:52Z</time></trkpt><trkpt lat="45.7137259033408" lon="9.682666498613578"><ele>275.66666666666663</ele><time>2026-03-27T14:03:54Z</time></trkpt><trkpt lat="45.71374629211734" lon="9.682581107327149"><ele>275.0</ele><time>2026-03-27T14:03:55Z</time></trkpt><trkpt lat="45.71376884012248" lon="9.682495898982765"><ele>274.3333333333333</ele><time>2026-03-27T14:03:56Z</time></trkpt><trkpt lat="45.71379261016346" lon="9.682406292900746"><ele>273.6666666666667</ele><time>2026-03-27T14:03:57Z</time></trkpt><trkpt lat="45.71382545198098" lon="9.682229289544146"><ele>273.0</ele><time>2026-03-27T14:03:59Z</time></trkpt><trkpt lat="45.713860276887345" lon="9.682057737040344"><ele>273.0</ele><time>2026-03-27T14:04:01Z</time></trkpt><trkpt lat="45.7138779585475" lon="9.681967338923808"><ele>273.0</ele><time>2026-03-27T14:04:02Z</time></trkpt><trkpt lat="45.71389268845058" lon="9.681878256240006"><ele>273.0</ele><time>2026-03-27T14:04:03Z</time></trkpt><trkpt lat="45.71391167847244" lon="9.681785057411625"><ele>273.0</ele><time>2026-03-27T14:04:04Z</time></trkpt><trkpt lat="45.713928646801854" lon="9.681691277290248"><ele>273.0</ele><time>2026-03-27T14:04:05Z</time></trkpt><trkpt lat="45.7139449188917" lon="9.681600086046398"><ele>273.0</ele><time>2026-03-27T14:04:06Z</time></trkpt><trkpt lat="45.71396125550653" lon="9.681502908465557"><ele>273.0</ele><time>2026-03-27T14:04:07Z</time></trkpt><trkpt lat="45.713979877839066" lon="9.681409247878127"><ele>272.7142857142857</ele><time>2026-03-27T14:04:08Z</time></trkpt><trkpt lat="45.713996674749836" lon="9.681316158338722"><ele>272.42857142857144</ele><time>2026-03-27T14:04:09Z</time></trkpt><trkpt lat="45.71401349271948" lon="9.68120894435366"><ele>272.1428571428571</ele><time>2026-03-27T14:04:10Z</time></trkpt><trkpt lat="45.714036257269" lon="9.681120452607217"><ele>271.8571428571429</ele><time>2026-03-27T14:04:11Z</time></trkpt><trkpt lat="45.71405210537121" lon="9.681012936987363"><ele>271.57142857142856</ele><time>2026-03-27T14:04:12Z</time></trkpt><trkpt lat="45.71407330930395" lon="9.680907032383484"><ele>271.2857142857143</ele><time>2026-03-27T14:04:13Z</time></trkpt><trkpt lat="45.71409215531963" lon="9.680805722120889"><ele>271.0</ele><time>2026-03-27T14:04:14Z</time></trkpt><trkpt lat="45.71411133800512" lon="9.680695480756514"><ele>271.0</ele><time>2026-03-27T14:04:15Z</time></trkpt><trkpt lat="45.71413133227538" lon="9.680589494636015"><ele>271.0</ele><time>2026-03-27T14:04:16Z</time></trkpt><trkpt lat="45.71414888929269" lon="9.68048850654363"><ele>271.0</ele><time>2026-03-27T14:04:17Z</time></trkpt><trkpt lat="45.71417224891393" lon="9.680377326715991"><ele>271.0</ele><time>2026-03-27T14:04:18Z</time></trkpt><trkpt lat="45.71419337741136" lon="9.680278678095402"><ele>271.0</ele><time>2026-03-27T14:04:19Z</time></trkpt><trkpt lat="45.71421554277443" lon="9.680182513801908"><ele>271.0</ele><time>2026-03-27T14:04:20Z</time></trkpt><trkpt lat="45.71422945812816" lon="9.680078495553941"><ele>271.0</ele><time>2026-03-27T14:04:21Z</time></trkpt><trkpt lat="45.71424791816096" lon="9.679989131270558"><ele>271.2</ele><time>2026-03-27T14:04:22Z</time></trkpt><trkpt lat="45.71426092913715" lon="9.67989848305644"><ele>271.40000000000003</ele><time>2026-03-27T14:04:23Z</time></trkpt><trkpt lat="45.71427490126629" lon="9.679807942102581"><ele>271.6</ele><time>2026-03-27T14:04:24Z</time></trkpt><trkpt lat="45.71430980783668" lon="9.67962981089863"><ele>271.8</ele><time>2026-03-27T14:04:26Z</time></trkpt><trkpt lat="45.71433290422733" lon="9.679540795331276"><ele>272.0</ele><time>2026-03-27T14:04:27Z</time></trkpt><trkpt lat="45.71436381292314" lon="9.679359324129571"><ele>272.1666666666667</ele><time>2026-03-27T14:04:29Z</time></trkpt><trkpt lat="45.71439070917765" lon="9.679179875307428"><ele>272.33333333333337</ele><time>2026-03-27T14:04:31Z</time></trkpt><trkpt lat="45.71440956227432" lon="9.679088352631092"><ele>272.5</ele><time>2026-03-27T14:04:32Z</time></trkpt><trkpt lat="45.71443413508858" lon="9.679004077720068"><ele>272.6666666666667</ele><time>2026-03-27T14:04:33Z</time></trkpt><trkpt lat="45.71445237510363" lon="9.67891089540303"><ele>272.8333333333333</ele><time>2026-03-27T14:04:34Z</time></trkpt><trkpt lat="45.71446988083127" lon="9.678822519351696"><ele>273.0</ele><time>2026-03-27T14:04:35Z</time></trkpt><trkpt lat="45.7144877366358" lon="9.678733526236035"><ele>273.0</ele><time>2026-03-27T14:04:36Z</time></trkpt><trkpt lat="45.71450718621269" lon="9.678643194007691"><ele>273.0</ele><time>2026-03-27T14:04:37Z</time></trkpt><trkpt lat="45.71454053021992" lon="9.678469131049482"><ele>273.0</ele><time>2026-03-27T14:04:39Z</time></trkpt><trkpt lat="45.714553617499966" lon="9.678375085730012"><ele>273.0</ele><time>2026-03-27T14:04:40Z</time></trkpt><trkpt lat="45.71457326237853" lon="9.678287790354478"><ele>273.0</ele><time>2026-03-27T14:04:41Z</time></trkpt><trkpt lat="45.714588518250004" lon="9.67819615051092"><ele>273.0</ele><time>2026-03-27T14:04:42Z</time></trkpt><trkpt lat="45.71460797790769" lon="9.678107462553603"><ele>273.0</ele><time>2026-03-27T14:04:43Z</time></trkpt><trkpt lat="45.71462315813567" lon="9.678016727262623"><ele>273.0</ele><time>2026-03-27T14:04:44Z</time></trkpt><trkpt lat="45.71465978588089" lon="9.677844238286267"><ele>273.0</ele><time>2026-03-27T14:04:46Z</time></trkpt><trkpt lat="45.714689106065315" lon="9.677669823979816"><ele>273.0</ele><time>2026-03-27T14:04:48Z</time></trkpt><trkpt lat="45.71472575040087" lon="9.677494106044666"><ele>273.0</ele><time>2026-03-27T14:04:50Z</time></trkpt><trkpt lat="45.714754940831334" lon="9.677319759673292"><ele>273.0</ele><time>2026-03-27T14:04:52Z</time></trkpt><trkpt lat="45.714773539732256" lon="9.677232540665415"><ele>273.0</ele><time>2026-03-27T14:04:53Z</time></trkpt><trkpt lat="45.71479093875694" lon="9.67714490428027"><ele>273.0</ele><time>2026-03-27T14:04:54Z</time></trkpt><trkpt lat="45.71480885524714" lon="9.677056833370115"><ele>273.0</ele><time>2026-03-27T14:04:55Z</time></trkpt><trkpt lat="45.71484269721271" lon="9.676879216050217"><ele>273.0</ele><time>2026-03-27T14:04:57Z</time></trkpt><trkpt lat="45.71487888869297" lon="9.676705053864415"><ele>273.0</ele><time>2026-03-27T14:04:59Z</time></trkpt><trkpt lat="45.71489321730469" lon="9.676615182130679"><ele>273.0</ele><time>2026-03-27T14:05:00Z</time></trkpt><trkpt lat="45.71490743769245" lon="9.676527015591411"><ele>273.0</ele><time>2026-03-27T14:05:01Z</time></trkpt><trkpt lat="45.71492778268024" lon="9.676435913884948"><ele>273.0</ele><time>2026-03-27T14:05:02Z</time></trkpt><trkpt lat="45.71493996106034" lon="9.676347136047438"><ele>273.0</ele><time>2026-03-27T14:05:03Z</time></trkpt><trkpt lat="45.714964348693115" lon="9.676263841637779"><ele>273.0</ele><time>2026-03-27T14:05:04Z</time></trkpt><trkpt lat="45.71497708871669" lon="9.676170370820566"><ele>273.0</ele><time>2026-03-27T14:05:05Z</time></trkpt><trkpt lat="45.71499186755674" lon="9.676081978345998"><ele>273.0</ele><time>2026-03-27T14:05:06Z</time></trkpt><trkpt lat="45.715010077838514" lon="9.6759922684609"><ele>272.8333333333333</ele><time>2026-03-27T14:05:07Z</time></trkpt><trkpt lat="45.71502984981045" lon="9.675899167565078"><ele>272.6666666666667</ele><time>2026-03-27T14:05:08Z</time></trkpt><trkpt lat="45.715064495906084" lon="9.675718661073432"><ele>272.5</ele><time>2026-03-27T14:05:10Z</time></trkpt><trkpt lat="45.7150809614853" lon="9.675629198795395"><ele>272.33333333333337</ele><time>2026-03-27T14:05:11Z</time></trkpt><trkpt lat="45.71509689858025" lon="9.675540187386648"><ele>272.1666666666667</ele><time>2026-03-27T14:05:12Z</time></trkpt><trkpt lat="45.715114872779566" lon="9.675442050331634"><ele>272.0</ele><time>2026-03-27T14:05:13Z</time></trkpt><trkpt lat="45.715135161065476" lon="9.675355075623374"><ele>271.99999999999994</ele><time>2026-03-27T14:05:14Z</time></trkpt><trkpt lat="45.7151516537517" lon="9.675266577027974"><ele>272.0</ele><time>2026-03-27T14:05:15Z</time></trkpt><trkpt lat="45.71517427921041" lon="9.675167190835994"><ele>272.0</ele><time>2026-03-27T14:05:16Z</time></trkpt><trkpt lat="45.71519152721306" lon="9.675075048808633"><ele>272.0</ele><time>2026-03-27T14:05:17Z</time></trkpt><trkpt lat="45.71521392743498" lon="9.674986725670685"><ele>272.0</ele><time>2026-03-27T14:05:18Z</time></trkpt><trkpt lat="45.71523679042007" lon="9.67489162329929"><ele>271.99999999999994</ele><time>2026-03-27T14:05:19Z</time></trkpt><trkpt lat="45.71526009814842" lon="9.674803222221081"><ele>272.0</ele><time>2026-03-27T14:05:20Z</time></trkpt><trkpt lat="45.7152849607421" lon="9.674712234733732"><ele>272.4285714285714</ele><time>2026-03-27T14:05:21Z</time></trkpt><trkpt lat="45.71531418374692" lon="9.674621746644679"><ele>272.85714285714283</ele><time>2026-03-27T14:05:22Z</time></trkpt><trkpt lat="45.71533628232275" lon="9.674529776570555"><ele>273.2857142857143</ele><time>2026-03-27T14:05:23Z</time></trkpt><trkpt lat="45.71536325305787" lon="9.674434058824788"><ele>273.71428571428567</ele><time>2026-03-27T14:05:24Z</time></trkpt><trkpt lat="45.71539485072885" lon="9.674341506609895"><ele>274.1428571428571</ele><time>2026-03-27T14:05:25Z</time></trkpt><trkpt lat="45.715424580363006" lon="9.67424247452632"><ele>274.57142857142856</ele><time>2026-03-27T14:05:26Z</time></trkpt><trkpt lat="45.71545629161281" lon="9.674149862927116"><ele>275.0</ele><time>2026-03-27T14:05:27Z</time></trkpt><trkpt lat="45.71548907136422" lon="9.674056001198801"><ele>275.0</ele><time>2026-03-27T14:05:28Z</time></trkpt><trkpt lat="45.715519753246824" lon="9.673954548454613"><ele>275.0</ele><time>2026-03-27T14:05:29Z</time></trkpt><trkpt lat="45.71555481262058" lon="9.673862327606159"><ele>275.0</ele><time>2026-03-27T14:05:30Z</time></trkpt><trkpt lat="45.71558424799628" lon="9.673762677067892"><ele>275.0</ele><time>2026-03-27T14:05:31Z</time></trkpt><trkpt lat="45.715612827237784" lon="9.673667873838218"><ele>275.0</ele><time>2026-03-27T14:05:32Z</time></trkpt><trkpt lat="45.71564647234454" lon="9.673575013897317"><ele>275.0</ele><time>2026-03-27T14:05:33Z</time></trkpt><trkpt lat="45.715681158980644" lon="9.673487060094743"><ele>275.0</ele><time>2026-03-27T14:05:34Z</time></trkpt><trkpt lat="45.71570826302712" lon="9.673390838380158"><ele>274.6</ele><time>2026-03-27T14:05:35Z</time></trkpt><trkpt lat="45.71575908189182" lon="9.673218105386283"><ele>274.2</ele><time>2026-03-27T14:05:37Z</time></trkpt><trkpt lat="45.715793446567496" lon="9.673130503928542"><ele>273.8</ele><time>2026-03-27T14:05:38Z</time></trkpt><trkpt lat="45.71583137616324" lon="9.672948754224093"><ele>273.4</ele><time>2026-03-27T14:05:40Z</time></trkpt><trkpt lat="45.715839153508874" lon="9.672843745271543"><ele>273.0</ele><time>2026-03-27T14:05:41Z</time></trkpt><trkpt lat="45.71590407476278" lon="9.672702304625146"><ele>273.0</ele><time>2026-03-27T14:05:43Z</time></trkpt><trkpt lat="45.71593115578787" lon="9.672618063328462"><ele>273.0</ele><time>2026-03-27T14:05:44Z</time></trkpt><trkpt lat="45.71596217793487" lon="9.672537954801365"><ele>273.0</ele><time>2026-03-27T14:05:45Z</time></trkpt><trkpt lat="45.71599335265812" lon="9.67245719277952"><ele>273.0</ele><time>2026-03-27T14:05:46Z</time></trkpt><trkpt lat="45.71602115665284" lon="9.672373109421361"><ele>273.0</ele><time>2026-03-27T14:05:47Z</time></trkpt><trkpt lat="45.71604458348496" lon="9.67228933643733"><ele>273.0</ele><time>2026-03-27T14:05:48Z</time></trkpt><trkpt lat="45.71606849165135" lon="9.672204206143109"><ele>273.0</ele><time>2026-03-27T14:05:49Z</time></trkpt><trkpt lat="45.7160919236833" lon="9.672118740901457"><ele>273.0</ele><time>2026-03-27T14:05:50Z</time></trkpt><trkpt lat="45.71611642280663" lon="9.672033396355141"><ele>273.42857142857144</ele><time>2026-03-27T14:05:51Z</time></trkpt><trkpt lat="45.716143672972876" lon="9.671948657897232"><ele>273.8571428571429</ele><time>2026-03-27T14:05:52Z</time></trkpt><trkpt lat="45.7161665441494" lon="9.671864551219075"><ele>274.2857142857143</ele><time>2026-03-27T14:05:53Z</time></trkpt><trkpt lat="45.7161906906228" lon="9.671780533920211"><ele>274.7142857142857</ele><time>2026-03-27T14:05:54Z</time></trkpt><trkpt lat="45.71622419264639" lon="9.671701380585226"><ele>275.14285714285717</ele><time>2026-03-27T14:05:55Z</time></trkpt><trkpt lat="45.7162558040272" lon="9.67161863345466"><ele>275.57142857142856</ele><time>2026-03-27T14:05:56Z</time></trkpt><trkpt lat="45.71628257715317" lon="9.671531747602815"><ele>276.0</ele><time>2026-03-27T14:05:57Z</time></trkpt><trkpt lat="45.716304233548115" lon="9.671442901690149"><ele>276.1666666666667</ele><time>2026-03-27T14:05:58Z</time></trkpt><trkpt lat="45.71632472759131" lon="9.67135550044394"><ele>276.3333333333333</ele><time>2026-03-27T14:05:59Z</time></trkpt><trkpt lat="45.71636653664862" lon="9.671183886077097"><ele>276.5</ele><time>2026-03-27T14:06:01Z</time></trkpt><trkpt lat="45.716385108813014" lon="9.671092900932077"><ele>276.66666666666663</ele><time>2026-03-27T14:06:02Z</time></trkpt><trkpt lat="45.71640295881474" lon="9.671004402623366"><ele>276.8333333333333</ele><time>2026-03-27T14:06:03Z</time></trkpt><trkpt lat="45.71642116906573" lon="9.670912206586213"><ele>277.0</ele><time>2026-03-27T14:06:04Z</time></trkpt><trkpt lat="45.71643987338368" lon="9.67082534123462"><ele>277.16666666666663</ele><time>2026-03-27T14:06:05Z</time></trkpt><trkpt lat="45.71647920237655" lon="9.670654127467849"><ele>277.3333333333333</ele><time>2026-03-27T14:06:07Z</time></trkpt><trkpt lat="45.71651427344897" lon="9.670481674381163"><ele>277.5</ele><time>2026-03-27T14:06:09Z</time></trkpt><trkpt lat="45.71653342548842" lon="9.670394998637546"><ele>277.6666666666667</ele><time>2026-03-27T14:06:10Z</time></trkpt><trkpt lat="45.71655333114471" lon="9.670307613071234"><ele>277.83333333333337</ele><time>2026-03-27T14:06:11Z</time></trkpt><trkpt lat="45.716571372712714" lon="9.67022038701721"><ele>278.0</ele><time>2026-03-27T14:06:12Z</time></trkpt><trkpt lat="45.716601525838364" lon="9.67004904811291"><ele>278.0</ele><time>2026-03-27T14:06:14Z</time></trkpt><trkpt lat="45.71663558271379" lon="9.669877687253685"><ele>278.0</ele><time>2026-03-27T14:06:16Z</time></trkpt><trkpt lat="45.7166734910633" lon="9.669712600303805"><ele>278.0</ele><time>2026-03-27T14:06:18Z</time></trkpt><trkpt lat="45.71670848103816" lon="9.669547737559427"><ele>278.0</ele><time>2026-03-27T14:06:20Z</time></trkpt><trkpt lat="45.71674737468845" lon="9.669383686249876"><ele>278.0</ele><time>2026-03-27T14:06:22Z</time></trkpt><trkpt lat="45.716793689874585" lon="9.66921879841071"><ele>278.0</ele><time>2026-03-27T14:06:24Z</time></trkpt><trkpt lat="45.716837709914444" lon="9.669060265470062"><ele>278.0</ele><time>2026-03-27T14:06:26Z</time></trkpt><trkpt lat="45.716862863961715" lon="9.668974443392207"><ele>278.0</ele><time>2026-03-27T14:06:27Z</time></trkpt><trkpt lat="45.71691435770489" lon="9.668818239305985"><ele>278.0</ele><time>2026-03-27T14:06:29Z</time></trkpt><trkpt lat="45.7169711477719" lon="9.668655117680608"><ele>278.5</ele><time>2026-03-27T14:06:31Z</time></trkpt><trkpt lat="45.71699292907553" lon="9.668569886218176"><ele>279.0</ele><time>2026-03-27T14:06:32Z</time></trkpt><trkpt lat="45.71704929618898" lon="9.668411081550103"><ele>279.5</ele><time>2026-03-27T14:06:34Z</time></trkpt><trkpt lat="45.71710370997368" lon="9.668246967208988"><ele>280.0</ele><time>2026-03-27T14:06:36Z</time></trkpt><trkpt lat="45.71713356710469" lon="9.66816665903783"><ele>280.5</ele><time>2026-03-27T14:06:37Z</time></trkpt><trkpt lat="45.71715373218875" lon="9.668075012676043"><ele>281.0</ele><time>2026-03-27T14:06:38Z</time></trkpt><trkpt lat="45.7171888548734" lon="9.667902383956644"><ele>281.00000000000006</ele><time>2026-03-27T14:06:40Z</time></trkpt><trkpt lat="45.71723314178659" lon="9.667833408183366"><ele>281.0</ele><time>2026-03-27T14:06:41Z</time></trkpt><trkpt lat="45.71726982066441" lon="9.667753831132078"><ele>281.0</ele><time>2026-03-27T14:06:42Z</time></trkpt><trkpt lat="45.71730042629785" lon="9.667666596099895"><ele>281.0</ele><time>2026-03-27T14:06:43Z</time></trkpt><trkpt lat="45.717327874227685" lon="9.667580543359989"><ele>281.0</ele><time>2026-03-27T14:06:44Z</time></trkpt><trkpt lat="45.71735602692418" lon="9.667495563116645"><ele>281.00000000000006</ele><time>2026-03-27T14:06:45Z</time></trkpt><trkpt lat="45.71738964340932" lon="9.66741165746338"><ele>281.0</ele><time>2026-03-27T14:06:46Z</time></trkpt><trkpt lat="45.717422731319395" lon="9.667327191327558"><ele>281.00000000000006</ele><time>2026-03-27T14:06:47Z</time></trkpt><trkpt lat="45.717450074701475" lon="9.667240247442235"><ele>281.0</ele><time>2026-03-27T14:06:48Z</time></trkpt><trkpt lat="45.71748428012673" lon="9.667155497399142"><ele>281.0</ele><time>2026-03-27T14:06:49Z</time></trkpt><trkpt lat="45.717508900499396" lon="9.66706740600894"><ele>281.0</ele><time>2026-03-27T14:06:50Z</time></trkpt><trkpt lat="45.717544797891534" lon="9.666981432310095"><ele>281.0</ele><time>2026-03-27T14:06:51Z</time></trkpt><trkpt lat="45.71756840518059" lon="9.666896159943006"><ele>281.00000000000006</ele><time>2026-03-27T14:06:52Z</time></trkpt><trkpt lat="45.71759362036679" lon="9.666805237949138"><ele>281.0</ele><time>2026-03-27T14:06:53Z</time></trkpt><trkpt lat="45.717626088205414" lon="9.66672088448582"><ele>281.00000000000006</ele><time>2026-03-27T14:06:54Z</time></trkpt><trkpt lat="45.717653158002726" lon="9.666637055564925"><ele>281.0</ele><time>2026-03-27T14:06:55Z</time></trkpt><trkpt lat="45.71768158579851" lon="9.666554482502711"><ele>281.0</ele><time>2026-03-27T14:06:56Z</time></trkpt><trkpt lat="45.717711297553585" lon="9.666471791704893"><ele>281.0</ele><time>2026-03-27T14:06:57Z</time></trkpt><trkpt lat="45.717738514182244" lon="9.66638965506582"><ele>281.0</ele><time>2026-03-27T14:06:58Z</time></trkpt><trkpt lat="45.71776799282854" lon="9.6663094802287"><ele>281.00000000000006</ele><time>2026-03-27T14:06:59Z</time></trkpt><trkpt lat="45.71782276417152" lon="9.666143498489399"><ele>281.0</ele><time>2026-03-27T14:07:01Z</time></trkpt><trkpt lat="45.717852563756665" lon="9.666059185376378"><ele>281.14285714285717</ele><time>2026-03-27T14:07:02Z</time></trkpt><trkpt lat="45.7178795503211" lon="9.66597663198313"><ele>281.2857142857143</ele><time>2026-03-27T14:07:03Z</time></trkpt><trkpt lat="45.7179037599969" lon="9.665889238281427"><ele>281.42857142857144</ele><time>2026-03-27T14:07:04Z</time></trkpt><trkpt lat="45.71793212118346" lon="9.665807159611038"><ele>281.57142857142856</ele><time>2026-03-27T14:07:05Z</time></trkpt><trkpt lat="45.717962152134895" lon="9.66572444209996"><ele>281.7142857142857</ele><time>2026-03-27T14:07:06Z</time></trkpt><trkpt lat="45.717988216167065" lon="9.66564177230746"><ele>281.8571428571429</ele><time>2026-03-27T14:07:07Z</time></trkpt><trkpt lat="45.71801617552107" lon="9.665559722152505"><ele>282.0</ele><time>2026-03-27T14:07:08Z</time></trkpt><trkpt lat="45.71804541492906" lon="9.665477771281182"><ele>282.0</ele><time>2026-03-27T14:07:09Z</time></trkpt><trkpt lat="45.71807298482937" lon="9.665392772531654"><ele>282.0</ele><time>2026-03-27T14:07:10Z</time></trkpt><trkpt lat="45.718124545882866" lon="9.66522943295391"><ele>282.0</ele><time>2026-03-27T14:07:12Z</time></trkpt><trkpt lat="45.718156450546104" lon="9.665140818998161"><ele>282.0</ele><time>2026-03-27T14:07:13Z</time></trkpt><trkpt lat="45.718181753940556" lon="9.665055686165653"><ele>282.0</ele><time>2026-03-27T14:07:14Z</time></trkpt><trkpt lat="45.718212313701066" lon="9.66496941002246"><ele>282.0</ele><time>2026-03-27T14:07:15Z</time></trkpt><trkpt lat="45.71824283562957" lon="9.66488090468148"><ele>282.2857142857143</ele><time>2026-03-27T14:07:16Z</time></trkpt><trkpt lat="45.71827267406339" lon="9.664791818825094"><ele>282.57142857142856</ele><time>2026-03-27T14:07:17Z</time></trkpt><trkpt lat="45.718299380980625" lon="9.664702479485776"><ele>282.85714285714283</ele><time>2026-03-27T14:07:18Z</time></trkpt><trkpt lat="45.71833036709522" lon="9.664612275794994"><ele>283.1428571428571</ele><time>2026-03-27T14:07:19Z</time></trkpt><trkpt lat="45.71835984130829" lon="9.664522021012894"><ele>283.4285714285714</ele><time>2026-03-27T14:07:20Z</time></trkpt><trkpt lat="45.71839035460438" lon="9.664428042083422"><ele>283.7142857142857</ele><time>2026-03-27T14:07:21Z</time></trkpt><trkpt lat="45.71842446206799" lon="9.664336747320792"><ele>284.0</ele><time>2026-03-27T14:07:22Z</time></trkpt><trkpt lat="45.718453725546155" lon="9.664245578038312"><ele>284.2857142857143</ele><time>2026-03-27T14:07:23Z</time></trkpt><trkpt lat="45.71848545999551" lon="9.664153836799569"><ele>284.57142857142856</ele><time>2026-03-27T14:07:24Z</time></trkpt><trkpt lat="45.718514643279555" lon="9.664066267207128"><ele>284.85714285714283</ele><time>2026-03-27T14:07:25Z</time></trkpt><trkpt lat="45.71854684876613" lon="9.66398862290573"><ele>285.1428571428571</ele><time>2026-03-27T14:07:26Z</time></trkpt><trkpt lat="45.71858569323415" lon="9.663908852077613"><ele>285.42857142857144</ele><time>2026-03-27T14:07:27Z</time></trkpt><trkpt lat="45.71862787501289" lon="9.663834065674703"><ele>285.71428571428567</ele><time>2026-03-27T14:07:28Z</time></trkpt><trkpt lat="45.7186767396512" lon="9.663772498695876"><ele>286.0</ele><time>2026-03-27T14:07:29Z</time></trkpt><trkpt lat="45.71871827865641" lon="9.66370193526299"><ele>286.16666666666663</ele><time>2026-03-27T14:07:30Z</time></trkpt><trkpt lat="45.71874945675604" lon="9.663613505716086"><ele>286.3333333333333</ele><time>2026-03-27T14:07:31Z</time></trkpt><trkpt lat="45.71875408508032" lon="9.663502696219313"><ele>286.5</ele><time>2026-03-27T14:07:32Z</time></trkpt><trkpt lat="45.71875213800312" lon="9.663387344243258"><ele>286.6666666666667</ele><time>2026-03-27T14:07:33Z</time></trkpt><trkpt lat="45.71873878353931" lon="9.663257938980415"><ele>286.83333333333337</ele><time>2026-03-27T14:07:34Z</time></trkpt><trkpt lat="45.71874932745415" lon="9.663160020375855"><ele>287.0</ele><time>2026-03-27T14:07:35Z</time></trkpt><trkpt lat="45.71880091424837" lon="9.663039280509185"><ele>287.0</ele><time>2026-03-27T14:07:37Z</time></trkpt><trkpt lat="45.718854712127545" lon="9.662884594658415"><ele>287.0</ele><time>2026-03-27T14:07:39Z</time></trkpt><trkpt lat="45.7188816829309" lon="9.662715895207768"><ele>287.0</ele><time>2026-03-27T14:07:41Z</time></trkpt><trkpt lat="45.718909184580326" lon="9.662546216124179"><ele>287.0</ele><time>2026-03-27T14:07:43Z</time></trkpt><trkpt lat="45.71894227566779" lon="9.662374754195572"><ele>287.2</ele><time>2026-03-27T14:07:45Z</time></trkpt><trkpt lat="45.71897289988588" lon="9.662220082424799"><ele>287.4</ele><time>2026-03-27T14:07:47Z</time></trkpt><trkpt lat="45.71898025483562" lon="9.66206227362556"><ele>287.6</ele><time>2026-03-27T14:07:49Z</time></trkpt><trkpt lat="45.71895891567275" lon="9.661934554052399"><ele>287.8</ele><time>2026-03-27T14:07:51Z</time></trkpt><trkpt lat="45.71898260381137" lon="9.661760921305701"><ele>288.0</ele><time>2026-03-27T14:07:53Z</time></trkpt><trkpt lat="45.71900651851853" lon="9.661672947570631"><ele>288.1666666666667</ele><time>2026-03-27T14:07:54Z</time></trkpt><trkpt lat="45.71903080602351" lon="9.66158891589412"><ele>288.3333333333333</ele><time>2026-03-27T14:07:55Z</time></trkpt><trkpt lat="45.71906670162302" lon="9.661421407427213"><ele>288.5</ele><time>2026-03-27T14:07:57Z</time></trkpt><trkpt lat="45.71912067935506" lon="9.661263967363908"><ele>288.66666666666663</ele><time>2026-03-27T14:07:59Z</time></trkpt><trkpt lat="45.719156422314136" lon="9.66118845586467"><ele>288.8333333333333</ele><time>2026-03-27T14:08:00Z</time></trkpt><trkpt lat="45.719197924195804" lon="9.661119651526603"><ele>289.0</ele><time>2026-03-27T14:08:01Z</time></trkpt><trkpt lat="45.71923976718343" lon="9.66105149478034"><ele>289.3333333333333</ele><time>2026-03-27T14:08:02Z</time></trkpt><trkpt lat="45.71932344554205" lon="9.660921631459347"><ele>289.66666666666663</ele><time>2026-03-27T14:08:04Z</time></trkpt><trkpt lat="45.7193673646262" lon="9.660852090957967"><ele>290.0</ele><time>2026-03-27T14:08:05Z</time></trkpt><trkpt lat="45.71945256038056" lon="9.660721619888445"><ele>290.3333333333333</ele><time>2026-03-27T14:08:07Z</time></trkpt><trkpt lat="45.71950253849408" lon="9.66066620611571"><ele>290.6666666666667</ele><time>2026-03-27T14:08:08Z</time></trkpt><trkpt lat="45.71955056957685" lon="9.660607497559234"><ele>291.0</ele><time>2026-03-27T14:08:09Z</time></trkpt><trkpt lat="45.71960011035344" lon="9.660551811293706"><ele>291.0</ele><time>2026-03-27T14:08:10Z</time></trkpt><trkpt lat="45.71965052915182" lon="9.660494525889993"><ele>291.0</ele><time>2026-03-27T14:08:11Z</time></trkpt><trkpt lat="45.71975345536497" lon="9.660383771575217"><ele>291.0</ele><time>2026-03-27T14:08:13Z</time></trkpt><trkpt lat="45.71980036788392" lon="9.660322658638918"><ele>291.0</ele><time>2026-03-27T14:08:14Z</time></trkpt><trkpt lat="45.71984738017867" lon="9.660260556280814"><ele>291.0</ele><time>2026-03-27T14:08:15Z</time></trkpt><trkpt lat="45.719892355068794" lon="9.660197191863178"><ele>291.0</ele><time>2026-03-27T14:08:16Z</time></trkpt><trkpt lat="45.7199405375719" lon="9.660135613438879"><ele>291.0</ele><time>2026-03-27T14:08:17Z</time></trkpt><trkpt lat="45.71998796123214" lon="9.660072402976699"><ele>291.0</ele><time>2026-03-27T14:08:18Z</time></trkpt><trkpt lat="45.720084234928706" lon="9.659957808491583"><ele>291.0</ele><time>2026-03-27T14:08:20Z</time></trkpt><trkpt lat="45.72012829106203" lon="9.659893188232946"><ele>291.0</ele><time>2026-03-27T14:08:21Z</time></trkpt><trkpt lat="45.72017611700923" lon="9.659834267148474"><ele>291.0</ele><time>2026-03-27T14:08:22Z</time></trkpt><trkpt lat="45.72026859971174" lon="9.659714628169569"><ele>291.0</ele><time>2026-03-27T14:08:24Z</time></trkpt><trkpt lat="45.72031486478834" lon="9.659650597052732"><ele>291.0</ele><time>2026-03-27T14:08:25Z</time></trkpt><trkpt lat="45.72036383613602" lon="9.659587956823579"><ele>291.40000000000003</ele><time>2026-03-27T14:08:26Z</time></trkpt><trkpt lat="45.72045337353457" lon="9.659464948379336"><ele>291.8</ele><time>2026-03-27T14:08:28Z</time></trkpt><trkpt lat="45.72050015019337" lon="9.659402122304312"><ele>292.20000000000005</ele><time>2026-03-27T14:08:29Z</time></trkpt><trkpt lat="45.7205930387598" lon="9.659280672600211"><ele>292.6</ele><time>2026-03-27T14:08:31Z</time></trkpt><trkpt lat="45.72068661462151" lon="9.659157847816214"><ele>293.0</ele><time>2026-03-27T14:08:33Z</time></trkpt><trkpt lat="45.72077484356793" lon="9.659030849796201"><ele>293.2</ele><time>2026-03-27T14:08:35Z</time></trkpt><trkpt lat="45.72081984788694" lon="9.658965810376998"><ele>293.4</ele><time>2026-03-27T14:08:36Z</time></trkpt><trkpt lat="45.72090955705653" lon="9.658840040490762"><ele>293.59999999999997</ele><time>2026-03-27T14:08:38Z</time></trkpt><trkpt lat="45.72099946135972" lon="9.658714730946937"><ele>293.8</ele><time>2026-03-27T14:08:40Z</time></trkpt><trkpt lat="45.72110251277508" lon="9.658622061781339"><ele>294.0</ele><time>2026-03-27T14:08:42Z</time></trkpt><trkpt lat="45.72121420451724" lon="9.658539258861627"><ele>294.25</ele><time>2026-03-27T14:08:44Z</time></trkpt><trkpt lat="45.721286803269194" lon="9.658391782739388"><ele>294.5</ele><time>2026-03-27T14:08:46Z</time></trkpt><trkpt lat="45.721326400140285" lon="9.658313342743162"><ele>294.75</ele><time>2026-03-27T14:08:47Z</time></trkpt><trkpt lat="45.72142239484168" lon="9.65818801958562"><ele>295.0</ele><time>2026-03-27T14:08:49Z</time></trkpt><trkpt lat="45.72152376439685" lon="9.658078757614714"><ele>295.0</ele><time>2026-03-27T14:08:51Z</time></trkpt><trkpt lat="45.721616822284965" lon="9.657948997500034"><ele>295.0</ele><time>2026-03-27T14:08:53Z</time></trkpt><trkpt lat="45.721702124009894" lon="9.657811118295216"><ele>295.0</ele><time>2026-03-27T14:08:55Z</time></trkpt><trkpt lat="45.721744090547546" lon="9.65774310045859"><ele>295.0</ele><time>2026-03-27T14:08:56Z</time></trkpt><trkpt lat="45.721782944566705" lon="9.657666715521767"><ele>295.0</ele><time>2026-03-27T14:08:57Z</time></trkpt><trkpt lat="45.721861718755754" lon="9.657510959179648"><ele>295.16666666666663</ele><time>2026-03-27T14:08:59Z</time></trkpt><trkpt lat="45.721928466643455" lon="9.657362898894323"><ele>295.3333333333333</ele><time>2026-03-27T14:09:01Z</time></trkpt><trkpt lat="45.721966188741504" lon="9.657288248025557"><ele>295.5</ele><time>2026-03-27T14:09:02Z</time></trkpt><trkpt lat="45.7219999578975" lon="9.657209424583785"><ele>295.6666666666667</ele><time>2026-03-27T14:09:03Z</time></trkpt><trkpt lat="45.72204047196947" lon="9.657135543415936"><ele>295.83333333333337</ele><time>2026-03-27T14:09:04Z</time></trkpt><trkpt lat="45.72210786105038" lon="9.656979380972126"><ele>296.0</ele><time>2026-03-27T14:09:06Z</time></trkpt><trkpt lat="45.72217725509507" lon="9.656828298706483"><ele>295.5</ele><time>2026-03-27T14:09:08Z</time></trkpt><trkpt lat="45.722213674996546" lon="9.656753688011833"><ele>295.0</ele><time>2026-03-27T14:09:09Z</time></trkpt><trkpt lat="45.722253815812486" lon="9.656675729184235"><ele>294.5</ele><time>2026-03-27T14:09:10Z</time></trkpt><trkpt lat="45.7223225056274" lon="9.656525440011771"><ele>294.0</ele><time>2026-03-27T14:09:12Z</time></trkpt><trkpt lat="45.72235945195919" lon="9.65644917387696"><ele>293.5</ele><time>2026-03-27T14:09:13Z</time></trkpt><trkpt lat="45.72239568117456" lon="9.656373914578745"><ele>293.0</ele><time>2026-03-27T14:09:14Z</time></trkpt><trkpt lat="45.722432111034884" lon="9.6562967228451"><ele>293.0</ele><time>2026-03-27T14:09:15Z</time></trkpt><trkpt lat="45.72250294325224" lon="9.656143696269414"><ele>293.0</ele><time>2026-03-27T14:09:17Z</time></trkpt><trkpt lat="45.72256804546541" lon="9.65599206606373"><ele>293.0</ele><time>2026-03-27T14:09:19Z</time></trkpt><trkpt lat="45.72264354039114" lon="9.655844595683714"><ele>293.0</ele><time>2026-03-27T14:09:21Z</time></trkpt><trkpt lat="45.72267573673407" lon="9.655766268435407"><ele>293.0</ele><time>2026-03-27T14:09:22Z</time></trkpt><trkpt lat="45.72271240096253" lon="9.655692303280794"><ele>293.1666666666667</ele><time>2026-03-27T14:09:23Z</time></trkpt><trkpt lat="45.722785785893755" lon="9.655552756907763"><ele>293.33333333333337</ele><time>2026-03-27T14:09:25Z</time></trkpt><trkpt lat="45.72281294199331" lon="9.655466725460577"><ele>293.5</ele><time>2026-03-27T14:09:26Z</time></trkpt><trkpt lat="45.72284492950385" lon="9.65538805785789"><ele>293.6666666666667</ele><time>2026-03-27T14:09:27Z</time></trkpt><trkpt lat="45.72290893512679" lon="9.655244225764635"><ele>293.8333333333333</ele><time>2026-03-27T14:09:29Z</time></trkpt><trkpt lat="45.72294969069596" lon="9.65517135708266"><ele>294.0</ele><time>2026-03-27T14:09:30Z</time></trkpt><trkpt lat="45.723025934073824" lon="9.65503331560643"><ele>294.8</ele><time>2026-03-27T14:09:32Z</time></trkpt><trkpt lat="45.72305441187724" lon="9.654951364257162"><ele>295.59999999999997</ele><time>2026-03-27T14:09:33Z</time></trkpt><trkpt lat="45.72309780924247" lon="9.654880746761407"><ele>296.4</ele><time>2026-03-27T14:09:34Z</time></trkpt><trkpt lat="45.72316025864638" lon="9.654728148741947"><ele>297.2</ele><time>2026-03-27T14:09:36Z</time></trkpt><trkpt lat="45.723227897926115" lon="9.65457711637185"><ele>298.0</ele><time>2026-03-27T14:09:38Z</time></trkpt><trkpt lat="45.72330095553215" lon="9.654435618862935"><ele>298.0</ele><time>2026-03-27T14:09:40Z</time></trkpt><trkpt lat="45.72336966421992" lon="9.65428823031599"><ele>298.0</ele><time>2026-03-27T14:09:42Z</time></trkpt><trkpt lat="45.72343938574731" lon="9.654141730602664"><ele>298.0</ele><time>2026-03-27T14:09:44Z</time></trkpt><trkpt lat="45.72350646365574" lon="9.653995882661416"><ele>298.0</ele><time>2026-03-27T14:09:46Z</time></trkpt><trkpt lat="45.72357441633014" lon="9.65384671634262"><ele>297.75</ele><time>2026-03-27T14:09:48Z</time></trkpt><trkpt lat="45.72364542006134" lon="9.65370513394529"><ele>297.5</ele><time>2026-03-27T14:09:50Z</time></trkpt><trkpt lat="45.72371085971039" lon="9.653558543821257"><ele>297.25</ele><time>2026-03-27T14:09:52Z</time></trkpt><trkpt lat="45.72378164793632" lon="9.653413823039875"><ele>297.0</ele><time>2026-03-27T14:09:54Z</time></trkpt><trkpt lat="45.723849234323616" lon="9.653262082936983"><ele>297.6</ele><time>2026-03-27T14:09:56Z</time></trkpt><trkpt lat="45.72391786270797" lon="9.653116649131412"><ele>298.2</ele><time>2026-03-27T14:09:58Z</time></trkpt><trkpt lat="45.723956853693934" lon="9.653043444289093"><ele>298.8</ele><time>2026-03-27T14:09:59Z</time></trkpt><trkpt lat="45.72403412201955" lon="9.652907080951971"><ele>299.4</ele><time>2026-03-27T14:10:01Z</time></trkpt><trkpt lat="45.724096158034705" lon="9.652771872748131"><ele>300.0</ele><time>2026-03-27T14:10:03Z</time></trkpt><trkpt lat="45.72417060820133" lon="9.652724139486894"><ele>300.4</ele><time>2026-03-27T14:10:04Z</time></trkpt><trkpt lat="45.724223548527384" lon="9.652673411640816"><ele>300.8</ele><time>2026-03-27T14:10:05Z</time></trkpt><trkpt lat="45.72432967786687" lon="9.652583991141283"><ele>301.2</ele><time>2026-03-27T14:10:07Z</time></trkpt><trkpt lat="45.72443936444121" lon="9.65249832775421"><ele>301.6</ele><time>2026-03-27T14:10:09Z</time></trkpt><trkpt lat="45.724554565522574" lon="9.652426702393301"><ele>302.0</ele><time>2026-03-27T14:10:11Z</time></trkpt><trkpt lat="45.72466968873446" lon="9.652358481935098"><ele>303.0</ele><time>2026-03-27T14:10:13Z</time></trkpt><trkpt lat="45.7247819315807" lon="9.652287150394539"><ele>304.0</ele><time>2026-03-27T14:10:15Z</time></trkpt><trkpt lat="45.72489279416458" lon="9.652219708952572"><ele>305.0</ele><time>2026-03-27T14:10:17Z</time></trkpt><trkpt lat="45.725007339509695" lon="9.652165232121229"><ele>306.0</ele><time>2026-03-27T14:10:19Z</time></trkpt><trkpt lat="45.72512510544341" lon="9.652112676500261"><ele>306.0</ele><time>2026-03-27T14:10:21Z</time></trkpt><trkpt lat="45.72518768658576" lon="9.65208186509034"><ele>306.0</ele><time>2026-03-27T14:10:22Z</time></trkpt><trkpt lat="45.72524792258637" lon="9.652052321333914"><ele>306.0</ele><time>2026-03-27T14:10:23Z</time></trkpt><trkpt lat="45.725359141496604" lon="9.651981381210982"><ele>306.0</ele><time>2026-03-27T14:10:25Z</time></trkpt><trkpt lat="45.7254739325344" lon="9.651922904454299"><ele>306.0</ele><time>2026-03-27T14:10:27Z</time></trkpt><trkpt lat="45.725586589203736" lon="9.65185910520308"><ele>306.6</ele><time>2026-03-27T14:10:29Z</time></trkpt><trkpt lat="45.725701357899226" lon="9.651801597068513"><ele>307.20000000000005</ele><time>2026-03-27T14:10:31Z</time></trkpt><trkpt lat="45.72581620432699" lon="9.651745513245675"><ele>307.79999999999995</ele><time>2026-03-27T14:10:33Z</time></trkpt><trkpt lat="45.72587515130825" lon="9.651712572567197"><ele>308.4</ele><time>2026-03-27T14:10:34Z</time></trkpt><trkpt lat="45.72598658221967" lon="9.651653510424989"><ele>309.0</ele><time>2026-03-27T14:10:36Z</time></trkpt><trkpt lat="45.726101008534066" lon="9.651594786114714"><ele>310.0</ele><time>2026-03-27T14:10:38Z</time></trkpt><trkpt lat="45.72621789772465" lon="9.651534690381094"><ele>311.0</ele><time>2026-03-27T14:10:40Z</time></trkpt><trkpt lat="45.726330066655095" lon="9.651470321178696"><ele>312.0</ele><time>2026-03-27T14:10:42Z</time></trkpt><trkpt lat="45.726445117879756" lon="9.651413537406833"><ele>313.0</ele><time>2026-03-27T14:10:44Z</time></trkpt><trkpt lat="45.726559816687704" lon="9.651356350548228"><ele>313.0</ele><time>2026-03-27T14:10:46Z</time></trkpt><trkpt lat="45.72666998051712" lon="9.651298928836798"><ele>313.0</ele><time>2026-03-27T14:10:48Z</time></trkpt><trkpt lat="45.72672958454326" lon="9.651267500080754"><ele>313.0</ele><time>2026-03-27T14:10:49Z</time></trkpt><trkpt lat="45.7268399323231" lon="9.651207565024308"><ele>313.0</ele><time>2026-03-27T14:10:51Z</time></trkpt><trkpt lat="45.726898637057296" lon="9.651174838906448"><ele>313.0</ele><time>2026-03-27T14:10:52Z</time></trkpt><trkpt lat="45.727012631343584" lon="9.651113261017226"><ele>314.2</ele><time>2026-03-27T14:10:54Z</time></trkpt><trkpt lat="45.727132117860634" lon="9.65105371160619"><ele>315.4</ele><time>2026-03-27T14:10:56Z</time></trkpt><trkpt lat="45.72724545974902" lon="9.650991458993875"><ele>316.59999999999997</ele><time>2026-03-27T14:10:58Z</time></trkpt><trkpt lat="45.7273067644614" lon="9.650965415718312"><ele>317.8</ele><time>2026-03-27T14:10:59Z</time></trkpt><trkpt lat="45.72742401007734" lon="9.650901886441218"><ele>319.0</ele><time>2026-03-27T14:11:01Z</time></trkpt><trkpt lat="45.72748365303044" lon="9.650866705781986"><ele>319.0</ele><time>2026-03-27T14:11:02Z</time></trkpt><trkpt lat="45.72754645547614" lon="9.650832313951986"><ele>319.0</ele><time>2026-03-27T14:11:03Z</time></trkpt><trkpt lat="45.727605365731186" lon="9.650797885643641"><ele>319.0</ele><time>2026-03-27T14:11:04Z</time></trkpt><trkpt lat="45.72766601786224" lon="9.650760535259607"><ele>319.0</ele><time>2026-03-27T14:11:05Z</time></trkpt><trkpt lat="45.72772440293935" lon="9.650722116542873"><ele>319.0</ele><time>2026-03-27T14:11:06Z</time></trkpt><trkpt lat="45.72778377303266" lon="9.650678951419435"><ele>319.0</ele><time>2026-03-27T14:11:07Z</time></trkpt><trkpt lat="45.72783986169861" lon="9.650633968409588"><ele>319.0</ele><time>2026-03-27T14:11:08Z</time></trkpt><trkpt lat="45.72789564285455" lon="9.650590143721015"><ele>318.42857142857144</ele><time>2026-03-27T14:11:09Z</time></trkpt><trkpt lat="45.72794914956199" lon="9.650536147519421"><ele>317.85714285714283</ele><time>2026-03-27T14:11:10Z</time></trkpt><trkpt lat="45.728003513565994" lon="9.650486856547536"><ele>317.2857142857143</ele><time>2026-03-27T14:11:11Z</time></trkpt><trkpt lat="45.72805303043943" lon="9.650423575602211"><ele>316.7142857142857</ele><time>2026-03-27T14:11:12Z</time></trkpt><trkpt lat="45.72810403634557" lon="9.65036686602876"><ele>316.1428571428571</ele><time>2026-03-27T14:11:13Z</time></trkpt><trkpt lat="45.72815312120742" lon="9.650306190460816"><ele>315.57142857142856</ele><time>2026-03-27T14:11:14Z</time></trkpt><trkpt lat="45.72820082411827" lon="9.650244000733984"><ele>315.0</ele><time>2026-03-27T14:11:15Z</time></trkpt><trkpt lat="45.728245988874114" lon="9.650178812079133"><ele>314.85714285714283</ele><time>2026-03-27T14:11:16Z</time></trkpt><trkpt lat="45.72829383772819" lon="9.650115051883681"><ele>314.7142857142857</ele><time>2026-03-27T14:11:17Z</time></trkpt><trkpt lat="45.728330890573424" lon="9.650041389164056"><ele>314.57142857142856</ele><time>2026-03-27T14:11:18Z</time></trkpt><trkpt lat="45.72836962410414" lon="9.649960546797136"><ele>314.42857142857144</ele><time>2026-03-27T14:11:19Z</time></trkpt><trkpt lat="45.728408150361155" lon="9.649882831607995"><ele>314.2857142857143</ele><time>2026-03-27T14:11:20Z</time></trkpt><trkpt lat="45.72844666135835" lon="9.649797479361682"><ele>314.1428571428571</ele><time>2026-03-27T14:11:21Z</time></trkpt><trkpt lat="45.7284880962935" lon="9.649720378651907"><ele>314.0</ele><time>2026-03-27T14:11:22Z</time></trkpt><trkpt lat="45.72853360555555" lon="9.649641833356345"><ele>314.0</ele><time>2026-03-27T14:11:23Z</time></trkpt><trkpt lat="45.72857546704415" lon="9.649565512862015"><ele>314.0</ele><time>2026-03-27T14:11:24Z</time></trkpt><trkpt lat="45.72861687757935" lon="9.649482798131363"><ele>314.0</ele><time>2026-03-27T14:11:25Z</time></trkpt><trkpt lat="45.728661637323725" lon="9.649411730152982"><ele>314.0</ele><time>2026-03-27T14:11:26Z</time></trkpt><trkpt lat="45.728703313407635" lon="9.649338069838956"><ele>314.0</ele><time>2026-03-27T14:11:27Z</time></trkpt><trkpt lat="45.72879671385285" lon="9.64924343411691"><ele>314.0</ele><time>2026-03-27T14:11:29Z</time></trkpt><trkpt lat="45.7288813336188" lon="9.649136393669464"><ele>313.6666666666667</ele><time>2026-03-27T14:11:31Z</time></trkpt><trkpt lat="45.7289112332372" lon="9.649048910801907"><ele>313.33333333333337</ele><time>2026-03-27T14:11:32Z</time></trkpt><trkpt lat="45.728984702447804" lon="9.648893021754505"><ele>313.0</ele><time>2026-03-27T14:11:34Z</time></trkpt><trkpt lat="45.72903008565001" lon="9.64881751647275"><ele>312.6666666666667</ele><time>2026-03-27T14:11:35Z</time></trkpt><trkpt lat="45.7290758463778" lon="9.648747603249321"><ele>312.3333333333333</ele><time>2026-03-27T14:11:36Z</time></trkpt><trkpt lat="45.72912019195871" lon="9.64867390302148"><ele>312.0</ele><time>2026-03-27T14:11:37Z</time></trkpt><trkpt lat="45.72916471186458" lon="9.64859770682539"><ele>312.0</ele><time>2026-03-27T14:11:38Z</time></trkpt><trkpt lat="45.72920658586545" lon="9.648517762663763"><ele>312.0</ele><time>2026-03-27T14:11:39Z</time></trkpt><trkpt lat="45.72924987612525" lon="9.648443325643417"><ele>312.0</ele><time>2026-03-27T14:11:40Z</time></trkpt><trkpt lat="45.729294337899745" lon="9.648368374860015"><ele>312.0</ele><time>2026-03-27T14:11:41Z</time></trkpt><trkpt lat="45.7293384466801" lon="9.648288081258771"><ele>312.0</ele><time>2026-03-27T14:11:42Z</time></trkpt><trkpt lat="45.72938354166215" lon="9.6482078218064"><ele>312.0</ele><time>2026-03-27T14:11:43Z</time></trkpt><trkpt lat="45.72942998772391" lon="9.648127930916402"><ele>312.0</ele><time>2026-03-27T14:11:44Z</time></trkpt><trkpt lat="45.72947377649627" lon="9.64804701765437"><ele>312.0</ele><time>2026-03-27T14:11:45Z</time></trkpt><trkpt lat="45.729519512928974" lon="9.647964591693418"><ele>312.0</ele><time>2026-03-27T14:11:46Z</time></trkpt><trkpt lat="45.729565100330106" lon="9.647881882044203"><ele>312.0</ele><time>2026-03-27T14:11:47Z</time></trkpt><trkpt lat="45.729611026603955" lon="9.64780262728757"><ele>312.0</ele><time>2026-03-27T14:11:48Z</time></trkpt><trkpt lat="45.72965639033435" lon="9.647721659128244"><ele>312.0</ele><time>2026-03-27T14:11:49Z</time></trkpt><trkpt lat="45.729702336052775" lon="9.647644692683519"><ele>312.0</ele><time>2026-03-27T14:11:50Z</time></trkpt><trkpt lat="45.729746966688204" lon="9.647561768915006"><ele>312.0</ele><time>2026-03-27T14:11:51Z</time></trkpt><trkpt lat="45.729789254899416" lon="9.647482089122235"><ele>311.2857142857143</ele><time>2026-03-27T14:11:52Z</time></trkpt><trkpt lat="45.72983294801978" lon="9.647402158392914"><ele>310.57142857142856</ele><time>2026-03-27T14:11:53Z</time></trkpt><trkpt lat="45.72987837339742" lon="9.64732457061023"><ele>309.85714285714283</ele><time>2026-03-27T14:11:54Z</time></trkpt><trkpt lat="45.72992550644093" lon="9.647249726107752"><ele>309.1428571428571</ele><time>2026-03-27T14:11:55Z</time></trkpt><trkpt lat="45.729972071217176" lon="9.647173169165315"><ele>308.42857142857144</ele><time>2026-03-27T14:11:56Z</time></trkpt><trkpt lat="45.730016462182626" lon="9.647094809051895"><ele>307.71428571428567</ele><time>2026-03-27T14:11:57Z</time></trkpt><trkpt lat="45.73006102532729" lon="9.647010739990654"><ele>307.0</ele><time>2026-03-27T14:11:58Z</time></trkpt><trkpt lat="45.73010401913425" lon="9.646928070961781"><ele>306.4285714285714</ele><time>2026-03-27T14:11:59Z</time></trkpt><trkpt lat="45.73014926871436" lon="9.64684863973306"><ele>305.85714285714283</ele><time>2026-03-27T14:12:00Z</time></trkpt><trkpt lat="45.73019280577385" lon="9.646767846814262"><ele>305.2857142857143</ele><time>2026-03-27T14:12:01Z</time></trkpt><trkpt lat="45.73023740677293" lon="9.646689879307031"><ele>304.71428571428567</ele><time>2026-03-27T14:12:02Z</time></trkpt><trkpt lat="45.730283767397786" lon="9.646609594670803"><ele>304.1428571428571</ele><time>2026-03-27T14:12:03Z</time></trkpt><trkpt lat="45.73032919454517" lon="9.64653329140293"><ele>303.57142857142856</ele><time>2026-03-27T14:12:04Z</time></trkpt><trkpt lat="45.73037334767879" lon="9.646453456777344"><ele>303.0</ele><time>2026-03-27T14:12:05Z</time></trkpt><trkpt lat="45.730417043289215" lon="9.646374519644153"><ele>302.8571428571429</ele><time>2026-03-27T14:12:06Z</time></trkpt><trkpt lat="45.73045974336464" lon="9.646293822517254"><ele>302.7142857142857</ele><time>2026-03-27T14:12:07Z</time></trkpt><trkpt lat="45.73050221434558" lon="9.646218101971852"><ele>302.57142857142856</ele><time>2026-03-27T14:12:08Z</time></trkpt><trkpt lat="45.73054290199757" lon="9.64614441760041"><ele>302.42857142857144</ele><time>2026-03-27T14:12:09Z</time></trkpt><trkpt lat="45.730586274995616" lon="9.646069616511918"><ele>302.2857142857143</ele><time>2026-03-27T14:12:10Z</time></trkpt><trkpt lat="45.73062578278279" lon="9.645997179968363"><ele>302.14285714285717</ele><time>2026-03-27T14:12:11Z</time></trkpt><trkpt lat="45.730668198363865" lon="9.645922614093589"><ele>302.0</ele><time>2026-03-27T14:12:12Z</time></trkpt><trkpt lat="45.730747216323444" lon="9.645785199740283"><ele>301.83333333333337</ele><time>2026-03-27T14:12:14Z</time></trkpt><trkpt lat="45.730814902853886" lon="9.64564051973006"><ele>301.6666666666667</ele><time>2026-03-27T14:12:16Z</time></trkpt><trkpt lat="45.730873035427436" lon="9.645484012938496"><ele>301.5</ele><time>2026-03-27T14:12:18Z</time></trkpt><trkpt lat="45.730920841584926" lon="9.6454180248709"><ele>301.3333333333333</ele><time>2026-03-27T14:12:19Z</time></trkpt><trkpt lat="45.7309713356424" lon="9.645360092708076"><ele>301.16666666666663</ele><time>2026-03-27T14:12:20Z</time></trkpt><trkpt lat="45.7310163597515" lon="9.64529278030181"><ele>301.0</ele><time>2026-03-27T14:12:21Z</time></trkpt><trkpt lat="45.73106171110332" lon="9.645220569130128"><ele>301.0</ele><time>2026-03-27T14:12:22Z</time></trkpt><trkpt lat="45.73114218942074" lon="9.645079029241767"><ele>301.0</ele><time>2026-03-27T14:12:24Z</time></trkpt><trkpt lat="45.73118159206325" lon="9.645006292127055"><ele>301.0</ele><time>2026-03-27T14:12:25Z</time></trkpt><trkpt lat="45.73126183145471" lon="9.64486784030647"><ele>301.0</ele><time>2026-03-27T14:12:27Z</time></trkpt><trkpt lat="45.73134345269997" lon="9.644728674920957"><ele>301.0</ele><time>2026-03-27T14:12:29Z</time></trkpt><trkpt lat="45.731420365671134" lon="9.644587676157993"><ele>301.0</ele><time>2026-03-27T14:12:31Z</time></trkpt><trkpt lat="45.73146036385169" lon="9.644516066625595"><ele>301.0</ele><time>2026-03-27T14:12:32Z</time></trkpt><trkpt lat="45.73150029494671" lon="9.64444305457643"><ele>301.0</ele><time>2026-03-27T14:12:33Z</time></trkpt><trkpt lat="45.731535339552146" lon="9.64436811205694"><ele>301.0</ele><time>2026-03-27T14:12:34Z</time></trkpt><trkpt lat="45.731573394686755" lon="9.644293061902628"><ele>301.0</ele><time>2026-03-27T14:12:35Z</time></trkpt><trkpt lat="45.73160998820796" lon="9.64421699757115"><ele>301.0</ele><time>2026-03-27T14:12:36Z</time></trkpt><trkpt lat="45.7316796321949" lon="9.644061227916199"><ele>301.0</ele><time>2026-03-27T14:12:38Z</time></trkpt><trkpt lat="45.73174432593658" lon="9.643902942333076"><ele>301.0</ele><time>2026-03-27T14:12:40Z</time></trkpt><trkpt lat="45.73176994094637" lon="9.643816264457795"><ele>301.0</ele><time>2026-03-27T14:12:41Z</time></trkpt><trkpt lat="45.73182201047474" lon="9.643645064686163"><ele>301.0</ele><time>2026-03-27T14:12:43Z</time></trkpt><trkpt lat="45.73186729697301" lon="9.64347550527546"><ele>301.8333333333333</ele><time>2026-03-27T14:12:45Z</time></trkpt><trkpt lat="45.731891797880756" lon="9.643382562205801"><ele>302.66666666666663</ele><time>2026-03-27T14:12:46Z</time></trkpt><trkpt lat="45.73191074721295" lon="9.643296524739332"><ele>303.5</ele><time>2026-03-27T14:12:47Z</time></trkpt><trkpt lat="45.73193381196417" lon="9.643206100509497"><ele>304.3333333333333</ele><time>2026-03-27T14:12:48Z</time></trkpt><trkpt lat="45.73197014154652" lon="9.643029892905977"><ele>305.1666666666667</ele><time>2026-03-27T14:12:50Z</time></trkpt><trkpt lat="45.73198425779327" lon="9.642938419285334"><ele>306.0</ele><time>2026-03-27T14:12:51Z</time></trkpt><trkpt lat="45.73199691230146" lon="9.642846337093017"><ele>306.0</ele><time>2026-03-27T14:12:52Z</time></trkpt><trkpt lat="45.73201151793101" lon="9.642754557747528"><ele>306.0</ele><time>2026-03-27T14:12:53Z</time></trkpt><trkpt lat="45.73202554983179" lon="9.642663857873384"><ele>306.0</ele><time>2026-03-27T14:12:54Z</time></trkpt><trkpt lat="45.73203531750645" lon="9.642570361881036"><ele>306.0</ele><time>2026-03-27T14:12:55Z</time></trkpt><trkpt lat="45.73204464741545" lon="9.642478449763864"><ele>306.0</ele><time>2026-03-27T14:12:56Z</time></trkpt><trkpt lat="45.73205437703383" lon="9.64238650093745"><ele>306.0</ele><time>2026-03-27T14:12:57Z</time></trkpt><trkpt lat="45.73206024494027" lon="9.642292878945737"><ele>306.0</ele><time>2026-03-27T14:12:58Z</time></trkpt><trkpt lat="45.73206926187297" lon="9.642201689282398"><ele>306.0</ele><time>2026-03-27T14:12:59Z</time></trkpt><trkpt lat="45.73207137870529" lon="9.642107372591134"><ele>306.0</ele><time>2026-03-27T14:13:00Z</time></trkpt><trkpt lat="45.732092472843476" lon="9.642013996530412"><ele>306.0</ele><time>2026-03-27T14:13:01Z</time></trkpt><trkpt lat="45.73211971142779" lon="9.641928034924337"><ele>306.0</ele><time>2026-03-27T14:13:02Z</time></trkpt><trkpt lat="45.7321406555652" lon="9.641840132238823"><ele>306.0</ele><time>2026-03-27T14:13:03Z</time></trkpt><trkpt lat="45.73216035150325" lon="9.641747088736953"><ele>306.0</ele><time>2026-03-27T14:13:04Z</time></trkpt><trkpt lat="45.732174929445506" lon="9.641654361734625"><ele>306.0</ele><time>2026-03-27T14:13:05Z</time></trkpt><trkpt lat="45.73218629729919" lon="9.641562587866634"><ele>305.85714285714283</ele><time>2026-03-27T14:13:06Z</time></trkpt><trkpt lat="45.73220168082937" lon="9.641466369726038"><ele>305.7142857142857</ele><time>2026-03-27T14:13:07Z</time></trkpt><trkpt lat="45.73221491596626" lon="9.64137683912007"><ele>305.57142857142856</ele><time>2026-03-27T14:13:08Z</time></trkpt><trkpt lat="45.7322268784142" lon="9.641283158602622"><ele>305.42857142857144</ele><time>2026-03-27T14:13:09Z</time></trkpt><trkpt lat="45.732240452958486" lon="9.641190992189852"><ele>305.2857142857143</ele><time>2026-03-27T14:13:10Z</time></trkpt><trkpt lat="45.73225195771113" lon="9.641098133669953"><ele>305.14285714285717</ele><time>2026-03-27T14:13:11Z</time></trkpt><trkpt lat="45.7322672299703" lon="9.64101049929118"><ele>305.0</ele><time>2026-03-27T14:13:12Z</time></trkpt><trkpt lat="45.73228326146508" lon="9.64091694133013"><ele>304.6</ele><time>2026-03-27T14:13:13Z</time></trkpt><trkpt lat="45.732295771793254" lon="9.640825884332191"><ele>304.2</ele><time>2026-03-27T14:13:14Z</time></trkpt><trkpt lat="45.73230688423577" lon="9.640735930156993"><ele>303.8</ele><time>2026-03-27T14:13:15Z</time></trkpt><trkpt lat="45.73234020641284" lon="9.640567149415814"><ele>303.4</ele><time>2026-03-27T14:13:17Z</time></trkpt><trkpt lat="45.732361006420305" lon="9.640397070469396"><ele>303.0</ele><time>2026-03-27T14:13:19Z</time></trkpt><trkpt lat="45.73238893704072" lon="9.640241267867037"><ele>302.6</ele><time>2026-03-27T14:13:21Z</time></trkpt><trkpt lat="45.73241265709512" lon="9.640077863551237"><ele>302.20000000000005</ele><time>2026-03-27T14:13:23Z</time></trkpt><trkpt lat="45.7324372960993" lon="9.639921794967345"><ele>301.8</ele><time>2026-03-27T14:13:25Z</time></trkpt><trkpt lat="45.73244538488072" lon="9.63976280011456"><ele>301.40000000000003</ele><time>2026-03-27T14:13:27Z</time></trkpt><trkpt lat="45.73245903398305" lon="9.639672013431044"><ele>301.0</ele><time>2026-03-27T14:13:28Z</time></trkpt><trkpt lat="45.73248833311857" lon="9.639589324810427"><ele>301.0</ele><time>2026-03-27T14:13:29Z</time></trkpt><trkpt lat="45.73251329591266" lon="9.639501760148132"><ele>301.0</ele><time>2026-03-27T14:13:30Z</time></trkpt><trkpt lat="45.73253325461379" lon="9.639412178178768"><ele>301.0</ele><time>2026-03-27T14:13:31Z</time></trkpt><trkpt lat="45.732553834650275" lon="9.63932134814136"><ele>301.0</ele><time>2026-03-27T14:13:32Z</time></trkpt><trkpt lat="45.73257824313141" lon="9.639236597791509"><ele>301.0</ele><time>2026-03-27T14:13:33Z</time></trkpt><trkpt lat="45.73260348015091" lon="9.639148590207336"><ele>301.0</ele><time>2026-03-27T14:13:34Z</time></trkpt><trkpt lat="45.73261867154765" lon="9.639059481081594"><ele>301.0</ele><time>2026-03-27T14:13:35Z</time></trkpt><trkpt lat="45.73264049794712" lon="9.638969570621716"><ele>300.85714285714283</ele><time>2026-03-27T14:13:36Z</time></trkpt><trkpt lat="45.732665786702775" lon="9.638880144442357"><ele>300.7142857142857</ele><time>2026-03-27T14:13:37Z</time></trkpt><trkpt lat="45.732690166092034" lon="9.638792273115625"><ele>300.57142857142856</ele><time>2026-03-27T14:13:38Z</time></trkpt><trkpt lat="45.73271570170529" lon="9.638703895163964"><ele>300.42857142857144</ele><time>2026-03-27T14:13:39Z</time></trkpt><trkpt lat="45.732742229039395" lon="9.6386175111139"><ele>300.2857142857143</ele><time>2026-03-27T14:13:40Z</time></trkpt><trkpt lat="45.732767543454955" lon="9.638530608338794"><ele>300.1428571428571</ele><time>2026-03-27T14:13:41Z</time></trkpt><trkpt lat="45.732797136923445" lon="9.638441393230284"><ele>300.0</ele><time>2026-03-27T14:13:42Z</time></trkpt><trkpt lat="45.73282656527411" lon="9.63835468921865"><ele>299.85714285714283</ele><time>2026-03-27T14:13:43Z</time></trkpt><trkpt lat="45.73285605200625" lon="9.638265334276497"><ele>299.7142857142857</ele><time>2026-03-27T14:13:44Z</time></trkpt><trkpt lat="45.732886483084926" lon="9.638177374917149"><ele>299.57142857142856</ele><time>2026-03-27T14:13:45Z</time></trkpt><trkpt lat="45.73291646834991" lon="9.63808652196498"><ele>299.42857142857144</ele><time>2026-03-27T14:13:46Z</time></trkpt><trkpt lat="45.7329424831164" lon="9.637990860185733"><ele>299.2857142857143</ele><time>2026-03-27T14:13:47Z</time></trkpt><trkpt lat="45.732971751776944" lon="9.637905056111673"><ele>299.1428571428571</ele><time>2026-03-27T14:13:48Z</time></trkpt><trkpt lat="45.733004973507576" lon="9.637818651538137"><ele>299.0</ele><time>2026-03-27T14:13:49Z</time></trkpt><trkpt lat="45.733028914447736" lon="9.637731737384089"><ele>299.0</ele><time>2026-03-27T14:13:50Z</time></trkpt><trkpt lat="45.73305518839793" lon="9.637647081603545"><ele>299.0</ele><time>2026-03-27T14:13:51Z</time></trkpt><trkpt lat="45.733083976399385" lon="9.6375607577672"><ele>299.0</ele><time>2026-03-27T14:13:52Z</time></trkpt><trkpt lat="45.73311711080517" lon="9.637479894556538"><ele>299.0</ele><time>2026-03-27T14:13:53Z</time></trkpt><trkpt lat="45.73313843112761" lon="9.63739413941176"><ele>299.0</ele><time>2026-03-27T14:13:54Z</time></trkpt><trkpt lat="45.733188164181236" lon="9.637231309034492"><ele>299.0</ele><time>2026-03-27T14:13:56Z</time></trkpt><trkpt lat="45.73321193912718" lon="9.637142739135149"><ele>299.0</ele><time>2026-03-27T14:13:57Z</time></trkpt><trkpt lat="45.73323486368593" lon="9.63705815442579"><ele>299.0</ele><time>2026-03-27T14:13:58Z</time></trkpt><trkpt lat="45.73326116701486" lon="9.63697121221234"><ele>299.0</ele><time>2026-03-27T14:13:59Z</time></trkpt><trkpt lat="45.73330553086104" lon="9.636814539737545"><ele>299.0</ele><time>2026-03-27T14:14:01Z</time></trkpt><trkpt lat="45.73332243281678" lon="9.63672731182246"><ele>299.0</ele><time>2026-03-27T14:14:02Z</time></trkpt><trkpt lat="45.7333454651602" lon="9.636642988687976"><ele>299.0</ele><time>2026-03-27T14:14:03Z</time></trkpt><trkpt lat="45.73339749876233" lon="9.636482449352764"><ele>299.25</ele><time>2026-03-27T14:14:05Z</time></trkpt><trkpt lat="45.73345353361522" lon="9.636323779980065"><ele>299.5</ele><time>2026-03-27T14:14:07Z</time></trkpt><trkpt lat="45.733512009009225" lon="9.636167992764086"><ele>299.75</ele><time>2026-03-27T14:14:09Z</time></trkpt><trkpt lat="45.733563070495634" lon="9.63600870142392"><ele>300.0</ele><time>2026-03-27T14:14:11Z</time></trkpt><trkpt lat="45.73361758486437" lon="9.635846767500503"><ele>300.25</ele><time>2026-03-27T14:14:13Z</time></trkpt><trkpt lat="45.73366558502882" lon="9.63568333745211"><ele>300.5</ele><time>2026-03-27T14:14:15Z</time></trkpt><trkpt lat="45.733708590821166" lon="9.63552213843738"><ele>300.75</ele><time>2026-03-27T14:14:17Z</time></trkpt><trkpt lat="45.73375880744152" lon="9.63536394824301"><ele>301.0</ele><time>2026-03-27T14:14:19Z</time></trkpt><trkpt lat="45.733786234233705" lon="9.635189819491474"><ele>301.6</ele><time>2026-03-27T14:14:21Z</time></trkpt><trkpt lat="45.73378525518458" lon="9.635098732758475"><ele>302.20000000000005</ele><time>2026-03-27T14:14:22Z</time></trkpt><trkpt lat="45.733783029068825" lon="9.635007980412292"><ele>302.79999999999995</ele><time>2026-03-27T14:14:23Z</time></trkpt><trkpt lat="45.73378975510399" lon="9.634826420033388"><ele>303.4</ele><time>2026-03-27T14:14:25Z</time></trkpt><trkpt lat="45.7337880879435" lon="9.634648662439659"><ele>304.0</ele><time>2026-03-27T14:14:27Z</time></trkpt><trkpt lat="45.73378785324631" lon="9.634467402509747"><ele>304.2857142857143</ele><time>2026-03-27T14:14:29Z</time></trkpt><trkpt lat="45.733788774822195" lon="9.634294472066335"><ele>304.5714285714286</ele><time>2026-03-27T14:14:31Z</time></trkpt><trkpt lat="45.73379018380436" lon="9.634203406315494"><ele>304.8571428571429</ele><time>2026-03-27T14:14:32Z</time></trkpt><trkpt lat="45.73379025695196" lon="9.634107362243055"><ele>305.1428571428571</ele><time>2026-03-27T14:14:33Z</time></trkpt><trkpt lat="45.733787865049244" lon="9.634013560491038"><ele>305.42857142857144</ele><time>2026-03-27T14:14:34Z</time></trkpt><trkpt lat="45.733791248946204" lon="9.633917375924964"><ele>305.7142857142857</ele><time>2026-03-27T14:14:35Z</time></trkpt><trkpt lat="45.733794305068166" lon="9.633824464601114"><ele>306.0</ele><time>2026-03-27T14:14:36Z</time></trkpt><trkpt lat="45.73379756643125" lon="9.633730445011873"><ele>305.57142857142856</ele><time>2026-03-27T14:14:37Z</time></trkpt><trkpt lat="45.73380548694467" lon="9.633638620591539"><ele>305.14285714285717</ele><time>2026-03-27T14:14:38Z</time></trkpt><trkpt lat="45.73381549603918" lon="9.633548291421475"><ele>304.7142857142857</ele><time>2026-03-27T14:14:39Z</time></trkpt><trkpt lat="45.73382448761337" lon="9.63345761657235"><ele>304.2857142857143</ele><time>2026-03-27T14:14:40Z</time></trkpt><trkpt lat="45.73382472247531" lon="9.63335807823424"><ele>303.85714285714283</ele><time>2026-03-27T14:14:41Z</time></trkpt><trkpt lat="45.73382642189785" lon="9.633260588149607"><ele>303.42857142857144</ele><time>2026-03-27T14:14:42Z</time></trkpt><trkpt lat="45.733828625618855" lon="9.6331630794402"><ele>303.0</ele><time>2026-03-27T14:14:43Z</time></trkpt><trkpt lat="45.73383152690166" lon="9.633065787515264"><ele>303.0</ele><time>2026-03-27T14:14:44Z</time></trkpt><trkpt lat="45.73383400515546" lon="9.632968304379135"><ele>303.0</ele><time>2026-03-27T14:14:45Z</time></trkpt><trkpt lat="45.733839194246364" lon="9.632875455846715"><ele>303.0</ele><time>2026-03-27T14:14:46Z</time></trkpt><trkpt lat="45.73384083910167" lon="9.632774699630822"><ele>303.0</ele><time>2026-03-27T14:14:47Z</time></trkpt><trkpt lat="45.733838722407036" lon="9.632676372953313"><ele>303.0</ele><time>2026-03-27T14:14:48Z</time></trkpt><trkpt lat="45.7338393477648" lon="9.632577124571895"><ele>303.0</ele><time>2026-03-27T14:14:49Z</time></trkpt><trkpt lat="45.73383875836736" lon="9.632477092308438"><ele>303.0</ele><time>2026-03-27T14:14:50Z</time></trkpt><trkpt lat="45.73383941189525" lon="9.632380283965531"><ele>303.0</ele><time>2026-03-27T14:14:51Z</time></trkpt><trkpt lat="45.73384342038489" lon="9.63227941311696"><ele>303.0</ele><time>2026-03-27T14:14:52Z</time></trkpt><trkpt lat="45.733845702218346" lon="9.632179972605844"><ele>303.0</ele><time>2026-03-27T14:14:53Z</time></trkpt><trkpt lat="45.73384594121637" lon="9.632078848712585"><ele>303.0</ele><time>2026-03-27T14:14:54Z</time></trkpt><trkpt lat="45.73384266034709" lon="9.631981126040332"><ele>303.0</ele><time>2026-03-27T14:14:55Z</time></trkpt><trkpt lat="45.733841918462446" lon="9.631878971089861"><ele>303.0</ele><time>2026-03-27T14:14:56Z</time></trkpt><trkpt lat="45.7338416895816" lon="9.631782259849672"><ele>303.0</ele><time>2026-03-27T14:14:57Z</time></trkpt><trkpt lat="45.733839535768155" lon="9.631686327325923"><ele>303.0</ele><time>2026-03-27T14:14:58Z</time></trkpt><trkpt lat="45.73384122746606" lon="9.631590685634448"><ele>303.0</ele><time>2026-03-27T14:14:59Z</time></trkpt><trkpt lat="45.733847323261344" lon="9.63141275226195"><ele>303.0</ele><time>2026-03-27T14:15:01Z</time></trkpt><trkpt lat="45.73384265669375" lon="9.631322712931478"><ele>303.0</ele><time>2026-03-27T14:15:02Z</time></trkpt><trkpt lat="45.7338501308837" lon="9.63115493270539"><ele>303.0</ele><time>2026-03-27T14:15:04Z</time></trkpt><trkpt lat="45.733849126206266" lon="9.631010833932619"><ele>302.6666666666667</ele><time>2026-03-27T14:15:06Z</time></trkpt><trkpt lat="45.733852288129604" lon="9.630852963273256"><ele>302.3333333333333</ele><time>2026-03-27T14:15:08Z</time></trkpt><trkpt lat="45.73387291861192" lon="9.630763456383065"><ele>302.0</ele><time>2026-03-27T14:15:09Z</time></trkpt><trkpt lat="45.7339088262071" lon="9.630679294930037"><ele>301.66666666666663</ele><time>2026-03-27T14:15:10Z</time></trkpt><trkpt lat="45.73396593310913" lon="9.630513351304835"><ele>301.3333333333333</ele><time>2026-03-27T14:15:12Z</time></trkpt><trkpt lat="45.73399008149337" lon="9.630427283594733"><ele>301.0</ele><time>2026-03-27T14:15:13Z</time></trkpt><trkpt lat="45.73401642897042" lon="9.63034337395898"><ele>300.57142857142856</ele><time>2026-03-27T14:15:14Z</time></trkpt><trkpt lat="45.734044031810775" lon="9.630257599026045"><ele>300.1428571428571</ele><time>2026-03-27T14:15:15Z</time></trkpt><trkpt lat="45.734071466099515" lon="9.630170512527018"><ele>299.7142857142857</ele><time>2026-03-27T14:15:16Z</time></trkpt><trkpt lat="45.73409981088704" lon="9.630087232793889"><ele>299.2857142857143</ele><time>2026-03-27T14:15:17Z</time></trkpt><trkpt lat="45.73412642435102" lon="9.629999884036465"><ele>298.85714285714283</ele><time>2026-03-27T14:15:18Z</time></trkpt><trkpt lat="45.734150952394465" lon="9.629912604043948"><ele>298.42857142857144</ele><time>2026-03-27T14:15:19Z</time></trkpt><trkpt lat="45.734180256608205" lon="9.629825648488879"><ele>298.0</ele><time>2026-03-27T14:15:20Z</time></trkpt><trkpt lat="45.7342080694664" lon="9.62974098541416"><ele>298.0</ele><time>2026-03-27T14:15:21Z</time></trkpt><trkpt lat="45.734235235246985" lon="9.629654921581032"><ele>298.0</ele><time>2026-03-27T14:15:22Z</time></trkpt><trkpt lat="45.7342641955197" lon="9.629571381663132"><ele>298.0</ele><time>2026-03-27T14:15:23Z</time></trkpt><trkpt lat="45.7342915832768" lon="9.629485529233207"><ele>298.0</ele><time>2026-03-27T14:15:24Z</time></trkpt><trkpt lat="45.73431788653676" lon="9.629399610537856"><ele>298.0</ele><time>2026-03-27T14:15:25Z</time></trkpt><trkpt lat="45.73434520557872" lon="9.629313936087133"><ele>298.0</ele><time>2026-03-27T14:15:26Z</time></trkpt><trkpt lat="45.73437240273252" lon="9.629227274622094"><ele>298.0</ele><time>2026-03-27T14:15:27Z</time></trkpt><trkpt lat="45.7344016268463" lon="9.629141095802915"><ele>297.57142857142856</ele><time>2026-03-27T14:15:28Z</time></trkpt><trkpt lat="45.73443330639612" lon="9.629055927512763"><ele>297.1428571428571</ele><time>2026-03-27T14:15:29Z</time></trkpt><trkpt lat="45.734462981637094" lon="9.628969211313887"><ele>296.7142857142857</ele><time>2026-03-27T14:15:30Z</time></trkpt><trkpt lat="45.73449060712138" lon="9.628881268997894"><ele>296.2857142857143</ele><time>2026-03-27T14:15:31Z</time></trkpt><trkpt lat="45.73451957694567" lon="9.628795696835363"><ele>295.8571428571429</ele><time>2026-03-27T14:15:32Z</time></trkpt><trkpt lat="45.73454812989723" lon="9.628710956948403"><ele>295.42857142857144</ele><time>2026-03-27T14:15:33Z</time></trkpt><trkpt lat="45.73457470713796" lon="9.628626714764343"><ele>295.0</ele><time>2026-03-27T14:15:34Z</time></trkpt><trkpt lat="45.734599740504414" lon="9.628542486515025"><ele>294.5714285714286</ele><time>2026-03-27T14:15:35Z</time></trkpt><trkpt lat="45.73462704012775" lon="9.628457662860505"><ele>294.14285714285717</ele><time>2026-03-27T14:15:36Z</time></trkpt><trkpt lat="45.734651976645594" lon="9.628372118970434"><ele>293.7142857142857</ele><time>2026-03-27T14:15:37Z</time></trkpt><trkpt lat="45.734679715226946" lon="9.628288871526895"><ele>293.28571428571433</ele><time>2026-03-27T14:15:38Z</time></trkpt><trkpt lat="45.73470600753459" lon="9.628203618457473"><ele>292.8571428571429</ele><time>2026-03-27T14:15:39Z</time></trkpt><trkpt lat="45.73473350355058" lon="9.628119678051043"><ele>292.42857142857144</ele><time>2026-03-27T14:15:40Z</time></trkpt><trkpt lat="45.73476091862875" lon="9.62803780100456"><ele>292.0</ele><time>2026-03-27T14:15:41Z</time></trkpt><trkpt lat="45.73478706320446" lon="9.627955002814835"><ele>292.0</ele><time>2026-03-27T14:15:42Z</time></trkpt><trkpt lat="45.73481474049976" lon="9.62787388445572"><ele>292.0</ele><time>2026-03-27T14:15:43Z</time></trkpt><trkpt lat="45.73484017808474" lon="9.627785960767131"><ele>292.0</ele><time>2026-03-27T14:15:44Z</time></trkpt><trkpt lat="45.73489302829275" lon="9.627624155332104"><ele>292.0</ele><time>2026-03-27T14:15:46Z</time></trkpt><trkpt lat="45.73491802860918" lon="9.627538974787546"><ele>292.0</ele><time>2026-03-27T14:15:47Z</time></trkpt><trkpt lat="45.73496967090223" lon="9.627374332506934"><ele>292.0</ele><time>2026-03-27T14:15:49Z</time></trkpt><trkpt lat="45.735020997743746" lon="9.627208431526922"><ele>292.2</ele><time>2026-03-27T14:15:51Z</time></trkpt><trkpt lat="45.735070926786015" lon="9.627043478473338"><ele>292.4</ele><time>2026-03-27T14:15:53Z</time></trkpt><trkpt lat="45.73509929470107" lon="9.62696294114275"><ele>292.6</ele><time>2026-03-27T14:15:54Z</time></trkpt><trkpt lat="45.73512828244923" lon="9.626882679330546"><ele>292.8</ele><time>2026-03-27T14:15:55Z</time></trkpt><trkpt lat="45.73518458055181" lon="9.626722104580317"><ele>293.0</ele><time>2026-03-27T14:15:57Z</time></trkpt><trkpt lat="45.73523712163215" lon="9.6265601646921"><ele>294.6666666666667</ele><time>2026-03-27T14:15:59Z</time></trkpt><trkpt lat="45.73525804713218" lon="9.626474250080575"><ele>296.33333333333337</ele><time>2026-03-27T14:16:00Z</time></trkpt><trkpt lat="45.73530996117757" lon="9.626315238357755"><ele>298.0</ele><time>2026-03-27T14:16:02Z</time></trkpt><trkpt lat="45.73536216157901" lon="9.626156424053285"><ele>299.6666666666667</ele><time>2026-03-27T14:16:04Z</time></trkpt><trkpt lat="45.73539097376615" lon="9.62607249488249"><ele>301.3333333333333</ele><time>2026-03-27T14:16:05Z</time></trkpt><trkpt lat="45.73541796153741" lon="9.625990767581783"><ele>303.0</ele><time>2026-03-27T14:16:06Z</time></trkpt><trkpt lat="45.735475418706656" lon="9.625828797092353"><ele>303.0</ele><time>2026-03-27T14:16:08Z</time></trkpt><trkpt lat="45.735501379003516" lon="9.625746216002023"><ele>303.0</ele><time>2026-03-27T14:16:09Z</time></trkpt><trkpt lat="45.73555307882634" lon="9.625585618658981"><ele>303.0</ele><time>2026-03-27T14:16:11Z</time></trkpt><trkpt lat="45.735602425076344" lon="9.625426275795103"><ele>303.0</ele><time>2026-03-27T14:16:13Z</time></trkpt><trkpt lat="45.735654250079236" lon="9.625265337285397"><ele>303.0</ele><time>2026-03-27T14:16:15Z</time></trkpt><trkpt lat="45.73567888847681" lon="9.625179252901898"><ele>303.0</ele><time>2026-03-27T14:16:16Z</time></trkpt><trkpt lat="45.73572643590664" lon="9.625013290998439"><ele>303.0</ele><time>2026-03-27T14:16:18Z</time></trkpt><trkpt lat="45.73578356802223" lon="9.624852305132519"><ele>303.0</ele><time>2026-03-27T14:16:20Z</time></trkpt><trkpt lat="45.73581126418314" lon="9.62476953836104"><ele>303.0</ele><time>2026-03-27T14:16:21Z</time></trkpt><trkpt lat="45.73583814847721" lon="9.624686418739207"><ele>303.0</ele><time>2026-03-27T14:16:22Z</time></trkpt><trkpt lat="45.735868364893065" lon="9.624603740032308"><ele>303.0</ele><time>2026-03-27T14:16:23Z</time></trkpt><trkpt lat="45.73589934766791" lon="9.624520692411549"><ele>302.8571428571429</ele><time>2026-03-27T14:16:24Z</time></trkpt><trkpt lat="45.735938860489014" lon="9.624443503041004"><ele>302.7142857142857</ele><time>2026-03-27T14:16:25Z</time></trkpt><trkpt lat="45.7359595934545" lon="9.624350035249849"><ele>302.57142857142856</ele><time>2026-03-27T14:16:26Z</time></trkpt><trkpt lat="45.73600015396686" lon="9.624273460154381"><ele>302.42857142857144</ele><time>2026-03-27T14:16:27Z</time></trkpt><trkpt lat="45.73602460859691" lon="9.624181257651026"><ele>302.2857142857143</ele><time>2026-03-27T14:16:28Z</time></trkpt><trkpt lat="45.73606753563987" lon="9.624104866973916"><ele>302.14285714285717</ele><time>2026-03-27T14:16:29Z</time></trkpt><trkpt lat="45.73610308982413" lon="9.624026859221088"><ele>302.0</ele><time>2026-03-27T14:16:30Z</time></trkpt><trkpt lat="45.73614012219264" lon="9.623944977277125"><ele>302.0</ele><time>2026-03-27T14:16:31Z</time></trkpt><trkpt lat="45.73618040887896" lon="9.623865780223763"><ele>302.0</ele><time>2026-03-27T14:16:32Z</time></trkpt><trkpt lat="45.73622196598658" lon="9.623792465673365"><ele>302.0</ele><time>2026-03-27T14:16:33Z</time></trkpt><trkpt lat="45.73626581014011" lon="9.623721161551455"><ele>302.0</ele><time>2026-03-27T14:16:34Z</time></trkpt><trkpt lat="45.73631041738284" lon="9.623643325910653"><ele>302.0</ele><time>2026-03-27T14:16:35Z</time></trkpt><trkpt lat="45.73635424117604" lon="9.623571271694416"><ele>302.0</ele><time>2026-03-27T14:16:36Z</time></trkpt><trkpt lat="45.73645030641082" lon="9.62343585187124"><ele>302.0</ele><time>2026-03-27T14:16:38Z</time></trkpt><trkpt lat="45.73655688654578" lon="9.623324673885064"><ele>302.0</ele><time>2026-03-27T14:16:40Z</time></trkpt><trkpt lat="45.73660805170624" lon="9.623256459807417"><ele>302.0</ele><time>2026-03-27T14:16:41Z</time></trkpt><trkpt lat="45.73671152493992" lon="9.623146843709632"><ele>302.0</ele><time>2026-03-27T14:16:43Z</time></trkpt><trkpt lat="45.73681393192058" lon="9.623045347480367"><ele>301.4</ele><time>2026-03-27T14:16:45Z</time></trkpt><trkpt lat="45.736927284625445" lon="9.622955674258474"><ele>300.79999999999995</ele><time>2026-03-27T14:16:47Z</time></trkpt><trkpt lat="45.73698503908672" lon="9.622909367402599"><ele>300.2</ele><time>2026-03-27T14:16:48Z</time></trkpt><trkpt lat="45.737048882081424" lon="9.622863058124755"><ele>299.59999999999997</ele><time>2026-03-27T14:16:49Z</time></trkpt><trkpt lat="45.73716023871038" lon="9.62277978602407"><ele>299.0</ele><time>2026-03-27T14:16:51Z</time></trkpt><trkpt lat="45.73722021911022" lon="9.622735884919678"><ele>298.7142857142857</ele><time>2026-03-27T14:16:52Z</time></trkpt><trkpt lat="45.737277841416706" lon="9.622691940784657"><ele>298.42857142857144</ele><time>2026-03-27T14:16:53Z</time></trkpt><trkpt lat="45.737340388544865" lon="9.622650615655283"><ele>298.14285714285717</ele><time>2026-03-27T14:16:54Z</time></trkpt><trkpt lat="45.73739341199855" lon="9.62260169855401"><ele>297.8571428571429</ele><time>2026-03-27T14:16:55Z</time></trkpt><trkpt lat="45.7374539129137" lon="9.622553487604906"><ele>297.5714285714286</ele><time>2026-03-27T14:16:56Z</time></trkpt><trkpt lat="45.73751500805286" lon="9.62250913594696"><ele>297.2857142857143</ele><time>2026-03-27T14:16:57Z</time></trkpt><trkpt lat="45.73757387288825" lon="9.62245498415937"><ele>297.0</ele><time>2026-03-27T14:16:58Z</time></trkpt><trkpt lat="45.737695177681246" lon="9.622368276806842"><ele>296.8333333333333</ele><time>2026-03-27T14:17:00Z</time></trkpt><trkpt lat="45.73781035975536" lon="9.622285866940905"><ele>296.6666666666667</ele><time>2026-03-27T14:17:02Z</time></trkpt><trkpt lat="45.737872346178314" lon="9.622243343124973"><ele>296.5</ele><time>2026-03-27T14:17:03Z</time></trkpt><trkpt lat="45.7379282386447" lon="9.622198742792852"><ele>296.33333333333337</ele><time>2026-03-27T14:17:04Z</time></trkpt><trkpt lat="45.73799264499392" lon="9.622154217925376"><ele>296.1666666666667</ele><time>2026-03-27T14:17:05Z</time></trkpt><trkpt lat="45.73804865258795" lon="9.622110165100223"><ele>296.0</ele><time>2026-03-27T14:17:06Z</time></trkpt><trkpt lat="45.738110880522164" lon="9.622065852310048"><ele>296.0</ele><time>2026-03-27T14:17:07Z</time></trkpt><trkpt lat="45.73816661301589" lon="9.622018445372287"><ele>296.0</ele><time>2026-03-27T14:17:08Z</time></trkpt><trkpt lat="45.73823442944083" lon="9.621983822828058"><ele>296.0</ele><time>2026-03-27T14:17:09Z</time></trkpt><trkpt lat="45.73834654111555" lon="9.621884005747358"><ele>296.0</ele><time>2026-03-27T14:17:11Z</time></trkpt><trkpt lat="45.73840935037169" lon="9.621847457015544"><ele>296.0</ele><time>2026-03-27T14:17:12Z</time></trkpt><trkpt lat="45.738470570611575" lon="9.621797977547793"><ele>296.0</ele><time>2026-03-27T14:17:13Z</time></trkpt><trkpt lat="45.73852147864258" lon="9.621743941443993"><ele>296.1666666666667</ele><time>2026-03-27T14:17:14Z</time></trkpt><trkpt lat="45.738587544530226" lon="9.621707135536088"><ele>296.33333333333337</ele><time>2026-03-27T14:17:15Z</time></trkpt><trkpt lat="45.73864465353025" lon="9.621660095878934"><ele>296.5</ele><time>2026-03-27T14:17:16Z</time></trkpt><trkpt lat="45.7387059116572" lon="9.621620836791134"><ele>296.6666666666667</ele><time>2026-03-27T14:17:17Z</time></trkpt><trkpt lat="45.73876548703081" lon="9.621566758689989"><ele>296.8333333333333</ele><time>2026-03-27T14:17:18Z</time></trkpt><trkpt lat="45.73883153547918" lon="9.621513430895323"><ele>297.0</ele><time>2026-03-27T14:17:19Z</time></trkpt><trkpt lat="45.73894372737848" lon="9.621420836129653"><ele>297.0</ele><time>2026-03-27T14:17:21Z</time></trkpt><trkpt lat="45.739004469271" lon="9.62137903643567"><ele>297.0</ele><time>2026-03-27T14:17:22Z</time></trkpt><trkpt lat="45.739069509001254" lon="9.621341387330242"><ele>297.0</ele><time>2026-03-27T14:17:23Z</time></trkpt><trkpt lat="45.739127857097884" lon="9.621292052064154"><ele>297.0</ele><time>2026-03-27T14:17:24Z</time></trkpt><trkpt lat="45.73918894018724" lon="9.62125305251059"><ele>297.0</ele><time>2026-03-27T14:17:25Z</time></trkpt><trkpt lat="45.73924841679077" lon="9.621203608647827"><ele>297.0</ele><time>2026-03-27T14:17:26Z</time></trkpt><trkpt lat="45.73930882502428" lon="9.62116301404293"><ele>297.0</ele><time>2026-03-27T14:17:27Z</time></trkpt><trkpt lat="45.739369192658415" lon="9.621119508709125"><ele>297.0</ele><time>2026-03-27T14:17:28Z</time></trkpt><trkpt lat="45.73942625276152" lon="9.621070431004988"><ele>297.0</ele><time>2026-03-27T14:17:29Z</time></trkpt><trkpt lat="45.73948855654849" lon="9.62103066541984"><ele>297.0</ele><time>2026-03-27T14:17:30Z</time></trkpt><trkpt lat="45.739547355462136" lon="9.62098870502104"><ele>297.0</ele><time>2026-03-27T14:17:31Z</time></trkpt><trkpt lat="45.73960284600386" lon="9.620943120201611"><ele>297.0</ele><time>2026-03-27T14:17:32Z</time></trkpt><trkpt lat="45.73966514287451" lon="9.620906057063108"><ele>297.0</ele><time>2026-03-27T14:17:33Z</time></trkpt><trkpt lat="45.7397221792034" lon="9.62085526499166"><ele>297.0</ele><time>2026-03-27T14:17:34Z</time></trkpt><trkpt lat="45.739780781713314" lon="9.620812924414663"><ele>297.0</ele><time>2026-03-27T14:17:35Z</time></trkpt><trkpt lat="45.73984166717878" lon="9.62077421276442"><ele>297.0</ele><time>2026-03-27T14:17:36Z</time></trkpt><trkpt lat="45.73989983567085" lon="9.620739486577543"><ele>297.0</ele><time>2026-03-27T14:17:37Z</time></trkpt><trkpt lat="45.7399561508415" lon="9.620683962419706"><ele>297.0</ele><time>2026-03-27T14:17:38Z</time></trkpt><trkpt lat="45.74001453475424" lon="9.620647363112566"><ele>297.0</ele><time>2026-03-27T14:17:39Z</time></trkpt><trkpt lat="45.7400719158836" lon="9.620602459630101"><ele>297.0</ele><time>2026-03-27T14:17:40Z</time></trkpt><trkpt lat="45.74013044604688" lon="9.620558853646417"><ele>297.0</ele><time>2026-03-27T14:17:41Z</time></trkpt><trkpt lat="45.74018947584057" lon="9.620514987005047"><ele>297.0</ele><time>2026-03-27T14:17:42Z</time></trkpt><trkpt lat="45.740314654709884" lon="9.620431631333993"><ele>297.0</ele><time>2026-03-27T14:17:44Z</time></trkpt><trkpt lat="45.74041778932436" lon="9.62034694111125"><ele>297.0</ele><time>2026-03-27T14:17:46Z</time></trkpt><trkpt lat="45.740480185424815" lon="9.620310091127276"><ele>297.0</ele><time>2026-03-27T14:17:47Z</time></trkpt><trkpt lat="45.74059272915665" lon="9.620229948617297"><ele>296.8571428571429</ele><time>2026-03-27T14:17:49Z</time></trkpt><trkpt lat="45.740649833264186" lon="9.620181701260517"><ele>296.7142857142857</ele><time>2026-03-27T14:17:50Z</time></trkpt><trkpt lat="45.740707409699645" lon="9.620142604230415"><ele>296.57142857142856</ele><time>2026-03-27T14:17:51Z</time></trkpt><trkpt lat="45.740764988932064" lon="9.620097132105634"><ele>296.42857142857144</ele><time>2026-03-27T14:17:52Z</time></trkpt><trkpt lat="45.74082095458809" lon="9.620052112219941"><ele>296.2857142857143</ele><time>2026-03-27T14:17:53Z</time></trkpt><trkpt lat="45.74087715776057" lon="9.620008552443725"><ele>296.14285714285717</ele><time>2026-03-27T14:17:54Z</time></trkpt><trkpt lat="45.740987741330464" lon="9.619926015104292"><ele>296.0</ele><time>2026-03-27T14:17:56Z</time></trkpt><trkpt lat="45.74104597541653" lon="9.619883915297457"><ele>295.83333333333337</ele><time>2026-03-27T14:17:57Z</time></trkpt><trkpt lat="45.74115941673516" lon="9.61980425240762"><ele>295.6666666666667</ele><time>2026-03-27T14:17:59Z</time></trkpt><trkpt lat="45.74121750767506" lon="9.619761385594305"><ele>295.5</ele><time>2026-03-27T14:18:00Z</time></trkpt><trkpt lat="45.74127354185181" lon="9.619719406900069"><ele>295.3333333333333</ele><time>2026-03-27T14:18:01Z</time></trkpt><trkpt lat="45.741332636722035" lon="9.619674712691328"><ele>295.16666666666663</ele><time>2026-03-27T14:18:02Z</time></trkpt><trkpt lat="45.741390521653805" lon="9.619631640557731"><ele>295.0</ele><time>2026-03-27T14:18:03Z</time></trkpt><trkpt lat="45.741449601588215" lon="9.619591347755945"><ele>295.0</ele><time>2026-03-27T14:18:04Z</time></trkpt><trkpt lat="45.74150410379503" lon="9.619545408971273"><ele>295.0</ele><time>2026-03-27T14:18:05Z</time></trkpt><trkpt lat="45.74156033246268" lon="9.619503182702983"><ele>295.0</ele><time>2026-03-27T14:18:06Z</time></trkpt><trkpt lat="45.741617999218455" lon="9.619460750818437"><ele>295.0</ele><time>2026-03-27T14:18:07Z</time></trkpt><trkpt lat="45.741673555088674" lon="9.61941408248478"><ele>295.0</ele><time>2026-03-27T14:18:08Z</time></trkpt><trkpt lat="45.74178334744844" lon="9.619319215914185"><ele>295.0</ele><time>2026-03-27T14:18:10Z</time></trkpt><trkpt lat="45.74184080854476" lon="9.61927159405458"><ele>295.14285714285717</ele><time>2026-03-27T14:18:11Z</time></trkpt><trkpt lat="45.74189450413603" lon="9.61922157350955"><ele>295.2857142857143</ele><time>2026-03-27T14:18:12Z</time></trkpt><trkpt lat="45.74195056453976" lon="9.619170002673465"><ele>295.42857142857144</ele><time>2026-03-27T14:18:13Z</time></trkpt><trkpt lat="45.74200430266761" lon="9.619119715800103"><ele>295.57142857142856</ele><time>2026-03-27T14:18:14Z</time></trkpt><trkpt lat="45.7420585229712" lon="9.619068310774423"><ele>295.7142857142857</ele><time>2026-03-27T14:18:15Z</time></trkpt><trkpt lat="45.74211019899114" lon="9.619010963888016"><ele>295.8571428571429</ele><time>2026-03-27T14:18:16Z</time></trkpt><trkpt lat="45.74216410790494" lon="9.618956577515863"><ele>296.0</ele><time>2026-03-27T14:18:17Z</time></trkpt><trkpt lat="45.74227162878415" lon="9.61884972121675"><ele>296.0</ele><time>2026-03-27T14:18:19Z</time></trkpt><trkpt lat="45.7423237868385" lon="9.618789561970353"><ele>296.0</ele><time>2026-03-27T14:18:20Z</time></trkpt><trkpt lat="45.74237700901614" lon="9.618737658138109"><ele>296.0</ele><time>2026-03-27T14:18:21Z</time></trkpt><trkpt lat="45.742432687638086" lon="9.618685275258368"><ele>296.0</ele><time>2026-03-27T14:18:22Z</time></trkpt><trkpt lat="45.74248431862642" lon="9.618627742672345"><ele>296.0</ele><time>2026-03-27T14:18:23Z</time></trkpt><trkpt lat="45.742535194337975" lon="9.618571131446696"><ele>296.0</ele><time>2026-03-27T14:18:24Z</time></trkpt><trkpt lat="45.74258785192931" lon="9.618518522489051"><ele>296.0</ele><time>2026-03-27T14:18:25Z</time></trkpt><trkpt lat="45.74264174180483" lon="9.618461346197211"><ele>296.1666666666667</ele><time>2026-03-27T14:18:26Z</time></trkpt><trkpt lat="45.742747126347986" lon="9.618354851774791"><ele>296.33333333333337</ele><time>2026-03-27T14:18:28Z</time></trkpt><trkpt lat="45.74279827485248" lon="9.61830081399604"><ele>296.5</ele><time>2026-03-27T14:18:29Z</time></trkpt><trkpt lat="45.742852516884454" lon="9.618250243578382"><ele>296.6666666666667</ele><time>2026-03-27T14:18:30Z</time></trkpt><trkpt lat="45.74290553723877" lon="9.618191431252455"><ele>296.8333333333333</ele><time>2026-03-27T14:18:31Z</time></trkpt><trkpt lat="45.74295875527505" lon="9.618136703364204"><ele>297.0</ele><time>2026-03-27T14:18:32Z</time></trkpt><trkpt lat="45.74301144669479" lon="9.618081287751536"><ele>297.0</ele><time>2026-03-27T14:18:33Z</time></trkpt><trkpt lat="45.743064297038885" lon="9.618031918257032"><ele>297.0</ele><time>2026-03-27T14:18:34Z</time></trkpt><trkpt lat="45.7431162639724" lon="9.617977477916396"><ele>297.0</ele><time>2026-03-27T14:18:35Z</time></trkpt><trkpt lat="45.743169000332365" lon="9.617922699489677"><ele>297.0</ele><time>2026-03-27T14:18:36Z</time></trkpt><trkpt lat="45.74322171448178" lon="9.61786910598447"><ele>297.0</ele><time>2026-03-27T14:18:37Z</time></trkpt><trkpt lat="45.743275049965526" lon="9.617813067323032"><ele>297.0</ele><time>2026-03-27T14:18:38Z</time></trkpt><trkpt lat="45.74337536326756" lon="9.617707275338121"><ele>297.0</ele><time>2026-03-27T14:18:40Z</time></trkpt><trkpt lat="45.74342804314149" lon="9.617652042565398"><ele>296.8333333333333</ele><time>2026-03-27T14:18:41Z</time></trkpt><trkpt lat="45.74348232985132" lon="9.617599231548402"><ele>296.6666666666667</ele><time>2026-03-27T14:18:42Z</time></trkpt><trkpt lat="45.7435343310503" lon="9.617545943661739"><ele>296.5</ele><time>2026-03-27T14:18:43Z</time></trkpt><trkpt lat="45.74358746350649" lon="9.617495503533231"><ele>296.33333333333337</ele><time>2026-03-27T14:18:44Z</time></trkpt><trkpt lat="45.74368746365398" lon="9.617386992981212"><ele>296.1666666666667</ele><time>2026-03-27T14:18:46Z</time></trkpt><trkpt lat="45.74374487484183" lon="9.61733590140801"><ele>296.0</ele><time>2026-03-27T14:18:47Z</time></trkpt><trkpt lat="45.74379545345827" lon="9.617281197100933"><ele>296.0</ele><time>2026-03-27T14:18:48Z</time></trkpt><trkpt lat="45.74384663738613" lon="9.617227591070213"><ele>296.0</ele><time>2026-03-27T14:18:49Z</time></trkpt><trkpt lat="45.74390074606946" lon="9.61717927349029"><ele>296.0</ele><time>2026-03-27T14:18:50Z</time></trkpt><trkpt lat="45.74395276814139" lon="9.617119883445792"><ele>296.0</ele><time>2026-03-27T14:18:51Z</time></trkpt><trkpt lat="45.744007242020444" lon="9.617066933620995"><ele>296.0</ele><time>2026-03-27T14:18:52Z</time></trkpt><trkpt lat="45.74405869793593" lon="9.6170098753824"><ele>296.0</ele><time>2026-03-27T14:18:53Z</time></trkpt><trkpt lat="45.74410943616801" lon="9.616955200977726"><ele>296.0</ele><time>2026-03-27T14:18:54Z</time></trkpt><trkpt lat="45.74416468262624" lon="9.616902824488735"><ele>296.0</ele><time>2026-03-27T14:18:55Z</time></trkpt><trkpt lat="45.7442699718029" lon="9.616794485228217"><ele>296.0</ele><time>2026-03-27T14:18:57Z</time></trkpt><trkpt lat="45.74432417403448" lon="9.616740662612168"><ele>296.0</ele><time>2026-03-27T14:18:58Z</time></trkpt><trkpt lat="45.74437603385306" lon="9.616682352786265"><ele>296.0</ele><time>2026-03-27T14:18:59Z</time></trkpt><trkpt lat="45.74442766818136" lon="9.616626911688467"><ele>296.0</ele><time>2026-03-27T14:19:00Z</time></trkpt><trkpt lat="45.744479168404695" lon="9.616572963293512"><ele>296.0</ele><time>2026-03-27T14:19:01Z</time></trkpt><trkpt lat="45.74453747264961" lon="9.616523972875116"><ele>296.0</ele><time>2026-03-27T14:19:02Z</time></trkpt><trkpt lat="45.74458822265433" lon="9.616469434056768"><ele>296.0</ele><time>2026-03-27T14:19:03Z</time></trkpt><trkpt lat="45.744640485673024" lon="9.616416153024355"><ele>296.0</ele><time>2026-03-27T14:19:04Z</time></trkpt><trkpt lat="45.74469543483569" lon="9.616361168671988"><ele>296.0</ele><time>2026-03-27T14:19:05Z</time></trkpt><trkpt lat="45.74474821169462" lon="9.61631004287259"><ele>296.0</ele><time>2026-03-27T14:19:06Z</time></trkpt><trkpt lat="45.74479912638862" lon="9.616252423003559"><ele>296.0</ele><time>2026-03-27T14:19:07Z</time></trkpt><trkpt lat="45.74485438232614" lon="9.616199152080089"><ele>296.0</ele><time>2026-03-27T14:19:08Z</time></trkpt><trkpt lat="45.74490512087422" lon="9.616143906904458"><ele>296.0</ele><time>2026-03-27T14:19:09Z</time></trkpt><trkpt lat="45.744959578311395" lon="9.61609634177956"><ele>296.0</ele><time>2026-03-27T14:19:10Z</time></trkpt><trkpt lat="45.745008987694916" lon="9.616038006627086"><ele>296.0</ele><time>2026-03-27T14:19:11Z</time></trkpt><trkpt lat="45.745063305596645" lon="9.615988248466714"><ele>296.0</ele><time>2026-03-27T14:19:12Z</time></trkpt><trkpt lat="45.745121370084625" lon="9.615935310251743"><ele>296.0</ele><time>2026-03-27T14:19:13Z</time></trkpt><trkpt lat="45.74522438278182" lon="9.615834604443602"><ele>296.0</ele><time>2026-03-27T14:19:15Z</time></trkpt><trkpt lat="45.74533598229397" lon="9.61574629730507"><ele>296.0</ele><time>2026-03-27T14:19:17Z</time></trkpt><trkpt lat="45.745448917395876" lon="9.615666481657454"><ele>296.0</ele><time>2026-03-27T14:19:19Z</time></trkpt><trkpt lat="45.74550943120906" lon="9.615631191185225"><ele>296.0</ele><time>2026-03-27T14:19:20Z</time></trkpt><trkpt lat="45.74556922870763" lon="9.615601261840306"><ele>296.0</ele><time>2026-03-27T14:19:21Z</time></trkpt><trkpt lat="45.745631077725385" lon="9.61556667340783"><ele>296.0</ele><time>2026-03-27T14:19:22Z</time></trkpt><trkpt lat="45.7456840773848" lon="9.615516303224082"><ele>296.0</ele><time>2026-03-27T14:19:23Z</time></trkpt><trkpt lat="45.74572874723074" lon="9.615440039163692"><ele>296.0</ele><time>2026-03-27T14:19:24Z</time></trkpt><trkpt lat="45.74580217900047" lon="9.615294314593111"><ele>296.0</ele><time>2026-03-27T14:19:26Z</time></trkpt><trkpt lat="45.745842423077704" lon="9.615223553441854"><ele>296.0</ele><time>2026-03-27T14:19:27Z</time></trkpt><trkpt lat="45.74594016667889" lon="9.615116285539552"><ele>296.0</ele><time>2026-03-27T14:19:29Z</time></trkpt><trkpt lat="45.74603521385676" lon="9.615033314335772"><ele>296.0</ele><time>2026-03-27T14:19:31Z</time></trkpt><trkpt lat="45.74611514899585" lon="9.614938193864733"><ele>296.0</ele><time>2026-03-27T14:19:33Z</time></trkpt><trkpt lat="45.746216668469195" lon="9.614852304415248"><ele>296.0</ele><time>2026-03-27T14:19:35Z</time></trkpt><trkpt lat="45.746273998539394" lon="9.614801351487644"><ele>296.0</ele><time>2026-03-27T14:19:36Z</time></trkpt><trkpt lat="45.7463307440307" lon="9.614744541688912"><ele>296.0</ele><time>2026-03-27T14:19:37Z</time></trkpt><trkpt lat="45.74638429429499" lon="9.61469409212039"><ele>296.0</ele><time>2026-03-27T14:19:38Z</time></trkpt><trkpt lat="45.74643603888382" lon="9.614637521281294"><ele>296.0</ele><time>2026-03-27T14:19:39Z</time></trkpt><trkpt lat="45.74649037420079" lon="9.614587148308972"><ele>296.0</ele><time>2026-03-27T14:19:40Z</time></trkpt><trkpt lat="45.74654042458952" lon="9.61453135811279"><ele>295.40000000000003</ele><time>2026-03-27T14:19:41Z</time></trkpt><trkpt lat="45.74658873922609" lon="9.61447331128246"><ele>294.8</ele><time>2026-03-27T14:19:42Z</time></trkpt><trkpt lat="45.74663955355182" lon="9.614416316975896"><ele>294.20000000000005</ele><time>2026-03-27T14:19:43Z</time></trkpt><trkpt lat="45.74673125935582" lon="9.614304855384793"><ele>293.6</ele><time>2026-03-27T14:19:45Z</time></trkpt><trkpt lat="45.74683365983177" lon="9.614244257925176"><ele>293.0</ele><time>2026-03-27T14:19:47Z</time></trkpt><trkpt lat="45.7469611494243" lon="9.614232388803531"><ele>293.0</ele><time>2026-03-27T14:19:49Z</time></trkpt><trkpt lat="45.74707289065338" lon="9.614178271862851"><ele>293.0</ele><time>2026-03-27T14:19:51Z</time></trkpt><trkpt lat="45.747119204272124" lon="9.614078233135132"><ele>293.0</ele><time>2026-03-27T14:19:53Z</time></trkpt><trkpt lat="45.74716047751212" lon="9.613970096541784"><ele>293.0</ele><time>2026-03-27T14:19:55Z</time></trkpt><trkpt lat="45.747232325579205" lon="9.613869765136775"><ele>293.0</ele><time>2026-03-27T14:19:57Z</time></trkpt><trkpt lat="45.74735611160758" lon="9.613843988247964"><ele>292.99999999999994</ele><time>2026-03-27T14:19:59Z</time></trkpt><trkpt lat="45.74741701684706" lon="9.61381293438185"><ele>293.0</ele><time>2026-03-27T14:20:00Z</time></trkpt><trkpt lat="45.74747712317359" lon="9.613779523542389"><ele>293.0</ele><time>2026-03-27T14:20:01Z</time></trkpt><trkpt lat="45.7475387026988" lon="9.613744585439006"><ele>293.0</ele><time>2026-03-27T14:20:02Z</time></trkpt><trkpt lat="45.74760200699187" lon="9.613697963997964"><ele>293.0</ele><time>2026-03-27T14:20:03Z</time></trkpt><trkpt lat="45.747668726021956" lon="9.613656992216727"><ele>292.99999999999994</ele><time>2026-03-27T14:20:04Z</time></trkpt><trkpt lat="45.74773344220181" lon="9.61362225348353"><ele>293.0</ele><time>2026-03-27T14:20:05Z</time></trkpt><trkpt lat="45.74779870736516" lon="9.613596667434194"><ele>292.83333333333337</ele><time>2026-03-27T14:20:06Z</time></trkpt><trkpt lat="45.74785973985039" lon="9.613561462502593"><ele>292.6666666666667</ele><time>2026-03-27T14:20:07Z</time></trkpt><trkpt lat="45.74791759976444" lon="9.61351839674628"><ele>292.5</ele><time>2026-03-27T14:20:08Z</time></trkpt><trkpt lat="45.74797899275102" lon="9.613476122950853"><ele>292.3333333333333</ele><time>2026-03-27T14:20:09Z</time></trkpt><trkpt lat="45.748095198177815" lon="9.61340406634117"><ele>292.16666666666663</ele><time>2026-03-27T14:20:11Z</time></trkpt><trkpt lat="45.748157437996646" lon="9.613369000454563"><ele>292.0</ele><time>2026-03-27T14:20:12Z</time></trkpt><trkpt lat="45.74821743587023" lon="9.613334146312031"><ele>292.0</ele><time>2026-03-27T14:20:13Z</time></trkpt><trkpt lat="45.74833343645955" lon="9.613269488907564"><ele>292.0</ele><time>2026-03-27T14:20:15Z</time></trkpt><trkpt lat="45.74845850843217" lon="9.613219891811724"><ele>292.0</ele><time>2026-03-27T14:20:17Z</time></trkpt><trkpt lat="45.74851873785945" lon="9.613182536618712"><ele>292.0</ele><time>2026-03-27T14:20:18Z</time></trkpt><trkpt lat="45.74857750931907" lon="9.613148587183458"><ele>292.0</ele><time>2026-03-27T14:20:19Z</time></trkpt><trkpt lat="45.748634846251775" lon="9.613110614669269"><ele>292.0</ele><time>2026-03-27T14:20:20Z</time></trkpt><trkpt lat="45.74874854991917" lon="9.61303589915422"><ele>292.16666666666663</ele><time>2026-03-27T14:20:22Z</time></trkpt><trkpt lat="45.74880364750083" lon="9.612988884286409"><ele>292.3333333333333</ele><time>2026-03-27T14:20:23Z</time></trkpt><trkpt lat="45.74885688899627" lon="9.612938905791408"><ele>292.5</ele><time>2026-03-27T14:20:24Z</time></trkpt><trkpt lat="45.7489143740014" lon="9.612893597891114"><ele>292.6666666666667</ele><time>2026-03-27T14:20:25Z</time></trkpt><trkpt lat="45.74902797367271" lon="9.612828241311203"><ele>292.83333333333337</ele><time>2026-03-27T14:20:27Z</time></trkpt><trkpt lat="45.749089044294465" lon="9.612793684499014"><ele>293.0</ele><time>2026-03-27T14:20:28Z</time></trkpt><trkpt lat="45.74920482752867" lon="9.612722503240953"><ele>293.0</ele><time>2026-03-27T14:20:30Z</time></trkpt><trkpt lat="45.74926421049439" lon="9.612689850433721"><ele>293.0</ele><time>2026-03-27T14:20:31Z</time></trkpt><trkpt lat="45.74938525665106" lon="9.612644591143999"><ele>293.0</ele><time>2026-03-27T14:20:33Z</time></trkpt><trkpt lat="45.74945003390952" lon="9.612613103903549"><ele>293.0</ele><time>2026-03-27T14:20:34Z</time></trkpt><trkpt lat="45.74957075977133" lon="9.612533759543359"><ele>293.0</ele><time>2026-03-27T14:20:36Z</time></trkpt><trkpt lat="45.749678894494345" lon="9.612442463628303"><ele>293.1666666666667</ele><time>2026-03-27T14:20:38Z</time></trkpt><trkpt lat="45.749742881989555" lon="9.612418981374098"><ele>293.33333333333337</ele><time>2026-03-27T14:20:39Z</time></trkpt><trkpt lat="45.74981078843352" lon="9.612382969239718"><ele>293.5</ele><time>2026-03-27T14:20:40Z</time></trkpt><trkpt lat="45.74993313664224" lon="9.61232967215372"><ele>293.6666666666667</ele><time>2026-03-27T14:20:42Z</time></trkpt><trkpt lat="45.74999708327683" lon="9.61230102818172"><ele>293.8333333333333</ele><time>2026-03-27T14:20:43Z</time></trkpt><trkpt lat="45.750061267717456" lon="9.612270507799497"><ele>294.0</ele><time>2026-03-27T14:20:44Z</time></trkpt><trkpt lat="45.750125870751134" lon="9.612243219173102"><ele>294.0</ele><time>2026-03-27T14:20:45Z</time></trkpt><trkpt lat="45.75019284754913" lon="9.612220717926279"><ele>294.0</ele><time>2026-03-27T14:20:46Z</time></trkpt><trkpt lat="45.750258778691546" lon="9.612196229417311"><ele>294.0</ele><time>2026-03-27T14:20:47Z</time></trkpt><trkpt lat="45.7503262347266" lon="9.612174302347873"><ele>294.0</ele><time>2026-03-27T14:20:48Z</time></trkpt><trkpt lat="45.750395008377765" lon="9.612150373956142"><ele>294.0</ele><time>2026-03-27T14:20:49Z</time></trkpt><trkpt lat="45.75046119413986" lon="9.612120215075512"><ele>294.0</ele><time>2026-03-27T14:20:50Z</time></trkpt><trkpt lat="45.750528882824526" lon="9.612090294545702"><ele>294.0</ele><time>2026-03-27T14:20:51Z</time></trkpt><trkpt lat="45.75059302696508" lon="9.612062120404941"><ele>293.7142857142857</ele><time>2026-03-27T14:20:52Z</time></trkpt><trkpt lat="45.75066116540234" lon="9.612032983372892"><ele>293.42857142857144</ele><time>2026-03-27T14:20:53Z</time></trkpt><trkpt lat="45.750729585581524" lon="9.61200491724779"><ele>293.1428571428571</ele><time>2026-03-27T14:20:54Z</time></trkpt><trkpt lat="45.750798414455964" lon="9.611976677615155"><ele>292.8571428571429</ele><time>2026-03-27T14:20:55Z</time></trkpt><trkpt lat="45.750863119328976" lon="9.611948236191457"><ele>292.57142857142856</ele><time>2026-03-27T14:20:56Z</time></trkpt><trkpt lat="45.75092838149758" lon="9.611919547763975"><ele>292.2857142857143</ele><time>2026-03-27T14:20:57Z</time></trkpt><trkpt lat="45.75099200528723" lon="9.611891534868029"><ele>292.0</ele><time>2026-03-27T14:20:58Z</time></trkpt><trkpt lat="45.75105525482404" lon="9.61186368908601"><ele>291.7142857142857</ele><time>2026-03-27T14:20:59Z</time></trkpt><trkpt lat="45.75111870795685" lon="9.611834181594785"><ele>291.42857142857144</ele><time>2026-03-27T14:21:00Z</time></trkpt><trkpt lat="45.751182732012175" lon="9.611804578410554"><ele>291.14285714285717</ele><time>2026-03-27T14:21:01Z</time></trkpt><trkpt lat="45.75124501591612" lon="9.611776446043516"><ele>290.8571428571429</ele><time>2026-03-27T14:21:02Z</time></trkpt><trkpt lat="45.751307177399546" lon="9.611749856560536"><ele>290.5714285714286</ele><time>2026-03-27T14:21:03Z</time></trkpt><trkpt lat="45.751370337946014" lon="9.611721843674786"><ele>290.2857142857143</ele><time>2026-03-27T14:21:04Z</time></trkpt><trkpt lat="45.75143198224081" lon="9.611694569716597"><ele>290.0</ele><time>2026-03-27T14:21:05Z</time></trkpt><trkpt lat="45.751495594915674" lon="9.611665258634053"><ele>290.0</ele><time>2026-03-27T14:21:06Z</time></trkpt><trkpt lat="45.75155729910572" lon="9.611639615798184"><ele>290.0</ele><time>2026-03-27T14:21:07Z</time></trkpt><trkpt lat="45.751619360550535" lon="9.611611275881993"><ele>290.0</ele><time>2026-03-27T14:21:08Z</time></trkpt><trkpt lat="45.751743151962714" lon="9.61155287820078"><ele>290.0</ele><time>2026-03-27T14:21:10Z</time></trkpt><trkpt lat="45.75180401988078" lon="9.611527496627993"><ele>290.0</ele><time>2026-03-27T14:21:11Z</time></trkpt><trkpt lat="45.751866565920146" lon="9.611501468745638"><ele>290.0</ele><time>2026-03-27T14:21:12Z</time></trkpt><trkpt lat="45.75192966318688" lon="9.611476718078297"><ele>290.7142857142857</ele><time>2026-03-27T14:21:13Z</time></trkpt><trkpt lat="45.75199076342942" lon="9.611446017824596"><ele>291.42857142857144</ele><time>2026-03-27T14:21:14Z</time></trkpt><trkpt lat="45.752053052206804" lon="9.611421630764985"><ele>292.14285714285717</ele><time>2026-03-27T14:21:15Z</time></trkpt><trkpt lat="45.752113679035354" lon="9.611391363332949"><ele>292.8571428571429</ele><time>2026-03-27T14:21:16Z</time></trkpt><trkpt lat="45.75217725354753" lon="9.611366525641925"><ele>293.57142857142856</ele><time>2026-03-27T14:21:17Z</time></trkpt><trkpt lat="45.7522389276227" lon="9.61134138331147"><ele>294.28571428571433</ele><time>2026-03-27T14:21:18Z</time></trkpt><trkpt lat="45.75230147451564" lon="9.611316111411618"><ele>295.0</ele><time>2026-03-27T14:21:19Z</time></trkpt><trkpt lat="45.75236531393058" lon="9.611290105389592"><ele>295.0</ele><time>2026-03-27T14:21:20Z</time></trkpt><trkpt lat="45.75242602935073" lon="9.611263042947657"><ele>295.0</ele><time>2026-03-27T14:21:21Z</time></trkpt><trkpt lat="45.75248734796436" lon="9.611234303630377"><ele>295.0</ele><time>2026-03-27T14:21:22Z</time></trkpt><trkpt lat="45.752553273311655" lon="9.611205420341426"><ele>295.0</ele><time>2026-03-27T14:21:23Z</time></trkpt><trkpt lat="45.75261871563256" lon="9.611177873286005"><ele>295.0</ele><time>2026-03-27T14:21:24Z</time></trkpt><trkpt lat="45.752742174585" lon="9.611129425300225"><ele>295.0</ele><time>2026-03-27T14:21:26Z</time></trkpt><trkpt lat="45.75280457893004" lon="9.611104969774953"><ele>294.28571428571433</ele><time>2026-03-27T14:21:27Z</time></trkpt><trkpt lat="45.752866736532795" lon="9.611076734552517"><ele>293.57142857142856</ele><time>2026-03-27T14:21:28Z</time></trkpt><trkpt lat="45.75293017892184" lon="9.611056276280943"><ele>292.8571428571429</ele><time>2026-03-27T14:21:29Z</time></trkpt><trkpt lat="45.75299280299943" lon="9.611031550890097"><ele>292.14285714285717</ele><time>2026-03-27T14:21:30Z</time></trkpt><trkpt lat="45.753060276248405" lon="9.611013526998871"><ele>291.42857142857144</ele><time>2026-03-27T14:21:31Z</time></trkpt><trkpt lat="45.753126777247125" lon="9.610998944268045"><ele>290.7142857142857</ele><time>2026-03-27T14:21:32Z</time></trkpt><trkpt lat="45.753190796210866" lon="9.610987830709254"><ele>290.0</ele><time>2026-03-27T14:21:33Z</time></trkpt><trkpt lat="45.753257850735025" lon="9.610982530799134"><ele>290.0</ele><time>2026-03-27T14:21:34Z</time></trkpt><trkpt lat="45.75332547307606" lon="9.610971966757823"><ele>290.0</ele><time>2026-03-27T14:21:35Z</time></trkpt><trkpt lat="45.75339087830479" lon="9.610968834441119"><ele>290.0</ele><time>2026-03-27T14:21:36Z</time></trkpt><trkpt lat="45.75345725579777" lon="9.610966571504795"><ele>290.0</ele><time>2026-03-27T14:21:37Z</time></trkpt><trkpt lat="45.75352475029264" lon="9.610970250588306"><ele>290.0</ele><time>2026-03-27T14:21:38Z</time></trkpt><trkpt lat="45.75359363999359" lon="9.610975165936448"><ele>290.0</ele><time>2026-03-27T14:21:39Z</time></trkpt><trkpt lat="45.75365995975407" lon="9.610986810401165"><ele>290.0</ele><time>2026-03-27T14:21:40Z</time></trkpt><trkpt lat="45.75372593078313" lon="9.611003690622807"><ele>289.5</ele><time>2026-03-27T14:21:41Z</time></trkpt><trkpt lat="45.75379159190544" lon="9.611015970993583"><ele>289.0</ele><time>2026-03-27T14:21:42Z</time></trkpt><trkpt lat="45.75385803489265" lon="9.611034527713857"><ele>288.5</ele><time>2026-03-27T14:21:43Z</time></trkpt><trkpt lat="45.75398756985402" lon="9.611061216124407"><ele>288.0</ele><time>2026-03-27T14:21:45Z</time></trkpt><trkpt lat="45.75405819278421" lon="9.611078576241466"><ele>287.5</ele><time>2026-03-27T14:21:46Z</time></trkpt><trkpt lat="45.75412485267116" lon="9.611091881434058"><ele>287.0</ele><time>2026-03-27T14:21:47Z</time></trkpt><trkpt lat="45.754192429544155" lon="9.61110237123383"><ele>287.0</ele><time>2026-03-27T14:21:48Z</time></trkpt><trkpt lat="45.7542607086955" lon="9.611105931148874"><ele>287.0</ele><time>2026-03-27T14:21:49Z</time></trkpt><trkpt lat="45.7543322360146" lon="9.611098517059558"><ele>287.0</ele><time>2026-03-27T14:21:50Z</time></trkpt><trkpt lat="45.75439782591812" lon="9.611083112602783"><ele>287.0</ele><time>2026-03-27T14:21:51Z</time></trkpt><trkpt lat="45.75446638384084" lon="9.611066992033884"><ele>287.0</ele><time>2026-03-27T14:21:52Z</time></trkpt><trkpt lat="45.75453324226464" lon="9.611053135066166"><ele>287.0</ele><time>2026-03-27T14:21:53Z</time></trkpt><trkpt lat="45.75460122422988" lon="9.611038421925825"><ele>287.0</ele><time>2026-03-27T14:21:54Z</time></trkpt><trkpt lat="45.754672242173456" lon="9.611019099263052"><ele>286.5</ele><time>2026-03-27T14:21:55Z</time></trkpt><trkpt lat="45.75474491785431" lon="9.611000419861872"><ele>286.0</ele><time>2026-03-27T14:21:56Z</time></trkpt><trkpt lat="45.75481341978649" lon="9.610981750374501"><ele>285.5</ele><time>2026-03-27T14:21:57Z</time></trkpt><trkpt lat="45.754885565893964" lon="9.610966439186829"><ele>285.0</ele><time>2026-03-27T14:21:58Z</time></trkpt><trkpt lat="45.75495832981605" lon="9.61094813120812"><ele>284.5</ele><time>2026-03-27T14:21:59Z</time></trkpt><trkpt lat="45.75507843031207" lon="9.610889630997836"><ele>284.0</ele><time>2026-03-27T14:22:01Z</time></trkpt><trkpt lat="45.75516828575667" lon="9.610894118484826"><ele>284.7142857142857</ele><time>2026-03-27T14:22:02Z</time></trkpt><trkpt lat="45.75524044267312" lon="9.610877866508222"><ele>285.4285714285714</ele><time>2026-03-27T14:22:03Z</time></trkpt><trkpt lat="45.75530986371537" lon="9.610860137137287"><ele>286.1428571428571</ele><time>2026-03-27T14:22:04Z</time></trkpt><trkpt lat="45.755378117027426" lon="9.610844025689717"><ele>286.85714285714283</ele><time>2026-03-27T14:22:05Z</time></trkpt><trkpt lat="45.755449022631296" lon="9.610828771762506"><ele>287.57142857142856</ele><time>2026-03-27T14:22:06Z</time></trkpt><trkpt lat="45.75551678063421" lon="9.610811774065983"><ele>288.2857142857143</ele><time>2026-03-27T14:22:07Z</time></trkpt><trkpt lat="45.755583650665166" lon="9.61079345020229"><ele>289.0</ele><time>2026-03-27T14:22:08Z</time></trkpt><trkpt lat="45.7556493043129" lon="9.610769923299674"><ele>289.0</ele><time>2026-03-27T14:22:09Z</time></trkpt><trkpt lat="45.75571790358522" lon="9.610742386665704"><ele>289.0</ele><time>2026-03-27T14:22:10Z</time></trkpt><trkpt lat="45.75578692754713" lon="9.610712947994521"><ele>289.0</ele><time>2026-03-27T14:22:11Z</time></trkpt><trkpt lat="45.755855031098704" lon="9.610685261970927"><ele>289.0</ele><time>2026-03-27T14:22:12Z</time></trkpt><trkpt lat="45.7559234125496" lon="9.610647120623742"><ele>289.0</ele><time>2026-03-27T14:22:13Z</time></trkpt><trkpt lat="45.75599213434174" lon="9.610612388517701"><ele>289.0</ele><time>2026-03-27T14:22:14Z</time></trkpt><trkpt lat="45.756061603261024" lon="9.610570424207504"><ele>289.0</ele><time>2026-03-27T14:22:15Z</time></trkpt><trkpt lat="45.75613056474169" lon="9.610526568558678"><ele>289.5</ele><time>2026-03-27T14:22:16Z</time></trkpt><trkpt lat="45.75619966543482" lon="9.610477302998206"><ele>290.0</ele><time>2026-03-27T14:22:17Z</time></trkpt><trkpt lat="45.756264904212316" lon="9.610423347857486"><ele>290.5</ele><time>2026-03-27T14:22:18Z</time></trkpt><trkpt lat="45.75633229768306" lon="9.610371255792378"><ele>291.0</ele><time>2026-03-27T14:22:19Z</time></trkpt><trkpt lat="45.7563976401573" lon="9.610314288065114"><ele>291.5</ele><time>2026-03-27T14:22:20Z</time></trkpt><trkpt lat="45.75646410392328" lon="9.610257471082932"><ele>292.0</ele><time>2026-03-27T14:22:21Z</time></trkpt><trkpt lat="45.7565289882531" lon="9.610198317329813"><ele>292.0</ele><time>2026-03-27T14:22:22Z</time></trkpt><trkpt lat="45.75659342363865" lon="9.610135971931848"><ele>292.0</ele><time>2026-03-27T14:22:23Z</time></trkpt><trkpt lat="45.75665997298512" lon="9.610078544733684"><ele>292.0</ele><time>2026-03-27T14:22:24Z</time></trkpt><trkpt lat="45.75672415708778" lon="9.610016178388705"><ele>292.0</ele><time>2026-03-27T14:22:25Z</time></trkpt><trkpt lat="45.75678517239445" lon="9.609949202603879"><ele>292.0</ele><time>2026-03-27T14:22:26Z</time></trkpt><trkpt lat="45.75685385399702" lon="9.60989276987339"><ele>292.0</ele><time>2026-03-27T14:22:27Z</time></trkpt><trkpt lat="45.75691918859756" lon="9.60983640503869"><ele>294.57142857142856</ele><time>2026-03-27T14:22:28Z</time></trkpt><trkpt lat="45.75698587340945" lon="9.609779130444972"><ele>297.14285714285717</ele><time>2026-03-27T14:22:29Z</time></trkpt><trkpt lat="45.757051481869524" lon="9.609728514573233"><ele>299.7142857142857</ele><time>2026-03-27T14:22:30Z</time></trkpt><trkpt lat="45.757117694931665" lon="9.609676324738388"><ele>302.2857142857143</ele><time>2026-03-27T14:22:31Z</time></trkpt><trkpt lat="45.75718358357512" lon="9.609626954251956"><ele>304.85714285714283</ele><time>2026-03-27T14:22:32Z</time></trkpt><trkpt lat="45.757245982150046" lon="9.609584154140963"><ele>307.42857142857144</ele><time>2026-03-27T14:22:33Z</time></trkpt><trkpt lat="45.75731000040045" lon="9.609544789650775"><ele>310.0</ele><time>2026-03-27T14:22:34Z</time></trkpt><trkpt lat="45.75737333641278" lon="9.609515975995713"><ele>306.16666666666663</ele><time>2026-03-27T14:22:35Z</time></trkpt><trkpt lat="45.75743487637478" lon="9.60948673577399"><ele>302.3333333333333</ele><time>2026-03-27T14:22:36Z</time></trkpt><trkpt lat="45.75749609068232" lon="9.609458627132105"><ele>298.5</ele><time>2026-03-27T14:22:37Z</time></trkpt><trkpt lat="45.75755744218676" lon="9.60943075620608"><ele>294.6666666666667</ele><time>2026-03-27T14:22:38Z</time></trkpt><trkpt lat="45.75768062373225" lon="9.60939402870085"><ele>290.83333333333337</ele><time>2026-03-27T14:22:40Z</time></trkpt><trkpt lat="45.75774320663865" lon="9.609379172395954"><ele>287.0</ele><time>2026-03-27T14:22:41Z</time></trkpt><trkpt lat="45.75786623064448" lon="9.609347402288387"><ele>287.0</ele><time>2026-03-27T14:22:43Z</time></trkpt><trkpt lat="45.75792833888065" lon="9.60933241409591"><ele>287.0</ele><time>2026-03-27T14:22:44Z</time></trkpt><trkpt lat="45.758051619127016" lon="9.609300176147794"><ele>287.0</ele><time>2026-03-27T14:22:46Z</time></trkpt><trkpt lat="45.75811507359077" lon="9.6092863674259"><ele>287.0</ele><time>2026-03-27T14:22:47Z</time></trkpt><trkpt lat="45.75823474117519" lon="9.609252671228887"><ele>287.0</ele><time>2026-03-27T14:22:49Z</time></trkpt><trkpt lat="45.75829854125498" lon="9.609239098653356"><ele>287.0</ele><time>2026-03-27T14:22:50Z</time></trkpt><trkpt lat="45.758418529007734" lon="9.60920439775041"><ele>291.4</ele><time>2026-03-27T14:22:52Z</time></trkpt><trkpt lat="45.75853990740003" lon="9.609170590539057"><ele>295.79999999999995</ele><time>2026-03-27T14:22:54Z</time></trkpt><trkpt lat="45.75866179541473" lon="9.609139637565258"><ele>300.2</ele><time>2026-03-27T14:22:56Z</time></trkpt><trkpt lat="45.75872292343585" lon="9.609114147824082"><ele>304.59999999999997</ele><time>2026-03-27T14:22:57Z</time></trkpt><trkpt lat="45.758843709744205" lon="9.609068057140965"><ele>309.0</ele><time>2026-03-27T14:22:59Z</time></trkpt><trkpt lat="45.75896385969192" lon="9.609010087108073"><ele>309.0</ele><time>2026-03-27T14:23:01Z</time></trkpt><trkpt lat="45.75908128239877" lon="9.608944847457664"><ele>309.0</ele><time>2026-03-27T14:23:03Z</time></trkpt><trkpt lat="45.75919113638171" lon="9.608861863863552"><ele>309.0</ele><time>2026-03-27T14:23:05Z</time></trkpt><trkpt lat="45.75930130748446" lon="9.608772631462966"><ele>309.0</ele><time>2026-03-27T14:23:07Z</time></trkpt><trkpt lat="45.75935556874055" lon="9.608726224353513"><ele>309.0</ele><time>2026-03-27T14:23:08Z</time></trkpt><trkpt lat="45.75946165308284" lon="9.60862555394503"><ele>310.6666666666667</ele><time>2026-03-27T14:23:10Z</time></trkpt><trkpt lat="45.75951349514591" lon="9.608572347431556"><ele>312.3333333333333</ele><time>2026-03-27T14:23:11Z</time></trkpt><trkpt lat="45.759563306892254" lon="9.608516440572837"><ele>314.0</ele><time>2026-03-27T14:23:12Z</time></trkpt><trkpt lat="45.759611781638085" lon="9.608458768188163"><ele>315.66666666666663</ele><time>2026-03-27T14:23:13Z</time></trkpt><trkpt lat="45.759660491903006" lon="9.608401249055845"><ele>317.3333333333333</ele><time>2026-03-27T14:23:14Z</time></trkpt><trkpt lat="45.75975134013216" lon="9.608279320142099"><ele>319.0</ele><time>2026-03-27T14:23:16Z</time></trkpt><trkpt lat="45.759836586612344" lon="9.608147732995262"><ele>319.0</ele><time>2026-03-27T14:23:18Z</time></trkpt><trkpt lat="45.75988007932774" lon="9.608075782227242"><ele>319.0</ele><time>2026-03-27T14:23:19Z</time></trkpt><trkpt lat="45.759919880017414" lon="9.608005217235213"><ele>319.0</ele><time>2026-03-27T14:23:20Z</time></trkpt><trkpt lat="45.75996262800522" lon="9.60792989320833"><ele>319.0</ele><time>2026-03-27T14:23:21Z</time></trkpt><trkpt lat="45.760034654205604" lon="9.607781267763709"><ele>319.0</ele><time>2026-03-27T14:23:23Z</time></trkpt><trkpt lat="45.7600703422943" lon="9.607704182372615"><ele>319.0</ele><time>2026-03-27T14:23:24Z</time></trkpt><trkpt lat="45.760105929795685" lon="9.607628101830338"><ele>319.2</ele><time>2026-03-27T14:23:25Z</time></trkpt><trkpt lat="45.760176327281094" lon="9.60747751559686"><ele>319.4</ele><time>2026-03-27T14:23:27Z</time></trkpt><trkpt lat="45.76020907904484" lon="9.607397138330928"><ele>319.6</ele><time>2026-03-27T14:23:28Z</time></trkpt><trkpt lat="45.760277565393196" lon="9.607246329655691"><ele>319.8</ele><time>2026-03-27T14:23:30Z</time></trkpt><trkpt lat="45.7603473170661" lon="9.607097602453917"><ele>320.0</ele><time>2026-03-27T14:23:32Z</time></trkpt><trkpt lat="45.76041529429506" lon="9.606949867893338"><ele>320.0</ele><time>2026-03-27T14:23:34Z</time></trkpt><trkpt lat="45.76048055248054" lon="9.606798294325753"><ele>320.0</ele><time>2026-03-27T14:23:36Z</time></trkpt><trkpt lat="45.760551369102785" lon="9.606653105744549"><ele>320.0</ele><time>2026-03-27T14:23:38Z</time></trkpt><trkpt lat="45.76061754464117" lon="9.606502735703836"><ele>320.0</ele><time>2026-03-27T14:23:40Z</time></trkpt><trkpt lat="45.76068551807621" lon="9.606355976528953"><ele>320.0</ele><time>2026-03-27T14:23:42Z</time></trkpt><trkpt lat="45.760759897121936" lon="9.606213142247938"><ele>320.0</ele><time>2026-03-27T14:23:44Z</time></trkpt><trkpt lat="45.76084520321885" lon="9.606086208614805"><ele>320.0</ele><time>2026-03-27T14:23:46Z</time></trkpt><trkpt lat="45.76094039729069" lon="9.605974704841657"><ele>320.0</ele><time>2026-03-27T14:23:48Z</time></trkpt><trkpt lat="45.76104783966962" lon="9.605884773899247"><ele>319.0</ele><time>2026-03-27T14:23:50Z</time></trkpt><trkpt lat="45.76116154374551" lon="9.605813529132602"><ele>318.0</ele><time>2026-03-27T14:23:52Z</time></trkpt><trkpt lat="45.76127749850869" lon="9.605749686952784"><ele>317.0</ele><time>2026-03-27T14:23:54Z</time></trkpt><trkpt lat="45.76139222186737" lon="9.60568646318551"><ele>316.0</ele><time>2026-03-27T14:23:56Z</time></trkpt><trkpt lat="45.76145372776121" lon="9.605653850042831"><ele>315.0</ele><time>2026-03-27T14:23:57Z</time></trkpt><trkpt lat="45.76156733644025" lon="9.60559012420108"><ele>315.0</ele><time>2026-03-27T14:23:59Z</time></trkpt><trkpt lat="45.761629154215576" lon="9.60556897347116"><ele>315.0</ele><time>2026-03-27T14:24:00Z</time></trkpt><trkpt lat="45.76175115557572" lon="9.60555230807368"><ele>315.0</ele><time>2026-03-27T14:24:02Z</time></trkpt><trkpt lat="45.76187696622034" lon="9.60557267478853"><ele>315.0</ele><time>2026-03-27T14:24:04Z</time></trkpt><trkpt lat="45.761991250540426" lon="9.605630932100446"><ele>315.0</ele><time>2026-03-27T14:24:06Z</time></trkpt><trkpt lat="45.762046688885725" lon="9.605675136156362"><ele>311.4</ele><time>2026-03-27T14:24:07Z</time></trkpt><trkpt lat="45.76214500489737" lon="9.605781829154164"><ele>307.8</ele><time>2026-03-27T14:24:09Z</time></trkpt><trkpt lat="45.762240679295516" lon="9.605894618133458"><ele>304.2</ele><time>2026-03-27T14:24:11Z</time></trkpt><trkpt lat="45.76233751652804" lon="9.606006173600042"><ele>300.6</ele><time>2026-03-27T14:24:13Z</time></trkpt><trkpt lat="45.76238758228628" lon="9.606062948454365"><ele>297.0</ele><time>2026-03-27T14:24:14Z</time></trkpt><trkpt lat="45.76248202755172" lon="9.60618073493369"><ele>293.75</ele><time>2026-03-27T14:24:16Z</time></trkpt><trkpt lat="45.76257382835053" lon="9.606304399049893"><ele>290.5</ele><time>2026-03-27T14:24:18Z</time></trkpt><trkpt lat="45.76264856130716" lon="9.606443219680564"><ele>287.25</ele><time>2026-03-27T14:24:20Z</time></trkpt><trkpt lat="45.76272120268679" lon="9.606588949635226"><ele>284.0</ele><time>2026-03-27T14:24:22Z</time></trkpt><trkpt lat="45.76279483149736" lon="9.606736728453132"><ele>284.0</ele><time>2026-03-27T14:24:24Z</time></trkpt><trkpt lat="45.76285185442652" lon="9.60689254796056"><ele>284.0</ele><time>2026-03-27T14:24:26Z</time></trkpt><trkpt lat="45.762923819024635" lon="9.60703805747531"><ele>284.0</ele><time>2026-03-27T14:24:28Z</time></trkpt><trkpt lat="45.76295861788275" lon="9.60711414660473"><ele>284.0</ele><time>2026-03-27T14:24:29Z</time></trkpt><trkpt lat="45.762992247485855" lon="9.607190895800148"><ele>284.0</ele><time>2026-03-27T14:24:30Z</time></trkpt><trkpt lat="45.763063063028184" lon="9.607338505649144"><ele>289.5</ele><time>2026-03-27T14:24:32Z</time></trkpt><trkpt lat="45.76313030978641" lon="9.607489976644743"><ele>295.0</ele><time>2026-03-27T14:24:34Z</time></trkpt><trkpt lat="45.763202552168586" lon="9.607636959781274"><ele>300.5</ele><time>2026-03-27T14:24:36Z</time></trkpt><trkpt lat="45.76328166764302" lon="9.607775466484156"><ele>306.0</ele><time>2026-03-27T14:24:38Z</time></trkpt><trkpt lat="45.76335708636774" lon="9.607910090808899"><ele>305.6</ele><time>2026-03-27T14:24:40Z</time></trkpt><trkpt lat="45.76340072665599" lon="9.607975526106777"><ele>305.20000000000005</ele><time>2026-03-27T14:24:41Z</time></trkpt><trkpt lat="45.763483436941854" lon="9.608102278588406"><ele>304.79999999999995</ele><time>2026-03-27T14:24:43Z</time></trkpt><trkpt lat="45.763563657142704" lon="9.60822429209582"><ele>304.4</ele><time>2026-03-27T14:24:45Z</time></trkpt><trkpt lat="45.763642513284914" lon="9.608352488276479"><ele>304.0</ele><time>2026-03-27T14:24:47Z</time></trkpt><trkpt lat="45.76371854701345" lon="9.608482232484047"><ele>304.0</ele><time>2026-03-27T14:24:49Z</time></trkpt><trkpt lat="45.763805968919016" lon="9.608602636897126"><ele>304.0</ele><time>2026-03-27T14:24:51Z</time></trkpt><trkpt lat="45.76387639093305" lon="9.608730625131411"><ele>304.0</ele><time>2026-03-27T14:24:53Z</time></trkpt><trkpt lat="45.76392671848007" lon="9.608798170369306"><ele>304.0</ele><time>2026-03-27T14:24:54Z</time></trkpt><trkpt lat="45.76397158918287" lon="9.608864197051805"><ele>304.0</ele><time>2026-03-27T14:24:55Z</time></trkpt><trkpt lat="45.76404565793378" lon="9.608987960875645"><ele>305.0</ele><time>2026-03-27T14:24:57Z</time></trkpt><trkpt lat="45.76413397061821" lon="9.609116251213033"><ele>306.0</ele><time>2026-03-27T14:24:59Z</time></trkpt><trkpt lat="45.764211539329466" lon="9.60924811717888"><ele>307.0</ele><time>2026-03-27T14:25:01Z</time></trkpt><trkpt lat="45.764295274553966" lon="9.609374737802167"><ele>308.0</ele><time>2026-03-27T14:25:03Z</time></trkpt><trkpt lat="45.76437870407001" lon="9.60950515131542"><ele>308.0</ele><time>2026-03-27T14:25:05Z</time></trkpt><trkpt lat="45.76445921522054" lon="9.609634941842138"><ele>308.0</ele><time>2026-03-27T14:25:07Z</time></trkpt><trkpt lat="45.76454224793811" lon="9.609766094277065"><ele>308.0</ele><time>2026-03-27T14:25:09Z</time></trkpt><trkpt lat="45.764624989622675" lon="9.60989721856368"><ele>308.0</ele><time>2026-03-27T14:25:11Z</time></trkpt><trkpt lat="45.7647058734887" lon="9.610029801926906"><ele>308.0</ele><time>2026-03-27T14:25:13Z</time></trkpt><trkpt lat="45.76475497378072" lon="9.610092652771984"><ele>308.0</ele><time>2026-03-27T14:25:14Z</time></trkpt><trkpt lat="45.764831844590766" lon="9.61022665115225"><ele>308.0</ele><time>2026-03-27T14:25:16Z</time></trkpt><trkpt lat="45.76492170538443" lon="9.610353582165326"><ele>308.0</ele><time>2026-03-27T14:25:18Z</time></trkpt><trkpt lat="45.76500457993588" lon="9.610483691476219"><ele>308.0</ele><time>2026-03-27T14:25:20Z</time></trkpt><trkpt lat="45.76509637698524" lon="9.610606895485741"><ele>307.6</ele><time>2026-03-27T14:25:22Z</time></trkpt><trkpt lat="45.76516717093037" lon="9.610745365280405"><ele>307.20000000000005</ele><time>2026-03-27T14:25:24Z</time></trkpt><trkpt lat="45.7652168727348" lon="9.610802868455043"><ele>306.8</ele><time>2026-03-27T14:25:25Z</time></trkpt><trkpt lat="45.765292435404014" lon="9.61093663328895"><ele>306.40000000000003</ele><time>2026-03-27T14:25:27Z</time></trkpt><trkpt lat="45.76537753435298" lon="9.61106733402129"><ele>306.0</ele><time>2026-03-27T14:25:29Z</time></trkpt><trkpt lat="45.76546682418734" lon="9.611181346827479"><ele>308.0</ele><time>2026-03-27T14:25:31Z</time></trkpt><trkpt lat="45.76551981800406" lon="9.611234233409515"><ele>310.0</ele><time>2026-03-27T14:25:32Z</time></trkpt><trkpt lat="45.765629613908864" lon="9.61132387891744"><ele>312.0</ele><time>2026-03-27T14:25:34Z</time></trkpt><trkpt lat="45.76574583919588" lon="9.611385309899246"><ele>314.0</ele><time>2026-03-27T14:25:36Z</time></trkpt><trkpt lat="45.76581403010707" lon="9.611398090912983"><ele>316.0</ele><time>2026-03-27T14:25:37Z</time></trkpt><trkpt lat="45.765936583315025" lon="9.611418836384047"><ele>316.0</ele><time>2026-03-27T14:25:39Z</time></trkpt><trkpt lat="45.76600595451306" lon="9.611411805841495"><ele>316.0</ele><time>2026-03-27T14:25:40Z</time></trkpt><trkpt lat="45.76613193334217" lon="9.611396578660097"><ele>316.0</ele><time>2026-03-27T14:25:42Z</time></trkpt><trkpt lat="45.766199908685806" lon="9.611379809463292"><ele>316.0</ele><time>2026-03-27T14:25:43Z</time></trkpt><trkpt lat="45.766269402531336" lon="9.611366576135385"><ele>316.0</ele><time>2026-03-27T14:25:44Z</time></trkpt><trkpt lat="45.766332655953676" lon="9.611357208550704"><ele>316.0</ele><time>2026-03-27T14:25:45Z</time></trkpt><trkpt lat="45.766396335068755" lon="9.611338753283261"><ele>313.42857142857144</ele><time>2026-03-27T14:25:46Z</time></trkpt><trkpt lat="45.76646308620906" lon="9.611328676633063"><ele>310.8571428571429</ele><time>2026-03-27T14:25:47Z</time></trkpt><trkpt lat="45.766525342257395" lon="9.611311227225281"><ele>308.2857142857143</ele><time>2026-03-27T14:25:48Z</time></trkpt><trkpt lat="45.76658979060172" lon="9.611299539330494"><ele>305.7142857142857</ele><time>2026-03-27T14:25:49Z</time></trkpt><trkpt lat="45.76665265060066" lon="9.611287187981743"><ele>303.1428571428571</ele><time>2026-03-27T14:25:50Z</time></trkpt><trkpt lat="45.76671648991288" lon="9.61127252385657"><ele>300.57142857142856</ele><time>2026-03-27T14:25:51Z</time></trkpt><trkpt lat="45.76678009424729" lon="9.61125827168888"><ele>298.0</ele><time>2026-03-27T14:25:52Z</time></trkpt><trkpt lat="45.766844297473604" lon="9.611243140571661"><ele>298.2</ele><time>2026-03-27T14:25:53Z</time></trkpt><trkpt lat="45.766974257337445" lon="9.611218513424966"><ele>298.4</ele><time>2026-03-27T14:25:55Z</time></trkpt><trkpt lat="45.76703634721576" lon="9.61120231387438"><ele>298.59999999999997</ele><time>2026-03-27T14:25:56Z</time></trkpt><trkpt lat="45.767099818103645" lon="9.611190842926337"><ele>298.8</ele><time>2026-03-27T14:25:57Z</time></trkpt><trkpt lat="45.767225880953006" lon="9.611164586353889"><ele>299.0</ele><time>2026-03-27T14:25:59Z</time></trkpt><trkpt lat="45.76729225451286" lon="9.611146255822955"><ele>299.0</ele><time>2026-03-27T14:26:00Z</time></trkpt><trkpt lat="45.76741951838704" lon="9.6111202302784"><ele>299.0</ele><time>2026-03-27T14:26:02Z</time></trkpt><trkpt lat="45.767483945213144" lon="9.611108961471361"><ele>299.0</ele><time>2026-03-27T14:26:03Z</time></trkpt><trkpt lat="45.76754951781362" lon="9.611095987883544"><ele>299.0</ele><time>2026-03-27T14:26:04Z</time></trkpt><trkpt lat="45.76761269319138" lon="9.611088309030624"><ele>299.0</ele><time>2026-03-27T14:26:05Z</time></trkpt><trkpt lat="45.76767712585088" lon="9.611077028453106"><ele>299.0</ele><time>2026-03-27T14:26:06Z</time></trkpt><trkpt lat="45.76774155029846" lon="9.61106917582651"><ele>303.0</ele><time>2026-03-27T14:26:07Z</time></trkpt><trkpt lat="45.767810961150495" lon="9.611059348329627"><ele>307.0</ele><time>2026-03-27T14:26:08Z</time></trkpt><trkpt lat="45.76793724131417" lon="9.611028606178746"><ele>311.0</ele><time>2026-03-27T14:26:10Z</time></trkpt><trkpt lat="45.768064723600936" lon="9.610992944591818"><ele>315.0</ele><time>2026-03-27T14:26:12Z</time></trkpt><trkpt lat="45.76813127143789" lon="9.610986439405636"><ele>319.0</ele><time>2026-03-27T14:26:13Z</time></trkpt><trkpt lat="45.76825587658119" lon="9.610950542317257"><ele>319.0</ele><time>2026-03-27T14:26:15Z</time></trkpt><trkpt lat="45.76832167871691" lon="9.610936439328421"><ele>319.0</ele><time>2026-03-27T14:26:16Z</time></trkpt><trkpt lat="45.76839033403419" lon="9.610927319889127"><ele>319.0</ele><time>2026-03-27T14:26:17Z</time></trkpt><trkpt lat="45.76851412903311" lon="9.610928884654632"><ele>319.0</ele><time>2026-03-27T14:26:19Z</time></trkpt><trkpt lat="45.76858579151752" lon="9.610933620327119"><ele>319.0</ele><time>2026-03-27T14:26:20Z</time></trkpt><trkpt lat="45.76871189095784" lon="9.610941994855722"><ele>319.2</ele><time>2026-03-27T14:26:22Z</time></trkpt><trkpt lat="45.7687777325262" lon="9.610947437628143"><ele>319.4</ele><time>2026-03-27T14:26:23Z</time></trkpt><trkpt lat="45.768905390626784" lon="9.610954874300296"><ele>319.6</ele><time>2026-03-27T14:26:25Z</time></trkpt><trkpt lat="45.7690311521733" lon="9.610967717872326"><ele>319.8</ele><time>2026-03-27T14:26:27Z</time></trkpt><trkpt lat="45.769158686077915" lon="9.610977984792562"><ele>320.0</ele><time>2026-03-27T14:26:29Z</time></trkpt><trkpt lat="45.76928714417008" lon="9.61098553018974"><ele>320.0</ele><time>2026-03-27T14:26:31Z</time></trkpt><trkpt lat="45.769354397170005" lon="9.61098680967152"><ele>320.0</ele><time>2026-03-27T14:26:32Z</time></trkpt><trkpt lat="45.769473486381926" lon="9.61100233338598"><ele>320.0</ele><time>2026-03-27T14:26:34Z</time></trkpt><trkpt lat="45.769542329042594" lon="9.611010859931595"><ele>320.0</ele><time>2026-03-27T14:26:35Z</time></trkpt><trkpt lat="45.769659777724314" lon="9.611034780912753"><ele>320.0</ele><time>2026-03-27T14:26:37Z</time></trkpt><trkpt lat="45.76972237292702" lon="9.611061079759068"><ele>320.0</ele><time>2026-03-27T14:26:38Z</time></trkpt><trkpt lat="45.76983573718843" lon="9.611130908417955"><ele>322.6</ele><time>2026-03-27T14:26:40Z</time></trkpt><trkpt lat="45.769882905292874" lon="9.611198672129998"><ele>325.2</ele><time>2026-03-27T14:26:41Z</time></trkpt><trkpt lat="45.76993501954934" lon="9.611251479464839"><ele>327.79999999999995</ele><time>2026-03-27T14:26:42Z</time></trkpt><trkpt lat="45.770024213330075" lon="9.61136677900092"><ele>330.4</ele><time>2026-03-27T14:26:44Z</time></trkpt><trkpt lat="45.77010947215236" lon="9.611494437795999"><ele>333.0</ele><time>2026-03-27T14:26:46Z</time></trkpt><trkpt lat="45.7701737351507" lon="9.611639895228864"><ele>328.1666666666667</ele><time>2026-03-27T14:26:48Z</time></trkpt><trkpt lat="45.770197934870566" lon="9.611745370111539"><ele>323.3333333333333</ele><time>2026-03-27T14:26:49Z</time></trkpt><trkpt lat="45.770213369110714" lon="9.611844584485533"><ele>318.5</ele><time>2026-03-27T14:26:50Z</time></trkpt><trkpt lat="45.770224579019846" lon="9.611936514280762"><ele>313.66666666666663</ele><time>2026-03-27T14:26:51Z</time></trkpt><trkpt lat="45.77025373094431" lon="9.612019037803767"><ele>308.8333333333333</ele><time>2026-03-27T14:26:52Z</time></trkpt><trkpt lat="45.770344226742885" lon="9.612105981800143"><ele>304.0</ele><time>2026-03-27T14:26:54Z</time></trkpt><trkpt lat="45.77036913245701" lon="9.61219449035049"><ele>304.0</ele><time>2026-03-27T14:26:55Z</time></trkpt><trkpt lat="45.77040039702462" lon="9.612275446226397"><ele>304.0</ele><time>2026-03-27T14:26:56Z</time></trkpt><trkpt lat="45.770431628562264" lon="9.612357596345468"><ele>304.0</ele><time>2026-03-27T14:26:57Z</time></trkpt><trkpt lat="45.77046687185185" lon="9.612433368680499"><ele>304.0</ele><time>2026-03-27T14:26:58Z</time></trkpt><trkpt lat="45.77050208613163" lon="9.612511899784801"><ele>304.0</ele><time>2026-03-27T14:26:59Z</time></trkpt><trkpt lat="45.77053540116161" lon="9.612590882820282"><ele>304.0</ele><time>2026-03-27T14:27:00Z</time></trkpt><trkpt lat="45.77060031993138" lon="9.612743036576568"><ele>304.0</ele><time>2026-03-27T14:27:02Z</time></trkpt><trkpt lat="45.77063118113202" lon="9.612822177110525"><ele>307.25</ele><time>2026-03-27T14:27:03Z</time></trkpt><trkpt lat="45.7706936760794" lon="9.61297526685043"><ele>310.5</ele><time>2026-03-27T14:27:05Z</time></trkpt><trkpt lat="45.77075587163388" lon="9.613128133065823"><ele>313.75</ele><time>2026-03-27T14:27:07Z</time></trkpt><trkpt lat="45.77081727568412" lon="9.61328077473245"><ele>317.0</ele><time>2026-03-27T14:27:09Z</time></trkpt><trkpt lat="45.77088148682519" lon="9.613428918899167"><ele>317.0</ele><time>2026-03-27T14:27:11Z</time></trkpt><trkpt lat="45.77095701685383" lon="9.613570830259427"><ele>317.0</ele><time>2026-03-27T14:27:13Z</time></trkpt><trkpt lat="45.77105264636139" lon="9.613691326525503"><ele>317.0</ele><time>2026-03-27T14:27:15Z</time></trkpt><trkpt lat="45.771165626455854" lon="9.613780292629555"><ele>317.0</ele><time>2026-03-27T14:27:17Z</time></trkpt><trkpt lat="45.77122282832143" lon="9.613818224752865"><ele>317.0</ele><time>2026-03-27T14:27:18Z</time></trkpt><trkpt lat="45.77128358695624" lon="9.613858680332669"><ele>320.5</ele><time>2026-03-27T14:27:19Z</time></trkpt><trkpt lat="45.771343746722344" lon="9.613895047474738"><ele>324.0</ele><time>2026-03-27T14:27:20Z</time></trkpt><trkpt lat="45.77140471149751" lon="9.613928619032075"><ele>327.5</ele><time>2026-03-27T14:27:21Z</time></trkpt><trkpt lat="45.7714667478607" lon="9.613963247013443"><ele>331.0</ele><time>2026-03-27T14:27:22Z</time></trkpt><trkpt lat="45.77152656351975" lon="9.613996206721284"><ele>334.5</ele><time>2026-03-27T14:27:23Z</time></trkpt><trkpt lat="45.77164406939723" lon="9.614063852059926"><ele>338.0</ele><time>2026-03-27T14:27:25Z</time></trkpt><trkpt lat="45.77171202864614" lon="9.6140953255281"><ele>338.0</ele><time>2026-03-27T14:27:26Z</time></trkpt><trkpt lat="45.771811838191006" lon="9.614166094286176"><ele>338.0</ele><time>2026-03-27T14:27:28Z</time></trkpt><trkpt lat="45.77191529060352" lon="9.614225621920008"><ele>338.0</ele><time>2026-03-27T14:27:30Z</time></trkpt><trkpt lat="45.77197602198672" lon="9.614268442747566"><ele>338.0</ele><time>2026-03-27T14:27:31Z</time></trkpt><trkpt lat="45.77203470992015" lon="9.614303590242624"><ele>338.0</ele><time>2026-03-27T14:27:32Z</time></trkpt><trkpt lat="45.772114242018695" lon="9.614337658514382"><ele>338.0</ele><time>2026-03-27T14:27:33Z</time></trkpt><trkpt lat="45.77217586000547" lon="9.614378270708771"><ele>334.0</ele><time>2026-03-27T14:27:34Z</time></trkpt><trkpt lat="45.77227165277309" lon="9.614468105894739"><ele>330.0</ele><time>2026-03-27T14:27:36Z</time></trkpt><trkpt lat="45.772331278833626" lon="9.614517258625666"><ele>326.0</ele><time>2026-03-27T14:27:37Z</time></trkpt><trkpt lat="45.77238548384425" lon="9.614568780354688"><ele>322.0</ele><time>2026-03-27T14:27:38Z</time></trkpt><trkpt lat="45.772448852488814" lon="9.614599987569616"><ele>318.0</ele><time>2026-03-27T14:27:39Z</time></trkpt><trkpt lat="45.77255995833668" lon="9.614699833621298"><ele>314.0</ele><time>2026-03-27T14:27:41Z</time></trkpt><trkpt lat="45.77261658254203" lon="9.614742511715146"><ele>319.79999999999995</ele><time>2026-03-27T14:27:42Z</time></trkpt><trkpt lat="45.77273311359424" lon="9.61483181405417"><ele>325.59999999999997</ele><time>2026-03-27T14:27:44Z</time></trkpt><trkpt lat="45.772844220849294" lon="9.614907418106416"><ele>331.4</ele><time>2026-03-27T14:27:46Z</time></trkpt><trkpt lat="45.772898198131465" lon="9.614968299834786"><ele>337.2</ele><time>2026-03-27T14:27:47Z</time></trkpt><trkpt lat="45.77295844947501" lon="9.615002906459859"><ele>343.0</ele><time>2026-03-27T14:27:48Z</time></trkpt><trkpt lat="45.77308346871478" lon="9.61504964553646"><ele>343.0</ele><time>2026-03-27T14:27:50Z</time></trkpt><trkpt lat="45.77314571680899" lon="9.615067073926191"><ele>343.0</ele><time>2026-03-27T14:27:51Z</time></trkpt><trkpt lat="45.77321031383822" lon="9.61508164857216"><ele>343.0</ele><time>2026-03-27T14:27:52Z</time></trkpt><trkpt lat="45.773275931646545" lon="9.615079833261222"><ele>343.0</ele><time>2026-03-27T14:27:53Z</time></trkpt><trkpt lat="45.77340151489383" lon="9.615069573337207"><ele>343.0</ele><time>2026-03-27T14:27:55Z</time></trkpt><trkpt lat="45.773515967570646" lon="9.615059044001253"><ele>343.0</ele><time>2026-03-27T14:27:57Z</time></trkpt><trkpt lat="45.773591905293024" lon="9.6150516372488"><ele>342.5</ele><time>2026-03-27T14:27:58Z</time></trkpt><trkpt lat="45.773708487831854" lon="9.615014214663601"><ele>342.0</ele><time>2026-03-27T14:28:00Z</time></trkpt><trkpt lat="45.77381432992727" lon="9.6150205856606"><ele>341.5</ele><time>2026-03-27T14:28:02Z</time></trkpt><trkpt lat="45.77392284848687" lon="9.614998775071049"><ele>341.0</ele><time>2026-03-27T14:28:04Z</time></trkpt><trkpt lat="45.77404713507986" lon="9.614990452701015"><ele>341.0</ele><time>2026-03-27T14:28:06Z</time></trkpt><trkpt lat="45.77411657328212" lon="9.6149806315253"><ele>341.0</ele><time>2026-03-27T14:28:07Z</time></trkpt><trkpt lat="45.77423333328318" lon="9.614966646763992"><ele>341.0</ele><time>2026-03-27T14:28:09Z</time></trkpt><trkpt lat="45.77435488262534" lon="9.614920521028255"><ele>341.0</ele><time>2026-03-27T14:28:11Z</time></trkpt><trkpt lat="45.77441639653688" lon="9.61489220614483"><ele>341.0</ele><time>2026-03-27T14:28:12Z</time></trkpt><trkpt lat="45.774479875408616" lon="9.614864922590305"><ele>341.0</ele><time>2026-03-27T14:28:13Z</time></trkpt><trkpt lat="45.77460424580729" lon="9.614811041250775"><ele>344.0</ele><time>2026-03-27T14:28:15Z</time></trkpt><trkpt lat="45.77466371293677" lon="9.614779300828085"><ele>347.0</ele><time>2026-03-27T14:28:16Z</time></trkpt><trkpt lat="45.774724761958126" lon="9.614743714856079"><ele>350.0</ele><time>2026-03-27T14:28:17Z</time></trkpt><trkpt lat="45.77478359953602" lon="9.614703318368337"><ele>353.0</ele><time>2026-03-27T14:28:18Z</time></trkpt><trkpt lat="45.7748412027338" lon="9.614655080243233"><ele>356.0</ele><time>2026-03-27T14:28:19Z</time></trkpt><trkpt lat="45.77489300209807" lon="9.614600877889112"><ele>359.0</ele><time>2026-03-27T14:28:20Z</time></trkpt><trkpt lat="45.774946245935375" lon="9.614550988241849"><ele>362.0</ele><time>2026-03-27T14:28:21Z</time></trkpt><trkpt lat="45.77499596806668" lon="9.61448932317974"><ele>360.7142857142857</ele><time>2026-03-27T14:28:22Z</time></trkpt><trkpt lat="45.77504286396764" lon="9.614426603787539"><ele>359.42857142857144</ele><time>2026-03-27T14:28:23Z</time></trkpt><trkpt lat="45.77509152464191" lon="9.614365184016211"><ele>358.1428571428571</ele><time>2026-03-27T14:28:24Z</time></trkpt><trkpt lat="45.77513849900667" lon="9.614301581354184"><ele>356.8571428571429</ele><time>2026-03-27T14:28:25Z</time></trkpt><trkpt lat="45.775186111551236" lon="9.614235894174536"><ele>355.5714285714286</ele><time>2026-03-27T14:28:26Z</time></trkpt><trkpt lat="45.77527777830169" lon="9.614112189967408"><ele>354.2857142857143</ele><time>2026-03-27T14:28:28Z</time></trkpt><trkpt lat="45.77532463082505" lon="9.614051269283811"><ele>353.0</ele><time>2026-03-27T14:28:29Z</time></trkpt><trkpt lat="45.77537107291349" lon="9.613985943335354"><ele>353.0</ele><time>2026-03-27T14:28:30Z</time></trkpt><trkpt lat="45.77542127586974" lon="9.613922639941622"><ele>353.0</ele><time>2026-03-27T14:28:31Z</time></trkpt><trkpt lat="45.77550993374881" lon="9.613798495058196"><ele>353.0</ele><time>2026-03-27T14:28:33Z</time></trkpt><trkpt lat="45.775595168117995" lon="9.613679651103924"><ele>353.0</ele><time>2026-03-27T14:28:35Z</time></trkpt><trkpt lat="45.77569227683748" lon="9.613581020823805"><ele>353.0</ele><time>2026-03-27T14:28:37Z</time></trkpt><trkpt lat="45.77579568343998" lon="9.613481941872214"><ele>350.85714285714283</ele><time>2026-03-27T14:28:39Z</time></trkpt><trkpt lat="45.775857218929026" lon="9.613442562373377"><ele>348.7142857142857</ele><time>2026-03-27T14:28:40Z</time></trkpt><trkpt lat="45.775916927887025" lon="9.613412419929093"><ele>346.57142857142856</ele><time>2026-03-27T14:28:41Z</time></trkpt><trkpt lat="45.77597545734602" lon="9.613360587049394"><ele>344.42857142857144</ele><time>2026-03-27T14:28:42Z</time></trkpt><trkpt lat="45.776036148268524" lon="9.613329311566684"><ele>342.2857142857143</ele><time>2026-03-27T14:28:43Z</time></trkpt><trkpt lat="45.77609598320984" lon="9.613294934347202"><ele>340.14285714285717</ele><time>2026-03-27T14:28:44Z</time></trkpt><trkpt lat="45.77615664542994" lon="9.613262097250727"><ele>338.0</ele><time>2026-03-27T14:28:45Z</time></trkpt><trkpt lat="45.77622073602416" lon="9.613239320265969"><ele>338.0</ele><time>2026-03-27T14:28:46Z</time></trkpt><trkpt lat="45.776281998114634" lon="9.613205628388442"><ele>338.0</ele><time>2026-03-27T14:28:47Z</time></trkpt><trkpt lat="45.776348073044375" lon="9.613203394479978"><ele>338.0</ele><time>2026-03-27T14:28:48Z</time></trkpt><trkpt lat="45.77640989726153" lon="9.613177062038877"><ele>338.0</ele><time>2026-03-27T14:28:49Z</time></trkpt><trkpt lat="45.776470978760635" lon="9.613145785652728"><ele>338.0</ele><time>2026-03-27T14:28:50Z</time></trkpt><trkpt lat="45.776537393652355" lon="9.613127601030879"><ele>338.0</ele><time>2026-03-27T14:28:51Z</time></trkpt><trkpt lat="45.7765962479128" lon="9.613092043753937"><ele>338.0</ele><time>2026-03-27T14:28:52Z</time></trkpt><trkpt lat="45.776659920755954" lon="9.613087801489693"><ele>338.0</ele><time>2026-03-27T14:28:53Z</time></trkpt><trkpt lat="45.776727600279166" lon="9.613081866045642"><ele>338.0</ele><time>2026-03-27T14:28:54Z</time></trkpt><trkpt lat="45.77679271450183" lon="9.613069241972957"><ele>338.0</ele><time>2026-03-27T14:28:55Z</time></trkpt><trkpt lat="45.77685841264386" lon="9.6130665356719"><ele>338.0</ele><time>2026-03-27T14:28:56Z</time></trkpt><trkpt lat="45.776925916950205" lon="9.613051990380571"><ele>338.0</ele><time>2026-03-27T14:28:57Z</time></trkpt><trkpt lat="45.77698749947049" lon="9.613073961012603"><ele>338.0</ele><time>2026-03-27T14:28:58Z</time></trkpt><trkpt lat="45.77705146548126" lon="9.613099246106188"><ele>338.0</ele><time>2026-03-27T14:28:59Z</time></trkpt><trkpt lat="45.77717423148053" lon="9.613137534304952"><ele>337.75</ele><time>2026-03-27T14:29:01Z</time></trkpt><trkpt lat="45.77729839397912" lon="9.613200854448179"><ele>337.5</ele><time>2026-03-27T14:29:03Z</time></trkpt><trkpt lat="45.777404431451856" lon="9.613260210312706"><ele>337.25</ele><time>2026-03-27T14:29:05Z</time></trkpt><trkpt lat="45.77752071406813" lon="9.613321503501586"><ele>337.0</ele><time>2026-03-27T14:29:07Z</time></trkpt><trkpt lat="45.77763572434254" lon="9.61338888682336"><ele>335.8333333333333</ele><time>2026-03-27T14:29:09Z</time></trkpt><trkpt lat="45.77775299297526" lon="9.613451994700744"><ele>334.66666666666663</ele><time>2026-03-27T14:29:11Z</time></trkpt><trkpt lat="45.77781501306083" lon="9.613491878362305"><ele>333.5</ele><time>2026-03-27T14:29:12Z</time></trkpt><trkpt lat="45.77787601304132" lon="9.61352184432127"><ele>332.3333333333333</ele><time>2026-03-27T14:29:13Z</time></trkpt><trkpt lat="45.77794173125228" lon="9.613552125867974"><ele>331.1666666666667</ele><time>2026-03-27T14:29:14Z</time></trkpt><trkpt lat="45.77805592360137" lon="9.613613907543032"><ele>330.0</ele><time>2026-03-27T14:29:16Z</time></trkpt><trkpt lat="45.77811700518245" lon="9.61365575487837"><ele>330.3333333333333</ele><time>2026-03-27T14:29:17Z</time></trkpt><trkpt lat="45.77817948902811" lon="9.61368921569876"><ele>330.6666666666667</ele><time>2026-03-27T14:29:18Z</time></trkpt><trkpt lat="45.778296266068786" lon="9.613754870833844"><ele>331.0</ele><time>2026-03-27T14:29:20Z</time></trkpt><trkpt lat="45.778412620883465" lon="9.613816180821122"><ele>331.33333333333337</ele><time>2026-03-27T14:29:22Z</time></trkpt><trkpt lat="45.7784732942677" lon="9.613846191522182"><ele>331.6666666666667</ele><time>2026-03-27T14:29:23Z</time></trkpt><trkpt lat="45.778532261966824" lon="9.613880651372938"><ele>332.0</ele><time>2026-03-27T14:29:24Z</time></trkpt><trkpt lat="45.77864972703809" lon="9.61394908144202"><ele>332.0</ele><time>2026-03-27T14:29:26Z</time></trkpt><trkpt lat="45.77876337802974" lon="9.613998353313807"><ele>332.0</ele><time>2026-03-27T14:29:28Z</time></trkpt><trkpt lat="45.77882216744731" lon="9.614040001216399"><ele>332.0</ele><time>2026-03-27T14:29:29Z</time></trkpt><trkpt lat="45.778883000008626" lon="9.61407670041399"><ele>332.0</ele><time>2026-03-27T14:29:30Z</time></trkpt><trkpt lat="45.77895111603303" lon="9.61409969391793"><ele>332.0</ele><time>2026-03-27T14:29:31Z</time></trkpt><trkpt lat="45.7790090248842" lon="9.614136025666678"><ele>332.0</ele><time>2026-03-27T14:29:32Z</time></trkpt><trkpt lat="45.77907247784666" lon="9.614166059262534"><ele>332.0</ele><time>2026-03-27T14:29:33Z</time></trkpt><trkpt lat="45.77913252589595" lon="9.614199495053423"><ele>332.0</ele><time>2026-03-27T14:29:34Z</time></trkpt><trkpt lat="45.77919300156722" lon="9.614234193007892"><ele>332.0</ele><time>2026-03-27T14:29:35Z</time></trkpt><trkpt lat="45.779306427852866" lon="9.614311120341362"><ele>332.0</ele><time>2026-03-27T14:29:37Z</time></trkpt><trkpt lat="45.77935968273063" lon="9.614360786824648"><ele>332.0</ele><time>2026-03-27T14:29:38Z</time></trkpt><trkpt lat="45.779407835725216" lon="9.614420329667562"><ele>332.0</ele><time>2026-03-27T14:29:39Z</time></trkpt><trkpt lat="45.77946613999226" lon="9.614484579703651"><ele>328.1428571428571</ele><time>2026-03-27T14:29:40Z</time></trkpt><trkpt lat="45.77950611380022" lon="9.614555731255845"><ele>324.28571428571433</ele><time>2026-03-27T14:29:41Z</time></trkpt><trkpt lat="45.77954430033679" lon="9.614634613180737"><ele>320.42857142857144</ele><time>2026-03-27T14:29:42Z</time></trkpt><trkpt lat="45.77958518894338" lon="9.614711994518037"><ele>316.57142857142856</ele><time>2026-03-27T14:29:43Z</time></trkpt><trkpt lat="45.77961211751836" lon="9.614803197811069"><ele>312.71428571428567</ele><time>2026-03-27T14:29:44Z</time></trkpt><trkpt lat="45.779622620318136" lon="9.614894341669727"><ele>308.8571428571429</ele><time>2026-03-27T14:29:45Z</time></trkpt><trkpt lat="45.779653597318315" lon="9.614981046137446"><ele>305.0</ele><time>2026-03-27T14:29:46Z</time></trkpt><trkpt lat="45.77965427799257" lon="9.615078671009222"><ele>305.0</ele><time>2026-03-27T14:29:47Z</time></trkpt><trkpt lat="45.779665253382056" lon="9.615168158529318"><ele>305.0</ele><time>2026-03-27T14:29:48Z</time></trkpt><trkpt lat="45.7796664649687" lon="9.6152625478414"><ele>305.0</ele><time>2026-03-27T14:29:49Z</time></trkpt><trkpt lat="45.779669205059136" lon="9.615356399938642"><ele>305.0</ele><time>2026-03-27T14:29:50Z</time></trkpt><trkpt lat="45.7796794891626" lon="9.615450212831973"><ele>305.0</ele><time>2026-03-27T14:29:51Z</time></trkpt><trkpt lat="45.77967980335757" lon="9.615544964577905"><ele>305.0</ele><time>2026-03-27T14:29:52Z</time></trkpt><trkpt lat="45.779690805937356" lon="9.615639566798182"><ele>305.0</ele><time>2026-03-27T14:29:53Z</time></trkpt><trkpt lat="45.77969909458429" lon="9.615729220369644"><ele>306.5714285714286</ele><time>2026-03-27T14:29:54Z</time></trkpt><trkpt lat="45.77969980224843" lon="9.615819796667532"><ele>308.1428571428571</ele><time>2026-03-27T14:29:55Z</time></trkpt><trkpt lat="45.779705413132724" lon="9.615915860650485"><ele>309.7142857142857</ele><time>2026-03-27T14:29:56Z</time></trkpt><trkpt lat="45.7797094921617" lon="9.616011568892386"><ele>311.28571428571433</ele><time>2026-03-27T14:29:57Z</time></trkpt><trkpt lat="45.77970959281188" lon="9.61610736455625"><ele>312.8571428571429</ele><time>2026-03-27T14:29:58Z</time></trkpt><trkpt lat="45.779720952882165" lon="9.616196597584542"><ele>314.42857142857144</ele><time>2026-03-27T14:29:59Z</time></trkpt><trkpt lat="45.779729868787335" lon="9.616297500939625"><ele>316.0</ele><time>2026-03-27T14:30:00Z</time></trkpt><trkpt lat="45.77973111834316" lon="9.616390570389873"><ele>316.16666666666663</ele><time>2026-03-27T14:30:01Z</time></trkpt><trkpt lat="45.779740149109784" lon="9.61648758619193"><ele>316.3333333333333</ele><time>2026-03-27T14:30:02Z</time></trkpt><trkpt lat="45.779746306705626" lon="9.616657727770628"><ele>316.5</ele><time>2026-03-27T14:30:04Z</time></trkpt><trkpt lat="45.779758758989324" lon="9.616763358219416"><ele>316.6666666666667</ele><time>2026-03-27T14:30:05Z</time></trkpt><trkpt lat="45.779759372012336" lon="9.616855212728348"><ele>316.83333333333337</ele><time>2026-03-27T14:30:06Z</time></trkpt><trkpt lat="45.77977035138533" lon="9.61694457236696"><ele>317.0</ele><time>2026-03-27T14:30:07Z</time></trkpt><trkpt lat="45.77977738239038" lon="9.617042604385528"><ele>317.42857142857144</ele><time>2026-03-27T14:30:08Z</time></trkpt><trkpt lat="45.77979536397412" lon="9.617135810787348"><ele>317.85714285714283</ele><time>2026-03-27T14:30:09Z</time></trkpt><trkpt lat="45.77980462512444" lon="9.617225356124829"><ele>318.2857142857143</ele><time>2026-03-27T14:30:10Z</time></trkpt><trkpt lat="45.77981886505924" lon="9.617322989961206"><ele>318.7142857142857</ele><time>2026-03-27T14:30:11Z</time></trkpt><trkpt lat="45.779830175845284" lon="9.617415732222485"><ele>319.14285714285717</ele><time>2026-03-27T14:30:12Z</time></trkpt><trkpt lat="45.7798447460559" lon="9.617509371980304"><ele>319.57142857142856</ele><time>2026-03-27T14:30:13Z</time></trkpt><trkpt lat="45.77984841323748" lon="9.617614137338856"><ele>320.0</ele><time>2026-03-27T14:30:14Z</time></trkpt><trkpt lat="45.77985742779505" lon="9.617708050530995"><ele>320.0</ele><time>2026-03-27T14:30:15Z</time></trkpt><trkpt lat="45.77985734948289" lon="9.617810876930688"><ele>320.0</ele><time>2026-03-27T14:30:16Z</time></trkpt><trkpt lat="45.779854935299035" lon="9.617908828066678"><ele>320.0</ele><time>2026-03-27T14:30:17Z</time></trkpt><trkpt lat="45.77984651724997" lon="9.618000119179454"><ele>320.0</ele><time>2026-03-27T14:30:18Z</time></trkpt><trkpt lat="45.77984504598596" lon="9.618091317999596"><ele>320.0</ele><time>2026-03-27T14:30:19Z</time></trkpt><trkpt lat="45.77983887539067" lon="9.61818236687933"><ele>320.0</ele><time>2026-03-27T14:30:20Z</time></trkpt><trkpt lat="45.77982999904624" lon="9.618353536921566"><ele>320.2</ele><time>2026-03-27T14:30:22Z</time></trkpt><trkpt lat="45.77982535652972" lon="9.618517746087731"><ele>320.4</ele><time>2026-03-27T14:30:24Z</time></trkpt><trkpt lat="45.77982399976695" lon="9.618680057720503"><ele>320.6</ele><time>2026-03-27T14:30:26Z</time></trkpt><trkpt lat="45.77983973912076" lon="9.61883673280455"><ele>320.8</ele><time>2026-03-27T14:30:28Z</time></trkpt><trkpt lat="45.7798932957952" lon="9.618962038618381"><ele>321.0</ele><time>2026-03-27T14:30:30Z</time></trkpt><trkpt lat="45.77994161103945" lon="9.619086782074284"><ele>321.3333333333333</ele><time>2026-03-27T14:30:32Z</time></trkpt><trkpt lat="45.77999186385991" lon="9.619242998816208"><ele>321.6666666666667</ele><time>2026-03-27T14:30:34Z</time></trkpt><trkpt lat="45.780017276903926" lon="9.619330104873654"><ele>322.0</ele><time>2026-03-27T14:30:35Z</time></trkpt><trkpt lat="45.780046037475415" lon="9.61941090435207"><ele>322.33333333333337</ele><time>2026-03-27T14:30:36Z</time></trkpt><trkpt lat="45.780082644277265" lon="9.61948562673423"><ele>322.6666666666667</ele><time>2026-03-27T14:30:37Z</time></trkpt><trkpt lat="45.780117662656075" lon="9.61956709367813"><ele>323.0</ele><time>2026-03-27T14:30:38Z</time></trkpt><trkpt lat="45.780188531525944" lon="9.619721709750582"><ele>321.83333333333337</ele><time>2026-03-27T14:30:40Z</time></trkpt><trkpt lat="45.78022320979905" lon="9.619803723016357"><ele>320.6666666666667</ele><time>2026-03-27T14:30:41Z</time></trkpt><trkpt lat="45.78025986161503" lon="9.619882640444844"><ele>319.5</ele><time>2026-03-27T14:30:42Z</time></trkpt><trkpt lat="45.78029419973642" lon="9.619964235030034"><ele>318.3333333333333</ele><time>2026-03-27T14:30:43Z</time></trkpt><trkpt lat="45.78033520966955" lon="9.620044687238122"><ele>317.16666666666663</ele><time>2026-03-27T14:30:44Z</time></trkpt><trkpt lat="45.78039821664852" lon="9.62020561407431"><ele>316.0</ele><time>2026-03-27T14:30:46Z</time></trkpt><trkpt lat="45.7804353456199" lon="9.620281444822202"><ele>317.3333333333333</ele><time>2026-03-27T14:30:47Z</time></trkpt><trkpt lat="45.780471109287255" lon="9.62036178530975"><ele>318.66666666666663</ele><time>2026-03-27T14:30:48Z</time></trkpt><trkpt lat="45.78050445705686" lon="9.620444351549413"><ele>320.0</ele><time>2026-03-27T14:30:49Z</time></trkpt><trkpt lat="45.780571751829825" lon="9.620601960506786"><ele>321.3333333333333</ele><time>2026-03-27T14:30:51Z</time></trkpt><trkpt lat="45.78060675830355" lon="9.620680035417573"><ele>322.6666666666667</ele><time>2026-03-27T14:30:52Z</time></trkpt><trkpt lat="45.7806407636066" lon="9.62075798139073"><ele>324.0</ele><time>2026-03-27T14:30:53Z</time></trkpt><trkpt lat="45.78067382489091" lon="9.620840363211068"><ele>324.0</ele><time>2026-03-27T14:30:54Z</time></trkpt><trkpt lat="45.78073788363535" lon="9.620997891063917"><ele>324.0</ele><time>2026-03-27T14:30:56Z</time></trkpt><trkpt lat="45.78077120860697" lon="9.621076229259454"><ele>324.0</ele><time>2026-03-27T14:30:57Z</time></trkpt><trkpt lat="45.78080779330383" lon="9.621157588799788"><ele>324.0</ele><time>2026-03-27T14:30:58Z</time></trkpt><trkpt lat="45.78084366279187" lon="9.621240088762688"><ele>324.0</ele><time>2026-03-27T14:30:59Z</time></trkpt><trkpt lat="45.780879215760855" lon="9.621318694122188"><ele>324.0</ele><time>2026-03-27T14:31:00Z</time></trkpt><trkpt lat="45.780914390896044" lon="9.621405081422747"><ele>323.42857142857144</ele><time>2026-03-27T14:31:01Z</time></trkpt><trkpt lat="45.780951548623946" lon="9.621485589290229"><ele>322.85714285714283</ele><time>2026-03-27T14:31:02Z</time></trkpt><trkpt lat="45.78098057249238" lon="9.621568681199605"><ele>322.2857142857143</ele><time>2026-03-27T14:31:03Z</time></trkpt><trkpt lat="45.7810166575133" lon="9.621653068087669"><ele>321.7142857142857</ele><time>2026-03-27T14:31:04Z</time></trkpt><trkpt lat="45.78105229729902" lon="9.621734091384358"><ele>321.14285714285717</ele><time>2026-03-27T14:31:05Z</time></trkpt><trkpt lat="45.7810880177816" lon="9.621814894808425"><ele>320.57142857142856</ele><time>2026-03-27T14:31:06Z</time></trkpt><trkpt lat="45.78112262619197" lon="9.621900146816506"><ele>320.0</ele><time>2026-03-27T14:31:07Z</time></trkpt><trkpt lat="45.781157852384915" lon="9.62198260699981"><ele>320.0</ele><time>2026-03-27T14:31:08Z</time></trkpt><trkpt lat="45.78119187791281" lon="9.622064132197421"><ele>320.0</ele><time>2026-03-27T14:31:09Z</time></trkpt><trkpt lat="45.78122988679183" lon="9.62214714186006"><ele>320.0</ele><time>2026-03-27T14:31:10Z</time></trkpt><trkpt lat="45.781264900110045" lon="9.622227030881488"><ele>320.0</ele><time>2026-03-27T14:31:11Z</time></trkpt><trkpt lat="45.78130244176804" lon="9.622303477776414"><ele>320.0</ele><time>2026-03-27T14:31:12Z</time></trkpt><trkpt lat="45.781335287505215" lon="9.622384325347253"><ele>320.0</ele><time>2026-03-27T14:31:13Z</time></trkpt><trkpt lat="45.78136668345429" lon="9.62246568835992"><ele>320.0</ele><time>2026-03-27T14:31:14Z</time></trkpt><trkpt lat="45.781433296181135" lon="9.622616506946736"><ele>320.0</ele><time>2026-03-27T14:31:16Z</time></trkpt><trkpt lat="45.781494362530175" lon="9.622769856709095"><ele>320.0</ele><time>2026-03-27T14:31:18Z</time></trkpt><trkpt lat="45.781526578736205" lon="9.6228524653642"><ele>320.0</ele><time>2026-03-27T14:31:19Z</time></trkpt><trkpt lat="45.781560777959115" lon="9.62293222391951"><ele>320.0</ele><time>2026-03-27T14:31:20Z</time></trkpt><trkpt lat="45.78159100073582" lon="9.62301465942843"><ele>320.0</ele><time>2026-03-27T14:31:21Z</time></trkpt><trkpt lat="45.781625435045505" lon="9.623096818725925"><ele>320.0</ele><time>2026-03-27T14:31:22Z</time></trkpt><trkpt lat="45.781661808501106" lon="9.623172972711627"><ele>320.5</ele><time>2026-03-27T14:31:23Z</time></trkpt><trkpt lat="45.781693380430035" lon="9.623251793925915"><ele>321.0</ele><time>2026-03-27T14:31:24Z</time></trkpt><trkpt lat="45.781764111436175" lon="9.623406513296153"><ele>321.5</ele><time>2026-03-27T14:31:26Z</time></trkpt><trkpt lat="45.78179948615709" lon="9.62348372051489"><ele>322.0</ele><time>2026-03-27T14:31:27Z</time></trkpt><trkpt lat="45.78184286863573" lon="9.623557764973132"><ele>322.5</ele><time>2026-03-27T14:31:28Z</time></trkpt><trkpt lat="45.78188186756945" lon="9.623631838594648"><ele>323.0</ele><time>2026-03-27T14:31:29Z</time></trkpt><trkpt lat="45.78192129020565" lon="9.623706893158866"><ele>322.14285714285717</ele><time>2026-03-27T14:31:30Z</time></trkpt><trkpt lat="45.78196094012223" lon="9.623782244406756"><ele>321.2857142857143</ele><time>2026-03-27T14:31:31Z</time></trkpt><trkpt lat="45.7820018371062" lon="9.62385404567598"><ele>320.42857142857144</ele><time>2026-03-27T14:31:32Z</time></trkpt><trkpt lat="45.78204127766422" lon="9.623929219671743"><ele>319.57142857142856</ele><time>2026-03-27T14:31:33Z</time></trkpt><trkpt lat="45.78207709340178" lon="9.624010261144118"><ele>318.7142857142857</ele><time>2026-03-27T14:31:34Z</time></trkpt><trkpt lat="45.782104982829594" lon="9.62409329222482"><ele>317.8571428571429</ele><time>2026-03-27T14:31:35Z</time></trkpt><trkpt lat="45.78213565109885" lon="9.624178627116377"><ele>317.0</ele><time>2026-03-27T14:31:36Z</time></trkpt><trkpt lat="45.782162958149875" lon="9.624264684793053"><ele>317.0</ele><time>2026-03-27T14:31:37Z</time></trkpt><trkpt lat="45.78219071666797" lon="9.624352574737598"><ele>317.0</ele><time>2026-03-27T14:31:38Z</time></trkpt><trkpt lat="45.78221428252457" lon="9.624441248779886"><ele>317.0</ele><time>2026-03-27T14:31:39Z</time></trkpt><trkpt lat="45.78223960465506" lon="9.624529967057565"><ele>317.0</ele><time>2026-03-27T14:31:40Z</time></trkpt><trkpt lat="45.782270725930196" lon="9.624611966043943"><ele>317.0</ele><time>2026-03-27T14:31:41Z</time></trkpt><trkpt lat="45.782304272754594" lon="9.62469349168283"><ele>317.0</ele><time>2026-03-27T14:31:42Z</time></trkpt><trkpt lat="45.7823463656996" lon="9.624775772003623"><ele>317.0</ele><time>2026-03-27T14:31:43Z</time></trkpt><trkpt lat="45.78239265064984" lon="9.624843847860209"><ele>317.7142857142857</ele><time>2026-03-27T14:31:44Z</time></trkpt><trkpt lat="45.782445336066395" lon="9.624905232173907"><ele>318.42857142857144</ele><time>2026-03-27T14:31:45Z</time></trkpt><trkpt lat="45.78250029687896" lon="9.62496115523043"><ele>319.1428571428571</ele><time>2026-03-27T14:31:46Z</time></trkpt><trkpt lat="45.78255163993979" lon="9.625018951924503"><ele>319.8571428571429</ele><time>2026-03-27T14:31:47Z</time></trkpt><trkpt lat="45.78260456598628" lon="9.625088562169964"><ele>320.57142857142856</ele><time>2026-03-27T14:31:48Z</time></trkpt><trkpt lat="45.78265280898244" lon="9.625158134457047"><ele>321.2857142857143</ele><time>2026-03-27T14:31:49Z</time></trkpt><trkpt lat="45.78270233997199" lon="9.625225451904084"><ele>322.0</ele><time>2026-03-27T14:31:50Z</time></trkpt><trkpt lat="45.782748197885326" lon="9.625303110135372"><ele>319.66666666666663</ele><time>2026-03-27T14:31:51Z</time></trkpt><trkpt lat="45.78279455713022" lon="9.625387154251067"><ele>317.3333333333333</ele><time>2026-03-27T14:31:52Z</time></trkpt><trkpt lat="45.782839955130264" lon="9.625475063003728"><ele>315.0</ele><time>2026-03-27T14:31:53Z</time></trkpt><trkpt lat="45.7828844629321" lon="9.625561200743176"><ele>312.6666666666667</ele><time>2026-03-27T14:31:54Z</time></trkpt><trkpt lat="45.78293049409727" lon="9.625647363554554"><ele>310.33333333333337</ele><time>2026-03-27T14:31:55Z</time></trkpt><trkpt lat="45.78297620967613" lon="9.625737246999355"><ele>308.0</ele><time>2026-03-27T14:31:56Z</time></trkpt><trkpt lat="45.78302515857565" lon="9.625831257022934"><ele>308.0</ele><time>2026-03-27T14:31:57Z</time></trkpt><trkpt lat="45.783074384764376" lon="9.62592294407713"><ele>308.0</ele><time>2026-03-27T14:31:58Z</time></trkpt><trkpt lat="45.783120763938186" lon="9.626018708451358"><ele>308.0</ele><time>2026-03-27T14:31:59Z</time></trkpt><trkpt lat="45.78317428989171" lon="9.626106712653863"><ele>308.0</ele><time>2026-03-27T14:32:00Z</time></trkpt><trkpt lat="45.78322699823924" lon="9.626198750559688"><ele>308.0</ele><time>2026-03-27T14:32:01Z</time></trkpt><trkpt lat="45.78327113229478" lon="9.626304787721415"><ele>308.0</ele><time>2026-03-27T14:32:02Z</time></trkpt><trkpt lat="45.783309846215914" lon="9.626416130389547"><ele>309.0</ele><time>2026-03-27T14:32:03Z</time></trkpt><trkpt lat="45.78334577062581" lon="9.626527764027182"><ele>310.0</ele><time>2026-03-27T14:32:04Z</time></trkpt><trkpt lat="45.78338077437763" lon="9.626643633731877"><ele>311.0</ele><time>2026-03-27T14:32:05Z</time></trkpt><trkpt lat="45.78341702611807" lon="9.62675817370434"><ele>312.0</ele><time>2026-03-27T14:32:06Z</time></trkpt><trkpt lat="45.78344774736355" lon="9.62687719198985"><ele>313.0</ele><time>2026-03-27T14:32:07Z</time></trkpt><trkpt lat="45.78347732102904" lon="9.626996712274368"><ele>314.0</ele><time>2026-03-27T14:32:08Z</time></trkpt><trkpt lat="45.78352813893162" lon="9.627104328721265"><ele>314.0</ele><time>2026-03-27T14:32:09Z</time></trkpt><trkpt lat="45.78357315822595" lon="9.627211783358721"><ele>314.0</ele><time>2026-03-27T14:32:10Z</time></trkpt><trkpt lat="45.78363228067391" lon="9.627314989652579"><ele>314.0</ele><time>2026-03-27T14:32:11Z</time></trkpt><trkpt lat="45.783690222582884" lon="9.627411569319426"><ele>314.0</ele><time>2026-03-27T14:32:12Z</time></trkpt><trkpt lat="45.78375821909815" lon="9.62749860964351"><ele>314.0</ele><time>2026-03-27T14:32:13Z</time></trkpt><trkpt lat="45.78382390725934" lon="9.627573015813006"><ele>314.0</ele><time>2026-03-27T14:32:14Z</time></trkpt><trkpt lat="45.78390808562657" lon="9.627630058490778"><ele>314.0</ele><time>2026-03-27T14:32:15Z</time></trkpt><trkpt lat="45.78399146517609" lon="9.627692509671892"><ele>314.0</ele><time>2026-03-27T14:32:16Z</time></trkpt><trkpt lat="45.78406221032644" lon="9.627760095375839"><ele>314.0</ele><time>2026-03-27T14:32:17Z</time></trkpt><trkpt lat="45.78414005824729" lon="9.627828795286254"><ele>314.0</ele><time>2026-03-27T14:32:18Z</time></trkpt><trkpt lat="45.78421809430174" lon="9.62789825269943"><ele>314.0</ele><time>2026-03-27T14:32:19Z</time></trkpt><trkpt lat="45.78429290566458" lon="9.627975322255852"><ele>313.0</ele><time>2026-03-27T14:32:20Z</time></trkpt><trkpt lat="45.78436053232173" lon="9.628067974191675"><ele>312.0</ele><time>2026-03-27T14:32:21Z</time></trkpt><trkpt lat="45.78442284762357" lon="9.62816772340055"><ele>311.0</ele><time>2026-03-27T14:32:22Z</time></trkpt><trkpt lat="45.78448975963702" lon="9.628259705508436"><ele>310.0</ele><time>2026-03-27T14:32:23Z</time></trkpt><trkpt lat="45.78455297920782" lon="9.628356275004661"><ele>309.0</ele><time>2026-03-27T14:32:24Z</time></trkpt><trkpt lat="45.78461182918852" lon="9.628455625050297"><ele>309.0</ele><time>2026-03-27T14:32:25Z</time></trkpt><trkpt lat="45.7846770861539" lon="9.62854855629891"><ele>309.0</ele><time>2026-03-27T14:32:26Z</time></trkpt><trkpt lat="45.784739792606" lon="9.62864131561133"><ele>309.0</ele><time>2026-03-27T14:32:27Z</time></trkpt><trkpt lat="45.784816634453115" lon="9.628721493324504"><ele>309.0</ele><time>2026-03-27T14:32:28Z</time></trkpt><trkpt lat="45.78489178875695" lon="9.628791530013206"><ele>309.0</ele><time>2026-03-27T14:32:29Z</time></trkpt><trkpt lat="45.78497553250716" lon="9.628854826185076"><ele>309.2</ele><time>2026-03-27T14:32:30Z</time></trkpt><trkpt lat="45.785053643683334" lon="9.628922170963385"><ele>309.4</ele><time>2026-03-27T14:32:31Z</time></trkpt><trkpt lat="45.78512997478447" lon="9.628996673064647"><ele>309.6</ele><time>2026-03-27T14:32:32Z</time></trkpt><trkpt lat="45.7852149209661" lon="9.629068512432523"><ele>309.8</ele><time>2026-03-27T14:32:33Z</time></trkpt><trkpt lat="45.78529475496048" lon="9.629142269062287"><ele>310.0</ele><time>2026-03-27T14:32:34Z</time></trkpt><trkpt lat="45.785377388383445" lon="9.629211075843573"><ele>310.0</ele><time>2026-03-27T14:32:35Z</time></trkpt><trkpt lat="45.78546287781132" lon="9.629283918131257"><ele>310.0</ele><time>2026-03-27T14:32:36Z</time></trkpt><trkpt lat="45.785541454238896" lon="9.629356675523555"><ele>310.0</ele><time>2026-03-27T14:32:37Z</time></trkpt><trkpt lat="45.78562561804843" lon="9.629433270896454"><ele>310.0</ele><time>2026-03-27T14:32:38Z</time></trkpt><trkpt lat="45.78571175079459" lon="9.629505574763815"><ele>310.0</ele><time>2026-03-27T14:32:39Z</time></trkpt><trkpt lat="45.78579536028504" lon="9.629578633291649"><ele>309.2</ele><time>2026-03-27T14:32:40Z</time></trkpt><trkpt lat="45.78588058221264" lon="9.629650507925264"><ele>308.4</ele><time>2026-03-27T14:32:41Z</time></trkpt><trkpt lat="45.78596300002563" lon="9.629726435775646"><ele>307.6</ele><time>2026-03-27T14:32:42Z</time></trkpt><trkpt lat="45.78604775163171" lon="9.629808294092008"><ele>306.8</ele><time>2026-03-27T14:32:43Z</time></trkpt><trkpt lat="45.786128270081385" lon="9.629888317302118"><ele>306.0</ele><time>2026-03-27T14:32:44Z</time></trkpt><trkpt lat="45.78620888364682" lon="9.62997137178194"><ele>304.8</ele><time>2026-03-27T14:32:45Z</time></trkpt><trkpt lat="45.78628746518432" lon="9.630058365486239"><ele>303.6</ele><time>2026-03-27T14:32:46Z</time></trkpt><trkpt lat="45.78636657901729" lon="9.630143655264915"><ele>302.4</ele><time>2026-03-27T14:32:47Z</time></trkpt><trkpt lat="45.78644492099933" lon="9.630221873860355"><ele>301.2</ele><time>2026-03-27T14:32:48Z</time></trkpt><trkpt lat="45.7865260152183" lon="9.630295018529388"><ele>300.0</ele><time>2026-03-27T14:32:49Z</time></trkpt><trkpt lat="45.78660610030925" lon="9.630378856417241"><ele>299.4</ele><time>2026-03-27T14:32:50Z</time></trkpt><trkpt lat="45.786680252971536" lon="9.63046200487076"><ele>298.8</ele><time>2026-03-27T14:32:51Z</time></trkpt><trkpt lat="45.786751972557944" lon="9.63054570844366"><ele>298.2</ele><time>2026-03-27T14:32:52Z</time></trkpt><trkpt lat="45.78682115237782" lon="9.630628090104102"><ele>297.6</ele><time>2026-03-27T14:32:53Z</time></trkpt><trkpt lat="45.78688869266594" lon="9.630709700732412"><ele>297.0</ele><time>2026-03-27T14:32:54Z</time></trkpt><trkpt lat="45.78695865077335" lon="9.630791697211013"><ele>300.8333333333333</ele><time>2026-03-27T14:32:55Z</time></trkpt><trkpt lat="45.78702904325568" lon="9.6308637271956"><ele>304.6666666666667</ele><time>2026-03-27T14:32:56Z</time></trkpt><trkpt lat="45.78709351185872" lon="9.630942649894548"><ele>308.5</ele><time>2026-03-27T14:32:57Z</time></trkpt><trkpt lat="45.787153164642355" lon="9.631035428852948"><ele>312.33333333333337</ele><time>2026-03-27T14:32:58Z</time></trkpt><trkpt lat="45.78719434223713" lon="9.631132849946225"><ele>316.1666666666667</ele><time>2026-03-27T14:32:59Z</time></trkpt><trkpt lat="45.787217685505574" lon="9.631246295342823"><ele>320.0</ele><time>2026-03-27T14:33:00Z</time></trkpt><trkpt lat="45.787230767785715" lon="9.631356363588795"><ele>320.0</ele><time>2026-03-27T14:33:01Z</time></trkpt><trkpt lat="45.78724980410557" lon="9.631460235287259"><ele>320.0</ele><time>2026-03-27T14:33:02Z</time></trkpt><trkpt lat="45.787264572194395" lon="9.631562618102363"><ele>320.0</ele><time>2026-03-27T14:33:03Z</time></trkpt><trkpt lat="45.78727656223875" lon="9.631667444989102"><ele>320.0</ele><time>2026-03-27T14:33:04Z</time></trkpt><trkpt lat="45.787282276482614" lon="9.631764593443837"><ele>320.0</ele><time>2026-03-27T14:33:05Z</time></trkpt><trkpt lat="45.787281183732105" lon="9.631860994050726"><ele>320.0</ele><time>2026-03-27T14:33:06Z</time></trkpt><trkpt lat="45.787286054856345" lon="9.631954745543467"><ele>320.0</ele><time>2026-03-27T14:33:07Z</time></trkpt><trkpt lat="45.787288649633894" lon="9.632052483881518"><ele>321.2</ele><time>2026-03-27T14:33:08Z</time></trkpt><trkpt lat="45.78729528226577" lon="9.632145539630205"><ele>322.4</ele><time>2026-03-27T14:33:09Z</time></trkpt><trkpt lat="45.78731163413406" lon="9.632325971781892"><ele>323.6</ele><time>2026-03-27T14:33:11Z</time></trkpt><trkpt lat="45.78734007612875" lon="9.632499576650936"><ele>324.8</ele><time>2026-03-27T14:33:13Z</time></trkpt><trkpt lat="45.78737384797081" lon="9.632669096399717"><ele>326.0</ele><time>2026-03-27T14:33:15Z</time></trkpt><trkpt lat="45.78739389372878" lon="9.632755035232803"><ele>323.14285714285717</ele><time>2026-03-27T14:33:16Z</time></trkpt><trkpt lat="45.78741312433251" lon="9.632847044891347"><ele>320.2857142857143</ele><time>2026-03-27T14:33:17Z</time></trkpt><trkpt lat="45.78743262039183" lon="9.632941217678187"><ele>317.42857142857144</ele><time>2026-03-27T14:33:18Z</time></trkpt><trkpt lat="45.7874560273073" lon="9.633033276404099"><ele>314.57142857142856</ele><time>2026-03-27T14:33:19Z</time></trkpt><trkpt lat="45.787476284575206" lon="9.633125354442615"><ele>311.7142857142857</ele><time>2026-03-27T14:33:20Z</time></trkpt><trkpt lat="45.78749639204933" lon="9.633216512803397"><ele>308.85714285714283</ele><time>2026-03-27T14:33:21Z</time></trkpt><trkpt lat="45.78751791123969" lon="9.633307670161894"><ele>306.0</ele><time>2026-03-27T14:33:22Z</time></trkpt><trkpt lat="45.787539619834256" lon="9.633400308454643"><ele>306.0</ele><time>2026-03-27T14:33:23Z</time></trkpt><trkpt lat="45.78755663088442" lon="9.633492203697823"><ele>306.0</ele><time>2026-03-27T14:33:24Z</time></trkpt><trkpt lat="45.78757011391008" lon="9.633587668381471"><ele>306.0</ele><time>2026-03-27T14:33:25Z</time></trkpt><trkpt lat="45.78758432588091" lon="9.63367983615224"><ele>306.0</ele><time>2026-03-27T14:33:26Z</time></trkpt><trkpt lat="45.78760084691959" lon="9.633773827167028"><ele>306.0</ele><time>2026-03-27T14:33:27Z</time></trkpt><trkpt lat="45.78761729270042" lon="9.633862018982267"><ele>306.0</ele><time>2026-03-27T14:33:28Z</time></trkpt><trkpt lat="45.78763433839075" lon="9.633951886844027"><ele>306.0</ele><time>2026-03-27T14:33:29Z</time></trkpt><trkpt lat="45.78765467285088" lon="9.634040003265168"><ele>304.0</ele><time>2026-03-27T14:33:30Z</time></trkpt><trkpt lat="45.7876756021733" lon="9.634126716619566"><ele>302.0</ele><time>2026-03-27T14:33:31Z</time></trkpt><trkpt lat="45.78772235163606" lon="9.634290977468273"><ele>300.0</ele><time>2026-03-27T14:33:33Z</time></trkpt><trkpt lat="45.78774995698257" lon="9.6343736171778"><ele>298.0</ele><time>2026-03-27T14:33:34Z</time></trkpt><trkpt lat="45.78781765100764" lon="9.63452669142556"><ele>296.0</ele><time>2026-03-27T14:33:36Z</time></trkpt><trkpt lat="45.78785066119902" lon="9.634605675693354"><ele>294.0</ele><time>2026-03-27T14:33:37Z</time></trkpt><trkpt lat="45.787885467356915" lon="9.63468407442029"><ele>303.1666666666667</ele><time>2026-03-27T14:33:38Z</time></trkpt><trkpt lat="45.78791880349323" lon="9.63476075679558"><ele>312.3333333333333</ele><time>2026-03-27T14:33:39Z</time></trkpt><trkpt lat="45.78798384667652" lon="9.634913076775835"><ele>321.5</ele><time>2026-03-27T14:33:41Z</time></trkpt><trkpt lat="45.78802195466603" lon="9.634989351819993"><ele>330.66666666666663</ele><time>2026-03-27T14:33:42Z</time></trkpt><trkpt lat="45.78805108972461" lon="9.63507113922501"><ele>339.8333333333333</ele><time>2026-03-27T14:33:43Z</time></trkpt><trkpt lat="45.7880786553157" lon="9.635173124597845"><ele>349.0</ele><time>2026-03-27T14:33:44Z</time></trkpt><trkpt lat="45.78810221283961" lon="9.635270863790762"><ele>344.4285714285714</ele><time>2026-03-27T14:33:45Z</time></trkpt><trkpt lat="45.78812828414307" lon="9.635368048181677"><ele>339.85714285714283</ele><time>2026-03-27T14:33:46Z</time></trkpt><trkpt lat="45.78814975362811" lon="9.635467620390878"><ele>335.2857142857143</ele><time>2026-03-27T14:33:47Z</time></trkpt><trkpt lat="45.78817369834029" lon="9.63556573838809"><ele>330.71428571428567</ele><time>2026-03-27T14:33:48Z</time></trkpt><trkpt lat="45.78819497308622" lon="9.635665263839332"><ele>326.1428571428571</ele><time>2026-03-27T14:33:49Z</time></trkpt><trkpt lat="45.78821183731903" lon="9.63576533142553"><ele>321.57142857142856</ele><time>2026-03-27T14:33:50Z</time></trkpt><trkpt lat="45.788228202793604" lon="9.63586131349048"><ele>317.0</ele><time>2026-03-27T14:33:51Z</time></trkpt><trkpt lat="45.78824527536713" lon="9.635959830650583"><ele>317.0</ele><time>2026-03-27T14:33:52Z</time></trkpt><trkpt lat="45.788265609738566" lon="9.63605430666328"><ele>317.0</ele><time>2026-03-27T14:33:53Z</time></trkpt><trkpt lat="45.78828813402412" lon="9.636143990483156"><ele>317.0</ele><time>2026-03-27T14:33:54Z</time></trkpt><trkpt lat="45.78833810699342" lon="9.636316325238962"><ele>317.0</ele><time>2026-03-27T14:33:56Z</time></trkpt><trkpt lat="45.7883738633538" lon="9.636392266756877"><ele>317.0</ele><time>2026-03-27T14:33:57Z</time></trkpt><trkpt lat="45.78840802742797" lon="9.636474574762682"><ele>317.0</ele><time>2026-03-27T14:33:58Z</time></trkpt><trkpt lat="45.78845651548048" lon="9.636645842555467"><ele>319.1666666666667</ele><time>2026-03-27T14:34:00Z</time></trkpt><trkpt lat="45.78848926125276" lon="9.636725609269021"><ele>321.33333333333337</ele><time>2026-03-27T14:34:01Z</time></trkpt><trkpt lat="45.788554932097284" lon="9.636784030826904"><ele>323.5</ele><time>2026-03-27T14:34:02Z</time></trkpt><trkpt lat="45.78862070296478" lon="9.636841017753857"><ele>325.6666666666667</ele><time>2026-03-27T14:34:03Z</time></trkpt><trkpt lat="45.78866189080707" lon="9.63691747768486"><ele>327.8333333333333</ele><time>2026-03-27T14:34:04Z</time></trkpt><trkpt lat="45.78872372674358" lon="9.637100032505408"><ele>330.0</ele><time>2026-03-27T14:34:06Z</time></trkpt><trkpt lat="45.788762629786476" lon="9.637180843945503"><ele>324.5</ele><time>2026-03-27T14:34:07Z</time></trkpt><trkpt lat="45.78880509057787" lon="9.637263350180588"><ele>319.0</ele><time>2026-03-27T14:34:08Z</time></trkpt><trkpt lat="45.78884657530284" lon="9.637347597739664"><ele>313.5</ele><time>2026-03-27T14:34:09Z</time></trkpt><trkpt lat="45.7888843396265" lon="9.637421477382427"><ele>308.0</ele><time>2026-03-27T14:34:10Z</time></trkpt><trkpt lat="45.78892435107934" lon="9.637499175050223"><ele>302.5</ele><time>2026-03-27T14:34:11Z</time></trkpt><trkpt lat="45.788964138221694" lon="9.637573428198392"><ele>297.0</ele><time>2026-03-27T14:34:12Z</time></trkpt><trkpt lat="45.78904201892057" lon="9.637719219157455"><ele>297.0</ele><time>2026-03-27T14:34:14Z</time></trkpt><trkpt lat="45.78908042004262" lon="9.637793770405253"><ele>297.0</ele><time>2026-03-27T14:34:15Z</time></trkpt><trkpt lat="45.78911115638241" lon="9.637876701942353"><ele>297.0</ele><time>2026-03-27T14:34:16Z</time></trkpt><trkpt lat="45.78914079633443" lon="9.637966548625547"><ele>297.0</ele><time>2026-03-27T14:34:17Z</time></trkpt><trkpt lat="45.78916889187137" lon="9.638051822520136"><ele>297.0</ele><time>2026-03-27T14:34:18Z</time></trkpt><trkpt lat="45.789219536732084" lon="9.638221704351123"><ele>297.0</ele><time>2026-03-27T14:34:20Z</time></trkpt><trkpt lat="45.78924290276487" lon="9.63830819836172"><ele>296.5</ele><time>2026-03-27T14:34:21Z</time></trkpt><trkpt lat="45.78926303100777" lon="9.638396206503993"><ele>296.0</ele><time>2026-03-27T14:34:22Z</time></trkpt><trkpt lat="45.78927826421197" lon="9.638485318211956"><ele>295.5</ele><time>2026-03-27T14:34:23Z</time></trkpt><trkpt lat="45.78925857996987" lon="9.638662448684064"><ele>295.0</ele><time>2026-03-27T14:34:25Z</time></trkpt><trkpt lat="45.78923060474415" lon="9.63874683339578"><ele>294.5</ele><time>2026-03-27T14:34:26Z</time></trkpt><trkpt lat="45.78922003324402" lon="9.638839640790108"><ele>294.0</ele><time>2026-03-27T14:34:27Z</time></trkpt><trkpt lat="45.78923148013799" lon="9.638933807455986"><ele>294.0</ele><time>2026-03-27T14:34:28Z</time></trkpt><trkpt lat="45.78926361920377" lon="9.639018605034325"><ele>294.0</ele><time>2026-03-27T14:34:29Z</time></trkpt><trkpt lat="45.789301000802624" lon="9.639094402512015"><ele>294.0</ele><time>2026-03-27T14:34:30Z</time></trkpt><trkpt lat="45.78933618697858" lon="9.639173969861352"><ele>294.0</ele><time>2026-03-27T14:34:31Z</time></trkpt><trkpt lat="45.78936212817495" lon="9.63926025700275"><ele>294.0</ele><time>2026-03-27T14:34:32Z</time></trkpt><trkpt lat="45.78938563560871" lon="9.639350115148057"><ele>294.0</ele><time>2026-03-27T14:34:33Z</time></trkpt><trkpt lat="45.7894259112435" lon="9.639425945378283"><ele>294.0</ele><time>2026-03-27T14:34:34Z</time></trkpt><trkpt lat="45.78947323515147" lon="9.639504190279801"><ele>294.2857142857143</ele><time>2026-03-27T14:34:35Z</time></trkpt><trkpt lat="45.789525636695714" lon="9.63957134813908"><ele>294.57142857142856</ele><time>2026-03-27T14:34:36Z</time></trkpt><trkpt lat="45.78958327483966" lon="9.639624744379109"><ele>294.8571428571429</ele><time>2026-03-27T14:34:37Z</time></trkpt><trkpt lat="45.78964454004731" lon="9.639670447667877"><ele>295.1428571428571</ele><time>2026-03-27T14:34:38Z</time></trkpt><trkpt lat="45.78969931773837" lon="9.639724152768098"><ele>295.42857142857144</ele><time>2026-03-27T14:34:39Z</time></trkpt><trkpt lat="45.7897522090959" lon="9.63978009695312"><ele>295.7142857142857</ele><time>2026-03-27T14:34:40Z</time></trkpt><trkpt lat="45.789801819110785" lon="9.639842973817464"><ele>296.0</ele><time>2026-03-27T14:34:41Z</time></trkpt><trkpt lat="45.78983861098756" lon="9.639919244664624"><ele>296.0</ele><time>2026-03-27T14:34:42Z</time></trkpt><trkpt lat="45.789865483729386" lon="9.640007350943812"><ele>296.0</ele><time>2026-03-27T14:34:43Z</time></trkpt><trkpt lat="45.789891380910724" lon="9.640094430267157"><ele>296.0</ele><time>2026-03-27T14:34:44Z</time></trkpt><trkpt lat="45.789917933887494" lon="9.640180350541085"><ele>296.0</ele><time>2026-03-27T14:34:45Z</time></trkpt><trkpt lat="45.789946662262686" lon="9.640264887619916"><ele>296.0</ele><time>2026-03-27T14:34:46Z</time></trkpt><trkpt lat="45.789976295963996" lon="9.640347875708924"><ele>296.0</ele><time>2026-03-27T14:34:47Z</time></trkpt><trkpt lat="45.790005221606165" lon="9.640430655895837"><ele>296.0</ele><time>2026-03-27T14:34:48Z</time></trkpt><trkpt lat="45.790034060538616" lon="9.640515297273794"><ele>295.0</ele><time>2026-03-27T14:34:49Z</time></trkpt><trkpt lat="45.79006288677343" lon="9.640600423894606"><ele>294.0</ele><time>2026-03-27T14:34:50Z</time></trkpt><trkpt lat="45.7900930618389" lon="9.640685409582296"><ele>293.0</ele><time>2026-03-27T14:34:51Z</time></trkpt><trkpt lat="45.7901553987854" lon="9.640848032190322"><ele>292.0</ele><time>2026-03-27T14:34:53Z</time></trkpt><trkpt lat="45.79018316685676" lon="9.64093187183196"><ele>291.0</ele><time>2026-03-27T14:34:54Z</time></trkpt><trkpt lat="45.79021159747183" lon="9.641012733552914"><ele>290.0</ele><time>2026-03-27T14:34:55Z</time></trkpt><trkpt lat="45.79024064982441" lon="9.64109646674199"><ele>290.7142857142857</ele><time>2026-03-27T14:34:56Z</time></trkpt><trkpt lat="45.7902721478346" lon="9.641175957217886"><ele>291.42857142857144</ele><time>2026-03-27T14:34:57Z</time></trkpt><trkpt lat="45.79030111923883" lon="9.641259119594151"><ele>292.14285714285717</ele><time>2026-03-27T14:34:58Z</time></trkpt><trkpt lat="45.79033331297392" lon="9.641337643974285"><ele>292.8571428571429</ele><time>2026-03-27T14:34:59Z</time></trkpt><trkpt lat="45.7903648742898" lon="9.64141650206107"><ele>293.57142857142856</ele><time>2026-03-27T14:35:00Z</time></trkpt><trkpt lat="45.790395336549395" lon="9.641500397270555"><ele>294.28571428571433</ele><time>2026-03-27T14:35:01Z</time></trkpt><trkpt lat="45.79045371640471" lon="9.641663585691905"><ele>295.0</ele><time>2026-03-27T14:35:03Z</time></trkpt><trkpt lat="45.79048307893384" lon="9.641744567314413"><ele>295.00000000000006</ele><time>2026-03-27T14:35:04Z</time></trkpt><trkpt lat="45.79051108152391" lon="9.641826744730745"><ele>295.0</ele><time>2026-03-27T14:35:05Z</time></trkpt><trkpt lat="45.79054303692931" lon="9.641904846354686"><ele>295.0</ele><time>2026-03-27T14:35:06Z</time></trkpt><trkpt lat="45.79057290465698" lon="9.641986152850013"><ele>295.0</ele><time>2026-03-27T14:35:07Z</time></trkpt><trkpt lat="45.79060074734844" lon="9.642069002093086"><ele>295.0</ele><time>2026-03-27T14:35:08Z</time></trkpt><trkpt lat="45.79062360753225" lon="9.642154809462486"><ele>295.00000000000006</ele><time>2026-03-27T14:35:09Z</time></trkpt><trkpt lat="45.790645356007204" lon="9.64224178321197"><ele>295.0</ele><time>2026-03-27T14:35:10Z</time></trkpt><trkpt lat="45.79068749238982" lon="9.64241468212114"><ele>294.7142857142857</ele><time>2026-03-27T14:35:12Z</time></trkpt><trkpt lat="45.79070426238987" lon="9.64250386607048"><ele>294.42857142857144</ele><time>2026-03-27T14:35:13Z</time></trkpt><trkpt lat="45.7907248182494" lon="9.642589542343435"><ele>294.1428571428571</ele><time>2026-03-27T14:35:14Z</time></trkpt><trkpt lat="45.790742795957875" lon="9.642679532288337"><ele>293.8571428571429</ele><time>2026-03-27T14:35:15Z</time></trkpt><trkpt lat="45.79076187964851" lon="9.642769563195639"><ele>293.57142857142856</ele><time>2026-03-27T14:35:16Z</time></trkpt><trkpt lat="45.79077982307394" lon="9.642860516500342"><ele>293.2857142857143</ele><time>2026-03-27T14:35:17Z</time></trkpt><trkpt lat="45.7907916227119" lon="9.642953602918077"><ele>293.0</ele><time>2026-03-27T14:35:18Z</time></trkpt><trkpt lat="45.790807964724806" lon="9.643047555606673"><ele>292.99999999999994</ele><time>2026-03-27T14:35:19Z</time></trkpt><trkpt lat="45.79082455938362" lon="9.643135285331494"><ele>293.0</ele><time>2026-03-27T14:35:20Z</time></trkpt><trkpt lat="45.790840317633105" lon="9.643224903185247"><ele>293.0</ele><time>2026-03-27T14:35:21Z</time></trkpt><trkpt lat="45.790859185897446" lon="9.643313317758013"><ele>293.0</ele><time>2026-03-27T14:35:22Z</time></trkpt><trkpt lat="45.79087508573887" lon="9.643404853080606"><ele>293.0</ele><time>2026-03-27T14:35:23Z</time></trkpt><trkpt lat="45.79089166176481" lon="9.643497177376334"><ele>292.99999999999994</ele><time>2026-03-27T14:35:24Z</time></trkpt><trkpt lat="45.790909244538184" lon="9.643585030573009"><ele>293.0</ele><time>2026-03-27T14:35:25Z</time></trkpt><trkpt lat="45.79092512847752" lon="9.64367250164678"><ele>293.1666666666667</ele><time>2026-03-27T14:35:26Z</time></trkpt><trkpt lat="45.790941761673025" lon="9.643762992542113"><ele>293.33333333333337</ele><time>2026-03-27T14:35:27Z</time></trkpt><trkpt lat="45.79095798423311" lon="9.643852436183943"><ele>293.5</ele><time>2026-03-27T14:35:28Z</time></trkpt><trkpt lat="45.79097462036413" lon="9.64394125479723"><ele>293.6666666666667</ele><time>2026-03-27T14:35:29Z</time></trkpt><trkpt lat="45.79099166003869" lon="9.644028756344944"><ele>293.8333333333333</ele><time>2026-03-27T14:35:30Z</time></trkpt><trkpt lat="45.79101353563058" lon="9.644117201505374"><ele>294.0</ele><time>2026-03-27T14:35:31Z</time></trkpt><trkpt lat="45.7910568656202" lon="9.64428915899463"><ele>295.14285714285717</ele><time>2026-03-27T14:35:33Z</time></trkpt><trkpt lat="45.7910772608229" lon="9.644376633109918"><ele>296.2857142857143</ele><time>2026-03-27T14:35:34Z</time></trkpt><trkpt lat="45.79109711348229" lon="9.644465087223399"><ele>297.42857142857144</ele><time>2026-03-27T14:35:35Z</time></trkpt><trkpt lat="45.79111753962956" lon="9.644552740967743"><ele>298.57142857142856</ele><time>2026-03-27T14:35:36Z</time></trkpt><trkpt lat="45.7911380939443" lon="9.644640496039143"><ele>299.7142857142857</ele><time>2026-03-27T14:35:37Z</time></trkpt><trkpt lat="45.791157617447155" lon="9.644726884411158"><ele>300.8571428571429</ele><time>2026-03-27T14:35:38Z</time></trkpt><trkpt lat="45.79118281817005" lon="9.644811819935285"><ele>302.0</ele><time>2026-03-27T14:35:39Z</time></trkpt><trkpt lat="45.79120663973478" lon="9.644898287961153"><ele>302.0</ele><time>2026-03-27T14:35:40Z</time></trkpt><trkpt lat="45.79125238308636" lon="9.645066224854105"><ele>302.0</ele><time>2026-03-27T14:35:42Z</time></trkpt><trkpt lat="45.79130383733601" lon="9.645230784381171"><ele>302.0</ele><time>2026-03-27T14:35:44Z</time></trkpt><trkpt lat="45.79132787922315" lon="9.645316567966312"><ele>302.0</ele><time>2026-03-27T14:35:45Z</time></trkpt><trkpt lat="45.79137022203349" lon="9.645481423554886"><ele>302.0</ele><time>2026-03-27T14:35:47Z</time></trkpt><trkpt lat="45.79140369818786" lon="9.645641377077043"><ele>301.2</ele><time>2026-03-27T14:35:49Z</time></trkpt><trkpt lat="45.79143767432292" lon="9.64579982590965"><ele>300.4</ele><time>2026-03-27T14:35:51Z</time></trkpt><trkpt lat="45.79146304846891" lon="9.645941720197559"><ele>299.6</ele><time>2026-03-27T14:35:53Z</time></trkpt><trkpt lat="45.791477171156245" lon="9.646078647419975"><ele>298.8</ele><time>2026-03-27T14:35:55Z</time></trkpt><trkpt lat="45.79152135400557" lon="9.646229568601777"><ele>298.0</ele><time>2026-03-27T14:35:57Z</time></trkpt><trkpt lat="45.791548394796344" lon="9.646386360408027"><ele>298.0</ele><time>2026-03-27T14:35:59Z</time></trkpt><trkpt lat="45.791578856232945" lon="9.646541891698956"><ele>298.0</ele><time>2026-03-27T14:36:01Z</time></trkpt><trkpt lat="45.79161420064084" lon="9.646714073211342"><ele>298.0</ele><time>2026-03-27T14:36:03Z</time></trkpt><trkpt lat="45.79163071459248" lon="9.646810636551734"><ele>298.0</ele><time>2026-03-27T14:36:04Z</time></trkpt><trkpt lat="45.79164901065208" lon="9.646905838299869"><ele>298.0</ele><time>2026-03-27T14:36:05Z</time></trkpt><trkpt lat="45.79166555070441" lon="9.647002590670324"><ele>298.0</ele><time>2026-03-27T14:36:06Z</time></trkpt><trkpt lat="45.791684436401106" lon="9.64710128630121"><ele>297.85714285714283</ele><time>2026-03-27T14:36:07Z</time></trkpt><trkpt lat="45.791700813861546" lon="9.647200021646846"><ele>297.71428571428567</ele><time>2026-03-27T14:36:08Z</time></trkpt><trkpt lat="45.7917206509621" lon="9.647299358946968"><ele>297.57142857142856</ele><time>2026-03-27T14:36:09Z</time></trkpt><trkpt lat="45.791738052156745" lon="9.647395852716427"><ele>297.42857142857144</ele><time>2026-03-27T14:36:10Z</time></trkpt><trkpt lat="45.79175353352764" lon="9.647495816368416"><ele>297.28571428571433</ele><time>2026-03-27T14:36:11Z</time></trkpt><trkpt lat="45.791774199034656" lon="9.647592118999336"><ele>297.14285714285717</ele><time>2026-03-27T14:36:12Z</time></trkpt><trkpt lat="45.79179974391033" lon="9.647690834731717"><ele>297.0</ele><time>2026-03-27T14:36:13Z</time></trkpt><trkpt lat="45.79180047387876" lon="9.647791409733427"><ele>296.8571428571429</ele><time>2026-03-27T14:36:14Z</time></trkpt><trkpt lat="45.79182994024074" lon="9.647878750221665"><ele>296.7142857142857</ele><time>2026-03-27T14:36:15Z</time></trkpt><trkpt lat="45.79184881504957" lon="9.647977432549755"><ele>296.57142857142856</ele><time>2026-03-27T14:36:16Z</time></trkpt><trkpt lat="45.79186378391828" lon="9.648070201077521"><ele>296.42857142857144</ele><time>2026-03-27T14:36:17Z</time></trkpt><trkpt lat="45.79187925215404" lon="9.648165984371035"><ele>296.2857142857143</ele><time>2026-03-27T14:36:18Z</time></trkpt><trkpt lat="45.79189719660876" lon="9.648263228304044"><ele>296.14285714285717</ele><time>2026-03-27T14:36:19Z</time></trkpt><trkpt lat="45.7919107387517" lon="9.64835272784556"><ele>296.0</ele><time>2026-03-27T14:36:20Z</time></trkpt><trkpt lat="45.79192199371767" lon="9.648442341414285"><ele>297.83333333333337</ele><time>2026-03-27T14:36:21Z</time></trkpt><trkpt lat="45.791938577014555" lon="9.648536393671"><ele>299.6666666666667</ele><time>2026-03-27T14:36:22Z</time></trkpt><trkpt lat="45.79195080373386" lon="9.648629900316722"><ele>301.5</ele><time>2026-03-27T14:36:23Z</time></trkpt><trkpt lat="45.79197329108677" lon="9.648805681981553"><ele>303.3333333333333</ele><time>2026-03-27T14:36:25Z</time></trkpt><trkpt lat="45.79198395553652" lon="9.648898295250302"><ele>305.16666666666663</ele><time>2026-03-27T14:36:26Z</time></trkpt><trkpt lat="45.791996046663904" lon="9.648989299566455"><ele>307.0</ele><time>2026-03-27T14:36:27Z</time></trkpt><trkpt lat="45.79201361533403" lon="9.649165869634412"><ele>307.0</ele><time>2026-03-27T14:36:29Z</time></trkpt><trkpt lat="45.79203580367311" lon="9.649319741303279"><ele>307.0</ele><time>2026-03-27T14:36:31Z</time></trkpt><trkpt lat="45.7920566900673" lon="9.64949621531206"><ele>307.0</ele><time>2026-03-27T14:36:33Z</time></trkpt><trkpt lat="45.79208704557414" lon="9.649674648220676"><ele>307.0</ele><time>2026-03-27T14:36:35Z</time></trkpt><trkpt lat="45.79210077295608" lon="9.649765123204617"><ele>307.0</ele><time>2026-03-27T14:36:36Z</time></trkpt><trkpt lat="45.79211499357054" lon="9.64985959147652"><ele>306.3333333333333</ele><time>2026-03-27T14:36:37Z</time></trkpt><trkpt lat="45.7921459249784" lon="9.650034825863202"><ele>305.66666666666663</ele><time>2026-03-27T14:36:39Z</time></trkpt><trkpt lat="45.79216208769251" lon="9.650127290227246"><ele>305.0</ele><time>2026-03-27T14:36:40Z</time></trkpt><trkpt lat="45.792176881958326" lon="9.650215963809073"><ele>304.3333333333333</ele><time>2026-03-27T14:36:41Z</time></trkpt><trkpt lat="45.7921893706217" lon="9.65030565997255"><ele>303.6666666666667</ele><time>2026-03-27T14:36:42Z</time></trkpt><trkpt lat="45.79220516087791" lon="9.65039548772373"><ele>303.0</ele><time>2026-03-27T14:36:43Z</time></trkpt><trkpt lat="45.79222272732805" lon="9.650485345516358"><ele>302.42857142857144</ele><time>2026-03-27T14:36:44Z</time></trkpt><trkpt lat="45.79223634385516" lon="9.650575060669492"><ele>301.85714285714283</ele><time>2026-03-27T14:36:45Z</time></trkpt><trkpt lat="45.79225395839816" lon="9.65066574126542"><ele>301.2857142857143</ele><time>2026-03-27T14:36:46Z</time></trkpt><trkpt lat="45.79227158945385" lon="9.65075746978501"><ele>300.7142857142857</ele><time>2026-03-27T14:36:47Z</time></trkpt><trkpt lat="45.792289398486695" lon="9.65084613403107"><ele>300.14285714285717</ele><time>2026-03-27T14:36:48Z</time></trkpt><trkpt lat="45.79230834465162" lon="9.650937823075402"><ele>299.57142857142856</ele><time>2026-03-27T14:36:49Z</time></trkpt><trkpt lat="45.79232702810984" lon="9.651025430031742"><ele>299.0</ele><time>2026-03-27T14:36:50Z</time></trkpt><trkpt lat="45.79234105523739" lon="9.6511172840516"><ele>298.85714285714283</ele><time>2026-03-27T14:36:51Z</time></trkpt><trkpt lat="45.79235976832989" lon="9.65120714127904"><ele>298.7142857142857</ele><time>2026-03-27T14:36:52Z</time></trkpt><trkpt lat="45.792376210657814" lon="9.651294304504525"><ele>298.57142857142856</ele><time>2026-03-27T14:36:53Z</time></trkpt><trkpt lat="45.79239296502294" lon="9.651384116659425"><ele>298.42857142857144</ele><time>2026-03-27T14:36:54Z</time></trkpt><trkpt lat="45.792409961206" lon="9.651474487801345"><ele>298.2857142857143</ele><time>2026-03-27T14:36:55Z</time></trkpt><trkpt lat="45.792426576298276" lon="9.651567208601794"><ele>298.1428571428571</ele><time>2026-03-27T14:36:56Z</time></trkpt><trkpt lat="45.79244556637205" lon="9.651655072561265"><ele>298.0</ele><time>2026-03-27T14:36:57Z</time></trkpt><trkpt lat="45.79246338722043" lon="9.65174456520953"><ele>298.0</ele><time>2026-03-27T14:36:58Z</time></trkpt><trkpt lat="45.79247992073274" lon="9.651832484175761"><ele>298.0</ele><time>2026-03-27T14:36:59Z</time></trkpt><trkpt lat="45.79249879820289" lon="9.651927521890167"><ele>298.0</ele><time>2026-03-27T14:37:00Z</time></trkpt><trkpt lat="45.792536275818684" lon="9.652103227958397"><ele>298.0</ele><time>2026-03-27T14:37:02Z</time></trkpt><trkpt lat="45.792570295715755" lon="9.652280704350888"><ele>298.0</ele><time>2026-03-27T14:37:04Z</time></trkpt><trkpt lat="45.792588479882674" lon="9.65236723317829"><ele>298.16666666666663</ele><time>2026-03-27T14:37:05Z</time></trkpt><trkpt lat="45.79260693169963" lon="9.652456514723154"><ele>298.3333333333333</ele><time>2026-03-27T14:37:06Z</time></trkpt><trkpt lat="45.792624786968865" lon="9.652544787803048"><ele>298.5</ele><time>2026-03-27T14:37:07Z</time></trkpt><trkpt lat="45.792643405715026" lon="9.652631536963776"><ele>298.6666666666667</ele><time>2026-03-27T14:37:08Z</time></trkpt><trkpt lat="45.79265945741405" lon="9.652719956317823"><ele>298.83333333333337</ele><time>2026-03-27T14:37:09Z</time></trkpt><trkpt lat="45.79269410622524" lon="9.652890104818718"><ele>299.0</ele><time>2026-03-27T14:37:11Z</time></trkpt><trkpt lat="45.79273335157377" lon="9.653061958618759"><ele>299.85714285714283</ele><time>2026-03-27T14:37:13Z</time></trkpt><trkpt lat="45.79275081343479" lon="9.653150083326183"><ele>300.7142857142857</ele><time>2026-03-27T14:37:14Z</time></trkpt><trkpt lat="45.79276883441043" lon="9.653239197929006"><ele>301.57142857142856</ele><time>2026-03-27T14:37:15Z</time></trkpt><trkpt lat="45.79278867127272" lon="9.653331149904004"><ele>302.42857142857144</ele><time>2026-03-27T14:37:16Z</time></trkpt><trkpt lat="45.79280714884056" lon="9.653419385473967"><ele>303.2857142857143</ele><time>2026-03-27T14:37:17Z</time></trkpt><trkpt lat="45.792823410491756" lon="9.653512804324915"><ele>304.14285714285717</ele><time>2026-03-27T14:37:18Z</time></trkpt><trkpt lat="45.79284536092854" lon="9.653603551250049"><ele>305.0</ele><time>2026-03-27T14:37:19Z</time></trkpt><trkpt lat="45.79286442072428" lon="9.653694280068912"><ele>305.1666666666667</ele><time>2026-03-27T14:37:20Z</time></trkpt><trkpt lat="45.79290062072777" lon="9.653872305090676"><ele>305.33333333333337</ele><time>2026-03-27T14:37:22Z</time></trkpt><trkpt lat="45.79291988472972" lon="9.653959235510598"><ele>305.5</ele><time>2026-03-27T14:37:23Z</time></trkpt><trkpt lat="45.792933637623314" lon="9.65404790315897"><ele>305.6666666666667</ele><time>2026-03-27T14:37:24Z</time></trkpt><trkpt lat="45.79295461955953" lon="9.654138933827815"><ele>305.8333333333333</ele><time>2026-03-27T14:37:25Z</time></trkpt><trkpt lat="45.792971439468225" lon="9.6542271718999"><ele>306.0</ele><time>2026-03-27T14:37:26Z</time></trkpt><trkpt lat="45.79298872456325" lon="9.654314963949925"><ele>306.0</ele><time>2026-03-27T14:37:27Z</time></trkpt><trkpt lat="45.7930059362851" lon="9.654406169149777"><ele>306.0</ele><time>2026-03-27T14:37:28Z</time></trkpt><trkpt lat="45.79302036159281" lon="9.654496547624083"><ele>306.0</ele><time>2026-03-27T14:37:29Z</time></trkpt><trkpt lat="45.79303622532142" lon="9.65458678005906"><ele>306.0</ele><time>2026-03-27T14:37:30Z</time></trkpt><trkpt lat="45.79304586484666" lon="9.654682140107246"><ele>306.0</ele><time>2026-03-27T14:37:31Z</time></trkpt><trkpt lat="45.79307423926079" lon="9.654858703241388"><ele>306.0</ele><time>2026-03-27T14:37:33Z</time></trkpt><trkpt lat="45.79308309251668" lon="9.654951633623421"><ele>305.8</ele><time>2026-03-27T14:37:34Z</time></trkpt><trkpt lat="45.79309434347072" lon="9.655044885508339"><ele>305.6</ele><time>2026-03-27T14:37:35Z</time></trkpt><trkpt lat="45.793101398465325" lon="9.655135734202894"><ele>305.4</ele><time>2026-03-27T14:37:36Z</time></trkpt><trkpt lat="45.79311811399291" lon="9.655310703541446"><ele>305.2</ele><time>2026-03-27T14:37:38Z</time></trkpt><trkpt lat="45.79313527218527" lon="9.655482139793396"><ele>305.0</ele><time>2026-03-27T14:37:40Z</time></trkpt><trkpt lat="45.79314609210413" lon="9.65565094559855"><ele>304.83333333333337</ele><time>2026-03-27T14:37:42Z</time></trkpt><trkpt lat="45.79315371463883" lon="9.655743400581315"><ele>304.6666666666667</ele><time>2026-03-27T14:37:43Z</time></trkpt><trkpt lat="45.79316895224799" lon="9.655927123514191"><ele>304.5</ele><time>2026-03-27T14:37:45Z</time></trkpt><trkpt lat="45.793172189624954" lon="9.65602239347145"><ele>304.3333333333333</ele><time>2026-03-27T14:37:46Z</time></trkpt><trkpt lat="45.793185447288685" lon="9.656111812359844"><ele>304.16666666666663</ele><time>2026-03-27T14:37:47Z</time></trkpt><trkpt lat="45.793188188938096" lon="9.656205172103668"><ele>304.0</ele><time>2026-03-27T14:37:48Z</time></trkpt><trkpt lat="45.793195886440465" lon="9.65629930339768"><ele>304.2</ele><time>2026-03-27T14:37:49Z</time></trkpt><trkpt lat="45.79320879727161" lon="9.656478703980527"><ele>304.4</ele><time>2026-03-27T14:37:51Z</time></trkpt><trkpt lat="45.79321835826368" lon="9.656571219355332"><ele>304.6</ele><time>2026-03-27T14:37:52Z</time></trkpt><trkpt lat="45.7932320210617" lon="9.656752439650502"><ele>304.8</ele><time>2026-03-27T14:37:54Z</time></trkpt><trkpt lat="45.79324265510886" lon="9.656933267451139"><ele>305.0</ele><time>2026-03-27T14:37:56Z</time></trkpt><trkpt lat="45.79324815030534" lon="9.657025266937287"><ele>305.0</ele><time>2026-03-27T14:37:57Z</time></trkpt><trkpt lat="45.79326150992629" lon="9.657204668300285"><ele>305.0</ele><time>2026-03-27T14:37:59Z</time></trkpt><trkpt lat="45.793261861461936" lon="9.657298213254334"><ele>305.0</ele><time>2026-03-27T14:38:00Z</time></trkpt><trkpt lat="45.79327532726304" lon="9.657476967679994"><ele>305.0</ele><time>2026-03-27T14:38:02Z</time></trkpt><trkpt lat="45.793277058395134" lon="9.657573616326223"><ele>305.0</ele><time>2026-03-27T14:38:03Z</time></trkpt><trkpt lat="45.793286360530345" lon="9.657753436093678"><ele>305.0</ele><time>2026-03-27T14:38:05Z</time></trkpt><trkpt lat="45.793290588301794" lon="9.657846152158523"><ele>305.0</ele><time>2026-03-27T14:38:06Z</time></trkpt><trkpt lat="45.79329461768888" lon="9.657941079967713"><ele>305.0</ele><time>2026-03-27T14:38:07Z</time></trkpt><trkpt lat="45.79330346077593" lon="9.658122076705244"><ele>305.0</ele><time>2026-03-27T14:38:09Z</time></trkpt><trkpt lat="45.79330661757625" lon="9.658215962704244"><ele>305.0</ele><time>2026-03-27T14:38:10Z</time></trkpt><trkpt lat="45.79330639033514" lon="9.658309492815299"><ele>305.0</ele><time>2026-03-27T14:38:11Z</time></trkpt><trkpt lat="45.79330437454291" lon="9.658492363343944"><ele>305.0</ele><time>2026-03-27T14:38:13Z</time></trkpt><trkpt lat="45.79330158576954" lon="9.658586832598225"><ele>305.0</ele><time>2026-03-27T14:38:14Z</time></trkpt><trkpt lat="45.793306031069356" lon="9.65867919833771"><ele>305.0</ele><time>2026-03-27T14:38:15Z</time></trkpt><trkpt lat="45.793303673605415" lon="9.658861911510117"><ele>305.0</ele><time>2026-03-27T14:38:17Z</time></trkpt><trkpt lat="45.793308858298616" lon="9.659041682620085"><ele>305.0</ele><time>2026-03-27T14:38:19Z</time></trkpt><trkpt lat="45.79330392572973" lon="9.659220548456599"><ele>305.0</ele><time>2026-03-27T14:38:21Z</time></trkpt><trkpt lat="45.79328988149357" lon="9.659311842343085"><ele>305.0</ele><time>2026-03-27T14:38:22Z</time></trkpt><trkpt lat="45.79325237063118" lon="9.659386260771164"><ele>305.0</ele><time>2026-03-27T14:38:23Z</time></trkpt><trkpt lat="45.79320505807796" lon="9.65944863634022"><ele>305.0</ele><time>2026-03-27T14:38:24Z</time></trkpt><trkpt lat="45.793151698913206" lon="9.659497637344975"><ele>305.0</ele><time>2026-03-27T14:38:25Z</time></trkpt><trkpt lat="45.79309702401911" lon="9.659542705965665"><ele>305.0</ele><time>2026-03-27T14:38:26Z</time></trkpt><trkpt lat="45.79303871450066" lon="9.659585253147666"><ele>305.0</ele><time>2026-03-27T14:38:27Z</time></trkpt><trkpt lat="45.79297977182022" lon="9.659625421121602"><ele>304.7142857142857</ele><time>2026-03-27T14:38:28Z</time></trkpt><trkpt lat="45.792922641407486" lon="9.65967064421555"><ele>304.4285714285714</ele><time>2026-03-27T14:38:29Z</time></trkpt><trkpt lat="45.79286415369658" lon="9.659707121714556"><ele>304.1428571428571</ele><time>2026-03-27T14:38:30Z</time></trkpt><trkpt lat="45.79280566817914" lon="9.659749074782049"><ele>303.8571428571429</ele><time>2026-03-27T14:38:31Z</time></trkpt><trkpt lat="45.792748903540165" lon="9.659790635317949"><ele>303.57142857142856</ele><time>2026-03-27T14:38:32Z</time></trkpt><trkpt lat="45.792694754945245" lon="9.659838638998304"><ele>303.2857142857143</ele><time>2026-03-27T14:38:33Z</time></trkpt><trkpt lat="45.79264022798075" lon="9.659888533401096"><ele>303.0</ele><time>2026-03-27T14:38:34Z</time></trkpt><trkpt lat="45.79259053060811" lon="9.65994417717213"><ele>303.0</ele><time>2026-03-27T14:38:35Z</time></trkpt><trkpt lat="45.79254431349931" lon="9.660007933687965"><ele>303.0</ele><time>2026-03-27T14:38:36Z</time></trkpt><trkpt lat="45.79250073744142" lon="9.660073231642368"><ele>303.0</ele><time>2026-03-27T14:38:37Z</time></trkpt><trkpt lat="45.7924604496492" lon="9.660146769024337"><ele>303.0</ele><time>2026-03-27T14:38:38Z</time></trkpt><trkpt lat="45.79242679404711" lon="9.660224768042697"><ele>303.0</ele><time>2026-03-27T14:38:39Z</time></trkpt><trkpt lat="45.79239622301716" lon="9.660305631910157"><ele>303.0</ele><time>2026-03-27T14:38:40Z</time></trkpt><trkpt lat="45.79237292300666" lon="9.660396784921327"><ele>303.0</ele><time>2026-03-27T14:38:41Z</time></trkpt><trkpt lat="45.79235546436322" lon="9.6604839608986"><ele>303.14285714285717</ele><time>2026-03-27T14:38:42Z</time></trkpt><trkpt lat="45.79234800235801" lon="9.660576538631583"><ele>303.2857142857143</ele><time>2026-03-27T14:38:43Z</time></trkpt><trkpt lat="45.79233358749927" lon="9.660664838457727"><ele>303.42857142857144</ele><time>2026-03-27T14:38:44Z</time></trkpt><trkpt lat="45.79232363076467" lon="9.660755332658992"><ele>303.57142857142856</ele><time>2026-03-27T14:38:45Z</time></trkpt><trkpt lat="45.792318402274915" lon="9.660846321223438"><ele>303.7142857142857</ele><time>2026-03-27T14:38:46Z</time></trkpt><trkpt lat="45.79230529176362" lon="9.660935153040336"><ele>303.85714285714283</ele><time>2026-03-27T14:38:47Z</time></trkpt><trkpt lat="45.79229650557927" lon="9.661027419313507"><ele>304.0</ele><time>2026-03-27T14:38:48Z</time></trkpt><trkpt lat="45.79228097317482" lon="9.661198521429409"><ele>304.66666666666663</ele><time>2026-03-27T14:38:50Z</time></trkpt><trkpt lat="45.79226554535169" lon="9.661360712988708"><ele>305.3333333333333</ele><time>2026-03-27T14:38:52Z</time></trkpt><trkpt lat="45.79225645301413" lon="9.661453239047683"><ele>306.0</ele><time>2026-03-27T14:38:53Z</time></trkpt><trkpt lat="45.79224307798932" lon="9.661543069342402"><ele>306.6666666666667</ele><time>2026-03-27T14:38:54Z</time></trkpt><trkpt lat="45.79223513575432" lon="9.66163481850609"><ele>307.33333333333337</ele><time>2026-03-27T14:38:55Z</time></trkpt><trkpt lat="45.79222047421739" lon="9.661809608485768"><ele>308.0</ele><time>2026-03-27T14:38:57Z</time></trkpt><trkpt lat="45.79221037166592" lon="9.661907852780383"><ele>308.33333333333337</ele><time>2026-03-27T14:38:58Z</time></trkpt><trkpt lat="45.79220307123721" lon="9.662085212240362"><ele>308.6666666666667</ele><time>2026-03-27T14:39:00Z</time></trkpt><trkpt lat="45.79219963936228" lon="9.662176464896818"><ele>309.0</ele><time>2026-03-27T14:39:01Z</time></trkpt><trkpt lat="45.79219398293243" lon="9.662268994248615"><ele>309.3333333333333</ele><time>2026-03-27T14:39:02Z</time></trkpt><trkpt lat="45.792192818365976" lon="9.662360871588373"><ele>309.66666666666663</ele><time>2026-03-27T14:39:03Z</time></trkpt><trkpt lat="45.792183967531756" lon="9.662542037165538"><ele>310.0</ele><time>2026-03-27T14:39:05Z</time></trkpt><trkpt lat="45.79217388075809" lon="9.662719927525636"><ele>310.0</ele><time>2026-03-27T14:39:07Z</time></trkpt><trkpt lat="45.792170514938874" lon="9.662812513779924"><ele>310.0</ele><time>2026-03-27T14:39:08Z</time></trkpt><trkpt lat="45.792165001568755" lon="9.662905523851405"><ele>310.0</ele><time>2026-03-27T14:39:09Z</time></trkpt><trkpt lat="45.7921594968944" lon="9.66299687332633"><ele>310.0</ele><time>2026-03-27T14:39:10Z</time></trkpt><trkpt lat="45.792150410766304" lon="9.663177295395045"><ele>310.0</ele><time>2026-03-27T14:39:12Z</time></trkpt><trkpt lat="45.79214857453918" lon="9.663269373631417"><ele>310.0</ele><time>2026-03-27T14:39:13Z</time></trkpt><trkpt lat="45.792146277088044" lon="9.663360654046949"><ele>310.0</ele><time>2026-03-27T14:39:14Z</time></trkpt><trkpt lat="45.792145894910185" lon="9.663543053078834"><ele>310.2</ele><time>2026-03-27T14:39:16Z</time></trkpt><trkpt lat="45.792145039328545" lon="9.663724495555286"><ele>310.4</ele><time>2026-03-27T14:39:18Z</time></trkpt><trkpt lat="45.79215322455935" lon="9.663901293237085"><ele>310.6</ele><time>2026-03-27T14:39:20Z</time></trkpt><trkpt lat="45.79216285617721" lon="9.663990565125598"><ele>310.8</ele><time>2026-03-27T14:39:21Z</time></trkpt><trkpt lat="45.79217884785274" lon="9.664079954926851"><ele>311.0</ele><time>2026-03-27T14:39:22Z</time></trkpt><trkpt lat="45.79221689342314" lon="9.664252055762413"><ele>311.0</ele><time>2026-03-27T14:39:24Z</time></trkpt><trkpt lat="45.79223904001008" lon="9.664339708933149"><ele>311.0</ele><time>2026-03-27T14:39:25Z</time></trkpt><trkpt lat="45.792262201264734" lon="9.664424565714981"><ele>311.0</ele><time>2026-03-27T14:39:26Z</time></trkpt><trkpt lat="45.79228869322254" lon="9.66450726207275"><ele>311.0</ele><time>2026-03-27T14:39:27Z</time></trkpt><trkpt lat="45.792348067468694" lon="9.664666583495041"><ele>311.0</ele><time>2026-03-27T14:39:29Z</time></trkpt><trkpt lat="45.7923958636488" lon="9.664823079463215"><ele>311.0</ele><time>2026-03-27T14:39:31Z</time></trkpt><trkpt lat="45.7924247840485" lon="9.664904301639426"><ele>311.0</ele><time>2026-03-27T14:39:32Z</time></trkpt><trkpt lat="45.79247226570752" lon="9.665066036044259"><ele>311.0</ele><time>2026-03-27T14:39:34Z</time></trkpt><trkpt lat="45.79252435971999" lon="9.665222940955472"><ele>311.0</ele><time>2026-03-27T14:39:36Z</time></trkpt><trkpt lat="45.79255364501789" lon="9.665303913789627"><ele>311.0</ele><time>2026-03-27T14:39:37Z</time></trkpt><trkpt lat="45.7926087334387" lon="9.665464830501532"><ele>311.0</ele><time>2026-03-27T14:39:39Z</time></trkpt><trkpt lat="45.79265283750442" lon="9.665626752999149"><ele>312.0</ele><time>2026-03-27T14:39:41Z</time></trkpt><trkpt lat="45.79268051184278" lon="9.665707941631599"><ele>313.0</ele><time>2026-03-27T14:39:42Z</time></trkpt><trkpt lat="45.79273476702815" lon="9.665868662100964"><ele>314.0</ele><time>2026-03-27T14:39:44Z</time></trkpt><trkpt lat="45.792786329347926" lon="9.666029348610135"><ele>315.0</ele><time>2026-03-27T14:39:46Z</time></trkpt><trkpt lat="45.792841178176374" lon="9.666186790618745"><ele>316.0</ele><time>2026-03-27T14:39:48Z</time></trkpt><trkpt lat="45.79289014038285" lon="9.666346870147247"><ele>316.2</ele><time>2026-03-27T14:39:50Z</time></trkpt><trkpt lat="45.79291693723097" lon="9.666432431937396"><ele>316.40000000000003</ele><time>2026-03-27T14:39:51Z</time></trkpt><trkpt lat="45.792968815579854" lon="9.66658594216813"><ele>316.6</ele><time>2026-03-27T14:39:53Z</time></trkpt><trkpt lat="45.79299492714768" lon="9.666668958032492"><ele>316.8</ele><time>2026-03-27T14:39:54Z</time></trkpt><trkpt lat="45.793046968458526" lon="9.66683127416671"><ele>317.0</ele><time>2026-03-27T14:39:56Z</time></trkpt><trkpt lat="45.79309912731874" lon="9.66699308732039"><ele>317.2857142857143</ele><time>2026-03-27T14:39:58Z</time></trkpt><trkpt lat="45.79312221137076" lon="9.667078915438422"><ele>317.57142857142856</ele><time>2026-03-27T14:39:59Z</time></trkpt><trkpt lat="45.793150436699136" lon="9.667159951447916"><ele>317.8571428571429</ele><time>2026-03-27T14:40:00Z</time></trkpt><trkpt lat="45.79318244877794" lon="9.667242786976777"><ele>318.1428571428571</ele><time>2026-03-27T14:40:01Z</time></trkpt><trkpt lat="45.79320965851478" lon="9.667324646007616"><ele>318.4285714285714</ele><time>2026-03-27T14:40:02Z</time></trkpt><trkpt lat="45.79326468365641" lon="9.66749077873671"><ele>318.7142857142857</ele><time>2026-03-27T14:40:04Z</time></trkpt><trkpt lat="45.79329304999387" lon="9.667573396613983"><ele>319.0</ele><time>2026-03-27T14:40:05Z</time></trkpt><trkpt lat="45.79334389609745" lon="9.667734170693713"><ele>318.75</ele><time>2026-03-27T14:40:07Z</time></trkpt><trkpt lat="45.793407299163704" lon="9.667894004889048"><ele>318.5</ele><time>2026-03-27T14:40:09Z</time></trkpt><trkpt lat="45.793458527253" lon="9.668059497407603"><ele>318.25</ele><time>2026-03-27T14:40:11Z</time></trkpt><trkpt lat="45.79351709234788" lon="9.668214568312244"><ele>318.0</ele><time>2026-03-27T14:40:13Z</time></trkpt><trkpt lat="45.79359005743335" lon="9.66835757414158"><ele>318.2</ele><time>2026-03-27T14:40:15Z</time></trkpt><trkpt lat="45.79367704962823" lon="9.668485004923689"><ele>318.4</ele><time>2026-03-27T14:40:17Z</time></trkpt><trkpt lat="45.79377154038203" lon="9.668593746602761"><ele>318.59999999999997</ele><time>2026-03-27T14:40:19Z</time></trkpt><trkpt lat="45.79382067120216" lon="9.668653275381587"><ele>318.8</ele><time>2026-03-27T14:40:20Z</time></trkpt><trkpt lat="45.793917693608655" lon="9.668754621764528"><ele>319.0</ele><time>2026-03-27T14:40:22Z</time></trkpt><trkpt lat="45.79401427773307" lon="9.66885739565596"><ele>319.0</ele><time>2026-03-27T14:40:24Z</time></trkpt><trkpt lat="45.79406307478616" lon="9.668915002994657"><ele>319.0</ele><time>2026-03-27T14:40:25Z</time></trkpt><trkpt lat="45.79415937929051" lon="9.669025550144449"><ele>319.0</ele><time>2026-03-27T14:40:27Z</time></trkpt><trkpt lat="45.794258921753745" lon="9.669130915105947"><ele>319.0</ele><time>2026-03-27T14:40:29Z</time></trkpt><trkpt lat="45.79435730607628" lon="9.669229466250602"><ele>319.0</ele><time>2026-03-27T14:40:31Z</time></trkpt><trkpt lat="45.79441026163612" lon="9.669278425918511"><ele>319.66666666666663</ele><time>2026-03-27T14:40:32Z</time></trkpt><trkpt lat="45.79446465108199" lon="9.669327059017574"><ele>320.3333333333333</ele><time>2026-03-27T14:40:33Z</time></trkpt><trkpt lat="45.79457063430795" lon="9.669415819697056"><ele>321.0</ele><time>2026-03-27T14:40:35Z</time></trkpt><trkpt lat="45.79462954888119" lon="9.669456959141318"><ele>321.6666666666667</ele><time>2026-03-27T14:40:36Z</time></trkpt><trkpt lat="45.794739343820886" lon="9.66951934969484"><ele>322.33333333333337</ele><time>2026-03-27T14:40:38Z</time></trkpt><trkpt lat="45.79479921860202" lon="9.669550089871263"><ele>323.0</ele><time>2026-03-27T14:40:39Z</time></trkpt><trkpt lat="45.794909694054176" lon="9.669582441527481"><ele>321.4</ele><time>2026-03-27T14:40:41Z</time></trkpt><trkpt lat="45.79496999453043" lon="9.669617850070209"><ele>319.79999999999995</ele><time>2026-03-27T14:40:42Z</time></trkpt><trkpt lat="45.795071537387955" lon="9.669712375666988"><ele>318.2</ele><time>2026-03-27T14:40:44Z</time></trkpt><trkpt lat="45.79515685199801" lon="9.669825312383335"><ele>316.6</ele><time>2026-03-27T14:40:46Z</time></trkpt><trkpt lat="45.7952356433636" lon="9.669952495446664"><ele>315.0</ele><time>2026-03-27T14:40:48Z</time></trkpt><trkpt lat="45.795287952835544" lon="9.670109385701242"><ele>315.0</ele><time>2026-03-27T14:40:50Z</time></trkpt><trkpt lat="45.79533365376298" lon="9.670268333358692"><ele>315.0</ele><time>2026-03-27T14:40:52Z</time></trkpt><trkpt lat="45.79538923456765" lon="9.670424817535425"><ele>315.0</ele><time>2026-03-27T14:40:54Z</time></trkpt><trkpt lat="45.795441111509156" lon="9.670579700487497"><ele>315.0</ele><time>2026-03-27T14:40:56Z</time></trkpt><trkpt lat="45.79549953071814" lon="9.670731379652725"><ele>314.8</ele><time>2026-03-27T14:40:58Z</time></trkpt><trkpt lat="45.795553716448254" lon="9.670887209892138"><ele>314.6</ele><time>2026-03-27T14:41:00Z</time></trkpt><trkpt lat="45.795600542565836" lon="9.671020536265317"><ele>314.4</ele><time>2026-03-27T14:41:02Z</time></trkpt><trkpt lat="45.79564597428405" lon="9.67114432655832"><ele>314.2</ele><time>2026-03-27T14:41:04Z</time></trkpt><trkpt lat="45.79570009726711" lon="9.671298244897645"><ele>314.0</ele><time>2026-03-27T14:41:06Z</time></trkpt><trkpt lat="45.79576112920169" lon="9.671443807621014"><ele>317.4</ele><time>2026-03-27T14:41:08Z</time></trkpt><trkpt lat="45.795828930911725" lon="9.67156918259205"><ele>320.79999999999995</ele><time>2026-03-27T14:41:10Z</time></trkpt><trkpt lat="45.795945347604324" lon="9.671598877052402"><ele>324.20000000000005</ele><time>2026-03-27T14:41:12Z</time></trkpt><trkpt lat="45.79605271745252" lon="9.671538186295887"><ele>327.6</ele><time>2026-03-27T14:41:14Z</time></trkpt><trkpt lat="45.79612651749951" lon="9.671503086915681"><ele>331.0</ele><time>2026-03-27T14:41:16Z</time></trkpt><trkpt lat="45.796168435459364" lon="9.671605167638976"><ele>331.0</ele><time>2026-03-27T14:41:18Z</time></trkpt><trkpt lat="45.79611059274264" lon="9.671702487280399"><ele>331.0</ele><time>2026-03-27T14:41:20Z</time></trkpt><trkpt lat="45.79601690197053" lon="9.671732998643561"><ele>331.0</ele><time>2026-03-27T14:41:22Z</time></trkpt><trkpt lat="45.795929284665384" lon="9.67181592310499"><ele>331.0</ele><time>2026-03-27T14:41:24Z</time></trkpt><trkpt lat="45.79583593160349" lon="9.671918564096822"><ele>331.0</ele><time>2026-03-27T14:41:26Z</time></trkpt><trkpt lat="45.79574341954143" lon="9.672015931891986"><ele>336.0</ele><time>2026-03-27T14:41:28Z</time></trkpt><trkpt lat="45.79565736622647" lon="9.672115982592736"><ele>341.0</ele><time>2026-03-27T14:41:30Z</time></trkpt><trkpt lat="45.795575831646076" lon="9.672227602380534"><ele>346.0</ele><time>2026-03-27T14:41:32Z</time></trkpt><trkpt lat="45.795498971166204" lon="9.67234854178215"><ele>351.0</ele><time>2026-03-27T14:41:34Z</time></trkpt><trkpt lat="45.79542696056804" lon="9.672477550764148"><ele>351.0</ele><time>2026-03-27T14:41:36Z</time></trkpt><trkpt lat="45.795368518776286" lon="9.672618096480818"><ele>351.0</ele><time>2026-03-27T14:41:38Z</time></trkpt><trkpt lat="45.79535805132031" lon="9.672791494005208"><ele>351.0</ele><time>2026-03-27T14:41:40Z</time></trkpt><trkpt lat="45.79536118570123" lon="9.672963649029096"><ele>351.0</ele><time>2026-03-27T14:41:42Z</time></trkpt><trkpt lat="45.79537955650982" lon="9.673133611228392"><ele>354.0</ele><time>2026-03-27T14:41:44Z</time></trkpt><trkpt lat="45.79538277547509" lon="9.673306267053043"><ele>357.0</ele><time>2026-03-27T14:41:46Z</time></trkpt><trkpt lat="45.795372169803784" lon="9.673467998762424"><ele>360.0</ele><time>2026-03-27T14:41:48Z</time></trkpt><trkpt lat="45.79534748979555" lon="9.673627227004163"><ele>363.0</ele><time>2026-03-27T14:41:50Z</time></trkpt><trkpt lat="45.79538659540552" lon="9.673775803833472"><ele>362.99999999999994</ele><time>2026-03-27T14:41:52Z</time></trkpt><trkpt lat="45.79544961004846" lon="9.673792902438606"><ele>363.0</ele><time>2026-03-27T14:41:53Z</time></trkpt><trkpt lat="45.79551019968162" lon="9.67374872026912"><ele>363.0</ele><time>2026-03-27T14:41:54Z</time></trkpt><trkpt lat="45.79553839319901" lon="9.67365698850817"><ele>363.0</ele><time>2026-03-27T14:41:55Z</time></trkpt><trkpt lat="45.79553081486539" lon="9.673559762017515"><ele>363.0</ele><time>2026-03-27T14:41:56Z</time></trkpt><trkpt lat="45.79551016095375" lon="9.673468881398936"><ele>362.99999999999994</ele><time>2026-03-27T14:41:57Z</time></trkpt><trkpt lat="45.79549415956492" lon="9.67337756733897"><ele>363.0</ele><time>2026-03-27T14:41:58Z</time></trkpt><trkpt lat="45.79547922661146" lon="9.673211118645872"><ele>363.0</ele><time>2026-03-27T14:42:00Z</time></trkpt><trkpt lat="45.7954855746874" lon="9.673049523692619"><ele>363.0</ele><time>2026-03-27T14:42:02Z</time></trkpt><trkpt lat="45.795491424816156" lon="9.67288238707568"><ele>363.0</ele><time>2026-03-27T14:42:04Z</time></trkpt><trkpt lat="45.79550790452964" lon="9.672719141720663"><ele>363.0</ele><time>2026-03-27T14:42:06Z</time></trkpt><trkpt lat="45.795576236547106" lon="9.672589226437873"><ele>360.0</ele><time>2026-03-27T14:42:08Z</time></trkpt><trkpt lat="45.79567330705494" lon="9.672485641137506"><ele>357.0</ele><time>2026-03-27T14:42:10Z</time></trkpt><trkpt lat="45.795764127853566" lon="9.672373658708683"><ele>354.0</ele><time>2026-03-27T14:42:12Z</time></trkpt><trkpt lat="45.7958578957549" lon="9.672276808069887"><ele>351.0</ele><time>2026-03-27T14:42:14Z</time></trkpt><trkpt lat="45.795960651910775" lon="9.672203000569503"><ele>354.25</ele><time>2026-03-27T14:42:16Z</time></trkpt><trkpt lat="45.796070857102485" lon="9.672147741223652"><ele>357.5</ele><time>2026-03-27T14:42:18Z</time></trkpt><trkpt lat="45.79618289450332" lon="9.672111532790403"><ele>360.75</ele><time>2026-03-27T14:42:20Z</time></trkpt><trkpt lat="45.796295379631594" lon="9.67207462043476"><ele>364.0</ele><time>2026-03-27T14:42:22Z</time></trkpt><trkpt lat="45.796406651711706" lon="9.67203729497293"><ele>364.0</ele><time>2026-03-27T14:42:24Z</time></trkpt><trkpt lat="45.796519079530796" lon="9.67200204611899"><ele>364.0</ele><time>2026-03-27T14:42:26Z</time></trkpt><trkpt lat="45.79662542090995" lon="9.671974486163288"><ele>364.0</ele><time>2026-03-27T14:42:28Z</time></trkpt><trkpt lat="45.796737970240464" lon="9.67199128165681"><ele>364.0</ele><time>2026-03-27T14:42:30Z</time></trkpt><trkpt lat="45.7967959959825" lon="9.672028212717748"><ele>364.0</ele><time>2026-03-27T14:42:31Z</time></trkpt><trkpt lat="45.79690927386251" lon="9.67203599138832"><ele>365.0</ele><time>2026-03-27T14:42:33Z</time></trkpt><trkpt lat="45.797022006392474" lon="9.6719915389237"><ele>366.0</ele><time>2026-03-27T14:42:35Z</time></trkpt><trkpt lat="45.79708257491257" lon="9.671950475306298"><ele>367.0</ele><time>2026-03-27T14:42:36Z</time></trkpt><trkpt lat="45.79719783029663" lon="9.671882947719295"><ele>368.0</ele><time>2026-03-27T14:42:38Z</time></trkpt><trkpt lat="45.79731873809318" lon="9.671863423749867"><ele>369.0</ele><time>2026-03-27T14:42:40Z</time></trkpt><trkpt lat="45.79743997695849" lon="9.671861197518602"><ele>365.25</ele><time>2026-03-27T14:42:42Z</time></trkpt><trkpt lat="45.79756656904152" lon="9.671866854743389"><ele>361.5</ele><time>2026-03-27T14:42:44Z</time></trkpt><trkpt lat="45.79768084796947" lon="9.67185270642139"><ele>357.75</ele><time>2026-03-27T14:42:46Z</time></trkpt><trkpt lat="45.797796951757014" lon="9.671828066435932"><ele>354.0</ele><time>2026-03-27T14:42:48Z</time></trkpt><trkpt lat="45.797911507385635" lon="9.671812463055025"><ele>354.0</ele><time>2026-03-27T14:42:50Z</time></trkpt><trkpt lat="45.79802214269138" lon="9.671856322911088"><ele>354.0</ele><time>2026-03-27T14:42:52Z</time></trkpt><trkpt lat="45.79811217575676" lon="9.671957978015744"><ele>354.0</ele><time>2026-03-27T14:42:54Z</time></trkpt><trkpt lat="45.79819816342477" lon="9.672062501127943"><ele>354.0</ele><time>2026-03-27T14:42:56Z</time></trkpt><trkpt lat="45.798294085227035" lon="9.672156415181249"><ele>356.79999999999995</ele><time>2026-03-27T14:42:58Z</time></trkpt><trkpt lat="45.798386247433555" lon="9.672245685976037"><ele>359.59999999999997</ele><time>2026-03-27T14:43:00Z</time></trkpt><trkpt lat="45.79847636185738" lon="9.67234581076777"><ele>362.4</ele><time>2026-03-27T14:43:02Z</time></trkpt><trkpt lat="45.798570515702245" lon="9.672432597740073"><ele>365.2</ele><time>2026-03-27T14:43:04Z</time></trkpt><trkpt lat="45.79866322994033" lon="9.672513039536353"><ele>368.0</ele><time>2026-03-27T14:43:06Z</time></trkpt><trkpt lat="45.798775354284345" lon="9.672551783535582"><ele>368.0</ele><time>2026-03-27T14:43:08Z</time></trkpt><trkpt lat="45.79888900655382" lon="9.67257058552127"><ele>368.0</ele><time>2026-03-27T14:43:10Z</time></trkpt><trkpt lat="45.79899640529207" lon="9.672596825605181"><ele>368.0</ele><time>2026-03-27T14:43:12Z</time></trkpt><trkpt lat="45.7990665300776" lon="9.672709042746723"><ele>368.0</ele><time>2026-03-27T14:43:14Z</time></trkpt><trkpt lat="45.799033443599846" lon="9.67279409830339"><ele>368.0</ele><time>2026-03-27T14:43:15Z</time></trkpt><trkpt lat="45.79896615266951" lon="9.672834704087451"><ele>370.2</ele><time>2026-03-27T14:43:16Z</time></trkpt><trkpt lat="45.79890027579094" lon="9.672829763990071"><ele>372.4</ele><time>2026-03-27T14:43:17Z</time></trkpt><trkpt lat="45.79878603684069" lon="9.672794852252542"><ele>374.59999999999997</ele><time>2026-03-27T14:43:19Z</time></trkpt><trkpt lat="45.79867646461796" lon="9.672783076742837"><ele>376.79999999999995</ele><time>2026-03-27T14:43:21Z</time></trkpt><trkpt lat="45.79856250153606" lon="9.672788456709831"><ele>379.0</ele><time>2026-03-27T14:43:23Z</time></trkpt><trkpt lat="45.79845992578446" lon="9.67281774201519"><ele>379.4</ele><time>2026-03-27T14:43:25Z</time></trkpt><trkpt lat="45.798372970687694" lon="9.672897703839595"><ele>379.79999999999995</ele><time>2026-03-27T14:43:27Z</time></trkpt><trkpt lat="45.79831090336005" lon="9.67301789397673"><ele>380.20000000000005</ele><time>2026-03-27T14:43:29Z</time></trkpt><trkpt lat="45.79826909467102" lon="9.673155140591186"><ele>380.6</ele><time>2026-03-27T14:43:31Z</time></trkpt><trkpt lat="45.79821496922765" lon="9.673300163408149"><ele>381.0</ele><time>2026-03-27T14:43:33Z</time></trkpt><trkpt lat="45.79813934540597" lon="9.673401043773467"><ele>381.0</ele><time>2026-03-27T14:43:35Z</time></trkpt><trkpt lat="45.79803879781197" lon="9.67346928890677"><ele>381.0</ele><time>2026-03-27T14:43:37Z</time></trkpt><trkpt lat="45.79792529603889" lon="9.673469989899887"><ele>381.0</ele><time>2026-03-27T14:43:39Z</time></trkpt><trkpt lat="45.7978215647584" lon="9.673419323840445"><ele>381.0</ele><time>2026-03-27T14:43:41Z</time></trkpt><trkpt lat="45.79772370764959" lon="9.673354344401133"><ele>381.0</ele><time>2026-03-27T14:43:43Z</time></trkpt><trkpt lat="45.7976226220096" lon="9.673301528920721"><ele>381.6</ele><time>2026-03-27T14:43:45Z</time></trkpt><trkpt lat="45.797516622506926" lon="9.67324361830138"><ele>382.20000000000005</ele><time>2026-03-27T14:43:47Z</time></trkpt><trkpt lat="45.797412728942135" lon="9.673192566545971"><ele>382.79999999999995</ele><time>2026-03-27T14:43:49Z</time></trkpt><trkpt lat="45.79730477581679" lon="9.673190132749227"><ele>383.4</ele><time>2026-03-27T14:43:51Z</time></trkpt><trkpt lat="45.79720241372387" lon="9.673250556044172"><ele>384.0</ele><time>2026-03-27T14:43:53Z</time></trkpt><trkpt lat="45.79711315076286" lon="9.673343424272046"><ele>384.0</ele><time>2026-03-27T14:43:55Z</time></trkpt><trkpt lat="45.7970490815643" lon="9.673470464839157"><ele>384.0</ele><time>2026-03-27T14:43:57Z</time></trkpt><trkpt lat="45.79702529352784" lon="9.673627356923566"><ele>384.0</ele><time>2026-03-27T14:43:59Z</time></trkpt><trkpt lat="45.79702422385551" lon="9.673791750014578"><ele>384.0</ele><time>2026-03-27T14:44:01Z</time></trkpt><trkpt lat="45.79703313161251" lon="9.673956186202874"><ele>386.79999999999995</ele><time>2026-03-27T14:44:03Z</time></trkpt><trkpt lat="45.7970537844958" lon="9.674105129891304"><ele>389.59999999999997</ele><time>2026-03-27T14:44:05Z</time></trkpt><trkpt lat="45.797078602463536" lon="9.674259948661362"><ele>392.4</ele><time>2026-03-27T14:44:07Z</time></trkpt><trkpt lat="45.79710516851569" lon="9.674414341813335"><ele>395.2</ele><time>2026-03-27T14:44:09Z</time></trkpt><trkpt lat="45.79713249687275" lon="9.674573940589315"><ele>398.0</ele><time>2026-03-27T14:44:11Z</time></trkpt><trkpt lat="45.797159232029664" lon="9.674735530388633"><ele>398.5</ele><time>2026-03-27T14:44:13Z</time></trkpt><trkpt lat="45.79718597633061" lon="9.674897501945345"><ele>399.0</ele><time>2026-03-27T14:44:15Z</time></trkpt><trkpt lat="45.797216235667484" lon="9.675054811766865"><ele>399.5</ele><time>2026-03-27T14:44:17Z</time></trkpt><trkpt lat="45.79723510941281" lon="9.67521523685563"><ele>400.0</ele><time>2026-03-27T14:44:19Z</time></trkpt><trkpt lat="45.79725123838142" lon="9.675371295506789"><ele>401.0</ele><time>2026-03-27T14:44:21Z</time></trkpt><trkpt lat="45.79725988093818" lon="9.675534259695777"><ele>402.0</ele><time>2026-03-27T14:44:23Z</time></trkpt><trkpt lat="45.79726417830647" lon="9.675687039554367"><ele>403.0</ele><time>2026-03-27T14:44:25Z</time></trkpt><trkpt lat="45.79727359828624" lon="9.675850170461379"><ele>404.0</ele><time>2026-03-27T14:44:27Z</time></trkpt><trkpt lat="45.7972797116437" lon="9.676010891698438"><ele>405.0</ele><time>2026-03-27T14:44:29Z</time></trkpt><trkpt lat="45.79726749952588" lon="9.67616990360819"><ele>407.5</ele><time>2026-03-27T14:44:31Z</time></trkpt><trkpt lat="45.79722566385002" lon="9.676334372167597"><ele>410.0</ele><time>2026-03-27T14:44:33Z</time></trkpt><trkpt lat="45.79715284486301" lon="9.676478654493"><ele>412.5</ele><time>2026-03-27T14:44:35Z</time></trkpt><trkpt lat="45.79705873546336" lon="9.676598780353292"><ele>415.0</ele><time>2026-03-27T14:44:37Z</time></trkpt><trkpt lat="45.796961279263094" lon="9.676712564214146"><ele>415.00000000000006</ele><time>2026-03-27T14:44:39Z</time></trkpt><trkpt lat="45.79691494035586" lon="9.676774815043006"><ele>415.0</ele><time>2026-03-27T14:44:40Z</time></trkpt><trkpt lat="45.79682318186865" lon="9.676895745547728"><ele>415.0</ele><time>2026-03-27T14:44:42Z</time></trkpt><trkpt lat="45.796775079923414" lon="9.67695707082749"><ele>415.0</ele><time>2026-03-27T14:44:43Z</time></trkpt><trkpt lat="45.79668248345291" lon="9.677073579477268"><ele>415.00000000000006</ele><time>2026-03-27T14:44:45Z</time></trkpt><trkpt lat="45.79663234205288" lon="9.677140936699395"><ele>415.0</ele><time>2026-03-27T14:44:46Z</time></trkpt><trkpt lat="45.79658590271447" lon="9.67720549220556"><ele>414.1666666666667</ele><time>2026-03-27T14:44:47Z</time></trkpt><trkpt lat="45.796539875757794" lon="9.677269004301465"><ele>413.33333333333337</ele><time>2026-03-27T14:44:48Z</time></trkpt><trkpt lat="45.796445829607215" lon="9.67739147556889"><ele>412.5</ele><time>2026-03-27T14:44:50Z</time></trkpt><trkpt lat="45.796395468038114" lon="9.677451471297255"><ele>411.66666666666663</ele><time>2026-03-27T14:44:51Z</time></trkpt><trkpt lat="45.79634556806104" lon="9.677510371075254"><ele>410.8333333333333</ele><time>2026-03-27T14:44:52Z</time></trkpt><trkpt lat="45.79625792759732" lon="9.677632073947903"><ele>410.0</ele><time>2026-03-27T14:44:54Z</time></trkpt><trkpt lat="45.79618312746987" lon="9.677750344181913"><ele>409.66666666666663</ele><time>2026-03-27T14:44:56Z</time></trkpt><trkpt lat="45.79613020869921" lon="9.677836413528205"><ele>409.3333333333333</ele><time>2026-03-27T14:44:58Z</time></trkpt><trkpt lat="45.796069512449485" lon="9.67792443535227"><ele>409.0</ele><time>2026-03-27T14:45:00Z</time></trkpt><trkpt lat="45.79597931261894" lon="9.678049465861758"><ele>408.66666666666663</ele><time>2026-03-27T14:45:02Z</time></trkpt><trkpt lat="45.79593158179657" lon="9.678119359406814"><ele>408.3333333333333</ele><time>2026-03-27T14:45:03Z</time></trkpt><trkpt lat="45.795892005707294" lon="9.678193141525027"><ele>408.0</ele><time>2026-03-27T14:45:04Z</time></trkpt><trkpt lat="45.7958516331922" lon="9.67826857649166"><ele>408.0</ele><time>2026-03-27T14:45:05Z</time></trkpt><trkpt lat="45.79577763738603" lon="9.678404912410912"><ele>408.0</ele><time>2026-03-27T14:45:07Z</time></trkpt><trkpt lat="45.79569725258877" lon="9.678544327797251"><ele>408.0</ele><time>2026-03-27T14:45:09Z</time></trkpt><trkpt lat="45.79565668651509" lon="9.678614166290696"><ele>408.0</ele><time>2026-03-27T14:45:10Z</time></trkpt><trkpt lat="45.795617174898375" lon="9.678686597130516"><ele>408.0</ele><time>2026-03-27T14:45:11Z</time></trkpt><trkpt lat="45.795577544433904" lon="9.678758697306966"><ele>408.0</ele><time>2026-03-27T14:45:12Z</time></trkpt><trkpt lat="45.79553796697998" lon="9.678831540340889"><ele>408.3333333333333</ele><time>2026-03-27T14:45:13Z</time></trkpt><trkpt lat="45.79549870252279" lon="9.67890795824758"><ele>408.66666666666663</ele><time>2026-03-27T14:45:14Z</time></trkpt><trkpt lat="45.7954600260223" lon="9.678986153560476"><ele>409.0</ele><time>2026-03-27T14:45:15Z</time></trkpt><trkpt lat="45.79542708457887" lon="9.67906756530887"><ele>409.3333333333333</ele><time>2026-03-27T14:45:16Z</time></trkpt><trkpt lat="45.79540792473859" lon="9.679159229327585"><ele>409.66666666666663</ele><time>2026-03-27T14:45:17Z</time></trkpt><trkpt lat="45.795413005048346" lon="9.679270081453936"><ele>410.0</ele><time>2026-03-27T14:45:18Z</time></trkpt><trkpt lat="45.79545697683157" lon="9.679428033940686"><ele>410.4</ele><time>2026-03-27T14:45:20Z</time></trkpt><trkpt lat="45.7955459154223" lon="9.679528040591434"><ele>410.8</ele><time>2026-03-27T14:45:22Z</time></trkpt><trkpt lat="45.79566110434016" lon="9.679579239463402"><ele>411.20000000000005</ele><time>2026-03-27T14:45:24Z</time></trkpt><trkpt lat="45.79572400804863" lon="9.679569655453315"><ele>411.6</ele><time>2026-03-27T14:45:25Z</time></trkpt><trkpt lat="45.79583786297524" lon="9.679538666871238"><ele>412.0</ele><time>2026-03-27T14:45:27Z</time></trkpt><trkpt lat="45.79595231323298" lon="9.679502306379353"><ele>413.20000000000005</ele><time>2026-03-27T14:45:29Z</time></trkpt><trkpt lat="45.796057326626986" lon="9.67947165447802"><ele>414.4</ele><time>2026-03-27T14:45:31Z</time></trkpt><trkpt lat="45.79616847268311" lon="9.679446024007413"><ele>415.6</ele><time>2026-03-27T14:45:33Z</time></trkpt><trkpt lat="45.796277526002015" lon="9.679406416462319"><ele>416.79999999999995</ele><time>2026-03-27T14:45:35Z</time></trkpt><trkpt lat="45.796379149307796" lon="9.679373745925508"><ele>418.0</ele><time>2026-03-27T14:45:37Z</time></trkpt><trkpt lat="45.79647146172402" lon="9.679282030630041"><ele>418.0</ele><time>2026-03-27T14:45:39Z</time></trkpt><trkpt lat="45.7965489088689" lon="9.679155766041285"><ele>418.0</ele><time>2026-03-27T14:45:41Z</time></trkpt><trkpt lat="45.79664964478169" lon="9.679082889218801"><ele>418.0</ele><time>2026-03-27T14:45:43Z</time></trkpt><trkpt lat="45.79676115645921" lon="9.679034492893043"><ele>418.0</ele><time>2026-03-27T14:45:45Z</time></trkpt><trkpt lat="45.796868681823874" lon="9.678994121202054"><ele>420.0</ele><time>2026-03-27T14:45:47Z</time></trkpt><trkpt lat="45.796982196331605" lon="9.678958229150583"><ele>422.0</ele><time>2026-03-27T14:45:49Z</time></trkpt><trkpt lat="45.797099411080815" lon="9.678960583573398"><ele>424.0</ele><time>2026-03-27T14:45:51Z</time></trkpt><trkpt lat="45.797212976392615" lon="9.679005588507279"><ele>426.0</ele><time>2026-03-27T14:45:53Z</time></trkpt><trkpt lat="45.79732172296219" lon="9.67904837347472"><ele>426.0</ele><time>2026-03-27T14:45:55Z</time></trkpt><trkpt lat="45.7974311140342" lon="9.679090080615953"><ele>426.0</ele><time>2026-03-27T14:45:57Z</time></trkpt><trkpt lat="45.79754281942722" lon="9.679118378198968"><ele>426.0</ele><time>2026-03-27T14:45:59Z</time></trkpt><trkpt lat="45.797659458927996" lon="9.679132025198204"><ele>426.0</ele><time>2026-03-27T14:46:01Z</time></trkpt><trkpt lat="45.79777110859489" lon="9.679136361030952"><ele>428.5</ele><time>2026-03-27T14:46:03Z</time></trkpt><trkpt lat="45.797888802951356" lon="9.679121368765518"><ele>431.0</ele><time>2026-03-27T14:46:05Z</time></trkpt><trkpt lat="45.79799689523757" lon="9.679146572767634"><ele>433.5</ele><time>2026-03-27T14:46:07Z</time></trkpt><trkpt lat="45.79804880677387" lon="9.67930028869277"><ele>436.0</ele><time>2026-03-27T14:46:09Z</time></trkpt><trkpt lat="45.79802303379056" lon="9.679457194136353"><ele>436.8</ele><time>2026-03-27T14:46:11Z</time></trkpt><trkpt lat="45.797936171718646" lon="9.679551922858087"><ele>437.6</ele><time>2026-03-27T14:46:13Z</time></trkpt><trkpt lat="45.79782881219913" lon="9.679602957777599"><ele>438.4</ele><time>2026-03-27T14:46:15Z</time></trkpt><trkpt lat="45.79771755370994" lon="9.679622040283897"><ele>439.2</ele><time>2026-03-27T14:46:17Z</time></trkpt><trkpt lat="45.79761007715762" lon="9.679632447473132"><ele>440.0</ele><time>2026-03-27T14:46:19Z</time></trkpt><trkpt lat="45.79750084156747" lon="9.67965092333365"><ele>439.99999999999994</ele><time>2026-03-27T14:46:21Z</time></trkpt><trkpt lat="45.79738823344378" lon="9.679666620691652"><ele>440.0</ele><time>2026-03-27T14:46:23Z</time></trkpt><trkpt lat="45.797296610592106" lon="9.679760217989863"><ele>440.0</ele><time>2026-03-27T14:46:25Z</time></trkpt><trkpt lat="45.797289326735516" lon="9.679851271881475"><ele>440.0</ele><time>2026-03-27T14:46:26Z</time></trkpt><trkpt lat="45.797320237372936" lon="9.679930750051145"><ele>439.99999999999994</ele><time>2026-03-27T14:46:27Z</time></trkpt><trkpt lat="45.797379026322915" lon="9.679972082003944"><ele>440.0</ele><time>2026-03-27T14:46:28Z</time></trkpt><trkpt lat="45.79744610762068" lon="9.679980000752504"><ele>440.0</ele><time>2026-03-27T14:46:29Z</time></trkpt><trkpt lat="45.7975693488074" lon="9.679942559415492"><ele>440.0</ele><time>2026-03-27T14:46:31Z</time></trkpt><trkpt lat="45.79763265196152" lon="9.679925481723387"><ele>440.0</ele><time>2026-03-27T14:46:32Z</time></trkpt><trkpt lat="45.7977568965897" lon="9.67988803424579"><ele>440.0</ele><time>2026-03-27T14:46:34Z</time></trkpt><trkpt lat="45.797884748681625" lon="9.679854797731004"><ele>440.0</ele><time>2026-03-27T14:46:36Z</time></trkpt><trkpt lat="45.79800214590942" lon="9.67980994316947"><ele>442.75</ele><time>2026-03-27T14:46:38Z</time></trkpt><trkpt lat="45.79811934346969" lon="9.679741718323255"><ele>445.5</ele><time>2026-03-27T14:46:40Z</time></trkpt><trkpt lat="45.79822654012348" lon="9.679646808668316"><ele>448.25</ele><time>2026-03-27T14:46:42Z</time></trkpt><trkpt lat="45.79832648358707" lon="9.679545776647984"><ele>451.0</ele><time>2026-03-27T14:46:44Z</time></trkpt><trkpt lat="45.79842881506614" lon="9.679456487747672"><ele>449.25</ele><time>2026-03-27T14:46:46Z</time></trkpt><trkpt lat="45.79853021502757" lon="9.679361481810774"><ele>447.5</ele><time>2026-03-27T14:46:48Z</time></trkpt><trkpt lat="45.79863496851161" lon="9.679286234161395"><ele>445.75</ele><time>2026-03-27T14:46:50Z</time></trkpt><trkpt lat="45.79875272563074" lon="9.679261247210734"><ele>444.0</ele><time>2026-03-27T14:46:52Z</time></trkpt><trkpt lat="45.79886073955732" lon="9.679276323049884"><ele>444.0</ele><time>2026-03-27T14:46:54Z</time></trkpt><trkpt lat="45.79893128543007" lon="9.679271253074347"><ele>444.0</ele><time>2026-03-27T14:46:55Z</time></trkpt><trkpt lat="45.79903932678684" lon="9.679240229655726"><ele>444.0</ele><time>2026-03-27T14:46:57Z</time></trkpt><trkpt lat="45.799143556873815" lon="9.679185647838986"><ele>444.0</ele><time>2026-03-27T14:46:59Z</time></trkpt><trkpt lat="45.799198125656865" lon="9.679133264824086"><ele>444.0</ele><time>2026-03-27T14:47:00Z</time></trkpt><trkpt lat="45.79929722336653" lon="9.679070152723877"><ele>444.79999999999995</ele><time>2026-03-27T14:47:02Z</time></trkpt><trkpt lat="45.79936091070072" lon="9.679053676769616"><ele>445.59999999999997</ele><time>2026-03-27T14:47:03Z</time></trkpt><trkpt lat="45.799428185088615" lon="9.679040697551367"><ele>446.4</ele><time>2026-03-27T14:47:04Z</time></trkpt><trkpt lat="45.79953468446058" lon="9.679083083027766"><ele>447.2</ele><time>2026-03-27T14:47:06Z</time></trkpt><trkpt lat="45.79961683890092" lon="9.679180320701969"><ele>448.0</ele><time>2026-03-27T14:47:08Z</time></trkpt><trkpt lat="45.799674167178665" lon="9.679313876795831"><ele>454.25</ele><time>2026-03-27T14:47:10Z</time></trkpt><trkpt lat="45.79970689794188" lon="9.679469405811966"><ele>460.5</ele><time>2026-03-27T14:47:12Z</time></trkpt><trkpt lat="45.79974887961369" lon="9.679619542109975"><ele>466.75</ele><time>2026-03-27T14:47:14Z</time></trkpt><trkpt lat="45.79983430935878" lon="9.679721391853725"><ele>473.0</ele><time>2026-03-27T14:47:16Z</time></trkpt><trkpt lat="45.79994802874886" lon="9.67970717032159"><ele>473.0</ele><time>2026-03-27T14:47:18Z</time></trkpt><trkpt lat="45.8000015270501" lon="9.679659360232234"><ele>472.99999999999994</ele><time>2026-03-27T14:47:19Z</time></trkpt><trkpt lat="45.800085510366415" lon="9.679553513765498"><ele>472.99999999999994</ele><time>2026-03-27T14:47:21Z</time></trkpt><trkpt lat="45.800178684010774" lon="9.679463483197436"><ele>473.0</ele><time>2026-03-27T14:47:23Z</time></trkpt><trkpt lat="45.800296469379" lon="9.67944289955329"><ele>473.0</ele><time>2026-03-27T14:47:25Z</time></trkpt><trkpt lat="45.800400827001646" lon="9.679445187800619"><ele>474.59999999999997</ele><time>2026-03-27T14:47:27Z</time></trkpt><trkpt lat="45.80050898973397" lon="9.679444524752762"><ele>476.19999999999993</ele><time>2026-03-27T14:47:29Z</time></trkpt><trkpt lat="45.800623759547754" lon="9.679443369947304"><ele>477.8</ele><time>2026-03-27T14:47:31Z</time></trkpt><trkpt lat="45.80072996651421" lon="9.67941895846933"><ele>479.4</ele><time>2026-03-27T14:47:33Z</time></trkpt><trkpt lat="45.80084105404083" lon="9.679369188330956"><ele>481.0</ele><time>2026-03-27T14:47:35Z</time></trkpt><trkpt lat="45.80094415433652" lon="9.679299959975916"><ele>476.8</ele><time>2026-03-27T14:47:37Z</time></trkpt><trkpt lat="45.801023528719334" lon="9.679180432783552"><ele>472.6</ele><time>2026-03-27T14:47:39Z</time></trkpt><trkpt lat="45.80109659225025" lon="9.679066113913585"><ele>468.4</ele><time>2026-03-27T14:47:41Z</time></trkpt><trkpt lat="45.801182745958116" lon="9.678968985479354"><ele>464.2</ele><time>2026-03-27T14:47:43Z</time></trkpt><trkpt lat="45.80129611698556" lon="9.678946822298556"><ele>460.0</ele><time>2026-03-27T14:47:45Z</time></trkpt><trkpt lat="45.80139836390538" lon="9.679013292929863"><ele>460.0</ele><time>2026-03-27T14:47:47Z</time></trkpt><trkpt lat="45.80146314223598" lon="9.679138107374067"><ele>460.0</ele><time>2026-03-27T14:47:49Z</time></trkpt><trkpt lat="45.80151303469894" lon="9.6792670333974"><ele>460.0</ele><time>2026-03-27T14:47:51Z</time></trkpt><trkpt lat="45.80155238722443" lon="9.67941028112238"><ele>460.0</ele><time>2026-03-27T14:47:53Z</time></trkpt><trkpt lat="45.80157025234423" lon="9.6795624231458"><ele>460.0</ele><time>2026-03-27T14:47:55Z</time></trkpt><trkpt lat="45.80160123083833" lon="9.679721644610218"><ele>462.0</ele><time>2026-03-27T14:47:57Z</time></trkpt><trkpt lat="45.801633744130946" lon="9.679869229522234"><ele>464.0</ele><time>2026-03-27T14:47:59Z</time></trkpt><trkpt lat="45.801699924434516" lon="9.67999657338432"><ele>466.0</ele><time>2026-03-27T14:48:01Z</time></trkpt><trkpt lat="45.80178067630344" lon="9.68010728238052"><ele>468.0</ele><time>2026-03-27T14:48:03Z</time></trkpt><trkpt lat="45.80187006991244" lon="9.68019507393934"><ele>470.0</ele><time>2026-03-27T14:48:05Z</time></trkpt><trkpt lat="45.80197025908225" lon="9.680266376245797"><ele>474.2</ele><time>2026-03-27T14:48:07Z</time></trkpt><trkpt lat="45.802069553084635" lon="9.680329250844052"><ele>478.4</ele><time>2026-03-27T14:48:09Z</time></trkpt><trkpt lat="45.80217079849943" lon="9.68039790251365"><ele>482.6</ele><time>2026-03-27T14:48:11Z</time></trkpt><trkpt lat="45.80227279717652" lon="9.68045477716041"><ele>486.8</ele><time>2026-03-27T14:48:13Z</time></trkpt><trkpt lat="45.80237748302696" lon="9.68050722515971"><ele>491.0</ele><time>2026-03-27T14:48:15Z</time></trkpt><trkpt lat="45.802481924810074" lon="9.680559709114146"><ele>491.0</ele><time>2026-03-27T14:48:17Z</time></trkpt><trkpt lat="45.802587123359814" lon="9.680607679659184"><ele>491.0</ele><time>2026-03-27T14:48:19Z</time></trkpt><trkpt lat="45.80269850976373" lon="9.680636389479135"><ele>491.0</ele><time>2026-03-27T14:48:21Z</time></trkpt><trkpt lat="45.80280207864131" lon="9.680612245263415"><ele>491.0</ele><time>2026-03-27T14:48:23Z</time></trkpt><trkpt lat="45.802904435716755" lon="9.6805503524636"><ele>491.0</ele><time>2026-03-27T14:48:25Z</time></trkpt><trkpt lat="45.80300182858855" lon="9.68049398328103"><ele>492.0</ele><time>2026-03-27T14:48:27Z</time></trkpt><trkpt lat="45.80310114928137" lon="9.6804357838268"><ele>493.0</ele><time>2026-03-27T14:48:29Z</time></trkpt><trkpt lat="45.80320526639897" lon="9.680384928234282"><ele>494.0</ele><time>2026-03-27T14:48:31Z</time></trkpt><trkpt lat="45.80330530960624" lon="9.680330969919236"><ele>495.0</ele><time>2026-03-27T14:48:33Z</time></trkpt><trkpt lat="45.80340692643815" lon="9.680273132789823"><ele>496.0</ele><time>2026-03-27T14:48:35Z</time></trkpt><trkpt lat="45.803508876771325" lon="9.680207991938046"><ele>492.0</ele><time>2026-03-27T14:48:37Z</time></trkpt><trkpt lat="45.80360371163696" lon="9.680147208347151"><ele>488.0</ele><time>2026-03-27T14:48:39Z</time></trkpt><trkpt lat="45.8037022880214" lon="9.680100358014993"><ele>484.0</ele><time>2026-03-27T14:48:41Z</time></trkpt><trkpt lat="45.80379979816006" lon="9.68003558467338"><ele>480.0</ele><time>2026-03-27T14:48:43Z</time></trkpt><trkpt lat="45.803888884438294" lon="9.679997279257012"><ele>476.0</ele><time>2026-03-27T14:48:44Z</time></trkpt><trkpt lat="45.803986568426716" lon="9.679966342378444"><ele>476.0</ele><time>2026-03-27T14:48:45Z</time></trkpt><trkpt lat="45.80384710442678" lon="9.680221420168836"><ele>476.0</ele><time>2026-03-27T14:48:46Z</time></trkpt><trkpt lat="45.803758080688354" lon="9.680343657474472"><ele>476.0</ele><time>2026-03-27T14:48:48Z</time></trkpt><trkpt lat="45.80369598496313" lon="9.68038382524497"><ele>476.0</ele><time>2026-03-27T14:48:49Z</time></trkpt><trkpt lat="45.80363252816433" lon="9.68039979040634"><ele>476.25</ele><time>2026-03-27T14:48:50Z</time></trkpt><trkpt lat="45.803517098236924" lon="9.68043975580172"><ele>476.5</ele><time>2026-03-27T14:48:52Z</time></trkpt><trkpt lat="45.80340901750133" lon="9.68052245447172"><ele>476.75</ele><time>2026-03-27T14:48:54Z</time></trkpt><trkpt lat="45.80331502256229" lon="9.68061701341618"><ele>477.0</ele><time>2026-03-27T14:48:56Z</time></trkpt><trkpt lat="45.80323422949584" lon="9.680723595345075"><ele>480.8</ele><time>2026-03-27T14:48:58Z</time></trkpt><trkpt lat="45.80314956974673" lon="9.680837610829856"><ele>484.6</ele><time>2026-03-27T14:49:00Z</time></trkpt><trkpt lat="45.80306489479056" lon="9.680947214285702"><ele>488.40000000000003</ele><time>2026-03-27T14:49:02Z</time></trkpt><trkpt lat="45.80299571173733" lon="9.681065182043135"><ele>492.20000000000005</ele><time>2026-03-27T14:49:04Z</time></trkpt><trkpt lat="45.802930196185734" lon="9.681190370261403"><ele>496.0</ele><time>2026-03-27T14:49:06Z</time></trkpt><trkpt lat="45.80287263388905" lon="9.681330433105789"><ele>496.8</ele><time>2026-03-27T14:49:08Z</time></trkpt><trkpt lat="45.802823667550875" lon="9.681462045478368"><ele>497.6</ele><time>2026-03-27T14:49:10Z</time></trkpt><trkpt lat="45.8027685838544" lon="9.681596657626418"><ele>498.4</ele><time>2026-03-27T14:49:12Z</time></trkpt><trkpt lat="45.80269201467888" lon="9.6817002380014"><ele>499.2</ele><time>2026-03-27T14:49:14Z</time></trkpt><trkpt lat="45.80259631111643" lon="9.681765618064656"><ele>500.0</ele><time>2026-03-27T14:49:16Z</time></trkpt><trkpt lat="45.80249516742353" lon="9.681805551232374"><ele>503.0</ele><time>2026-03-27T14:49:18Z</time></trkpt><trkpt lat="45.80238938239422" lon="9.681810784313154"><ele>506.0</ele><time>2026-03-27T14:49:20Z</time></trkpt><trkpt lat="45.8022889743397" lon="9.68178518438496"><ele>509.0</ele><time>2026-03-27T14:49:22Z</time></trkpt><trkpt lat="45.80218325095369" lon="9.681768435148722"><ele>512.0</ele><time>2026-03-27T14:49:24Z</time></trkpt><trkpt lat="45.802081877446774" lon="9.681726370901908"><ele>515.0</ele><time>2026-03-27T14:49:26Z</time></trkpt><trkpt lat="45.801979757836605" lon="9.681700457237824"><ele>515.0</ele><time>2026-03-27T14:49:28Z</time></trkpt><trkpt lat="45.80187772945599" lon="9.681656379585702"><ele>515.0</ele><time>2026-03-27T14:49:30Z</time></trkpt><trkpt lat="45.80177728353655" lon="9.68160197507634"><ele>515.0</ele><time>2026-03-27T14:49:32Z</time></trkpt><trkpt lat="45.80167233108288" lon="9.681558739655182"><ele>515.0</ele><time>2026-03-27T14:49:34Z</time></trkpt><trkpt lat="45.80157444876278" lon="9.681495567975446"><ele>515.0</ele><time>2026-03-27T14:49:36Z</time></trkpt><trkpt lat="45.80147323019562" lon="9.681413111583527"><ele>518.4</ele><time>2026-03-27T14:49:38Z</time></trkpt><trkpt lat="45.80137606906227" lon="9.681359025265479"><ele>521.8</ele><time>2026-03-27T14:49:40Z</time></trkpt><trkpt lat="45.80127892940466" lon="9.681275039862589"><ele>525.2</ele><time>2026-03-27T14:49:42Z</time></trkpt><trkpt lat="45.801180611721385" lon="9.681203141473874"><ele>528.6</ele><time>2026-03-27T14:49:44Z</time></trkpt><trkpt lat="45.801076106417355" lon="9.68120280785016"><ele>532.0</ele><time>2026-03-27T14:49:46Z</time></trkpt><trkpt lat="45.80098014514641" lon="9.681191834857277"><ele>536.4</ele><time>2026-03-27T14:49:48Z</time></trkpt><trkpt lat="45.80086778442462" lon="9.681223458673113"><ele>540.8000000000001</ele><time>2026-03-27T14:49:50Z</time></trkpt><trkpt lat="45.800769944736636" lon="9.681262582322475"><ele>545.2</ele><time>2026-03-27T14:49:52Z</time></trkpt><trkpt lat="45.8006707333668" lon="9.68128865274144"><ele>549.6</ele><time>2026-03-27T14:49:54Z</time></trkpt><trkpt lat="45.800569980688785" lon="9.68132113814995"><ele>554.0</ele><time>2026-03-27T14:49:56Z</time></trkpt><trkpt lat="45.80046893254322" lon="9.681368559664854"><ele>554.0</ele><time>2026-03-27T14:49:58Z</time></trkpt><trkpt lat="45.800362426370185" lon="9.681393301798318"><ele>554.0</ele><time>2026-03-27T14:50:00Z</time></trkpt><trkpt lat="45.80025501864562" lon="9.681435647115968"><ele>554.0</ele><time>2026-03-27T14:50:02Z</time></trkpt><trkpt lat="45.80014852092076" lon="9.68146742798337"><ele>554.0</ele><time>2026-03-27T14:50:04Z</time></trkpt><trkpt lat="45.8000404634552" lon="9.681478843140969"><ele>554.0</ele><time>2026-03-27T14:50:06Z</time></trkpt><trkpt lat="45.79993558983715" lon="9.681499962862235"><ele>553.4</ele><time>2026-03-27T14:50:08Z</time></trkpt><trkpt lat="45.79984364738424" lon="9.681509658615195"><ele>552.8</ele><time>2026-03-27T14:50:10Z</time></trkpt><trkpt lat="45.79973675706664" lon="9.681516085203892"><ele>552.2</ele><time>2026-03-27T14:50:12Z</time></trkpt><trkpt lat="45.79964201386125" lon="9.681506382862601"><ele>551.6</ele><time>2026-03-27T14:50:14Z</time></trkpt><trkpt lat="45.79953915247223" lon="9.681517238755989"><ele>551.0</ele><time>2026-03-27T14:50:16Z</time></trkpt><trkpt lat="45.79944396750821" lon="9.68152057789743"><ele>551.0</ele><time>2026-03-27T14:50:18Z</time></trkpt><trkpt lat="45.79934711269963" lon="9.681531881126057"><ele>551.0</ele><time>2026-03-27T14:50:20Z</time></trkpt><trkpt lat="45.79924448014856" lon="9.681550818068429"><ele>551.0</ele><time>2026-03-27T14:50:22Z</time></trkpt><trkpt lat="45.79914311300176" lon="9.681579370629104"><ele>551.0</ele><time>2026-03-27T14:50:24Z</time></trkpt><trkpt lat="45.799042481899654" lon="9.681599822657061"><ele>551.0</ele><time>2026-03-27T14:50:26Z</time></trkpt><trkpt lat="45.79895736010159" lon="9.681632274948736"><ele>550.0</ele><time>2026-03-27T14:50:28Z</time></trkpt><trkpt lat="45.798850513388516" lon="9.681680750809994"><ele>549.0</ele><time>2026-03-27T14:50:30Z</time></trkpt><trkpt lat="45.79874953760198" lon="9.681755165336325"><ele>548.0</ele><time>2026-03-27T14:50:32Z</time></trkpt><trkpt lat="45.79868199182511" lon="9.681866175453758"><ele>547.0</ele><time>2026-03-27T14:50:34Z</time></trkpt><trkpt lat="45.798630973803625" lon="9.681990937411186"><ele>546.0</ele><time>2026-03-27T14:50:36Z</time></trkpt><trkpt lat="45.79860544330546" lon="9.682075593052097"><ele>551.2</ele><time>2026-03-27T14:50:37Z</time></trkpt><trkpt lat="45.79857787506262" lon="9.682221907345061"><ele>556.4000000000001</ele><time>2026-03-27T14:50:39Z</time></trkpt><trkpt lat="45.798589161808664" lon="9.682385005712474"><ele>561.6</ele><time>2026-03-27T14:50:41Z</time></trkpt><trkpt lat="45.79861568122723" lon="9.682529676204158"><ele>566.8000000000001</ele><time>2026-03-27T14:50:43Z</time></trkpt><trkpt lat="45.798659651857044" lon="9.682674702146302"><ele>572.0</ele><time>2026-03-27T14:50:45Z</time></trkpt><trkpt lat="45.7987025564034" lon="9.682829814772083"><ele>572.0</ele><time>2026-03-27T14:50:47Z</time></trkpt><trkpt lat="45.79875682100341" lon="9.682971349726198"><ele>572.0</ele><time>2026-03-27T14:50:49Z</time></trkpt><trkpt lat="45.79878892589928" lon="9.683126926857422"><ele>572.0</ele><time>2026-03-27T14:50:51Z</time></trkpt><trkpt lat="45.79881260166544" lon="9.683276891894003"><ele>572.0</ele><time>2026-03-27T14:50:53Z</time></trkpt><trkpt lat="45.798829057083616" lon="9.683427578211576"><ele>572.0</ele><time>2026-03-27T14:50:55Z</time></trkpt><trkpt lat="45.798843214955895" lon="9.6835761640522"><ele>571.0</ele><time>2026-03-27T14:50:57Z</time></trkpt><trkpt lat="45.798851025883394" lon="9.683724719798812"><ele>570.0</ele><time>2026-03-27T14:50:59Z</time></trkpt><trkpt lat="45.798875374898095" lon="9.683854787378511"><ele>569.0</ele><time>2026-03-27T14:51:01Z</time></trkpt><trkpt lat="45.798923673451874" lon="9.68398011460938"><ele>568.0</ele><time>2026-03-27T14:51:03Z</time></trkpt><trkpt lat="45.7989904279083" lon="9.68407795131037"><ele>567.0</ele><time>2026-03-27T14:51:05Z</time></trkpt><trkpt lat="45.79906927479258" lon="9.684180498528738"><ele>567.0</ele><time>2026-03-27T14:51:07Z</time></trkpt><trkpt lat="45.79914634602722" lon="9.684289249297478"><ele>567.0</ele><time>2026-03-27T14:51:09Z</time></trkpt><trkpt lat="45.79922074402833" lon="9.684402075320078"><ele>567.0</ele><time>2026-03-27T14:51:11Z</time></trkpt><trkpt lat="45.799299713251436" lon="9.684505758996746"><ele>567.0</ele><time>2026-03-27T14:51:13Z</time></trkpt><trkpt lat="45.799372574951455" lon="9.684611561157809"><ele>567.0</ele><time>2026-03-27T14:51:15Z</time></trkpt><trkpt lat="45.799440691564534" lon="9.684713407929193"><ele>571.2</ele><time>2026-03-27T14:51:17Z</time></trkpt><trkpt lat="45.79951145384316" lon="9.6848130069362"><ele>575.4000000000001</ele><time>2026-03-27T14:51:19Z</time></trkpt><trkpt lat="45.79958883171746" lon="9.68491497215193"><ele>579.5999999999999</ele><time>2026-03-27T14:51:21Z</time></trkpt><trkpt lat="45.79965438307767" lon="9.685024643713088"><ele>583.8</ele><time>2026-03-27T14:51:23Z</time></trkpt><trkpt lat="45.79969795772683" lon="9.685160376530755"><ele>588.0</ele><time>2026-03-27T14:51:25Z</time></trkpt><trkpt lat="45.79970023300404" lon="9.68530818413314"><ele>590.0</ele><time>2026-03-27T14:51:27Z</time></trkpt><trkpt lat="45.799654033719214" lon="9.685445329883805"><ele>592.0</ele><time>2026-03-27T14:51:29Z</time></trkpt><trkpt lat="45.79959607719971" lon="9.685590564711354"><ele>594.0</ele><time>2026-03-27T14:51:31Z</time></trkpt><trkpt lat="45.799530611541" lon="9.685721276858425"><ele>596.0</ele><time>2026-03-27T14:51:33Z</time></trkpt><trkpt lat="45.79944884692193" lon="9.685838331653592"><ele>596.0</ele><time>2026-03-27T14:51:35Z</time></trkpt><trkpt lat="45.799361792431995" lon="9.685946352289895"><ele>596.0</ele><time>2026-03-27T14:51:37Z</time></trkpt><trkpt lat="45.79930356025401" lon="9.686000084881913"><ele>596.0</ele><time>2026-03-27T14:51:38Z</time></trkpt><trkpt lat="45.79920393576164" lon="9.686082857569652"><ele>596.0</ele><time>2026-03-27T14:51:40Z</time></trkpt><trkpt lat="45.79914699459992" lon="9.686125533435087"><ele>596.0</ele><time>2026-03-27T14:51:41Z</time></trkpt><trkpt lat="45.79902899458432" lon="9.68618104020149"><ele>594.6</ele><time>2026-03-27T14:51:43Z</time></trkpt><trkpt lat="45.79891727512215" lon="9.686235933471911"><ele>593.2</ele><time>2026-03-27T14:51:45Z</time></trkpt><trkpt lat="45.7988549463255" lon="9.686258843148"><ele>591.8</ele><time>2026-03-27T14:51:46Z</time></trkpt><trkpt lat="45.79874742679268" lon="9.68631105598244"><ele>590.4</ele><time>2026-03-27T14:51:48Z</time></trkpt><trkpt lat="45.79864450675147" lon="9.686386132556466"><ele>589.0</ele><time>2026-03-27T14:51:50Z</time></trkpt><trkpt lat="45.79854617508998" lon="9.686465140891952"><ele>586.2</ele><time>2026-03-27T14:51:52Z</time></trkpt><trkpt lat="45.79845146524916" lon="9.686550361671493"><ele>583.4</ele><time>2026-03-27T14:51:54Z</time></trkpt><trkpt lat="45.798355220853836" lon="9.686627226138771"><ele>580.6</ele><time>2026-03-27T14:51:56Z</time></trkpt><trkpt lat="45.79826388133532" lon="9.686699047590295"><ele>577.8</ele><time>2026-03-27T14:51:58Z</time></trkpt><trkpt lat="45.79817777218027" lon="9.68677202481358"><ele>575.0</ele><time>2026-03-27T14:52:00Z</time></trkpt><trkpt lat="45.79809445482975" lon="9.686847899155387"><ele>578.4</ele><time>2026-03-27T14:52:02Z</time></trkpt><trkpt lat="45.79801706484699" lon="9.686954492716422"><ele>581.8</ele><time>2026-03-27T14:52:04Z</time></trkpt><trkpt lat="45.7979808066595" lon="9.687097580876499"><ele>585.2</ele><time>2026-03-27T14:52:06Z</time></trkpt><trkpt lat="45.798035562533734" lon="9.687230354134993"><ele>588.6</ele><time>2026-03-27T14:52:08Z</time></trkpt><trkpt lat="45.79813828033838" lon="9.687269297422722"><ele>592.0</ele><time>2026-03-27T14:52:10Z</time></trkpt><trkpt lat="45.79823689318834" lon="9.687274973461363"><ele>592.0</ele><time>2026-03-27T14:52:12Z</time></trkpt><trkpt lat="45.79833967912113" lon="9.687243440248485"><ele>592.0</ele><time>2026-03-27T14:52:14Z</time></trkpt><trkpt lat="45.798452772407366" lon="9.687197782920231"><ele>592.0</ele><time>2026-03-27T14:52:16Z</time></trkpt><trkpt lat="45.79853241014228" lon="9.68715873484134"><ele>592.0</ele><time>2026-03-27T14:52:18Z</time></trkpt><trkpt lat="45.798624040862784" lon="9.687113243635512"><ele>592.0</ele><time>2026-03-27T14:52:20Z</time></trkpt><trkpt lat="45.798722589473606" lon="9.68706897809466"><ele>591.4</ele><time>2026-03-27T14:52:22Z</time></trkpt><trkpt lat="45.798822930435506" lon="9.687010078032813"><ele>590.8000000000001</ele><time>2026-03-27T14:52:24Z</time></trkpt><trkpt lat="45.79892409309021" lon="9.686956810198732"><ele>590.2</ele><time>2026-03-27T14:52:26Z</time></trkpt><trkpt lat="45.79902784835626" lon="9.68691255497377"><ele>589.6</ele><time>2026-03-27T14:52:28Z</time></trkpt><trkpt lat="45.79912794931248" lon="9.686857765276379"><ele>589.0</ele><time>2026-03-27T14:52:30Z</time></trkpt><trkpt lat="45.79922704370837" lon="9.686811610553255"><ele>589.0</ele><time>2026-03-27T14:52:32Z</time></trkpt><trkpt lat="45.799317706990216" lon="9.686754894578534"><ele>589.0</ele><time>2026-03-27T14:52:34Z</time></trkpt><trkpt lat="45.799405267115986" lon="9.68669068993684"><ele>589.0</ele><time>2026-03-27T14:52:36Z</time></trkpt><trkpt lat="45.79948289623274" lon="9.686625244230003"><ele>589.0</ele><time>2026-03-27T14:52:38Z</time></trkpt><trkpt lat="45.7995685094857" lon="9.686542165540521"><ele>589.0</ele><time>2026-03-27T14:52:40Z</time></trkpt><trkpt lat="45.79965915317184" lon="9.686462059796607"><ele>590.4</ele><time>2026-03-27T14:52:42Z</time></trkpt><trkpt lat="45.79974641257298" lon="9.686385794725991"><ele>591.8</ele><time>2026-03-27T14:52:44Z</time></trkpt><trkpt lat="45.79983365353769" lon="9.686307638073597"><ele>593.2</ele><time>2026-03-27T14:52:46Z</time></trkpt><trkpt lat="45.799921580956934" lon="9.68621800216698"><ele>594.6</ele><time>2026-03-27T14:52:48Z</time></trkpt><trkpt lat="45.800013545549106" lon="9.686136537986359"><ele>596.0</ele><time>2026-03-27T14:52:50Z</time></trkpt><trkpt lat="45.800099806615776" lon="9.686044887526963"><ele>602.4</ele><time>2026-03-27T14:52:52Z</time></trkpt><trkpt lat="45.800189376099084" lon="9.685955472014268"><ele>608.8</ele><time>2026-03-27T14:52:54Z</time></trkpt><trkpt lat="45.800264207669656" lon="9.685851614991458"><ele>615.1999999999999</ele><time>2026-03-27T14:52:56Z</time></trkpt><trkpt lat="45.800320360543026" lon="9.68572781388873"><ele>621.6</ele><time>2026-03-27T14:52:58Z</time></trkpt><trkpt lat="45.8003859180061" lon="9.685604897978415"><ele>628.0</ele><time>2026-03-27T14:53:00Z</time></trkpt><trkpt lat="45.80045907808824" lon="9.685496412361333"><ele>628.0</ele><time>2026-03-27T14:53:02Z</time></trkpt><trkpt lat="45.80051095609627" lon="9.685437314677714"><ele>628.0</ele><time>2026-03-27T14:53:03Z</time></trkpt><trkpt lat="45.800561052762525" lon="9.685324205644248"><ele>628.0</ele><time>2026-03-27T14:53:05Z</time></trkpt><trkpt lat="45.80061334004791" lon="9.685195838837675"><ele>628.0</ele><time>2026-03-27T14:53:07Z</time></trkpt><trkpt lat="45.80063474124541" lon="9.68505266302499"><ele>628.0</ele><time>2026-03-27T14:53:09Z</time></trkpt><trkpt lat="45.800635446638815" lon="9.684910428618416"><ele>626.8</ele><time>2026-03-27T14:53:11Z</time></trkpt><trkpt lat="45.800633543268546" lon="9.684758648121344"><ele>625.5999999999999</ele><time>2026-03-27T14:53:13Z</time></trkpt><trkpt lat="45.80061040017683" lon="9.68460132463085"><ele>624.4000000000001</ele><time>2026-03-27T14:53:15Z</time></trkpt><trkpt lat="45.800579092004284" lon="9.684443062938433"><ele>623.2</ele><time>2026-03-27T14:53:17Z</time></trkpt><trkpt lat="45.80055195028495" lon="9.684283270717549"><ele>622.0</ele><time>2026-03-27T14:53:19Z</time></trkpt><trkpt lat="45.80053083636842" lon="9.684139933388705"><ele>622.0</ele><time>2026-03-27T14:53:21Z</time></trkpt><trkpt lat="45.80050731958316" lon="9.68397215551829"><ele>622.0</ele><time>2026-03-27T14:53:23Z</time></trkpt><trkpt lat="45.80049235104591" lon="9.683795306227742"><ele>622.0</ele><time>2026-03-27T14:53:25Z</time></trkpt><trkpt lat="45.80049529781744" lon="9.68362426004876"><ele>622.0</ele><time>2026-03-27T14:53:27Z</time></trkpt><trkpt lat="45.80049570183663" lon="9.683457572690893"><ele>621.8000000000001</ele><time>2026-03-27T14:53:29Z</time></trkpt><trkpt lat="45.800481320683296" lon="9.683293122341746"><ele>621.6</ele><time>2026-03-27T14:53:31Z</time></trkpt><trkpt lat="45.8004980400188" lon="9.683133825420992"><ele>621.4000000000001</ele><time>2026-03-27T14:53:33Z</time></trkpt><trkpt lat="45.80058769464396" lon="9.68305284736794"><ele>621.2</ele><time>2026-03-27T14:53:35Z</time></trkpt><trkpt lat="45.80064575297222" lon="9.683099466278094"><ele>621.0</ele><time>2026-03-27T14:53:36Z</time></trkpt><trkpt lat="45.80067529478347" lon="9.683185060837564"><ele>621.0</ele><time>2026-03-27T14:53:37Z</time></trkpt><trkpt lat="45.80069954694677" lon="9.683347662346375"><ele>621.0</ele><time>2026-03-27T14:53:39Z</time></trkpt><trkpt lat="45.80071225980973" lon="9.683505432061551"><ele>621.0</ele><time>2026-03-27T14:53:41Z</time></trkpt><trkpt lat="45.80072273370015" lon="9.683661361984225"><ele>621.0</ele><time>2026-03-27T14:53:43Z</time></trkpt><trkpt lat="45.80074167892949" lon="9.683816319078812"><ele>621.0</ele><time>2026-03-27T14:53:45Z</time></trkpt><trkpt lat="45.80076135623971" lon="9.683971428427029"><ele>621.2</ele><time>2026-03-27T14:53:47Z</time></trkpt><trkpt lat="45.80078679647159" lon="9.684118846593485"><ele>621.4000000000001</ele><time>2026-03-27T14:53:49Z</time></trkpt><trkpt lat="45.80082180000025" lon="9.684263552970334"><ele>621.6</ele><time>2026-03-27T14:53:51Z</time></trkpt><trkpt lat="45.80085801487145" lon="9.684403882989649"><ele>621.8000000000001</ele><time>2026-03-27T14:53:53Z</time></trkpt><trkpt lat="45.80089474500759" lon="9.684538387440803"><ele>622.0</ele><time>2026-03-27T14:53:55Z</time></trkpt><trkpt lat="45.80093566747834" lon="9.684671574825556"><ele>622.0</ele><time>2026-03-27T14:53:57Z</time></trkpt><trkpt lat="45.800981275345436" lon="9.684809433169887"><ele>622.0</ele><time>2026-03-27T14:53:59Z</time></trkpt><trkpt lat="45.80102247486943" lon="9.68495190801657"><ele>622.0</ele><time>2026-03-27T14:54:01Z</time></trkpt><trkpt lat="45.80105949504878" lon="9.68509341511325"><ele>622.0</ele><time>2026-03-27T14:54:03Z</time></trkpt><trkpt lat="45.801098505671" lon="9.685234347901329"><ele>622.0</ele><time>2026-03-27T14:54:05Z</time></trkpt><trkpt lat="45.80113191030259" lon="9.685376506454881"><ele>623.0</ele><time>2026-03-27T14:54:07Z</time></trkpt><trkpt lat="45.80117154591673" lon="9.68551859756302"><ele>624.0</ele><time>2026-03-27T14:54:09Z</time></trkpt><trkpt lat="45.80120640867984" lon="9.685663331457734"><ele>625.0</ele><time>2026-03-27T14:54:11Z</time></trkpt><trkpt lat="45.80124243558538" lon="9.685810240247022"><ele>626.0</ele><time>2026-03-27T14:54:13Z</time></trkpt><trkpt lat="45.801270485467775" lon="9.685955424690807"><ele>627.0</ele><time>2026-03-27T14:54:15Z</time></trkpt><trkpt lat="45.801289205392614" lon="9.686107946758696"><ele>627.8000000000001</ele><time>2026-03-27T14:54:17Z</time></trkpt><trkpt lat="45.80131143772104" lon="9.686255030446663"><ele>628.6</ele><time>2026-03-27T14:54:19Z</time></trkpt><trkpt lat="45.80132304231625" lon="9.686403879408287"><ele>629.4000000000001</ele><time>2026-03-27T14:54:21Z</time></trkpt><trkpt lat="45.8013316324603" lon="9.686551868521015"><ele>630.2</ele><time>2026-03-27T14:54:23Z</time></trkpt><trkpt lat="45.80133530778996" lon="9.68669740193594"><ele>631.0</ele><time>2026-03-27T14:54:25Z</time></trkpt><trkpt lat="45.80134353401775" lon="9.686843966168327"><ele>632.4</ele><time>2026-03-27T14:54:27Z</time></trkpt><trkpt lat="45.80135032745489" lon="9.686992648228628"><ele>633.8</ele><time>2026-03-27T14:54:29Z</time></trkpt><trkpt lat="45.80135559884063" lon="9.687148833337735"><ele>635.1999999999999</ele><time>2026-03-27T14:54:31Z</time></trkpt><trkpt lat="45.801359863425326" lon="9.687300067044541"><ele>636.6</ele><time>2026-03-27T14:54:33Z</time></trkpt><trkpt lat="45.801359012716965" lon="9.687453786553688"><ele>638.0</ele><time>2026-03-27T14:54:35Z</time></trkpt><trkpt lat="45.80136174701996" lon="9.68760635666969"><ele>638.0</ele><time>2026-03-27T14:54:37Z</time></trkpt><trkpt lat="45.80137104070868" lon="9.687759433021814"><ele>638.0</ele><time>2026-03-27T14:54:39Z</time></trkpt><trkpt lat="45.801374680981894" lon="9.68790000500974"><ele>638.0</ele><time>2026-03-27T14:54:41Z</time></trkpt><trkpt lat="45.801379860449146" lon="9.688047359560741"><ele>638.0</ele><time>2026-03-27T14:54:43Z</time></trkpt><trkpt lat="45.8013914368257" lon="9.688194086915878"><ele>638.0</ele><time>2026-03-27T14:54:45Z</time></trkpt><trkpt lat="45.80139870510237" lon="9.688334283098033"><ele>638.8</ele><time>2026-03-27T14:54:47Z</time></trkpt><trkpt lat="45.80141440524294" lon="9.688473945040931"><ele>639.5999999999999</ele><time>2026-03-27T14:54:49Z</time></trkpt><trkpt lat="45.8014374291144" lon="9.688621299632253"><ele>640.4000000000001</ele><time>2026-03-27T14:54:51Z</time></trkpt><trkpt lat="45.80146849115843" lon="9.688761466529588"><ele>641.2</ele><time>2026-03-27T14:54:53Z</time></trkpt><trkpt lat="45.80150788973291" lon="9.688906219865252"><ele>642.0</ele><time>2026-03-27T14:54:55Z</time></trkpt><trkpt lat="45.80154493169976" lon="9.689049368221484"><ele>644.4000000000001</ele><time>2026-03-27T14:54:57Z</time></trkpt><trkpt lat="45.80158589157302" lon="9.689189991107966"><ele>646.8000000000001</ele><time>2026-03-27T14:54:59Z</time></trkpt><trkpt lat="45.801627429464716" lon="9.689329770201638"><ele>649.2</ele><time>2026-03-27T14:55:01Z</time></trkpt><trkpt lat="45.80165733502974" lon="9.689479789492001"><ele>651.6</ele><time>2026-03-27T14:55:03Z</time></trkpt><trkpt lat="45.80166598891511" lon="9.689626783596225"><ele>654.0</ele><time>2026-03-27T14:55:05Z</time></trkpt><trkpt lat="45.80168253582432" lon="9.689772583877911"><ele>656.0</ele><time>2026-03-27T14:55:07Z</time></trkpt><trkpt lat="45.801705969138595" lon="9.689912695035154"><ele>658.0</ele><time>2026-03-27T14:55:09Z</time></trkpt><trkpt lat="45.80173160909331" lon="9.690049723264426"><ele>660.0</ele><time>2026-03-27T14:55:11Z</time></trkpt><trkpt lat="45.80175472353271" lon="9.690192605852333"><ele>662.0</ele><time>2026-03-27T14:55:13Z</time></trkpt><trkpt lat="45.801769514635836" lon="9.690332216525194"><ele>664.0</ele><time>2026-03-27T14:55:15Z</time></trkpt><trkpt lat="45.80178176673579" lon="9.690467889286428"><ele>664.3333333333334</ele><time>2026-03-27T14:55:17Z</time></trkpt><trkpt lat="45.8017780264178" lon="9.690591124868519"><ele>664.6666666666667</ele><time>2026-03-27T14:55:19Z</time></trkpt><trkpt lat="45.80179057712591" lon="9.690691100380787"><ele>665.0</ele><time>2026-03-27T14:55:22Z</time></trkpt><trkpt lat="45.80175777883768" lon="9.690795653381025"><ele>665.3333333333334</ele><time>2026-03-27T14:55:25Z</time></trkpt><trkpt lat="45.80174712988308" lon="9.690895341605213"><ele>665.6666666666666</ele><time>2026-03-27T14:56:21Z</time></trkpt><trkpt lat="45.8016900116563" lon="9.690958619782043"><ele>666.0</ele><time>2026-03-27T14:56:24Z</time></trkpt><trkpt lat="45.801633822563915" lon="9.691025508962545"><ele>666.5</ele><time>2026-03-27T14:56:26Z</time></trkpt><trkpt lat="45.80159522338255" lon="9.691137023332415"><ele>667.0</ele><time>2026-03-27T14:56:28Z</time></trkpt><trkpt lat="45.80157990881155" lon="9.691249853463422"><ele>667.5</ele><time>2026-03-27T14:56:30Z</time></trkpt><trkpt lat="45.80158357938149" lon="9.691348331041938"><ele>668.0</ele><time>2026-03-27T14:56:32Z</time></trkpt><trkpt lat="45.80157914481019" lon="9.691462169045053"><ele>668.5</ele><time>2026-03-27T14:56:34Z</time></trkpt><trkpt lat="45.801573826306175" lon="9.691606347552273"><ele>669.0</ele><time>2026-03-27T14:56:36Z</time></trkpt><trkpt lat="45.80158186430884" lon="9.691767424121112"><ele>669.0</ele><time>2026-03-27T14:56:38Z</time></trkpt><trkpt lat="45.80157720321378" lon="9.691920811713917"><ele>669.0</ele><time>2026-03-27T14:56:40Z</time></trkpt><trkpt lat="45.801555599035936" lon="9.69207232136421"><ele>669.0</ele><time>2026-03-27T14:56:42Z</time></trkpt><trkpt lat="45.80152129123881" lon="9.692222328306695"><ele>669.0</ele><time>2026-03-27T14:56:44Z</time></trkpt><trkpt lat="45.801483730884016" lon="9.692373156328665"><ele>669.0</ele><time>2026-03-27T14:56:46Z</time></trkpt><trkpt lat="45.801457489042136" lon="9.692528039796457"><ele>669.25</ele><time>2026-03-27T14:56:48Z</time></trkpt><trkpt lat="45.80142649600102" lon="9.692682529280892"><ele>669.5</ele><time>2026-03-27T14:56:50Z</time></trkpt><trkpt lat="45.8013900751417" lon="9.6928363643613"><ele>669.75</ele><time>2026-03-27T14:56:52Z</time></trkpt><trkpt lat="45.80135118990459" lon="9.692991108609885"><ele>670.0</ele><time>2026-03-27T14:56:54Z</time></trkpt><trkpt lat="45.80131813500172" lon="9.693144652953169"><ele>670.0</ele><time>2026-03-27T14:56:56Z</time></trkpt><trkpt lat="45.801282151848106" lon="9.693295075058368"><ele>670.0</ele><time>2026-03-27T14:56:58Z</time></trkpt><trkpt lat="45.80125357480612" lon="9.693448396576954"><ele>670.0</ele><time>2026-03-27T14:57:00Z</time></trkpt><trkpt lat="45.80123221243325" lon="9.69359531051367"><ele>670.0</ele><time>2026-03-27T14:57:02Z</time></trkpt><trkpt lat="45.80122557365573" lon="9.693748943250936"><ele>670.0</ele><time>2026-03-27T14:57:04Z</time></trkpt><trkpt lat="45.8012278096518" lon="9.693894930146769"><ele>671.2</ele><time>2026-03-27T14:57:06Z</time></trkpt><trkpt lat="45.801229020118456" lon="9.6940378500395"><ele>672.4</ele><time>2026-03-27T14:57:08Z</time></trkpt><trkpt lat="45.801226845611914" lon="9.694181321906688"><ele>673.5999999999999</ele><time>2026-03-27T14:57:10Z</time></trkpt><trkpt lat="45.801228690028225" lon="9.69432011299423"><ele>674.8</ele><time>2026-03-27T14:57:12Z</time></trkpt><trkpt lat="45.80122908678571" lon="9.694463380083306"><ele>676.0</ele><time>2026-03-27T14:57:14Z</time></trkpt><trkpt lat="45.8012223230827" lon="9.694607896702554"><ele>677.0</ele><time>2026-03-27T14:57:16Z</time></trkpt><trkpt lat="45.801218939941265" lon="9.694752048387842"><ele>678.0</ele><time>2026-03-27T14:57:18Z</time></trkpt><trkpt lat="45.80121554860037" lon="9.694892479400906"><ele>679.0</ele><time>2026-03-27T14:57:20Z</time></trkpt><trkpt lat="45.801219569496304" lon="9.69500831964163"><ele>680.0</ele><time>2026-03-27T14:57:22Z</time></trkpt><trkpt lat="45.80120817096331" lon="9.695104409292798"><ele>681.0</ele><time>2026-03-27T14:57:24Z</time></trkpt><trkpt lat="45.80120839886408" lon="9.69521098640209"><ele>682.0</ele><time>2026-03-27T14:57:54Z</time></trkpt><trkpt lat="45.80121830243651" lon="9.6953500595575"><ele>683.6</ele><time>2026-03-27T14:57:57Z</time></trkpt><trkpt lat="45.801210138521405" lon="9.695466101779799"><ele>685.2</ele><time>2026-03-27T14:58:00Z</time></trkpt><trkpt lat="45.80121004056077" lon="9.695603605889987"><ele>686.8</ele><time>2026-03-27T14:58:03Z</time></trkpt><trkpt lat="45.80121574344687" lon="9.695724427466844"><ele>688.4</ele><time>2026-03-27T14:58:05Z</time></trkpt><trkpt lat="45.80120988928792" lon="9.695861350116214"><ele>690.0</ele><time>2026-03-27T14:58:07Z</time></trkpt><trkpt lat="45.80119665152607" lon="9.696011054657724"><ele>690.4</ele><time>2026-03-27T14:58:09Z</time></trkpt><trkpt lat="45.801174662308945" lon="9.696172118980899"><ele>690.8</ele><time>2026-03-27T14:58:11Z</time></trkpt><trkpt lat="45.801130722659735" lon="9.696317140535427"><ele>691.2</ele><time>2026-03-27T14:58:13Z</time></trkpt><trkpt lat="45.801076158287024" lon="9.696453845944356"><ele>691.6</ele><time>2026-03-27T14:58:15Z</time></trkpt><trkpt lat="45.80102659389438" lon="9.696597967206458"><ele>692.0</ele><time>2026-03-27T14:58:17Z</time></trkpt><trkpt lat="45.800971377413" lon="9.6967383561959"><ele>696.4000000000001</ele><time>2026-03-27T14:58:19Z</time></trkpt><trkpt lat="45.80092404376404" lon="9.696877136798928"><ele>700.8000000000001</ele><time>2026-03-27T14:58:21Z</time></trkpt><trkpt lat="45.80088793394401" lon="9.6970249423006"><ele>705.2</ele><time>2026-03-27T14:58:23Z</time></trkpt><trkpt lat="45.80086507809947" lon="9.697177459786063"><ele>709.6</ele><time>2026-03-27T14:58:25Z</time></trkpt><trkpt lat="45.80084200843525" lon="9.69733062610423"><ele>714.0</ele><time>2026-03-27T14:58:27Z</time></trkpt><trkpt lat="45.8008241679544" lon="9.697491991894099"><ele>714.4000000000001</ele><time>2026-03-27T14:58:29Z</time></trkpt><trkpt lat="45.800839999066916" lon="9.697644897461545"><ele>714.8</ele><time>2026-03-27T14:58:31Z</time></trkpt><trkpt lat="45.80086159681318" lon="9.697805412907083"><ele>715.2</ele><time>2026-03-27T14:58:33Z</time></trkpt><trkpt lat="45.80088711551768" lon="9.697953897440584"><ele>715.5999999999999</ele><time>2026-03-27T14:58:35Z</time></trkpt><trkpt lat="45.80085551159256" lon="9.698105344816167"><ele>716.0</ele><time>2026-03-27T14:58:37Z</time></trkpt><trkpt lat="45.800766699956654" lon="9.698203684303198"><ele>716.0</ele><time>2026-03-27T14:58:39Z</time></trkpt><trkpt lat="45.800664011552264" lon="9.698117751672516"><ele>716.0</ele><time>2026-03-27T14:58:41Z</time></trkpt><trkpt lat="45.80065682806783" lon="9.698016431475912"><ele>716.0</ele><time>2026-03-27T14:58:42Z</time></trkpt><trkpt lat="45.800653879379475" lon="9.697923424972867"><ele>716.0</ele><time>2026-03-27T14:58:43Z</time></trkpt><trkpt lat="45.80065682457849" lon="9.697752311200057"><ele>716.0</ele><time>2026-03-27T14:58:45Z</time></trkpt><trkpt lat="45.80065531330631" lon="9.697583493549025"><ele>716.0</ele><time>2026-03-27T14:58:47Z</time></trkpt><trkpt lat="45.80065768471977" lon="9.69741354535875"><ele>716.0</ele><time>2026-03-27T14:58:49Z</time></trkpt><trkpt lat="45.80065558557457" lon="9.697250618223386"><ele>716.0</ele><time>2026-03-27T14:58:51Z</time></trkpt><trkpt lat="45.80062771947068" lon="9.697094426235644"><ele>716.0</ele><time>2026-03-27T14:58:53Z</time></trkpt><trkpt lat="45.80055124341665" lon="9.696970520117052"><ele>715.5</ele><time>2026-03-27T14:58:55Z</time></trkpt><trkpt lat="45.80044635375248" lon="9.696886205708275"><ele>715.0</ele><time>2026-03-27T14:58:57Z</time></trkpt><trkpt lat="45.80032771609" lon="9.696861326916515"><ele>714.5</ele><time>2026-03-27T14:58:59Z</time></trkpt><trkpt lat="45.80020741463197" lon="9.696848593854416"><ele>714.0</ele><time>2026-03-27T14:59:01Z</time></trkpt><trkpt lat="45.80008725872122" lon="9.696844051632047"><ele>715.5</ele><time>2026-03-27T14:59:03Z</time></trkpt><trkpt lat="45.799972935698264" lon="9.696854970025393"><ele>717.0</ele><time>2026-03-27T14:59:05Z</time></trkpt><trkpt lat="45.79985970766172" lon="9.696851014109066"><ele>718.5</ele><time>2026-03-27T14:59:07Z</time></trkpt><trkpt lat="45.79974755182552" lon="9.696850209386927"><ele>720.0</ele><time>2026-03-27T14:59:09Z</time></trkpt><trkpt lat="45.79963777793985" lon="9.696845254172228"><ele>720.0</ele><time>2026-03-27T14:59:11Z</time></trkpt><trkpt lat="45.79953184560405" lon="9.696844743337984"><ele>720.0</ele><time>2026-03-27T14:59:13Z</time></trkpt><trkpt lat="45.79942670858911" lon="9.696857644898474"><ele>720.0</ele><time>2026-03-27T14:59:15Z</time></trkpt><trkpt lat="45.79931759730924" lon="9.69684294829303"><ele>720.0</ele><time>2026-03-27T14:59:17Z</time></trkpt><trkpt lat="45.799212523383964" lon="9.696838622016466"><ele>720.0</ele><time>2026-03-27T14:59:19Z</time></trkpt><trkpt lat="45.79911072143546" lon="9.696880416299345"><ele>722.4</ele><time>2026-03-27T14:59:21Z</time></trkpt><trkpt lat="45.79905695846514" lon="9.697017475718027"><ele>724.8</ele><time>2026-03-27T14:59:23Z</time></trkpt><trkpt lat="45.79914318370963" lon="9.697146815865096"><ele>727.2</ele><time>2026-03-27T14:59:25Z</time></trkpt><trkpt lat="45.79920650220099" lon="9.697155855803578"><ele>729.6</ele><time>2026-03-27T14:59:26Z</time></trkpt><trkpt lat="45.7992709389473" lon="9.69715035524042"><ele>732.0</ele><time>2026-03-27T14:59:27Z</time></trkpt><trkpt lat="45.799389764948394" lon="9.697171012508786"><ele>732.0</ele><time>2026-03-27T14:59:29Z</time></trkpt><trkpt lat="45.79950233197079" lon="9.697225785161457"><ele>732.0</ele><time>2026-03-27T14:59:31Z</time></trkpt><trkpt lat="45.79960778961572" lon="9.697278322963054"><ele>732.0</ele><time>2026-03-27T14:59:33Z</time></trkpt><trkpt lat="45.79971214365683" lon="9.69733036207818"><ele>732.0</ele><time>2026-03-27T14:59:35Z</time></trkpt><trkpt lat="45.79979703212222" lon="9.697436215016069"><ele>732.0</ele><time>2026-03-27T14:59:37Z</time></trkpt><trkpt lat="45.79986504698669" lon="9.697562125803865"><ele>732.0</ele><time>2026-03-27T14:59:39Z</time></trkpt><trkpt lat="45.79992675164081" lon="9.69768634989751"><ele>732.0</ele><time>2026-03-27T14:59:41Z</time></trkpt><trkpt lat="45.79998052055964" lon="9.69781305770025"><ele>732.0</ele><time>2026-03-27T14:59:43Z</time></trkpt><trkpt lat="45.80001879497147" lon="9.697947279621909"><ele>732.0</ele><time>2026-03-27T14:59:45Z</time></trkpt><trkpt lat="45.800028590508994" lon="9.698046145905522"><ele>733.8333333333334</ele><time>2026-03-27T14:59:47Z</time></trkpt><trkpt lat="45.79999467082197" lon="9.69812295806168"><ele>735.6666666666666</ele><time>2026-03-27T15:00:17Z</time></trkpt><trkpt lat="45.79999288552884" lon="9.698217028285498"><ele>737.5</ele><time>2026-03-27T15:00:19Z</time></trkpt><trkpt lat="45.79999868754221" lon="9.698321805506287"><ele>739.3333333333333</ele><time>2026-03-27T15:00:21Z</time></trkpt><trkpt lat="45.799992665114466" lon="9.698432416655633"><ele>741.1666666666666</ele><time>2026-03-27T15:00:23Z</time></trkpt><trkpt lat="45.79997278685211" lon="9.69855819599335"><ele>743.0</ele><time>2026-03-27T15:00:25Z</time></trkpt><trkpt lat="45.79995769952724" lon="9.698702776721637"><ele>744.5999999999999</ele><time>2026-03-27T15:00:27Z</time></trkpt><trkpt lat="45.799942776731775" lon="9.698862595299174"><ele>746.1999999999999</ele><time>2026-03-27T15:00:29Z</time></trkpt><trkpt lat="45.7999510580454" lon="9.699016135808495"><ele>747.8</ele><time>2026-03-27T15:00:31Z</time></trkpt><trkpt lat="45.79996932762582" lon="9.699167240279753"><ele>749.4</ele><time>2026-03-27T15:00:33Z</time></trkpt><trkpt lat="45.800006472143494" lon="9.699326275690625"><ele>751.0</ele><time>2026-03-27T15:00:35Z</time></trkpt><trkpt lat="45.80006405259093" lon="9.699465536814934"><ele>751.1999999999999</ele><time>2026-03-27T15:00:37Z</time></trkpt><trkpt lat="45.80013238300926" lon="9.699595099150935"><ele>751.4</ele><time>2026-03-27T15:00:39Z</time></trkpt><trkpt lat="45.800203005949356" lon="9.699719653982465"><ele>751.6</ele><time>2026-03-27T15:00:41Z</time></trkpt><trkpt lat="45.800266645999045" lon="9.699834354426295"><ele>751.8</ele><time>2026-03-27T15:00:43Z</time></trkpt><trkpt lat="45.80030516510013" lon="9.699914418863488"><ele>752.0</ele><time>2026-03-27T15:00:44Z</time></trkpt><trkpt lat="45.80037800605797" lon="9.700032316934072"><ele>752.0</ele><time>2026-03-27T15:00:46Z</time></trkpt><trkpt lat="45.80044729721831" lon="9.700162106386559"><ele>752.0</ele><time>2026-03-27T15:00:48Z</time></trkpt><trkpt lat="45.80051872288157" lon="9.700285279509387"><ele>752.0</ele><time>2026-03-27T15:00:50Z</time></trkpt><trkpt lat="45.8005894524185" lon="9.70040924889959"><ele>752.0</ele><time>2026-03-27T15:00:52Z</time></trkpt><trkpt lat="45.80065652914004" lon="9.70053554998594"><ele>752.0</ele><time>2026-03-27T15:00:54Z</time></trkpt><trkpt lat="45.80072652789918" lon="9.700658926752117"><ele>754.8</ele><time>2026-03-27T15:00:56Z</time></trkpt><trkpt lat="45.800796706520536" lon="9.700780529250366"><ele>757.6</ele><time>2026-03-27T15:00:58Z</time></trkpt><trkpt lat="45.80086527043411" lon="9.700900149492696"><ele>760.4</ele><time>2026-03-27T15:01:00Z</time></trkpt><trkpt lat="45.80091236365973" lon="9.701039272480676"><ele>763.1999999999999</ele><time>2026-03-27T15:01:02Z</time></trkpt><trkpt lat="45.800880257315704" lon="9.701187888054163"><ele>766.0</ele><time>2026-03-27T15:01:04Z</time></trkpt><trkpt lat="45.800758142573834" lon="9.701203895662351"><ele>766.0</ele><time>2026-03-27T15:01:06Z</time></trkpt><trkpt lat="45.8007068847499" lon="9.701139194439069"><ele>766.0</ele><time>2026-03-27T15:01:07Z</time></trkpt><trkpt lat="45.80062747097942" lon="9.701004266562792"><ele>766.0</ele><time>2026-03-27T15:01:09Z</time></trkpt><trkpt lat="45.80053586722182" lon="9.700897615565129"><ele>766.0</ele><time>2026-03-27T15:01:11Z</time></trkpt><trkpt lat="45.800433910439075" lon="9.700803972966561"><ele>766.0</ele><time>2026-03-27T15:01:13Z</time></trkpt><trkpt lat="45.80032880463962" lon="9.700725804439962"><ele>766.0</ele><time>2026-03-27T15:01:15Z</time></trkpt><trkpt lat="45.80022632384535" lon="9.70065224239644"><ele>766.0</ele><time>2026-03-27T15:01:17Z</time></trkpt><trkpt lat="45.800128622962845" lon="9.7005814654722"><ele>766.0</ele><time>2026-03-27T15:01:19Z</time></trkpt><trkpt lat="45.800031760405346" lon="9.700521886611753"><ele>766.0</ele><time>2026-03-27T15:01:21Z</time></trkpt><trkpt lat="45.79993890520509" lon="9.700479057792931"><ele>766.0</ele><time>2026-03-27T15:01:23Z</time></trkpt><trkpt lat="45.79985965525708" lon="9.700470949587459"><ele>765.4</ele><time>2026-03-27T15:01:25Z</time></trkpt><trkpt lat="45.7998063439013" lon="9.700341597163938"><ele>764.8</ele><time>2026-03-27T15:01:27Z</time></trkpt><trkpt lat="45.799752759850406" lon="9.700288052279904"><ele>764.1999999999999</ele><time>2026-03-27T15:01:28Z</time></trkpt><trkpt lat="45.7996637637229" lon="9.700174634913177"><ele>763.5999999999999</ele><time>2026-03-27T15:01:30Z</time></trkpt><trkpt lat="45.799581843004766" lon="9.700062282641428"><ele>763.0</ele><time>2026-03-27T15:01:32Z</time></trkpt><trkpt lat="45.79947055319033" lon="9.700029087241438"><ele>763.0</ele><time>2026-03-27T15:01:34Z</time></trkpt><trkpt lat="45.79939416267497" lon="9.700154149346679"><ele>763.0</ele><time>2026-03-27T15:01:36Z</time></trkpt><trkpt lat="45.79939989774672" lon="9.700246123344742"><ele>763.0</ele><time>2026-03-27T15:01:37Z</time></trkpt><trkpt lat="45.799438312900094" lon="9.700323960900626"><ele>763.0</ele><time>2026-03-27T15:01:38Z</time></trkpt><trkpt lat="45.79948725367547" lon="9.70038523777285"><ele>763.0</ele><time>2026-03-27T15:01:39Z</time></trkpt><trkpt lat="45.79958803530723" lon="9.700494620362"><ele>763.0</ele><time>2026-03-27T15:01:41Z</time></trkpt><trkpt lat="45.79967481312717" lon="9.700613726742123"><ele>766.25</ele><time>2026-03-27T15:01:43Z</time></trkpt><trkpt lat="45.79974096084397" lon="9.700747331733275"><ele>769.5</ele><time>2026-03-27T15:01:45Z</time></trkpt><trkpt lat="45.799793857964325" lon="9.700895697485565"><ele>772.75</ele><time>2026-03-27T15:01:47Z</time></trkpt><trkpt lat="45.79982540522886" lon="9.701048445200483"><ele>776.0</ele><time>2026-03-27T15:01:49Z</time></trkpt><trkpt lat="45.79983954422335" lon="9.70120488839487"><ele>782.0</ele><time>2026-03-27T15:01:51Z</time></trkpt><trkpt lat="45.7998785479119" lon="9.701357410805867"><ele>788.0</ele><time>2026-03-27T15:01:53Z</time></trkpt><trkpt lat="45.79992309376123" lon="9.701504970108862"><ele>794.0</ele><time>2026-03-27T15:01:55Z</time></trkpt><trkpt lat="45.79998435655361" lon="9.701645031983487"><ele>800.0</ele><time>2026-03-27T15:01:57Z</time></trkpt><trkpt lat="45.8000613145765" lon="9.701776866944867"><ele>800.0</ele><time>2026-03-27T15:01:59Z</time></trkpt><trkpt lat="45.80013914415578" lon="9.701895982108528"><ele>800.0</ele><time>2026-03-27T15:02:01Z</time></trkpt><trkpt lat="45.80021728799991" lon="9.702013834550794"><ele>800.0</ele><time>2026-03-27T15:02:03Z</time></trkpt><trkpt lat="45.80029525984358" lon="9.702130374973992"><ele>800.0</ele><time>2026-03-27T15:02:05Z</time></trkpt><trkpt lat="45.800371537216336" lon="9.702246978061622"><ele>800.0</ele><time>2026-03-27T15:02:07Z</time></trkpt><trkpt lat="45.80044902651281" lon="9.70235980905306"><ele>800.0</ele><time>2026-03-27T15:02:09Z</time></trkpt><trkpt lat="45.80051972785388" lon="9.70248108266713"><ele>800.0</ele><time>2026-03-27T15:02:11Z</time></trkpt><trkpt lat="45.800602405823334" lon="9.702587702174775"><ele>800.0</ele><time>2026-03-27T15:02:13Z</time></trkpt><trkpt lat="45.800679345623024" lon="9.702692185937252"><ele>800.0</ele><time>2026-03-27T15:02:15Z</time></trkpt><trkpt lat="45.80075205118731" lon="9.702803067555"><ele>803.2</ele><time>2026-03-27T15:02:17Z</time></trkpt><trkpt lat="45.80082442683594" lon="9.702914353438592"><ele>806.4</ele><time>2026-03-27T15:02:19Z</time></trkpt><trkpt lat="45.80089953522268" lon="9.70302862757905"><ele>809.5999999999999</ele><time>2026-03-27T15:02:21Z</time></trkpt><trkpt lat="45.80097529063611" lon="9.703140886452898"><ele>812.8</ele><time>2026-03-27T15:02:23Z</time></trkpt><trkpt lat="45.80105748141313" lon="9.703251889826074"><ele>816.0</ele><time>2026-03-27T15:02:25Z</time></trkpt><trkpt lat="45.80114005213031" lon="9.703340635801503"><ele>816.0</ele><time>2026-03-27T15:02:27Z</time></trkpt><trkpt lat="45.80124106308088" lon="9.703415225534972"><ele>816.0</ele><time>2026-03-27T15:02:29Z</time></trkpt><trkpt lat="45.80134954188601" lon="9.703458061384984"><ele>816.0</ele><time>2026-03-27T15:02:31Z</time></trkpt><trkpt lat="45.80146779469136" lon="9.703468325988558"><ele>816.0</ele><time>2026-03-27T15:02:33Z</time></trkpt><trkpt lat="45.80158679865904" lon="9.70345666384283"><ele>816.0</ele><time>2026-03-27T15:02:35Z</time></trkpt><trkpt lat="45.801710429295746" lon="9.703446373705448"><ele>816.0</ele><time>2026-03-27T15:02:37Z</time></trkpt><trkpt lat="45.80183288660285" lon="9.703432660584879"><ele>816.0</ele><time>2026-03-27T15:02:39Z</time></trkpt><trkpt lat="45.8019513185366" lon="9.703413478318753"><ele>816.0</ele><time>2026-03-27T15:02:41Z</time></trkpt><trkpt lat="45.80207857310433" lon="9.703369763907036"><ele>815.2857142857143</ele><time>2026-03-27T15:02:43Z</time></trkpt><trkpt lat="45.80215915663454" lon="9.703358036382767"><ele>814.5714285714287</ele><time>2026-03-27T15:02:45Z</time></trkpt><trkpt lat="45.80222052672649" lon="9.7034234464159"><ele>813.8571428571429</ele><time>2026-03-27T15:02:46Z</time></trkpt><trkpt lat="45.802250894383306" lon="9.703503314348469"><ele>813.1428571428571</ele><time>2026-03-27T15:02:47Z</time></trkpt><trkpt lat="45.80221883988991" lon="9.70359072820996"><ele>812.4285714285714</ele><time>2026-03-27T15:02:48Z</time></trkpt><trkpt lat="45.802149649466315" lon="9.703636758374417"><ele>811.7142857142857</ele><time>2026-03-27T15:02:49Z</time></trkpt><trkpt lat="45.80207396448219" lon="9.70362991916485"><ele>811.0</ele><time>2026-03-27T15:02:50Z</time></trkpt><trkpt lat="45.80194838578112" lon="9.703603217460957"><ele>816.5999999999999</ele><time>2026-03-27T15:02:52Z</time></trkpt><trkpt lat="45.80183769175944" lon="9.703616273450814"><ele>822.2</ele><time>2026-03-27T15:02:54Z</time></trkpt><trkpt lat="45.80177470870183" lon="9.703612429686553"><ele>827.8</ele><time>2026-03-27T15:02:55Z</time></trkpt><trkpt lat="45.80165935617987" lon="9.703623595683139"><ele>833.4000000000001</ele><time>2026-03-27T15:02:57Z</time></trkpt><trkpt lat="45.80154599503372" lon="9.703663018860224"><ele>839.0</ele><time>2026-03-27T15:02:59Z</time></trkpt><trkpt lat="45.801439608105966" lon="9.703712150927783"><ele>840.2</ele><time>2026-03-27T15:03:01Z</time></trkpt><trkpt lat="45.801331988082154" lon="9.703745247548856"><ele>841.4000000000001</ele><time>2026-03-27T15:03:03Z</time></trkpt><trkpt lat="45.80122124976505" lon="9.703742310619711"><ele>842.6</ele><time>2026-03-27T15:03:05Z</time></trkpt><trkpt lat="45.80111648596555" lon="9.70371456908193"><ele>843.8</ele><time>2026-03-27T15:03:07Z</time></trkpt><trkpt lat="45.80100270682541" lon="9.70370205197821"><ele>845.0</ele><time>2026-03-27T15:03:09Z</time></trkpt><trkpt lat="45.800891749336536" lon="9.70366173374664"><ele>845.0</ele><time>2026-03-27T15:03:11Z</time></trkpt><trkpt lat="45.80079095347454" lon="9.70359653247342"><ele>845.0</ele><time>2026-03-27T15:03:13Z</time></trkpt><trkpt lat="45.80069722626089" lon="9.703514677981918"><ele>845.0</ele><time>2026-03-27T15:03:15Z</time></trkpt><trkpt lat="45.800598931262584" lon="9.70343835207865"><ele>845.0</ele><time>2026-03-27T15:03:17Z</time></trkpt><trkpt lat="45.80050755719584" lon="9.703370479445564"><ele>845.0</ele><time>2026-03-27T15:03:19Z</time></trkpt><trkpt lat="45.80040159383712" lon="9.703323292779357"><ele>843.4</ele><time>2026-03-27T15:03:21Z</time></trkpt><trkpt lat="45.800296883582455" lon="9.703268440995922"><ele>841.8</ele><time>2026-03-27T15:03:23Z</time></trkpt><trkpt lat="45.80019555684246" lon="9.703225370989587"><ele>840.2</ele><time>2026-03-27T15:03:25Z</time></trkpt><trkpt lat="45.800097233190506" lon="9.703177058734587"><ele>838.6</ele><time>2026-03-27T15:03:27Z</time></trkpt><trkpt lat="45.79999152851203" lon="9.703163265500315"><ele>837.0</ele><time>2026-03-27T15:03:29Z</time></trkpt><trkpt lat="45.79988932045234" lon="9.703224193138073"><ele>837.0</ele><time>2026-03-27T15:03:31Z</time></trkpt><trkpt lat="45.799828610025266" lon="9.703357965306028"><ele>837.0</ele><time>2026-03-27T15:03:33Z</time></trkpt><trkpt lat="45.79983810424553" lon="9.703524821120988"><ele>837.0</ele><time>2026-03-27T15:03:35Z</time></trkpt><trkpt lat="45.79991167832737" lon="9.703644594490227"><ele>837.0</ele><time>2026-03-27T15:03:37Z</time></trkpt><trkpt lat="45.79999349027883" lon="9.703745025498575"><ele>837.0</ele><time>2026-03-27T15:03:39Z</time></trkpt><trkpt lat="45.80007394318724" lon="9.703850898797404"><ele>836.8</ele><time>2026-03-27T15:03:41Z</time></trkpt><trkpt lat="45.800148827161564" lon="9.703955099046551"><ele>836.6</ele><time>2026-03-27T15:03:43Z</time></trkpt><trkpt lat="45.800230678474584" lon="9.704046982244638"><ele>836.4</ele><time>2026-03-27T15:03:45Z</time></trkpt><trkpt lat="45.800309545396" lon="9.70413817160535"><ele>836.1999999999999</ele><time>2026-03-27T15:03:47Z</time></trkpt><trkpt lat="45.80038663177221" lon="9.704222525841725"><ele>836.0</ele><time>2026-03-27T15:03:49Z</time></trkpt><trkpt lat="45.8004633678227" lon="9.704315380659544"><ele>840.0</ele><time>2026-03-27T15:03:51Z</time></trkpt><trkpt lat="45.800534111104525" lon="9.70441456926279"><ele>844.0</ele><time>2026-03-27T15:03:53Z</time></trkpt><trkpt lat="45.80061041926256" lon="9.704510782549546"><ele>847.9999999999999</ele><time>2026-03-27T15:03:55Z</time></trkpt><trkpt lat="45.800680619352825" lon="9.704611196072445"><ele>852.0</ele><time>2026-03-27T15:03:57Z</time></trkpt><trkpt lat="45.80072562069688" lon="9.704738489933588"><ele>856.0</ele><time>2026-03-27T15:03:59Z</time></trkpt><trkpt lat="45.800728106771665" lon="9.704878142288665"><ele>856.0</ele><time>2026-03-27T15:04:01Z</time></trkpt><trkpt lat="45.80071341212458" lon="9.705017554843314"><ele>855.9999999999999</ele><time>2026-03-27T15:04:03Z</time></trkpt><trkpt lat="45.80069281224159" lon="9.70515697564122"><ele>855.9999999999999</ele><time>2026-03-27T15:04:05Z</time></trkpt><trkpt lat="45.80067353507241" lon="9.705296790772879"><ele>856.0</ele><time>2026-03-27T15:04:07Z</time></trkpt><trkpt lat="45.800652047890345" lon="9.705440697223038"><ele>856.0</ele><time>2026-03-27T15:04:09Z</time></trkpt><trkpt lat="45.80063472890013" lon="9.705589424435292"><ele>857.1999999999999</ele><time>2026-03-27T15:04:11Z</time></trkpt><trkpt lat="45.80063976259039" lon="9.705741878481124"><ele>858.3999999999999</ele><time>2026-03-27T15:04:13Z</time></trkpt><trkpt lat="45.800662514735286" lon="9.705889653359193"><ele>859.6</ele><time>2026-03-27T15:04:15Z</time></trkpt><trkpt lat="45.800694135554416" lon="9.706034943570543"><ele>860.8</ele><time>2026-03-27T15:04:17Z</time></trkpt><trkpt lat="45.80073607329074" lon="9.70616794067012"><ele>862.0</ele><time>2026-03-27T15:04:19Z</time></trkpt><trkpt lat="45.800777502550055" lon="9.706301691573797"><ele>863.4000000000001</ele><time>2026-03-27T15:04:21Z</time></trkpt><trkpt lat="45.80081367645243" lon="9.706434916285541"><ele>864.8000000000001</ele><time>2026-03-27T15:04:23Z</time></trkpt><trkpt lat="45.80083587274955" lon="9.70657281185716"><ele>866.2</ele><time>2026-03-27T15:04:25Z</time></trkpt><trkpt lat="45.800840390685366" lon="9.706713186310365"><ele>867.6</ele><time>2026-03-27T15:04:27Z</time></trkpt><trkpt lat="45.800830562960876" lon="9.706851763217815"><ele>869.0</ele><time>2026-03-27T15:04:29Z</time></trkpt><trkpt lat="45.8008098976512" lon="9.706992534306906"><ele>871.0</ele><time>2026-03-27T15:04:31Z</time></trkpt><trkpt lat="45.800781345347644" lon="9.707128190831584"><ele>873.0000000000001</ele><time>2026-03-27T15:04:33Z</time></trkpt><trkpt lat="45.80073349766686" lon="9.70725299745825"><ele>875.0000000000001</ele><time>2026-03-27T15:04:35Z</time></trkpt><trkpt lat="45.80067526707107" lon="9.70736314425837"><ele>877.0</ele><time>2026-03-27T15:04:37Z</time></trkpt><trkpt lat="45.80060570102126" lon="9.707464974706697"><ele>879.0</ele><time>2026-03-27T15:04:39Z</time></trkpt><trkpt lat="45.800530856114634" lon="9.707558493796727"><ele>879.0</ele><time>2026-03-27T15:04:41Z</time></trkpt><trkpt lat="45.80046426752582" lon="9.70766154384564"><ele>879.0000000000001</ele><time>2026-03-27T15:04:43Z</time></trkpt><trkpt lat="45.8003924494003" lon="9.707753993137294"><ele>879.0000000000001</ele><time>2026-03-27T15:04:45Z</time></trkpt><trkpt lat="45.800319373260955" lon="9.707846521913535"><ele>879.0</ele><time>2026-03-27T15:04:47Z</time></trkpt><trkpt lat="45.80024182249503" lon="9.707925052510921"><ele>879.0</ele><time>2026-03-27T15:04:49Z</time></trkpt><trkpt lat="45.80016869354379" lon="9.708008933831415"><ele>880.4000000000001</ele><time>2026-03-27T15:04:51Z</time></trkpt><trkpt lat="45.80009333572243" lon="9.708095416498006"><ele>881.8000000000001</ele><time>2026-03-27T15:04:53Z</time></trkpt><trkpt lat="45.800018783440194" lon="9.708175312567114"><ele>883.1999999999999</ele><time>2026-03-27T15:04:55Z</time></trkpt><trkpt lat="45.79994005262883" lon="9.708249312047094"><ele>884.5999999999999</ele><time>2026-03-27T15:04:57Z</time></trkpt><trkpt lat="45.799863812276" lon="9.708334731822786"><ele>886.0</ele><time>2026-03-27T15:04:59Z</time></trkpt><trkpt lat="45.79981768357595" lon="9.708443552132215"><ele>887.8</ele><time>2026-03-27T15:05:01Z</time></trkpt><trkpt lat="45.799841929309885" lon="9.70858216627804"><ele>889.5999999999999</ele><time>2026-03-27T15:05:03Z</time></trkpt><trkpt lat="45.79992796980501" lon="9.708682464588971"><ele>891.4</ele><time>2026-03-27T15:05:05Z</time></trkpt><trkpt lat="45.800019691169624" lon="9.708690890478088"><ele>893.2</ele><time>2026-03-27T15:05:07Z</time></trkpt><trkpt lat="45.800118054581226" lon="9.70860877913293"><ele>895.0</ele><time>2026-03-27T15:05:09Z</time></trkpt><trkpt lat="45.800219672181484" lon="9.708530758489093"><ele>895.2</ele><time>2026-03-27T15:05:11Z</time></trkpt><trkpt lat="45.800324335478265" lon="9.708487918480628"><ele>895.4</ele><time>2026-03-27T15:05:13Z</time></trkpt><trkpt lat="45.8004275714345" lon="9.708459482893968"><ele>895.5999999999999</ele><time>2026-03-27T15:05:15Z</time></trkpt><trkpt lat="45.800530626092936" lon="9.70846410848368"><ele>895.8</ele><time>2026-03-27T15:05:17Z</time></trkpt><trkpt lat="45.80063486757073" lon="9.70848996237471"><ele>896.0</ele><time>2026-03-27T15:05:19Z</time></trkpt><trkpt lat="45.80073223043122" lon="9.708523335698422"><ele>896.0</ele><time>2026-03-27T15:05:21Z</time></trkpt><trkpt lat="45.8008304222511" lon="9.70855800255514"><ele>895.9999999999999</ele><time>2026-03-27T15:05:23Z</time></trkpt><trkpt lat="45.80092762017891" lon="9.708594744951773"><ele>895.9999999999999</ele><time>2026-03-27T15:05:25Z</time></trkpt><trkpt lat="45.80102886689944" lon="9.708626463241437"><ele>896.0</ele><time>2026-03-27T15:05:27Z</time></trkpt><trkpt lat="45.801120358134206" lon="9.708669366463974"><ele>896.0</ele><time>2026-03-27T15:05:29Z</time></trkpt><trkpt lat="45.801199600196874" lon="9.708744778680936"><ele>896.4</ele><time>2026-03-27T15:05:31Z</time></trkpt><trkpt lat="45.80126433704281" lon="9.70884870985742"><ele>896.8</ele><time>2026-03-27T15:05:33Z</time></trkpt><trkpt lat="45.8013175696592" lon="9.708961953284645"><ele>897.1999999999999</ele><time>2026-03-27T15:05:35Z</time></trkpt><trkpt lat="45.801339859845704" lon="9.709099424896683"><ele>897.5999999999999</ele><time>2026-03-27T15:05:37Z</time></trkpt><trkpt lat="45.8013488707235" lon="9.709244600027208"><ele>898.0</ele><time>2026-03-27T15:05:39Z</time></trkpt><trkpt lat="45.80135290119039" lon="9.709396502316256"><ele>899.8</ele><time>2026-03-27T15:05:41Z</time></trkpt><trkpt lat="45.80135057317827" lon="9.709553284255566"><ele>901.5999999999999</ele><time>2026-03-27T15:05:43Z</time></trkpt><trkpt lat="45.801351804992706" lon="9.709711655905597"><ele>903.4000000000001</ele><time>2026-03-27T15:05:45Z</time></trkpt><trkpt lat="45.80134458135951" lon="9.709864898214102"><ele>905.2</ele><time>2026-03-27T15:05:47Z</time></trkpt><trkpt lat="45.801338427965725" lon="9.710016621912205"><ele>907.0</ele><time>2026-03-27T15:05:49Z</time></trkpt><trkpt lat="45.8013404016883" lon="9.710168783969271"><ele>908.4000000000001</ele><time>2026-03-27T15:05:51Z</time></trkpt><trkpt lat="45.80134025099912" lon="9.710318673244437"><ele>909.8000000000001</ele><time>2026-03-27T15:05:53Z</time></trkpt><trkpt lat="45.80132191169169" lon="9.710461821846087"><ele>911.2</ele><time>2026-03-27T15:05:55Z</time></trkpt><trkpt lat="45.80129154466098" lon="9.71060579776922"><ele>912.6</ele><time>2026-03-27T15:05:57Z</time></trkpt><trkpt lat="45.80124582832266" lon="9.710744401537726"><ele>914.0</ele><time>2026-03-27T15:05:59Z</time></trkpt><trkpt lat="45.801193696997395" lon="9.7108809972794"><ele>914.0</ele><time>2026-03-27T15:06:01Z</time></trkpt><trkpt lat="45.80114173531829" lon="9.711019690397261"><ele>914.0000000000001</ele><time>2026-03-27T15:06:03Z</time></trkpt><trkpt lat="45.801086307911504" lon="9.71114500897668"><ele>914.0000000000001</ele><time>2026-03-27T15:06:05Z</time></trkpt><trkpt lat="45.8010369087307" lon="9.711273829246664"><ele>914.0</ele><time>2026-03-27T15:06:07Z</time></trkpt><trkpt lat="45.80098886388018" lon="9.711396348121703"><ele>914.0</ele><time>2026-03-27T15:06:09Z</time></trkpt><trkpt lat="45.80095626113187" lon="9.711528317937459"><ele>916.4000000000001</ele><time>2026-03-27T15:06:11Z</time></trkpt><trkpt lat="45.80093472143511" lon="9.711668139542766"><ele>918.8000000000001</ele><time>2026-03-27T15:06:13Z</time></trkpt><trkpt lat="45.800915676388236" lon="9.711811128904564"><ele>921.1999999999999</ele><time>2026-03-27T15:06:15Z</time></trkpt><trkpt lat="45.800897132897795" lon="9.71195031543493"><ele>923.5999999999999</ele><time>2026-03-27T15:06:17Z</time></trkpt><trkpt lat="45.800883104558615" lon="9.71209308726096"><ele>926.0</ele><time>2026-03-27T15:06:19Z</time></trkpt><trkpt lat="45.80086664657786" lon="9.712228764418606"><ele>926.5999999999999</ele><time>2026-03-27T15:06:21Z</time></trkpt><trkpt lat="45.80086000771328" lon="9.712358948605273"><ele>927.1999999999999</ele><time>2026-03-27T15:06:23Z</time></trkpt><trkpt lat="45.80085067450719" lon="9.712493851727096"><ele>927.8000000000001</ele><time>2026-03-27T15:06:25Z</time></trkpt><trkpt lat="45.80083655771849" lon="9.71262915366594"><ele>928.4000000000001</ele><time>2026-03-27T15:06:27Z</time></trkpt><trkpt lat="45.800816316996304" lon="9.712765295661036"><ele>929.0</ele><time>2026-03-27T15:06:29Z</time></trkpt><trkpt lat="45.800798765662755" lon="9.712898693811384"><ele>929.2</ele><time>2026-03-27T15:06:31Z</time></trkpt><trkpt lat="45.800768975747474" lon="9.713034768712486"><ele>929.4000000000001</ele><time>2026-03-27T15:06:33Z</time></trkpt><trkpt lat="45.800734459396494" lon="9.713175809049202"><ele>929.6</ele><time>2026-03-27T15:06:35Z</time></trkpt><trkpt lat="45.80070230359455" lon="9.71331669861791"><ele>929.8</ele><time>2026-03-27T15:06:37Z</time></trkpt><trkpt lat="45.80066756339926" lon="9.713444551582386"><ele>930.0</ele><time>2026-03-27T15:06:39Z</time></trkpt><trkpt lat="45.80063439703448" lon="9.713599000725436"><ele>932.2</ele><time>2026-03-27T15:06:41Z</time></trkpt><trkpt lat="45.80060462982229" lon="9.713748291420986"><ele>934.4</ele><time>2026-03-27T15:06:43Z</time></trkpt><trkpt lat="45.80056147180073" lon="9.713889570325486"><ele>936.5999999999999</ele><time>2026-03-27T15:06:45Z</time></trkpt><trkpt lat="45.80052158324736" lon="9.714032182849863"><ele>938.8</ele><time>2026-03-27T15:06:47Z</time></trkpt><trkpt lat="45.800486412715586" lon="9.71417071124171"><ele>941.0</ele><time>2026-03-27T15:06:49Z</time></trkpt><trkpt lat="45.800451272864436" lon="9.714310666618497"><ele>943.8</ele><time>2026-03-27T15:06:51Z</time></trkpt><trkpt lat="45.800418133087106" lon="9.714445791195368"><ele>946.5999999999999</ele><time>2026-03-27T15:06:53Z</time></trkpt><trkpt lat="45.80038230515245" lon="9.714579770164308"><ele>949.4</ele><time>2026-03-27T15:06:55Z</time></trkpt><trkpt lat="45.80034810292941" lon="9.714715824119525"><ele>952.2</ele><time>2026-03-27T15:06:57Z</time></trkpt><trkpt lat="45.80031541797673" lon="9.714851319600452"><ele>955.0</ele><time>2026-03-27T15:06:59Z</time></trkpt><trkpt lat="45.80029182730795" lon="9.71499183159036"><ele>955.0</ele><time>2026-03-27T15:07:01Z</time></trkpt><trkpt lat="45.80027897960672" lon="9.715132562668094"><ele>955.0</ele><time>2026-03-27T15:07:03Z</time></trkpt><trkpt lat="45.80027455706472" lon="9.715276970337948"><ele>955.0</ele><time>2026-03-27T15:07:05Z</time></trkpt><trkpt lat="45.800281425587364" lon="9.715418315797667"><ele>955.0</ele><time>2026-03-27T15:07:07Z</time></trkpt><trkpt lat="45.80028420073638" lon="9.715564575589923"><ele>955.0</ele><time>2026-03-27T15:07:09Z</time></trkpt><trkpt lat="45.80029119923692" lon="9.715702089596476"><ele>956.4</ele><time>2026-03-27T15:07:11Z</time></trkpt><trkpt lat="45.80029429594981" lon="9.715833965560746"><ele>957.8</ele><time>2026-03-27T15:07:13Z</time></trkpt><trkpt lat="45.80028577467366" lon="9.71596648413997"><ele>959.2</ele><time>2026-03-27T15:07:15Z</time></trkpt><trkpt lat="45.800287402362024" lon="9.71610648513155"><ele>960.6</ele><time>2026-03-27T15:07:17Z</time></trkpt><trkpt lat="45.80030315260191" lon="9.716253880048852"><ele>962.0</ele><time>2026-03-27T15:07:19Z</time></trkpt><trkpt lat="45.80033513961495" lon="9.716395622868594"><ele>962.0</ele><time>2026-03-27T15:07:21Z</time></trkpt><trkpt lat="45.80036831450492" lon="9.716508832822566"><ele>962.0</ele><time>2026-03-27T15:07:23Z</time></trkpt><trkpt lat="45.800403272341654" lon="9.716617885672433"><ele>962.0</ele><time>2026-03-27T15:07:25Z</time></trkpt><trkpt lat="45.80043349521556" lon="9.71676266174204"><ele>962.0</ele><time>2026-03-27T15:07:27Z</time></trkpt><trkpt lat="45.80046996396978" lon="9.716924689535144"><ele>962.0</ele><time>2026-03-27T15:07:29Z</time></trkpt><trkpt lat="45.80047953652951" lon="9.717020768278404"><ele>961.9999999999999</ele><time>2026-03-27T15:07:30Z</time></trkpt><trkpt lat="45.80048029898792" lon="9.717127516750029"><ele>962.0</ele><time>2026-03-27T15:07:31Z</time></trkpt><trkpt lat="45.800457772596545" lon="9.71721641394729"><ele>961.9999999999999</ele><time>2026-03-27T15:07:32Z</time></trkpt><trkpt lat="45.80042760946876" lon="9.717296296166959"><ele>961.9999999999999</ele><time>2026-03-27T15:07:33Z</time></trkpt><trkpt lat="45.80036891939527" lon="9.717372581874654"><ele>962.0</ele><time>2026-03-27T15:07:34Z</time></trkpt><trkpt lat="45.800306931698444" lon="9.717430384333515"><ele>961.9999999999999</ele><time>2026-03-27T15:07:35Z</time></trkpt><trkpt lat="45.800248612979885" lon="9.717480993059906"><ele>961.9999999999999</ele><time>2026-03-27T15:07:36Z</time></trkpt><trkpt lat="45.80019515761739" lon="9.717541455322719"><ele>958.5000000000001</ele><time>2026-03-27T15:07:37Z</time></trkpt><trkpt lat="45.80014975687894" lon="9.717606296200936"><ele>955.0</ele><time>2026-03-27T15:07:38Z</time></trkpt><trkpt lat="45.80006624347967" lon="9.717712244283076"><ele>951.5</ele><time>2026-03-27T15:07:40Z</time></trkpt><trkpt lat="45.800026308234635" lon="9.717812421169954"><ele>948.0</ele><time>2026-03-27T15:07:42Z</time></trkpt><trkpt lat="45.79999217193152" lon="9.717905146991024"><ele>944.5000000000001</ele><time>2026-03-27T15:07:45Z</time></trkpt><trkpt lat="45.799949379610176" lon="9.717984762524278"><ele>941.0</ele><time>2026-03-27T15:09:11Z</time></trkpt><trkpt lat="45.799889601451" lon="9.718052884242333"><ele>941.0000000000001</ele><time>2026-03-27T15:09:13Z</time></trkpt><trkpt lat="45.79980555448084" lon="9.718110039909606"><ele>941.0</ele><time>2026-03-27T15:09:15Z</time></trkpt><trkpt lat="45.7997339535763" lon="9.718190695301795"><ele>941.0</ele><time>2026-03-27T15:09:17Z</time></trkpt><trkpt lat="45.799693609407456" lon="9.718268541707994"><ele>941.0</ele><time>2026-03-27T15:09:19Z</time></trkpt><trkpt lat="45.79967556417988" lon="9.718389561652476"><ele>941.0000000000001</ele><time>2026-03-27T15:09:23Z</time></trkpt><trkpt lat="45.79973448004479" lon="9.718453143277436"><ele>941.0</ele><time>2026-03-27T15:09:25Z</time></trkpt><trkpt lat="45.799686850265324" lon="9.718575499414852"><ele>941.5999999999999</ele><time>2026-03-27T15:09:28Z</time></trkpt><trkpt lat="45.79957970823873" lon="9.718614682782986"><ele>942.1999999999999</ele><time>2026-03-27T15:09:30Z</time></trkpt><trkpt lat="45.79950261742027" lon="9.71870182855716"><ele>942.8000000000001</ele><time>2026-03-27T15:09:32Z</time></trkpt><trkpt lat="45.79946327233104" lon="9.718797815158155"><ele>943.4000000000001</ele><time>2026-03-27T15:09:34Z</time></trkpt><trkpt lat="45.79944537371272" lon="9.718905827870927"><ele>944.0</ele><time>2026-03-27T15:09:36Z</time></trkpt><trkpt lat="45.79944684569949" lon="9.719038174311947"><ele>944.0</ele><time>2026-03-27T15:09:38Z</time></trkpt><trkpt lat="45.79941115833964" lon="9.71915177130026"><ele>944.0000000000001</ele><time>2026-03-27T15:09:41Z</time></trkpt><trkpt lat="45.79932480490795" lon="9.719182999429693"><ele>944.0000000000001</ele><time>2026-03-27T15:09:43Z</time></trkpt><trkpt lat="45.79925640004071" lon="9.71907975777488"><ele>944.0</ele><time>2026-03-27T15:09:45Z</time></trkpt><trkpt lat="45.799179622626376" lon="9.718961259373645"><ele>944.0</ele><time>2026-03-27T15:09:47Z</time></trkpt><trkpt lat="45.79906153162478" lon="9.718927254237574"><ele>943.2</ele><time>2026-03-27T15:09:49Z</time></trkpt><trkpt lat="45.798970144497865" lon="9.718873684791216"><ele>942.4000000000001</ele><time>2026-03-27T15:09:51Z</time></trkpt><trkpt lat="45.79890125494899" lon="9.718923198447309"><ele>941.6</ele><time>2026-03-27T15:09:53Z</time></trkpt><trkpt lat="45.798795930838814" lon="9.718898058987438"><ele>940.8</ele><time>2026-03-27T15:09:55Z</time></trkpt><trkpt lat="45.79868262258271" lon="9.718939198438086"><ele>940.0</ele><time>2026-03-27T15:09:57Z</time></trkpt><trkpt lat="45.79859339783756" lon="9.718972704602674"><ele>940.0</ele><time>2026-03-27T15:09:59Z</time></trkpt><trkpt lat="45.79850918535381" lon="9.719033799086404"><ele>940.0</ele><time>2026-03-27T15:10:02Z</time></trkpt><trkpt lat="45.798458422195104" lon="9.719139613434445"><ele>940.0</ele><time>2026-03-27T15:10:04Z</time></trkpt><trkpt lat="45.798386995431116" lon="9.719217535527136"><ele>940.0</ele><time>2026-03-27T15:10:06Z</time></trkpt><trkpt lat="45.79831705210019" lon="9.719312508819758"><ele>940.0</ele><time>2026-03-27T15:10:08Z</time></trkpt><trkpt lat="45.79823456194705" lon="9.719404287858037"><ele>944.0</ele><time>2026-03-27T15:10:10Z</time></trkpt><trkpt lat="45.79814367391449" lon="9.719453207472267"><ele>948.0</ele><time>2026-03-27T15:10:12Z</time></trkpt><trkpt lat="45.79808094874435" lon="9.719514142404904"><ele>952.0</ele><time>2026-03-27T15:10:14Z</time></trkpt><trkpt lat="45.79798474868911" lon="9.719558855049446"><ele>956.0</ele><time>2026-03-27T15:10:17Z</time></trkpt><trkpt lat="45.797877033287556" lon="9.71957890426019"><ele>960.0</ele><time>2026-03-27T15:10:19Z</time></trkpt><trkpt lat="45.79776851576355" lon="9.719607999987858"><ele>960.0</ele><time>2026-03-27T15:10:21Z</time></trkpt><trkpt lat="45.797677325548435" lon="9.71965967129636"><ele>960.0</ele><time>2026-03-27T15:10:23Z</time></trkpt><trkpt lat="45.79761062625115" lon="9.719689770010596"><ele>960.0</ele><time>2026-03-27T15:10:25Z</time></trkpt><trkpt lat="45.79756368288225" lon="9.719760365828623"><ele>960.0</ele><time>2026-03-27T15:10:27.001Z</time></trkpt><trkpt lat="45.79750234219713" lon="9.719843881451684"><ele>960.0</ele><time>2026-03-27T15:10:29.001Z</time></trkpt><trkpt lat="45.79747678282306" lon="9.719954666531784"><ele>960.0</ele><time>2026-03-27T15:10:31.001Z</time></trkpt><trkpt lat="45.797447530394024" lon="9.72003513963823"><ele>959.5</ele><time>2026-03-27T15:10:33.001Z</time></trkpt><trkpt lat="45.79744010517748" lon="9.720129649030715"><ele>959.0</ele><time>2026-03-27T15:10:35.001Z</time></trkpt><trkpt lat="45.79747337469101" lon="9.720250703498653"><ele>958.5</ele><time>2026-03-27T15:10:37.001Z</time></trkpt><trkpt lat="45.79746112934558" lon="9.720386567268962"><ele>958.0</ele><time>2026-03-27T15:10:39.001Z</time></trkpt><trkpt lat="45.79744080831806" lon="9.720526327083553"><ele>957.5</ele><time>2026-03-27T15:10:41.001Z</time></trkpt><trkpt lat="45.79741744947936" lon="9.720634220734365"><ele>957.0</ele><time>2026-03-27T15:10:43.001Z</time></trkpt><trkpt lat="45.7973602209064" lon="9.720704356263864"><ele>957.0</ele><time>2026-03-27T15:10:46.001Z</time></trkpt><trkpt lat="45.79729626667347" lon="9.72074238593399"><ele>957.0</ele><time>2026-03-27T15:10:48.001Z</time></trkpt><trkpt lat="45.79722946209483" lon="9.720870283442077"><ele>957.0</ele><time>2026-03-27T15:10:50.001Z</time></trkpt><trkpt lat="45.7971963515532" lon="9.721001488047138"><ele>957.0</ele><time>2026-03-27T15:10:52.001Z</time></trkpt><trkpt lat="45.79714014604285" lon="9.721137174104662"><ele>957.0</ele><time>2026-03-27T15:10:54.001Z</time></trkpt><trkpt lat="45.79704320852195" lon="9.721162637802042"><ele>961.2</ele><time>2026-03-27T15:10:56.001Z</time></trkpt><trkpt lat="45.79697074959614" lon="9.72113910379513"><ele>965.4000000000001</ele><time>2026-03-27T15:10:58.001Z</time></trkpt><trkpt lat="45.79690456086757" lon="9.721212170805927"><ele>969.5999999999999</ele><time>2026-03-27T15:11:00.001Z</time></trkpt><trkpt lat="45.79684407342284" lon="9.721306302448223"><ele>973.8</ele><time>2026-03-27T15:11:02.001Z</time></trkpt><trkpt lat="45.79676642178386" lon="9.721377237233803"><ele>978.0</ele><time>2026-03-27T15:11:04.001Z</time></trkpt><trkpt lat="45.79668702286027" lon="9.721491836575586"><ele>975.8</ele><time>2026-03-27T15:11:06.001Z</time></trkpt><trkpt lat="45.796617197115104" lon="9.7216058212465"><ele>973.5999999999999</ele><time>2026-03-27T15:11:08.001Z</time></trkpt><trkpt lat="45.796573319737966" lon="9.721752909591912"><ele>971.4000000000001</ele><time>2026-03-27T15:11:10.001Z</time></trkpt><trkpt lat="45.796535947041036" lon="9.721847805943812"><ele>969.2</ele><time>2026-03-27T15:11:12.001Z</time></trkpt><trkpt lat="45.79654382105059" lon="9.72196662669051"><ele>967.0</ele><time>2026-03-27T15:11:14.001Z</time></trkpt><trkpt lat="45.796521959719946" lon="9.722074121885298"><ele>966.9999999999999</ele><time>2026-03-27T15:11:17.001Z</time></trkpt><trkpt lat="45.79646722714368" lon="9.722155448288234"><ele>967.0</ele><time>2026-03-27T15:11:20.001Z</time></trkpt><trkpt lat="45.79639689575653" lon="9.722234957244815"><ele>967.0</ele><time>2026-03-27T15:11:23.001Z</time></trkpt><trkpt lat="45.796357739018205" lon="9.722337238270793"><ele>967.0</ele><time>2026-03-27T15:11:26.001Z</time></trkpt><trkpt lat="45.796301447694894" lon="9.722450430481643"><ele>966.9999999999999</ele><time>2026-03-27T15:11:29.001Z</time></trkpt><trkpt lat="45.79622719822396" lon="9.722534219052877"><ele>967.0</ele><time>2026-03-27T15:11:32.001Z</time></trkpt><trkpt lat="45.79613256267258" lon="9.722592806286476"><ele>966.9999999999999</ele><time>2026-03-27T15:11:34.001Z</time></trkpt><trkpt lat="45.79604737658492" lon="9.722671929336517"><ele>967.0</ele><time>2026-03-27T15:11:36.001Z</time></trkpt><trkpt lat="45.79597379559723" lon="9.72274031994203"><ele>967.0</ele><time>2026-03-27T15:11:38.001Z</time></trkpt><trkpt lat="45.795907861120796" lon="9.72277685095931"><ele>967.0</ele><time>2026-03-27T15:12:26Z</time></trkpt><trkpt lat="45.795845269996306" lon="9.722822021858676"><ele>966.9999999999999</ele><time>2026-03-27T15:12:29Z</time></trkpt><trkpt lat="45.79577829311704" lon="9.722861136727511"><ele>967.0</ele><time>2026-03-27T15:12:31Z</time></trkpt><trkpt lat="45.795697857494595" lon="9.72289617854697"><ele>968.6666666666666</ele><time>2026-03-27T15:12:33Z</time></trkpt><trkpt lat="45.795626032462955" lon="9.722916040891914"><ele>970.3333333333333</ele><time>2026-03-27T15:12:35Z</time></trkpt><trkpt lat="45.79556783331064" lon="9.722954406104314"><ele>972.0</ele><time>2026-03-27T15:12:37Z</time></trkpt><trkpt lat="45.79551077841377" lon="9.723008882934852"><ele>973.6666666666667</ele><time>2026-03-27T15:12:39Z</time></trkpt><trkpt lat="45.79542712241714" lon="9.723042132783178"><ele>975.3333333333334</ele><time>2026-03-27T15:12:42Z</time></trkpt><trkpt lat="45.79533559738993" lon="9.7230536858561"><ele>977.0</ele><time>2026-03-27T15:12:45Z</time></trkpt><trkpt lat="45.79526820079557" lon="9.723077793162519"><ele>977.0000000000001</ele><time>2026-03-27T15:12:47.001Z</time></trkpt><trkpt lat="45.79518402914411" lon="9.723123807766632"><ele>977.0</ele><time>2026-03-27T15:12:50.001Z</time></trkpt><trkpt lat="45.79511543656802" lon="9.723191527254135"><ele>977.0</ele><time>2026-03-27T15:12:53.001Z</time></trkpt><trkpt lat="45.795060746891146" lon="9.72324380595991"><ele>977.0</ele><time>2026-03-27T15:12:56.001Z</time></trkpt><trkpt lat="45.794990944589955" lon="9.723296794535308"><ele>977.0000000000001</ele><time>2026-03-27T15:12:59.001Z</time></trkpt><trkpt lat="45.794920452112564" lon="9.723345782855661"><ele>977.0</ele><time>2026-03-27T15:13:02.001Z</time></trkpt><trkpt lat="45.79485161520942" lon="9.723372453764753"><ele>975.6666666666667</ele><time>2026-03-27T15:13:06.001Z</time></trkpt><trkpt lat="45.7947811960132" lon="9.723409432466386"><ele>974.3333333333334</ele><time>2026-03-27T15:13:10.001Z</time></trkpt><trkpt lat="45.79475794684636" lon="9.72351435223847"><ele>973.0</ele><time>2026-03-27T15:13:12.001Z</time></trkpt><trkpt lat="45.79475083588144" lon="9.723633123913453"><ele>971.6666666666667</ele><time>2026-03-27T15:13:14.001Z</time></trkpt><trkpt lat="45.794756053106475" lon="9.723736996348958"><ele>970.3333333333334</ele><time>2026-03-27T15:13:16.001Z</time></trkpt><trkpt lat="45.79475921927957" lon="9.723853397499683"><ele>969.0</ele><time>2026-03-27T15:13:18.001Z</time></trkpt><trkpt lat="45.79476246642758" lon="9.72397699434114"><ele>969.0</ele><time>2026-03-27T15:13:20.001Z</time></trkpt><trkpt lat="45.794793194400526" lon="9.724084086958028"><ele>969.0</ele><time>2026-03-27T15:13:22.001Z</time></trkpt><trkpt lat="45.794786344886106" lon="9.724206606764227"><ele>969.0</ele><time>2026-03-27T15:13:24.001Z</time></trkpt><trkpt lat="45.79476469028567" lon="9.724316236731305"><ele>969.0</ele><time>2026-03-27T15:13:26.001Z</time></trkpt><trkpt lat="45.79473249671721" lon="9.724417705541384"><ele>969.0</ele><time>2026-03-27T15:13:28.001Z</time></trkpt><trkpt lat="45.79469099714108" lon="9.724501296712711"><ele>969.0</ele><time>2026-03-27T15:13:30.001Z</time></trkpt><trkpt lat="45.79466226959227" lon="9.724584181801138"><ele>967.9999999999999</ele><time>2026-03-27T15:13:32.001Z</time></trkpt><trkpt lat="45.794641479711935" lon="9.724671097892626"><ele>967.0</ele><time>2026-03-27T15:13:34.001Z</time></trkpt><trkpt lat="45.79461639681517" lon="9.72477156794957"><ele>965.9999999999999</ele><time>2026-03-27T15:13:40.001Z</time></trkpt><trkpt lat="45.79460402153703" lon="9.724871551069123"><ele>964.9999999999999</ele><time>2026-03-27T15:14:09.001Z</time></trkpt><trkpt lat="45.79458237744465" lon="9.725002188438893"><ele>964.0</ele><time>2026-03-27T15:14:12Z</time></trkpt><trkpt lat="45.79454822470325" lon="9.725094150967845"><ele>962.9999999999999</ele><time>2026-03-27T15:14:14.001Z</time></trkpt><trkpt lat="45.794518686301735" lon="9.725184320873948"><ele>961.9999999999999</ele><time>2026-03-27T15:14:16Z</time></trkpt><trkpt lat="45.79449097164145" lon="9.725287645256593"><ele>962.0000000000001</ele><time>2026-03-27T15:14:19Z</time></trkpt><trkpt lat="45.7944327060968" lon="9.72535893025329"><ele>962.0</ele><time>2026-03-27T15:14:22Z</time></trkpt><trkpt lat="45.79443041055205" lon="9.72546740230957"><ele>962.0</ele><time>2026-03-27T15:14:25Z</time></trkpt><trkpt lat="45.7944919220279" lon="9.725493377091428"><ele>962.0</ele><time>2026-03-27T15:14:28.001Z</time></trkpt><trkpt lat="45.7944898241508" lon="9.725605337080745"><ele>962.0000000000001</ele><time>2026-03-27T15:15:22Z</time></trkpt><trkpt lat="45.79439554779664" lon="9.725615299154818"><ele>962.0</ele><time>2026-03-27T15:15:25Z</time></trkpt><trkpt lat="45.79433109880642" lon="9.725603413580565"><ele>960.6</ele><time>2026-03-27T15:15:27Z</time></trkpt><trkpt lat="45.794259789426626" lon="9.725627799564533"><ele>959.2</ele><time>2026-03-27T15:15:29Z</time></trkpt><trkpt lat="45.79418507554764" lon="9.725650576752733"><ele>957.8</ele><time>2026-03-27T15:15:31Z</time></trkpt><trkpt lat="45.794117623997785" lon="9.72572809358473"><ele>956.4</ele><time>2026-03-27T15:15:33Z</time></trkpt><trkpt lat="45.79403889172897" lon="9.725828074917501"><ele>955.0</ele><time>2026-03-27T15:15:35Z</time></trkpt><trkpt lat="45.793953124383414" lon="9.72594245272545"><ele>954.9999999999999</ele><time>2026-03-27T15:15:37Z</time></trkpt><trkpt lat="45.79390488763662" lon="9.72600083318145"><ele>955.0</ele><time>2026-03-27T15:15:38Z</time></trkpt><trkpt lat="45.79381583911012" lon="9.726125475919494"><ele>955.0</ele><time>2026-03-27T15:15:40Z</time></trkpt><trkpt lat="45.79376856458023" lon="9.726193794748745"><ele>955.0</ele><time>2026-03-27T15:15:41Z</time></trkpt><trkpt lat="45.793723409035834" lon="9.726263818619405"><ele>954.9999999999999</ele><time>2026-03-27T15:15:42Z</time></trkpt><trkpt lat="45.79367854636655" lon="9.726335592457533"><ele>955.0</ele><time>2026-03-27T15:15:43Z</time></trkpt><trkpt lat="45.7936407045489" lon="9.726411354446661"><ele>956.1666666666666</ele><time>2026-03-27T15:15:44Z</time></trkpt><trkpt lat="45.79356218416548" lon="9.726545281759885"><ele>957.3333333333333</ele><time>2026-03-27T15:15:46Z</time></trkpt><trkpt lat="45.793516164804" lon="9.726613876178115"><ele>958.5</ele><time>2026-03-27T15:15:47Z</time></trkpt><trkpt lat="45.793437322263024" lon="9.726741274938465"><ele>959.6666666666667</ele><time>2026-03-27T15:15:49Z</time></trkpt><trkpt lat="45.79339255817798" lon="9.726813617017518"><ele>960.8333333333334</ele><time>2026-03-27T15:15:50Z</time></trkpt><trkpt lat="45.793357520726566" lon="9.726894605994119"><ele>962.0</ele><time>2026-03-27T15:15:51Z</time></trkpt><trkpt lat="45.793336577170635" lon="9.726986982814182"><ele>962.0000000000001</ele><time>2026-03-27T15:15:52Z</time></trkpt><trkpt lat="45.79332204282512" lon="9.727172342465503"><ele>962.0</ele><time>2026-03-27T15:15:54Z</time></trkpt><trkpt lat="45.79331988102485" lon="9.727343498477664"><ele>962.0</ele><time>2026-03-27T15:15:56Z</time></trkpt><trkpt lat="45.793307677375374" lon="9.727442609294405"><ele>962.0</ele><time>2026-03-27T15:15:57Z</time></trkpt><trkpt lat="45.793291047339046" lon="9.72753063237992"><ele>962.0000000000001</ele><time>2026-03-27T15:15:58Z</time></trkpt><trkpt lat="45.79327034766945" lon="9.72761637383905"><ele>962.0</ele><time>2026-03-27T15:15:59Z</time></trkpt><trkpt lat="45.79324233241317" lon="9.727697564775198"><ele>959.0</ele><time>2026-03-27T15:16:00Z</time></trkpt><trkpt lat="45.793215684814975" lon="9.72778068814827"><ele>956.0</ele><time>2026-03-27T15:16:01Z</time></trkpt><trkpt lat="45.7931869703557" lon="9.72795931331711"><ele>953.0</ele><time>2026-03-27T15:16:03Z</time></trkpt><trkpt lat="45.79315227939705" lon="9.72805466535235"><ele>950.0</ele><time>2026-03-27T15:16:04Z</time></trkpt><trkpt lat="45.793091308107925" lon="9.72821972036336"><ele>947.0</ele><time>2026-03-27T15:16:06Z</time></trkpt><trkpt lat="45.79305275810844" lon="9.72829834122552"><ele>947.0</ele><time>2026-03-27T15:16:07Z</time></trkpt><trkpt lat="45.793004262997826" lon="9.72837566999323"><ele>946.9999999999999</ele><time>2026-03-27T15:16:08Z</time></trkpt><trkpt lat="45.79295609424773" lon="9.728447732186808"><ele>947.0</ele><time>2026-03-27T15:16:09Z</time></trkpt><trkpt lat="45.79290851613725" lon="9.728530566087652"><ele>947.0</ele><time>2026-03-27T15:16:10Z</time></trkpt><trkpt lat="45.79286596532549" lon="9.728616518338649"><ele>946.9999999999999</ele><time>2026-03-27T15:16:11Z</time></trkpt><trkpt lat="45.792821817927155" lon="9.728705170058914"><ele>947.0</ele><time>2026-03-27T15:16:12Z</time></trkpt><trkpt lat="45.79279366710021" lon="9.72881605958498"><ele>947.0</ele><time>2026-03-27T15:16:13Z</time></trkpt><trkpt lat="45.792782829970726" lon="9.728929655632546"><ele>944.5714285714286</ele><time>2026-03-27T15:16:14Z</time></trkpt><trkpt lat="45.79277431231455" lon="9.729024252638641"><ele>942.1428571428571</ele><time>2026-03-27T15:16:15Z</time></trkpt><trkpt lat="45.79277568063943" lon="9.729133797722634"><ele>939.7142857142857</ele><time>2026-03-27T15:16:16Z</time></trkpt><trkpt lat="45.792782046749956" lon="9.72924102023947"><ele>937.2857142857142</ele><time>2026-03-27T15:16:17Z</time></trkpt><trkpt lat="45.792747804218614" lon="9.729343544624134"><ele>934.8571428571429</ele><time>2026-03-27T15:16:18Z</time></trkpt><trkpt lat="45.79270213437583" lon="9.729422627333838"><ele>932.4285714285713</ele><time>2026-03-27T15:16:19Z</time></trkpt><trkpt lat="45.79264121393739" lon="9.72949558987985"><ele>930.0</ele><time>2026-03-27T15:16:20Z</time></trkpt><trkpt lat="45.79257606815202" lon="9.729536726175557"><ele>930.0</ele><time>2026-03-27T15:16:21Z</time></trkpt><trkpt lat="45.79250965893456" lon="9.729569295732352"><ele>930.0</ele><time>2026-03-27T15:16:22Z</time></trkpt><trkpt lat="45.792442749852015" lon="9.729600785704392"><ele>930.0</ele><time>2026-03-27T15:16:23Z</time></trkpt><trkpt lat="45.792371603940495" lon="9.72961713871812"><ele>930.0</ele><time>2026-03-27T15:16:24Z</time></trkpt><trkpt lat="45.79230043186325" lon="9.72963389151228"><ele>930.0</ele><time>2026-03-27T15:16:25Z</time></trkpt><trkpt lat="45.79222668174069" lon="9.729654568004051"><ele>930.0</ele><time>2026-03-27T15:16:26Z</time></trkpt><trkpt lat="45.792154989440256" lon="9.729669435395678"><ele>930.0</ele><time>2026-03-27T15:16:27Z</time></trkpt><trkpt lat="45.792083391490245" lon="9.729700232289536"><ele>930.0</ele><time>2026-03-27T15:16:28Z</time></trkpt><trkpt lat="45.792014730295264" lon="9.729752887382974"><ele>930.0</ele><time>2026-03-27T15:16:29Z</time></trkpt><trkpt lat="45.791948281349654" lon="9.729810928744484"><ele>930.0</ele><time>2026-03-27T15:16:30Z</time></trkpt><trkpt lat="45.791882979521006" lon="9.729875774871926"><ele>930.0</ele><time>2026-03-27T15:16:31Z</time></trkpt><trkpt lat="45.791822999268824" lon="9.729948832262423"><ele>930.0</ele><time>2026-03-27T15:16:32Z</time></trkpt><trkpt lat="45.79177363792359" lon="9.730035520618426"><ele>930.0</ele><time>2026-03-27T15:16:33Z</time></trkpt><trkpt lat="45.79173788163791" lon="9.730140953076148"><ele>930.3333333333334</ele><time>2026-03-27T15:16:34Z</time></trkpt><trkpt lat="45.791707134355214" lon="9.730245626257528"><ele>930.6666666666667</ele><time>2026-03-27T15:16:35Z</time></trkpt><trkpt lat="45.791676100962846" lon="9.73034930346565"><ele>931.0</ele><time>2026-03-27T15:16:36Z</time></trkpt><trkpt lat="45.79164616721981" lon="9.730455336730802"><ele>931.3333333333334</ele><time>2026-03-27T15:16:37Z</time></trkpt><trkpt lat="45.79161601238111" lon="9.730565258636371"><ele>931.6666666666667</ele><time>2026-03-27T15:16:38Z</time></trkpt><trkpt lat="45.7915820318469" lon="9.730665836776344"><ele>932.0</ele><time>2026-03-27T15:16:39Z</time></trkpt><trkpt lat="45.79154061422245" lon="9.730750777073945"><ele>932.0</ele><time>2026-03-27T15:16:40Z</time></trkpt><trkpt lat="45.79148573492431" lon="9.730806479934017"><ele>932.0</ele><time>2026-03-27T15:16:41Z</time></trkpt><trkpt lat="45.79142079471153" lon="9.730818355700857"><ele>932.0</ele><time>2026-03-27T15:16:42Z</time></trkpt><trkpt lat="45.79135241113378" lon="9.730784328094346"><ele>932.0</ele><time>2026-03-27T15:16:43Z</time></trkpt><trkpt lat="45.79129611056592" lon="9.730721973438644"><ele>932.0</ele><time>2026-03-27T15:16:44Z</time></trkpt><trkpt lat="45.79123643801132" lon="9.730666365744671"><ele>932.0</ele><time>2026-03-27T15:16:45Z</time></trkpt><trkpt lat="45.79117325759395" lon="9.730597057841084"><ele>932.0</ele><time>2026-03-27T15:16:46Z</time></trkpt><trkpt lat="45.79110515584503" lon="9.730540117872184"><ele>932.0000000000001</ele><time>2026-03-27T15:16:47Z</time></trkpt><trkpt lat="45.79102534481278" lon="9.730491975080428"><ele>932.0</ele><time>2026-03-27T15:16:48Z</time></trkpt><trkpt lat="45.79094181668268" lon="9.730472456073223"><ele>932.0</ele><time>2026-03-27T15:16:49Z</time></trkpt><trkpt lat="45.79085153870048" lon="9.730502794049928"><ele>932.0</ele><time>2026-03-27T15:16:50Z</time></trkpt><trkpt lat="45.790763227829466" lon="9.730546607191895"><ele>932.0000000000001</ele><time>2026-03-27T15:16:51Z</time></trkpt><trkpt lat="45.790672744732674" lon="9.730557995061664"><ele>932.0</ele><time>2026-03-27T15:16:52Z</time></trkpt><trkpt lat="45.79058610276957" lon="9.7305331414209"><ele>931.0000000000001</ele><time>2026-03-27T15:16:53Z</time></trkpt><trkpt lat="45.79050792514457" lon="9.73048258119844"><ele>930.0</ele><time>2026-03-27T15:16:54Z</time></trkpt><trkpt lat="45.79043861329617" lon="9.730415701328567"><ele>929.0</ele><time>2026-03-27T15:16:55Z</time></trkpt><trkpt lat="45.79036524338561" lon="9.730397736640986"><ele>928.0</ele><time>2026-03-27T15:16:56Z</time></trkpt><trkpt lat="45.790278264811015" lon="9.730432126210372"><ele>927.0000000000001</ele><time>2026-03-27T15:16:57Z</time></trkpt><trkpt lat="45.79020523765517" lon="9.7304940642227"><ele>926.0</ele><time>2026-03-27T15:16:58Z</time></trkpt><trkpt lat="45.79013121590766" lon="9.730560125265885"><ele>925.3333333333334</ele><time>2026-03-27T15:16:59Z</time></trkpt><trkpt lat="45.790051581203755" lon="9.73061170781407"><ele>924.6666666666667</ele><time>2026-03-27T15:17:00Z</time></trkpt><trkpt lat="45.78997096998033" lon="9.73062901804797"><ele>924.0</ele><time>2026-03-27T15:17:01Z</time></trkpt><trkpt lat="45.78989283880418" lon="9.730602006585057"><ele>923.3333333333333</ele><time>2026-03-27T15:17:02Z</time></trkpt><trkpt lat="45.78981723227827" lon="9.730552353332872"><ele>922.6666666666666</ele><time>2026-03-27T15:17:03Z</time></trkpt><trkpt lat="45.7897388098815" lon="9.7305734355313"><ele>922.0</ele><time>2026-03-27T15:17:04Z</time></trkpt><trkpt lat="45.78966491190672" lon="9.730644361480003"><ele>921.9999999999999</ele><time>2026-03-27T15:17:05Z</time></trkpt><trkpt lat="45.78959984933245" lon="9.730715719782964"><ele>922.0</ele><time>2026-03-27T15:17:06Z</time></trkpt><trkpt lat="45.78952954760268" lon="9.730756340897837"><ele>922.0</ele><time>2026-03-27T15:17:07Z</time></trkpt><trkpt lat="45.78945870137698" lon="9.730798724316704"><ele>922.0</ele><time>2026-03-27T15:17:08Z</time></trkpt><trkpt lat="45.78939427415535" lon="9.730854162066063"><ele>921.9999999999999</ele><time>2026-03-27T15:17:09Z</time></trkpt><trkpt lat="45.78934418970852" lon="9.730942191302525"><ele>922.0</ele><time>2026-03-27T15:17:10Z</time></trkpt><trkpt lat="45.78931437900094" lon="9.731043730556479"><ele>926.8</ele><time>2026-03-27T15:17:11Z</time></trkpt><trkpt lat="45.78929629610084" lon="9.731139145689099"><ele>931.6</ele><time>2026-03-27T15:17:12Z</time></trkpt><trkpt lat="45.78931836445073" lon="9.731267940179038"><ele>936.3999999999999</ele><time>2026-03-27T15:17:14Z</time></trkpt><trkpt lat="45.78936520435093" lon="9.731394763008284"><ele>941.1999999999999</ele><time>2026-03-27T15:17:17Z</time></trkpt><trkpt lat="45.789388454841514" lon="9.731587601303433"><ele>946.0</ele><time>2026-03-27T15:17:19Z</time></trkpt><trkpt lat="45.78938306242738" lon="9.73170419136687"><ele>945.9999999999999</ele><time>2026-03-27T15:17:20Z</time></trkpt><trkpt lat="45.789368923782" lon="9.731820716934577"><ele>946.0</ele><time>2026-03-27T15:17:21Z</time></trkpt><trkpt lat="45.78933496940304" lon="9.731927216794388"><ele>946.0</ele><time>2026-03-27T15:17:22Z</time></trkpt><trkpt lat="45.78930208776178" lon="9.732036142591237"><ele>946.0</ele><time>2026-03-27T15:17:23Z</time></trkpt><trkpt lat="45.78929193279206" lon="9.732152092863705"><ele>945.9999999999999</ele><time>2026-03-27T15:17:24Z</time></trkpt><trkpt lat="45.78933500968607" lon="9.7322997908346"><ele>946.0</ele><time>2026-03-27T15:17:25Z</time></trkpt><trkpt lat="45.789390742294124" lon="9.732426449506915"><ele>935.5999999999999</ele><time>2026-03-27T15:17:26Z</time></trkpt><trkpt lat="45.78943853552398" lon="9.732559142591635"><ele>925.1999999999999</ele><time>2026-03-27T15:17:27Z</time></trkpt><trkpt lat="45.789485528833666" lon="9.732695461614865"><ele>914.8000000000001</ele><time>2026-03-27T15:17:28Z</time></trkpt><trkpt lat="45.78952367154788" lon="9.7328389381459"><ele>904.4000000000001</ele><time>2026-03-27T15:17:29Z</time></trkpt><trkpt lat="45.78957149669197" lon="9.732988692739513"><ele>894.0</ele><time>2026-03-27T15:17:30Z</time></trkpt><trkpt lat="45.78961272907457" lon="9.733136537347205"><ele>894.0</ele><time>2026-03-27T15:17:31Z</time></trkpt><trkpt lat="45.789672126879914" lon="9.733276904150953"><ele>894.0000000000001</ele><time>2026-03-27T15:17:32Z</time></trkpt><trkpt lat="45.789743575519" lon="9.733405161989701"><ele>894.0000000000001</ele><time>2026-03-27T15:17:33Z</time></trkpt><trkpt lat="45.78979847551971" lon="9.733534278379556"><ele>894.0</ele><time>2026-03-27T15:17:34Z</time></trkpt><trkpt lat="45.78983537302649" lon="9.733660081628315"><ele>894.0</ele><time>2026-03-27T15:17:35Z</time></trkpt><trkpt lat="45.789860805351196" lon="9.73377538474104"><ele>893.6666666666666</ele><time>2026-03-27T15:17:36Z</time></trkpt><trkpt lat="45.789893602583255" lon="9.73388954491376"><ele>893.3333333333333</ele><time>2026-03-27T15:17:37Z</time></trkpt><trkpt lat="45.78992453413412" lon="9.733986708988615"><ele>893.0</ele><time>2026-03-27T15:17:38Z</time></trkpt><trkpt lat="45.78994233535726" lon="9.734083429223443"><ele>892.6666666666666</ele><time>2026-03-27T15:17:39Z</time></trkpt><trkpt lat="45.78994395531061" lon="9.73419926878005"><ele>892.3333333333333</ele><time>2026-03-27T15:17:40Z</time></trkpt><trkpt lat="45.78993142201428" lon="9.734314358123354"><ele>892.0</ele><time>2026-03-27T15:17:41Z</time></trkpt><trkpt lat="45.78990771946807" lon="9.734409658230087"><ele>890.4999999999999</ele><time>2026-03-27T15:17:42Z</time></trkpt><trkpt lat="45.78985650879102" lon="9.73449231443799"><ele>889.0</ele><time>2026-03-27T15:17:43Z</time></trkpt><trkpt lat="45.789783065394545" lon="9.734549115623736"><ele>887.5</ele><time>2026-03-27T15:17:44Z</time></trkpt><trkpt lat="45.78971691941105" lon="9.734594897596725"><ele>886.0</ele><time>2026-03-27T15:17:45Z</time></trkpt><trkpt lat="45.78968101563773" lon="9.734709426863065"><ele>884.4999999999999</ele><time>2026-03-27T15:17:47Z</time></trkpt><trkpt lat="45.789781538146016" lon="9.734732995931843"><ele>883.0</ele><time>2026-03-27T15:17:49Z</time></trkpt><trkpt lat="45.789835775136424" lon="9.734678367253474"><ele>882.9999999999999</ele><time>2026-03-27T15:17:50Z</time></trkpt><trkpt lat="45.78992839560846" lon="9.734576414674217"><ele>883.0</ele><time>2026-03-27T15:17:52Z</time></trkpt><trkpt lat="45.78998814984883" lon="9.734536308993958"><ele>883.0</ele><time>2026-03-27T15:17:53Z</time></trkpt><trkpt lat="45.790045007700115" lon="9.73448305374992"><ele>883.0</ele><time>2026-03-27T15:17:54Z</time></trkpt><trkpt lat="45.790089715275904" lon="9.734402725367385"><ele>882.9999999999999</ele><time>2026-03-27T15:17:55Z</time></trkpt><trkpt lat="45.79011576511455" lon="9.734295494196125"><ele>883.0</ele><time>2026-03-27T15:17:56Z</time></trkpt><trkpt lat="45.790136466952944" lon="9.734177852742679"><ele>884.2857142857143</ele><time>2026-03-27T15:17:57Z</time></trkpt><trkpt lat="45.79015130386845" lon="9.734056033440854"><ele>885.5714285714286</ele><time>2026-03-27T15:17:58Z</time></trkpt><trkpt lat="45.79015940491191" lon="9.733935373217875"><ele>886.8571428571429</ele><time>2026-03-27T15:17:59Z</time></trkpt><trkpt lat="45.79015534181156" lon="9.733828385333268"><ele>888.1428571428571</ele><time>2026-03-27T15:18:00Z</time></trkpt><trkpt lat="45.79013715882121" lon="9.733730580296374"><ele>889.4285714285713</ele><time>2026-03-27T15:18:01Z</time></trkpt><trkpt lat="45.79012294214001" lon="9.733640716261926"><ele>890.7142857142857</ele><time>2026-03-27T15:18:02Z</time></trkpt><trkpt lat="45.79009859266035" lon="9.73355209204572"><ele>892.0</ele><time>2026-03-27T15:18:03Z</time></trkpt><trkpt lat="45.790082929559915" lon="9.73346160515127"><ele>892.3333333333333</ele><time>2026-03-27T15:18:04Z</time></trkpt><trkpt lat="45.790068376748756" lon="9.733368388506877"><ele>892.6666666666666</ele><time>2026-03-27T15:18:05Z</time></trkpt><trkpt lat="45.790054840705906" lon="9.733268855839244"><ele>893.0</ele><time>2026-03-27T15:18:06Z</time></trkpt><trkpt lat="45.790047992418394" lon="9.733172773292903"><ele>893.3333333333333</ele><time>2026-03-27T15:18:07Z</time></trkpt><trkpt lat="45.79003904378121" lon="9.733067401589535"><ele>893.6666666666666</ele><time>2026-03-27T15:18:09Z</time></trkpt><trkpt lat="45.789984022687996" lon="9.732966292818608"><ele>894.0</ele><time>2026-03-27T15:18:12Z</time></trkpt><trkpt lat="45.78990452032318" lon="9.732930907526066"><ele>894.0</ele><time>2026-03-27T15:18:15Z</time></trkpt><trkpt lat="45.78986499597529" lon="9.73280115563288"><ele>894.0</ele><time>2026-03-27T15:18:18Z</time></trkpt><trkpt lat="45.789835611772006" lon="9.732692847747005"><ele>894.0</ele><time>2026-03-27T15:18:20Z</time></trkpt><trkpt lat="45.78981845834027" lon="9.732575232839203"><ele>894.0</ele><time>2026-03-27T15:18:22Z</time></trkpt><trkpt lat="45.78980435169785" lon="9.732458468610101"><ele>894.0</ele><time>2026-03-27T15:18:24Z</time></trkpt><trkpt lat="45.78982204468504" lon="9.732313262422466"><ele>894.0</ele><time>2026-03-27T15:18:27Z</time></trkpt><trkpt lat="45.78981924850289" lon="9.732213169595505"><ele>892.5</ele><time>2026-03-27T15:18:29Z</time></trkpt><trkpt lat="45.78980449821071" lon="9.732119603885478"><ele>891.0</ele><time>2026-03-27T15:18:31Z</time></trkpt><trkpt lat="45.78985999414196" lon="9.732054792014825"><ele>889.5</ele><time>2026-03-27T15:18:35Z</time></trkpt><trkpt lat="45.78992237154035" lon="9.732108914434537"><ele>888.0</ele><time>2026-03-27T15:18:38Z</time></trkpt><trkpt lat="45.78990511908612" lon="9.732234936298893"><ele>886.5</ele><time>2026-03-27T15:19:12Z</time></trkpt><trkpt lat="45.78988299951944" lon="9.732324875564837"><ele>885.0</ele><time>2026-03-27T15:19:14Z</time></trkpt><trkpt lat="45.78983171798633" lon="9.732419962158286"><ele>885.0</ele><time>2026-03-27T15:19:16Z</time></trkpt><trkpt lat="45.78982990510697" lon="9.732520599498207"><ele>885.0</ele><time>2026-03-27T15:19:18Z</time></trkpt><trkpt lat="45.78983589208304" lon="9.732641139754772"><ele>885.0</ele><time>2026-03-27T15:19:20Z</time></trkpt><trkpt lat="45.78989094518899" lon="9.732717858322147"><ele>885.0</ele><time>2026-03-27T15:19:22Z</time></trkpt><trkpt lat="45.78992848946683" lon="9.732813888221408"><ele>885.0</ele><time>2026-03-27T15:19:24Z</time></trkpt><trkpt lat="45.78993470452344" lon="9.732906743206806"><ele>885.0</ele><time>2026-03-27T15:19:26Z</time></trkpt><trkpt lat="45.7899566897945" lon="9.733022932478365"><ele>886.2857142857142</ele><time>2026-03-27T15:19:30Z</time></trkpt><trkpt lat="45.79003236002254" lon="9.733032713186699"><ele>887.5714285714286</ele><time>2026-03-27T15:20:05Z</time></trkpt><trkpt lat="45.790039792295744" lon="9.733134569832906"><ele>888.8571428571429</ele><time>2026-03-27T15:20:18Z</time></trkpt><trkpt lat="45.79007624772121" lon="9.733210692106699"><ele>890.1428571428571</ele><time>2026-03-27T15:20:31Z</time></trkpt><trkpt lat="45.79001958847846" lon="9.733146517951862"><ele>891.4285714285714</ele><time>2026-03-27T15:21:06Z</time></trkpt><trkpt lat="45.790092256057356" lon="9.733157840849158"><ele>892.7142857142857</ele><time>2026-03-27T15:21:47Z</time></trkpt><trkpt lat="45.7900978648951" lon="9.73325468163629"><ele>894.0</ele><time>2026-03-27T15:21:49Z</time></trkpt><trkpt lat="45.790098337339145" lon="9.73336964505526"><ele>894.0</ele><time>2026-03-27T15:21:51Z</time></trkpt><trkpt lat="45.79010688392917" lon="9.7334881001857"><ele>894.0</ele><time>2026-03-27T15:21:53Z</time></trkpt><trkpt lat="45.79012042922055" lon="9.733614608622762"><ele>894.0</ele><time>2026-03-27T15:21:55Z</time></trkpt><trkpt lat="45.79014530272771" lon="9.733731163467304"><ele>894.0</ele><time>2026-03-27T15:21:57Z</time></trkpt><trkpt lat="45.79016188328923" lon="9.733845266623257"><ele>894.0</ele><time>2026-03-27T15:21:59Z</time></trkpt><trkpt lat="45.79015557298272" lon="9.733953120154489"><ele>894.0</ele><time>2026-03-27T15:22:01Z</time></trkpt><trkpt lat="45.790138791113485" lon="9.734062109796062"><ele>893.6</ele><time>2026-03-27T15:22:03Z</time></trkpt><trkpt lat="45.790127267377635" lon="9.734181642195656"><ele>893.2</ele><time>2026-03-27T15:22:05Z</time></trkpt><trkpt lat="45.79011523438055" lon="9.734305122289433"><ele>892.8000000000001</ele><time>2026-03-27T15:22:07Z</time></trkpt><trkpt lat="45.79008965935559" lon="9.734425958100879"><ele>892.4000000000001</ele><time>2026-03-27T15:22:09Z</time></trkpt><trkpt lat="45.79002211342532" lon="9.734518680248685"><ele>892.0</ele><time>2026-03-27T15:22:11Z</time></trkpt><trkpt lat="45.78992524451397" lon="9.734573949586833"><ele>890.2</ele><time>2026-03-27T15:22:13Z</time></trkpt><trkpt lat="45.78983782534476" lon="9.734648696581113"><ele>888.4000000000001</ele><time>2026-03-27T15:22:15Z</time></trkpt><trkpt lat="45.78975780340306" lon="9.734718072810104"><ele>886.5999999999999</ele><time>2026-03-27T15:22:17Z</time></trkpt><trkpt lat="45.78968684922033" lon="9.734652765574332"><ele>884.8</ele><time>2026-03-27T15:22:19Z</time></trkpt><trkpt lat="45.78975608338989" lon="9.73455354287544"><ele>883.0</ele><time>2026-03-27T15:22:21Z</time></trkpt><trkpt lat="45.78984499305874" lon="9.734500652253947"><ele>883.0</ele><time>2026-03-27T15:22:23Z</time></trkpt><trkpt lat="45.789914053243685" lon="9.734403544669194"><ele>883.0</ele><time>2026-03-27T15:22:25Z</time></trkpt><trkpt lat="45.78995345847352" lon="9.734277087177016"><ele>883.0</ele><time>2026-03-27T15:22:27Z</time></trkpt><trkpt lat="45.789955241437916" lon="9.734134073481435"><ele>883.0</ele><time>2026-03-27T15:22:29Z</time></trkpt><trkpt lat="45.78995143642631" lon="9.733997246705261"><ele>883.0</ele><time>2026-03-27T15:22:31Z</time></trkpt><trkpt lat="45.78992317330923" lon="9.733861303833809"><ele>884.8</ele><time>2026-03-27T15:22:33Z</time></trkpt><trkpt lat="45.789872152738184" lon="9.733738097276078"><ele>886.5999999999999</ele><time>2026-03-27T15:22:35Z</time></trkpt><trkpt lat="45.78983055978525" lon="9.73360342040683"><ele>888.4000000000001</ele><time>2026-03-27T15:22:37Z</time></trkpt><trkpt lat="45.78979678102198" lon="9.733465997157195"><ele>890.2</ele><time>2026-03-27T15:22:39Z</time></trkpt><trkpt lat="45.78974271270215" lon="9.733341151460364"><ele>892.0</ele><time>2026-03-27T15:22:41Z</time></trkpt><trkpt lat="45.7896816229273" lon="9.73321680638375"><ele>892.4000000000001</ele><time>2026-03-27T15:22:43Z</time></trkpt><trkpt lat="45.789621578241686" lon="9.733091475074865"><ele>892.8000000000001</ele><time>2026-03-27T15:22:45Z</time></trkpt><trkpt lat="45.78956927374606" lon="9.732945550500803"><ele>893.2</ele><time>2026-03-27T15:22:47Z</time></trkpt><trkpt lat="45.78953744549062" lon="9.732795500142446"><ele>893.6</ele><time>2026-03-27T15:22:49Z</time></trkpt><trkpt lat="45.789495398744336" lon="9.732661560962645"><ele>894.0</ele><time>2026-03-27T15:22:51Z</time></trkpt><trkpt lat="45.789455316386544" lon="9.732536683737695"><ele>892.2</ele><time>2026-03-27T15:22:53Z</time></trkpt><trkpt lat="45.78941764121711" lon="9.73240875543132"><ele>890.4000000000001</ele><time>2026-03-27T15:22:55Z</time></trkpt><trkpt lat="45.789375583726574" lon="9.732291204232713"><ele>888.6</ele><time>2026-03-27T15:22:57Z</time></trkpt><trkpt lat="45.7893171635278" lon="9.732159448601964"><ele>886.8</ele><time>2026-03-27T15:22:59Z</time></trkpt><trkpt lat="45.78931116335537" lon="9.732032849288263"><ele>885.0</ele><time>2026-03-27T15:23:01Z</time></trkpt><trkpt lat="45.78933414676925" lon="9.731902469945286"><ele>886.5</ele><time>2026-03-27T15:23:03Z</time></trkpt><trkpt lat="45.78936961303567" lon="9.73178208309949"><ele>888.0</ele><time>2026-03-27T15:23:05Z</time></trkpt><trkpt lat="45.7893966100838" lon="9.731660145295027"><ele>889.5</ele><time>2026-03-27T15:23:07Z</time></trkpt><trkpt lat="45.789386657689796" lon="9.731530786937107"><ele>891.0</ele><time>2026-03-27T15:23:09Z</time></trkpt><trkpt lat="45.789377466246165" lon="9.73140618318927"><ele>892.5</ele><time>2026-03-27T15:23:11Z</time></trkpt><trkpt lat="45.78935310691494" lon="9.731290936339056"><ele>894.0</ele><time>2026-03-27T15:23:13Z</time></trkpt><trkpt lat="45.78931055903699" lon="9.731191609655088"><ele>899.6</ele><time>2026-03-27T15:23:15Z</time></trkpt><trkpt lat="45.78930968748735" lon="9.731074988601115"><ele>905.2</ele><time>2026-03-27T15:23:17Z</time></trkpt><trkpt lat="45.78934102199687" lon="9.730950060393145"><ele>910.8000000000001</ele><time>2026-03-27T15:23:19Z</time></trkpt><trkpt lat="45.78940422013817" lon="9.730847041026774"><ele>916.4000000000001</ele><time>2026-03-27T15:23:21Z</time></trkpt><trkpt lat="45.789486477651415" lon="9.730775099808973"><ele>922.0</ele><time>2026-03-27T15:23:23Z</time></trkpt><trkpt lat="45.789585436883506" lon="9.730720797322142"><ele>922.0</ele><time>2026-03-27T15:23:25Z</time></trkpt><trkpt lat="45.78969685843441" lon="9.730661042168618"><ele>922.0</ele><time>2026-03-27T15:23:27Z</time></trkpt><trkpt lat="45.78980032116464" lon="9.73056705564931"><ele>922.0</ele><time>2026-03-27T15:23:29Z</time></trkpt><trkpt lat="45.789858408272" lon="9.730530144265428"><ele>922.0</ele><time>2026-03-27T15:23:30Z</time></trkpt><trkpt lat="45.789970741989926" lon="9.730570945149164"><ele>922.0</ele><time>2026-03-27T15:23:32Z</time></trkpt><trkpt lat="45.79008296736927" lon="9.730594913459798"><ele>923.0</ele><time>2026-03-27T15:23:34Z</time></trkpt><trkpt lat="45.79019330935827" lon="9.730526434301694"><ele>924.0</ele><time>2026-03-27T15:23:36Z</time></trkpt><trkpt lat="45.790289175376444" lon="9.73044052895857"><ele>925.0</ele><time>2026-03-27T15:23:38Z</time></trkpt><trkpt lat="45.7903924726806" lon="9.730378064570399"><ele>926.0</ele><time>2026-03-27T15:23:40Z</time></trkpt><trkpt lat="45.79050644420741" lon="9.730412803417899"><ele>926.0</ele><time>2026-03-27T15:23:42Z</time></trkpt><trkpt lat="45.79059694375882" lon="9.730504371812591"><ele>926.0</ele><time>2026-03-27T15:23:44Z</time></trkpt><trkpt lat="45.790712266627544" lon="9.730536133357084"><ele>926.0</ele><time>2026-03-27T15:23:46Z</time></trkpt><trkpt lat="45.79083459788236" lon="9.7305197466753"><ele>926.0</ele><time>2026-03-27T15:23:48Z</time></trkpt><trkpt lat="45.79094682884155" lon="9.73049858547945"><ele>927.1999999999999</ele><time>2026-03-27T15:23:50Z</time></trkpt><trkpt lat="45.79100990856745" lon="9.730491645344376"><ele>928.3999999999999</ele><time>2026-03-27T15:23:51Z</time></trkpt><trkpt lat="45.79111671411309" lon="9.730528569630204"><ele>929.6</ele><time>2026-03-27T15:23:53Z</time></trkpt><trkpt lat="45.79121042783235" lon="9.730613502937352"><ele>930.8</ele><time>2026-03-27T15:23:55Z</time></trkpt><trkpt lat="45.79129407356006" lon="9.730703516177684"><ele>932.0</ele><time>2026-03-27T15:23:57Z</time></trkpt><trkpt lat="45.791385632514555" lon="9.730783073580715"><ele>932.0</ele><time>2026-03-27T15:23:59Z</time></trkpt><trkpt lat="45.791494737694634" lon="9.730805061229931"><ele>932.0</ele><time>2026-03-27T15:24:01Z</time></trkpt><trkpt lat="45.79159486335803" lon="9.730714615334335"><ele>932.0</ele><time>2026-03-27T15:24:03Z</time></trkpt><trkpt lat="45.79163409188141" lon="9.730559052887688"><ele>932.0</ele><time>2026-03-27T15:24:05Z</time></trkpt><trkpt lat="45.79166933763046" lon="9.730401029139339"><ele>932.0</ele><time>2026-03-27T15:24:07Z</time></trkpt><trkpt lat="45.7917189334455" lon="9.730251682471243"><ele>932.0</ele><time>2026-03-27T15:24:09Z</time></trkpt><trkpt lat="45.79177569865528" lon="9.730107572926267"><ele>932.0</ele><time>2026-03-27T15:24:11Z</time></trkpt><trkpt lat="45.79183654590377" lon="9.729961466821887"><ele>932.0</ele><time>2026-03-27T15:24:13Z</time></trkpt><trkpt lat="45.79192630096529" lon="9.72985028829236"><ele>931.6</ele><time>2026-03-27T15:24:15Z</time></trkpt><trkpt lat="45.792028826071494" lon="9.72978466262301"><ele>931.2</ele><time>2026-03-27T15:24:17Z</time></trkpt><trkpt lat="45.792135641160755" lon="9.729712463116112"><ele>930.8</ele><time>2026-03-27T15:24:19Z</time></trkpt><trkpt lat="45.79224756005646" lon="9.729663489904617"><ele>930.4</ele><time>2026-03-27T15:24:21Z</time></trkpt><trkpt lat="45.79231028674225" lon="9.729650000414464"><ele>930.0</ele><time>2026-03-27T15:24:22Z</time></trkpt><trkpt lat="45.79243070214596" lon="9.729624319212595"><ele>930.0</ele><time>2026-03-27T15:24:24Z</time></trkpt><trkpt lat="45.79249296486726" lon="9.72960932031628"><ele>930.0</ele><time>2026-03-27T15:24:25Z</time></trkpt><trkpt lat="45.79260949013431" lon="9.729551096961611"><ele>930.0</ele><time>2026-03-27T15:24:27Z</time></trkpt><trkpt lat="45.79270899203113" lon="9.729447328389611"><ele>930.0</ele><time>2026-03-27T15:24:29Z</time></trkpt><trkpt lat="45.79278421023262" lon="9.729303508783104"><ele>930.0</ele><time>2026-03-27T15:24:31Z</time></trkpt><trkpt lat="45.79279991829105" lon="9.729121890960197"><ele>929.3333333333334</ele><time>2026-03-27T15:24:33Z</time></trkpt><trkpt lat="45.792801023823216" lon="9.72902996524988"><ele>928.6666666666667</ele><time>2026-03-27T15:24:34Z</time></trkpt><trkpt lat="45.792830243782895" lon="9.72887115987375"><ele>928.0</ele><time>2026-03-27T15:24:36Z</time></trkpt><trkpt lat="45.79284207520593" lon="9.728781757968514"><ele>927.3333333333334</ele><time>2026-03-27T15:24:37Z</time></trkpt><trkpt lat="45.79284989949324" lon="9.728691697963871"><ele>926.6666666666667</ele><time>2026-03-27T15:24:38Z</time></trkpt><trkpt lat="45.79291473526799" lon="9.728543224928258"><ele>926.0</ele><time>2026-03-27T15:24:40Z</time></trkpt><trkpt lat="45.79300441200994" lon="9.72842542192086"><ele>931.25</ele><time>2026-03-27T15:24:42Z</time></trkpt><trkpt lat="45.79307283856643" lon="9.728295349534656"><ele>936.5</ele><time>2026-03-27T15:24:44Z</time></trkpt><trkpt lat="45.79313802955224" lon="9.728148695038051"><ele>941.75</ele><time>2026-03-27T15:24:46Z</time></trkpt><trkpt lat="45.79319072043824" lon="9.727993565709612"><ele>947.0</ele><time>2026-03-27T15:24:48Z</time></trkpt><trkpt lat="45.793229166060684" lon="9.727831900793158"><ele>950.0</ele><time>2026-03-27T15:24:50Z</time></trkpt><trkpt lat="45.7932758523048" lon="9.727668373585328"><ele>953.0</ele><time>2026-03-27T15:24:52Z</time></trkpt><trkpt lat="45.79331365864826" lon="9.727521077070607"><ele>956.0</ele><time>2026-03-27T15:24:54Z</time></trkpt><trkpt lat="45.79333477046922" lon="9.7273913962792"><ele>959.0</ele><time>2026-03-27T15:24:56Z</time></trkpt><trkpt lat="45.793336247643914" lon="9.727242581931645"><ele>962.0</ele><time>2026-03-27T15:24:58Z</time></trkpt><trkpt lat="45.79334687365155" lon="9.727071058590244"><ele>962.0000000000001</ele><time>2026-03-27T15:25:00Z</time></trkpt><trkpt lat="45.7933777002351" lon="9.726899193621215"><ele>962.0</ele><time>2026-03-27T15:25:02Z</time></trkpt><trkpt lat="45.79343998019598" lon="9.72674674607701"><ele>962.0</ele><time>2026-03-27T15:25:04Z</time></trkpt><trkpt lat="45.793486873053396" lon="9.726680654534146"><ele>962.0</ele><time>2026-03-27T15:25:05Z</time></trkpt><trkpt lat="45.793541780874584" lon="9.72661781574161"><ele>962.0000000000001</ele><time>2026-03-27T15:25:06Z</time></trkpt><trkpt lat="45.79358907147423" lon="9.726555806890202"><ele>962.0</ele><time>2026-03-27T15:25:07Z</time></trkpt><trkpt lat="45.79366101413411" lon="9.726419620269294"><ele>960.6</ele><time>2026-03-27T15:25:09Z</time></trkpt><trkpt lat="45.79370334957955" lon="9.72635112792655"><ele>959.2</ele><time>2026-03-27T15:25:10Z</time></trkpt><trkpt lat="45.79377806416425" lon="9.726213326395243"><ele>957.8</ele><time>2026-03-27T15:25:12Z</time></trkpt><trkpt lat="45.79386308602111" lon="9.726084074298292"><ele>956.4</ele><time>2026-03-27T15:25:14Z</time></trkpt><trkpt lat="45.793950526741234" lon="9.725966829941314"><ele>955.0</ele><time>2026-03-27T15:25:16Z</time></trkpt><trkpt lat="45.79399380465847" lon="9.725898889222208"><ele>955.0</ele><time>2026-03-27T15:25:17Z</time></trkpt><trkpt lat="45.79408242735409" lon="9.72578555547567"><ele>955.0</ele><time>2026-03-27T15:25:19Z</time></trkpt><trkpt lat="45.794169421982986" lon="9.725690327673275"><ele>955.0</ele><time>2026-03-27T15:25:21Z</time></trkpt><trkpt lat="45.7942218106895" lon="9.725636289429255"><ele>955.0</ele><time>2026-03-27T15:25:23Z</time></trkpt><trkpt lat="45.794160160305175" lon="9.725543414796077"><ele>955.0</ele><time>2026-03-27T15:25:26Z</time></trkpt><trkpt lat="45.794082477284206" lon="9.725612999992535"><ele>955.0</ele><time>2026-03-27T15:25:28Z</time></trkpt><trkpt lat="45.79400683275252" lon="9.725708024089965"><ele>955.0</ele><time>2026-03-27T15:25:30Z</time></trkpt><trkpt lat="45.793917903174844" lon="9.72579006544075"><ele>955.0</ele><time>2026-03-27T15:25:32Z</time></trkpt><trkpt lat="45.793817592575685" lon="9.725849708397941"><ele>955.0</ele><time>2026-03-27T15:25:34Z</time></trkpt><trkpt lat="45.79371770041342" lon="9.725902843879778"><ele>955.0</ele><time>2026-03-27T15:25:36Z</time></trkpt><trkpt lat="45.79362224381891" lon="9.725943000399464"><ele>955.0</ele><time>2026-03-27T15:25:38Z</time></trkpt><trkpt lat="45.793534911521746" lon="9.725991912565291"><ele>955.0</ele><time>2026-03-27T15:25:40Z</time></trkpt><trkpt lat="45.793447609008325" lon="9.726047395408738"><ele>955.0</ele><time>2026-03-27T15:25:42Z</time></trkpt><trkpt lat="45.79336460795874" lon="9.726103230366228"><ele>955.0</ele><time>2026-03-27T15:25:44Z</time></trkpt><trkpt lat="45.79328456118798" lon="9.72616557961229"><ele>955.0</ele><time>2026-03-27T15:25:46Z</time></trkpt><trkpt lat="45.79320788592848" lon="9.726231765970171"><ele>957.3333333333333</ele><time>2026-03-27T15:25:48Z</time></trkpt><trkpt lat="45.793128503775016" lon="9.726287925713253"><ele>959.6666666666666</ele><time>2026-03-27T15:25:50Z</time></trkpt><trkpt lat="45.79304297140354" lon="9.726340445073498"><ele>962.0</ele><time>2026-03-27T15:25:52Z</time></trkpt><trkpt lat="45.79296568418248" lon="9.726396373932552"><ele>964.3333333333333</ele><time>2026-03-27T15:25:54Z</time></trkpt><trkpt lat="45.79289307373013" lon="9.726448518166835"><ele>966.6666666666666</ele><time>2026-03-27T15:25:56Z</time></trkpt><trkpt lat="45.792818635814385" lon="9.726505278175892"><ele>969.0</ele><time>2026-03-27T15:25:58Z</time></trkpt><trkpt lat="45.79275173985667" lon="9.726571273825133"><ele>969.0</ele><time>2026-03-27T15:26:00Z</time></trkpt><trkpt lat="45.79271263363882" lon="9.726670607011524"><ele>969.0</ele><time>2026-03-27T15:26:02Z</time></trkpt><trkpt lat="45.79271339436845" lon="9.726789250327231"><ele>969.0</ele><time>2026-03-27T15:26:04Z</time></trkpt><trkpt lat="45.79272047038468" lon="9.726904306172463"><ele>969.0</ele><time>2026-03-27T15:26:06Z</time></trkpt><trkpt lat="45.79272238950258" lon="9.727015071695224"><ele>969.0</ele><time>2026-03-27T15:26:08Z</time></trkpt><trkpt lat="45.792717791261346" lon="9.727124497643489"><ele>969.0</ele><time>2026-03-27T15:26:10Z</time></trkpt><trkpt lat="45.79270361375561" lon="9.727232049767988"><ele>967.9999999999999</ele><time>2026-03-27T15:26:12Z</time></trkpt><trkpt lat="45.79267483132944" lon="9.727326472330756"><ele>967.0</ele><time>2026-03-27T15:26:14Z</time></trkpt><trkpt lat="45.79264412325347" lon="9.727434822802802"><ele>965.9999999999999</ele><time>2026-03-27T15:26:16Z</time></trkpt><trkpt lat="45.79261210723659" lon="9.727532061593797"><ele>964.9999999999999</ele><time>2026-03-27T15:26:18Z</time></trkpt><trkpt lat="45.792584835740016" lon="9.727632405279339"><ele>964.0</ele><time>2026-03-27T15:26:20Z</time></trkpt><trkpt lat="45.792533143307736" lon="9.72769623172854"><ele>962.9999999999999</ele><time>2026-03-27T15:26:22Z</time></trkpt><trkpt lat="45.79246859554863" lon="9.727648966450575"><ele>961.9999999999999</ele><time>2026-03-27T15:26:24Z</time></trkpt><trkpt lat="45.79249671094814" lon="9.72751546516557"><ele>968.6</ele><time>2026-03-27T15:26:26Z</time></trkpt><trkpt lat="45.79256437421258" lon="9.727429689624834"><ele>975.2</ele><time>2026-03-27T15:26:28Z</time></trkpt><trkpt lat="45.79259637433893" lon="9.727301772322543"><ele>981.8</ele><time>2026-03-27T15:26:30Z</time></trkpt><trkpt lat="45.792598248496" lon="9.727161257878308"><ele>988.4</ele><time>2026-03-27T15:26:32Z</time></trkpt><trkpt lat="45.79257278180131" lon="9.72703453751253"><ele>995.0</ele><time>2026-03-27T15:26:34Z</time></trkpt><trkpt lat="45.79248023572566" lon="9.726988269495935"><ele>995.0000000000001</ele><time>2026-03-27T15:26:36Z</time></trkpt><trkpt lat="45.79239009970894" lon="9.727058399751908"><ele>995.0</ele><time>2026-03-27T15:26:38Z</time></trkpt><trkpt lat="45.79231502442724" lon="9.727133584630641"><ele>995.0</ele><time>2026-03-27T15:26:40Z</time></trkpt><trkpt lat="45.792238802247695" lon="9.727198023300234"><ele>995.0</ele><time>2026-03-27T15:26:42Z</time></trkpt><trkpt lat="45.7921653688084" lon="9.727256410840596"><ele>995.0000000000001</ele><time>2026-03-27T15:26:44Z</time></trkpt><trkpt lat="45.792098616148394" lon="9.727325056126553"><ele>995.0</ele><time>2026-03-27T15:26:46Z</time></trkpt><trkpt lat="45.79201363211255" lon="9.727345627665251"><ele>995.0000000000001</ele><time>2026-03-27T15:26:48Z</time></trkpt><trkpt lat="45.791929185450456" lon="9.727334068383465"><ele>995.0</ele><time>2026-03-27T15:26:50Z</time></trkpt><trkpt lat="45.791845669844136" lon="9.727313330224064"><ele>995.0</ele><time>2026-03-27T15:26:52Z</time></trkpt><trkpt lat="45.79175700348942" lon="9.72730615675056"><ele>995.0</ele><time>2026-03-27T15:26:54Z</time></trkpt><trkpt lat="45.791664666845335" lon="9.72731133930424"><ele>995.0000000000001</ele><time>2026-03-27T15:26:56Z</time></trkpt><trkpt lat="45.79157362269384" lon="9.727340006037789"><ele>995.0</ele><time>2026-03-27T15:26:58Z</time></trkpt><trkpt lat="45.79148584748648" lon="9.727372635732149"><ele>998.0</ele><time>2026-03-27T15:27:00Z</time></trkpt><trkpt lat="45.79139893897699" lon="9.727429251146603"><ele>1001.0</ele><time>2026-03-27T15:27:02Z</time></trkpt><trkpt lat="45.791314227125994" lon="9.727481947488782"><ele>1004.0</ele><time>2026-03-27T15:27:04Z</time></trkpt><trkpt lat="45.79123008681235" lon="9.727528507526094"><ele>1007.0</ele><time>2026-03-27T15:27:06Z</time></trkpt><trkpt lat="45.79116266487453" lon="9.727604569299238"><ele>1010.0</ele><time>2026-03-27T15:27:08Z</time></trkpt><trkpt lat="45.791096305284995" lon="9.727684458760175"><ele>1011.6666666666667</ele><time>2026-03-27T15:27:10Z</time></trkpt><trkpt lat="45.79102311875328" lon="9.727755388542231"><ele>1013.3333333333334</ele><time>2026-03-27T15:27:12Z</time></trkpt><trkpt lat="45.790949680014286" lon="9.727834097406015"><ele>1015.0</ele><time>2026-03-27T15:27:14Z</time></trkpt><trkpt lat="45.790878478058346" lon="9.727889780565722"><ele>1016.6666666666667</ele><time>2026-03-27T15:27:16Z</time></trkpt><trkpt lat="45.79081299722131" lon="9.727948747809098"><ele>1018.3333333333334</ele><time>2026-03-27T15:27:18Z</time></trkpt><trkpt lat="45.79073941963276" lon="9.728000387443588"><ele>1020.0</ele><time>2026-03-27T15:27:20Z</time></trkpt><trkpt lat="45.790663500310465" lon="9.728041089474013"><ele>1021.6666666666666</ele><time>2026-03-27T15:27:22Z</time></trkpt><trkpt lat="45.79058442699811" lon="9.7280588958567"><ele>1023.3333333333333</ele><time>2026-03-27T15:27:24Z</time></trkpt><trkpt lat="45.79050534772613" lon="9.728064226154782"><ele>1025.0</ele><time>2026-03-27T15:27:26Z</time></trkpt><trkpt lat="45.79042621393789" lon="9.728056006446238"><ele>1026.6666666666665</ele><time>2026-03-27T15:27:28Z</time></trkpt><trkpt lat="45.79035431639747" lon="9.72804417217275"><ele>1028.3333333333333</ele><time>2026-03-27T15:27:30Z</time></trkpt><trkpt lat="45.79027951460743" lon="9.72805147429482"><ele>1030.0</ele><time>2026-03-27T15:27:32Z</time></trkpt><trkpt lat="45.79020444079947" lon="9.72807665013496"><ele>1029.3333333333333</ele><time>2026-03-27T15:27:34Z</time></trkpt><trkpt lat="45.79013265641026" lon="9.72813727517244"><ele>1028.6666666666665</ele><time>2026-03-27T15:27:36Z</time></trkpt><trkpt lat="45.79005333917832" lon="9.728172027845563"><ele>1028.0</ele><time>2026-03-27T15:27:38Z</time></trkpt><trkpt lat="45.78997668474579" lon="9.728204361273466"><ele>1027.3333333333333</ele><time>2026-03-27T15:27:40Z</time></trkpt><trkpt lat="45.78990399908715" lon="9.728247127067293"><ele>1026.6666666666667</ele><time>2026-03-27T15:27:42Z</time></trkpt><trkpt lat="45.78982114997641" lon="9.728259585115136"><ele>1026.0</ele><time>2026-03-27T15:27:44Z</time></trkpt><trkpt lat="45.78973887805464" lon="9.728249969234088"><ele>1026.0</ele><time>2026-03-27T15:27:46Z</time></trkpt><trkpt lat="45.78965815076354" lon="9.72824906628311"><ele>1026.0</ele><time>2026-03-27T15:27:48Z</time></trkpt><trkpt lat="45.78958372455429" lon="9.728238389640582"><ele>1026.0</ele><time>2026-03-27T15:27:50Z</time></trkpt><trkpt lat="45.78951035932244" lon="9.728230531712482"><ele>1026.0</ele><time>2026-03-27T15:27:52Z</time></trkpt><trkpt lat="45.78943529246717" lon="9.72822317590607"><ele>1026.0</ele><time>2026-03-27T15:27:54Z</time></trkpt><trkpt lat="45.789361554680916" lon="9.728213933195876"><ele>1026.0</ele><time>2026-03-27T15:27:56Z</time></trkpt><trkpt lat="45.78929114921462" lon="9.728188902422424"><ele>1028.6666666666667</ele><time>2026-03-27T15:27:58Z</time></trkpt><trkpt lat="45.7892207231886" lon="9.728161677679447"><ele>1031.3333333333333</ele><time>2026-03-27T15:28:00Z</time></trkpt><trkpt lat="45.78914546991848" lon="9.728120172622502"><ele>1034.0</ele><time>2026-03-27T15:28:02Z</time></trkpt><trkpt lat="45.78907388340668" lon="9.728081931765871"><ele>1036.6666666666665</ele><time>2026-03-27T15:28:04Z</time></trkpt><trkpt lat="45.789005813595516" lon="9.728035891240252"><ele>1039.3333333333333</ele><time>2026-03-27T15:28:06Z</time></trkpt><trkpt lat="45.78894310639413" lon="9.727972593377823"><ele>1042.0</ele><time>2026-03-27T15:28:08Z</time></trkpt><trkpt lat="45.788887714747574" lon="9.72790833872068"><ele>1042.0</ele><time>2026-03-27T15:28:10Z</time></trkpt><trkpt lat="45.78884351964211" lon="9.72782126408866"><ele>1042.0</ele><time>2026-03-27T15:28:12Z</time></trkpt><trkpt lat="45.78880628280407" lon="9.727730587488217"><ele>1042.0</ele><time>2026-03-27T15:28:14Z</time></trkpt><trkpt lat="45.78876069737327" lon="9.727647180423986"><ele>1042.0</ele><time>2026-03-27T15:28:16Z</time></trkpt><trkpt lat="45.78868587957149" lon="9.727609890891971"><ele>1042.0</ele><time>2026-03-27T15:28:18Z</time></trkpt><trkpt lat="45.7886075354882" lon="9.72763817637224"><ele>1042.0</ele><time>2026-03-27T15:28:20Z</time></trkpt><trkpt lat="45.788537825458135" lon="9.727703313351915"><ele>1045.8333333333333</ele><time>2026-03-27T15:28:22Z</time></trkpt><trkpt lat="45.78846102392308" lon="9.727760328052696"><ele>1049.6666666666665</ele><time>2026-03-27T15:28:24Z</time></trkpt><trkpt lat="45.7883837605597" lon="9.727823594760663"><ele>1053.5</ele><time>2026-03-27T15:28:26Z</time></trkpt><trkpt lat="45.788299574630976" lon="9.727851384807089"><ele>1057.3333333333333</ele><time>2026-03-27T15:28:28Z</time></trkpt><trkpt lat="45.78821669042037" lon="9.727860504846547"><ele>1061.1666666666667</ele><time>2026-03-27T15:28:30Z</time></trkpt><trkpt lat="45.788131509932406" lon="9.727850783939578"><ele>1065.0</ele><time>2026-03-27T15:28:32Z</time></trkpt><trkpt lat="45.788057700890846" lon="9.727828780721573"><ele>1065.0</ele><time>2026-03-27T15:28:34Z</time></trkpt><trkpt lat="45.787979123637136" lon="9.727832882320174"><ele>1065.0</ele><time>2026-03-27T15:28:36Z</time></trkpt><trkpt lat="45.78789862822141" lon="9.727848715306182"><ele>1065.0</ele><time>2026-03-27T15:28:38Z</time></trkpt><trkpt lat="45.78782068033765" lon="9.727915912696243"><ele>1065.0</ele><time>2026-03-27T15:28:40Z</time></trkpt><trkpt lat="45.78776126005672" lon="9.728014801734508"><ele>1065.0</ele><time>2026-03-27T15:28:42Z</time></trkpt><trkpt lat="45.787709067767864" lon="9.728123809388812"><ele>1065.0</ele><time>2026-03-27T15:28:44Z</time></trkpt><trkpt lat="45.78763094314023" lon="9.72819320911389"><ele>1066.5</ele><time>2026-03-27T15:28:46Z</time></trkpt><trkpt lat="45.78755007908294" lon="9.728230902292532"><ele>1068.0</ele><time>2026-03-27T15:28:48Z</time></trkpt><trkpt lat="45.7874640524166" lon="9.728234984544242"><ele>1069.5</ele><time>2026-03-27T15:28:50Z</time></trkpt><trkpt lat="45.78738166291954" lon="9.728210528092609"><ele>1071.0</ele><time>2026-03-27T15:28:52Z</time></trkpt><trkpt lat="45.78731104637675" lon="9.728129201534305"><ele>1072.5</ele><time>2026-03-27T15:28:54Z</time></trkpt><trkpt lat="45.787269825403456" lon="9.728013244114054"><ele>1074.0</ele><time>2026-03-27T15:28:56Z</time></trkpt><trkpt lat="45.78719025524655" lon="9.727950035904321"><ele>1074.0</ele><time>2026-03-27T15:28:58Z</time></trkpt><trkpt lat="45.787142706494684" lon="9.728046370315656"><ele>1074.0</ele><time>2026-03-27T15:29:00Z</time></trkpt><trkpt lat="45.787194133117424" lon="9.728157360300019"><ele>1074.0</ele><time>2026-03-27T15:29:02Z</time></trkpt><trkpt lat="45.78725625064581" lon="9.728236270084603"><ele>1074.0</ele><time>2026-03-27T15:29:04Z</time></trkpt><trkpt lat="45.78727944426941" lon="9.728353201739706"><ele>1074.0</ele><time>2026-03-27T15:29:06Z</time></trkpt><trkpt lat="45.787336475462574" lon="9.728460469848814"><ele>1074.0</ele><time>2026-03-27T15:29:08Z</time></trkpt><trkpt lat="45.78742527515538" lon="9.728511661591343"><ele>1074.0</ele><time>2026-03-27T15:29:10Z</time></trkpt><trkpt lat="45.78751613804668" lon="9.72851943932848"><ele>1074.0</ele><time>2026-03-27T15:29:12Z</time></trkpt><trkpt lat="45.78760183520415" lon="9.728515441363253"><ele>1074.0</ele><time>2026-03-27T15:29:14Z</time></trkpt><trkpt lat="45.787684666382226" lon="9.728508029042588"><ele>1074.0</ele><time>2026-03-27T15:29:16Z</time></trkpt><trkpt lat="45.787773160070614" lon="9.72849258280425"><ele>1074.0</ele><time>2026-03-27T15:29:18Z</time></trkpt><trkpt lat="45.78785078317557" lon="9.728447993151669"><ele>1074.0</ele><time>2026-03-27T15:29:20Z</time></trkpt><trkpt lat="45.78791894071729" lon="9.728364263621083"><ele>1072.2</ele><time>2026-03-27T15:29:22Z</time></trkpt><trkpt lat="45.78797657894658" lon="9.728268546039017"><ele>1070.4</ele><time>2026-03-27T15:29:24Z</time></trkpt><trkpt lat="45.78806827384861" lon="9.728275686312209"><ele>1068.6</ele><time>2026-03-27T15:29:26Z</time></trkpt><trkpt lat="45.788098286262624" lon="9.72840299149867"><ele>1066.8</ele><time>2026-03-27T15:29:28Z</time></trkpt><trkpt lat="45.78803131016878" lon="9.72849805987952"><ele>1065.0</ele><time>2026-03-27T15:29:30Z</time></trkpt><trkpt lat="45.78795259126182" lon="9.728558251020115"><ele>1063.0</ele><time>2026-03-27T15:29:32Z</time></trkpt><trkpt lat="45.787881713166016" lon="9.728628603875949"><ele>1061.0</ele><time>2026-03-27T15:29:34Z</time></trkpt><trkpt lat="45.787813288739834" lon="9.728694929944854"><ele>1059.0</ele><time>2026-03-27T15:29:36Z</time></trkpt><trkpt lat="45.78774721008338" lon="9.72876428464606"><ele>1057.0</ele><time>2026-03-27T15:29:38Z</time></trkpt><trkpt lat="45.78769500436854" lon="9.728851658562219"><ele>1055.0</ele><time>2026-03-27T15:29:40Z</time></trkpt><trkpt lat="45.78765644772195" lon="9.728959663927377"><ele>1053.0</ele><time>2026-03-27T15:29:42Z</time></trkpt><trkpt lat="45.78763444846286" lon="9.729075785969743"><ele>1056.2</ele><time>2026-03-27T15:29:44Z</time></trkpt><trkpt lat="45.78760784829028" lon="9.729198382899343"><ele>1059.4</ele><time>2026-03-27T15:29:46Z</time></trkpt><trkpt lat="45.787558926084834" lon="9.72930341347366"><ele>1062.6000000000001</ele><time>2026-03-27T15:29:48Z</time></trkpt><trkpt lat="45.78748281557154" lon="9.729370356632282"><ele>1065.8</ele><time>2026-03-27T15:29:50Z</time></trkpt><trkpt lat="45.787401073180796" lon="9.729427910395591"><ele>1069.0</ele><time>2026-03-27T15:29:52Z</time></trkpt><trkpt lat="45.78731627480694" lon="9.72948756338146"><ele>1069.0</ele><time>2026-03-27T15:29:54Z</time></trkpt><trkpt lat="45.78723641693393" lon="9.729554773051701"><ele>1069.0</ele><time>2026-03-27T15:29:56Z</time></trkpt><trkpt lat="45.78715155677349" lon="9.729632466734826"><ele>1069.0</ele><time>2026-03-27T15:29:58Z</time></trkpt><trkpt lat="45.78707219573957" lon="9.729722531877782"><ele>1069.0</ele><time>2026-03-27T15:30:00Z</time></trkpt><trkpt lat="45.786995085352" lon="9.729832561482553"><ele>1069.0</ele><time>2026-03-27T15:30:02Z</time></trkpt><trkpt lat="45.786925555312344" lon="9.729933958999021"><ele>1069.0</ele><time>2026-03-27T15:30:04Z</time></trkpt><trkpt lat="45.7868670805559" lon="9.730044737090756"><ele>1069.0</ele><time>2026-03-27T15:30:06Z</time></trkpt><trkpt lat="45.786826131070285" lon="9.730173519825728"><ele>1069.0</ele><time>2026-03-27T15:30:08Z</time></trkpt><trkpt lat="45.78679906042674" lon="9.73030879141675"><ele>1069.0</ele><time>2026-03-27T15:30:10Z</time></trkpt><trkpt lat="45.78680037670288" lon="9.730446246965814"><ele>1069.0</ele><time>2026-03-27T15:30:12Z</time></trkpt><trkpt lat="45.786826092267034" lon="9.730574980300448"><ele>1067.8333333333333</ele><time>2026-03-27T15:30:14Z</time></trkpt><trkpt lat="45.7868473447574" lon="9.730705995692942"><ele>1066.6666666666665</ele><time>2026-03-27T15:30:16Z</time></trkpt><trkpt lat="45.786845778933234" lon="9.730836561504628"><ele>1065.5</ele><time>2026-03-27T15:30:18Z</time></trkpt><trkpt lat="45.786831589800265" lon="9.730962106600376"><ele>1064.3333333333333</ele><time>2026-03-27T15:30:20Z</time></trkpt><trkpt lat="45.78681522178498" lon="9.73107898211559"><ele>1063.1666666666667</ele><time>2026-03-27T15:30:22Z</time></trkpt><trkpt lat="45.78677961068394" lon="9.731161409337732"><ele>1062.0</ele><time>2026-03-27T15:30:24Z</time></trkpt><trkpt lat="45.78671132862818" lon="9.731201700178731"><ele>1065.1666666666667</ele><time>2026-03-27T15:30:27Z</time></trkpt><trkpt lat="45.786652485727565" lon="9.731168632865048"><ele>1068.3333333333333</ele><time>2026-03-27T15:30:29Z</time></trkpt><trkpt lat="45.78656002329748" lon="9.731130673119416"><ele>1071.5</ele><time>2026-03-27T15:30:31Z</time></trkpt><trkpt lat="45.78643690781614" lon="9.731134286397783"><ele>1074.6666666666665</ele><time>2026-03-27T15:30:33Z</time></trkpt><trkpt lat="45.78636930566046" lon="9.731143777066737"><ele>1077.8333333333333</ele><time>2026-03-27T15:30:34Z</time></trkpt><trkpt lat="45.78630493026885" lon="9.731175341757412"><ele>1081.0</ele><time>2026-03-27T15:30:35Z</time></trkpt><trkpt lat="45.78624885876578" lon="9.731234850437465"><ele>1081.0</ele><time>2026-03-27T15:30:36Z</time></trkpt><trkpt lat="45.786150069316946" lon="9.731328649657875"><ele>1081.0</ele><time>2026-03-27T15:30:38Z</time></trkpt><trkpt lat="45.78604676500623" lon="9.731396297408272"><ele>1081.0</ele><time>2026-03-27T15:30:40Z</time></trkpt><trkpt lat="45.78595022420456" lon="9.731445507388694"><ele>1081.0</ele><time>2026-03-27T15:30:42Z</time></trkpt><trkpt lat="45.78590333450656" lon="9.73150913092123"><ele>1081.0</ele><time>2026-03-27T15:30:45Z</time></trkpt><trkpt lat="45.78584349568843" lon="9.731453754404479"><ele>1081.5</ele><time>2026-03-27T15:31:46Z</time></trkpt><trkpt lat="45.78580910443879" lon="9.731345058307108"><ele>1082.0</ele><time>2026-03-27T15:33:32Z</time></trkpt><trkpt lat="45.78574265003395" lon="9.73128844403465"><ele>1082.5</ele><time>2026-03-27T15:33:35Z</time></trkpt><trkpt lat="45.785682689210276" lon="9.731242803625229"><ele>1083.0</ele><time>2026-03-27T15:33:37Z</time></trkpt><trkpt lat="45.78556629995388" lon="9.731215017354351"><ele>1083.5</ele><time>2026-03-27T15:33:39Z</time></trkpt><trkpt lat="45.785497349437264" lon="9.731234500335034"><ele>1084.0</ele><time>2026-03-27T15:33:40Z</time></trkpt><trkpt lat="45.785436668739635" lon="9.731280289987593"><ele>1084.0</ele><time>2026-03-27T15:33:41Z</time></trkpt><trkpt lat="45.785382791706326" lon="9.731349506534935"><ele>1084.0</ele><time>2026-03-27T15:33:42Z</time></trkpt><trkpt lat="45.785332259441695" lon="9.73141749182134"><ele>1084.0</ele><time>2026-03-27T15:33:43Z</time></trkpt><trkpt lat="45.78527671590248" lon="9.731470216005285"><ele>1084.0</ele><time>2026-03-27T15:33:44Z</time></trkpt><trkpt lat="45.78521404018124" lon="9.731501002933449"><ele>1084.0</ele><time>2026-03-27T15:33:45Z</time></trkpt><trkpt lat="45.78515106737691" lon="9.731513462376562"><ele>1084.0</ele><time>2026-03-27T15:33:46Z</time></trkpt><trkpt lat="45.785083544885296" lon="9.731512967534437"><ele>1084.0</ele><time>2026-03-27T15:33:47Z</time></trkpt><trkpt lat="45.78502078769419" lon="9.731500364190465"><ele>1084.6666666666665</ele><time>2026-03-27T15:33:48Z</time></trkpt><trkpt lat="45.78493071447799" lon="9.731387750908588"><ele>1085.3333333333333</ele><time>2026-03-27T15:33:50Z</time></trkpt><trkpt lat="45.784899108316544" lon="9.731296124849408"><ele>1086.0</ele><time>2026-03-27T15:33:51Z</time></trkpt><trkpt lat="45.784882139192185" lon="9.731187218964813"><ele>1086.6666666666667</ele><time>2026-03-27T15:33:52Z</time></trkpt><trkpt lat="45.78487383100791" lon="9.73106960933163"><ele>1087.3333333333335</ele><time>2026-03-27T15:33:53Z</time></trkpt><trkpt lat="45.78486087846814" lon="9.730949552164653"><ele>1088.0</ele><time>2026-03-27T15:33:54Z</time></trkpt><trkpt lat="45.78482660385804" lon="9.730829773994229"><ele>1089.8</ele><time>2026-03-27T15:33:55Z</time></trkpt><trkpt lat="45.78477463867659" lon="9.730714467587369"><ele>1091.6</ele><time>2026-03-27T15:33:56Z</time></trkpt><trkpt lat="45.78471357238484" lon="9.730600440275087"><ele>1093.4</ele><time>2026-03-27T15:33:57Z</time></trkpt><trkpt lat="45.784664069748096" lon="9.730479675738446"><ele>1095.2</ele><time>2026-03-27T15:33:58Z</time></trkpt><trkpt lat="45.78461725023797" lon="9.730353079831977"><ele>1097.0</ele><time>2026-03-27T15:33:59Z</time></trkpt><trkpt lat="45.78457249046423" lon="9.73022637228316"><ele>1098.5</ele><time>2026-03-27T15:34:00Z</time></trkpt><trkpt lat="45.78452640529788" lon="9.730107914076637"><ele>1100.0</ele><time>2026-03-27T15:34:01Z</time></trkpt><trkpt lat="45.78448156887129" lon="9.729997562478612"><ele>1101.5</ele><time>2026-03-27T15:34:02Z</time></trkpt><trkpt lat="45.78444706072702" lon="9.729884423546828"><ele>1103.0</ele><time>2026-03-27T15:34:03Z</time></trkpt><trkpt lat="45.78441417636158" lon="9.729776454420675"><ele>1104.5</ele><time>2026-03-27T15:34:04Z</time></trkpt><trkpt lat="45.78438158832146" lon="9.729666116154295"><ele>1106.0</ele><time>2026-03-27T15:34:05Z</time></trkpt><trkpt lat="45.78434485608598" lon="9.72956470935469"><ele>1102.8333333333335</ele><time>2026-03-27T15:34:06Z</time></trkpt><trkpt lat="45.78430005100232" lon="9.72947563827466"><ele>1099.6666666666667</ele><time>2026-03-27T15:34:07Z</time></trkpt><trkpt lat="45.7842338813965" lon="9.72939105535011"><ele>1096.5</ele><time>2026-03-27T15:34:08Z</time></trkpt><trkpt lat="45.78415389312547" lon="9.729320217735504"><ele>1093.3333333333333</ele><time>2026-03-27T15:34:09Z</time></trkpt><trkpt lat="45.78407381213808" lon="9.729262504779959"><ele>1090.1666666666665</ele><time>2026-03-27T15:34:10Z</time></trkpt><trkpt lat="45.78400462904216" lon="9.729210896408897"><ele>1087.0</ele><time>2026-03-27T15:34:11Z</time></trkpt><trkpt lat="45.78395092809842" lon="9.72915572064545"><ele>1087.0</ele><time>2026-03-27T15:34:12Z</time></trkpt><trkpt lat="45.78386998956312" lon="9.729165216073186"><ele>1087.0</ele><time>2026-03-27T15:34:14Z</time></trkpt><trkpt lat="45.783906621027775" lon="9.72932406155842"><ele>1087.0</ele><time>2026-03-27T15:34:16Z</time></trkpt><trkpt lat="45.78397062576614" lon="9.729385626513523"><ele>1087.0</ele><time>2026-03-27T15:34:17Z</time></trkpt><trkpt lat="45.784025004077435" lon="9.72946067692333"><ele>1087.0</ele><time>2026-03-27T15:34:18Z</time></trkpt><trkpt lat="45.78406227490676" lon="9.72957236635411"><ele>1087.0</ele><time>2026-03-27T15:34:19Z</time></trkpt><trkpt lat="45.7840869033002" lon="9.72968074865433"><ele>1084.6666666666665</ele><time>2026-03-27T15:34:20Z</time></trkpt><trkpt lat="45.78410636961112" lon="9.729800768196858"><ele>1082.3333333333333</ele><time>2026-03-27T15:34:21Z</time></trkpt><trkpt lat="45.784116770655466" lon="9.729925288323962"><ele>1080.0</ele><time>2026-03-27T15:34:22Z</time></trkpt><trkpt lat="45.78410492630992" lon="9.730055865450318"><ele>1077.6666666666667</ele><time>2026-03-27T15:34:23Z</time></trkpt><trkpt lat="45.78408766872814" lon="9.730181204507584"><ele>1075.3333333333335</ele><time>2026-03-27T15:34:24Z</time></trkpt><trkpt lat="45.78407802274786" lon="9.730304929830654"><ele>1073.0</ele><time>2026-03-27T15:34:25Z</time></trkpt><trkpt lat="45.78408334219155" lon="9.730427268831281"><ele>1071.4</ele><time>2026-03-27T15:34:26Z</time></trkpt><trkpt lat="45.784096746650675" lon="9.730553839515071"><ele>1069.8</ele><time>2026-03-27T15:34:27Z</time></trkpt><trkpt lat="45.78412741381272" lon="9.730674800892523"><ele>1068.2</ele><time>2026-03-27T15:34:28Z</time></trkpt><trkpt lat="45.784173776023884" lon="9.73078921510516"><ele>1066.6</ele><time>2026-03-27T15:34:29Z</time></trkpt><trkpt lat="45.78422398389201" lon="9.730900873171597"><ele>1065.0</ele><time>2026-03-27T15:34:30Z</time></trkpt><trkpt lat="45.78426531020113" lon="9.731020415141309"><ele>1065.5</ele><time>2026-03-27T15:34:31Z</time></trkpt><trkpt lat="45.78429427950779" lon="9.731142251512388"><ele>1066.0</ele><time>2026-03-27T15:34:32Z</time></trkpt><trkpt lat="45.78430060282359" lon="9.731251897020226"><ele>1066.5</ele><time>2026-03-27T15:34:33Z</time></trkpt><trkpt lat="45.78428871759252" lon="9.731343002025852"><ele>1067.0</ele><time>2026-03-27T15:34:34Z</time></trkpt><trkpt lat="45.78424526163305" lon="9.731428781485205"><ele>1067.5</ele><time>2026-03-27T15:34:35Z</time></trkpt><trkpt lat="45.78417692809293" lon="9.731503739331998"><ele>1068.0</ele><time>2026-03-27T15:34:36Z</time></trkpt><trkpt lat="45.78409532448188" lon="9.731560104416305"><ele>1068.0</ele><time>2026-03-27T15:34:37Z</time></trkpt><trkpt lat="45.78401630310377" lon="9.731628668746694"><ele>1068.0</ele><time>2026-03-27T15:34:38Z</time></trkpt><trkpt lat="45.783959697736385" lon="9.7317138955867"><ele>1068.0</ele><time>2026-03-27T15:34:39Z</time></trkpt><trkpt lat="45.783926374895536" lon="9.731796578488687"><ele>1068.0</ele><time>2026-03-27T15:34:40Z</time></trkpt><trkpt lat="45.78388035070782" lon="9.731939187967813"><ele>1068.0</ele><time>2026-03-27T15:34:42Z</time></trkpt><trkpt lat="45.783844626410804" lon="9.732069344798024"><ele>1068.0</ele><time>2026-03-27T15:34:44Z</time></trkpt><trkpt lat="45.78379481941078" lon="9.732200788277666"><ele>1068.4</ele><time>2026-03-27T15:34:46Z</time></trkpt><trkpt lat="45.783750202631346" lon="9.732340425133307"><ele>1068.8</ele><time>2026-03-27T15:34:48Z</time></trkpt><trkpt lat="45.783720046416434" lon="9.732503093047074"><ele>1069.2</ele><time>2026-03-27T15:34:50Z</time></trkpt><trkpt lat="45.78367131785099" lon="9.732655319923179"><ele>1069.6</ele><time>2026-03-27T15:34:52Z</time></trkpt><trkpt lat="45.78364870859957" lon="9.732806102981671"><ele>1070.0</ele><time>2026-03-27T15:34:54Z</time></trkpt><trkpt lat="45.78365108329982" lon="9.732898684711799"><ele>1068.4285714285713</ele><time>2026-03-27T15:34:55Z</time></trkpt><trkpt lat="45.78366490677324" lon="9.732994090738561"><ele>1066.857142857143</ele><time>2026-03-27T15:34:56Z</time></trkpt><trkpt lat="45.78368130627135" lon="9.733098810077982"><ele>1065.2857142857142</ele><time>2026-03-27T15:34:57Z</time></trkpt><trkpt lat="45.78368308440891" lon="9.733200518985832"><ele>1063.7142857142858</ele><time>2026-03-27T15:34:58Z</time></trkpt><trkpt lat="45.783664263468495" lon="9.733304003194906"><ele>1062.142857142857</ele><time>2026-03-27T15:34:59Z</time></trkpt><trkpt lat="45.78362771613957" lon="9.733390320560183"><ele>1060.5714285714284</ele><time>2026-03-27T15:35:00Z</time></trkpt><trkpt lat="45.7835773480106" lon="9.733457610490776"><ele>1059.0</ele><time>2026-03-27T15:35:01Z</time></trkpt><trkpt lat="45.78350220572251" lon="9.733517314138883"><ele>1053.2</ele><time>2026-03-27T15:35:02Z</time></trkpt><trkpt lat="45.783417741427044" lon="9.73359813317986"><ele>1047.4</ele><time>2026-03-27T15:35:03Z</time></trkpt><trkpt lat="45.7833509489792" lon="9.733712974444705"><ele>1041.6</ele><time>2026-03-27T15:35:04Z</time></trkpt><trkpt lat="45.783289999413036" lon="9.733843485723426"><ele>1035.8</ele><time>2026-03-27T15:35:05Z</time></trkpt><trkpt lat="45.783233043305025" lon="9.733968375530559"><ele>1030.0</ele><time>2026-03-27T15:35:06Z</time></trkpt><trkpt lat="45.78316321126948" lon="9.734061163472376"><ele>1030.0</ele><time>2026-03-27T15:35:07Z</time></trkpt><trkpt lat="45.78309036109973" lon="9.734119907173755"><ele>1030.0</ele><time>2026-03-27T15:35:08Z</time></trkpt><trkpt lat="45.78299338116577" lon="9.734159809939548"><ele>1030.0</ele><time>2026-03-27T15:35:09Z</time></trkpt><trkpt lat="45.78288540350354" lon="9.734186943467163"><ele>1030.0</ele><time>2026-03-27T15:35:10Z</time></trkpt><trkpt lat="45.78278591545453" lon="9.73420481991362"><ele>1030.0</ele><time>2026-03-27T15:35:11Z</time></trkpt><trkpt lat="45.78268703622744" lon="9.734263781543524"><ele>1025.8</ele><time>2026-03-27T15:35:12Z</time></trkpt><trkpt lat="45.782589498680096" lon="9.7343511135656"><ele>1021.6</ele><time>2026-03-27T15:35:13Z</time></trkpt><trkpt lat="45.78250192726036" lon="9.734434521555682"><ele>1017.4000000000001</ele><time>2026-03-27T15:35:14Z</time></trkpt><trkpt lat="45.782420139940946" lon="9.734533775795672"><ele>1013.2</ele><time>2026-03-27T15:35:15Z</time></trkpt><trkpt lat="45.782347488274304" lon="9.734634657733478"><ele>1009.0</ele><time>2026-03-27T15:35:16Z</time></trkpt><trkpt lat="45.78226488734021" lon="9.734723841174484"><ele>1009.0</ele><time>2026-03-27T15:35:17Z</time></trkpt><trkpt lat="45.78218090023061" lon="9.734807390113518"><ele>1009.0</ele><time>2026-03-27T15:35:18Z</time></trkpt><trkpt lat="45.78210169744095" lon="9.73494471375674"><ele>1009.0</ele><time>2026-03-27T15:35:19Z</time></trkpt><trkpt lat="45.78202334626678" lon="9.735079484181133"><ele>1009.0</ele><time>2026-03-27T15:35:20Z</time></trkpt><trkpt lat="45.781951929668054" lon="9.73521036102558"><ele>1012.6</ele><time>2026-03-27T15:35:21Z</time></trkpt><trkpt lat="45.78188404558448" lon="9.735345927327282"><ele>1016.2</ele><time>2026-03-27T15:35:22Z</time></trkpt><trkpt lat="45.78182487778296" lon="9.73548713759886"><ele>1019.8000000000001</ele><time>2026-03-27T15:35:23Z</time></trkpt><trkpt lat="45.781773698820295" lon="9.735624248947476"><ele>1023.4000000000001</ele><time>2026-03-27T15:35:24Z</time></trkpt><trkpt lat="45.78173912112466" lon="9.735764789670162"><ele>1027.0</ele><time>2026-03-27T15:35:25Z</time></trkpt><trkpt lat="45.781712289268086" lon="9.735923370573811"><ele>1023.2</ele><time>2026-03-27T15:35:26Z</time></trkpt><trkpt lat="45.78170311505646" lon="9.736081307373182"><ele>1019.4000000000001</ele><time>2026-03-27T15:35:27Z</time></trkpt><trkpt lat="45.781714957653385" lon="9.7362259926529"><ele>1015.5999999999999</ele><time>2026-03-27T15:35:28Z</time></trkpt><trkpt lat="45.78174755496043" lon="9.736363348454725"><ele>1011.8</ele><time>2026-03-27T15:35:29Z</time></trkpt><trkpt lat="45.7818022212455" lon="9.736510128939022"><ele>1008.0</ele><time>2026-03-27T15:35:30Z</time></trkpt><trkpt lat="45.781855245510386" lon="9.736642498833387"><ele>998.0</ele><time>2026-03-27T15:35:31Z</time></trkpt><trkpt lat="45.781908441737144" lon="9.736761510685865"><ele>988.0</ele><time>2026-03-27T15:35:32Z</time></trkpt><trkpt lat="45.781953142896405" lon="9.736870507470792"><ele>978.0</ele><time>2026-03-27T15:35:33Z</time></trkpt><trkpt lat="45.78198462118888" lon="9.736970229255407"><ele>968.0</ele><time>2026-03-27T15:35:34Z</time></trkpt><trkpt lat="45.78201269586687" lon="9.737059453247646"><ele>958.0</ele><time>2026-03-27T15:35:35Z</time></trkpt><trkpt lat="45.781948786066565" lon="9.737232217224891"><ele>954.8</ele><time>2026-03-27T15:35:37Z</time></trkpt><trkpt lat="45.78186512147846" lon="9.73731003382746"><ele>951.5999999999999</ele><time>2026-03-27T15:35:38Z</time></trkpt><trkpt lat="45.78176358224589" lon="9.73735349269246"><ele>948.4000000000001</ele><time>2026-03-27T15:35:39Z</time></trkpt><trkpt lat="45.78166133896638" lon="9.737387803606472"><ele>945.2</ele><time>2026-03-27T15:35:40Z</time></trkpt><trkpt lat="45.78156339925772" lon="9.737444233394768"><ele>942.0</ele><time>2026-03-27T15:35:41Z</time></trkpt><trkpt lat="45.78147597265632" lon="9.73751284268426"><ele>946.8</ele><time>2026-03-27T15:35:42Z</time></trkpt><trkpt lat="45.78140281587967" lon="9.737592469265145"><ele>951.6</ele><time>2026-03-27T15:35:43Z</time></trkpt><trkpt lat="45.78134447998015" lon="9.737670822211202"><ele>956.3999999999999</ele><time>2026-03-27T15:35:44Z</time></trkpt><trkpt lat="45.7813234393864" lon="9.737855063137987"><ele>961.1999999999999</ele><time>2026-03-27T15:35:46Z</time></trkpt><trkpt lat="45.781365200385366" lon="9.737950724063085"><ele>966.0</ele><time>2026-03-27T15:35:47Z</time></trkpt><trkpt lat="45.78140844201547" lon="9.738064208900362"><ele>966.0</ele><time>2026-03-27T15:35:48Z</time></trkpt><trkpt lat="45.781428793978414" lon="9.738190449806403"><ele>965.9999999999999</ele><time>2026-03-27T15:35:49Z</time></trkpt><trkpt lat="45.78145169597095" lon="9.738345752659956"><ele>965.9999999999999</ele><time>2026-03-27T15:35:50Z</time></trkpt><trkpt lat="45.78147422047854" lon="9.738484480047578"><ele>966.0</ele><time>2026-03-27T15:35:51Z</time></trkpt><trkpt lat="45.78149163112713" lon="9.738603879348977"><ele>966.0</ele><time>2026-03-27T15:35:52Z</time></trkpt><trkpt lat="45.78149263549409" lon="9.738716586667428"><ele>962.1999999999999</ele><time>2026-03-27T15:35:53Z</time></trkpt><trkpt lat="45.78145588581966" lon="9.738843898378533"><ele>958.3999999999999</ele><time>2026-03-27T15:35:54Z</time></trkpt><trkpt lat="45.781408154624415" lon="9.738981116696635"><ele>954.6</ele><time>2026-03-27T15:35:55Z</time></trkpt><trkpt lat="45.78136004706312" lon="9.739106411826683"><ele>950.8</ele><time>2026-03-27T15:35:56Z</time></trkpt><trkpt lat="45.78131137718731" lon="9.739217278093367"><ele>947.0</ele><time>2026-03-27T15:35:57Z</time></trkpt><trkpt lat="45.78126623066745" lon="9.739327807195505"><ele>944.2</ele><time>2026-03-27T15:35:58Z</time></trkpt><trkpt lat="45.781244369139" lon="9.739469915196468"><ele>941.4000000000001</ele><time>2026-03-27T15:35:59Z</time></trkpt><trkpt lat="45.7812482586667" lon="9.739634931947437"><ele>938.5999999999999</ele><time>2026-03-27T15:36:00Z</time></trkpt><trkpt lat="45.78124642960308" lon="9.7397912279237"><ele>935.8</ele><time>2026-03-27T15:36:01Z</time></trkpt><trkpt lat="45.78123415228853" lon="9.73992892082619"><ele>933.0</ele><time>2026-03-27T15:36:02Z</time></trkpt><trkpt lat="45.781215329325256" lon="9.740052457458184"><ele>933.0</ele><time>2026-03-27T15:36:03Z</time></trkpt><trkpt lat="45.78117427802282" lon="9.740168518138164"><ele>933.0</ele><time>2026-03-27T15:36:04Z</time></trkpt><trkpt lat="45.78112862524762" lon="9.740252103846691"><ele>933.0</ele><time>2026-03-27T15:36:05Z</time></trkpt><trkpt lat="45.78115039861211" lon="9.74037545715619"><ele>933.0</ele><time>2026-03-27T15:36:07Z</time></trkpt><trkpt lat="45.781218607381085" lon="9.740370815122084"><ele>933.0</ele><time>2026-03-27T15:36:08Z</time></trkpt><trkpt lat="45.781281254440934" lon="9.740307800390884"><ele>933.0</ele><time>2026-03-27T15:36:09Z</time></trkpt><trkpt lat="45.78133689653629" lon="9.74023509010364"><ele>933.0</ele><time>2026-03-27T15:36:10Z</time></trkpt><trkpt lat="45.78138990178422" lon="9.740149085016533"><ele>932.9999999999999</ele><time>2026-03-27T15:36:11Z</time></trkpt><trkpt lat="45.7814224933375" lon="9.740065383464696"><ele>933.0</ele><time>2026-03-27T15:36:12Z</time></trkpt><trkpt lat="45.781497000091946" lon="9.740075040204397"><ele>933.0</ele><time>2026-03-27T15:36:14Z</time></trkpt><trkpt lat="45.781508431446596" lon="9.740178632575924"><ele>932.9999999999999</ele><time>2026-03-27T15:36:15Z</time></trkpt><trkpt lat="45.78148400895219" lon="9.74026825956908"><ele>933.0</ele><time>2026-03-27T15:36:16Z</time></trkpt><trkpt lat="45.781429145686296" lon="9.740349289812773"><ele>933.0</ele><time>2026-03-27T15:36:17Z</time></trkpt><trkpt lat="45.78138580977011" lon="9.740432344843533"><ele>930.2</ele><time>2026-03-27T15:36:18Z</time></trkpt><trkpt lat="45.781321149154714" lon="9.74052617184131"><ele>927.4</ele><time>2026-03-27T15:36:19Z</time></trkpt><trkpt lat="45.781239314966946" lon="9.740597242357254"><ele>924.6000000000001</ele><time>2026-03-27T15:36:20Z</time></trkpt><trkpt lat="45.78116721131636" lon="9.740702450700882"><ele>921.8000000000001</ele><time>2026-03-27T15:36:21Z</time></trkpt><trkpt lat="45.78112333431315" lon="9.740850985789656"><ele>919.0</ele><time>2026-03-27T15:36:22Z</time></trkpt><trkpt lat="45.7810992799211" lon="9.74102143476692"><ele>916.25</ele><time>2026-03-27T15:36:23Z</time></trkpt><trkpt lat="45.78107608276672" lon="9.741191603961626"><ele>913.5</ele><time>2026-03-27T15:36:24Z</time></trkpt><trkpt lat="45.78105940631182" lon="9.74136648883189"><ele>910.75</ele><time>2026-03-27T15:36:25Z</time></trkpt><trkpt lat="45.78103060322235" lon="9.741536520563296"><ele>908.0</ele><time>2026-03-27T15:36:26Z</time></trkpt><trkpt lat="45.78103505649511" lon="9.741708951618653"><ele>908.0</ele><time>2026-03-27T15:36:27Z</time></trkpt><trkpt lat="45.78106669499797" lon="9.741877345602889"><ele>908.0</ele><time>2026-03-27T15:36:28Z</time></trkpt><trkpt lat="45.781118643766085" lon="9.74203230185524"><ele>908.0</ele><time>2026-03-27T15:36:29Z</time></trkpt><trkpt lat="45.78118408475793" lon="9.74216884578099"><ele>908.0</ele><time>2026-03-27T15:36:30Z</time></trkpt><trkpt lat="45.7812392282393" lon="9.742318382034997"><ele>908.0</ele><time>2026-03-27T15:36:31Z</time></trkpt><trkpt lat="45.78127163973244" lon="9.7424834173025"><ele>908.0</ele><time>2026-03-27T15:36:32Z</time></trkpt><trkpt lat="45.78129865775076" lon="9.742666983028126"><ele>908.0</ele><time>2026-03-27T15:36:33Z</time></trkpt><trkpt lat="45.781323052943996" lon="9.74286583365955"><ele>908.0</ele><time>2026-03-27T15:36:34Z</time></trkpt><trkpt lat="45.78134110617915" lon="9.743066173216567"><ele>908.75</ele><time>2026-03-27T15:36:35Z</time></trkpt><trkpt lat="45.781355329153854" lon="9.74327923337069"><ele>909.5</ele><time>2026-03-27T15:36:36Z</time></trkpt><trkpt lat="45.78135533209996" lon="9.743487768591363"><ele>910.25</ele><time>2026-03-27T15:36:37Z</time></trkpt><trkpt lat="45.78133895407148" lon="9.743692152742689"><ele>911.0</ele><time>2026-03-27T15:36:38Z</time></trkpt><trkpt lat="45.78132753292601" lon="9.74387233422095"><ele>911.5999999999999</ele><time>2026-03-27T15:36:39Z</time></trkpt><trkpt lat="45.781318802625016" lon="9.744038584407065"><ele>912.1999999999999</ele><time>2026-03-27T15:36:40Z</time></trkpt><trkpt lat="45.781309674558116" lon="9.744186707874976"><ele>912.8000000000001</ele><time>2026-03-27T15:36:41Z</time></trkpt><trkpt lat="45.78129722604472" lon="9.744319758894076"><ele>913.4000000000001</ele><time>2026-03-27T15:36:42Z</time></trkpt><trkpt lat="45.78128236453308" lon="9.744436770776712"><ele>914.0</ele><time>2026-03-27T15:36:43Z</time></trkpt><trkpt lat="45.78127278386574" lon="9.744537393795772"><ele>915.8000000000001</ele><time>2026-03-27T15:36:44Z</time></trkpt><trkpt lat="45.781259020327354" lon="9.744695225882989"><ele>917.6000000000001</ele><time>2026-03-27T15:36:46Z</time></trkpt><trkpt lat="45.781229380950975" lon="9.744816072905294"><ele>919.4</ele><time>2026-03-27T15:36:48Z</time></trkpt><trkpt lat="45.781136805857436" lon="9.7447912753523"><ele>921.2</ele><time>2026-03-27T15:36:50Z</time></trkpt><trkpt lat="45.781023424998985" lon="9.74473448275487"><ele>923.0</ele><time>2026-03-27T15:36:52Z</time></trkpt><trkpt lat="45.780961112297575" lon="9.744709462908625"><ele>924.1428571428571</ele><time>2026-03-27T15:36:53Z</time></trkpt><trkpt lat="45.78089599508221" lon="9.744683064604905"><ele>925.2857142857143</ele><time>2026-03-27T15:36:54Z</time></trkpt><trkpt lat="45.7807765719878" lon="9.744641341117863"><ele>926.4285714285714</ele><time>2026-03-27T15:36:56Z</time></trkpt><trkpt lat="45.78071584537597" lon="9.744614221798763"><ele>927.5714285714286</ele><time>2026-03-27T15:36:57Z</time></trkpt><trkpt lat="45.78065473356088" lon="9.74458787423695"><ele>928.7142857142858</ele><time>2026-03-27T15:36:58Z</time></trkpt><trkpt lat="45.78059460283006" lon="9.744558585646633"><ele>929.8571428571429</ele><time>2026-03-27T15:36:59Z</time></trkpt><trkpt lat="45.78053209293117" lon="9.74452359696803"><ele>931.0</ele><time>2026-03-27T15:37:00Z</time></trkpt><trkpt lat="45.78046783510245" lon="9.744495402274373"><ele>930.9999999999999</ele><time>2026-03-27T15:37:01Z</time></trkpt><trkpt lat="45.780403628221876" lon="9.744477625494843"><ele>931.0</ele><time>2026-03-27T15:37:02Z</time></trkpt><trkpt lat="45.78033626481306" lon="9.744468212185986"><ele>931.0</ele><time>2026-03-27T15:37:03Z</time></trkpt><trkpt lat="45.78027098615682" lon="9.744465712447813"><ele>931.0</ele><time>2026-03-27T15:37:04Z</time></trkpt><trkpt lat="45.780202339940956" lon="9.744468762941413"><ele>930.9999999999999</ele><time>2026-03-27T15:37:05Z</time></trkpt><trkpt lat="45.78007087302521" lon="9.744455215042414"><ele>931.0</ele><time>2026-03-27T15:37:07Z</time></trkpt><trkpt lat="45.779943276661875" lon="9.744437308345116"><ele>929.8333333333333</ele><time>2026-03-27T15:37:09Z</time></trkpt><trkpt lat="45.779878358002456" lon="9.744416978795712"><ele>928.6666666666666</ele><time>2026-03-27T15:37:10Z</time></trkpt><trkpt lat="45.77981696047997" lon="9.74439674102361"><ele>927.5</ele><time>2026-03-27T15:37:11Z</time></trkpt><trkpt lat="45.77975417996071" lon="9.744366033220036"><ele>926.3333333333333</ele><time>2026-03-27T15:37:12Z</time></trkpt><trkpt lat="45.77964173289685" lon="9.744282961813495"><ele>925.1666666666666</ele><time>2026-03-27T15:37:14Z</time></trkpt><trkpt lat="45.77958492752669" lon="9.744233649468617"><ele>924.0</ele><time>2026-03-27T15:37:15Z</time></trkpt><trkpt lat="45.77948147617548" lon="9.74415497895104"><ele>923.6</ele><time>2026-03-27T15:37:17Z</time></trkpt><trkpt lat="45.77937719022075" lon="9.744096336680835"><ele>923.2</ele><time>2026-03-27T15:37:19Z</time></trkpt><trkpt lat="45.77927635118896" lon="9.744049628155947"><ele>922.8000000000001</ele><time>2026-03-27T15:37:21Z</time></trkpt><trkpt lat="45.77917396098992" lon="9.743997679706988"><ele>922.4000000000001</ele><time>2026-03-27T15:37:23Z</time></trkpt><trkpt lat="45.77906432326154" lon="9.743986530358496"><ele>922.0</ele><time>2026-03-27T15:37:25Z</time></trkpt><trkpt lat="45.778948468336054" lon="9.743952925747138"><ele>921.9999999999999</ele><time>2026-03-27T15:37:27Z</time></trkpt><trkpt lat="45.77888923206795" lon="9.743907223783271"><ele>922.0</ele><time>2026-03-27T15:37:28Z</time></trkpt><trkpt lat="45.778835590102176" lon="9.743851670432559"><ele>922.0</ele><time>2026-03-27T15:37:29Z</time></trkpt><trkpt lat="45.77873931741123" lon="9.743726091053096"><ele>922.0</ele><time>2026-03-27T15:37:31Z</time></trkpt><trkpt lat="45.77867731605349" lon="9.743672341492253"><ele>921.9999999999999</ele><time>2026-03-27T15:37:32Z</time></trkpt><trkpt lat="45.778612188869154" lon="9.743635816004351"><ele>922.0</ele><time>2026-03-27T15:37:33Z</time></trkpt><trkpt lat="45.77854182144526" lon="9.743627986160165"><ele>920.6666666666666</ele><time>2026-03-27T15:37:34Z</time></trkpt><trkpt lat="45.77847122565111" lon="9.743628160277154"><ele>919.3333333333333</ele><time>2026-03-27T15:37:35Z</time></trkpt><trkpt lat="45.77839337698588" lon="9.743640251001798"><ele>918.0</ele><time>2026-03-27T15:37:36Z</time></trkpt><trkpt lat="45.77830783209952" lon="9.74365462242361"><ele>916.6666666666667</ele><time>2026-03-27T15:37:37Z</time></trkpt><trkpt lat="45.778227938637094" lon="9.743661215464417"><ele>915.3333333333334</ele><time>2026-03-27T15:37:38Z</time></trkpt><trkpt lat="45.77814264313868" lon="9.743666407061683"><ele>914.0</ele><time>2026-03-27T15:37:39Z</time></trkpt><trkpt lat="45.778058948355294" lon="9.74366899914861"><ele>914.0000000000001</ele><time>2026-03-27T15:37:40Z</time></trkpt><trkpt lat="45.7779733660015" lon="9.743668397901118"><ele>914.0</ele><time>2026-03-27T15:37:41Z</time></trkpt><trkpt lat="45.77788567838283" lon="9.743653763121157"><ele>914.0</ele><time>2026-03-27T15:37:42Z</time></trkpt><trkpt lat="45.777800854412895" lon="9.74363225829867"><ele>914.0</ele><time>2026-03-27T15:37:43Z</time></trkpt><trkpt lat="45.777717429664584" lon="9.743594969004892"><ele>914.0000000000001</ele><time>2026-03-27T15:37:44Z</time></trkpt><trkpt lat="45.777636143509625" lon="9.743549518414707"><ele>914.0</ele><time>2026-03-27T15:37:45Z</time></trkpt><trkpt lat="45.77755723379105" lon="9.743488828231312"><ele>912.8333333333334</ele><time>2026-03-27T15:37:46Z</time></trkpt><trkpt lat="45.77747485093143" lon="9.743426040897328"><ele>911.6666666666667</ele><time>2026-03-27T15:37:47Z</time></trkpt><trkpt lat="45.777389191132045" lon="9.743367652252873"><ele>910.5</ele><time>2026-03-27T15:37:48Z</time></trkpt><trkpt lat="45.77729823361778" lon="9.743315433214152"><ele>909.3333333333333</ele><time>2026-03-27T15:37:49Z</time></trkpt><trkpt lat="45.77723197454691" lon="9.743251224954781"><ele>908.1666666666666</ele><time>2026-03-27T15:37:50Z</time></trkpt><trkpt lat="45.77719411672051" lon="9.743164570581365"><ele>907.0</ele><time>2026-03-27T15:37:51Z</time></trkpt><trkpt lat="45.777205961354674" lon="9.743025430646153"><ele>906.9999999999999</ele><time>2026-03-27T15:37:52Z</time></trkpt><trkpt lat="45.777215705067405" lon="9.742900450564338"><ele>907.0</ele><time>2026-03-27T15:37:53Z</time></trkpt><trkpt lat="45.77723729356961" lon="9.742771915050433"><ele>907.0</ele><time>2026-03-27T15:37:54Z</time></trkpt><trkpt lat="45.777242681288506" lon="9.742653199776626"><ele>907.0</ele><time>2026-03-27T15:37:55Z</time></trkpt><trkpt lat="45.77725806410181" lon="9.742533333210272"><ele>906.9999999999999</ele><time>2026-03-27T15:37:56Z</time></trkpt><trkpt lat="45.77725885591487" lon="9.742411876719366"><ele>907.0</ele><time>2026-03-27T15:37:57Z</time></trkpt><trkpt lat="45.77723930436589" lon="9.742287528407244"><ele>908.9999999999999</ele><time>2026-03-27T15:37:58Z</time></trkpt><trkpt lat="45.77721366825183" lon="9.74216814779153"><ele>911.0</ele><time>2026-03-27T15:37:59Z</time></trkpt><trkpt lat="45.77718163014634" lon="9.742049626339442"><ele>913.0</ele><time>2026-03-27T15:38:00Z</time></trkpt><trkpt lat="45.77713616059597" lon="9.741942280508123"><ele>915.0</ele><time>2026-03-27T15:38:01Z</time></trkpt><trkpt lat="45.77708757784857" lon="9.741835162971437"><ele>916.9999999999999</ele><time>2026-03-27T15:38:02Z</time></trkpt><trkpt lat="45.777043686771904" lon="9.741720924717711"><ele>919.0</ele><time>2026-03-27T15:38:03Z</time></trkpt><trkpt lat="45.7770220838624" lon="9.741595499432272"><ele>919.6</ele><time>2026-03-27T15:38:04Z</time></trkpt><trkpt lat="45.77701037112432" lon="9.741466443344548"><ele>920.2</ele><time>2026-03-27T15:38:05Z</time></trkpt><trkpt lat="45.77700661038247" lon="9.741334324712172"><ele>920.8000000000001</ele><time>2026-03-27T15:38:06Z</time></trkpt><trkpt lat="45.77701031807736" lon="9.741203866749448"><ele>921.4000000000001</ele><time>2026-03-27T15:38:07Z</time></trkpt><trkpt lat="45.77701448254221" lon="9.741075748194284"><ele>922.0</ele><time>2026-03-27T15:38:08Z</time></trkpt><trkpt lat="45.77702488253004" lon="9.740946172160099"><ele>923.0</ele><time>2026-03-27T15:38:09Z</time></trkpt><trkpt lat="45.777036890941446" lon="9.740816125268381"><ele>924.0</ele><time>2026-03-27T15:38:10Z</time></trkpt><trkpt lat="45.77705408638817" lon="9.740686722636768"><ele>925.0</ele><time>2026-03-27T15:38:11Z</time></trkpt><trkpt lat="45.777076922404575" lon="9.740558110458858"><ele>926.0</ele><time>2026-03-27T15:38:12Z</time></trkpt><trkpt lat="45.7771013700761" lon="9.740433343428888"><ele>927.0</ele><time>2026-03-27T15:38:13Z</time></trkpt><trkpt lat="45.77712423343505" lon="9.740309037644506"><ele>927.0</ele><time>2026-03-27T15:38:14Z</time></trkpt><trkpt lat="45.777149847468635" lon="9.74018738967794"><ele>927.0</ele><time>2026-03-27T15:38:15Z</time></trkpt><trkpt lat="45.77716088578531" lon="9.740060602727524"><ele>927.0</ele><time>2026-03-27T15:38:16Z</time></trkpt><trkpt lat="45.77715045565561" lon="9.73993238775572"><ele>927.0</ele><time>2026-03-27T15:38:17Z</time></trkpt><trkpt lat="45.77711042432432" lon="9.739810310916548"><ele>927.0</ele><time>2026-03-27T15:38:18Z</time></trkpt><trkpt lat="45.77704346527486" lon="9.739711242063086"><ele>927.0</ele><time>2026-03-27T15:38:19Z</time></trkpt><trkpt lat="45.77696012463416" lon="9.739654918469007"><ele>927.0</ele><time>2026-03-27T15:38:20Z</time></trkpt><trkpt lat="45.77685891369229" lon="9.739624369208505"><ele>927.0</ele><time>2026-03-27T15:38:21Z</time></trkpt><trkpt lat="45.7767653422933" lon="9.739609518743702"><ele>927.0</ele><time>2026-03-27T15:38:22Z</time></trkpt><trkpt lat="45.77666829845224" lon="9.73958509722122"><ele>927.0</ele><time>2026-03-27T15:38:23Z</time></trkpt><trkpt lat="45.77657191594517" lon="9.739560317733803"><ele>921.8</ele><time>2026-03-27T15:38:24Z</time></trkpt><trkpt lat="45.77647353660617" lon="9.739563427921999"><ele>916.6</ele><time>2026-03-27T15:38:25Z</time></trkpt><trkpt lat="45.776372759037876" lon="9.739620016662546"><ele>911.3999999999999</ele><time>2026-03-27T15:38:26Z</time></trkpt><trkpt lat="45.77629136752928" lon="9.739718556863034"><ele>906.1999999999999</ele><time>2026-03-27T15:38:27Z</time></trkpt><trkpt lat="45.7762179840039" lon="9.73982894224347"><ele>901.0</ele><time>2026-03-27T15:38:28Z</time></trkpt><trkpt lat="45.77614184620492" lon="9.739935606757552"><ele>901.0</ele><time>2026-03-27T15:38:29Z</time></trkpt><trkpt lat="45.77606613512116" lon="9.740024858858332"><ele>900.9999999999999</ele><time>2026-03-27T15:38:30Z</time></trkpt><trkpt lat="45.77597323802648" lon="9.740104364851282"><ele>900.9999999999999</ele><time>2026-03-27T15:38:31Z</time></trkpt><trkpt lat="45.77587216649401" lon="9.740158481025231"><ele>901.0</ele><time>2026-03-27T15:38:32Z</time></trkpt><trkpt lat="45.77576356571475" lon="9.740190423915768"><ele>901.0</ele><time>2026-03-27T15:38:33Z</time></trkpt><trkpt lat="45.77565880785397" lon="9.740216840502338"><ele>895.1999999999999</ele><time>2026-03-27T15:38:34Z</time></trkpt><trkpt lat="45.775556928616375" lon="9.740267366859369"><ele>889.3999999999999</ele><time>2026-03-27T15:38:35Z</time></trkpt><trkpt lat="45.77546658244739" lon="9.740353055564107"><ele>883.6</ele><time>2026-03-27T15:38:36Z</time></trkpt><trkpt lat="45.77539114717849" lon="9.740468381698491"><ele>877.8</ele><time>2026-03-27T15:38:37Z</time></trkpt><trkpt lat="45.77533086485619" lon="9.74059921842308"><ele>872.0</ele><time>2026-03-27T15:38:38Z</time></trkpt><trkpt lat="45.77527245993771" lon="9.740729308568213"><ele>872.0</ele><time>2026-03-27T15:38:39Z</time></trkpt><trkpt lat="45.7752076558155" lon="9.740854500622845"><ele>872.0</ele><time>2026-03-27T15:38:40Z</time></trkpt><trkpt lat="45.775137951956864" lon="9.740976009334439"><ele>872.0</ele><time>2026-03-27T15:38:41Z</time></trkpt><trkpt lat="45.775069173537204" lon="9.74109930890297"><ele>872.0</ele><time>2026-03-27T15:38:42Z</time></trkpt><trkpt lat="45.77499524744841" lon="9.741212611467233"><ele>872.0</ele><time>2026-03-27T15:38:43Z</time></trkpt><trkpt lat="45.774898818219235" lon="9.741305647093865"><ele>870.25</ele><time>2026-03-27T15:38:44Z</time></trkpt><trkpt lat="45.774782965548226" lon="9.741344574379236"><ele>868.5</ele><time>2026-03-27T15:38:45Z</time></trkpt><trkpt lat="45.774661429923604" lon="9.741320567512043"><ele>866.75</ele><time>2026-03-27T15:38:46Z</time></trkpt><trkpt lat="45.77454922552702" lon="9.741296404435849"><ele>865.0</ele><time>2026-03-27T15:38:47Z</time></trkpt><trkpt lat="45.77443701564727" lon="9.741350164476996"><ele>868.0</ele><time>2026-03-27T15:38:48Z</time></trkpt><trkpt lat="45.7743385833234" lon="9.74145255572949"><ele>871.0</ele><time>2026-03-27T15:38:49Z</time></trkpt><trkpt lat="45.774251846160354" lon="9.741576908511378"><ele>874.0</ele><time>2026-03-27T15:38:50Z</time></trkpt><trkpt lat="45.774174179069675" lon="9.741698491109762"><ele>877.0</ele><time>2026-03-27T15:38:51Z</time></trkpt><trkpt lat="45.77409337757906" lon="9.741815804750079"><ele>870.0</ele><time>2026-03-27T15:38:52Z</time></trkpt><trkpt lat="45.77400406752964" lon="9.741917163831761"><ele>863.0</ele><time>2026-03-27T15:38:53Z</time></trkpt><trkpt lat="45.773904215797465" lon="9.742003704718535"><ele>856.0</ele><time>2026-03-27T15:38:54Z</time></trkpt><trkpt lat="45.77379843930173" lon="9.742051827696589"><ele>849.0</ele><time>2026-03-27T15:38:55Z</time></trkpt><trkpt lat="45.77368143404762" lon="9.742049851558178"><ele>849.0</ele><time>2026-03-27T15:38:56Z</time></trkpt><trkpt lat="45.773562615513896" lon="9.742015482125982"><ele>849.0</ele><time>2026-03-27T15:38:57Z</time></trkpt><trkpt lat="45.77344952941375" lon="9.741989659104108"><ele>849.0</ele><time>2026-03-27T15:38:58Z</time></trkpt><trkpt lat="45.77333158518861" lon="9.742006160184498"><ele>849.0</ele><time>2026-03-27T15:38:59Z</time></trkpt><trkpt lat="45.77321457454324" lon="9.742048005004692"><ele>850.25</ele><time>2026-03-27T15:39:00Z</time></trkpt><trkpt lat="45.77309833075124" lon="9.742096669015915"><ele>851.5</ele><time>2026-03-27T15:39:01Z</time></trkpt><trkpt lat="45.77298410572439" lon="9.742131797660146"><ele>852.75</ele><time>2026-03-27T15:39:02Z</time></trkpt><trkpt lat="45.772865746412215" lon="9.74215383872204"><ele>854.0</ele><time>2026-03-27T15:39:03Z</time></trkpt><trkpt lat="45.772745210424546" lon="9.742150053634498"><ele>852.5</ele><time>2026-03-27T15:39:04Z</time></trkpt><trkpt lat="45.772626463450315" lon="9.742120906740508"><ele>851.0</ele><time>2026-03-27T15:39:05Z</time></trkpt><trkpt lat="45.77250787457051" lon="9.742093681466692"><ele>849.5</ele><time>2026-03-27T15:39:06Z</time></trkpt><trkpt lat="45.77239073640117" lon="9.742105183187348"><ele>848.0</ele><time>2026-03-27T15:39:07Z</time></trkpt><trkpt lat="45.7722714839504" lon="9.742153469942865"><ele>848.0</ele><time>2026-03-27T15:39:08Z</time></trkpt><trkpt lat="45.77215548129711" lon="9.74220346188448"><ele>848.0</ele><time>2026-03-27T15:39:09Z</time></trkpt><trkpt lat="45.772039303917936" lon="9.742252445534888"><ele>848.0</ele><time>2026-03-27T15:39:10Z</time></trkpt><trkpt lat="45.77192433851151" lon="9.742306490865383"><ele>848.0</ele><time>2026-03-27T15:39:11Z</time></trkpt><trkpt lat="45.771810557696035" lon="9.742372633994691"><ele>847.5</ele><time>2026-03-27T15:39:12Z</time></trkpt><trkpt lat="45.77169707449943" lon="9.742442805973557"><ele>847.0</ele><time>2026-03-27T15:39:13Z</time></trkpt><trkpt lat="45.771579715827656" lon="9.742503527137387"><ele>846.5</ele><time>2026-03-27T15:39:14Z</time></trkpt><trkpt lat="45.77147003182023" lon="9.74254852952753"><ele>846.0</ele><time>2026-03-27T15:39:15Z</time></trkpt><trkpt lat="45.77136305934098" lon="9.742578810013788"><ele>846.0</ele><time>2026-03-27T15:39:16Z</time></trkpt><trkpt lat="45.77126634305893" lon="9.742595101245756"><ele>846.0</ele><time>2026-03-27T15:39:17Z</time></trkpt><trkpt lat="45.77118628433094" lon="9.742583530733041"><ele>846.0</ele><time>2026-03-27T15:39:18Z</time></trkpt><trkpt lat="45.771117096137914" lon="9.742525438924009"><ele>846.0</ele><time>2026-03-27T15:39:19Z</time></trkpt><trkpt lat="45.77107380578013" lon="9.74241204683063"><ele>846.0</ele><time>2026-03-27T15:39:20Z</time></trkpt><trkpt lat="45.771061959650154" lon="9.742274450315456"><ele>846.0</ele><time>2026-03-27T15:39:21Z</time></trkpt><trkpt lat="45.77106418160583" lon="9.74213371665186"><ele>846.0</ele><time>2026-03-27T15:39:22Z</time></trkpt><trkpt lat="45.771065315648386" lon="9.742007230417856"><ele>846.0</ele><time>2026-03-27T15:39:23Z</time></trkpt><trkpt lat="45.77105526722053" lon="9.74186984044689"><ele>846.0</ele><time>2026-03-27T15:39:24Z</time></trkpt><trkpt lat="45.77104567626096" lon="9.741737315360536"><ele>846.0</ele><time>2026-03-27T15:39:25Z</time></trkpt><trkpt lat="45.77104732889556" lon="9.741599167799817"><ele>846.0</ele><time>2026-03-27T15:39:26Z</time></trkpt><trkpt lat="45.77106878036426" lon="9.741459538459623"><ele>847.5999999999999</ele><time>2026-03-27T15:39:27Z</time></trkpt><trkpt lat="45.771104690808855" lon="9.741331154961886"><ele>849.2</ele><time>2026-03-27T15:39:28Z</time></trkpt><trkpt lat="45.77115240910689" lon="9.741202911497082"><ele>850.8000000000001</ele><time>2026-03-27T15:39:29Z</time></trkpt><trkpt lat="45.77120889669422" lon="9.741080452647443"><ele>852.4000000000001</ele><time>2026-03-27T15:39:30Z</time></trkpt><trkpt lat="45.77126386446656" lon="9.740959213646846"><ele>854.0</ele><time>2026-03-27T15:39:31Z</time></trkpt><trkpt lat="45.77131561974911" lon="9.740836049310277"><ele>854.0000000000001</ele><time>2026-03-27T15:39:32Z</time></trkpt><trkpt lat="45.771379851383905" lon="9.740729540807044"><ele>854.0</ele><time>2026-03-27T15:39:33Z</time></trkpt><trkpt lat="45.77145414960826" lon="9.74067465812251"><ele>854.0</ele><time>2026-03-27T15:39:34Z</time></trkpt><trkpt lat="45.771512725634274" lon="9.740631105896846"><ele>854.0</ele><time>2026-03-27T15:39:35Z</time></trkpt><trkpt lat="45.77148055759285" lon="9.740484104978076"><ele>854.0000000000001</ele><time>2026-03-27T15:39:37Z</time></trkpt><trkpt lat="45.77140586940799" lon="9.740475831125352"><ele>854.0</ele><time>2026-03-27T15:39:38Z</time></trkpt><trkpt lat="45.771329458107225" lon="9.740546203231553"><ele>854.0000000000001</ele><time>2026-03-27T15:39:39Z</time></trkpt><trkpt lat="45.771266715289364" lon="9.740614971874045"><ele>854.0</ele><time>2026-03-27T15:39:40Z</time></trkpt><trkpt lat="45.7712257824838" lon="9.740714765093129"><ele>854.0</ele><time>2026-03-27T15:39:41Z</time></trkpt><trkpt lat="45.771189455085526" lon="9.740812567161935"><ele>854.0</ele><time>2026-03-27T15:39:42Z</time></trkpt><trkpt lat="45.77114916567068" lon="9.740918387189126"><ele>854.0000000000001</ele><time>2026-03-27T15:39:43Z</time></trkpt><trkpt lat="45.771096347865075" lon="9.741008237274487"><ele>854.0</ele><time>2026-03-27T15:39:44Z</time></trkpt><trkpt lat="45.771025219481245" lon="9.741091888669981"><ele>849.4000000000001</ele><time>2026-03-27T15:39:45Z</time></trkpt><trkpt lat="45.77096586389592" lon="9.741192745519912"><ele>844.8000000000001</ele><time>2026-03-27T15:39:46Z</time></trkpt><trkpt lat="45.77091558669485" lon="9.741307176952121"><ele>840.2</ele><time>2026-03-27T15:39:47Z</time></trkpt><trkpt lat="45.77087615072236" lon="9.741422974445179"><ele>835.5999999999999</ele><time>2026-03-27T15:39:48Z</time></trkpt><trkpt lat="45.77085097102724" lon="9.741555788300971"><ele>831.0</ele><time>2026-03-27T15:39:49Z</time></trkpt><trkpt lat="45.770823630191856" lon="9.741689298818255"><ele>831.0</ele><time>2026-03-27T15:39:50Z</time></trkpt><trkpt lat="45.7708138850451" lon="9.741829087602703"><ele>831.0</ele><time>2026-03-27T15:39:51Z</time></trkpt><trkpt lat="45.77080649338499" lon="9.741975363084686"><ele>831.0</ele><time>2026-03-27T15:39:52Z</time></trkpt><trkpt lat="45.77078237795511" lon="9.742118731646736"><ele>831.0</ele><time>2026-03-27T15:39:53Z</time></trkpt><trkpt lat="45.77073891265777" lon="9.742262524157164"><ele>831.0</ele><time>2026-03-27T15:39:54Z</time></trkpt><trkpt lat="45.77066562590719" lon="9.742373138459131"><ele>832.4</ele><time>2026-03-27T15:39:55Z</time></trkpt><trkpt lat="45.77057268022672" lon="9.742463266992742"><ele>833.8</ele><time>2026-03-27T15:39:56Z</time></trkpt><trkpt lat="45.77047308333536" lon="9.742523319885729"><ele>835.1999999999999</ele><time>2026-03-27T15:39:57Z</time></trkpt><trkpt lat="45.770372741122934" lon="9.742552989374696"><ele>836.5999999999999</ele><time>2026-03-27T15:39:58Z</time></trkpt><trkpt lat="45.770302020433334" lon="9.742584635606708"><ele>838.0</ele><time>2026-03-27T15:39:59Z</time></trkpt><trkpt lat="45.770257451335766" lon="9.742660557304509"><ele>835.3333333333333</ele><time>2026-03-27T15:40:00Z</time></trkpt><trkpt lat="45.77023798749099" lon="9.742767220337914"><ele>832.6666666666666</ele><time>2026-03-27T15:40:01Z</time></trkpt><trkpt lat="45.770273870630255" lon="9.742886397081229"><ele>830.0</ele><time>2026-03-27T15:40:02Z</time></trkpt><trkpt lat="45.77033284734276" lon="9.742985266379712"><ele>827.3333333333333</ele><time>2026-03-27T15:40:03Z</time></trkpt><trkpt lat="45.770395690371984" lon="9.743068390390219"><ele>824.6666666666666</ele><time>2026-03-27T15:40:04Z</time></trkpt><trkpt lat="45.77045078973401" lon="9.743165879218923"><ele>822.0</ele><time>2026-03-27T15:40:05Z</time></trkpt><trkpt lat="45.770504356416865" lon="9.743267200475094"><ele>822.0</ele><time>2026-03-27T15:40:06Z</time></trkpt><trkpt lat="45.7705683379728" lon="9.743363624155911"><ele>822.0</ele><time>2026-03-27T15:40:07Z</time></trkpt><trkpt lat="45.77064247403854" lon="9.743449187720682"><ele>822.0</ele><time>2026-03-27T15:40:08Z</time></trkpt><trkpt lat="45.77069698719495" lon="9.743519227113568"><ele>822.0</ele><time>2026-03-27T15:40:09Z</time></trkpt><trkpt lat="45.77064641608654" lon="9.743620378164922"><ele>822.0</ele><time>2026-03-27T15:40:11Z</time></trkpt><trkpt lat="45.77057369185528" lon="9.743588115966881"><ele>822.0</ele><time>2026-03-27T15:40:12Z</time></trkpt><trkpt lat="45.77052574783788" lon="9.743500227250829"><ele>822.0</ele><time>2026-03-27T15:40:13Z</time></trkpt><trkpt lat="45.77048259918058" lon="9.743407026803618"><ele>822.0</ele><time>2026-03-27T15:40:14Z</time></trkpt><trkpt lat="45.770434419174975" lon="9.743324317702271"><ele>822.0</ele><time>2026-03-27T15:40:15Z</time></trkpt><trkpt lat="45.77038153166577" lon="9.743245347639501"><ele>822.0</ele><time>2026-03-27T15:40:16Z</time></trkpt><trkpt lat="45.77032325473415" lon="9.743169569646263"><ele>822.0</ele><time>2026-03-27T15:40:17Z</time></trkpt><trkpt lat="45.770267384826994" lon="9.743093348855128"><ele>822.0</ele><time>2026-03-27T15:40:18Z</time></trkpt><trkpt lat="45.77020380497203" lon="9.743017560751795"><ele>818.1666666666666</ele><time>2026-03-27T15:40:19Z</time></trkpt><trkpt lat="45.77014498023156" lon="9.742936369728733"><ele>814.3333333333333</ele><time>2026-03-27T15:40:20Z</time></trkpt><trkpt lat="45.770078924413234" lon="9.742857772323072"><ele>810.5</ele><time>2026-03-27T15:40:21Z</time></trkpt><trkpt lat="45.77002041704641" lon="9.742765755548648"><ele>806.6666666666666</ele><time>2026-03-27T15:40:22Z</time></trkpt><trkpt lat="45.76999311081155" lon="9.742653524786848"><ele>802.8333333333333</ele><time>2026-03-27T15:40:23Z</time></trkpt><trkpt lat="45.76999231178026" lon="9.742526660720124"><ele>799.0</ele><time>2026-03-27T15:40:24Z</time></trkpt><trkpt lat="45.77002015100584" lon="9.742398632945857"><ele>799.0</ele><time>2026-03-27T15:40:25Z</time></trkpt><trkpt lat="45.77007933416833" lon="9.742290471875883"><ele>799.0</ele><time>2026-03-27T15:40:26Z</time></trkpt><trkpt lat="45.77016368371493" lon="9.74221842257805"><ele>799.0</ele><time>2026-03-27T15:40:27Z</time></trkpt><trkpt lat="45.770245881536944" lon="9.74216308258601"><ele>799.0</ele><time>2026-03-27T15:40:28Z</time></trkpt><trkpt lat="45.770339309085045" lon="9.742119143451587"><ele>799.0</ele><time>2026-03-27T15:40:29Z</time></trkpt><trkpt lat="45.7704127120033" lon="9.742033569317744"><ele>805.4000000000001</ele><time>2026-03-27T15:40:30Z</time></trkpt><trkpt lat="45.7704663066122" lon="9.741919833887529"><ele>811.8</ele><time>2026-03-27T15:40:31Z</time></trkpt><trkpt lat="45.770496536981405" lon="9.741775327911892"><ele>818.2</ele><time>2026-03-27T15:40:32Z</time></trkpt><trkpt lat="45.77050601703453" lon="9.741627244083542"><ele>824.5999999999999</ele><time>2026-03-27T15:40:33Z</time></trkpt><trkpt lat="45.77052246342766" lon="9.741484572211183"><ele>831.0</ele><time>2026-03-27T15:40:34Z</time></trkpt><trkpt lat="45.770571815427616" lon="9.741341946359926"><ele>831.0</ele><time>2026-03-27T15:40:35Z</time></trkpt><trkpt lat="45.77062120683273" lon="9.741213157234109"><ele>831.0</ele><time>2026-03-27T15:40:36Z</time></trkpt><trkpt lat="45.77067643194008" lon="9.741081069274108"><ele>831.0</ele><time>2026-03-27T15:40:37Z</time></trkpt><trkpt lat="45.77071913966694" lon="9.740941581159374"><ele>831.0</ele><time>2026-03-27T15:40:38Z</time></trkpt><trkpt lat="45.77075964170728" lon="9.740797248498334"><ele>831.0</ele><time>2026-03-27T15:40:39Z</time></trkpt><trkpt lat="45.77080605284635" lon="9.740653115220702"><ele>827.0</ele><time>2026-03-27T15:40:40Z</time></trkpt><trkpt lat="45.770855096697595" lon="9.740510284961527"><ele>823.0</ele><time>2026-03-27T15:40:41Z</time></trkpt><trkpt lat="45.77090183014278" lon="9.740391062793483"><ele>819.0</ele><time>2026-03-27T15:40:42Z</time></trkpt><trkpt lat="45.770946986668754" lon="9.740302395962415"><ele>815.0</ele><time>2026-03-27T15:40:43Z</time></trkpt><trkpt lat="45.770959689429844" lon="9.740159162257264"><ele>811.0</ele><time>2026-03-27T15:40:45Z</time></trkpt><trkpt lat="45.77089426484438" lon="9.74013237523201"><ele>810.9999999999999</ele><time>2026-03-27T15:40:46Z</time></trkpt><trkpt lat="45.770820991470394" lon="9.740201834799251"><ele>811.0</ele><time>2026-03-27T15:40:47Z</time></trkpt><trkpt lat="45.770789012200446" lon="9.740315587259115"><ele>811.0</ele><time>2026-03-27T15:40:48Z</time></trkpt><trkpt lat="45.77076512401108" lon="9.740425663504489"><ele>811.0</ele><time>2026-03-27T15:40:49Z</time></trkpt><trkpt lat="45.770731867996965" lon="9.7405226067602"><ele>810.9999999999999</ele><time>2026-03-27T15:40:50Z</time></trkpt><trkpt lat="45.770696000267534" lon="9.740625479769813"><ele>811.0</ele><time>2026-03-27T15:40:51Z</time></trkpt><trkpt lat="45.77065208132754" lon="9.740729904179263"><ele>811.0</ele><time>2026-03-27T15:40:52Z</time></trkpt><trkpt lat="45.77061427572592" lon="9.740841957059208"><ele>811.0</ele><time>2026-03-27T15:40:53Z</time></trkpt><trkpt lat="45.770566270251315" lon="9.740957427996918"><ele>811.0</ele><time>2026-03-27T15:40:54Z</time></trkpt><trkpt lat="45.77051735107422" lon="9.741065062125704"><ele>811.0</ele><time>2026-03-27T15:40:55Z</time></trkpt><trkpt lat="45.77045584345919" lon="9.741166046863333"><ele>811.0</ele><time>2026-03-27T15:40:56Z</time></trkpt><trkpt lat="45.77037856280626" lon="9.741254233975683"><ele>815.0</ele><time>2026-03-27T15:40:57Z</time></trkpt><trkpt lat="45.77031136034852" lon="9.741348448960066"><ele>819.0</ele><time>2026-03-27T15:40:58Z</time></trkpt><trkpt lat="45.770276920601155" lon="9.74147785787766"><ele>823.0</ele><time>2026-03-27T15:40:59Z</time></trkpt><trkpt lat="45.7702538345513" lon="9.741624008349023"><ele>827.0</ele><time>2026-03-27T15:41:00Z</time></trkpt><trkpt lat="45.77022115942363" lon="9.74175369392356"><ele>831.0</ele><time>2026-03-27T15:41:01Z</time></trkpt><trkpt lat="45.77014257053238" lon="9.741858118545164"><ele>824.5999999999999</ele><time>2026-03-27T15:41:02Z</time></trkpt><trkpt lat="45.770039267795084" lon="9.7418984458043"><ele>818.2</ele><time>2026-03-27T15:41:03Z</time></trkpt><trkpt lat="45.76993606556702" lon="9.7419324992785"><ele>811.8</ele><time>2026-03-27T15:41:04Z</time></trkpt><trkpt lat="45.76984157955113" lon="9.741988952657803"><ele>805.4000000000001</ele><time>2026-03-27T15:41:05Z</time></trkpt><trkpt lat="45.76976547423116" lon="9.742079512177918"><ele>799.0</ele><time>2026-03-27T15:41:06Z</time></trkpt><trkpt lat="45.76969262518647" lon="9.742186984614111"><ele>799.0</ele><time>2026-03-27T15:41:07Z</time></trkpt><trkpt lat="45.76962267051771" lon="9.742294664304717"><ele>799.0</ele><time>2026-03-27T15:41:08Z</time></trkpt><trkpt lat="45.76955648813249" lon="9.742399441735738"><ele>799.0</ele><time>2026-03-27T15:41:09Z</time></trkpt><trkpt lat="45.76949675842301" lon="9.742524855013292"><ele>799.0</ele><time>2026-03-27T15:41:10Z</time></trkpt><trkpt lat="45.7694594530167" lon="9.742664267693536"><ele>799.0</ele><time>2026-03-27T15:41:11Z</time></trkpt><trkpt lat="45.76943763450069" lon="9.742807884002177"><ele>798.0</ele><time>2026-03-27T15:41:12Z</time></trkpt><trkpt lat="45.76943313819682" lon="9.7429738311653"><ele>797.0</ele><time>2026-03-27T15:41:13Z</time></trkpt><trkpt lat="45.769466463073705" lon="9.743118524285867"><ele>796.0</ele><time>2026-03-27T15:41:14Z</time></trkpt><trkpt lat="45.769530057605124" lon="9.743241804064066"><ele>795.0</ele><time>2026-03-27T15:41:15Z</time></trkpt><trkpt lat="45.76961027988656" lon="9.743363441581629"><ele>794.0</ele><time>2026-03-27T15:41:16Z</time></trkpt><trkpt lat="45.76968641009521" lon="9.74347122045723"><ele>789.8000000000001</ele><time>2026-03-27T15:41:17Z</time></trkpt><trkpt lat="45.76976497981562" lon="9.743583682734759"><ele>785.6</ele><time>2026-03-27T15:41:18Z</time></trkpt><trkpt lat="45.76984767244094" lon="9.743688437365632"><ele>781.4</ele><time>2026-03-27T15:41:19Z</time></trkpt><trkpt lat="45.76993885398837" lon="9.743783275186727"><ele>777.2</ele><time>2026-03-27T15:41:20Z</time></trkpt><trkpt lat="45.77002184836191" lon="9.74389471916361"><ele>773.0</ele><time>2026-03-27T15:41:21Z</time></trkpt><trkpt lat="45.7700796931245" lon="9.744035535111955"><ele>773.0</ele><time>2026-03-27T15:41:22Z</time></trkpt><trkpt lat="45.77009210965459" lon="9.744207642475391"><ele>773.0</ele><time>2026-03-27T15:41:23Z</time></trkpt><trkpt lat="45.77007345166658" lon="9.744382821301496"><ele>773.0</ele><time>2026-03-27T15:41:24Z</time></trkpt><trkpt lat="45.770103894048596" lon="9.744541306033652"><ele>773.0</ele><time>2026-03-27T15:41:25Z</time></trkpt><trkpt lat="45.77017382792328" lon="9.74468486917457"><ele>773.5999999999999</ele><time>2026-03-27T15:41:26Z</time></trkpt><trkpt lat="45.77025510691026" lon="9.74480887890887"><ele>774.1999999999999</ele><time>2026-03-27T15:41:27Z</time></trkpt><trkpt lat="45.77030450207104" lon="9.744940309896869"><ele>774.8</ele><time>2026-03-27T15:41:28Z</time></trkpt><trkpt lat="45.77032349438031" lon="9.745088265632514"><ele>775.4</ele><time>2026-03-27T15:41:29Z</time></trkpt><trkpt lat="45.7702999847902" lon="9.745243592892095"><ele>776.0</ele><time>2026-03-27T15:41:30Z</time></trkpt><trkpt lat="45.77025437793694" lon="9.745393206322786"><ele>770.25</ele><time>2026-03-27T15:41:31Z</time></trkpt><trkpt lat="45.77020195717153" lon="9.745535521688844"><ele>764.5</ele><time>2026-03-27T15:41:32Z</time></trkpt><trkpt lat="45.77014901601839" lon="9.745676452987855"><ele>758.75</ele><time>2026-03-27T15:41:33Z</time></trkpt><trkpt lat="45.77010018061792" lon="9.74582339465893"><ele>753.0</ele><time>2026-03-27T15:41:34Z</time></trkpt><trkpt lat="45.770024479824954" lon="9.745954537499287"><ele>749.5</ele><time>2026-03-27T15:41:35Z</time></trkpt><trkpt lat="45.769943284808384" lon="9.746062998269466"><ele>746.0</ele><time>2026-03-27T15:41:36Z</time></trkpt><trkpt lat="45.769847099487265" lon="9.746155217985583"><ele>742.5</ele><time>2026-03-27T15:41:37Z</time></trkpt><trkpt lat="45.76975565083545" lon="9.746249282116898"><ele>739.0</ele><time>2026-03-27T15:41:38Z</time></trkpt><trkpt lat="45.7696548690645" lon="9.746333012043081"><ele>739.0</ele><time>2026-03-27T15:41:39Z</time></trkpt><trkpt lat="45.76955737241673" lon="9.746420813141453"><ele>739.0</ele><time>2026-03-27T15:41:40Z</time></trkpt><trkpt lat="45.769467168395906" lon="9.746508036356591"><ele>739.0</ele><time>2026-03-27T15:41:41Z</time></trkpt><trkpt lat="45.76938868502189" lon="9.74657952484386"><ele>739.0</ele><time>2026-03-27T15:41:42Z</time></trkpt><trkpt lat="45.769326142340915" lon="9.746626914693524"><ele>739.0</ele><time>2026-03-27T15:41:43Z</time></trkpt><trkpt lat="45.7692482801809" lon="9.746593510561254"><ele>739.0</ele><time>2026-03-27T15:41:45Z</time></trkpt><trkpt lat="45.76928145561746" lon="9.746462429620438"><ele>739.0</ele><time>2026-03-27T15:41:47Z</time></trkpt><trkpt lat="45.76934284512077" lon="9.74644088434639"><ele>739.0</ele><time>2026-03-27T15:41:48Z</time></trkpt><trkpt lat="45.7694150646694" lon="9.746430402939884"><ele>739.0</ele><time>2026-03-27T15:41:49Z</time></trkpt><trkpt lat="45.76947879896372" lon="9.746382261188598"><ele>739.0</ele><time>2026-03-27T15:41:50Z</time></trkpt><trkpt lat="45.769538435264536" lon="9.746326897671238"><ele>739.0</ele><time>2026-03-27T15:41:51Z</time></trkpt><trkpt lat="45.769595745161595" lon="9.746262135422574"><ele>739.0</ele><time>2026-03-27T15:41:52Z</time></trkpt><trkpt lat="45.76965273169498" lon="9.746190619128242"><ele>739.0</ele><time>2026-03-27T15:41:53Z</time></trkpt><trkpt lat="45.76970260201834" lon="9.746105341969738"><ele>739.0</ele><time>2026-03-27T15:41:54Z</time></trkpt><trkpt lat="45.76975250638831" lon="9.746015299045112"><ele>739.0</ele><time>2026-03-27T15:41:55Z</time></trkpt><trkpt lat="45.769804889553065" lon="9.745923101425385"><ele>739.0</ele><time>2026-03-27T15:41:56Z</time></trkpt><trkpt lat="45.76985723480271" lon="9.745825478300219"><ele>739.0</ele><time>2026-03-27T15:41:57Z</time></trkpt><trkpt lat="45.76990041694492" lon="9.745715505313086"><ele>739.0</ele><time>2026-03-27T15:41:58Z</time></trkpt><trkpt lat="45.769933413777366" lon="9.745595347944734"><ele>741.8000000000001</ele><time>2026-03-27T15:41:59Z</time></trkpt><trkpt lat="45.76995705107654" lon="9.745467916564186"><ele>744.6</ele><time>2026-03-27T15:42:00Z</time></trkpt><trkpt lat="45.76997323274035" lon="9.745334812013104"><ele>747.4</ele><time>2026-03-27T15:42:01Z</time></trkpt><trkpt lat="45.76996036824051" lon="9.745201112637226"><ele>750.2</ele><time>2026-03-27T15:42:02Z</time></trkpt><trkpt lat="45.769904520228565" lon="9.745085781309438"><ele>753.0</ele><time>2026-03-27T15:42:03Z</time></trkpt><trkpt lat="45.76983047292308" lon="9.744990525335668"><ele>754.2</ele><time>2026-03-27T15:42:04Z</time></trkpt><trkpt lat="45.76975856258241" lon="9.74490797761153"><ele>755.4</ele><time>2026-03-27T15:42:05Z</time></trkpt><trkpt lat="45.76969305909457" lon="9.744809539884118"><ele>756.6</ele><time>2026-03-27T15:42:06Z</time></trkpt><trkpt lat="45.76964082744243" lon="9.744689487554362"><ele>757.8000000000001</ele><time>2026-03-27T15:42:07Z</time></trkpt><trkpt lat="45.76960294631781" lon="9.744559600168774"><ele>759.0</ele><time>2026-03-27T15:42:08Z</time></trkpt><trkpt lat="45.76957243503288" lon="9.744424569938626"><ele>761.8000000000001</ele><time>2026-03-27T15:42:09Z</time></trkpt><trkpt lat="45.76954133950246" lon="9.744293522281307"><ele>764.6</ele><time>2026-03-27T15:42:10Z</time></trkpt><trkpt lat="45.769494144304865" lon="9.744170893568203"><ele>767.4</ele><time>2026-03-27T15:42:11Z</time></trkpt><trkpt lat="45.76942198663447" lon="9.744069468215606"><ele>770.2</ele><time>2026-03-27T15:42:12Z</time></trkpt><trkpt lat="45.76933554626741" lon="9.74398818003639"><ele>773.0</ele><time>2026-03-27T15:42:13Z</time></trkpt><trkpt lat="45.769245276228915" lon="9.743914148219371"><ele>769.2</ele><time>2026-03-27T15:42:14Z</time></trkpt><trkpt lat="45.76916027586986" lon="9.743829784774189"><ele>765.4</ele><time>2026-03-27T15:42:15Z</time></trkpt><trkpt lat="45.769076960829054" lon="9.743745363475462"><ele>761.6</ele><time>2026-03-27T15:42:16Z</time></trkpt><trkpt lat="45.76899318316789" lon="9.743659365503355"><ele>757.8000000000001</ele><time>2026-03-27T15:42:17Z</time></trkpt><trkpt lat="45.76891295253748" lon="9.743565409929879"><ele>754.0</ele><time>2026-03-27T15:42:18Z</time></trkpt><trkpt lat="45.768847217025645" lon="9.743452702828497"><ele>754.0</ele><time>2026-03-27T15:42:19Z</time></trkpt><trkpt lat="45.76880336204197" lon="9.743322741585041"><ele>754.0</ele><time>2026-03-27T15:42:20Z</time></trkpt><trkpt lat="45.768779366784564" lon="9.743187023484936"><ele>754.0</ele><time>2026-03-27T15:42:21Z</time></trkpt><trkpt lat="45.76877825328726" lon="9.74304970908573"><ele>754.0</ele><time>2026-03-27T15:42:22Z</time></trkpt><trkpt lat="45.76880248110284" lon="9.742940782431056"><ele>754.0</ele><time>2026-03-27T15:42:23Z</time></trkpt><trkpt lat="45.7687082044645" lon="9.74283825284453"><ele>753.9999999999999</ele><time>2026-03-27T15:42:25Z</time></trkpt><trkpt lat="45.76865254486942" lon="9.742900584477958"><ele>754.0</ele><time>2026-03-27T15:42:26Z</time></trkpt><trkpt lat="45.7686363597844" lon="9.742997962072383"><ele>754.0</ele><time>2026-03-27T15:42:27Z</time></trkpt><trkpt lat="45.76865599472272" lon="9.743105227921648"><ele>754.0</ele><time>2026-03-27T15:42:28Z</time></trkpt><trkpt lat="45.768682827976654" lon="9.743194636243427"><ele>754.0</ele><time>2026-03-27T15:42:29Z</time></trkpt><trkpt lat="45.76868702621795" lon="9.74330193552219"><ele>753.9999999999999</ele><time>2026-03-27T15:42:30Z</time></trkpt><trkpt lat="45.76870208046275" lon="9.74341143359908"><ele>754.0</ele><time>2026-03-27T15:42:31Z</time></trkpt><trkpt lat="45.76872957471275" lon="9.743522169141482"><ele>750.8333333333334</ele><time>2026-03-27T15:42:32Z</time></trkpt><trkpt lat="45.76876429736656" lon="9.743629532673783"><ele>747.6666666666667</ele><time>2026-03-27T15:42:33Z</time></trkpt><trkpt lat="45.76881281331555" lon="9.743732819008795"><ele>744.5</ele><time>2026-03-27T15:42:34Z</time></trkpt><trkpt lat="45.768872985362506" lon="9.74382554907085"><ele>741.3333333333334</ele><time>2026-03-27T15:42:35Z</time></trkpt><trkpt lat="45.7689402479504" lon="9.74391824286655"><ele>738.1666666666666</ele><time>2026-03-27T15:42:36Z</time></trkpt><trkpt lat="45.76900666063064" lon="9.744011226114958"><ele>735.0</ele><time>2026-03-27T15:42:37Z</time></trkpt><trkpt lat="45.76907316053916" lon="9.744108826143357"><ele>735.0</ele><time>2026-03-27T15:42:38Z</time></trkpt><trkpt lat="45.76914619395523" lon="9.744201995821863"><ele>735.0</ele><time>2026-03-27T15:42:39Z</time></trkpt><trkpt lat="45.769216283413996" lon="9.744305098673998"><ele>735.0</ele><time>2026-03-27T15:42:40Z</time></trkpt><trkpt lat="45.76925732474418" lon="9.744429766025254"><ele>735.0</ele><time>2026-03-27T15:42:41Z</time></trkpt><trkpt lat="45.76927638523041" lon="9.74457535941391"><ele>735.0</ele><time>2026-03-27T15:42:42Z</time></trkpt><trkpt lat="45.76927885649067" lon="9.744719381573562"><ele>732.0</ele><time>2026-03-27T15:42:43Z</time></trkpt><trkpt lat="45.76929119690877" lon="9.744859310576544"><ele>729.0</ele><time>2026-03-27T15:42:44Z</time></trkpt><trkpt lat="45.76931268671319" lon="9.744997946060073"><ele>726.0</ele><time>2026-03-27T15:42:45Z</time></trkpt><trkpt lat="45.76934909016385" lon="9.745136598421706"><ele>723.0</ele><time>2026-03-27T15:42:46Z</time></trkpt><trkpt lat="45.76938442493792" lon="9.745268862552606"><ele>720.0</ele><time>2026-03-27T15:42:47Z</time></trkpt><trkpt lat="45.769386132354974" lon="9.74539932802123"><ele>721.8</ele><time>2026-03-27T15:42:48Z</time></trkpt><trkpt lat="45.76935645282526" lon="9.745523563819093"><ele>723.6</ele><time>2026-03-27T15:42:49Z</time></trkpt><trkpt lat="45.76928542002992" lon="9.745616762626039"><ele>725.4000000000001</ele><time>2026-03-27T15:42:50Z</time></trkpt><trkpt lat="45.76919056117536" lon="9.745669302727343"><ele>727.2</ele><time>2026-03-27T15:42:51Z</time></trkpt><trkpt lat="45.769104377091374" lon="9.745717040633032"><ele>729.0</ele><time>2026-03-27T15:42:52Z</time></trkpt><trkpt lat="45.769019522358185" lon="9.745781193513709"><ele>729.0</ele><time>2026-03-27T15:42:53Z</time></trkpt><trkpt lat="45.76893920916506" lon="9.745835983012249"><ele>729.0</ele><time>2026-03-27T15:42:54Z</time></trkpt><trkpt lat="45.76884189180569" lon="9.745889978825025"><ele>729.0</ele><time>2026-03-27T15:42:55Z</time></trkpt><trkpt lat="45.76874748017275" lon="9.745933037307859"><ele>729.0</ele><time>2026-03-27T15:42:56Z</time></trkpt><trkpt lat="45.768649554692736" lon="9.74597608158569"><ele>729.0</ele><time>2026-03-27T15:42:57Z</time></trkpt><trkpt lat="45.768553534938576" lon="9.746029284510916"><ele>726.4000000000001</ele><time>2026-03-27T15:42:58Z</time></trkpt><trkpt lat="45.768456824940245" lon="9.74608845063939"><ele>723.8</ele><time>2026-03-27T15:42:59Z</time></trkpt><trkpt lat="45.76836911871984" lon="9.746165724447138"><ele>721.2</ele><time>2026-03-27T15:43:00Z</time></trkpt><trkpt lat="45.76829089503587" lon="9.746275942613197"><ele>718.5999999999999</ele><time>2026-03-27T15:43:01Z</time></trkpt><trkpt lat="45.76824344643547" lon="9.74641112064185"><ele>716.0</ele><time>2026-03-27T15:43:02Z</time></trkpt><trkpt lat="45.76820186017761" lon="9.746576715174594"><ele>716.0</ele><time>2026-03-27T15:43:03Z</time></trkpt><trkpt lat="45.768172715216984" lon="9.746734561977872"><ele>716.0</ele><time>2026-03-27T15:43:04Z</time></trkpt><trkpt lat="45.76814428585603" lon="9.746894443553897"><ele>716.0</ele><time>2026-03-27T15:43:05Z</time></trkpt><trkpt lat="45.76811679569699" lon="9.747052010144875"><ele>716.0</ele><time>2026-03-27T15:43:06Z</time></trkpt><trkpt lat="45.76807891031408" lon="9.747220839785658"><ele>715.1999999999999</ele><time>2026-03-27T15:43:07Z</time></trkpt><trkpt lat="45.768044982595576" lon="9.747379105294614"><ele>714.4</ele><time>2026-03-27T15:43:08Z</time></trkpt><trkpt lat="45.76800717714001" lon="9.747536371191554"><ele>713.6</ele><time>2026-03-27T15:43:09Z</time></trkpt><trkpt lat="45.76797913951257" lon="9.747696191782541"><ele>712.8</ele><time>2026-03-27T15:43:10Z</time></trkpt><trkpt lat="45.76796340642473" lon="9.74782729632664"><ele>712.0</ele><time>2026-03-27T15:43:11Z</time></trkpt><trkpt lat="45.767957465574355" lon="9.747938063688599"><ele>712.0</ele><time>2026-03-27T15:43:12Z</time></trkpt><trkpt lat="45.76788824330204" lon="9.7479644219958"><ele>712.0</ele><time>2026-03-27T15:43:14Z</time></trkpt><trkpt lat="45.76785605438596" lon="9.747799736690505"><ele>712.0</ele><time>2026-03-27T15:43:16Z</time></trkpt><trkpt lat="45.767894078084126" lon="9.747697414181385"><ele>712.0</ele><time>2026-03-27T15:43:17Z</time></trkpt><trkpt lat="45.76792582317408" lon="9.747599016882983"><ele>712.0</ele><time>2026-03-27T15:43:18Z</time></trkpt><trkpt lat="45.76794935860684" lon="9.747502901744294"><ele>712.0</ele><time>2026-03-27T15:43:19Z</time></trkpt><trkpt lat="45.76797262255397" lon="9.74740255616533"><ele>712.6666666666667</ele><time>2026-03-27T15:43:20Z</time></trkpt><trkpt lat="45.767990235201594" lon="9.747295640970115"><ele>713.3333333333334</ele><time>2026-03-27T15:43:21Z</time></trkpt><trkpt lat="45.76800760012868" lon="9.747184783269285"><ele>714.0</ele><time>2026-03-27T15:43:22Z</time></trkpt><trkpt lat="45.76801725125381" lon="9.747070426521903"><ele>714.6666666666666</ele><time>2026-03-27T15:43:23Z</time></trkpt><trkpt lat="45.76802129433767" lon="9.746951681728776"><ele>715.3333333333333</ele><time>2026-03-27T15:43:24Z</time></trkpt><trkpt lat="45.76802540230787" lon="9.746827256006586"><ele>716.0</ele><time>2026-03-27T15:43:25Z</time></trkpt><trkpt lat="45.768033681370056" lon="9.746699379109815"><ele>716.0</ele><time>2026-03-27T15:43:26Z</time></trkpt><trkpt lat="45.7680497696179" lon="9.746572238579118"><ele>716.0</ele><time>2026-03-27T15:43:27Z</time></trkpt><trkpt lat="45.76806590186331" lon="9.746440508087977"><ele>716.0</ele><time>2026-03-27T15:43:28Z</time></trkpt><trkpt lat="45.768080909914275" lon="9.746305400506852"><ele>716.0</ele><time>2026-03-27T15:43:29Z</time></trkpt><trkpt lat="45.768107700672125" lon="9.746174902686688"><ele>716.0</ele><time>2026-03-27T15:43:30Z</time></trkpt><trkpt lat="45.76814797749364" lon="9.746045897184706"><ele>713.1999999999999</ele><time>2026-03-27T15:43:31Z</time></trkpt><trkpt lat="45.76820076945654" lon="9.745927774197458"><ele>710.4</ele><time>2026-03-27T15:43:32Z</time></trkpt><trkpt lat="45.76826880372" lon="9.745818334451847"><ele>707.6</ele><time>2026-03-27T15:43:33Z</time></trkpt><trkpt lat="45.76834798781019" lon="9.745724307178067"><ele>704.8</ele><time>2026-03-27T15:43:34Z</time></trkpt><trkpt lat="45.76842952781761" lon="9.745636983552647"><ele>702.0</ele><time>2026-03-27T15:43:35Z</time></trkpt><trkpt lat="45.76851363616263" lon="9.745552764735395"><ele>705.0</ele><time>2026-03-27T15:43:36Z</time></trkpt><trkpt lat="45.76859302151232" lon="9.745471745377209"><ele>708.0</ele><time>2026-03-27T15:43:37Z</time></trkpt><trkpt lat="45.768676273811714" lon="9.74540219343096"><ele>711.0</ele><time>2026-03-27T15:43:38Z</time></trkpt><trkpt lat="45.768746796383766" lon="9.74535131519105"><ele>714.0</ele><time>2026-03-27T15:43:39Z</time></trkpt><trkpt lat="45.76878739985103" lon="9.745270421320862"><ele>717.0</ele><time>2026-03-27T15:43:40Z</time></trkpt><trkpt lat="45.76878445395475" lon="9.745157270665963"><ele>720.0</ele><time>2026-03-27T15:43:41Z</time></trkpt><trkpt lat="45.76873626289276" lon="9.745038816206387"><ele>720.0</ele><time>2026-03-27T15:43:42Z</time></trkpt><trkpt lat="45.76868208012664" lon="9.744941006840767"><ele>720.0</ele><time>2026-03-27T15:43:43Z</time></trkpt><trkpt lat="45.7686397441988" lon="9.74484658395824"><ele>720.0</ele><time>2026-03-27T15:43:44Z</time></trkpt><trkpt lat="45.768574238062584" lon="9.744755406932187"><ele>720.0</ele><time>2026-03-27T15:43:45Z</time></trkpt><trkpt lat="45.768501361588164" lon="9.74467863641995"><ele>720.0</ele><time>2026-03-27T15:43:46Z</time></trkpt><trkpt lat="45.76842515393736" lon="9.744608537130569"><ele>720.0</ele><time>2026-03-27T15:43:47Z</time></trkpt><trkpt lat="45.76834989689801" lon="9.744507273516215"><ele>715.4</ele><time>2026-03-27T15:43:48Z</time></trkpt><trkpt lat="45.76827790354384" lon="9.744423156052918"><ele>710.8</ele><time>2026-03-27T15:43:49Z</time></trkpt><trkpt lat="45.76820534117699" lon="9.744330354751257"><ele>706.2</ele><time>2026-03-27T15:43:50Z</time></trkpt><trkpt lat="45.768136632010524" lon="9.74423450971606"><ele>701.6</ele><time>2026-03-27T15:43:51Z</time></trkpt><trkpt lat="45.76806134448763" lon="9.744140425719843"><ele>697.0</ele><time>2026-03-27T15:43:52Z</time></trkpt><trkpt lat="45.76799862355302" lon="9.74404359263551"><ele>697.0</ele><time>2026-03-27T15:43:53Z</time></trkpt><trkpt lat="45.767930312521564" lon="9.743944003797724"><ele>697.0</ele><time>2026-03-27T15:43:54Z</time></trkpt><trkpt lat="45.76788623443781" lon="9.743854257593673"><ele>697.0</ele><time>2026-03-27T15:43:55Z</time></trkpt><trkpt lat="45.767862261460614" lon="9.743745231907592"><ele>697.0</ele><time>2026-03-27T15:43:56Z</time></trkpt><trkpt lat="45.76787249148572" lon="9.74362701943365"><ele>697.0</ele><time>2026-03-27T15:43:57Z</time></trkpt><trkpt lat="45.76789090067819" lon="9.743527621552648"><ele>697.0</ele><time>2026-03-27T15:43:58Z</time></trkpt><trkpt lat="45.76779441489647" lon="9.743456787538703"><ele>697.0</ele><time>2026-03-27T15:44:00Z</time></trkpt><trkpt lat="45.76773426667148" lon="9.743532342170084"><ele>697.0</ele><time>2026-03-27T15:44:01Z</time></trkpt><trkpt lat="45.767724341099054" lon="9.74365944381443"><ele>697.0</ele><time>2026-03-27T15:44:02Z</time></trkpt><trkpt lat="45.7677439935969" lon="9.743761153941445"><ele>697.0</ele><time>2026-03-27T15:44:03Z</time></trkpt><trkpt lat="45.767768834380256" lon="9.743867969462212"><ele>697.0</ele><time>2026-03-27T15:44:04Z</time></trkpt><trkpt lat="45.76779807197737" lon="9.743976279594369"><ele>697.0</ele><time>2026-03-27T15:44:05Z</time></trkpt><trkpt lat="45.76784071535791" lon="9.744078605957018"><ele>697.0</ele><time>2026-03-27T15:44:06Z</time></trkpt><trkpt lat="45.76787913538293" lon="9.744188672776158"><ele>697.0</ele><time>2026-03-27T15:44:07Z</time></trkpt><trkpt lat="45.767922685288106" lon="9.74430023345614"><ele>697.0</ele><time>2026-03-27T15:44:08Z</time></trkpt><trkpt lat="45.76796856562745" lon="9.74441109644"><ele>697.0</ele><time>2026-03-27T15:44:09Z</time></trkpt><trkpt lat="45.76802140338284" lon="9.74451877063217"><ele>697.0</ele><time>2026-03-27T15:44:10Z</time></trkpt><trkpt lat="45.768081586457974" lon="9.744630873941448"><ele>695.3333333333334</ele><time>2026-03-27T15:44:11Z</time></trkpt><trkpt lat="45.768148563115204" lon="9.744737196819967"><ele>693.6666666666667</ele><time>2026-03-27T15:44:12Z</time></trkpt><trkpt lat="45.768217776234444" lon="9.744839527011095"><ele>692.0</ele><time>2026-03-27T15:44:13Z</time></trkpt><trkpt lat="45.76826610634276" lon="9.744939603283223"><ele>690.3333333333334</ele><time>2026-03-27T15:44:14Z</time></trkpt><trkpt lat="45.76829153233539" lon="9.745038154464584"><ele>688.6666666666666</ele><time>2026-03-27T15:44:15Z</time></trkpt><trkpt lat="45.76826546681653" lon="9.745129070573801"><ele>687.0</ele><time>2026-03-27T15:44:16Z</time></trkpt><trkpt lat="45.76819174152905" lon="9.745196409585676"><ele>689.5</ele><time>2026-03-27T15:44:17Z</time></trkpt><trkpt lat="45.76812132439853" lon="9.745229861497048"><ele>692.0</ele><time>2026-03-27T15:44:18Z</time></trkpt><trkpt lat="45.768050155343964" lon="9.745279112704768"><ele>694.5</ele><time>2026-03-27T15:44:19Z</time></trkpt><trkpt lat="45.76798479618322" lon="9.745347659658238"><ele>697.0</ele><time>2026-03-27T15:44:20Z</time></trkpt><trkpt lat="45.76792336114971" lon="9.745433060942556"><ele>699.5</ele><time>2026-03-27T15:44:21Z</time></trkpt><trkpt lat="45.76787717169568" lon="9.745536611194192"><ele>702.0</ele><time>2026-03-27T15:44:22Z</time></trkpt><trkpt lat="45.76781988139697" lon="9.745638435850635"><ele>702.0</ele><time>2026-03-27T15:44:23Z</time></trkpt><trkpt lat="45.76777353741456" lon="9.745749049159945"><ele>702.0</ele><time>2026-03-27T15:44:24Z</time></trkpt><trkpt lat="45.76772875114322" lon="9.745864180027944"><ele>702.0</ele><time>2026-03-27T15:44:25Z</time></trkpt><trkpt lat="45.76767363235246" lon="9.745969010849603"><ele>702.0</ele><time>2026-03-27T15:44:26Z</time></trkpt><trkpt lat="45.76762396413192" lon="9.746089330854211"><ele>702.0</ele><time>2026-03-27T15:44:27Z</time></trkpt><trkpt lat="45.76757893359241" lon="9.746209789794623"><ele>697.6</ele><time>2026-03-27T15:44:28Z</time></trkpt><trkpt lat="45.76753432677693" lon="9.746343434942725"><ele>693.2</ele><time>2026-03-27T15:44:29Z</time></trkpt><trkpt lat="45.76750488464783" lon="9.746483354276819"><ele>688.8</ele><time>2026-03-27T15:44:30Z</time></trkpt><trkpt lat="45.76748456616762" lon="9.746629455402445"><ele>684.4</ele><time>2026-03-27T15:44:31Z</time></trkpt><trkpt lat="45.767469565116635" lon="9.746779795903382"><ele>680.0</ele><time>2026-03-27T15:44:32Z</time></trkpt><trkpt lat="45.76744799628295" lon="9.746933399820922"><ele>680.0</ele><time>2026-03-27T15:44:33Z</time></trkpt><trkpt lat="45.76741901308709" lon="9.747082074246164"><ele>680.0</ele><time>2026-03-27T15:44:34Z</time></trkpt><trkpt lat="45.76737157490224" lon="9.747220775145708"><ele>680.0</ele><time>2026-03-27T15:44:35Z</time></trkpt><trkpt lat="45.76731203965267" lon="9.74734739124711"><ele>680.0</ele><time>2026-03-27T15:44:36Z</time></trkpt><trkpt lat="45.76725084774385" lon="9.747473350199401"><ele>680.0</ele><time>2026-03-27T15:44:37Z</time></trkpt><trkpt lat="45.76718506608565" lon="9.747603891199851"><ele>679.2</ele><time>2026-03-27T15:44:38Z</time></trkpt><trkpt lat="45.76713397289603" lon="9.747735338527258"><ele>678.4</ele><time>2026-03-27T15:44:39Z</time></trkpt><trkpt lat="45.767091162754305" lon="9.747871281587646"><ele>677.5999999999999</ele><time>2026-03-27T15:44:40Z</time></trkpt><trkpt lat="45.76707271563811" lon="9.74801443107223"><ele>676.8</ele><time>2026-03-27T15:44:41Z</time></trkpt><trkpt lat="45.76708079511517" lon="9.748157894169655"><ele>676.0</ele><time>2026-03-27T15:44:42Z</time></trkpt><trkpt lat="45.76711934852056" lon="9.748288570925725"><ele>676.0</ele><time>2026-03-27T15:44:43Z</time></trkpt><trkpt lat="45.767149542942974" lon="9.74840385127609"><ele>676.0</ele><time>2026-03-27T15:44:44Z</time></trkpt><trkpt lat="45.76713255953305" lon="9.7484979335969"><ele>676.0</ele><time>2026-03-27T15:44:45Z</time></trkpt><trkpt lat="45.76700796909211" lon="9.748541054484235"><ele>676.0</ele><time>2026-03-27T15:44:47Z</time></trkpt><trkpt lat="45.766945943484544" lon="9.748430545079124"><ele>676.0</ele><time>2026-03-27T15:44:48Z</time></trkpt><trkpt lat="45.76693953531357" lon="9.748313182354648"><ele>676.0</ele><time>2026-03-27T15:44:49Z</time></trkpt><trkpt lat="45.766969277616504" lon="9.748205366957404"><ele>676.0</ele><time>2026-03-27T15:44:50Z</time></trkpt><trkpt lat="45.76699725660695" lon="9.74810625871436"><ele>676.0</ele><time>2026-03-27T15:44:51Z</time></trkpt><trkpt lat="45.767019393192186" lon="9.748005554981226"><ele>676.0</ele><time>2026-03-27T15:44:52Z</time></trkpt><trkpt lat="45.76703159727826" lon="9.747897692659873"><ele>676.0</ele><time>2026-03-27T15:44:53Z</time></trkpt><trkpt lat="45.767051154010225" lon="9.747783515240393"><ele>676.0</ele><time>2026-03-27T15:44:54Z</time></trkpt><trkpt lat="45.76707004045466" lon="9.747667730853225"><ele>676.6666666666667</ele><time>2026-03-27T15:44:55Z</time></trkpt><trkpt lat="45.767098158197186" lon="9.747549197037138"><ele>677.3333333333334</ele><time>2026-03-27T15:44:56Z</time></trkpt><trkpt lat="45.76713226890451" lon="9.747436968690108"><ele>678.0</ele><time>2026-03-27T15:44:57Z</time></trkpt><trkpt lat="45.76714960055236" lon="9.747329853496378"><ele>678.6666666666666</ele><time>2026-03-27T15:44:58Z</time></trkpt><trkpt lat="45.76718012740221" lon="9.747193780975373"><ele>679.3333333333333</ele><time>2026-03-27T15:44:59Z</time></trkpt><trkpt lat="45.76722020914617" lon="9.747078178202848"><ele>680.0</ele><time>2026-03-27T15:45:00Z</time></trkpt><trkpt lat="45.767247267948235" lon="9.746954716508055"><ele>678.2</ele><time>2026-03-27T15:45:01Z</time></trkpt><trkpt lat="45.76726575274098" lon="9.746824102849317"><ele>676.4</ele><time>2026-03-27T15:45:02Z</time></trkpt><trkpt lat="45.76727289386048" lon="9.746694979021248"><ele>674.5999999999999</ele><time>2026-03-27T15:45:03Z</time></trkpt><trkpt lat="45.767272381737136" lon="9.746561228004152"><ele>672.8</ele><time>2026-03-27T15:45:04Z</time></trkpt><trkpt lat="45.767269317341906" lon="9.746426341903865"><ele>671.0</ele><time>2026-03-27T15:45:05Z</time></trkpt><trkpt lat="45.76726446513919" lon="9.74629011084627"><ele>671.0</ele><time>2026-03-27T15:45:06Z</time></trkpt><trkpt lat="45.76725502522608" lon="9.746151850506571"><ele>671.0</ele><time>2026-03-27T15:45:07Z</time></trkpt><trkpt lat="45.7672443273212" lon="9.746015894660259"><ele>671.0</ele><time>2026-03-27T15:45:08Z</time></trkpt><trkpt lat="45.76722490836292" lon="9.745877480937365"><ele>671.0</ele><time>2026-03-27T15:45:09Z</time></trkpt><trkpt lat="45.76721242684199" lon="9.74574164911194"><ele>671.0</ele><time>2026-03-27T15:45:10Z</time></trkpt><trkpt lat="45.76720217306112" lon="9.745599274519998"><ele>669.5999999999999</ele><time>2026-03-27T15:45:11Z</time></trkpt><trkpt lat="45.76719178067821" lon="9.745460460821008"><ele>668.2</ele><time>2026-03-27T15:45:12Z</time></trkpt><trkpt lat="45.76717327816673" lon="9.745324385712474"><ele>666.8</ele><time>2026-03-27T15:45:13Z</time></trkpt><trkpt lat="45.767146892550784" lon="9.745190195387009"><ele>665.4000000000001</ele><time>2026-03-27T15:45:14Z</time></trkpt><trkpt lat="45.767106183479356" lon="9.745062922251801"><ele>664.0</ele><time>2026-03-27T15:45:15Z</time></trkpt><trkpt lat="45.767062379184054" lon="9.744938584330281"><ele>663.6</ele><time>2026-03-27T15:45:16Z</time></trkpt><trkpt lat="45.7670234155831" lon="9.744812847629127"><ele>663.2</ele><time>2026-03-27T15:45:17Z</time></trkpt><trkpt lat="45.76701242041006" lon="9.744661819810599"><ele>662.8000000000001</ele><time>2026-03-27T15:45:18Z</time></trkpt><trkpt lat="45.767018086630216" lon="9.744519385372199"><ele>662.4000000000001</ele><time>2026-03-27T15:45:19Z</time></trkpt><trkpt lat="45.76703856365228" lon="9.744378832461225"><ele>662.0</ele><time>2026-03-27T15:45:20Z</time></trkpt><trkpt lat="45.767052330894145" lon="9.744250103468733"><ele>662.0</ele><time>2026-03-27T15:45:21Z</time></trkpt><trkpt lat="45.76706500820054" lon="9.744150096722022"><ele>662.0</ele><time>2026-03-27T15:45:22Z</time></trkpt><trkpt lat="45.766982015572644" lon="9.744056318550994"><ele>662.0</ele><time>2026-03-27T15:45:24Z</time></trkpt><trkpt lat="45.766918000842495" lon="9.744099188025"><ele>662.0</ele><time>2026-03-27T15:45:25Z</time></trkpt><trkpt lat="45.76688430730702" lon="9.744199128051518"><ele>662.0</ele><time>2026-03-27T15:45:26Z</time></trkpt><trkpt lat="45.766890701960904" lon="9.744315738942674"><ele>662.0</ele><time>2026-03-27T15:45:27Z</time></trkpt><trkpt lat="45.76690826840416" lon="9.744426344679566"><ele>661.1666666666666</ele><time>2026-03-27T15:45:28Z</time></trkpt><trkpt lat="45.76692103862454" lon="9.744548416206793"><ele>660.3333333333333</ele><time>2026-03-27T15:45:29Z</time></trkpt><trkpt lat="45.76692579433983" lon="9.744657587755208"><ele>659.5</ele><time>2026-03-27T15:45:30Z</time></trkpt><trkpt lat="45.76691832825563" lon="9.74477413009754"><ele>658.6666666666666</ele><time>2026-03-27T15:45:31Z</time></trkpt><trkpt lat="45.766919077975864" lon="9.744898817909354"><ele>657.8333333333334</ele><time>2026-03-27T15:45:32Z</time></trkpt><trkpt lat="45.76692694604906" lon="9.745020475635908"><ele>657.0</ele><time>2026-03-27T15:45:33Z</time></trkpt><trkpt lat="45.76694660712551" lon="9.745147742769582"><ele>658.4000000000001</ele><time>2026-03-27T15:45:34Z</time></trkpt><trkpt lat="45.76695206213636" lon="9.745287533869268"><ele>659.8000000000001</ele><time>2026-03-27T15:45:35Z</time></trkpt><trkpt lat="45.7669231640165" lon="9.74542308173605"><ele>661.2</ele><time>2026-03-27T15:45:36Z</time></trkpt><trkpt lat="45.76687658549956" lon="9.745536197388555"><ele>662.6</ele><time>2026-03-27T15:45:37Z</time></trkpt><trkpt lat="45.766834837425506" lon="9.745662797574912"><ele>664.0</ele><time>2026-03-27T15:45:38Z</time></trkpt><trkpt lat="45.766839052190456" lon="9.745811390807294"><ele>665.4000000000001</ele><time>2026-03-27T15:45:39Z</time></trkpt><trkpt lat="45.76685228941556" lon="9.745951480553789"><ele>666.8</ele><time>2026-03-27T15:45:40Z</time></trkpt><trkpt lat="45.7668730231217" lon="9.746106731182746"><ele>668.2</ele><time>2026-03-27T15:45:41Z</time></trkpt><trkpt lat="45.76688370448319" lon="9.746256693181227"><ele>669.5999999999999</ele><time>2026-03-27T15:45:42Z</time></trkpt><trkpt lat="45.76685978814883" lon="9.746411450600872"><ele>671.0</ele><time>2026-03-27T15:45:43Z</time></trkpt><trkpt lat="45.76682656659915" lon="9.746566179103926"><ele>661.8</ele><time>2026-03-27T15:45:44Z</time></trkpt><trkpt lat="45.76679345928684" lon="9.746718832204463"><ele>652.5999999999999</ele><time>2026-03-27T15:45:45Z</time></trkpt><trkpt lat="45.76676707499754" lon="9.746866274782183"><ele>643.4</ele><time>2026-03-27T15:45:46Z</time></trkpt><trkpt lat="45.766736788333" lon="9.747011452587188"><ele>634.2</ele><time>2026-03-27T15:45:47Z</time></trkpt><trkpt lat="45.76670065491598" lon="9.747150382381504"><ele>625.0</ele><time>2026-03-27T15:45:48Z</time></trkpt><trkpt lat="45.76666442309288" lon="9.7472872560598"><ele>625.0</ele><time>2026-03-27T15:45:49Z</time></trkpt><trkpt lat="45.76663631861616" lon="9.747425789107233"><ele>625.0</ele><time>2026-03-27T15:45:50Z</time></trkpt><trkpt lat="45.76661242376649" lon="9.747563730801193"><ele>625.0</ele><time>2026-03-27T15:45:51Z</time></trkpt><trkpt lat="45.76659730754616" lon="9.747708355986177"><ele>625.0</ele><time>2026-03-27T15:45:52Z</time></trkpt><trkpt lat="45.76659250810166" lon="9.747855650286212"><ele>625.0</ele><time>2026-03-27T15:45:53Z</time></trkpt><trkpt lat="45.76659287536207" lon="9.74800515269791"><ele>626.0</ele><time>2026-03-27T15:45:54.001Z</time></trkpt><trkpt lat="45.76658403675643" lon="9.748156355678146"><ele>627.0</ele><time>2026-03-27T15:45:55.001Z</time></trkpt><trkpt lat="45.76656387971817" lon="9.748308066550996"><ele>628.0</ele><time>2026-03-27T15:45:56.001Z</time></trkpt><trkpt lat="45.76654076514455" lon="9.74845059918933"><ele>629.0</ele><time>2026-03-27T15:45:57.001Z</time></trkpt><trkpt lat="45.766527380395615" lon="9.748584717231276"><ele>630.0</ele><time>2026-03-27T15:45:58.001Z</time></trkpt><trkpt lat="45.76652653145455" lon="9.748701532169653"><ele>630.0</ele><time>2026-03-27T15:45:59.001Z</time></trkpt><trkpt lat="45.766534191237874" lon="9.748794354452697"><ele>630.0</ele><time>2026-03-27T15:46:00.001Z</time></trkpt><trkpt lat="45.76647282013069" lon="9.748888361309689"><ele>630.0</ele><time>2026-03-27T15:46:02Z</time></trkpt><trkpt lat="45.76641355824453" lon="9.748857315528252"><ele>630.0</ele><time>2026-03-27T15:46:03Z</time></trkpt><trkpt lat="45.76639589527523" lon="9.748760221564101"><ele>630.0</ele><time>2026-03-27T15:46:04Z</time></trkpt><trkpt lat="45.76642142021046" lon="9.748652701917417"><ele>630.0</ele><time>2026-03-27T15:46:05Z</time></trkpt><trkpt lat="45.76644280889025" lon="9.748549843794509"><ele>630.0</ele><time>2026-03-27T15:46:06Z</time></trkpt><trkpt lat="45.766457709865186" lon="9.748448662287927"><ele>630.0</ele><time>2026-03-27T15:46:07Z</time></trkpt><trkpt lat="45.766479850244174" lon="9.74834986750722"><ele>630.0</ele><time>2026-03-27T15:46:08Z</time></trkpt><trkpt lat="45.76650426285749" lon="9.748250678537127"><ele>630.0</ele><time>2026-03-27T15:46:09Z</time></trkpt><trkpt lat="45.76652010933708" lon="9.74814472349754"><ele>630.0</ele><time>2026-03-27T15:46:10Z</time></trkpt><trkpt lat="45.76652379101241" lon="9.74803294655336"><ele>630.0</ele><time>2026-03-27T15:46:11Z</time></trkpt><trkpt lat="45.76651680707685" lon="9.747919273487792"><ele>630.0</ele><time>2026-03-27T15:46:12Z</time></trkpt><trkpt lat="45.766503200371915" lon="9.747806992901106"><ele>629.1666666666666</ele><time>2026-03-27T15:46:13Z</time></trkpt><trkpt lat="45.76649274257592" lon="9.747693158401544"><ele>628.3333333333334</ele><time>2026-03-27T15:46:14Z</time></trkpt><trkpt lat="45.76648550060699" lon="9.747583534739054"><ele>627.5</ele><time>2026-03-27T15:46:15Z</time></trkpt><trkpt lat="45.766486221867666" lon="9.747453260195785"><ele>626.6666666666667</ele><time>2026-03-27T15:46:16Z</time></trkpt><trkpt lat="45.76648883174155" lon="9.747326707680365"><ele>625.8333333333334</ele><time>2026-03-27T15:46:17Z</time></trkpt><trkpt lat="45.766491887649906" lon="9.747202340885552"><ele>625.0</ele><time>2026-03-27T15:46:18Z</time></trkpt><trkpt lat="45.766505708546354" lon="9.747069037147906"><ele>625.0</ele><time>2026-03-27T15:46:19Z</time></trkpt><trkpt lat="45.76652002213345" lon="9.746934377733004"><ele>625.0</ele><time>2026-03-27T15:46:20Z</time></trkpt><trkpt lat="45.76655329565512" lon="9.74680982927557"><ele>625.0</ele><time>2026-03-27T15:46:21Z</time></trkpt><trkpt lat="45.76659850486376" lon="9.746683087442692"><ele>625.0</ele><time>2026-03-27T15:46:22Z</time></trkpt><trkpt lat="45.76662578169569" lon="9.746555630166265"><ele>625.0</ele><time>2026-03-27T15:46:23Z</time></trkpt><trkpt lat="45.76662081559583" lon="9.746417146074663"><ele>624.2</ele><time>2026-03-27T15:46:24Z</time></trkpt><trkpt lat="45.76659091476289" lon="9.746282908794553"><ele>623.4</ele><time>2026-03-27T15:46:25Z</time></trkpt><trkpt lat="45.766554211544296" lon="9.746156310753591"><ele>622.6</ele><time>2026-03-27T15:46:26Z</time></trkpt><trkpt lat="45.766522711205766" lon="9.746023820392743"><ele>621.8</ele><time>2026-03-27T15:46:27Z</time></trkpt><trkpt lat="45.766494353106154" lon="9.74588619438889"><ele>621.0</ele><time>2026-03-27T15:46:28Z</time></trkpt><trkpt lat="45.76647122849193" lon="9.745749931310627"><ele>620.6</ele><time>2026-03-27T15:46:29Z</time></trkpt><trkpt lat="45.76645537981552" lon="9.745608092913017"><ele>620.2</ele><time>2026-03-27T15:46:30Z</time></trkpt><trkpt lat="45.76645928373757" lon="9.74546336949549"><ele>619.8</ele><time>2026-03-27T15:46:31Z</time></trkpt><trkpt lat="45.766487950438034" lon="9.745319995376631"><ele>619.4</ele><time>2026-03-27T15:46:32Z</time></trkpt><trkpt lat="45.76650184393408" lon="9.745173883184087"><ele>619.0</ele><time>2026-03-27T15:46:33Z</time></trkpt><trkpt lat="45.766467951722014" lon="9.745028436950127"><ele>618.8333333333334</ele><time>2026-03-27T15:46:34Z</time></trkpt><trkpt lat="45.76641968673631" lon="9.744888455786509"><ele>618.6666666666667</ele><time>2026-03-27T15:46:35Z</time></trkpt><trkpt lat="45.76637792204515" lon="9.744755431728688"><ele>618.5</ele><time>2026-03-27T15:46:36Z</time></trkpt><trkpt lat="45.766364935978515" lon="9.744624765596987"><ele>618.3333333333334</ele><time>2026-03-27T15:46:37Z</time></trkpt><trkpt lat="45.766390705010295" lon="9.744514695727123"><ele>618.1666666666666</ele><time>2026-03-27T15:46:38Z</time></trkpt><trkpt lat="45.766400243591896" lon="9.744422662523597"><ele>618.0</ele><time>2026-03-27T15:46:39Z</time></trkpt><trkpt lat="45.76628537003794" lon="9.744367497945584"><ele>618.0</ele><time>2026-03-27T15:46:41Z</time></trkpt><trkpt lat="45.76623126192671" lon="9.74444608767725"><ele>618.0</ele><time>2026-03-27T15:46:42Z</time></trkpt><trkpt lat="45.766219761413716" lon="9.74456657967639"><ele>618.0</ele><time>2026-03-27T15:46:43Z</time></trkpt><trkpt lat="45.76622877061363" lon="9.744685200502303"><ele>618.0</ele><time>2026-03-27T15:46:44Z</time></trkpt><trkpt lat="45.76624376621006" lon="9.744794550132953"><ele>618.0</ele><time>2026-03-27T15:46:45Z</time></trkpt><trkpt lat="45.76627365007361" lon="9.744905704066358"><ele>618.0</ele><time>2026-03-27T15:46:46Z</time></trkpt><trkpt lat="45.766315699118394" lon="9.745014932654662"><ele>618.0</ele><time>2026-03-27T15:46:47Z</time></trkpt><trkpt lat="45.76635986756349" lon="9.745121475189796"><ele>618.0</ele><time>2026-03-27T15:46:48Z</time></trkpt><trkpt lat="45.76637020864904" lon="9.7452576251918"><ele>618.0</ele><time>2026-03-27T15:46:49Z</time></trkpt><trkpt lat="45.766346210506455" lon="9.745392762946718"><ele>618.0</ele><time>2026-03-27T15:46:50Z</time></trkpt><trkpt lat="45.7662927332738" lon="9.745514885091414"><ele>618.0</ele><time>2026-03-27T15:46:51Z</time></trkpt><trkpt lat="45.7662598077935" lon="9.74563578081682"><ele>618.1999999999999</ele><time>2026-03-27T15:46:52Z</time></trkpt><trkpt lat="45.76625652822826" lon="9.74577218549897"><ele>618.4</ele><time>2026-03-27T15:46:53Z</time></trkpt><trkpt lat="45.76626371565726" lon="9.745906520158401"><ele>618.5999999999999</ele><time>2026-03-27T15:46:54Z</time></trkpt><trkpt lat="45.766268618158435" lon="9.746043733533417"><ele>618.8</ele><time>2026-03-27T15:46:55Z</time></trkpt><trkpt lat="45.76627094601213" lon="9.746181646261183"><ele>619.0</ele><time>2026-03-27T15:46:56Z</time></trkpt><trkpt lat="45.766272502308695" lon="9.746320419860233"><ele>619.4</ele><time>2026-03-27T15:46:57Z</time></trkpt><trkpt lat="45.76626774440831" lon="9.746464284953964"><ele>619.8</ele><time>2026-03-27T15:46:58Z</time></trkpt><trkpt lat="45.76623595922782" lon="9.746599449786595"><ele>620.2</ele><time>2026-03-27T15:46:59Z</time></trkpt><trkpt lat="45.76617629835751" lon="9.746728658918267"><ele>620.6</ele><time>2026-03-27T15:47:00Z</time></trkpt><trkpt lat="45.766115847540554" lon="9.74685171601969"><ele>621.0</ele><time>2026-03-27T15:47:01Z</time></trkpt><trkpt lat="45.76607042543334" lon="9.746992590943806"><ele>621.8</ele><time>2026-03-27T15:47:02Z</time></trkpt><trkpt lat="45.766046742147495" lon="9.74713761855431"><ele>622.6</ele><time>2026-03-27T15:47:03Z</time></trkpt><trkpt lat="45.76602825117683" lon="9.747287574012313"><ele>623.4</ele><time>2026-03-27T15:47:04Z</time></trkpt><trkpt lat="45.766021344392634" lon="9.747441800682624"><ele>624.2</ele><time>2026-03-27T15:47:05Z</time></trkpt><trkpt lat="45.766026908538656" lon="9.747596364649864"><ele>625.0</ele><time>2026-03-27T15:47:06Z</time></trkpt><trkpt lat="45.76604182799701" lon="9.747759826184524"><ele>626.25</ele><time>2026-03-27T15:47:07Z</time></trkpt><trkpt lat="45.76607130744842" lon="9.747912022674223"><ele>627.5</ele><time>2026-03-27T15:47:08Z</time></trkpt><trkpt lat="45.76609168735437" lon="9.748064623942108"><ele>628.75</ele><time>2026-03-27T15:47:09Z</time></trkpt><trkpt lat="45.76603197461672" lon="9.74822174299139"><ele>630.0</ele><time>2026-03-27T15:47:10Z</time></trkpt><trkpt lat="45.76598503950683" lon="9.748377107373422"><ele>618.6</ele><time>2026-03-27T15:47:11Z</time></trkpt><trkpt lat="45.76596226872331" lon="9.748526593410263"><ele>607.2</ele><time>2026-03-27T15:47:12Z</time></trkpt><trkpt lat="45.76595466131976" lon="9.748685849446979"><ele>595.8</ele><time>2026-03-27T15:47:13Z</time></trkpt><trkpt lat="45.765952297994296" lon="9.748841016999686"><ele>584.4</ele><time>2026-03-27T15:47:14Z</time></trkpt><trkpt lat="45.765953593488625" lon="9.74898005107441"><ele>573.0</ele><time>2026-03-27T15:47:15Z</time></trkpt><trkpt lat="45.76596514008805" lon="9.749108144699942"><ele>573.0</ele><time>2026-03-27T15:47:16Z</time></trkpt><trkpt lat="45.765993783835654" lon="9.749215795155528"><ele>573.0</ele><time>2026-03-27T15:47:17Z</time></trkpt><trkpt lat="45.766043005057014" lon="9.749295097114706"><ele>573.0</ele><time>2026-03-27T15:47:18Z</time></trkpt><trkpt lat="45.76609493653806" lon="9.749347215018414"><ele>573.0</ele><time>2026-03-27T15:47:19Z</time></trkpt><trkpt lat="45.766045294695935" lon="9.749445020840273"><ele>573.0</ele><time>2026-03-27T15:47:21Z</time></trkpt><trkpt lat="45.76597816022219" lon="9.74940723298483"><ele>573.0</ele><time>2026-03-27T15:47:22Z</time></trkpt><trkpt lat="45.76593139401477" lon="9.749301101297782"><ele>572.0</ele><time>2026-03-27T15:47:23Z</time></trkpt><trkpt lat="45.76591146991763" lon="9.749199861135462"><ele>571.0</ele><time>2026-03-27T15:47:24Z</time></trkpt><trkpt lat="45.76589958416307" lon="9.74909477949355"><ele>570.0</ele><time>2026-03-27T15:47:25Z</time></trkpt><trkpt lat="45.76589530606751" lon="9.74898397873281"><ele>569.0</ele><time>2026-03-27T15:47:26Z</time></trkpt><trkpt lat="45.76589136910034" lon="9.74886764778425"><ele>568.0</ele><time>2026-03-27T15:47:27Z</time></trkpt><trkpt lat="45.76589945596864" lon="9.748750929866247"><ele>567.0</ele><time>2026-03-27T15:47:28Z</time></trkpt><trkpt lat="45.76591924247268" lon="9.748631744641978"><ele>568.2</ele><time>2026-03-27T15:47:29Z</time></trkpt><trkpt lat="45.765873119929886" lon="9.74849889030289"><ele>569.4000000000001</ele><time>2026-03-27T15:47:30Z</time></trkpt><trkpt lat="45.765841081431155" lon="9.74837175146804"><ele>570.5999999999999</ele><time>2026-03-27T15:47:31Z</time></trkpt><trkpt lat="45.76585349802054" lon="9.748251966471598"><ele>571.8</ele><time>2026-03-27T15:47:32Z</time></trkpt><trkpt lat="45.765870781369806" lon="9.748114540765794"><ele>573.0</ele><time>2026-03-27T15:47:33Z</time></trkpt><trkpt lat="45.765898179700685" lon="9.747985807891725"><ele>573.0</ele><time>2026-03-27T15:47:34Z</time></trkpt><trkpt lat="45.765896423712434" lon="9.747849715354858"><ele>573.0</ele><time>2026-03-27T15:47:35Z</time></trkpt><trkpt lat="45.765868883584766" lon="9.747720982728355"><ele>573.0</ele><time>2026-03-27T15:47:36Z</time></trkpt><trkpt lat="45.76583352324914" lon="9.747596946764606"><ele>573.0</ele><time>2026-03-27T15:47:37Z</time></trkpt><trkpt lat="45.76580078509828" lon="9.747474985926374"><ele>573.0</ele><time>2026-03-27T15:47:38Z</time></trkpt><trkpt lat="45.76576849604243" lon="9.747348961144858"><ele>572.8</ele><time>2026-03-27T15:47:39Z</time></trkpt><trkpt lat="45.76574231200866" lon="9.747223919403227"><ele>572.5999999999999</ele><time>2026-03-27T15:47:40Z</time></trkpt><trkpt lat="45.765733510229126" lon="9.747087714197717"><ele>572.4000000000001</ele><time>2026-03-27T15:47:41Z</time></trkpt><trkpt lat="45.76574310038391" lon="9.746942907731778"><ele>572.2</ele><time>2026-03-27T15:47:42Z</time></trkpt><trkpt lat="45.765756021393784" lon="9.746806635078103"><ele>572.0</ele><time>2026-03-27T15:47:43Z</time></trkpt><trkpt lat="45.76577146199022" lon="9.746667345243898"><ele>572.0</ele><time>2026-03-27T15:47:44Z</time></trkpt><trkpt lat="45.76577164383312" lon="9.746524630663563"><ele>572.0</ele><time>2026-03-27T15:47:45Z</time></trkpt><trkpt lat="45.76576378252523" lon="9.746384386571657"><ele>572.0</ele><time>2026-03-27T15:47:46Z</time></trkpt><trkpt lat="45.76574513475494" lon="9.746243326945635"><ele>572.0</ele><time>2026-03-27T15:47:47Z</time></trkpt><trkpt lat="45.765727044366486" lon="9.74609901276443"><ele>572.0</ele><time>2026-03-27T15:47:48Z</time></trkpt><trkpt lat="45.7657058958671" lon="9.745953647408948"><ele>572.0</ele><time>2026-03-27T15:47:49Z</time></trkpt><trkpt lat="45.76568681743982" lon="9.745814902673574"><ele>572.0</ele><time>2026-03-27T15:47:50Z</time></trkpt><trkpt lat="45.76565710539941" lon="9.745664092122505"><ele>572.0</ele><time>2026-03-27T15:47:51Z</time></trkpt><trkpt lat="45.76563651696529" lon="9.74551398453047"><ele>572.0</ele><time>2026-03-27T15:47:52Z</time></trkpt><trkpt lat="45.76561854160517" lon="9.745357033081621"><ele>572.0</ele><time>2026-03-27T15:47:53Z</time></trkpt><trkpt lat="45.76559256550688" lon="9.745206823922127"><ele>573.2</ele><time>2026-03-27T15:47:54Z</time></trkpt><trkpt lat="45.76554068357777" lon="9.745082108817916"><ele>574.4000000000001</ele><time>2026-03-27T15:47:55Z</time></trkpt><trkpt lat="45.76546542717159" lon="9.744964354440294"><ele>575.5999999999999</ele><time>2026-03-27T15:47:56Z</time></trkpt><trkpt lat="45.765377284025085" lon="9.7448917725112"><ele>576.8</ele><time>2026-03-27T15:47:57Z</time></trkpt><trkpt lat="45.76527623117609" lon="9.744860744228154"><ele>578.0</ele><time>2026-03-27T15:47:58Z</time></trkpt><trkpt lat="45.76516394848112" lon="9.744874291025521"><ele>574.0</ele><time>2026-03-27T15:47:59Z</time></trkpt><trkpt lat="45.765063999912584" lon="9.744917098613577"><ele>570.0</ele><time>2026-03-27T15:48:00.001Z</time></trkpt><trkpt lat="45.76495779601844" lon="9.74495613949391"><ele>566.0</ele><time>2026-03-27T15:48:01.001Z</time></trkpt><trkpt lat="45.76486070028938" lon="9.745025733636416"><ele>562.0</ele><time>2026-03-27T15:48:02.001Z</time></trkpt><trkpt lat="45.764777172226076" lon="9.745150727424996"><ele>558.0</ele><time>2026-03-27T15:48:03.001Z</time></trkpt><trkpt lat="45.76473100261824" lon="9.74531568457515"><ele>555.0</ele><time>2026-03-27T15:48:04.001Z</time></trkpt><trkpt lat="45.7646980548342" lon="9.745475279363"><ele>552.0</ele><time>2026-03-27T15:48:05.001Z</time></trkpt><trkpt lat="45.76465878392602" lon="9.745629066249654"><ele>549.0</ele><time>2026-03-27T15:48:06.001Z</time></trkpt><trkpt lat="45.76462453841577" lon="9.745784746075286"><ele>546.0</ele><time>2026-03-27T15:48:07.001Z</time></trkpt><trkpt lat="45.76456718569241" lon="9.74592542373759"><ele>546.0</ele><time>2026-03-27T15:48:08.001Z</time></trkpt><trkpt lat="45.76448504948612" lon="9.746044692736954"><ele>546.0</ele><time>2026-03-27T15:48:09.001Z</time></trkpt><trkpt lat="45.76438635512874" lon="9.746147964554137"><ele>546.0</ele><time>2026-03-27T15:48:10.001Z</time></trkpt><trkpt lat="45.76427483113073" lon="9.746219700871874"><ele>546.0</ele><time>2026-03-27T15:48:11.001Z</time></trkpt><trkpt lat="45.764164213076626" lon="9.74628006450095"><ele>544.25</ele><time>2026-03-27T15:48:12.001Z</time></trkpt><trkpt lat="45.76405671193256" lon="9.746345304973714"><ele>542.5</ele><time>2026-03-27T15:48:13.001Z</time></trkpt><trkpt lat="45.763947757376265" lon="9.74639038596198"><ele>540.75</ele><time>2026-03-27T15:48:14.001Z</time></trkpt><trkpt lat="45.76382799040271" lon="9.74639517556075"><ele>539.0</ele><time>2026-03-27T15:48:15.001Z</time></trkpt><trkpt lat="45.763705932209625" lon="9.746371735745516"><ele>539.0</ele><time>2026-03-27T15:48:16Z</time></trkpt><trkpt lat="45.76358148907318" lon="9.746352100506654"><ele>539.0</ele><time>2026-03-27T15:48:17Z</time></trkpt><trkpt lat="45.763455448348196" lon="9.746342651859095"><ele>539.0</ele><time>2026-03-27T15:48:18Z</time></trkpt><trkpt lat="45.76333397413096" lon="9.746361422300422"><ele>539.0</ele><time>2026-03-27T15:48:19Z</time></trkpt><trkpt lat="45.763217829343155" lon="9.746398618358603"><ele>538.2</ele><time>2026-03-27T15:48:20Z</time></trkpt><trkpt lat="45.76312092371194" lon="9.74642962601147"><ele>537.4</ele><time>2026-03-27T15:48:21Z</time></trkpt><trkpt lat="45.76304805376416" lon="9.74649920955668"><ele>536.6</ele><time>2026-03-27T15:48:22Z</time></trkpt><trkpt lat="45.76300013561191" lon="9.746622981145453"><ele>535.8</ele><time>2026-03-27T15:48:23Z</time></trkpt><trkpt lat="45.76297206083206" lon="9.74677070700175"><ele>535.0</ele><time>2026-03-27T15:48:24Z</time></trkpt><trkpt lat="45.76294546314015" lon="9.746912132738156"><ele>534.0</ele><time>2026-03-27T15:48:25Z</time></trkpt><trkpt lat="45.7628889635162" lon="9.747043485926032"><ele>533.0</ele><time>2026-03-27T15:48:26Z</time></trkpt><trkpt lat="45.76280034551232" lon="9.747138025621025"><ele>532.0</ele><time>2026-03-27T15:48:27Z</time></trkpt><trkpt lat="45.76269532925185" lon="9.747222609228126"><ele>531.0</ele><time>2026-03-27T15:48:28Z</time></trkpt><trkpt lat="45.76260455712396" lon="9.747307784226294"><ele>530.0</ele><time>2026-03-27T15:48:29Z</time></trkpt><trkpt lat="45.76252400225938" lon="9.747414257789213"><ele>530.0</ele><time>2026-03-27T15:48:30Z</time></trkpt><trkpt lat="45.76244712531287" lon="9.747531473125598"><ele>530.0</ele><time>2026-03-27T15:48:31Z</time></trkpt><trkpt lat="45.76237058543164" lon="9.747650108063842"><ele>530.0</ele><time>2026-03-27T15:48:32Z</time></trkpt><trkpt lat="45.76229335791734" lon="9.747763169920741"><ele>530.0</ele><time>2026-03-27T15:48:33Z</time></trkpt><trkpt lat="45.76221217554837" lon="9.747875956076811"><ele>530.0</ele><time>2026-03-27T15:48:34Z</time></trkpt><trkpt lat="45.76213183233927" lon="9.747991742620453"><ele>531.25</ele><time>2026-03-27T15:48:35Z</time></trkpt><trkpt lat="45.76205107494452" lon="9.748107107508277"><ele>532.5</ele><time>2026-03-27T15:48:36Z</time></trkpt><trkpt lat="45.76196959432804" lon="9.748222495517588"><ele>533.75</ele><time>2026-03-27T15:48:37Z</time></trkpt><trkpt lat="45.76188844421778" lon="9.748335986735508"><ele>535.0</ele><time>2026-03-27T15:48:38Z</time></trkpt><trkpt lat="45.76180314782865" lon="9.748440607416292"><ele>530.0</ele><time>2026-03-27T15:48:39Z</time></trkpt><trkpt lat="45.76171671175762" lon="9.748544216088186"><ele>525.0</ele><time>2026-03-27T15:48:40Z</time></trkpt><trkpt lat="45.76163217870271" lon="9.748649889147666"><ele>520.0</ele><time>2026-03-27T15:48:41Z</time></trkpt><trkpt lat="45.76154652786786" lon="9.748758167821638"><ele>515.0</ele><time>2026-03-27T15:48:42Z</time></trkpt><trkpt lat="45.76145925660754" lon="9.74886197810528"><ele>515.0</ele><time>2026-03-27T15:48:43Z</time></trkpt><trkpt lat="45.761376657867025" lon="9.74897602265286"><ele>515.0</ele><time>2026-03-27T15:48:44Z</time></trkpt><trkpt lat="45.7613084703566" lon="9.74911005835488"><ele>515.0</ele><time>2026-03-27T15:48:45Z</time></trkpt><trkpt lat="45.761249390731194" lon="9.74925438210722"><ele>515.0</ele><time>2026-03-27T15:48:46Z</time></trkpt><trkpt lat="45.76119105991548" lon="9.749401147348555"><ele>516.25</ele><time>2026-03-27T15:48:47Z</time></trkpt><trkpt lat="45.76113230066077" lon="9.749548449112305"><ele>517.5</ele><time>2026-03-27T15:48:48Z</time></trkpt><trkpt lat="45.76107165203017" lon="9.749694580511884"><ele>518.75</ele><time>2026-03-27T15:48:49Z</time></trkpt><trkpt lat="45.76100947425954" lon="9.749839883254824"><ele>520.0</ele><time>2026-03-27T15:48:50Z</time></trkpt><trkpt lat="45.76093947056201" lon="9.749983670232698"><ele>520.0</ele><time>2026-03-27T15:48:51Z</time></trkpt><trkpt lat="45.76086612722774" lon="9.750123936151907"><ele>520.0</ele><time>2026-03-27T15:48:52Z</time></trkpt><trkpt lat="45.76078875380459" lon="9.750259037668716"><ele>520.0</ele><time>2026-03-27T15:48:53Z</time></trkpt><trkpt lat="45.76071219633822" lon="9.750401607152776"><ele>520.0</ele><time>2026-03-27T15:48:54Z</time></trkpt><trkpt lat="45.76063870362306" lon="9.750544341254772"><ele>514.0</ele><time>2026-03-27T15:48:55Z</time></trkpt><trkpt lat="45.76056510641467" lon="9.750689639833961"><ele>508.0</ele><time>2026-03-27T15:48:56Z</time></trkpt><trkpt lat="45.76050147314776" lon="9.75083139247532"><ele>502.0</ele><time>2026-03-27T15:48:57Z</time></trkpt><trkpt lat="45.76043975366985" lon="9.750961402415617"><ele>496.0</ele><time>2026-03-27T15:48:58Z</time></trkpt><trkpt lat="45.76038183079428" lon="9.751078734042908"><ele>496.50000000000006</ele><time>2026-03-27T15:48:59Z</time></trkpt><trkpt lat="45.76032947887617" lon="9.751181692388855"><ele>497.0</ele><time>2026-03-27T15:49:00Z</time></trkpt><trkpt lat="45.7602749800584" lon="9.751271772065335"><ele>497.5</ele><time>2026-03-27T15:49:01Z</time></trkpt><trkpt lat="45.760213132434124" lon="9.751341603012264"><ele>498.0</ele><time>2026-03-27T15:49:02Z</time></trkpt><trkpt lat="45.76013916297108" lon="9.751372707675419"><ele>498.50000000000006</ele><time>2026-03-27T15:49:03Z</time></trkpt><trkpt lat="45.76005940204107" lon="9.751385121495868"><ele>499.0</ele><time>2026-03-27T15:49:04Z</time></trkpt><trkpt lat="45.75997957421894" lon="9.75140738328667"><ele>499.0</ele><time>2026-03-27T15:49:05Z</time></trkpt><trkpt lat="45.75990185259197" lon="9.751451097559073"><ele>499.0</ele><time>2026-03-27T15:49:06Z</time></trkpt><trkpt lat="45.75982528143855" lon="9.751515975878998"><ele>499.0</ele><time>2026-03-27T15:49:07Z</time></trkpt><trkpt lat="45.75975509965277" lon="9.751596675901535"><ele>499.0</ele><time>2026-03-27T15:49:08Z</time></trkpt><trkpt lat="45.75968341308217" lon="9.751687813999732"><ele>499.0</ele><time>2026-03-27T15:49:09Z</time></trkpt><trkpt lat="45.75960359171394" lon="9.751761296514484"><ele>499.00000000000006</ele><time>2026-03-27T15:49:10Z</time></trkpt><trkpt lat="45.759521376710964" lon="9.751812375482936"><ele>499.0</ele><time>2026-03-27T15:49:11Z</time></trkpt><trkpt lat="45.75945369924478" lon="9.751857943271489"><ele>499.0</ele><time>2026-03-27T15:49:12Z</time></trkpt><trkpt lat="45.75941404724259" lon="9.752005627624875"><ele>499.0</ele><time>2026-03-27T15:49:14Z</time></trkpt><trkpt lat="45.75945790273791" lon="9.752073139901619"><ele>499.00000000000006</ele><time>2026-03-27T15:49:15Z</time></trkpt><trkpt lat="45.75953435042248" lon="9.752072840302658"><ele>499.0</ele><time>2026-03-27T15:49:16Z</time></trkpt><trkpt lat="45.75960553455823" lon="9.752018054897633"><ele>499.00000000000006</ele><time>2026-03-27T15:49:17Z</time></trkpt><trkpt lat="45.75966335501006" lon="9.751946725235006"><ele>499.0</ele><time>2026-03-27T15:49:18Z</time></trkpt><trkpt lat="45.75972173512062" lon="9.751884902352078"><ele>499.00000000000006</ele><time>2026-03-27T15:49:19Z</time></trkpt><trkpt lat="45.75977979357633" lon="9.751823938560463"><ele>499.00000000000006</ele><time>2026-03-27T15:49:20Z</time></trkpt><trkpt lat="45.75983503577937" lon="9.751754318216415"><ele>499.0</ele><time>2026-03-27T15:49:21Z</time></trkpt><trkpt lat="45.75989069405187" lon="9.751673543045653"><ele>499.00000000000006</ele><time>2026-03-27T15:49:22Z</time></trkpt><trkpt lat="45.75994122674981" lon="9.751594983221972"><ele>499.00000000000006</ele><time>2026-03-27T15:49:23Z</time></trkpt><trkpt lat="45.75999738217475" lon="9.751550940557035"><ele>499.00000000000006</ele><time>2026-03-27T15:49:24Z</time></trkpt><trkpt lat="45.76006896597533" lon="9.751648060730346"><ele>499.0</ele><time>2026-03-27T15:49:26Z</time></trkpt><trkpt lat="45.76004709836216" lon="9.75174068301048"><ele>499.0</ele><time>2026-03-27T15:49:27Z</time></trkpt><trkpt lat="45.759978033939454" lon="9.751796617388683"><ele>499.0</ele><time>2026-03-27T15:49:28Z</time></trkpt><trkpt lat="45.759897324358334" lon="9.751827036388288"><ele>499.00000000000006</ele><time>2026-03-27T15:49:29Z</time></trkpt><trkpt lat="45.75982895834222" lon="9.751870862337427"><ele>499.0</ele><time>2026-03-27T15:49:30Z</time></trkpt><trkpt lat="45.75976018085036" lon="9.751926576944966"><ele>496.50000000000006</ele><time>2026-03-27T15:49:31Z</time></trkpt><trkpt lat="45.75968821687074" lon="9.75198204121856"><ele>494.0</ele><time>2026-03-27T15:49:32Z</time></trkpt><trkpt lat="45.75961418591563" lon="9.752043423518181"><ele>491.5</ele><time>2026-03-27T15:49:33Z</time></trkpt><trkpt lat="45.75953655629086" lon="9.752109244079621"><ele>489.0</ele><time>2026-03-27T15:49:34Z</time></trkpt><trkpt lat="45.75945768950857" lon="9.752174369213812"><ele>486.50000000000006</ele><time>2026-03-27T15:49:35Z</time></trkpt><trkpt lat="45.75937454038308" lon="9.752239910259014"><ele>484.0</ele><time>2026-03-27T15:49:36Z</time></trkpt><trkpt lat="45.759289258701855" lon="9.752296823575033"><ele>484.0</ele><time>2026-03-27T15:49:37Z</time></trkpt><trkpt lat="45.759200780707" lon="9.752350714161233"><ele>484.0</ele><time>2026-03-27T15:49:38Z</time></trkpt><trkpt lat="45.75910862819557" lon="9.752395090352781"><ele>484.0</ele><time>2026-03-27T15:49:39Z</time></trkpt><trkpt lat="45.75901378282827" lon="9.752410374758403"><ele>484.0</ele><time>2026-03-27T15:49:40Z</time></trkpt><trkpt lat="45.75892681165902" lon="9.75238718741328"><ele>484.0</ele><time>2026-03-27T15:49:41Z</time></trkpt><trkpt lat="45.758842399589874" lon="9.752345560177247"><ele>484.0</ele><time>2026-03-27T15:49:42Z</time></trkpt><trkpt lat="45.758754215328835" lon="9.752324556644862"><ele>484.0</ele><time>2026-03-27T15:49:43Z</time></trkpt><trkpt lat="45.75866079285226" lon="9.752333112674743"><ele>484.0</ele><time>2026-03-27T15:49:44Z</time></trkpt><trkpt lat="45.75857570606154" lon="9.752396950255076"><ele>484.0</ele><time>2026-03-27T15:49:45Z</time></trkpt><trkpt lat="45.758513171534055" lon="9.75251622029976"><ele>484.0</ele><time>2026-03-27T15:49:46Z</time></trkpt><trkpt lat="45.75846526806369" lon="9.752646751142516"><ele>483.50000000000006</ele><time>2026-03-27T15:49:47Z</time></trkpt><trkpt lat="45.758407576071846" lon="9.752759552318729"><ele>483.0</ele><time>2026-03-27T15:49:48Z</time></trkpt><trkpt lat="45.75833643702957" lon="9.752846836212626"><ele>482.5</ele><time>2026-03-27T15:49:49Z</time></trkpt><trkpt lat="45.758281521879766" lon="9.75291678949159"><ele>482.0</ele><time>2026-03-27T15:49:50Z</time></trkpt><trkpt lat="45.75829081130881" lon="9.75307812739207"><ele>481.50000000000006</ele><time>2026-03-27T15:49:52Z</time></trkpt><trkpt lat="45.75835764366731" lon="9.753108947765162"><ele>481.0</ele><time>2026-03-27T15:49:53Z</time></trkpt><trkpt lat="45.75842691956127" lon="9.753049772702715"><ele>481.00000000000006</ele><time>2026-03-27T15:49:54Z</time></trkpt><trkpt lat="45.75845216450733" lon="9.752940615603409"><ele>481.0</ele><time>2026-03-27T15:49:55Z</time></trkpt><trkpt lat="45.75847806681716" lon="9.752854967627856"><ele>481.0</ele><time>2026-03-27T15:49:56Z</time></trkpt><trkpt lat="45.7585135535646" lon="9.7527671094561"><ele>481.0</ele><time>2026-03-27T15:49:57Z</time></trkpt><trkpt lat="45.75855147490017" lon="9.752682851288737"><ele>481.00000000000006</ele><time>2026-03-27T15:49:58Z</time></trkpt><trkpt lat="45.75858596049456" lon="9.752594897342549"><ele>481.0</ele><time>2026-03-27T15:49:59Z</time></trkpt><trkpt lat="45.75866926548338" lon="9.752524939361265"><ele>481.00000000000006</ele><time>2026-03-27T15:50:01Z</time></trkpt><trkpt lat="45.75871477735835" lon="9.752597110155413"><ele>481.0</ele><time>2026-03-27T15:50:02Z</time></trkpt><trkpt lat="45.75871108467563" lon="9.752715559685722"><ele>481.0</ele><time>2026-03-27T15:50:03Z</time></trkpt><trkpt lat="45.758663183209094" lon="9.75280350828286"><ele>481.0</ele><time>2026-03-27T15:50:04Z</time></trkpt><trkpt lat="45.758597704634" lon="9.752869856371323"><ele>481.00000000000006</ele><time>2026-03-27T15:50:05Z</time></trkpt><trkpt lat="45.75854119290615" lon="9.752938752598835"><ele>481.0</ele><time>2026-03-27T15:50:06Z</time></trkpt><trkpt lat="45.75848865683809" lon="9.753017164424465"><ele>481.00000000000006</ele><time>2026-03-27T15:50:07Z</time></trkpt><trkpt lat="45.758438544212744" lon="9.753094405168364"><ele>481.0</ele><time>2026-03-27T15:50:08Z</time></trkpt><trkpt lat="45.75838648652674" lon="9.753172861328695"><ele>481.0</ele><time>2026-03-27T15:50:09Z</time></trkpt><trkpt lat="45.75833170040771" lon="9.753254547402122"><ele>481.0</ele><time>2026-03-27T15:50:10Z</time></trkpt><trkpt lat="45.75828020376938" lon="9.7533446605785"><ele>481.00000000000006</ele><time>2026-03-27T15:50:11Z</time></trkpt><trkpt lat="45.75822735172427" lon="9.753437493947656"><ele>481.0</ele><time>2026-03-27T15:50:12Z</time></trkpt><trkpt lat="45.75817422806815" lon="9.753528134847613"><ele>477.1666666666667</ele><time>2026-03-27T15:50:13Z</time></trkpt><trkpt lat="45.758120958126135" lon="9.753619168256975"><ele>473.33333333333337</ele><time>2026-03-27T15:50:14Z</time></trkpt><trkpt lat="45.758065396167034" lon="9.753710595802922"><ele>469.5</ele><time>2026-03-27T15:50:15Z</time></trkpt><trkpt lat="45.758012008105744" lon="9.753809437461667"><ele>465.66666666666663</ele><time>2026-03-27T15:50:16Z</time></trkpt><trkpt lat="45.7579627446089" lon="9.753910479231617"><ele>461.8333333333333</ele><time>2026-03-27T15:50:17Z</time></trkpt><trkpt lat="45.75791059597409" lon="9.754017044049679"><ele>458.0</ele><time>2026-03-27T15:50:18Z</time></trkpt><trkpt lat="45.75785468543822" lon="9.754123154497952"><ele>458.0</ele><time>2026-03-27T15:50:19Z</time></trkpt><trkpt lat="45.75779873941378" lon="9.75423067883149"><ele>457.99999999999994</ele><time>2026-03-27T15:50:20Z</time></trkpt><trkpt lat="45.75773958561417" lon="9.754341293675381"><ele>457.99999999999994</ele><time>2026-03-27T15:50:21Z</time></trkpt><trkpt lat="45.757675675837945" lon="9.754440033616586"><ele>458.0</ele><time>2026-03-27T15:50:22Z</time></trkpt><trkpt lat="45.75760153024565" lon="9.754527014462983"><ele>458.0</ele><time>2026-03-27T15:50:23Z</time></trkpt><trkpt lat="45.75752220655663" lon="9.75460257091873"><ele>458.99999999999994</ele><time>2026-03-27T15:50:24Z</time></trkpt><trkpt lat="45.75743443029378" lon="9.754656231203798"><ele>460.0</ele><time>2026-03-27T15:50:25Z</time></trkpt><trkpt lat="45.757353300876694" lon="9.754699426399473"><ele>461.0</ele><time>2026-03-27T15:50:26Z</time></trkpt><trkpt lat="45.75729392601309" lon="9.754742417059763"><ele>462.0</ele><time>2026-03-27T15:50:27Z</time></trkpt><trkpt lat="45.757294954307646" lon="9.754896391109913"><ele>462.99999999999994</ele><time>2026-03-27T15:50:29Z</time></trkpt><trkpt lat="45.75736907794384" lon="9.754931880805257"><ele>464.0</ele><time>2026-03-27T15:50:30Z</time></trkpt><trkpt lat="45.75744338978319" lon="9.754873009479603"><ele>463.99999999999994</ele><time>2026-03-27T15:50:31Z</time></trkpt><trkpt lat="45.75750744714553" lon="9.75479818180806"><ele>464.0</ele><time>2026-03-27T15:50:32Z</time></trkpt><trkpt lat="45.75756094109522" lon="9.754716678816997"><ele>464.0</ele><time>2026-03-27T15:50:33Z</time></trkpt><trkpt lat="45.75761943809842" lon="9.754654422141277"><ele>464.0</ele><time>2026-03-27T15:50:34Z</time></trkpt><trkpt lat="45.757680553338446" lon="9.75458191094593"><ele>463.99999999999994</ele><time>2026-03-27T15:50:35Z</time></trkpt><trkpt lat="45.7577452014863" lon="9.754510584040785"><ele>464.0</ele><time>2026-03-27T15:50:36Z</time></trkpt><trkpt lat="45.75780714172323" lon="9.754436956288453"><ele>459.3333333333333</ele><time>2026-03-27T15:50:37Z</time></trkpt><trkpt lat="45.75786040729791" lon="9.754382719182614"><ele>454.66666666666663</ele><time>2026-03-27T15:50:38Z</time></trkpt><trkpt lat="45.75794410854213" lon="9.754474757164024"><ele>450.0</ele><time>2026-03-27T15:50:40Z</time></trkpt><trkpt lat="45.75792415099485" lon="9.75457317697115"><ele>445.33333333333337</ele><time>2026-03-27T15:50:41Z</time></trkpt><trkpt lat="45.757848708541374" lon="9.754654423762638"><ele>440.6666666666667</ele><time>2026-03-27T15:50:42Z</time></trkpt><trkpt lat="45.7577878406323" lon="9.754706049382749"><ele>436.0</ele><time>2026-03-27T15:50:43Z</time></trkpt><trkpt lat="45.75772986239128" lon="9.75477091218918"><ele>436.6666666666667</ele><time>2026-03-27T15:50:44Z</time></trkpt><trkpt lat="45.75767067651146" lon="9.75484665683315"><ele>437.33333333333337</ele><time>2026-03-27T15:50:45Z</time></trkpt><trkpt lat="45.75760603629857" lon="9.754922144774104"><ele>438.0</ele><time>2026-03-27T15:50:46Z</time></trkpt><trkpt lat="45.75753502469758" lon="9.754996015347666"><ele>438.66666666666663</ele><time>2026-03-27T15:50:47Z</time></trkpt><trkpt lat="45.75746038436129" lon="9.755072411525168"><ele>439.3333333333333</ele><time>2026-03-27T15:50:48Z</time></trkpt><trkpt lat="45.757384789113814" lon="9.755146669224832"><ele>440.0</ele><time>2026-03-27T15:50:49Z</time></trkpt><trkpt lat="45.75730831806568" lon="9.755228116765874"><ele>440.0</ele><time>2026-03-27T15:50:50Z</time></trkpt><trkpt lat="45.75723028045848" lon="9.755307673355277"><ele>440.0</ele><time>2026-03-27T15:50:51Z</time></trkpt><trkpt lat="45.75715157405816" lon="9.75539181903388"><ele>440.0</ele><time>2026-03-27T15:50:52Z</time></trkpt><trkpt lat="45.7570758315998" lon="9.755486965211956"><ele>440.0</ele><time>2026-03-27T15:50:53Z</time></trkpt><trkpt lat="45.75700265451068" lon="9.755585105588642"><ele>440.0</ele><time>2026-03-27T15:50:54Z</time></trkpt><trkpt lat="45.75692696427726" lon="9.755687553977612"><ele>441.2</ele><time>2026-03-27T15:50:55Z</time></trkpt><trkpt lat="45.75685866995103" lon="9.755804789221049"><ele>442.4</ele><time>2026-03-27T15:50:56Z</time></trkpt><trkpt lat="45.756794863928384" lon="9.755927850651425"><ele>443.6</ele><time>2026-03-27T15:50:57Z</time></trkpt><trkpt lat="45.756729408643" lon="9.756054385458771"><ele>444.8</ele><time>2026-03-27T15:50:58Z</time></trkpt><trkpt lat="45.75666532495748" lon="9.756185643041789"><ele>446.0</ele><time>2026-03-27T15:50:59Z</time></trkpt><trkpt lat="45.7566076716186" lon="9.756326894104099"><ele>446.0</ele><time>2026-03-27T15:51:00Z</time></trkpt><trkpt lat="45.75655123332759" lon="9.756469488958402"><ele>446.0</ele><time>2026-03-27T15:51:01Z</time></trkpt><trkpt lat="45.7564932094957" lon="9.756606576731613"><ele>446.0</ele><time>2026-03-27T15:51:02Z</time></trkpt><trkpt lat="45.756431218268986" lon="9.756734443079022"><ele>446.0</ele><time>2026-03-27T15:51:03Z</time></trkpt><trkpt lat="45.756351038118666" lon="9.756847393652837"><ele>446.0</ele><time>2026-03-27T15:51:04Z</time></trkpt><trkpt lat="45.75625077912085" lon="9.756937723671355"><ele>444.0</ele><time>2026-03-27T15:51:05Z</time></trkpt><trkpt lat="45.75614472422009" lon="9.757015685046959"><ele>442.0</ele><time>2026-03-27T15:51:06Z</time></trkpt><trkpt lat="45.7560453738794" lon="9.757089916411692"><ele>440.0</ele><time>2026-03-27T15:51:07Z</time></trkpt><trkpt lat="45.75593689491042" lon="9.757148778135287"><ele>438.0</ele><time>2026-03-27T15:51:08Z</time></trkpt><trkpt lat="45.75582221936287" lon="9.757182856219686"><ele>438.0</ele><time>2026-03-27T15:51:09Z</time></trkpt><trkpt lat="45.75570786811868" lon="9.757199138462063"><ele>437.99999999999994</ele><time>2026-03-27T15:51:10Z</time></trkpt><trkpt lat="45.75559414482556" lon="9.757212690102437"><ele>437.99999999999994</ele><time>2026-03-27T15:51:11Z</time></trkpt><trkpt lat="45.755483989024754" lon="9.757223048927068"><ele>438.0</ele><time>2026-03-27T15:51:12Z</time></trkpt><trkpt lat="45.75538136457297" lon="9.757244266284617"><ele>438.0</ele><time>2026-03-27T15:51:13Z</time></trkpt><trkpt lat="45.75528518313448" lon="9.757301797154454"><ele>438.0</ele><time>2026-03-27T15:51:14Z</time></trkpt><trkpt lat="45.75520549333002" lon="9.75741154043212"><ele>438.0</ele><time>2026-03-27T15:51:15Z</time></trkpt><trkpt lat="45.75514443979463" lon="9.757552503027155"><ele>438.0</ele><time>2026-03-27T15:51:16Z</time></trkpt><trkpt lat="45.75508581863496" lon="9.757694079840157"><ele>438.0</ele><time>2026-03-27T15:51:17Z</time></trkpt><trkpt lat="45.75502424259734" lon="9.75783424374132"><ele>436.25</ele><time>2026-03-27T15:51:18Z</time></trkpt><trkpt lat="45.7549542636974" lon="9.757969002767977"><ele>434.5</ele><time>2026-03-27T15:51:19Z</time></trkpt><trkpt lat="45.75487474561696" lon="9.75809274946107"><ele>432.75</ele><time>2026-03-27T15:51:20Z</time></trkpt><trkpt lat="45.7548030087389" lon="9.758224086783125"><ele>431.0</ele><time>2026-03-27T15:51:21Z</time></trkpt><trkpt lat="45.754745009037364" lon="9.758365171431244"><ele>431.0</ele><time>2026-03-27T15:51:22Z</time></trkpt><trkpt lat="45.75469385645015" lon="9.758510108807455"><ele>431.0</ele><time>2026-03-27T15:51:23Z</time></trkpt><trkpt lat="45.75464395891793" lon="9.75865195176934"><ele>431.0</ele><time>2026-03-27T15:51:24Z</time></trkpt><trkpt lat="45.75458194461775" lon="9.758783461905116"><ele>431.0</ele><time>2026-03-27T15:51:25Z</time></trkpt><trkpt lat="45.75450551481925" lon="9.758900594673586"><ele>431.0</ele><time>2026-03-27T15:51:26Z</time></trkpt><trkpt lat="45.754425524849744" lon="9.759007746126194"><ele>431.0</ele><time>2026-03-27T15:51:27Z</time></trkpt><trkpt lat="45.754342158193374" lon="9.75911339180579"><ele>431.0</ele><time>2026-03-27T15:51:28Z</time></trkpt><trkpt lat="45.75426787068993" lon="9.759212062855656"><ele>431.0</ele><time>2026-03-27T15:51:29Z</time></trkpt><trkpt lat="45.75419019733945" lon="9.759291518810933"><ele>431.0</ele><time>2026-03-27T15:51:30Z</time></trkpt><trkpt lat="45.75410059609085" lon="9.759337662908402"><ele>431.0</ele><time>2026-03-27T15:51:31Z</time></trkpt><trkpt lat="45.75399444799191" lon="9.759366670470852"><ele>428.6</ele><time>2026-03-27T15:51:32Z</time></trkpt><trkpt lat="45.7538987477698" lon="9.75937645533007"><ele>426.20000000000005</ele><time>2026-03-27T15:51:33Z</time></trkpt><trkpt lat="45.7537940435752" lon="9.759376927621394"><ele>423.79999999999995</ele><time>2026-03-27T15:51:34Z</time></trkpt><trkpt lat="45.753691865646985" lon="9.759400348271045"><ele>421.4</ele><time>2026-03-27T15:51:35Z</time></trkpt><trkpt lat="45.753596832233754" lon="9.759450085448405"><ele>419.0</ele><time>2026-03-27T15:51:36Z</time></trkpt><trkpt lat="45.75350472870725" lon="9.75951920863116"><ele>419.0</ele><time>2026-03-27T15:51:37Z</time></trkpt><trkpt lat="45.75341328754539" lon="9.759591825953999"><ele>419.0</ele><time>2026-03-27T15:51:38Z</time></trkpt><trkpt lat="45.75332059872642" lon="9.759666845428603"><ele>419.0</ele><time>2026-03-27T15:51:39Z</time></trkpt><trkpt lat="45.75322965506162" lon="9.759739739453817"><ele>419.0</ele><time>2026-03-27T15:51:40Z</time></trkpt><trkpt lat="45.75314113980806" lon="9.759826454084957"><ele>419.0</ele><time>2026-03-27T15:51:41Z</time></trkpt><trkpt lat="45.75305906412902" lon="9.75992515496264"><ele>419.0</ele><time>2026-03-27T15:51:42Z</time></trkpt><trkpt lat="45.75297319811042" lon="9.760011606077416"><ele>419.0</ele><time>2026-03-27T15:51:43Z</time></trkpt><trkpt lat="45.75286516913244" lon="9.760057776420773"><ele>419.0</ele><time>2026-03-27T15:51:44Z</time></trkpt><trkpt lat="45.75275754032777" lon="9.760077220373175"><ele>419.0</ele><time>2026-03-27T15:51:45Z</time></trkpt><trkpt lat="45.7526553711767" lon="9.760113937340135"><ele>419.0</ele><time>2026-03-27T15:51:46Z</time></trkpt><trkpt lat="45.75256130109623" lon="9.760179905845964"><ele>414.79999999999995</ele><time>2026-03-27T15:51:47Z</time></trkpt><trkpt lat="45.75246701543277" lon="9.760247474043076"><ele>410.59999999999997</ele><time>2026-03-27T15:51:48Z</time></trkpt><trkpt lat="45.752364171431005" lon="9.760292390825935"><ele>406.4</ele><time>2026-03-27T15:51:49Z</time></trkpt><trkpt lat="45.75226041486469" lon="9.760311930278116"><ele>402.2</ele><time>2026-03-27T15:51:50Z</time></trkpt><trkpt lat="45.75215880111395" lon="9.760320896995397"><ele>398.0</ele><time>2026-03-27T15:51:51Z</time></trkpt><trkpt lat="45.752060625551955" lon="9.760326149508991"><ele>398.0</ele><time>2026-03-27T15:51:52Z</time></trkpt><trkpt lat="45.75196238984155" lon="9.760341099383961"><ele>398.0</ele><time>2026-03-27T15:51:53Z</time></trkpt><trkpt lat="45.75186477871892" lon="9.760360884891936"><ele>398.0</ele><time>2026-03-27T15:51:54Z</time></trkpt><trkpt lat="45.75176689131621" lon="9.760386686302622"><ele>398.0</ele><time>2026-03-27T15:51:55Z</time></trkpt><trkpt lat="45.751670407703486" lon="9.76041070745654"><ele>398.0</ele><time>2026-03-27T15:51:56Z</time></trkpt><trkpt lat="45.75157466576358" lon="9.760432079416494"><ele>395.79999999999995</ele><time>2026-03-27T15:51:57Z</time></trkpt><trkpt lat="45.75147687488287" lon="9.76046672844709"><ele>393.6</ele><time>2026-03-27T15:51:58Z</time></trkpt><trkpt lat="45.75138187804513" lon="9.760492001021486"><ele>391.4</ele><time>2026-03-27T15:51:59Z</time></trkpt><trkpt lat="45.751279647179274" lon="9.760504231656515"><ele>389.20000000000005</ele><time>2026-03-27T15:52:00Z</time></trkpt><trkpt lat="45.751175799793174" lon="9.760505123459405"><ele>387.0</ele><time>2026-03-27T15:52:01Z</time></trkpt><trkpt lat="45.75107480735796" lon="9.760485232231332"><ele>384.6</ele><time>2026-03-27T15:52:02Z</time></trkpt><trkpt lat="45.75098162534029" lon="9.760452966712487"><ele>382.20000000000005</ele><time>2026-03-27T15:52:03Z</time></trkpt><trkpt lat="45.750898419459645" lon="9.760399876528096"><ele>379.8</ele><time>2026-03-27T15:52:04Z</time></trkpt><trkpt lat="45.750820988137804" lon="9.760340078019302"><ele>377.4</ele><time>2026-03-27T15:52:05Z</time></trkpt><trkpt lat="45.75074295967678" lon="9.760290005045418"><ele>375.0</ele><time>2026-03-27T15:52:06Z</time></trkpt><trkpt lat="45.75066010687076" lon="9.760239221774011"><ele>378.5</ele><time>2026-03-27T15:52:07Z</time></trkpt><trkpt lat="45.75058344015253" lon="9.760180999533265"><ele>382.0</ele><time>2026-03-27T15:52:08Z</time></trkpt><trkpt lat="45.7505045241475" lon="9.76012909860987"><ele>385.5</ele><time>2026-03-27T15:52:09Z</time></trkpt><trkpt lat="45.750423208319106" lon="9.760080125442887"><ele>389.0</ele><time>2026-03-27T15:52:10Z</time></trkpt><trkpt lat="45.750342142948355" lon="9.760038984427775"><ele>392.5</ele><time>2026-03-27T15:52:11Z</time></trkpt><trkpt lat="45.7502579150389" lon="9.75999229675056"><ele>396.0</ele><time>2026-03-27T15:52:12Z</time></trkpt><trkpt lat="45.7501777126176" lon="9.759940171367413"><ele>396.0</ele><time>2026-03-27T15:52:13Z</time></trkpt><trkpt lat="45.750099147470735" lon="9.759884774590008"><ele>396.0</ele><time>2026-03-27T15:52:14Z</time></trkpt><trkpt lat="45.75001586096644" lon="9.759830862223462"><ele>396.0</ele><time>2026-03-27T15:52:15Z</time></trkpt><trkpt lat="45.749933555632694" lon="9.759769933167012"><ele>396.0</ele><time>2026-03-27T15:52:16Z</time></trkpt><trkpt lat="45.749848488418806" lon="9.759712794351865"><ele>396.0</ele><time>2026-03-27T15:52:17Z</time></trkpt><trkpt lat="45.749763805519734" lon="9.759657989246197"><ele>396.0</ele><time>2026-03-27T15:52:18Z</time></trkpt><trkpt lat="45.74967967128717" lon="9.759601187505533"><ele>396.0</ele><time>2026-03-27T15:52:19Z</time></trkpt><trkpt lat="45.7495959907934" lon="9.759539641774213"><ele>396.0</ele><time>2026-03-27T15:52:20Z</time></trkpt><trkpt lat="45.749514639509826" lon="9.759461038695369"><ele>396.0</ele><time>2026-03-27T15:52:21Z</time></trkpt><trkpt lat="45.749440408847455" lon="9.759369566877117"><ele>396.0</ele><time>2026-03-27T15:52:22Z</time></trkpt><trkpt lat="45.74937019848019" lon="9.759272047823924"><ele>395.4</ele><time>2026-03-27T15:52:23Z</time></trkpt><trkpt lat="45.749295598719975" lon="9.759181417245989"><ele>394.8</ele><time>2026-03-27T15:52:24Z</time></trkpt><trkpt lat="45.74920777430597" lon="9.759118093231018"><ele>394.2</ele><time>2026-03-27T15:52:25Z</time></trkpt><trkpt lat="45.74910980046565" lon="9.759084461580143"><ele>393.59999999999997</ele><time>2026-03-27T15:52:26Z</time></trkpt><trkpt lat="45.74900949793744" lon="9.759079827724435"><ele>393.0</ele><time>2026-03-27T15:52:27Z</time></trkpt><trkpt lat="45.74890881871293" lon="9.759094371981494"><ele>393.0</ele><time>2026-03-27T15:52:28Z</time></trkpt><trkpt lat="45.748812670614534" lon="9.759096043135745"><ele>393.0</ele><time>2026-03-27T15:52:29Z</time></trkpt><trkpt lat="45.74871423744825" lon="9.75909127061947"><ele>393.0</ele><time>2026-03-27T15:52:30Z</time></trkpt><trkpt lat="45.748618007501825" lon="9.759081923562395"><ele>393.0</ele><time>2026-03-27T15:52:31Z</time></trkpt><trkpt lat="45.74852150604934" lon="9.759071185115516"><ele>393.0</ele><time>2026-03-27T15:52:32Z</time></trkpt><trkpt lat="45.74842565950022" lon="9.75905597679073"><ele>391.79999999999995</ele><time>2026-03-27T15:52:33Z</time></trkpt><trkpt lat="45.74832852004972" lon="9.759032392145164"><ele>390.6</ele><time>2026-03-27T15:52:34Z</time></trkpt><trkpt lat="45.74823523551794" lon="9.758980031245693"><ele>389.4</ele><time>2026-03-27T15:52:35Z</time></trkpt><trkpt lat="45.74815670000093" lon="9.758888622065053"><ele>388.20000000000005</ele><time>2026-03-27T15:52:36Z</time></trkpt><trkpt lat="45.74808777378757" lon="9.758780799845784"><ele>387.0</ele><time>2026-03-27T15:52:37Z</time></trkpt><trkpt lat="45.748029051667004" lon="9.758681024068816"><ele>387.0</ele><time>2026-03-27T15:52:38Z</time></trkpt><trkpt lat="45.74795533955707" lon="9.758606980513598"><ele>387.0</ele><time>2026-03-27T15:52:39Z</time></trkpt><trkpt lat="45.747872935315115" lon="9.758556665899851"><ele>387.0</ele><time>2026-03-27T15:52:40Z</time></trkpt><trkpt lat="45.74779200979372" lon="9.758514056893915"><ele>387.0</ele><time>2026-03-27T15:52:41Z</time></trkpt><trkpt lat="45.74769908409944" lon="9.75847087740847"><ele>387.0</ele><time>2026-03-27T15:52:42Z</time></trkpt><trkpt lat="45.747614223526966" lon="9.758444674944087"><ele>385.0</ele><time>2026-03-27T15:52:43Z</time></trkpt><trkpt lat="45.74752763814885" lon="9.75841577632191"><ele>383.0</ele><time>2026-03-27T15:52:44Z</time></trkpt><trkpt lat="45.74743798377728" lon="9.758394867405094"><ele>381.0</ele><time>2026-03-27T15:52:45Z</time></trkpt><trkpt lat="45.74734520233323" lon="9.758397875136794"><ele>379.0</ele><time>2026-03-27T15:52:46Z</time></trkpt><trkpt lat="45.747253364597896" lon="9.758393134429516"><ele>377.0</ele><time>2026-03-27T15:52:47Z</time></trkpt><trkpt lat="45.74715822036359" lon="9.758400058819552"><ele>377.0</ele><time>2026-03-27T15:52:48Z</time></trkpt><trkpt lat="45.74706781000961" lon="9.758420054785027"><ele>377.0</ele><time>2026-03-27T15:52:49Z</time></trkpt><trkpt lat="45.74697509758668" lon="9.758431093222981"><ele>377.0</ele><time>2026-03-27T15:52:50Z</time></trkpt><trkpt lat="45.74688241416658" lon="9.758448056402825"><ele>377.0</ele><time>2026-03-27T15:52:51Z</time></trkpt><trkpt lat="45.74679036053084" lon="9.758473251621872"><ele>377.0</ele><time>2026-03-27T15:52:52Z</time></trkpt><trkpt lat="45.746696887553746" lon="9.758507326000933"><ele>378.8</ele><time>2026-03-27T15:52:53Z</time></trkpt><trkpt lat="45.74660514591883" lon="9.75855365630812"><ele>380.6</ele><time>2026-03-27T15:52:54Z</time></trkpt><trkpt lat="45.74651395122872" lon="9.75861510069302"><ele>382.40000000000003</ele><time>2026-03-27T15:52:55Z</time></trkpt><trkpt lat="45.74642469058838" lon="9.758679075661716"><ele>384.20000000000005</ele><time>2026-03-27T15:52:56Z</time></trkpt><trkpt lat="45.74632312178065" lon="9.758719647166958"><ele>386.0</ele><time>2026-03-27T15:52:57Z</time></trkpt><trkpt lat="45.74622329789866" lon="9.758745400198146"><ele>385.99999999999994</ele><time>2026-03-27T15:52:58Z</time></trkpt><trkpt lat="45.746136425886945" lon="9.758759451501163"><ele>386.0</ele><time>2026-03-27T15:52:59Z</time></trkpt><trkpt lat="45.746059675621446" lon="9.758790851115005"><ele>386.0</ele><time>2026-03-27T15:53:00Z</time></trkpt><trkpt lat="45.74599743944563" lon="9.758869888969576"><ele>386.0</ele><time>2026-03-27T15:53:01Z</time></trkpt><trkpt lat="45.74596417811558" lon="9.758992283538277"><ele>385.99999999999994</ele><time>2026-03-27T15:53:02Z</time></trkpt><trkpt lat="45.745964692191535" lon="9.759135572994515"><ele>386.0</ele><time>2026-03-27T15:53:03Z</time></trkpt><trkpt lat="45.745972771146114" lon="9.759269686551264"><ele>384.4</ele><time>2026-03-27T15:53:04Z</time></trkpt><trkpt lat="45.74596765466113" lon="9.759414213454948"><ele>382.8</ele><time>2026-03-27T15:53:05Z</time></trkpt><trkpt lat="45.74596304705024" lon="9.759555930199394"><ele>381.2</ele><time>2026-03-27T15:53:06Z</time></trkpt><trkpt lat="45.74597947019974" lon="9.759701280792088"><ele>379.59999999999997</ele><time>2026-03-27T15:53:07Z</time></trkpt><trkpt lat="45.74600804191542" lon="9.7598452475116"><ele>378.0</ele><time>2026-03-27T15:53:08Z</time></trkpt><trkpt lat="45.7460632688945" lon="9.75997582067496"><ele>378.0</ele><time>2026-03-27T15:53:09Z</time></trkpt><trkpt lat="45.74613507866645" lon="9.760088404401529"><ele>378.0</ele><time>2026-03-27T15:53:10Z</time></trkpt><trkpt lat="45.74621523830962" lon="9.760190916948284"><ele>378.0</ele><time>2026-03-27T15:53:11Z</time></trkpt><trkpt lat="45.746308901495354" lon="9.760274426585543"><ele>378.0</ele><time>2026-03-27T15:53:12Z</time></trkpt><trkpt lat="45.74641238565152" lon="9.760338284296902"><ele>378.0</ele><time>2026-03-27T15:53:13Z</time></trkpt><trkpt lat="45.74651075846195" lon="9.76041060853953"><ele>374.5</ele><time>2026-03-27T15:53:14Z</time></trkpt><trkpt lat="45.74661003807259" lon="9.760497492298501"><ele>371.0</ele><time>2026-03-27T15:53:15Z</time></trkpt><trkpt lat="45.74671382681093" lon="9.760589182495977"><ele>367.5</ele><time>2026-03-27T15:53:16Z</time></trkpt><trkpt lat="45.746818850626745" lon="9.760683845463161"><ele>364.0</ele><time>2026-03-27T15:53:17Z</time></trkpt><trkpt lat="45.74692251044398" lon="9.760786453362932"><ele>364.0</ele><time>2026-03-27T15:53:18Z</time></trkpt><trkpt lat="45.74702725873231" lon="9.760895788354672"><ele>364.0</ele><time>2026-03-27T15:53:19Z</time></trkpt><trkpt lat="45.747140725661524" lon="9.760995014970833"><ele>364.0</ele><time>2026-03-27T15:53:20Z</time></trkpt><trkpt lat="45.7472586103863" lon="9.76108488240268"><ele>364.0</ele><time>2026-03-27T15:53:21Z</time></trkpt><trkpt lat="45.747372422430416" lon="9.761174034713276"><ele>359.4</ele><time>2026-03-27T15:53:22Z</time></trkpt><trkpt lat="45.74746900701214" lon="9.761262678046805"><ele>354.79999999999995</ele><time>2026-03-27T15:53:23Z</time></trkpt><trkpt lat="45.747557435543136" lon="9.76134022995172"><ele>350.20000000000005</ele><time>2026-03-27T15:53:24Z</time></trkpt><trkpt lat="45.74763323208814" lon="9.761418525151388"><ele>345.6</ele><time>2026-03-27T15:53:25Z</time></trkpt><trkpt lat="45.747698622042705" lon="9.761507094761988"><ele>341.0</ele><time>2026-03-27T15:53:26Z</time></trkpt><trkpt lat="45.74776020496558" lon="9.761593849926783"><ele>340.8</ele><time>2026-03-27T15:53:27Z</time></trkpt><trkpt lat="45.74782075134929" lon="9.761675000482201"><ele>340.6</ele><time>2026-03-27T15:53:28Z</time></trkpt><trkpt lat="45.74791308807074" lon="9.761700641901484"><ele>340.4</ele><time>2026-03-27T15:53:29Z</time></trkpt><trkpt lat="45.74800509480386" lon="9.761673166320806"><ele>340.2</ele><time>2026-03-27T15:53:30Z</time></trkpt><trkpt lat="45.748089853079016" lon="9.761597162864291"><ele>340.0</ele><time>2026-03-27T15:53:31Z</time></trkpt><trkpt lat="45.74816442910672" lon="9.761493632125976"><ele>340.0</ele><time>2026-03-27T15:53:32Z</time></trkpt><trkpt lat="45.74823367268496" lon="9.761391995373065"><ele>340.0</ele><time>2026-03-27T15:53:33Z</time></trkpt><trkpt lat="45.74829918098318" lon="9.76133419103565"><ele>340.0</ele><time>2026-03-27T15:53:34Z</time></trkpt><trkpt lat="45.748364214414316" lon="9.761334377158889"><ele>340.0</ele><time>2026-03-27T15:53:35Z</time></trkpt><trkpt lat="45.74842228321799" lon="9.76139299362265"><ele>340.0</ele><time>2026-03-27T15:53:36Z</time></trkpt><trkpt lat="45.74844511741961" lon="9.761493556267213"><ele>340.0</ele><time>2026-03-27T15:53:37Z</time></trkpt><trkpt lat="45.74841394782963" lon="9.761607293874334"><ele>340.0</ele><time>2026-03-27T15:53:38Z</time></trkpt><trkpt lat="45.74833847572163" lon="9.761682481616297"><ele>340.0</ele><time>2026-03-27T15:53:39Z</time></trkpt><trkpt lat="45.748258475000725" lon="9.761721390489408"><ele>340.0</ele><time>2026-03-27T15:53:40Z</time></trkpt><trkpt lat="45.74818922477164" lon="9.761772228680783"><ele>340.0</ele><time>2026-03-27T15:53:41Z</time></trkpt><trkpt lat="45.74812113669076" lon="9.761823917496256"><ele>340.0</ele><time>2026-03-27T15:53:42Z</time></trkpt><trkpt lat="45.74805691536908" lon="9.761874651155196"><ele>340.0</ele><time>2026-03-27T15:53:43Z</time></trkpt><trkpt lat="45.747994311829196" lon="9.761911181368532"><ele>338.7142857142857</ele><time>2026-03-27T15:53:44Z</time></trkpt><trkpt lat="45.74792945384028" lon="9.761934415908067"><ele>337.4285714285714</ele><time>2026-03-27T15:53:45Z</time></trkpt><trkpt lat="45.747864241645445" lon="9.761959578743282"><ele>336.1428571428571</ele><time>2026-03-27T15:53:46Z</time></trkpt><trkpt lat="45.74779583652475" lon="9.761982868548673"><ele>334.8571428571429</ele><time>2026-03-27T15:53:47Z</time></trkpt><trkpt lat="45.747729464261496" lon="9.761997745711884"><ele>333.57142857142856</ele><time>2026-03-27T15:53:48Z</time></trkpt><trkpt lat="45.747654759180456" lon="9.762016066277933"><ele>332.2857142857143</ele><time>2026-03-27T15:53:49Z</time></trkpt><trkpt lat="45.747578604347005" lon="9.76202854253905"><ele>331.0</ele><time>2026-03-27T15:53:50Z</time></trkpt><trkpt lat="45.74750820844626" lon="9.762015066142267"><ele>331.0</ele><time>2026-03-27T15:53:51Z</time></trkpt><trkpt lat="45.74743235593284" lon="9.762000462626192"><ele>331.0</ele><time>2026-03-27T15:53:52Z</time></trkpt><trkpt lat="45.74735628105148" lon="9.761963315438681"><ele>331.0</ele><time>2026-03-27T15:53:53Z</time></trkpt><trkpt lat="45.74728595164362" lon="9.76190629454126"><ele>331.0</ele><time>2026-03-27T15:53:54Z</time></trkpt><trkpt lat="45.74722222515955" lon="9.761844235700082"><ele>331.0</ele><time>2026-03-27T15:53:55Z</time></trkpt><trkpt lat="45.747152474895046" lon="9.761785913753101"><ele>331.0</ele><time>2026-03-27T15:53:56Z</time></trkpt><trkpt lat="45.74708202297498" lon="9.761731198337996"><ele>331.3333333333333</ele><time>2026-03-27T15:53:57Z</time></trkpt><trkpt lat="45.7470037358346" lon="9.761691917417119"><ele>331.66666666666663</ele><time>2026-03-27T15:53:58Z</time></trkpt><trkpt lat="45.74692008098484" lon="9.761650079115022"><ele>332.0</ele><time>2026-03-27T15:53:59Z</time></trkpt><trkpt lat="45.74684081629894" lon="9.76161311415652"><ele>332.3333333333333</ele><time>2026-03-27T15:54:00Z</time></trkpt><trkpt lat="45.74676061688037" lon="9.761578151120768"><ele>332.6666666666667</ele><time>2026-03-27T15:54:01Z</time></trkpt><trkpt lat="45.746680978428614" lon="9.761546789459393"><ele>333.0</ele><time>2026-03-27T15:54:02Z</time></trkpt><trkpt lat="45.74660020804142" lon="9.761533486375384"><ele>333.0</ele><time>2026-03-27T15:54:03Z</time></trkpt><trkpt lat="45.74651887303901" lon="9.761572090620337"><ele>333.0</ele><time>2026-03-27T15:54:04Z</time></trkpt><trkpt lat="45.74645388177314" lon="9.761652779288973"><ele>333.0</ele><time>2026-03-27T15:54:05Z</time></trkpt><trkpt lat="45.746415991991874" lon="9.761758193201324"><ele>333.0</ele><time>2026-03-27T15:54:06Z</time></trkpt><trkpt lat="45.7463993664546" lon="9.761875158756407"><ele>333.0</ele><time>2026-03-27T15:54:07Z</time></trkpt><trkpt lat="45.746394094439566" lon="9.761988598366903"><ele>333.0</ele><time>2026-03-27T15:54:08Z</time></trkpt><trkpt lat="45.746317826311135" lon="9.762003787424295"><ele>332.0</ele><time>2026-03-27T15:54:09Z</time></trkpt><trkpt lat="45.746255026415604" lon="9.762055043851396"><ele>331.0</ele><time>2026-03-27T15:54:10Z</time></trkpt><trkpt lat="45.74618921492835" lon="9.762105142250247"><ele>330.0</ele><time>2026-03-27T15:54:11Z</time></trkpt><trkpt lat="45.74611763384528" lon="9.762143346726154"><ele>329.0</ele><time>2026-03-27T15:54:12Z</time></trkpt><trkpt lat="45.746044779842805" lon="9.762178721299115"><ele>328.0</ele><time>2026-03-27T15:54:13Z</time></trkpt><trkpt lat="45.74597065202669" lon="9.762229490305593"><ele>327.0</ele><time>2026-03-27T15:54:14Z</time></trkpt><trkpt lat="45.74589805704964" lon="9.762273786900279"><ele>327.0</ele><time>2026-03-27T15:54:15Z</time></trkpt><trkpt lat="45.745839057442254" lon="9.762321474976904"><ele>327.0</ele><time>2026-03-27T15:54:16Z</time></trkpt><trkpt lat="45.74573390051665" lon="9.762327946180953"><ele>327.0</ele><time>2026-03-27T15:54:18Z</time></trkpt><trkpt lat="45.74567558315555" lon="9.762288341841582"><ele>327.0</ele><time>2026-03-27T15:54:19Z</time></trkpt><trkpt lat="45.745621050493625" lon="9.762243190639603"><ele>327.0</ele><time>2026-03-27T15:54:20Z</time></trkpt><trkpt lat="45.7455670878809" lon="9.762191358807568"><ele>327.0</ele><time>2026-03-27T15:54:21Z</time></trkpt><trkpt lat="45.745511647288815" lon="9.762147270869539"><ele>327.0</ele><time>2026-03-27T15:54:22Z</time></trkpt><trkpt lat="45.745456831664335" lon="9.762095056597774"><ele>327.0</ele><time>2026-03-27T15:54:23Z</time></trkpt><trkpt lat="45.74540095824443" lon="9.762047694107826"><ele>327.0</ele><time>2026-03-27T15:54:24Z</time></trkpt><trkpt lat="45.7453448116056" lon="9.762002860519214"><ele>327.0</ele><time>2026-03-27T15:54:25Z</time></trkpt><trkpt lat="45.745281933775296" lon="9.761962091844655"><ele>327.0</ele><time>2026-03-27T15:54:26Z</time></trkpt><trkpt lat="45.745222098845986" lon="9.761913553531214"><ele>327.0</ele><time>2026-03-27T15:54:27Z</time></trkpt><trkpt lat="45.74516563082196" lon="9.761871362109458"><ele>327.0</ele><time>2026-03-27T15:54:28Z</time></trkpt><trkpt lat="45.74510845465844" lon="9.761824445312651"><ele>327.0</ele><time>2026-03-27T15:54:29Z</time></trkpt><trkpt lat="45.74505078505067" lon="9.761778311044349"><ele>326.7142857142857</ele><time>2026-03-27T15:54:30Z</time></trkpt><trkpt lat="45.74498682416837" lon="9.761734661380144"><ele>326.42857142857144</ele><time>2026-03-27T15:54:31Z</time></trkpt><trkpt lat="45.74492600298031" lon="9.761691322584664"><ele>326.1428571428571</ele><time>2026-03-27T15:54:32Z</time></trkpt><trkpt lat="45.744870867846984" lon="9.761646225235424"><ele>325.8571428571429</ele><time>2026-03-27T15:54:33Z</time></trkpt><trkpt lat="45.74481293695846" lon="9.761588979942248"><ele>325.5714285714286</ele><time>2026-03-27T15:54:34Z</time></trkpt><trkpt lat="45.74475110376127" lon="9.7615444147536"><ele>325.2857142857143</ele><time>2026-03-27T15:54:35Z</time></trkpt><trkpt lat="45.74468959298452" lon="9.76149923314454"><ele>325.0</ele><time>2026-03-27T15:54:36Z</time></trkpt><trkpt lat="45.74463027486747" lon="9.76143961073883"><ele>325.0</ele><time>2026-03-27T15:54:37Z</time></trkpt><trkpt lat="45.744577068683746" lon="9.761374152115842"><ele>325.0</ele><time>2026-03-27T15:54:38Z</time></trkpt><trkpt lat="45.74452438033057" lon="9.761308532582422"><ele>325.0</ele><time>2026-03-27T15:54:39Z</time></trkpt><trkpt lat="45.744472096885026" lon="9.76124308856837"><ele>325.0</ele><time>2026-03-27T15:54:40Z</time></trkpt><trkpt lat="45.74442766499826" lon="9.761171568977042"><ele>325.0</ele><time>2026-03-27T15:54:41Z</time></trkpt><trkpt lat="45.744383762304885" lon="9.761097106345096"><ele>325.0</ele><time>2026-03-27T15:54:42Z</time></trkpt><trkpt lat="45.74434164773438" lon="9.761024989958871"><ele>325.0</ele><time>2026-03-27T15:54:43Z</time></trkpt><trkpt lat="45.74430455098469" lon="9.760944438074254"><ele>324.0</ele><time>2026-03-27T15:54:44Z</time></trkpt><trkpt lat="45.7442419954469" lon="9.76079171289776"><ele>323.0</ele><time>2026-03-27T15:54:46Z</time></trkpt><trkpt lat="45.74419802399444" lon="9.76063611787684"><ele>322.0</ele><time>2026-03-27T15:54:48Z</time></trkpt><trkpt lat="45.7441500440098" lon="9.760480095630811"><ele>321.0</ele><time>2026-03-27T15:54:50Z</time></trkpt><trkpt lat="45.74409798041959" lon="9.760333508050515"><ele>320.6</ele><time>2026-03-27T15:54:52Z</time></trkpt><trkpt lat="45.744052414718205" lon="9.760189117131473"><ele>320.20000000000005</ele><time>2026-03-27T15:54:54Z</time></trkpt><trkpt lat="45.74400292933374" lon="9.760054800504506"><ele>319.79999999999995</ele><time>2026-03-27T15:54:56Z</time></trkpt><trkpt lat="45.74395415211877" lon="9.759925914493381"><ele>319.4</ele><time>2026-03-27T15:54:58Z</time></trkpt><trkpt lat="45.74390829474194" lon="9.759797952551963"><ele>319.0</ele><time>2026-03-27T15:55:00Z</time></trkpt><trkpt lat="45.74386445114829" lon="9.759673187905006"><ele>319.0</ele><time>2026-03-27T15:55:02Z</time></trkpt><trkpt lat="45.7437845617207" lon="9.7596070429831"><ele>319.0</ele><time>2026-03-27T15:55:04Z</time></trkpt><trkpt lat="45.74368269906905" lon="9.759647673745844"><ele>319.0</ele><time>2026-03-27T15:55:06Z</time></trkpt><trkpt lat="45.74358647227723" lon="9.759683323804616"><ele>319.0</ele><time>2026-03-27T15:55:08Z</time></trkpt><trkpt lat="45.74346416268303" lon="9.759723123233675"><ele>319.0</ele><time>2026-03-27T15:55:10Z</time></trkpt><trkpt lat="45.743396305866796" lon="9.759732810969124"><ele>318.3333333333333</ele><time>2026-03-27T15:55:11Z</time></trkpt><trkpt lat="45.743319999088826" lon="9.759751430281918"><ele>317.66666666666663</ele><time>2026-03-27T15:55:12Z</time></trkpt><trkpt lat="45.74323612499203" lon="9.759759937048782"><ele>317.0</ele><time>2026-03-27T15:55:13Z</time></trkpt><trkpt lat="45.743162861073586" lon="9.759769376036939"><ele>316.3333333333333</ele><time>2026-03-27T15:55:14Z</time></trkpt><trkpt lat="45.743087880500305" lon="9.759774529797124"><ele>315.6666666666667</ele><time>2026-03-27T15:55:15Z</time></trkpt><trkpt lat="45.74301193286926" lon="9.759727582874705"><ele>315.0</ele><time>2026-03-27T15:55:17Z</time></trkpt><trkpt lat="45.7429667236832" lon="9.759563717731043"><ele>315.0</ele><time>2026-03-27T15:55:19Z</time></trkpt><trkpt lat="45.74295213221295" lon="9.759461306803008"><ele>315.0</ele><time>2026-03-27T15:55:20Z</time></trkpt><trkpt lat="45.742896898901755" lon="9.759359463007424"><ele>315.0</ele><time>2026-03-27T15:55:21Z</time></trkpt><trkpt lat="45.74280921987214" lon="9.759367295250733"><ele>315.0</ele><time>2026-03-27T15:55:22Z</time></trkpt><trkpt lat="45.74272034178839" lon="9.759248858861707"><ele>315.0</ele><time>2026-03-27T15:55:24Z</time></trkpt><trkpt lat="45.7426626852326" lon="9.759098873637656"><ele>314.5</ele><time>2026-03-27T15:55:26Z</time></trkpt><trkpt lat="45.74260351194118" lon="9.758945207738364"><ele>314.0</ele><time>2026-03-27T15:55:28Z</time></trkpt><trkpt lat="45.74254530831541" lon="9.758793975001922"><ele>313.5</ele><time>2026-03-27T15:55:30Z</time></trkpt><trkpt lat="45.74249337962077" lon="9.75863216094519"><ele>313.0</ele><time>2026-03-27T15:55:32Z</time></trkpt><trkpt lat="45.742439763387004" lon="9.75847085673817"><ele>313.0</ele><time>2026-03-27T15:55:34Z</time></trkpt><trkpt lat="45.742384789918255" lon="9.758320564818188"><ele>313.0</ele><time>2026-03-27T15:55:36Z</time></trkpt><trkpt lat="45.74233135472482" lon="9.7581662651988"><ele>313.0</ele><time>2026-03-27T15:55:38Z</time></trkpt><trkpt lat="45.74227497780918" lon="9.758008905748413"><ele>313.0</ele><time>2026-03-27T15:55:40Z</time></trkpt><trkpt lat="45.7422310135331" lon="9.7578466909806"><ele>313.16666666666663</ele><time>2026-03-27T15:55:42Z</time></trkpt><trkpt lat="45.74219886682446" lon="9.757676241009253"><ele>313.3333333333333</ele><time>2026-03-27T15:55:44Z</time></trkpt><trkpt lat="45.742151841712456" lon="9.757510604902933"><ele>313.5</ele><time>2026-03-27T15:55:46Z</time></trkpt><trkpt lat="45.74212574354794" lon="9.757426794127491"><ele>313.6666666666667</ele><time>2026-03-27T15:55:47Z</time></trkpt><trkpt lat="45.742092386851716" lon="9.757348737606476"><ele>313.83333333333337</ele><time>2026-03-27T15:55:48Z</time></trkpt><trkpt lat="45.74205729268166" lon="9.757270931572918"><ele>314.0</ele><time>2026-03-27T15:55:49Z</time></trkpt><trkpt lat="45.74198196086161" lon="9.757121510362676"><ele>314.0</ele><time>2026-03-27T15:55:51Z</time></trkpt><trkpt lat="45.74192158261805" lon="9.756970177555802"><ele>314.0</ele><time>2026-03-27T15:55:53Z</time></trkpt><trkpt lat="45.74186589008672" lon="9.75682380549711"><ele>314.0</ele><time>2026-03-27T15:55:55Z</time></trkpt><trkpt lat="45.7418192095377" lon="9.756679102413155"><ele>314.0</ele><time>2026-03-27T15:55:57Z</time></trkpt><trkpt lat="45.741768979705064" lon="9.756533208693915"><ele>313.8</ele><time>2026-03-27T15:55:59Z</time></trkpt><trkpt lat="45.74172199940831" lon="9.75638127807659"><ele>313.59999999999997</ele><time>2026-03-27T15:56:01Z</time></trkpt><trkpt lat="45.7416630269115" lon="9.756219021503709"><ele>313.4</ele><time>2026-03-27T15:56:03Z</time></trkpt><trkpt lat="45.74163365583073" lon="9.75613694021982"><ele>313.2</ele><time>2026-03-27T15:56:04Z</time></trkpt><trkpt lat="45.74160433663484" lon="9.756055423415027"><ele>313.0</ele><time>2026-03-27T15:56:05Z</time></trkpt><trkpt lat="45.741548685259275" lon="9.755892728626396"><ele>313.0</ele><time>2026-03-27T15:56:07Z</time></trkpt><trkpt lat="45.74148945651947" lon="9.755731120397147"><ele>313.0</ele><time>2026-03-27T15:56:09Z</time></trkpt><trkpt lat="45.74145852845189" lon="9.75565178660259"><ele>313.0</ele><time>2026-03-27T15:56:10Z</time></trkpt><trkpt lat="45.74143227045349" lon="9.755566337430071"><ele>313.0</ele><time>2026-03-27T15:56:11Z</time></trkpt><trkpt lat="45.74137982715439" lon="9.755406219598829"><ele>313.0</ele><time>2026-03-27T15:56:13Z</time></trkpt><trkpt lat="45.74134843347068" lon="9.755319347687893"><ele>313.0</ele><time>2026-03-27T15:56:14Z</time></trkpt><trkpt lat="45.741316008029926" lon="9.75523724560082"><ele>313.16666666666663</ele><time>2026-03-27T15:56:15Z</time></trkpt><trkpt lat="45.74128863425107" lon="9.75515389130014"><ele>313.3333333333333</ele><time>2026-03-27T15:56:16Z</time></trkpt><trkpt lat="45.74125811767529" lon="9.755070797518819"><ele>313.5</ele><time>2026-03-27T15:56:17Z</time></trkpt><trkpt lat="45.74119993970316" lon="9.754914315887884"><ele>313.6666666666667</ele><time>2026-03-27T15:56:19Z</time></trkpt><trkpt lat="45.741174062561676" lon="9.754830709321404"><ele>313.83333333333337</ele><time>2026-03-27T15:56:20Z</time></trkpt><trkpt lat="45.74112381118494" lon="9.754682745162993"><ele>314.0</ele><time>2026-03-27T15:56:22Z</time></trkpt><trkpt lat="45.741074737763974" lon="9.754531363655378"><ele>313.59999999999997</ele><time>2026-03-27T15:56:24Z</time></trkpt><trkpt lat="45.74102756893694" lon="9.754384975393554"><ele>313.2</ele><time>2026-03-27T15:56:26Z</time></trkpt><trkpt lat="45.74097188269274" lon="9.754247125380559"><ele>312.79999999999995</ele><time>2026-03-27T15:56:28Z</time></trkpt><trkpt lat="45.7409292709816" lon="9.754111725375598"><ele>312.4</ele><time>2026-03-27T15:56:30Z</time></trkpt><trkpt lat="45.740878694253425" lon="9.75397652237167"><ele>312.0</ele><time>2026-03-27T15:56:32Z</time></trkpt><trkpt lat="45.740838289201136" lon="9.75384584664099"><ele>311.6666666666667</ele><time>2026-03-27T15:56:34Z</time></trkpt><trkpt lat="45.74079560493948" lon="9.753724905875472"><ele>311.3333333333333</ele><time>2026-03-27T15:56:36Z</time></trkpt><trkpt lat="45.740753518234676" lon="9.753610725414989"><ele>311.0</ele><time>2026-03-27T15:56:38Z</time></trkpt><trkpt lat="45.740702793613636" lon="9.753504566746395"><ele>310.66666666666663</ele><time>2026-03-27T15:56:40Z</time></trkpt><trkpt lat="45.740677368702265" lon="9.753401287503275"><ele>310.3333333333333</ele><time>2026-03-27T15:56:42Z</time></trkpt><trkpt lat="45.74065692166341" lon="9.753302813817731"><ele>310.0</ele><time>2026-03-27T15:56:44Z</time></trkpt><trkpt lat="45.74060002206591" lon="9.753182582156033"><ele>310.2</ele><time>2026-03-27T15:56:46Z</time></trkpt><trkpt lat="45.74053819398831" lon="9.753026000126543"><ele>310.4</ele><time>2026-03-27T15:56:48.001Z</time></trkpt><trkpt lat="45.74050065980304" lon="9.752941245174345"><ele>310.6</ele><time>2026-03-27T15:56:49.001Z</time></trkpt><trkpt lat="45.74047094452593" lon="9.752855283058784"><ele>310.8</ele><time>2026-03-27T15:56:50.001Z</time></trkpt><trkpt lat="45.740448773087024" lon="9.752765219389278"><ele>311.0</ele><time>2026-03-27T15:56:51.001Z</time></trkpt><trkpt lat="45.740408764691026" lon="9.752600413102702"><ele>311.0</ele><time>2026-03-27T15:56:53.001Z</time></trkpt><trkpt lat="45.74032194089269" lon="9.752564521306995"><ele>311.0</ele><time>2026-03-27T15:56:55.001Z</time></trkpt><trkpt lat="45.74027977882429" lon="9.752632552216433"><ele>311.0</ele><time>2026-03-27T15:56:56.001Z</time></trkpt><trkpt lat="45.740271472221366" lon="9.752731845600824"><ele>311.0</ele><time>2026-03-27T15:56:57.001Z</time></trkpt><trkpt lat="45.74030374896463" lon="9.75282295345898"><ele>311.0</ele><time>2026-03-27T15:56:58.001Z</time></trkpt><trkpt lat="45.74036069353541" lon="9.752874978922335"><ele>311.0</ele><time>2026-03-27T15:56:59.001Z</time></trkpt><trkpt lat="45.74041208200095" lon="9.752936090349543"><ele>311.0</ele><time>2026-03-27T15:57:00.001Z</time></trkpt><trkpt lat="45.74045697418068" lon="9.753000693154826"><ele>310.40000000000003</ele><time>2026-03-27T15:57:01.001Z</time></trkpt><trkpt lat="45.740514598226014" lon="9.753147213795373"><ele>309.8</ele><time>2026-03-27T15:57:03.001Z</time></trkpt><trkpt lat="45.74054132105813" lon="9.753293209671472"><ele>309.20000000000005</ele><time>2026-03-27T15:57:05.001Z</time></trkpt><trkpt lat="45.740481428485026" lon="9.753414357450513"><ele>308.6</ele><time>2026-03-27T15:57:07.001Z</time></trkpt><trkpt lat="45.74042054836722" lon="9.75343845378177"><ele>308.0</ele><time>2026-03-27T15:57:08.001Z</time></trkpt><trkpt lat="45.74035724552119" lon="9.753469366208309"><ele>308.0</ele><time>2026-03-27T15:57:09.001Z</time></trkpt><trkpt lat="45.7402938732558" lon="9.75350046931782"><ele>308.0</ele><time>2026-03-27T15:57:10.001Z</time></trkpt><trkpt lat="45.74022667082875" lon="9.753534899437067"><ele>308.0</ele><time>2026-03-27T15:57:11.001Z</time></trkpt><trkpt lat="45.740156344685026" lon="9.753567520647524"><ele>308.0</ele><time>2026-03-27T15:57:12.001Z</time></trkpt><trkpt lat="45.74008207089116" lon="9.75360410934886"><ele>308.0</ele><time>2026-03-27T15:57:13.001Z</time></trkpt><trkpt lat="45.74001145794854" lon="9.753645553753259"><ele>308.0</ele><time>2026-03-27T15:57:14.001Z</time></trkpt><trkpt lat="45.73993638308468" lon="9.75370058207043"><ele>307.33333333333337</ele><time>2026-03-27T15:57:15.001Z</time></trkpt><trkpt lat="45.73986564508837" lon="9.753736183414382"><ele>306.6666666666667</ele><time>2026-03-27T15:57:16.001Z</time></trkpt><trkpt lat="45.73979196732215" lon="9.753759180416301"><ele>306.0</ele><time>2026-03-27T15:57:17.001Z</time></trkpt><trkpt lat="45.73971529424139" lon="9.753771696071531"><ele>305.3333333333333</ele><time>2026-03-27T15:57:18.001Z</time></trkpt><trkpt lat="45.739639952315294" lon="9.753772282185352"><ele>304.66666666666663</ele><time>2026-03-27T15:57:19.001Z</time></trkpt><trkpt lat="45.73955302877206" lon="9.75379043509981"><ele>304.0</ele><time>2026-03-27T15:57:20.001Z</time></trkpt><trkpt lat="45.7394701625999" lon="9.753800071113963"><ele>304.0</ele><time>2026-03-27T15:57:21.001Z</time></trkpt><trkpt lat="45.739384719683166" lon="9.753811983190694"><ele>304.0</ele><time>2026-03-27T15:57:22.001Z</time></trkpt><trkpt lat="45.739297787791806" lon="9.753825346674518"><ele>304.0</ele><time>2026-03-27T15:57:23.001Z</time></trkpt><trkpt lat="45.73920753123521" lon="9.753841525950492"><ele>304.0</ele><time>2026-03-27T15:57:24.001Z</time></trkpt><trkpt lat="45.73912332518268" lon="9.753850723557788"><ele>304.0</ele><time>2026-03-27T15:57:25.001Z</time></trkpt><trkpt lat="45.73903703014565" lon="9.753859718387806"><ele>304.0</ele><time>2026-03-27T15:57:26.001Z</time></trkpt><trkpt lat="45.73895015243646" lon="9.753865751983417"><ele>303.3333333333333</ele><time>2026-03-27T15:57:27.001Z</time></trkpt><trkpt lat="45.7388650291751" lon="9.753866013245075"><ele>302.66666666666663</ele><time>2026-03-27T15:57:28.001Z</time></trkpt><trkpt lat="45.738778089533795" lon="9.753861474596414"><ele>302.0</ele><time>2026-03-27T15:57:29.001Z</time></trkpt><trkpt lat="45.73869224752517" lon="9.753859512660549"><ele>301.3333333333333</ele><time>2026-03-27T15:57:30.001Z</time></trkpt><trkpt lat="45.73860315516606" lon="9.753860291281127"><ele>300.6666666666667</ele><time>2026-03-27T15:57:31.001Z</time></trkpt><trkpt lat="45.73851808545456" lon="9.753851329493711"><ele>300.0</ele><time>2026-03-27T15:57:32.001Z</time></trkpt><trkpt lat="45.73845375597516" lon="9.753809354064389"><ele>299.57142857142856</ele><time>2026-03-27T15:57:33.001Z</time></trkpt><trkpt lat="45.73841504607197" lon="9.75373354581303"><ele>299.1428571428571</ele><time>2026-03-27T15:57:34Z</time></trkpt><trkpt lat="45.73839572396232" lon="9.753627524143422"><ele>298.7142857142857</ele><time>2026-03-27T15:57:35Z</time></trkpt><trkpt lat="45.738391552034805" lon="9.753531655453855"><ele>298.2857142857143</ele><time>2026-03-27T15:57:36Z</time></trkpt><trkpt lat="45.738384607896336" lon="9.753437787089883"><ele>297.8571428571429</ele><time>2026-03-27T15:57:37Z</time></trkpt><trkpt lat="45.73837431180024" lon="9.753346684928523"><ele>297.42857142857144</ele><time>2026-03-27T15:57:38Z</time></trkpt><trkpt lat="45.73836050851268" lon="9.753254805936914"><ele>297.0</ele><time>2026-03-27T15:57:39Z</time></trkpt><trkpt lat="45.73834879632702" lon="9.753161309481852"><ele>296.7142857142857</ele><time>2026-03-27T15:57:40Z</time></trkpt><trkpt lat="45.738331733895315" lon="9.753070748613467"><ele>296.42857142857144</ele><time>2026-03-27T15:57:41Z</time></trkpt><trkpt lat="45.73831919568408" lon="9.752980343262175"><ele>296.14285714285717</ele><time>2026-03-27T15:57:42Z</time></trkpt><trkpt lat="45.7383074709237" lon="9.75288897845463"><ele>295.8571428571429</ele><time>2026-03-27T15:57:43Z</time></trkpt><trkpt lat="45.738295518704284" lon="9.752798180525309"><ele>295.57142857142856</ele><time>2026-03-27T15:57:44Z</time></trkpt><trkpt lat="45.7382773675519" lon="9.75270545137384"><ele>295.28571428571433</ele><time>2026-03-27T15:57:45Z</time></trkpt><trkpt lat="45.73825670984841" lon="9.752618048691744"><ele>295.0</ele><time>2026-03-27T15:57:46Z</time></trkpt><trkpt lat="45.73823676668969" lon="9.752530278357955"><ele>295.00000000000006</ele><time>2026-03-27T15:57:47Z</time></trkpt><trkpt lat="45.738214762419105" lon="9.752444823729943"><ele>295.0</ele><time>2026-03-27T15:57:48Z</time></trkpt><trkpt lat="45.73818904813023" lon="9.75235641509135"><ele>295.0</ele><time>2026-03-27T15:57:49Z</time></trkpt><trkpt lat="45.738160460925805" lon="9.752269984133122"><ele>295.0</ele><time>2026-03-27T15:57:50Z</time></trkpt><trkpt lat="45.73813054265195" lon="9.752184215120305"><ele>295.0</ele><time>2026-03-27T15:57:51Z</time></trkpt><trkpt lat="45.73809721909248" lon="9.752099137132939"><ele>295.00000000000006</ele><time>2026-03-27T15:57:52Z</time></trkpt><trkpt lat="45.738071027200306" lon="9.752016844025398"><ele>295.0</ele><time>2026-03-27T15:57:53Z</time></trkpt><trkpt lat="45.7380430142278" lon="9.751931329941828"><ele>294.8333333333333</ele><time>2026-03-27T15:57:54Z</time></trkpt><trkpt lat="45.73797451110368" lon="9.751772036387989"><ele>294.66666666666663</ele><time>2026-03-27T15:57:56Z</time></trkpt><trkpt lat="45.73794055017964" lon="9.75169280840135"><ele>294.5</ele><time>2026-03-27T15:57:57Z</time></trkpt><trkpt lat="45.73791006653124" lon="9.751606104437975"><ele>294.3333333333333</ele><time>2026-03-27T15:57:58Z</time></trkpt><trkpt lat="45.73788147037183" lon="9.751525541124357"><ele>294.1666666666667</ele><time>2026-03-27T15:57:59Z</time></trkpt><trkpt lat="45.73785029177069" lon="9.751446573795558"><ele>294.0</ele><time>2026-03-27T15:58:00Z</time></trkpt><trkpt lat="45.73781857786474" lon="9.751368096803501"><ele>294.0</ele><time>2026-03-27T15:58:01Z</time></trkpt><trkpt lat="45.73778155669359" lon="9.751293911277308"><ele>294.0</ele><time>2026-03-27T15:58:02Z</time></trkpt><trkpt lat="45.73774468905397" lon="9.751220435301168"><ele>294.0</ele><time>2026-03-27T15:58:03Z</time></trkpt><trkpt lat="45.73766715062701" lon="9.751081907468274"><ele>294.0</ele><time>2026-03-27T15:58:05Z</time></trkpt><trkpt lat="45.73758356641516" lon="9.750950213132858"><ele>294.0</ele><time>2026-03-27T15:58:07Z</time></trkpt><trkpt lat="45.73750082362476" lon="9.750820047778358"><ele>293.59999999999997</ele><time>2026-03-27T15:58:09Z</time></trkpt><trkpt lat="45.73745772474151" lon="9.750751806329312"><ele>293.2</ele><time>2026-03-27T15:58:10Z</time></trkpt><trkpt lat="45.73737571231718" lon="9.750623440817249"><ele>292.79999999999995</ele><time>2026-03-27T15:58:12Z</time></trkpt><trkpt lat="45.73729418490415" lon="9.75049379032765"><ele>292.4</ele><time>2026-03-27T15:58:14Z</time></trkpt><trkpt lat="45.73721686331673" lon="9.750370819209827"><ele>292.0</ele><time>2026-03-27T15:58:16Z</time></trkpt><trkpt lat="45.737142837506475" lon="9.750264375024326"><ele>292.0</ele><time>2026-03-27T15:58:18Z</time></trkpt><trkpt lat="45.73707877324452" lon="9.750158970909002"><ele>292.0</ele><time>2026-03-27T15:58:20Z</time></trkpt><trkpt lat="45.73701271272988" lon="9.750061487712536"><ele>292.0</ele><time>2026-03-27T15:58:22Z</time></trkpt><trkpt lat="45.73693207446821" lon="9.749938104271354"><ele>292.0</ele><time>2026-03-27T15:58:24Z</time></trkpt><trkpt lat="45.736848118613814" lon="9.749827926065171"><ele>292.0</ele><time>2026-03-27T15:58:26Z</time></trkpt><trkpt lat="45.73680394396506" lon="9.749684739794803"><ele>292.0</ele><time>2026-03-27T15:58:28Z</time></trkpt><trkpt lat="45.7367902975854" lon="9.74952493684745"><ele>292.0</ele><time>2026-03-27T15:58:30.001Z</time></trkpt><trkpt lat="45.736720545110735" lon="9.749405201166478"><ele>292.0</ele><time>2026-03-27T15:58:32.001Z</time></trkpt><trkpt lat="45.736602647297794" lon="9.749435482130323"><ele>292.0</ele><time>2026-03-27T15:58:34.001Z</time></trkpt><trkpt lat="45.73656397144659" lon="9.749595342727629"><ele>292.0</ele><time>2026-03-27T15:58:36.001Z</time></trkpt><trkpt lat="45.736526223164574" lon="9.749722729422135"><ele>292.0</ele><time>2026-03-27T15:58:38.001Z</time></trkpt><trkpt lat="45.73642447271997" lon="9.749771701228317"><ele>292.0</ele><time>2026-03-27T15:58:40.001Z</time></trkpt><trkpt lat="45.736324161886245" lon="9.749828832126354"><ele>292.0</ele><time>2026-03-27T15:58:42.001Z</time></trkpt><trkpt lat="45.73621362274806" lon="9.749914975103659"><ele>292.0</ele><time>2026-03-27T15:58:44.001Z</time></trkpt><trkpt lat="45.73615004574624" lon="9.749958702727277"><ele>292.0</ele><time>2026-03-27T15:58:45.001Z</time></trkpt><trkpt lat="45.736086928519285" lon="9.749996986975583"><ele>292.0</ele><time>2026-03-27T15:58:46.001Z</time></trkpt><trkpt lat="45.736024819351876" lon="9.750042274720569"><ele>292.0</ele><time>2026-03-27T15:58:47.001Z</time></trkpt><trkpt lat="45.735961991624094" lon="9.750088174833513"><ele>292.0</ele><time>2026-03-27T15:58:48.001Z</time></trkpt><trkpt lat="45.73591005080663" lon="9.750140375755635"><ele>292.0</ele><time>2026-03-27T15:58:49.001Z</time></trkpt><trkpt lat="45.735863828864304" lon="9.750216738731563"><ele>292.0</ele><time>2026-03-27T15:58:50.001Z</time></trkpt><trkpt lat="45.73577318575585" lon="9.750341296318956"><ele>291.4</ele><time>2026-03-27T15:58:52Z</time></trkpt><trkpt lat="45.73568713959954" lon="9.75047618640888"><ele>290.79999999999995</ele><time>2026-03-27T15:58:54Z</time></trkpt><trkpt lat="45.73564057196647" lon="9.750543273629894"><ele>290.2</ele><time>2026-03-27T15:58:55Z</time></trkpt><trkpt lat="45.73560013782513" lon="9.750612740594825"><ele>289.59999999999997</ele><time>2026-03-27T15:58:56Z</time></trkpt><trkpt lat="45.73551599390831" lon="9.750745548774614"><ele>289.0</ele><time>2026-03-27T15:58:58Z</time></trkpt><trkpt lat="45.735421299827436" lon="9.750863591144546"><ele>289.0</ele><time>2026-03-27T15:59:00Z</time></trkpt><trkpt lat="45.73531868138442" lon="9.750965892916211"><ele>289.0</ele><time>2026-03-27T15:59:02Z</time></trkpt><trkpt lat="45.73521219926989" lon="9.75105057814022"><ele>289.0</ele><time>2026-03-27T15:59:04Z</time></trkpt><trkpt lat="45.735100638438" lon="9.751132488669734"><ele>289.0</ele><time>2026-03-27T15:59:06Z</time></trkpt><trkpt lat="45.73504229806069" lon="9.751174642980013"><ele>289.0</ele><time>2026-03-27T15:59:07Z</time></trkpt><trkpt lat="45.73498405219866" lon="9.751212446214419"><ele>289.0</ele><time>2026-03-27T15:59:08Z</time></trkpt><trkpt lat="45.7349251556091" lon="9.751247615483075"><ele>289.0</ele><time>2026-03-27T15:59:09Z</time></trkpt><trkpt lat="45.73486577747493" lon="9.751287805159032"><ele>289.0</ele><time>2026-03-27T15:59:10Z</time></trkpt><trkpt lat="45.734804538198595" lon="9.75131521416855"><ele>289.0</ele><time>2026-03-27T15:59:11Z</time></trkpt><trkpt lat="45.73468330508147" lon="9.75137636430006"><ele>289.0</ele><time>2026-03-27T15:59:13Z</time></trkpt><trkpt lat="45.734561699988745" lon="9.751436189593623"><ele>289.0</ele><time>2026-03-27T15:59:15Z</time></trkpt><trkpt lat="45.73446317034447" lon="9.751526923587868"><ele>289.0</ele><time>2026-03-27T15:59:17Z</time></trkpt><trkpt lat="45.73443521256492" lon="9.75160788107474"><ele>289.0</ele><time>2026-03-27T15:59:18Z</time></trkpt><trkpt lat="45.734444501958286" lon="9.751784787913934"><ele>289.0</ele><time>2026-03-27T15:59:20Z</time></trkpt><trkpt lat="45.73446725390306" lon="9.75187633026634"><ele>289.0</ele><time>2026-03-27T15:59:21Z</time></trkpt><trkpt lat="45.73448504058802" lon="9.751964908971065"><ele>289.0</ele><time>2026-03-27T15:59:22Z</time></trkpt><trkpt lat="45.734502828065246" lon="9.752054465787062"><ele>289.14285714285717</ele><time>2026-03-27T15:59:23Z</time></trkpt><trkpt lat="45.73451900679232" lon="9.752144124623767"><ele>289.2857142857143</ele><time>2026-03-27T15:59:24Z</time></trkpt><trkpt lat="45.73454355695234" lon="9.75232342925536"><ele>289.42857142857144</ele><time>2026-03-27T15:59:26Z</time></trkpt><trkpt lat="45.73455535962616" lon="9.75241261732989"><ele>289.57142857142856</ele><time>2026-03-27T15:59:27Z</time></trkpt><trkpt lat="45.73456147382565" lon="9.75250297651453"><ele>289.7142857142857</ele><time>2026-03-27T15:59:28Z</time></trkpt><trkpt lat="45.734568354594415" lon="9.752594138946312"><ele>289.8571428571429</ele><time>2026-03-27T15:59:29Z</time></trkpt><trkpt lat="45.73457425169275" lon="9.75268769426014"><ele>290.0</ele><time>2026-03-27T15:59:30Z</time></trkpt><trkpt lat="45.73458804465791" lon="9.752870443928575"><ele>290.2</ele><time>2026-03-27T15:59:32Z</time></trkpt><trkpt lat="45.73459807127475" lon="9.753047845929562"><ele>290.4</ele><time>2026-03-27T15:59:34Z</time></trkpt><trkpt lat="45.734599147295874" lon="9.753140248296978"><ele>290.6</ele><time>2026-03-27T15:59:35Z</time></trkpt><trkpt lat="45.73460167181863" lon="9.753234843730406"><ele>290.8</ele><time>2026-03-27T15:59:36Z</time></trkpt><trkpt lat="45.73460169391899" lon="9.753415523863765"><ele>291.0</ele><time>2026-03-27T15:59:38Z</time></trkpt><trkpt lat="45.73460643821515" lon="9.753596811939786"><ele>291.0</ele><time>2026-03-27T15:59:40Z</time></trkpt><trkpt lat="45.734608324881286" lon="9.75369057719284"><ele>291.0</ele><time>2026-03-27T15:59:41Z</time></trkpt><trkpt lat="45.73461036176266" lon="9.753781647903573"><ele>291.0</ele><time>2026-03-27T15:59:42Z</time></trkpt><trkpt lat="45.73461469415326" lon="9.753959586161459"><ele>291.0</ele><time>2026-03-27T15:59:44Z</time></trkpt><trkpt lat="45.73462034875818" lon="9.754136639419775"><ele>291.0</ele><time>2026-03-27T15:59:46Z</time></trkpt><trkpt lat="45.73462879750573" lon="9.754315072531314"><ele>291.5</ele><time>2026-03-27T15:59:48Z</time></trkpt><trkpt lat="45.73464118467954" lon="9.754494990977468"><ele>292.0</ele><time>2026-03-27T15:59:50Z</time></trkpt><trkpt lat="45.7346506206083" lon="9.754673033304682"><ele>292.5</ele><time>2026-03-27T15:59:52Z</time></trkpt><trkpt lat="45.734658101867886" lon="9.754847496706194"><ele>293.0</ele><time>2026-03-27T15:59:54Z</time></trkpt><trkpt lat="45.73466173598894" lon="9.755018065099149"><ele>293.0</ele><time>2026-03-27T15:59:56Z</time></trkpt><trkpt lat="45.73463251625105" lon="9.755191868844232"><ele>293.0</ele><time>2026-03-27T15:59:58Z</time></trkpt><trkpt lat="45.734582713110655" lon="9.755342130494315"><ele>293.0</ele><time>2026-03-27T16:00:00Z</time></trkpt><trkpt lat="45.734558570124356" lon="9.755528978422333"><ele>293.0</ele><time>2026-03-27T16:00:02Z</time></trkpt><trkpt lat="45.7346167416139" lon="9.75570127613323"><ele>293.4</ele><time>2026-03-27T16:00:04Z</time></trkpt><trkpt lat="45.734730042285676" lon="9.755763401690398"><ele>293.8</ele><time>2026-03-27T16:00:06Z</time></trkpt><trkpt lat="45.73479712319937" lon="9.755763280193708"><ele>294.2</ele><time>2026-03-27T16:00:07Z</time></trkpt><trkpt lat="45.73491623344207" lon="9.75574291126803"><ele>294.6</ele><time>2026-03-27T16:00:09Z</time></trkpt><trkpt lat="45.73504247245613" lon="9.755755519379157"><ele>295.0</ele><time>2026-03-27T16:00:11Z</time></trkpt><trkpt lat="45.73510602536603" lon="9.755771748776219"><ele>295.16666666666663</ele><time>2026-03-27T16:00:12Z</time></trkpt><trkpt lat="45.735221439620794" lon="9.755846983474372"><ele>295.3333333333333</ele><time>2026-03-27T16:00:14Z</time></trkpt><trkpt lat="45.735326123038064" lon="9.755937950076595"><ele>295.5</ele><time>2026-03-27T16:00:16Z</time></trkpt><trkpt lat="45.73538269879143" lon="9.755990418728802"><ele>295.6666666666667</ele><time>2026-03-27T16:00:17Z</time></trkpt><trkpt lat="45.73543599266979" lon="9.756039356222416"><ele>295.83333333333337</ele><time>2026-03-27T16:00:18Z</time></trkpt><trkpt lat="45.73549040829265" lon="9.756094777581515"><ele>296.0</ele><time>2026-03-27T16:00:19Z</time></trkpt><trkpt lat="45.73554735595205" lon="9.756138698477205"><ele>296.0</ele><time>2026-03-27T16:00:20Z</time></trkpt><trkpt lat="45.73560092392503" lon="9.756187748020553"><ele>296.0</ele><time>2026-03-27T16:00:21Z</time></trkpt><trkpt lat="45.73570296733825" lon="9.756281255315415"><ele>296.0</ele><time>2026-03-27T16:00:23Z</time></trkpt><trkpt lat="45.73580537299658" lon="9.756377142711813"><ele>296.0</ele><time>2026-03-27T16:00:25Z</time></trkpt><trkpt lat="45.73585276617782" lon="9.756439918198847"><ele>296.0</ele><time>2026-03-27T16:00:26Z</time></trkpt><trkpt lat="45.735899373993604" lon="9.756503521557272"><ele>296.0</ele><time>2026-03-27T16:00:27Z</time></trkpt><trkpt lat="45.73594368163191" lon="9.756567641114957"><ele>296.0</ele><time>2026-03-27T16:00:28Z</time></trkpt><trkpt lat="45.736030956369454" lon="9.756695137236646"><ele>296.0</ele><time>2026-03-27T16:00:30Z</time></trkpt><trkpt lat="45.73610807050194" lon="9.756832850397528"><ele>296.0</ele><time>2026-03-27T16:00:32Z</time></trkpt><trkpt lat="45.736180884249805" lon="9.756966963429985"><ele>296.0</ele><time>2026-03-27T16:00:34Z</time></trkpt><trkpt lat="45.73622658183509" lon="9.757121327823915"><ele>296.0</ele><time>2026-03-27T16:00:36.001Z</time></trkpt><trkpt lat="45.7361788644179" lon="9.757261091644574"><ele>296.0</ele><time>2026-03-27T16:00:38.001Z</time></trkpt><trkpt lat="45.736054737518266" lon="9.757251826715507"><ele>296.0</ele><time>2026-03-27T16:00:40.001Z</time></trkpt><trkpt lat="45.73599450270587" lon="9.757212667534613"><ele>296.0</ele><time>2026-03-27T16:00:41.001Z</time></trkpt><trkpt lat="45.73593158201119" lon="9.757199068666198"><ele>296.0</ele><time>2026-03-27T16:00:42.001Z</time></trkpt><trkpt lat="45.73580959014105" lon="9.757172833353813"><ele>297.2</ele><time>2026-03-27T16:00:44.001Z</time></trkpt><trkpt lat="45.73568661866814" lon="9.757170962626072"><ele>298.40000000000003</ele><time>2026-03-27T16:00:46.001Z</time></trkpt><trkpt lat="45.73556335648416" lon="9.757183407924"><ele>299.6</ele><time>2026-03-27T16:00:48.001Z</time></trkpt><trkpt lat="45.73544086933506" lon="9.757191147719253"><ele>300.8</ele><time>2026-03-27T16:00:50.001Z</time></trkpt><trkpt lat="45.73537791612722" lon="9.75719986656517"><ele>302.0</ele><time>2026-03-27T16:00:51.001Z</time></trkpt><trkpt lat="45.735254412901746" lon="9.757203583208561"><ele>303.25</ele><time>2026-03-27T16:00:53.001Z</time></trkpt><trkpt lat="45.73513607580828" lon="9.75722076056533"><ele>304.5</ele><time>2026-03-27T16:00:55.001Z</time></trkpt><trkpt lat="45.735013950533485" lon="9.757227653800701"><ele>305.75</ele><time>2026-03-27T16:00:57.001Z</time></trkpt><trkpt lat="45.73489504791064" lon="9.757233954518629"><ele>307.0</ele><time>2026-03-27T16:00:59.001Z</time></trkpt><trkpt lat="45.73477925375662" lon="9.757245920861127"><ele>307.0</ele><time>2026-03-27T16:01:01.001Z</time></trkpt><trkpt lat="45.73466351361844" lon="9.757260397720561"><ele>307.0</ele><time>2026-03-27T16:01:03Z</time></trkpt><trkpt lat="45.73454554871823" lon="9.7572683385938"><ele>307.0</ele><time>2026-03-27T16:01:05Z</time></trkpt><trkpt lat="45.73442933631003" lon="9.757278391065505"><ele>307.0</ele><time>2026-03-27T16:01:07Z</time></trkpt><trkpt lat="45.73431241158057" lon="9.75729773394726"><ele>307.0</ele><time>2026-03-27T16:01:09Z</time></trkpt><trkpt lat="45.73420079679814" lon="9.757354263874882"><ele>307.0</ele><time>2026-03-27T16:01:11Z</time></trkpt><trkpt lat="45.73408415721501" lon="9.75742022056054"><ele>307.0</ele><time>2026-03-27T16:01:13Z</time></trkpt><trkpt lat="45.73397680861787" lon="9.757503270737555"><ele>307.0</ele><time>2026-03-27T16:01:15Z</time></trkpt><trkpt lat="45.73387053839911" lon="9.757580208247896"><ele>307.0</ele><time>2026-03-27T16:01:17Z</time></trkpt><trkpt lat="45.73376090521797" lon="9.757642780462191"><ele>307.0</ele><time>2026-03-27T16:01:19Z</time></trkpt><trkpt lat="45.733645876074505" lon="9.757694322941811"><ele>307.0</ele><time>2026-03-27T16:01:21Z</time></trkpt><trkpt lat="45.73353398318932" lon="9.757743912177453"><ele>307.0</ele><time>2026-03-27T16:01:23Z</time></trkpt><trkpt lat="45.73346728103425" lon="9.757776335481216"><ele>307.0</ele><time>2026-03-27T16:01:24Z</time></trkpt><trkpt lat="45.73335054199676" lon="9.757839403066232"><ele>306.8</ele><time>2026-03-27T16:01:26Z</time></trkpt><trkpt lat="45.7332882407757" lon="9.757871984786632"><ele>306.6</ele><time>2026-03-27T16:01:27Z</time></trkpt><trkpt lat="45.73317536341854" lon="9.75795423411981"><ele>306.40000000000003</ele><time>2026-03-27T16:01:29Z</time></trkpt><trkpt lat="45.73306728011749" lon="9.758046797079832"><ele>306.2</ele><time>2026-03-27T16:01:31Z</time></trkpt><trkpt lat="45.73300239915426" lon="9.758080072947955"><ele>306.0</ele><time>2026-03-27T16:01:32Z</time></trkpt><trkpt lat="45.73294644080734" lon="9.758123085413743"><ele>306.0</ele><time>2026-03-27T16:01:33Z</time></trkpt><trkpt lat="45.732833447524605" lon="9.758214472936368"><ele>306.0</ele><time>2026-03-27T16:01:35Z</time></trkpt><trkpt lat="45.732773516089" lon="9.758259086140917"><ele>306.0</ele><time>2026-03-27T16:01:36Z</time></trkpt><trkpt lat="45.732663420248265" lon="9.758341546362857"><ele>306.0</ele><time>2026-03-27T16:01:38Z</time></trkpt><trkpt lat="45.73260031766471" lon="9.758375006000186"><ele>306.0</ele><time>2026-03-27T16:01:39Z</time></trkpt><trkpt lat="45.73254184732306" lon="9.758412497168097"><ele>305.5</ele><time>2026-03-27T16:01:40Z</time></trkpt><trkpt lat="45.7324173736251" lon="9.758476010926357"><ele>305.0</ele><time>2026-03-27T16:01:42Z</time></trkpt><trkpt lat="45.73229718837834" lon="9.758533804071336"><ele>304.5</ele><time>2026-03-27T16:01:44Z</time></trkpt><trkpt lat="45.73223071075164" lon="9.758566828339873"><ele>304.0</ele><time>2026-03-27T16:01:45Z</time></trkpt><trkpt lat="45.73210944057369" lon="9.758620806250459"><ele>304.4285714285714</ele><time>2026-03-27T16:01:47Z</time></trkpt><trkpt lat="45.73204833120037" lon="9.758656791626105"><ele>304.8571428571429</ele><time>2026-03-27T16:01:48Z</time></trkpt><trkpt lat="45.73198463764449" lon="9.758669889429008"><ele>305.2857142857143</ele><time>2026-03-27T16:01:49Z</time></trkpt><trkpt lat="45.731923028066234" lon="9.758696151909009"><ele>305.71428571428567</ele><time>2026-03-27T16:01:50Z</time></trkpt><trkpt lat="45.73185867716467" lon="9.758714941390274"><ele>306.1428571428571</ele><time>2026-03-27T16:01:51Z</time></trkpt><trkpt lat="45.73179394017144" lon="9.758726211438503"><ele>306.57142857142856</ele><time>2026-03-27T16:01:52Z</time></trkpt><trkpt lat="45.73172802025305" lon="9.758749060028707"><ele>307.0</ele><time>2026-03-27T16:01:53Z</time></trkpt><trkpt lat="45.731657916367034" lon="9.758762512872885"><ele>307.0</ele><time>2026-03-27T16:01:54Z</time></trkpt><trkpt lat="45.731587393736156" lon="9.758777926977098"><ele>307.0</ele><time>2026-03-27T16:01:55Z</time></trkpt><trkpt lat="45.73152122357349" lon="9.75878890150254"><ele>307.0</ele><time>2026-03-27T16:01:56Z</time></trkpt><trkpt lat="45.731392820534694" lon="9.758809527606141"><ele>307.0</ele><time>2026-03-27T16:01:58Z</time></trkpt><trkpt lat="45.73132973468436" lon="9.758811558084274"><ele>307.0</ele><time>2026-03-27T16:01:59Z</time></trkpt><trkpt lat="45.731210445105624" lon="9.758839630850686"><ele>307.0</ele><time>2026-03-27T16:02:01Z</time></trkpt><trkpt lat="45.73109404958604" lon="9.758874354536747"><ele>307.0</ele><time>2026-03-27T16:02:03Z</time></trkpt><trkpt lat="45.730983501684534" lon="9.758940020097025"><ele>307.0</ele><time>2026-03-27T16:02:05Z</time></trkpt><trkpt lat="45.730885553621626" lon="9.759030969701856"><ele>307.0</ele><time>2026-03-27T16:02:07Z</time></trkpt><trkpt lat="45.730781738762765" lon="9.759086216164343"><ele>306.8</ele><time>2026-03-27T16:02:09Z</time></trkpt><trkpt lat="45.730727124908114" lon="9.759144714500763"><ele>306.6</ele><time>2026-03-27T16:02:10Z</time></trkpt><trkpt lat="45.730609583674806" lon="9.759191602692749"><ele>306.40000000000003</ele><time>2026-03-27T16:02:12Z</time></trkpt><trkpt lat="45.73053816531249" lon="9.759198368689113"><ele>306.2</ele><time>2026-03-27T16:02:13Z</time></trkpt><trkpt lat="45.730466432916835" lon="9.759199995742936"><ele>306.0</ele><time>2026-03-27T16:02:14Z</time></trkpt><trkpt lat="45.73035410603472" lon="9.759252995478834"><ele>306.0</ele><time>2026-03-27T16:02:16Z</time></trkpt><trkpt lat="45.7302303493938" lon="9.759262805587058"><ele>306.0</ele><time>2026-03-27T16:02:18Z</time></trkpt><trkpt lat="45.73010582438436" lon="9.759284183471674"><ele>306.0</ele><time>2026-03-27T16:02:20Z</time></trkpt><trkpt lat="45.73004123827194" lon="9.759292524763401"><ele>306.0</ele><time>2026-03-27T16:02:21Z</time></trkpt><trkpt lat="45.72997480087512" lon="9.75930156781286"><ele>306.0</ele><time>2026-03-27T16:02:22Z</time></trkpt><trkpt lat="45.729909153180124" lon="9.759309958919392"><ele>306.0</ele><time>2026-03-27T16:02:23Z</time></trkpt><trkpt lat="45.72983878935673" lon="9.759314264498268"><ele>306.0</ele><time>2026-03-27T16:02:24Z</time></trkpt><trkpt lat="45.72976895323572" lon="9.759324705341722"><ele>306.0</ele><time>2026-03-27T16:02:25Z</time></trkpt><trkpt lat="45.72970525839814" lon="9.75932869429919"><ele>306.0</ele><time>2026-03-27T16:02:26Z</time></trkpt><trkpt lat="45.72959264196118" lon="9.759335290841305"><ele>306.0</ele><time>2026-03-27T16:02:28Z</time></trkpt><trkpt lat="45.729475496252" lon="9.759332391941035"><ele>306.0</ele><time>2026-03-27T16:02:30Z</time></trkpt><trkpt lat="45.72935628316075" lon="9.759325136997571"><ele>305.85714285714283</ele><time>2026-03-27T16:02:32Z</time></trkpt><trkpt lat="45.72929360611579" lon="9.759333955957343"><ele>305.7142857142857</ele><time>2026-03-27T16:02:33Z</time></trkpt><trkpt lat="45.72922795745252" lon="9.759342373408073"><ele>305.57142857142856</ele><time>2026-03-27T16:02:34Z</time></trkpt><trkpt lat="45.729164229142015" lon="9.759344528183748"><ele>305.42857142857144</ele><time>2026-03-27T16:02:35Z</time></trkpt><trkpt lat="45.72909922014411" lon="9.759355056902294"><ele>305.2857142857143</ele><time>2026-03-27T16:02:36Z</time></trkpt><trkpt lat="45.72903613872734" lon="9.759385712627974"><ele>305.14285714285717</ele><time>2026-03-27T16:02:37Z</time></trkpt><trkpt lat="45.72897302099075" lon="9.759403503237717"><ele>305.0</ele><time>2026-03-27T16:02:38Z</time></trkpt><trkpt lat="45.72891033420011" lon="9.759420640836435"><ele>305.83333333333337</ele><time>2026-03-27T16:02:39Z</time></trkpt><trkpt lat="45.72884999330346" lon="9.759446404808438"><ele>306.6666666666667</ele><time>2026-03-27T16:02:40Z</time></trkpt><trkpt lat="45.72878963199995" lon="9.759481848925267"><ele>307.5</ele><time>2026-03-27T16:02:41Z</time></trkpt><trkpt lat="45.72867388534005" lon="9.759541560279647"><ele>308.3333333333333</ele><time>2026-03-27T16:02:43.001Z</time></trkpt><trkpt lat="45.728563260314495" lon="9.759605656983105"><ele>309.16666666666663</ele><time>2026-03-27T16:02:45.001Z</time></trkpt><trkpt lat="45.72849869974823" lon="9.759635304581177"><ele>310.0</ele><time>2026-03-27T16:02:46.001Z</time></trkpt><trkpt lat="45.72837601065113" lon="9.759698996089524"><ele>310.0</ele><time>2026-03-27T16:02:48.001Z</time></trkpt><trkpt lat="45.72826143876909" lon="9.759758678636805"><ele>310.0</ele><time>2026-03-27T16:02:50.001Z</time></trkpt><trkpt lat="45.72820091043944" lon="9.759788659496207"><ele>310.0</ele><time>2026-03-27T16:02:51.001Z</time></trkpt><trkpt lat="45.728142142422556" lon="9.75982309049867"><ele>310.0</ele><time>2026-03-27T16:02:52.001Z</time></trkpt><trkpt lat="45.728081169819454" lon="9.759847196395539"><ele>310.0</ele><time>2026-03-27T16:02:53.001Z</time></trkpt><trkpt lat="45.72802080431502" lon="9.759879876998642"><ele>310.0</ele><time>2026-03-27T16:02:54.001Z</time></trkpt><trkpt lat="45.727903410375745" lon="9.759933811060833"><ele>310.0</ele><time>2026-03-27T16:02:56.001Z</time></trkpt><trkpt lat="45.72784408009416" lon="9.759966163208563"><ele>310.0</ele><time>2026-03-27T16:02:57.001Z</time></trkpt><trkpt lat="45.727729884172845" lon="9.76002409962288"><ele>310.0</ele><time>2026-03-27T16:02:59.001Z</time></trkpt><trkpt lat="45.72761047025373" lon="9.760074243923846"><ele>310.0</ele><time>2026-03-27T16:03:01.001Z</time></trkpt><trkpt lat="45.72755039254891" lon="9.76010457225765"><ele>310.0</ele><time>2026-03-27T16:03:02.001Z</time></trkpt><trkpt lat="45.727434721334426" lon="9.760160783529306"><ele>311.4</ele><time>2026-03-27T16:03:04.001Z</time></trkpt><trkpt lat="45.72731481737384" lon="9.760206064718975"><ele>312.8</ele><time>2026-03-27T16:03:06.001Z</time></trkpt><trkpt lat="45.72719334090754" lon="9.760245817092986"><ele>314.2</ele><time>2026-03-27T16:03:08.001Z</time></trkpt><trkpt lat="45.72713132563064" lon="9.760266126582946"><ele>315.6</ele><time>2026-03-27T16:03:09.001Z</time></trkpt><trkpt lat="45.72706812927399" lon="9.76028349566712"><ele>317.0</ele><time>2026-03-27T16:03:10.001Z</time></trkpt><trkpt lat="45.72694600059595" lon="9.760317811710884"><ele>316.2</ele><time>2026-03-27T16:03:12Z</time></trkpt><trkpt lat="45.72682310294494" lon="9.760349854171867"><ele>315.4</ele><time>2026-03-27T16:03:14Z</time></trkpt><trkpt lat="45.726762065772945" lon="9.76037278887254"><ele>314.6</ele><time>2026-03-27T16:03:15Z</time></trkpt><trkpt lat="45.72664269205067" lon="9.760419209999318"><ele>313.8</ele><time>2026-03-27T16:03:17Z</time></trkpt><trkpt lat="45.72652508306308" lon="9.760469479582214"><ele>313.0</ele><time>2026-03-27T16:03:19Z</time></trkpt><trkpt lat="45.72640932239291" lon="9.760517928698196"><ele>313.0</ele><time>2026-03-27T16:03:21Z</time></trkpt><trkpt lat="45.72634789823688" lon="9.760540776198173"><ele>313.0</ele><time>2026-03-27T16:03:22Z</time></trkpt><trkpt lat="45.72622756849547" lon="9.760587648617559"><ele>313.0</ele><time>2026-03-27T16:03:24Z</time></trkpt><trkpt lat="45.726106610235604" lon="9.760636102370869"><ele>313.0</ele><time>2026-03-27T16:03:26Z</time></trkpt><trkpt lat="45.72604672926997" lon="9.760664603794348"><ele>313.0</ele><time>2026-03-27T16:03:27Z</time></trkpt><trkpt lat="45.72598413654991" lon="9.760693100820172"><ele>313.0</ele><time>2026-03-27T16:03:28Z</time></trkpt><trkpt lat="45.72586048002234" lon="9.760747780199587"><ele>312.25</ele><time>2026-03-27T16:03:30Z</time></trkpt><trkpt lat="45.725742625995686" lon="9.760790121504254"><ele>311.5</ele><time>2026-03-27T16:03:32Z</time></trkpt><trkpt lat="45.725622748402955" lon="9.760836468480683"><ele>310.75</ele><time>2026-03-27T16:03:34Z</time></trkpt><trkpt lat="45.72550247554574" lon="9.760884826135731"><ele>310.0</ele><time>2026-03-27T16:03:36Z</time></trkpt><trkpt lat="45.72538492403658" lon="9.76093911449944"><ele>310.0</ele><time>2026-03-27T16:03:38Z</time></trkpt><trkpt lat="45.725270954102434" lon="9.761000136330837"><ele>310.0</ele><time>2026-03-27T16:03:40Z</time></trkpt><trkpt lat="45.72515382234183" lon="9.761069064398752"><ele>310.0</ele><time>2026-03-27T16:03:42Z</time></trkpt><trkpt lat="45.72504371463268" lon="9.76113768810776"><ele>310.0</ele><time>2026-03-27T16:03:44Z</time></trkpt><trkpt lat="45.72493569916633" lon="9.761223584874863"><ele>311.0</ele><time>2026-03-27T16:03:46Z</time></trkpt><trkpt lat="45.72483269109064" lon="9.761318495646798"><ele>312.0</ele><time>2026-03-27T16:03:48Z</time></trkpt><trkpt lat="45.72473898232147" lon="9.761431609833013"><ele>313.0</ele><time>2026-03-27T16:03:50Z</time></trkpt><trkpt lat="45.724693411566584" lon="9.761497834473252"><ele>314.0</ele><time>2026-03-27T16:03:51Z</time></trkpt><trkpt lat="45.72461147525064" lon="9.761631663503502"><ele>315.0</ele><time>2026-03-27T16:03:53Z</time></trkpt><trkpt lat="45.72457445781822" lon="9.761706545712784"><ele>315.0</ele><time>2026-03-27T16:03:54Z</time></trkpt><trkpt lat="45.72451222595583" lon="9.76185943485437"><ele>315.0</ele><time>2026-03-27T16:03:56Z</time></trkpt><trkpt lat="45.72448056841227" lon="9.761940912012593"><ele>315.0</ele><time>2026-03-27T16:03:57Z</time></trkpt><trkpt lat="45.724417146103995" lon="9.762091448066181"><ele>315.0</ele><time>2026-03-27T16:03:59Z</time></trkpt><trkpt lat="45.724353945036256" lon="9.762241672441803"><ele>315.0</ele><time>2026-03-27T16:04:01Z</time></trkpt><trkpt lat="45.72431866624501" lon="9.762316882978359"><ele>314.8333333333333</ele><time>2026-03-27T16:04:02Z</time></trkpt><trkpt lat="45.72424400288889" lon="9.762457904995378"><ele>314.6666666666667</ele><time>2026-03-27T16:04:04Z</time></trkpt><trkpt lat="45.724202739437814" lon="9.762526536526014"><ele>314.5</ele><time>2026-03-27T16:04:05Z</time></trkpt><trkpt lat="45.724163644057064" lon="9.762598448234295"><ele>314.33333333333337</ele><time>2026-03-27T16:04:06Z</time></trkpt><trkpt lat="45.724073641187005" lon="9.762714814734915"><ele>314.1666666666667</ele><time>2026-03-27T16:04:08Z</time></trkpt><trkpt lat="45.72402200178479" lon="9.762773570231804"><ele>314.0</ele><time>2026-03-27T16:04:09Z</time></trkpt><trkpt lat="45.72396938143546" lon="9.762825531864536"><ele>314.1666666666667</ele><time>2026-03-27T16:04:10Z</time></trkpt><trkpt lat="45.72386898559213" lon="9.762933988289111"><ele>314.33333333333337</ele><time>2026-03-27T16:04:12Z</time></trkpt><trkpt lat="45.72381836562866" lon="9.762993737328578"><ele>314.5</ele><time>2026-03-27T16:04:13Z</time></trkpt><trkpt lat="45.72376605475882" lon="9.76304778486467"><ele>314.6666666666667</ele><time>2026-03-27T16:04:14Z</time></trkpt><trkpt lat="45.72366480503659" lon="9.76315072684333"><ele>314.8333333333333</ele><time>2026-03-27T16:04:16Z</time></trkpt><trkpt lat="45.72361691014859" lon="9.76321328750773"><ele>315.0</ele><time>2026-03-27T16:04:17Z</time></trkpt><trkpt lat="45.72352798204074" lon="9.763339466467551"><ele>315.0</ele><time>2026-03-27T16:04:19Z</time></trkpt><trkpt lat="45.723437239127136" lon="9.763469473470392"><ele>315.0</ele><time>2026-03-27T16:04:21Z</time></trkpt><trkpt lat="45.72335232658484" lon="9.763586438742612"><ele>315.0</ele><time>2026-03-27T16:04:23Z</time></trkpt><trkpt lat="45.72330226847731" lon="9.763654218781536"><ele>315.0</ele><time>2026-03-27T16:04:24Z</time></trkpt><trkpt lat="45.72321465892029" lon="9.763769590712794"><ele>315.0</ele><time>2026-03-27T16:04:26Z</time></trkpt><trkpt lat="45.72316768665285" lon="9.763844143137662"><ele>314.8</ele><time>2026-03-27T16:04:27Z</time></trkpt><trkpt lat="45.72306991904585" lon="9.763949578146667"><ele>314.6</ele><time>2026-03-27T16:04:29Z</time></trkpt><trkpt lat="45.723019297814" lon="9.76401230449227"><ele>314.4</ele><time>2026-03-27T16:04:30Z</time></trkpt><trkpt lat="45.72292451276779" lon="9.764124233550254"><ele>314.2</ele><time>2026-03-27T16:04:32Z</time></trkpt><trkpt lat="45.72282164418832" lon="9.764226068054446"><ele>314.0</ele><time>2026-03-27T16:04:34Z</time></trkpt><trkpt lat="45.72272223036015" lon="9.764330376517652"><ele>315.0</ele><time>2026-03-27T16:04:36Z</time></trkpt><trkpt lat="45.72261797040716" lon="9.76442588694645"><ele>316.0</ele><time>2026-03-27T16:04:38Z</time></trkpt><trkpt lat="45.72256225992413" lon="9.764470605980753"><ele>317.0</ele><time>2026-03-27T16:04:39Z</time></trkpt><trkpt lat="45.72246209178033" lon="9.76457453586083"><ele>318.0</ele><time>2026-03-27T16:04:41Z</time></trkpt><trkpt lat="45.72240864520832" lon="9.76462446783194"><ele>319.0</ele><time>2026-03-27T16:04:42Z</time></trkpt><trkpt lat="45.7223061344799" lon="9.764721348767827"><ele>319.0</ele><time>2026-03-27T16:04:44Z</time></trkpt><trkpt lat="45.72220435091049" lon="9.764818244464587"><ele>319.0</ele><time>2026-03-27T16:04:46Z</time></trkpt><trkpt lat="45.72211196441512" lon="9.764926837178015"><ele>319.0</ele><time>2026-03-27T16:04:48.001Z</time></trkpt><trkpt lat="45.722059377306735" lon="9.764979515787761"><ele>319.0</ele><time>2026-03-27T16:04:49.001Z</time></trkpt><trkpt lat="45.72195651767533" lon="9.765075296321239"><ele>319.0</ele><time>2026-03-27T16:04:51.001Z</time></trkpt><trkpt lat="45.7218558882347" lon="9.765176595163194"><ele>319.0</ele><time>2026-03-27T16:04:53.001Z</time></trkpt><trkpt lat="45.721753229378486" lon="9.765276609117524"><ele>319.0</ele><time>2026-03-27T16:04:55.001Z</time></trkpt><trkpt lat="45.721698689591" lon="9.765330708127124"><ele>319.0</ele><time>2026-03-27T16:04:56.001Z</time></trkpt><trkpt lat="45.7215953156829" lon="9.765434468885942"><ele>319.0</ele><time>2026-03-27T16:04:58.001Z</time></trkpt><trkpt lat="45.721545680299016" lon="9.765492081016056"><ele>319.0</ele><time>2026-03-27T16:04:59.001Z</time></trkpt><trkpt lat="45.72144942115093" lon="9.765596813300286"><ele>319.0</ele><time>2026-03-27T16:05:01.001Z</time></trkpt><trkpt lat="45.72139897086845" lon="9.765654807914379"><ele>319.0</ele><time>2026-03-27T16:05:02.001Z</time></trkpt><trkpt lat="45.72129864365463" lon="9.765762819622154"><ele>319.0</ele><time>2026-03-27T16:05:04.001Z</time></trkpt><trkpt lat="45.721249437110906" lon="9.765819089011622"><ele>319.0</ele><time>2026-03-27T16:05:05.001Z</time></trkpt><trkpt lat="45.72115209059565" lon="9.765927707158319"><ele>319.0</ele><time>2026-03-27T16:05:07.001Z</time></trkpt><trkpt lat="45.72105674983354" lon="9.76604011796844"><ele>319.75</ele><time>2026-03-27T16:05:09.001Z</time></trkpt><trkpt lat="45.72096584104729" lon="9.766157800941738"><ele>320.5</ele><time>2026-03-27T16:05:11.001Z</time></trkpt><trkpt lat="45.72087237252461" lon="9.766276986779896"><ele>321.25</ele><time>2026-03-27T16:05:13.001Z</time></trkpt><trkpt lat="45.72078234254723" lon="9.766392986729988"><ele>322.0</ele><time>2026-03-27T16:05:15Z</time></trkpt><trkpt lat="45.72068845038396" lon="9.766513467993018"><ele>322.0</ele><time>2026-03-27T16:05:17Z</time></trkpt><trkpt lat="45.72059658483655" lon="9.766629398588812"><ele>322.0</ele><time>2026-03-27T16:05:19Z</time></trkpt><trkpt lat="45.72054648019441" lon="9.766685616431612"><ele>322.0</ele><time>2026-03-27T16:05:20Z</time></trkpt><trkpt lat="45.72044305773415" lon="9.766787387220736"><ele>322.0</ele><time>2026-03-27T16:05:22Z</time></trkpt><trkpt lat="45.72034119048086" lon="9.766885947257904"><ele>322.0</ele><time>2026-03-27T16:05:24Z</time></trkpt><trkpt lat="45.72028754489006" lon="9.766935158888327"><ele>322.66666666666663</ele><time>2026-03-27T16:05:25Z</time></trkpt><trkpt lat="45.72023476821512" lon="9.766985977196496"><ele>323.3333333333333</ele><time>2026-03-27T16:05:26Z</time></trkpt><trkpt lat="45.7201359206989" lon="9.767079862220719"><ele>324.0</ele><time>2026-03-27T16:05:28Z</time></trkpt><trkpt lat="45.72008242177724" lon="9.767139654925973"><ele>324.6666666666667</ele><time>2026-03-27T16:05:29Z</time></trkpt><trkpt lat="45.71998182177549" lon="9.76724195076103"><ele>325.33333333333337</ele><time>2026-03-27T16:05:31Z</time></trkpt><trkpt lat="45.71992928806977" lon="9.767297250039235"><ele>326.0</ele><time>2026-03-27T16:05:32Z</time></trkpt><trkpt lat="45.71982678197886" lon="9.767401893812515"><ele>326.0</ele><time>2026-03-27T16:05:34Z</time></trkpt><trkpt lat="45.7197202423423" lon="9.767501754255104"><ele>326.0</ele><time>2026-03-27T16:05:36Z</time></trkpt><trkpt lat="45.719622384019644" lon="9.767610571568717"><ele>326.0</ele><time>2026-03-27T16:05:38Z</time></trkpt><trkpt lat="45.71951799613042" lon="9.767711852547729"><ele>326.0</ele><time>2026-03-27T16:05:40Z</time></trkpt><trkpt lat="45.71946559161003" lon="9.767763183859763"><ele>326.0</ele><time>2026-03-27T16:05:41Z</time></trkpt><trkpt lat="45.71937007845475" lon="9.76786033083542"><ele>325.4</ele><time>2026-03-27T16:05:43Z</time></trkpt><trkpt lat="45.71931651366133" lon="9.767915205319792"><ele>324.8</ele><time>2026-03-27T16:05:44Z</time></trkpt><trkpt lat="45.7192145121988" lon="9.76801543168917"><ele>324.2</ele><time>2026-03-27T16:05:46Z</time></trkpt><trkpt lat="45.71911399036137" lon="9.768115207534633"><ele>323.59999999999997</ele><time>2026-03-27T16:05:48Z</time></trkpt><trkpt lat="45.71906126484962" lon="9.768169098600184"><ele>323.0</ele><time>2026-03-27T16:05:49Z</time></trkpt><trkpt lat="45.718959859898554" lon="9.768269198190179"><ele>323.0</ele><time>2026-03-27T16:05:51Z</time></trkpt><trkpt lat="45.71890663138257" lon="9.768321678873203"><ele>323.0</ele><time>2026-03-27T16:05:52Z</time></trkpt><trkpt lat="45.718800664466826" lon="9.768418368116716"><ele>323.0</ele><time>2026-03-27T16:05:54Z</time></trkpt><trkpt lat="45.71869722994242" lon="9.768517896223631"><ele>323.0</ele><time>2026-03-27T16:05:56Z</time></trkpt><trkpt lat="45.718643835552946" lon="9.76856902881311"><ele>323.0</ele><time>2026-03-27T16:05:57Z</time></trkpt><trkpt lat="45.718542185874725" lon="9.768667108661573"><ele>322.79999999999995</ele><time>2026-03-27T16:05:59Z</time></trkpt><trkpt lat="45.718489608017954" lon="9.768719523108224"><ele>322.6</ele><time>2026-03-27T16:06:00Z</time></trkpt><trkpt lat="45.71838676790441" lon="9.768815999602753"><ele>322.4</ele><time>2026-03-27T16:06:02Z</time></trkpt><trkpt lat="45.71829064517464" lon="9.768923726635254"><ele>322.20000000000005</ele><time>2026-03-27T16:06:04Z</time></trkpt><trkpt lat="45.71819738735785" lon="9.769040588413317"><ele>322.0</ele><time>2026-03-27T16:06:05.999Z</time></trkpt><trkpt lat="45.71810472827777" lon="9.769159388657384"><ele>322.0</ele><time>2026-03-27T16:06:07.999Z</time></trkpt><trkpt lat="45.71803155812983" lon="9.769281475036712"><ele>322.0</ele><time>2026-03-27T16:06:09.999Z</time></trkpt><trkpt lat="45.71796473993763" lon="9.76939938876346"><ele>322.0</ele><time>2026-03-27T16:06:11.999Z</time></trkpt><trkpt lat="45.71789131449672" lon="9.76950603906378"><ele>322.0</ele><time>2026-03-27T16:06:13.999Z</time></trkpt><trkpt lat="45.71780804212302" lon="9.769633859464445"><ele>322.0</ele><time>2026-03-27T16:06:15.999Z</time></trkpt><trkpt lat="45.717732649553234" lon="9.769769624391222"><ele>322.20000000000005</ele><time>2026-03-27T16:06:17.999Z</time></trkpt><trkpt lat="45.717657064861726" lon="9.769898901739328"><ele>322.4</ele><time>2026-03-27T16:06:19.999Z</time></trkpt><trkpt lat="45.717612168100025" lon="9.769963383499096"><ele>322.6</ele><time>2026-03-27T16:06:20.999Z</time></trkpt><trkpt lat="45.71752514810645" lon="9.77008677460107"><ele>322.79999999999995</ele><time>2026-03-27T16:06:22.999Z</time></trkpt><trkpt lat="45.71744607720177" lon="9.770217387625646"><ele>323.0</ele><time>2026-03-27T16:06:24.999Z</time></trkpt><trkpt lat="45.717373644264285" lon="9.770347286736596"><ele>323.59999999999997</ele><time>2026-03-27T16:06:26.999Z</time></trkpt><trkpt lat="45.71728848575059" lon="9.770465044962869"><ele>324.2</ele><time>2026-03-27T16:06:28.999Z</time></trkpt><trkpt lat="45.71721937965093" lon="9.770590589734322"><ele>324.8</ele><time>2026-03-27T16:06:30.999Z</time></trkpt><trkpt lat="45.71714588705424" lon="9.770712486730806"><ele>325.4</ele><time>2026-03-27T16:06:32.999Z</time></trkpt><trkpt lat="45.717079975418756" lon="9.770820052213704"><ele>326.0</ele><time>2026-03-27T16:06:34.999Z</time></trkpt><trkpt lat="45.71702709299033" lon="9.770924086944126"><ele>326.6</ele><time>2026-03-27T16:06:36.999Z</time></trkpt><trkpt lat="45.71699592529127" lon="9.771067960048825"><ele>327.20000000000005</ele><time>2026-03-27T16:06:38.999Z</time></trkpt><trkpt lat="45.716969439685755" lon="9.771212769846368"><ele>327.79999999999995</ele><time>2026-03-27T16:06:40.999Z</time></trkpt><trkpt lat="45.716973457124965" lon="9.771331603376403"><ele>328.4</ele><time>2026-03-27T16:06:42.999Z</time></trkpt><trkpt lat="45.71704582570054" lon="9.771411930580458"><ele>329.0</ele><time>2026-03-27T16:06:44.999Z</time></trkpt><trkpt lat="45.7171399810271" lon="9.771450848399123"><ele>329.0</ele><time>2026-03-27T16:06:46.999Z</time></trkpt><trkpt lat="45.717242783145764" lon="9.771470896284724"><ele>329.0</ele><time>2026-03-27T16:06:48.999Z</time></trkpt><trkpt lat="45.71733419358081" lon="9.771486210332206"><ele>329.0</ele><time>2026-03-27T16:06:50.999Z</time></trkpt><trkpt lat="45.71742018853158" lon="9.771505104982648"><ele>329.0</ele><time>2026-03-27T16:06:52.999Z</time></trkpt><trkpt lat="45.717497554232345" lon="9.771466459890078"><ele>329.0</ele><time>2026-03-27T16:06:55Z</time></trkpt><trkpt lat="45.71752957462481" lon="9.771343745769174"><ele>329.0</ele><time>2026-03-27T16:06:57Z</time></trkpt><trkpt lat="45.717560374694536" lon="9.771219346843345"><ele>329.0</ele><time>2026-03-27T16:06:59Z</time></trkpt><trkpt lat="45.71759627353994" lon="9.77111230584651"><ele>329.0</ele><time>2026-03-27T16:07:01Z</time></trkpt><trkpt lat="45.717648249876" lon="9.770985352435607"><ele>329.0</ele><time>2026-03-27T16:07:03Z</time></trkpt><trkpt lat="45.71772074410175" lon="9.770856122369967"><ele>329.0</ele><time>2026-03-27T16:07:05Z</time></trkpt><trkpt lat="45.71780174910455" lon="9.770742529092509"><ele>329.79999999999995</ele><time>2026-03-27T16:07:07Z</time></trkpt><trkpt lat="45.71787475462805" lon="9.770623403482139"><ele>330.59999999999997</ele><time>2026-03-27T16:07:09Z</time></trkpt><trkpt lat="45.71797813660993" lon="9.770588289789169"><ele>331.4</ele><time>2026-03-27T16:07:11Z</time></trkpt><trkpt lat="45.71806268277468" lon="9.770685011313267"><ele>332.2</ele><time>2026-03-27T16:07:13Z</time></trkpt><trkpt lat="45.718141447755514" lon="9.770733158041194"><ele>333.0</ele><time>2026-03-27T16:07:15Z</time></trkpt><trkpt lat="45.71820577332792" lon="9.770777202071365"><ele>333.0</ele><time>2026-03-27T16:07:17Z</time></trkpt><trkpt lat="45.71826872358209" lon="9.770823988324741"><ele>333.0</ele><time>2026-03-27T16:07:19Z</time></trkpt><trkpt lat="45.71834502690846" lon="9.770883046267592"><ele>333.0</ele><time>2026-03-27T16:07:22Z</time></trkpt><trkpt lat="45.718422823633304" lon="9.770947461422645"><ele>333.0</ele><time>2026-03-27T16:07:25Z</time></trkpt><trkpt lat="45.718499722487294" lon="9.770992351213975"><ele>333.0</ele><time>2026-03-27T16:07:28Z</time></trkpt><trkpt lat="45.71856952058335" lon="9.770997605462906"><ele>333.0</ele><time>2026-03-27T16:07:31Z</time></trkpt><trkpt lat="45.7186070245136" lon="9.770884936599888"><ele>343.0</ele><time>2026-03-27T16:07:34Z</time></trkpt></trkseg></trk></gpx>